<?xml version="1.0" encoding="UTF-8" standalone="no" ?>
<gpx xmlns="http://www.topografix.com/GPX/1/1" xmlns:xsi="http://www.w3.org/2001/XMLSchema-instance" xsi:schemaLocation="http://www.topografix.com/GPX/1/1 http://www.topografix.com/GPX/1/1/gpx.xsd" version="1.1" creator="VisuGPX - https://www.visugpx.com">
  <metadata>
    <name>Gruissan rando Vigie, Falaises</name>
    <desc><![CDATA[Départ du parking de la Chapelle des Auzils cheminement avant de contourne le domaine de St Obre puis très belle montée jusqu'à la vigie. De là direction le plateau qui domine le domaine de Fiiguières (pose casse croute" direct° plein Sud pour arriver au dessus des falaises d'escalade. descente et remonter au Sud de "Pierre Droite" pour arriver à un superbe point de vue sur les étangs,la mer, Gruissan. Descente sur les anciennes vasque (maintenant asséchées)de la Goutine puis retour point de départ]]></desc>
  </metadata>
  <trk>
    <name><![CDATA[visugpx_DeXuD4bhmU_1]]></name>
    <extensions>
      <line xmlns="http://www.topografix.com/GPX/gpx_style/0/2">
        <color>0000FF</color>
        <width>4</width>
      </line>
    </extensions>
    <trkseg>
      <trkpt lat="43.13631" lon="3.09811">
        <ele>15</ele>
        <time>2025-12-29T11:08:03.875Z</time>
      </trkpt>
      <trkpt lat="43.13632" lon="3.09815">
        <ele>17</ele>
        <time>2025-12-29T11:08:04.875Z</time>
      </trkpt>
      <trkpt lat="43.13632" lon="3.09817">
        <ele>20</ele>
        <time>2025-12-29T11:08:05.875Z</time>
      </trkpt>
      <trkpt lat="43.13633" lon="3.09819">
        <ele>22</ele>
        <time>2025-12-29T11:08:06.875Z</time>
      </trkpt>
      <trkpt lat="43.13634" lon="3.09821">
        <ele>24</ele>
        <time>2025-12-29T11:08:07.875Z</time>
      </trkpt>
      <trkpt lat="43.13635" lon="3.09823">
        <ele>26</ele>
        <time>2025-12-29T11:08:08.875Z</time>
      </trkpt>
      <trkpt lat="43.13635" lon="3.09825">
        <ele>28</ele>
        <time>2025-12-29T11:08:09.875Z</time>
      </trkpt>
      <trkpt lat="43.13636" lon="3.09827">
        <ele>30</ele>
        <time>2025-12-29T11:08:10.875Z</time>
      </trkpt>
      <trkpt lat="43.13637" lon="3.0983">
        <ele>31</ele>
        <time>2025-12-29T11:08:11.875Z</time>
      </trkpt>
      <trkpt lat="43.13638" lon="3.09832">
        <ele>32</ele>
        <time>2025-12-29T11:08:12.875Z</time>
      </trkpt>
      <trkpt lat="43.13638" lon="3.09834">
        <ele>33</ele>
        <time>2025-12-29T11:08:13.875Z</time>
      </trkpt>
      <trkpt lat="43.13639" lon="3.09836">
        <ele>34</ele>
        <time>2025-12-29T11:08:14.875Z</time>
      </trkpt>
      <trkpt lat="43.1364" lon="3.09838">
        <ele>35</ele>
        <time>2025-12-29T11:08:15.875Z</time>
      </trkpt>
      <trkpt lat="43.1364" lon="3.09841">
        <ele>36</ele>
        <time>2025-12-29T11:08:16.875Z</time>
      </trkpt>
      <trkpt lat="43.13641" lon="3.09843">
        <ele>37</ele>
        <time>2025-12-29T11:08:17.875Z</time>
      </trkpt>
      <trkpt lat="43.13642" lon="3.09846">
        <ele>37</ele>
        <time>2025-12-29T11:08:18.875Z</time>
      </trkpt>
      <trkpt lat="43.13642" lon="3.09847">
        <ele>38</ele>
        <time>2025-12-29T11:08:19.875Z</time>
      </trkpt>
      <trkpt lat="43.13643" lon="3.0985">
        <ele>38</ele>
        <time>2025-12-29T11:08:20.875Z</time>
      </trkpt>
      <trkpt lat="43.13643" lon="3.09853">
        <ele>39</ele>
        <time>2025-12-29T11:08:21.875Z</time>
      </trkpt>
      <trkpt lat="43.13643" lon="3.09856">
        <ele>39</ele>
        <time>2025-12-29T11:08:22.875Z</time>
      </trkpt>
      <trkpt lat="43.13643" lon="3.09858">
        <ele>40</ele>
        <time>2025-12-29T11:08:23.875Z</time>
      </trkpt>
      <trkpt lat="43.13644" lon="3.0986">
        <ele>40</ele>
        <time>2025-12-29T11:08:24.875Z</time>
      </trkpt>
      <trkpt lat="43.13645" lon="3.09862">
        <ele>40</ele>
        <time>2025-12-29T11:08:25.875Z</time>
      </trkpt>
      <trkpt lat="43.13645" lon="3.09864">
        <ele>41</ele>
        <time>2025-12-29T11:08:26.875Z</time>
      </trkpt>
      <trkpt lat="43.13646" lon="3.09866">
        <ele>41</ele>
        <time>2025-12-29T11:08:27.875Z</time>
      </trkpt>
      <trkpt lat="43.13645" lon="3.0987">
        <ele>41</ele>
        <time>2025-12-29T11:08:28.875Z</time>
      </trkpt>
      <trkpt lat="43.13644" lon="3.09875">
        <ele>41</ele>
        <time>2025-12-29T11:08:29.875Z</time>
      </trkpt>
      <trkpt lat="43.13644" lon="3.09879">
        <ele>42</ele>
        <time>2025-12-29T11:08:30.875Z</time>
      </trkpt>
      <trkpt lat="43.13643" lon="3.09883">
        <ele>42</ele>
        <time>2025-12-29T11:08:31.875Z</time>
      </trkpt>
      <trkpt lat="43.13643" lon="3.09887">
        <ele>42</ele>
        <time>2025-12-29T11:08:32.875Z</time>
      </trkpt>
      <trkpt lat="43.13642" lon="3.09891">
        <ele>43</ele>
        <time>2025-12-29T11:08:33.875Z</time>
      </trkpt>
      <trkpt lat="43.13641" lon="3.09896">
        <ele>43</ele>
        <time>2025-12-29T11:08:34.875Z</time>
      </trkpt>
      <trkpt lat="43.1364" lon="3.09901">
        <ele>43</ele>
        <time>2025-12-29T11:08:35.875Z</time>
      </trkpt>
      <trkpt lat="43.1364" lon="3.09904">
        <ele>43</ele>
        <time>2025-12-29T11:08:36.875Z</time>
      </trkpt>
      <trkpt lat="43.1364" lon="3.09905">
        <ele>44</ele>
        <time>2025-12-29T11:08:37.875Z</time>
      </trkpt>
      <trkpt lat="43.13641" lon="3.09905">
        <ele>44</ele>
        <time>2025-12-29T11:08:38.875Z</time>
      </trkpt>
      <trkpt lat="43.13641" lon="3.09906">
        <ele>44</ele>
        <time>2025-12-29T11:08:39.875Z</time>
      </trkpt>
      <trkpt lat="43.13641" lon="3.09908">
        <ele>44</ele>
        <time>2025-12-29T11:08:40.875Z</time>
      </trkpt>
      <trkpt lat="43.13641" lon="3.09911">
        <ele>44</ele>
        <time>2025-12-29T11:08:41.875Z</time>
      </trkpt>
      <trkpt lat="43.1364" lon="3.09914">
        <ele>44</ele>
        <time>2025-12-29T11:08:42.875Z</time>
      </trkpt>
      <trkpt lat="43.1364" lon="3.09917">
        <ele>45</ele>
        <time>2025-12-29T11:08:43.875Z</time>
      </trkpt>
      <trkpt lat="43.1364" lon="3.09919">
        <ele>45</ele>
        <time>2025-12-29T11:08:44.875Z</time>
      </trkpt>
      <trkpt lat="43.13639" lon="3.09922">
        <ele>45</ele>
        <time>2025-12-29T11:08:45.875Z</time>
      </trkpt>
      <trkpt lat="43.13639" lon="3.09925">
        <ele>45</ele>
        <time>2025-12-29T11:08:46.875Z</time>
      </trkpt>
      <trkpt lat="43.13639" lon="3.09927">
        <ele>45</ele>
        <time>2025-12-29T11:08:47.875Z</time>
      </trkpt>
      <trkpt lat="43.13639" lon="3.0993">
        <ele>46</ele>
        <time>2025-12-29T11:08:48.875Z</time>
      </trkpt>
      <trkpt lat="43.13639" lon="3.09931">
        <ele>46</ele>
        <time>2025-12-29T11:08:49.875Z</time>
      </trkpt>
      <trkpt lat="43.1364" lon="3.09932">
        <ele>46</ele>
        <time>2025-12-29T11:08:50.875Z</time>
      </trkpt>
      <trkpt lat="43.1364" lon="3.09933">
        <ele>46</ele>
        <time>2025-12-29T11:08:51.875Z</time>
      </trkpt>
      <trkpt lat="43.13639" lon="3.09936">
        <ele>46</ele>
        <time>2025-12-29T11:08:52.875Z</time>
      </trkpt>
      <trkpt lat="43.13639" lon="3.09937">
        <ele>46</ele>
        <time>2025-12-29T11:08:53.875Z</time>
      </trkpt>
      <trkpt lat="43.13639" lon="3.09939">
        <ele>46</ele>
        <time>2025-12-29T11:08:54.875Z</time>
      </trkpt>
      <trkpt lat="43.13639" lon="3.09942">
        <ele>46</ele>
        <time>2025-12-29T11:08:55.875Z</time>
      </trkpt>
      <trkpt lat="43.13638" lon="3.09945">
        <ele>47</ele>
        <time>2025-12-29T11:08:56.875Z</time>
      </trkpt>
      <trkpt lat="43.13637" lon="3.09952">
        <ele>47</ele>
        <time>2025-12-29T11:08:57.875Z</time>
      </trkpt>
      <trkpt lat="43.13636" lon="3.09953">
        <ele>47</ele>
        <time>2025-12-29T11:08:58.875Z</time>
      </trkpt>
      <trkpt lat="43.13636" lon="3.09955">
        <ele>47</ele>
        <time>2025-12-29T11:08:59.875Z</time>
      </trkpt>
      <trkpt lat="43.13636" lon="3.09957">
        <ele>47</ele>
        <time>2025-12-29T11:09:00.875Z</time>
      </trkpt>
      <trkpt lat="43.13636" lon="3.09959">
        <ele>47</ele>
        <time>2025-12-29T11:09:01.875Z</time>
      </trkpt>
      <trkpt lat="43.13636" lon="3.09961">
        <ele>47</ele>
        <time>2025-12-29T11:09:02.875Z</time>
      </trkpt>
      <trkpt lat="43.13636" lon="3.09963">
        <ele>47</ele>
        <time>2025-12-29T11:09:03.875Z</time>
      </trkpt>
      <trkpt lat="43.13637" lon="3.09965">
        <ele>47</ele>
        <time>2025-12-29T11:09:04.875Z</time>
      </trkpt>
      <trkpt lat="43.13636" lon="3.09967">
        <ele>47</ele>
        <time>2025-12-29T11:09:05.875Z</time>
      </trkpt>
      <trkpt lat="43.13636" lon="3.09969">
        <ele>47</ele>
        <time>2025-12-29T11:09:06.875Z</time>
      </trkpt>
      <trkpt lat="43.13636" lon="3.09971">
        <ele>46</ele>
        <time>2025-12-29T11:09:07.875Z</time>
      </trkpt>
      <trkpt lat="43.13635" lon="3.09974">
        <ele>46</ele>
        <time>2025-12-29T11:09:08.875Z</time>
      </trkpt>
      <trkpt lat="43.13636" lon="3.09976">
        <ele>46</ele>
        <time>2025-12-29T11:09:09.875Z</time>
      </trkpt>
      <trkpt lat="43.13636" lon="3.09976">
        <ele>46</ele>
        <time>2025-12-29T11:09:10.875Z</time>
      </trkpt>
      <trkpt lat="43.13636" lon="3.09978">
        <ele>46</ele>
        <time>2025-12-29T11:09:11.875Z</time>
      </trkpt>
      <trkpt lat="43.13636" lon="3.09979">
        <ele>46</ele>
        <time>2025-12-29T11:09:12.875Z</time>
      </trkpt>
      <trkpt lat="43.13636" lon="3.09981">
        <ele>46</ele>
        <time>2025-12-29T11:09:13.875Z</time>
      </trkpt>
      <trkpt lat="43.13637" lon="3.09982">
        <ele>46</ele>
        <time>2025-12-29T11:09:14.875Z</time>
      </trkpt>
      <trkpt lat="43.13637" lon="3.09983">
        <ele>46</ele>
        <time>2025-12-29T11:09:15.875Z</time>
      </trkpt>
      <trkpt lat="43.13638" lon="3.09983">
        <ele>45</ele>
        <time>2025-12-29T11:09:16.875Z</time>
      </trkpt>
      <trkpt lat="43.13639" lon="3.09984">
        <ele>45</ele>
        <time>2025-12-29T11:09:17.875Z</time>
      </trkpt>
      <trkpt lat="43.13639" lon="3.09985">
        <ele>45</ele>
        <time>2025-12-29T11:09:18.875Z</time>
      </trkpt>
      <trkpt lat="43.1364" lon="3.09987">
        <ele>45</ele>
        <time>2025-12-29T11:09:19.875Z</time>
      </trkpt>
      <trkpt lat="43.1364" lon="3.09989">
        <ele>44</ele>
        <time>2025-12-29T11:09:20.875Z</time>
      </trkpt>
      <trkpt lat="43.1364" lon="3.09992">
        <ele>44</ele>
        <time>2025-12-29T11:09:21.875Z</time>
      </trkpt>
      <trkpt lat="43.1364" lon="3.09995">
        <ele>44</ele>
        <time>2025-12-29T11:09:22.875Z</time>
      </trkpt>
      <trkpt lat="43.13641" lon="3.09996">
        <ele>44</ele>
        <time>2025-12-29T11:09:23.875Z</time>
      </trkpt>
      <trkpt lat="43.13642" lon="3.09997">
        <ele>44</ele>
        <time>2025-12-29T11:09:24.875Z</time>
      </trkpt>
      <trkpt lat="43.13642" lon="3.09997">
        <ele>43</ele>
        <time>2025-12-29T11:09:25.875Z</time>
      </trkpt>
      <trkpt lat="43.13643" lon="3.09998">
        <ele>43</ele>
        <time>2025-12-29T11:09:26.875Z</time>
      </trkpt>
      <trkpt lat="43.13643" lon="3.09999">
        <ele>43</ele>
        <time>2025-12-29T11:09:27.875Z</time>
      </trkpt>
      <trkpt lat="43.13644" lon="3.10001">
        <ele>43</ele>
        <time>2025-12-29T11:09:28.875Z</time>
      </trkpt>
      <trkpt lat="43.13644" lon="3.10003">
        <ele>42</ele>
        <time>2025-12-29T11:09:29.875Z</time>
      </trkpt>
      <trkpt lat="43.13645" lon="3.10004">
        <ele>42</ele>
        <time>2025-12-29T11:09:30.875Z</time>
      </trkpt>
      <trkpt lat="43.13646" lon="3.10005">
        <ele>42</ele>
        <time>2025-12-29T11:09:31.875Z</time>
      </trkpt>
      <trkpt lat="43.13646" lon="3.10006">
        <ele>42</ele>
        <time>2025-12-29T11:09:32.875Z</time>
      </trkpt>
      <trkpt lat="43.13647" lon="3.10007">
        <ele>42</ele>
        <time>2025-12-29T11:09:33.875Z</time>
      </trkpt>
      <trkpt lat="43.13647" lon="3.10008">
        <ele>41</ele>
        <time>2025-12-29T11:09:34.875Z</time>
      </trkpt>
      <trkpt lat="43.13647" lon="3.10009">
        <ele>41</ele>
        <time>2025-12-29T11:09:35.875Z</time>
      </trkpt>
      <trkpt lat="43.13648" lon="3.10011">
        <ele>41</ele>
        <time>2025-12-29T11:09:36.875Z</time>
      </trkpt>
      <trkpt lat="43.13648" lon="3.10013">
        <ele>41</ele>
        <time>2025-12-29T11:09:37.875Z</time>
      </trkpt>
      <trkpt lat="43.13648" lon="3.10014">
        <ele>41</ele>
        <time>2025-12-29T11:09:38.875Z</time>
      </trkpt>
      <trkpt lat="43.13647" lon="3.10016">
        <ele>41</ele>
        <time>2025-12-29T11:09:39.875Z</time>
      </trkpt>
      <trkpt lat="43.13647" lon="3.10017">
        <ele>41</ele>
        <time>2025-12-29T11:09:40.875Z</time>
      </trkpt>
      <trkpt lat="43.13646" lon="3.10018">
        <ele>41</ele>
        <time>2025-12-29T11:09:41.875Z</time>
      </trkpt>
      <trkpt lat="43.13646" lon="3.10019">
        <ele>41</ele>
        <time>2025-12-29T11:09:42.875Z</time>
      </trkpt>
      <trkpt lat="43.13646" lon="3.10019">
        <ele>41</ele>
        <time>2025-12-29T11:09:43.875Z</time>
      </trkpt>
      <trkpt lat="43.13644" lon="3.10019">
        <ele>41</ele>
        <time>2025-12-29T11:09:44.875Z</time>
      </trkpt>
      <trkpt lat="43.13643" lon="3.10017">
        <ele>41</ele>
        <time>2025-12-29T11:09:45.875Z</time>
      </trkpt>
      <trkpt lat="43.13642" lon="3.10017">
        <ele>41</ele>
        <time>2025-12-29T11:09:46.875Z</time>
      </trkpt>
      <trkpt lat="43.13642" lon="3.10017">
        <ele>41</ele>
        <time>2025-12-29T11:09:47.875Z</time>
      </trkpt>
      <trkpt lat="43.13641" lon="3.10022">
        <ele>41</ele>
        <time>2025-12-29T11:09:48.875Z</time>
      </trkpt>
      <trkpt lat="43.1364" lon="3.10023">
        <ele>41</ele>
        <time>2025-12-29T11:09:49.875Z</time>
      </trkpt>
      <trkpt lat="43.13639" lon="3.10024">
        <ele>41</ele>
        <time>2025-12-29T11:09:50.875Z</time>
      </trkpt>
      <trkpt lat="43.13638" lon="3.10025">
        <ele>41</ele>
        <time>2025-12-29T11:09:51.875Z</time>
      </trkpt>
      <trkpt lat="43.13638" lon="3.10022">
        <ele>41</ele>
        <time>2025-12-29T11:09:52.875Z</time>
      </trkpt>
      <trkpt lat="43.13637" lon="3.10022">
        <ele>41</ele>
        <time>2025-12-29T11:09:53.875Z</time>
      </trkpt>
      <trkpt lat="43.13637" lon="3.10021">
        <ele>41</ele>
        <time>2025-12-29T11:09:54.875Z</time>
      </trkpt>
      <trkpt lat="43.13637" lon="3.1002">
        <ele>41</ele>
        <time>2025-12-29T11:09:55.875Z</time>
      </trkpt>
      <trkpt lat="43.13636" lon="3.10019">
        <ele>41</ele>
        <time>2025-12-29T11:09:56.875Z</time>
      </trkpt>
      <trkpt lat="43.13636" lon="3.10018">
        <ele>41</ele>
        <time>2025-12-29T11:09:57.875Z</time>
      </trkpt>
      <trkpt lat="43.13635" lon="3.1002">
        <ele>41</ele>
        <time>2025-12-29T11:09:58.875Z</time>
      </trkpt>
      <trkpt lat="43.13634" lon="3.1002">
        <ele>41</ele>
        <time>2025-12-29T11:09:59.875Z</time>
      </trkpt>
      <trkpt lat="43.13633" lon="3.10021">
        <ele>41</ele>
        <time>2025-12-29T11:10:00.875Z</time>
      </trkpt>
      <trkpt lat="43.13632" lon="3.10023">
        <ele>41</ele>
        <time>2025-12-29T11:10:01.875Z</time>
      </trkpt>
      <trkpt lat="43.13631" lon="3.10026">
        <ele>41</ele>
        <time>2025-12-29T11:10:02.875Z</time>
      </trkpt>
      <trkpt lat="43.13629" lon="3.1003">
        <ele>42</ele>
        <time>2025-12-29T11:10:03.875Z</time>
      </trkpt>
      <trkpt lat="43.13627" lon="3.10031">
        <ele>42</ele>
        <time>2025-12-29T11:10:04.875Z</time>
      </trkpt>
      <trkpt lat="43.13627" lon="3.10031">
        <ele>42</ele>
        <time>2025-12-29T11:10:05.875Z</time>
      </trkpt>
      <trkpt lat="43.13626" lon="3.1003">
        <ele>42</ele>
        <time>2025-12-29T11:10:06.875Z</time>
      </trkpt>
      <trkpt lat="43.13625" lon="3.1003">
        <ele>42</ele>
        <time>2025-12-29T11:10:07.875Z</time>
      </trkpt>
      <trkpt lat="43.13624" lon="3.1003">
        <ele>43</ele>
        <time>2025-12-29T11:10:08.875Z</time>
      </trkpt>
      <trkpt lat="43.13624" lon="3.1003">
        <ele>43</ele>
        <time>2025-12-29T11:10:09.875Z</time>
      </trkpt>
      <trkpt lat="43.13623" lon="3.1003">
        <ele>43</ele>
        <time>2025-12-29T11:10:10.875Z</time>
      </trkpt>
      <trkpt lat="43.13623" lon="3.1003">
        <ele>43</ele>
        <time>2025-12-29T11:10:11.875Z</time>
      </trkpt>
      <trkpt lat="43.13622" lon="3.1003">
        <ele>43</ele>
        <time>2025-12-29T11:10:12.875Z</time>
      </trkpt>
      <trkpt lat="43.13621" lon="3.1003">
        <ele>44</ele>
        <time>2025-12-29T11:10:13.875Z</time>
      </trkpt>
      <trkpt lat="43.1362" lon="3.10033">
        <ele>44</ele>
        <time>2025-12-29T11:10:14.875Z</time>
      </trkpt>
      <trkpt lat="43.13619" lon="3.10035">
        <ele>44</ele>
        <time>2025-12-29T11:10:15.875Z</time>
      </trkpt>
      <trkpt lat="43.13618" lon="3.10035">
        <ele>44</ele>
        <time>2025-12-29T11:10:16.875Z</time>
      </trkpt>
      <trkpt lat="43.13616" lon="3.10037">
        <ele>44</ele>
        <time>2025-12-29T11:10:17.875Z</time>
      </trkpt>
      <trkpt lat="43.13615" lon="3.10039">
        <ele>44</ele>
        <time>2025-12-29T11:10:18.875Z</time>
      </trkpt>
      <trkpt lat="43.13613" lon="3.10045">
        <ele>45</ele>
        <time>2025-12-29T11:10:19.875Z</time>
      </trkpt>
      <trkpt lat="43.13611" lon="3.10048">
        <ele>45</ele>
        <time>2025-12-29T11:10:20.875Z</time>
      </trkpt>
      <trkpt lat="43.1361" lon="3.1005">
        <ele>45</ele>
        <time>2025-12-29T11:10:21.875Z</time>
      </trkpt>
      <trkpt lat="43.13608" lon="3.10049">
        <ele>45</ele>
        <time>2025-12-29T11:10:22.875Z</time>
      </trkpt>
      <trkpt lat="43.13607" lon="3.10052">
        <ele>45</ele>
        <time>2025-12-29T11:10:23.875Z</time>
      </trkpt>
      <trkpt lat="43.13605" lon="3.10054">
        <ele>45</ele>
        <time>2025-12-29T11:10:24.875Z</time>
      </trkpt>
      <trkpt lat="43.13603" lon="3.10056">
        <ele>46</ele>
        <time>2025-12-29T11:10:25.875Z</time>
      </trkpt>
      <trkpt lat="43.13602" lon="3.1006">
        <ele>46</ele>
        <time>2025-12-29T11:10:26.875Z</time>
      </trkpt>
      <trkpt lat="43.136" lon="3.10062">
        <ele>46</ele>
        <time>2025-12-29T11:10:27.875Z</time>
      </trkpt>
      <trkpt lat="43.13598" lon="3.10065">
        <ele>46</ele>
        <time>2025-12-29T11:10:28.875Z</time>
      </trkpt>
      <trkpt lat="43.13597" lon="3.10067">
        <ele>46</ele>
        <time>2025-12-29T11:10:29.875Z</time>
      </trkpt>
      <trkpt lat="43.13596" lon="3.10067">
        <ele>47</ele>
        <time>2025-12-29T11:10:30.875Z</time>
      </trkpt>
      <trkpt lat="43.13595" lon="3.10068">
        <ele>47</ele>
        <time>2025-12-29T11:10:31.875Z</time>
      </trkpt>
      <trkpt lat="43.13594" lon="3.10068">
        <ele>47</ele>
        <time>2025-12-29T11:10:32.875Z</time>
      </trkpt>
      <trkpt lat="43.13593" lon="3.10069">
        <ele>47</ele>
        <time>2025-12-29T11:10:33.875Z</time>
      </trkpt>
      <trkpt lat="43.13592" lon="3.1007">
        <ele>47</ele>
        <time>2025-12-29T11:10:34.875Z</time>
      </trkpt>
      <trkpt lat="43.13591" lon="3.10072">
        <ele>47</ele>
        <time>2025-12-29T11:10:35.875Z</time>
      </trkpt>
      <trkpt lat="43.13589" lon="3.10074">
        <ele>48</ele>
        <time>2025-12-29T11:10:36.875Z</time>
      </trkpt>
      <trkpt lat="43.13589" lon="3.10075">
        <ele>48</ele>
        <time>2025-12-29T11:10:37.875Z</time>
      </trkpt>
      <trkpt lat="43.13587" lon="3.10077">
        <ele>48</ele>
        <time>2025-12-29T11:10:38.875Z</time>
      </trkpt>
      <trkpt lat="43.13586" lon="3.10079">
        <ele>48</ele>
        <time>2025-12-29T11:10:39.875Z</time>
      </trkpt>
      <trkpt lat="43.13585" lon="3.1008">
        <ele>49</ele>
        <time>2025-12-29T11:10:40.875Z</time>
      </trkpt>
      <trkpt lat="43.13584" lon="3.10082">
        <ele>49</ele>
        <time>2025-12-29T11:10:41.875Z</time>
      </trkpt>
      <trkpt lat="43.13584" lon="3.10082">
        <ele>49</ele>
        <time>2025-12-29T11:10:42.875Z</time>
      </trkpt>
      <trkpt lat="43.13583" lon="3.10084">
        <ele>49</ele>
        <time>2025-12-29T11:10:43.875Z</time>
      </trkpt>
      <trkpt lat="43.13582" lon="3.10086">
        <ele>50</ele>
        <time>2025-12-29T11:10:44.875Z</time>
      </trkpt>
      <trkpt lat="43.13581" lon="3.10085">
        <ele>50</ele>
        <time>2025-12-29T11:10:45.875Z</time>
      </trkpt>
      <trkpt lat="43.13581" lon="3.10087">
        <ele>50</ele>
        <time>2025-12-29T11:10:46.875Z</time>
      </trkpt>
      <trkpt lat="43.1358" lon="3.10087">
        <ele>50</ele>
        <time>2025-12-29T11:10:47.875Z</time>
      </trkpt>
      <trkpt lat="43.1358" lon="3.10087">
        <ele>51</ele>
        <time>2025-12-29T11:10:48.875Z</time>
      </trkpt>
      <trkpt lat="43.13579" lon="3.10088">
        <ele>51</ele>
        <time>2025-12-29T11:10:49.875Z</time>
      </trkpt>
      <trkpt lat="43.13578" lon="3.10088">
        <ele>51</ele>
        <time>2025-12-29T11:10:50.875Z</time>
      </trkpt>
      <trkpt lat="43.13577" lon="3.10089">
        <ele>51</ele>
        <time>2025-12-29T11:10:51.875Z</time>
      </trkpt>
      <trkpt lat="43.13577" lon="3.10088">
        <ele>52</ele>
        <time>2025-12-29T11:10:52.875Z</time>
      </trkpt>
      <trkpt lat="43.13576" lon="3.10089">
        <ele>52</ele>
        <time>2025-12-29T11:10:53.875Z</time>
      </trkpt>
      <trkpt lat="43.13576" lon="3.10088">
        <ele>52</ele>
        <time>2025-12-29T11:10:54.875Z</time>
      </trkpt>
      <trkpt lat="43.13576" lon="3.1009">
        <ele>52</ele>
        <time>2025-12-29T11:10:55.875Z</time>
      </trkpt>
      <trkpt lat="43.13576" lon="3.1009">
        <ele>51</ele>
        <time>2025-12-29T11:10:56.875Z</time>
      </trkpt>
      <trkpt lat="43.13575" lon="3.1009">
        <ele>51</ele>
        <time>2025-12-29T11:10:57.875Z</time>
      </trkpt>
      <trkpt lat="43.13575" lon="3.10091">
        <ele>51</ele>
        <time>2025-12-29T11:10:58.875Z</time>
      </trkpt>
      <trkpt lat="43.13574" lon="3.10093">
        <ele>51</ele>
        <time>2025-12-29T11:10:59.875Z</time>
      </trkpt>
      <trkpt lat="43.13573" lon="3.10098">
        <ele>50</ele>
        <time>2025-12-29T11:11:00.875Z</time>
      </trkpt>
      <trkpt lat="43.13571" lon="3.10101">
        <ele>50</ele>
        <time>2025-12-29T11:11:01.875Z</time>
      </trkpt>
      <trkpt lat="43.1357" lon="3.10104">
        <ele>50</ele>
        <time>2025-12-29T11:11:02.875Z</time>
      </trkpt>
      <trkpt lat="43.13569" lon="3.10105">
        <ele>50</ele>
        <time>2025-12-29T11:11:03.875Z</time>
      </trkpt>
      <trkpt lat="43.13569" lon="3.10106">
        <ele>49</ele>
        <time>2025-12-29T11:11:04.875Z</time>
      </trkpt>
      <trkpt lat="43.13568" lon="3.10108">
        <ele>49</ele>
        <time>2025-12-29T11:11:05.875Z</time>
      </trkpt>
      <trkpt lat="43.13568" lon="3.1011">
        <ele>49</ele>
        <time>2025-12-29T11:11:06.875Z</time>
      </trkpt>
      <trkpt lat="43.13567" lon="3.10112">
        <ele>49</ele>
        <time>2025-12-29T11:11:07.875Z</time>
      </trkpt>
      <trkpt lat="43.13567" lon="3.10116">
        <ele>48</ele>
        <time>2025-12-29T11:11:08.875Z</time>
      </trkpt>
      <trkpt lat="43.13567" lon="3.10117">
        <ele>48</ele>
        <time>2025-12-29T11:11:09.875Z</time>
      </trkpt>
      <trkpt lat="43.13567" lon="3.10119">
        <ele>48</ele>
        <time>2025-12-29T11:11:10.875Z</time>
      </trkpt>
      <trkpt lat="43.13568" lon="3.10119">
        <ele>48</ele>
        <time>2025-12-29T11:11:11.875Z</time>
      </trkpt>
      <trkpt lat="43.13569" lon="3.1012">
        <ele>47</ele>
        <time>2025-12-29T11:11:12.875Z</time>
      </trkpt>
      <trkpt lat="43.1357" lon="3.10118">
        <ele>47</ele>
        <time>2025-12-29T11:11:13.875Z</time>
      </trkpt>
      <trkpt lat="43.13571" lon="3.10118">
        <ele>47</ele>
        <time>2025-12-29T11:11:14.875Z</time>
      </trkpt>
      <trkpt lat="43.13572" lon="3.10118">
        <ele>46</ele>
        <time>2025-12-29T11:11:15.875Z</time>
      </trkpt>
      <trkpt lat="43.13573" lon="3.1012">
        <ele>46</ele>
        <time>2025-12-29T11:11:16.875Z</time>
      </trkpt>
      <trkpt lat="43.13573" lon="3.10121">
        <ele>45</ele>
        <time>2025-12-29T11:11:17.875Z</time>
      </trkpt>
      <trkpt lat="43.13573" lon="3.10124">
        <ele>45</ele>
        <time>2025-12-29T11:11:18.875Z</time>
      </trkpt>
      <trkpt lat="43.13574" lon="3.10125">
        <ele>45</ele>
        <time>2025-12-29T11:11:19.875Z</time>
      </trkpt>
      <trkpt lat="43.13574" lon="3.10127">
        <ele>45</ele>
        <time>2025-12-29T11:11:20.875Z</time>
      </trkpt>
      <trkpt lat="43.13574" lon="3.10129">
        <ele>44</ele>
        <time>2025-12-29T11:11:21.875Z</time>
      </trkpt>
      <trkpt lat="43.13574" lon="3.10131">
        <ele>44</ele>
        <time>2025-12-29T11:11:22.875Z</time>
      </trkpt>
      <trkpt lat="43.13574" lon="3.10133">
        <ele>44</ele>
        <time>2025-12-29T11:11:23.875Z</time>
      </trkpt>
      <trkpt lat="43.13574" lon="3.10137">
        <ele>44</ele>
        <time>2025-12-29T11:11:24.875Z</time>
      </trkpt>
      <trkpt lat="43.13574" lon="3.1014">
        <ele>44</ele>
        <time>2025-12-29T11:11:25.875Z</time>
      </trkpt>
      <trkpt lat="43.13575" lon="3.10142">
        <ele>44</ele>
        <time>2025-12-29T11:11:26.875Z</time>
      </trkpt>
      <trkpt lat="43.13574" lon="3.10144">
        <ele>44</ele>
        <time>2025-12-29T11:11:27.875Z</time>
      </trkpt>
      <trkpt lat="43.13574" lon="3.10147">
        <ele>44</ele>
        <time>2025-12-29T11:11:28.875Z</time>
      </trkpt>
      <trkpt lat="43.13574" lon="3.1015">
        <ele>45</ele>
        <time>2025-12-29T11:11:29.875Z</time>
      </trkpt>
      <trkpt lat="43.13573" lon="3.10153">
        <ele>45</ele>
        <time>2025-12-29T11:11:30.875Z</time>
      </trkpt>
      <trkpt lat="43.13572" lon="3.10155">
        <ele>45</ele>
        <time>2025-12-29T11:11:31.875Z</time>
      </trkpt>
      <trkpt lat="43.13572" lon="3.10157">
        <ele>45</ele>
        <time>2025-12-29T11:11:32.875Z</time>
      </trkpt>
      <trkpt lat="43.13572" lon="3.1016">
        <ele>45</ele>
        <time>2025-12-29T11:11:33.875Z</time>
      </trkpt>
      <trkpt lat="43.13571" lon="3.10163">
        <ele>45</ele>
        <time>2025-12-29T11:11:34.875Z</time>
      </trkpt>
      <trkpt lat="43.13571" lon="3.10167">
        <ele>45</ele>
        <time>2025-12-29T11:11:35.875Z</time>
      </trkpt>
      <trkpt lat="43.1357" lon="3.1017">
        <ele>45</ele>
        <time>2025-12-29T11:11:36.875Z</time>
      </trkpt>
      <trkpt lat="43.1357" lon="3.10173">
        <ele>45</ele>
        <time>2025-12-29T11:11:37.875Z</time>
      </trkpt>
      <trkpt lat="43.1357" lon="3.10174">
        <ele>45</ele>
        <time>2025-12-29T11:11:38.875Z</time>
      </trkpt>
      <trkpt lat="43.13569" lon="3.10175">
        <ele>46</ele>
        <time>2025-12-29T11:11:39.875Z</time>
      </trkpt>
      <trkpt lat="43.13569" lon="3.10177">
        <ele>46</ele>
        <time>2025-12-29T11:11:40.875Z</time>
      </trkpt>
      <trkpt lat="43.13569" lon="3.10179">
        <ele>46</ele>
        <time>2025-12-29T11:11:41.875Z</time>
      </trkpt>
      <trkpt lat="43.13569" lon="3.10181">
        <ele>45</ele>
        <time>2025-12-29T11:11:42.875Z</time>
      </trkpt>
      <trkpt lat="43.13569" lon="3.10183">
        <ele>45</ele>
        <time>2025-12-29T11:11:43.875Z</time>
      </trkpt>
      <trkpt lat="43.13569" lon="3.10185">
        <ele>45</ele>
        <time>2025-12-29T11:11:44.875Z</time>
      </trkpt>
      <trkpt lat="43.13569" lon="3.10186">
        <ele>45</ele>
        <time>2025-12-29T11:11:45.875Z</time>
      </trkpt>
      <trkpt lat="43.13569" lon="3.10187">
        <ele>44</ele>
        <time>2025-12-29T11:11:46.875Z</time>
      </trkpt>
      <trkpt lat="43.13568" lon="3.10188">
        <ele>44</ele>
        <time>2025-12-29T11:11:47.875Z</time>
      </trkpt>
      <trkpt lat="43.13567" lon="3.10189">
        <ele>44</ele>
        <time>2025-12-29T11:11:48.875Z</time>
      </trkpt>
      <trkpt lat="43.13566" lon="3.10191">
        <ele>43</ele>
        <time>2025-12-29T11:11:49.875Z</time>
      </trkpt>
      <trkpt lat="43.13565" lon="3.10192">
        <ele>43</ele>
        <time>2025-12-29T11:11:50.875Z</time>
      </trkpt>
      <trkpt lat="43.13564" lon="3.10194">
        <ele>43</ele>
        <time>2025-12-29T11:11:51.875Z</time>
      </trkpt>
      <trkpt lat="43.13564" lon="3.10195">
        <ele>43</ele>
        <time>2025-12-29T11:11:52.875Z</time>
      </trkpt>
      <trkpt lat="43.13564" lon="3.10195">
        <ele>43</ele>
        <time>2025-12-29T11:11:53.875Z</time>
      </trkpt>
      <trkpt lat="43.13564" lon="3.10196">
        <ele>43</ele>
        <time>2025-12-29T11:11:54.875Z</time>
      </trkpt>
      <trkpt lat="43.13564" lon="3.10198">
        <ele>42</ele>
        <time>2025-12-29T11:11:55.875Z</time>
      </trkpt>
      <trkpt lat="43.13564" lon="3.10201">
        <ele>42</ele>
        <time>2025-12-29T11:11:56.875Z</time>
      </trkpt>
      <trkpt lat="43.13564" lon="3.10203">
        <ele>42</ele>
        <time>2025-12-29T11:11:57.875Z</time>
      </trkpt>
      <trkpt lat="43.13564" lon="3.10206">
        <ele>42</ele>
        <time>2025-12-29T11:11:58.875Z</time>
      </trkpt>
      <trkpt lat="43.13564" lon="3.10208">
        <ele>42</ele>
        <time>2025-12-29T11:11:59.875Z</time>
      </trkpt>
      <trkpt lat="43.13564" lon="3.10211">
        <ele>42</ele>
        <time>2025-12-29T11:12:00.875Z</time>
      </trkpt>
      <trkpt lat="43.13564" lon="3.10213">
        <ele>42</ele>
        <time>2025-12-29T11:12:01.875Z</time>
      </trkpt>
      <trkpt lat="43.13564" lon="3.10214">
        <ele>41</ele>
        <time>2025-12-29T11:12:02.875Z</time>
      </trkpt>
      <trkpt lat="43.13565" lon="3.10216">
        <ele>41</ele>
        <time>2025-12-29T11:12:03.875Z</time>
      </trkpt>
      <trkpt lat="43.13565" lon="3.10218">
        <ele>41</ele>
        <time>2025-12-29T11:12:04.875Z</time>
      </trkpt>
      <trkpt lat="43.13565" lon="3.1022">
        <ele>41</ele>
        <time>2025-12-29T11:12:05.875Z</time>
      </trkpt>
      <trkpt lat="43.13565" lon="3.10222">
        <ele>41</ele>
        <time>2025-12-29T11:12:06.875Z</time>
      </trkpt>
      <trkpt lat="43.13565" lon="3.10224">
        <ele>40</ele>
        <time>2025-12-29T11:12:07.875Z</time>
      </trkpt>
      <trkpt lat="43.13565" lon="3.10226">
        <ele>40</ele>
        <time>2025-12-29T11:12:08.875Z</time>
      </trkpt>
      <trkpt lat="43.13565" lon="3.10228">
        <ele>40</ele>
        <time>2025-12-29T11:12:09.875Z</time>
      </trkpt>
      <trkpt lat="43.13565" lon="3.1023">
        <ele>39</ele>
        <time>2025-12-29T11:12:10.875Z</time>
      </trkpt>
      <trkpt lat="43.13565" lon="3.10232">
        <ele>39</ele>
        <time>2025-12-29T11:12:11.875Z</time>
      </trkpt>
      <trkpt lat="43.13564" lon="3.10234">
        <ele>39</ele>
        <time>2025-12-29T11:12:12.875Z</time>
      </trkpt>
      <trkpt lat="43.13564" lon="3.10236">
        <ele>38</ele>
        <time>2025-12-29T11:12:13.875Z</time>
      </trkpt>
      <trkpt lat="43.13564" lon="3.10238">
        <ele>37</ele>
        <time>2025-12-29T11:12:14.875Z</time>
      </trkpt>
      <trkpt lat="43.13564" lon="3.1024">
        <ele>37</ele>
        <time>2025-12-29T11:12:15.875Z</time>
      </trkpt>
      <trkpt lat="43.13564" lon="3.10242">
        <ele>36</ele>
        <time>2025-12-29T11:12:16.875Z</time>
      </trkpt>
      <trkpt lat="43.13564" lon="3.10244">
        <ele>36</ele>
        <time>2025-12-29T11:12:17.875Z</time>
      </trkpt>
      <trkpt lat="43.13564" lon="3.10246">
        <ele>36</ele>
        <time>2025-12-29T11:12:18.875Z</time>
      </trkpt>
      <trkpt lat="43.13564" lon="3.10248">
        <ele>35</ele>
        <time>2025-12-29T11:12:19.875Z</time>
      </trkpt>
      <trkpt lat="43.13564" lon="3.10249">
        <ele>35</ele>
        <time>2025-12-29T11:12:20.875Z</time>
      </trkpt>
      <trkpt lat="43.13564" lon="3.10253">
        <ele>35</ele>
        <time>2025-12-29T11:12:21.875Z</time>
      </trkpt>
      <trkpt lat="43.13564" lon="3.10255">
        <ele>34</ele>
        <time>2025-12-29T11:12:22.875Z</time>
      </trkpt>
      <trkpt lat="43.13564" lon="3.10257">
        <ele>34</ele>
        <time>2025-12-29T11:12:23.875Z</time>
      </trkpt>
      <trkpt lat="43.13564" lon="3.10259">
        <ele>34</ele>
        <time>2025-12-29T11:12:24.875Z</time>
      </trkpt>
      <trkpt lat="43.13565" lon="3.1026">
        <ele>34</ele>
        <time>2025-12-29T11:12:25.875Z</time>
      </trkpt>
      <trkpt lat="43.13567" lon="3.10259">
        <ele>34</ele>
        <time>2025-12-29T11:12:26.875Z</time>
      </trkpt>
      <trkpt lat="43.13568" lon="3.10259">
        <ele>34</ele>
        <time>2025-12-29T11:12:27.875Z</time>
      </trkpt>
      <trkpt lat="43.13568" lon="3.10258">
        <ele>34</ele>
        <time>2025-12-29T11:12:28.875Z</time>
      </trkpt>
      <trkpt lat="43.13569" lon="3.10258">
        <ele>34</ele>
        <time>2025-12-29T11:12:29.875Z</time>
      </trkpt>
      <trkpt lat="43.13569" lon="3.10258">
        <ele>34</ele>
        <time>2025-12-29T11:12:30.875Z</time>
      </trkpt>
      <trkpt lat="43.13569" lon="3.10258">
        <ele>34</ele>
        <time>2025-12-29T11:12:31.875Z</time>
      </trkpt>
      <trkpt lat="43.1357" lon="3.10257">
        <ele>34</ele>
        <time>2025-12-29T11:12:32.875Z</time>
      </trkpt>
      <trkpt lat="43.13571" lon="3.10255">
        <ele>34</ele>
        <time>2025-12-29T11:12:33.875Z</time>
      </trkpt>
      <trkpt lat="43.13571" lon="3.10254">
        <ele>34</ele>
        <time>2025-12-29T11:12:34.875Z</time>
      </trkpt>
      <trkpt lat="43.13572" lon="3.10253">
        <ele>34</ele>
        <time>2025-12-29T11:12:35.875Z</time>
      </trkpt>
      <trkpt lat="43.13572" lon="3.10252">
        <ele>34</ele>
        <time>2025-12-29T11:12:36.875Z</time>
      </trkpt>
      <trkpt lat="43.13573" lon="3.1025">
        <ele>34</ele>
        <time>2025-12-29T11:12:37.875Z</time>
      </trkpt>
      <trkpt lat="43.13574" lon="3.10248">
        <ele>34</ele>
        <time>2025-12-29T11:12:38.875Z</time>
      </trkpt>
      <trkpt lat="43.13575" lon="3.10245">
        <ele>34</ele>
        <time>2025-12-29T11:12:39.875Z</time>
      </trkpt>
      <trkpt lat="43.13576" lon="3.10244">
        <ele>34</ele>
        <time>2025-12-29T11:12:40.875Z</time>
      </trkpt>
      <trkpt lat="43.13577" lon="3.10241">
        <ele>34</ele>
        <time>2025-12-29T11:12:41.875Z</time>
      </trkpt>
      <trkpt lat="43.13578" lon="3.10239">
        <ele>34</ele>
        <time>2025-12-29T11:12:42.875Z</time>
      </trkpt>
      <trkpt lat="43.13579" lon="3.10238">
        <ele>34</ele>
        <time>2025-12-29T11:12:43.875Z</time>
      </trkpt>
      <trkpt lat="43.1358" lon="3.10238">
        <ele>34</ele>
        <time>2025-12-29T11:12:44.875Z</time>
      </trkpt>
      <trkpt lat="43.13581" lon="3.10238">
        <ele>34</ele>
        <time>2025-12-29T11:12:45.875Z</time>
      </trkpt>
      <trkpt lat="43.13581" lon="3.10238">
        <ele>35</ele>
        <time>2025-12-29T11:12:46.875Z</time>
      </trkpt>
      <trkpt lat="43.13581" lon="3.10238">
        <ele>35</ele>
        <time>2025-12-29T11:12:47.875Z</time>
      </trkpt>
      <trkpt lat="43.13582" lon="3.10239">
        <ele>35</ele>
        <time>2025-12-29T11:12:48.875Z</time>
      </trkpt>
      <trkpt lat="43.13583" lon="3.1024">
        <ele>35</ele>
        <time>2025-12-29T11:12:49.875Z</time>
      </trkpt>
      <trkpt lat="43.13584" lon="3.10241">
        <ele>35</ele>
        <time>2025-12-29T11:12:50.875Z</time>
      </trkpt>
      <trkpt lat="43.13585" lon="3.10241">
        <ele>35</ele>
        <time>2025-12-29T11:12:51.875Z</time>
      </trkpt>
      <trkpt lat="43.13586" lon="3.10241">
        <ele>35</ele>
        <time>2025-12-29T11:12:52.875Z</time>
      </trkpt>
      <trkpt lat="43.13587" lon="3.10242">
        <ele>35</ele>
        <time>2025-12-29T11:12:53.875Z</time>
      </trkpt>
      <trkpt lat="43.13588" lon="3.10243">
        <ele>35</ele>
        <time>2025-12-29T11:12:54.875Z</time>
      </trkpt>
      <trkpt lat="43.13589" lon="3.10243">
        <ele>35</ele>
        <time>2025-12-29T11:12:55.875Z</time>
      </trkpt>
      <trkpt lat="43.13591" lon="3.10242">
        <ele>35</ele>
        <time>2025-12-29T11:12:56.875Z</time>
      </trkpt>
      <trkpt lat="43.13592" lon="3.10242">
        <ele>35</ele>
        <time>2025-12-29T11:12:57.875Z</time>
      </trkpt>
      <trkpt lat="43.13593" lon="3.10242">
        <ele>35</ele>
        <time>2025-12-29T11:12:58.875Z</time>
      </trkpt>
      <trkpt lat="43.13595" lon="3.10242">
        <ele>35</ele>
        <time>2025-12-29T11:12:59.875Z</time>
      </trkpt>
      <trkpt lat="43.13597" lon="3.10241">
        <ele>36</ele>
        <time>2025-12-29T11:13:00.875Z</time>
      </trkpt>
      <trkpt lat="43.13598" lon="3.10241">
        <ele>36</ele>
        <time>2025-12-29T11:13:01.875Z</time>
      </trkpt>
      <trkpt lat="43.13599" lon="3.1024">
        <ele>36</ele>
        <time>2025-12-29T11:13:02.875Z</time>
      </trkpt>
      <trkpt lat="43.13601" lon="3.10239">
        <ele>36</ele>
        <time>2025-12-29T11:13:03.875Z</time>
      </trkpt>
      <trkpt lat="43.13602" lon="3.10236">
        <ele>36</ele>
        <time>2025-12-29T11:13:04.875Z</time>
      </trkpt>
      <trkpt lat="43.13602" lon="3.10235">
        <ele>36</ele>
        <time>2025-12-29T11:13:05.875Z</time>
      </trkpt>
      <trkpt lat="43.13603" lon="3.10234">
        <ele>36</ele>
        <time>2025-12-29T11:13:06.875Z</time>
      </trkpt>
      <trkpt lat="43.13604" lon="3.10232">
        <ele>36</ele>
        <time>2025-12-29T11:13:07.875Z</time>
      </trkpt>
      <trkpt lat="43.13604" lon="3.10231">
        <ele>36</ele>
        <time>2025-12-29T11:13:08.875Z</time>
      </trkpt>
      <trkpt lat="43.13605" lon="3.1023">
        <ele>36</ele>
        <time>2025-12-29T11:13:09.875Z</time>
      </trkpt>
      <trkpt lat="43.13606" lon="3.10228">
        <ele>36</ele>
        <time>2025-12-29T11:13:10.875Z</time>
      </trkpt>
      <trkpt lat="43.13607" lon="3.10226">
        <ele>36</ele>
        <time>2025-12-29T11:13:11.875Z</time>
      </trkpt>
      <trkpt lat="43.13608" lon="3.10225">
        <ele>36</ele>
        <time>2025-12-29T11:13:12.875Z</time>
      </trkpt>
      <trkpt lat="43.13609" lon="3.10224">
        <ele>37</ele>
        <time>2025-12-29T11:13:13.875Z</time>
      </trkpt>
      <trkpt lat="43.13609" lon="3.10224">
        <ele>37</ele>
        <time>2025-12-29T11:13:14.875Z</time>
      </trkpt>
      <trkpt lat="43.1361" lon="3.10223">
        <ele>37</ele>
        <time>2025-12-29T11:13:15.875Z</time>
      </trkpt>
      <trkpt lat="43.13611" lon="3.10223">
        <ele>37</ele>
        <time>2025-12-29T11:13:16.875Z</time>
      </trkpt>
      <trkpt lat="43.13611" lon="3.10221">
        <ele>37</ele>
        <time>2025-12-29T11:13:17.875Z</time>
      </trkpt>
      <trkpt lat="43.13612" lon="3.10221">
        <ele>37</ele>
        <time>2025-12-29T11:13:18.875Z</time>
      </trkpt>
      <trkpt lat="43.13612" lon="3.1022">
        <ele>37</ele>
        <time>2025-12-29T11:13:19.875Z</time>
      </trkpt>
      <trkpt lat="43.13612" lon="3.1022">
        <ele>37</ele>
        <time>2025-12-29T11:13:20.875Z</time>
      </trkpt>
      <trkpt lat="43.13613" lon="3.1022">
        <ele>37</ele>
        <time>2025-12-29T11:13:21.875Z</time>
      </trkpt>
      <trkpt lat="43.13613" lon="3.10219">
        <ele>37</ele>
        <time>2025-12-29T11:13:22.875Z</time>
      </trkpt>
      <trkpt lat="43.13613" lon="3.10221">
        <ele>37</ele>
        <time>2025-12-29T11:13:23.875Z</time>
      </trkpt>
      <trkpt lat="43.13612" lon="3.10222">
        <ele>37</ele>
        <time>2025-12-29T11:13:24.875Z</time>
      </trkpt>
      <trkpt lat="43.13611" lon="3.10225">
        <ele>37</ele>
        <time>2025-12-29T11:13:25.875Z</time>
      </trkpt>
      <trkpt lat="43.13611" lon="3.10227">
        <ele>37</ele>
        <time>2025-12-29T11:13:26.875Z</time>
      </trkpt>
      <trkpt lat="43.13611" lon="3.10227">
        <ele>37</ele>
        <time>2025-12-29T11:13:27.875Z</time>
      </trkpt>
      <trkpt lat="43.13611" lon="3.10226">
        <ele>37</ele>
        <time>2025-12-29T11:13:28.875Z</time>
      </trkpt>
      <trkpt lat="43.13611" lon="3.10226">
        <ele>37</ele>
        <time>2025-12-29T11:13:29.875Z</time>
      </trkpt>
      <trkpt lat="43.13611" lon="3.10227">
        <ele>37</ele>
        <time>2025-12-29T11:13:30.875Z</time>
      </trkpt>
      <trkpt lat="43.13612" lon="3.10226">
        <ele>38</ele>
        <time>2025-12-29T11:13:31.875Z</time>
      </trkpt>
      <trkpt lat="43.13613" lon="3.10225">
        <ele>38</ele>
        <time>2025-12-29T11:13:32.875Z</time>
      </trkpt>
      <trkpt lat="43.13613" lon="3.10225">
        <ele>38</ele>
        <time>2025-12-29T11:13:33.875Z</time>
      </trkpt>
      <trkpt lat="43.13613" lon="3.10226">
        <ele>38</ele>
        <time>2025-12-29T11:13:34.875Z</time>
      </trkpt>
      <trkpt lat="43.13613" lon="3.10225">
        <ele>38</ele>
        <time>2025-12-29T11:13:35.875Z</time>
      </trkpt>
      <trkpt lat="43.13614" lon="3.10224">
        <ele>38</ele>
        <time>2025-12-29T11:13:36.875Z</time>
      </trkpt>
      <trkpt lat="43.13615" lon="3.10225">
        <ele>38</ele>
        <time>2025-12-29T11:13:37.875Z</time>
      </trkpt>
      <trkpt lat="43.13616" lon="3.10225">
        <ele>38</ele>
        <time>2025-12-29T11:13:38.875Z</time>
      </trkpt>
      <trkpt lat="43.13617" lon="3.10224">
        <ele>38</ele>
        <time>2025-12-29T11:13:39.875Z</time>
      </trkpt>
      <trkpt lat="43.13618" lon="3.10223">
        <ele>39</ele>
        <time>2025-12-29T11:13:40.875Z</time>
      </trkpt>
      <trkpt lat="43.13619" lon="3.10222">
        <ele>39</ele>
        <time>2025-12-29T11:13:41.875Z</time>
      </trkpt>
      <trkpt lat="43.13621" lon="3.10221">
        <ele>39</ele>
        <time>2025-12-29T11:13:42.875Z</time>
      </trkpt>
      <trkpt lat="43.13622" lon="3.10221">
        <ele>39</ele>
        <time>2025-12-29T11:13:43.875Z</time>
      </trkpt>
      <trkpt lat="43.13623" lon="3.10221">
        <ele>39</ele>
        <time>2025-12-29T11:13:44.875Z</time>
      </trkpt>
      <trkpt lat="43.13624" lon="3.1022">
        <ele>39</ele>
        <time>2025-12-29T11:13:45.875Z</time>
      </trkpt>
      <trkpt lat="43.13625" lon="3.10222">
        <ele>39</ele>
        <time>2025-12-29T11:13:46.875Z</time>
      </trkpt>
      <trkpt lat="43.13626" lon="3.10223">
        <ele>39</ele>
        <time>2025-12-29T11:13:47.875Z</time>
      </trkpt>
      <trkpt lat="43.13627" lon="3.10223">
        <ele>39</ele>
        <time>2025-12-29T11:13:48.875Z</time>
      </trkpt>
      <trkpt lat="43.13628" lon="3.10223">
        <ele>40</ele>
        <time>2025-12-29T11:13:49.875Z</time>
      </trkpt>
      <trkpt lat="43.13629" lon="3.10223">
        <ele>40</ele>
        <time>2025-12-29T11:13:50.875Z</time>
      </trkpt>
      <trkpt lat="43.1363" lon="3.10223">
        <ele>40</ele>
        <time>2025-12-29T11:13:51.875Z</time>
      </trkpt>
      <trkpt lat="43.13631" lon="3.10224">
        <ele>40</ele>
        <time>2025-12-29T11:13:52.875Z</time>
      </trkpt>
      <trkpt lat="43.13631" lon="3.10224">
        <ele>40</ele>
        <time>2025-12-29T11:13:53.875Z</time>
      </trkpt>
      <trkpt lat="43.13632" lon="3.10224">
        <ele>40</ele>
        <time>2025-12-29T11:13:54.875Z</time>
      </trkpt>
      <trkpt lat="43.13633" lon="3.10224">
        <ele>40</ele>
        <time>2025-12-29T11:13:55.875Z</time>
      </trkpt>
      <trkpt lat="43.13634" lon="3.10225">
        <ele>41</ele>
        <time>2025-12-29T11:13:56.875Z</time>
      </trkpt>
      <trkpt lat="43.13635" lon="3.10225">
        <ele>41</ele>
        <time>2025-12-29T11:13:57.875Z</time>
      </trkpt>
      <trkpt lat="43.13636" lon="3.10224">
        <ele>41</ele>
        <time>2025-12-29T11:13:58.875Z</time>
      </trkpt>
      <trkpt lat="43.13637" lon="3.10223">
        <ele>41</ele>
        <time>2025-12-29T11:13:59.875Z</time>
      </trkpt>
      <trkpt lat="43.13639" lon="3.10223">
        <ele>41</ele>
        <time>2025-12-29T11:14:01.875Z</time>
      </trkpt>
      <trkpt lat="43.13641" lon="3.10222">
        <ele>41</ele>
        <time>2025-12-29T11:14:02.875Z</time>
      </trkpt>
      <trkpt lat="43.13643" lon="3.1022">
        <ele>41</ele>
        <time>2025-12-29T11:14:03.875Z</time>
      </trkpt>
      <trkpt lat="43.13644" lon="3.10219">
        <ele>41</ele>
        <time>2025-12-29T11:14:04.875Z</time>
      </trkpt>
      <trkpt lat="43.13646" lon="3.10218">
        <ele>41</ele>
        <time>2025-12-29T11:14:05.875Z</time>
      </trkpt>
      <trkpt lat="43.13648" lon="3.10216">
        <ele>42</ele>
        <time>2025-12-29T11:14:06.875Z</time>
      </trkpt>
      <trkpt lat="43.13649" lon="3.10214">
        <ele>42</ele>
        <time>2025-12-29T11:14:07.875Z</time>
      </trkpt>
      <trkpt lat="43.13651" lon="3.10212">
        <ele>42</ele>
        <time>2025-12-29T11:14:08.875Z</time>
      </trkpt>
      <trkpt lat="43.13652" lon="3.10212">
        <ele>42</ele>
        <time>2025-12-29T11:14:09.875Z</time>
      </trkpt>
      <trkpt lat="43.13653" lon="3.1021">
        <ele>42</ele>
        <time>2025-12-29T11:14:10.875Z</time>
      </trkpt>
      <trkpt lat="43.13655" lon="3.10209">
        <ele>42</ele>
        <time>2025-12-29T11:14:11.875Z</time>
      </trkpt>
      <trkpt lat="43.13656" lon="3.10208">
        <ele>42</ele>
        <time>2025-12-29T11:14:12.875Z</time>
      </trkpt>
      <trkpt lat="43.13657" lon="3.10208">
        <ele>42</ele>
        <time>2025-12-29T11:14:13.875Z</time>
      </trkpt>
      <trkpt lat="43.13659" lon="3.10207">
        <ele>42</ele>
        <time>2025-12-29T11:14:14.875Z</time>
      </trkpt>
      <trkpt lat="43.1366" lon="3.10207">
        <ele>42</ele>
        <time>2025-12-29T11:14:15.875Z</time>
      </trkpt>
      <trkpt lat="43.13662" lon="3.10206">
        <ele>42</ele>
        <time>2025-12-29T11:14:16.875Z</time>
      </trkpt>
      <trkpt lat="43.13664" lon="3.10206">
        <ele>42</ele>
        <time>2025-12-29T11:14:17.875Z</time>
      </trkpt>
      <trkpt lat="43.13666" lon="3.10206">
        <ele>42</ele>
        <time>2025-12-29T11:14:18.875Z</time>
      </trkpt>
      <trkpt lat="43.13667" lon="3.10205">
        <ele>42</ele>
        <time>2025-12-29T11:14:19.875Z</time>
      </trkpt>
      <trkpt lat="43.13669" lon="3.10206">
        <ele>42</ele>
        <time>2025-12-29T11:14:20.875Z</time>
      </trkpt>
      <trkpt lat="43.1367" lon="3.10206">
        <ele>42</ele>
        <time>2025-12-29T11:14:21.875Z</time>
      </trkpt>
      <trkpt lat="43.13672" lon="3.10207">
        <ele>42</ele>
        <time>2025-12-29T11:14:22.875Z</time>
      </trkpt>
      <trkpt lat="43.13673" lon="3.10207">
        <ele>42</ele>
        <time>2025-12-29T11:14:23.875Z</time>
      </trkpt>
      <trkpt lat="43.13674" lon="3.10207">
        <ele>42</ele>
        <time>2025-12-29T11:14:24.875Z</time>
      </trkpt>
      <trkpt lat="43.13676" lon="3.10207">
        <ele>42</ele>
        <time>2025-12-29T11:14:25.875Z</time>
      </trkpt>
      <trkpt lat="43.13677" lon="3.10206">
        <ele>43</ele>
        <time>2025-12-29T11:14:26.875Z</time>
      </trkpt>
      <trkpt lat="43.13679" lon="3.10205">
        <ele>43</ele>
        <time>2025-12-29T11:14:27.875Z</time>
      </trkpt>
      <trkpt lat="43.1368" lon="3.10204">
        <ele>43</ele>
        <time>2025-12-29T11:14:28.875Z</time>
      </trkpt>
      <trkpt lat="43.13682" lon="3.10203">
        <ele>43</ele>
        <time>2025-12-29T11:14:29.875Z</time>
      </trkpt>
      <trkpt lat="43.13683" lon="3.10203">
        <ele>44</ele>
        <time>2025-12-29T11:14:30.875Z</time>
      </trkpt>
      <trkpt lat="43.13685" lon="3.10201">
        <ele>44</ele>
        <time>2025-12-29T11:14:31.875Z</time>
      </trkpt>
      <trkpt lat="43.13686" lon="3.102">
        <ele>44</ele>
        <time>2025-12-29T11:14:32.875Z</time>
      </trkpt>
      <trkpt lat="43.13687" lon="3.10197">
        <ele>44</ele>
        <time>2025-12-29T11:14:33.875Z</time>
      </trkpt>
      <trkpt lat="43.13689" lon="3.10195">
        <ele>45</ele>
        <time>2025-12-29T11:14:34.875Z</time>
      </trkpt>
      <trkpt lat="43.1369" lon="3.10193">
        <ele>45</ele>
        <time>2025-12-29T11:14:35.875Z</time>
      </trkpt>
      <trkpt lat="43.13691" lon="3.10191">
        <ele>45</ele>
        <time>2025-12-29T11:14:36.875Z</time>
      </trkpt>
      <trkpt lat="43.13693" lon="3.10191">
        <ele>45</ele>
        <time>2025-12-29T11:14:37.875Z</time>
      </trkpt>
      <trkpt lat="43.13695" lon="3.1019">
        <ele>46</ele>
        <time>2025-12-29T11:14:38.875Z</time>
      </trkpt>
      <trkpt lat="43.13697" lon="3.10189">
        <ele>46</ele>
        <time>2025-12-29T11:14:39.875Z</time>
      </trkpt>
      <trkpt lat="43.13698" lon="3.10188">
        <ele>46</ele>
        <time>2025-12-29T11:14:40.875Z</time>
      </trkpt>
      <trkpt lat="43.137" lon="3.10186">
        <ele>46</ele>
        <time>2025-12-29T11:14:41.875Z</time>
      </trkpt>
      <trkpt lat="43.13702" lon="3.10186">
        <ele>46</ele>
        <time>2025-12-29T11:14:42.875Z</time>
      </trkpt>
      <trkpt lat="43.13702" lon="3.10186">
        <ele>47</ele>
        <time>2025-12-29T11:14:43.875Z</time>
      </trkpt>
      <trkpt lat="43.13703" lon="3.10186">
        <ele>47</ele>
        <time>2025-12-29T11:14:44.875Z</time>
      </trkpt>
      <trkpt lat="43.13703" lon="3.10187">
        <ele>47</ele>
        <time>2025-12-29T11:14:45.875Z</time>
      </trkpt>
      <trkpt lat="43.13704" lon="3.10187">
        <ele>47</ele>
        <time>2025-12-29T11:14:46.875Z</time>
      </trkpt>
      <trkpt lat="43.13706" lon="3.10186">
        <ele>47</ele>
        <time>2025-12-29T11:14:47.875Z</time>
      </trkpt>
      <trkpt lat="43.13707" lon="3.10186">
        <ele>47</ele>
        <time>2025-12-29T11:14:48.875Z</time>
      </trkpt>
      <trkpt lat="43.13708" lon="3.10185">
        <ele>47</ele>
        <time>2025-12-29T11:14:49.875Z</time>
      </trkpt>
      <trkpt lat="43.13709" lon="3.10185">
        <ele>47</ele>
        <time>2025-12-29T11:14:50.875Z</time>
      </trkpt>
      <trkpt lat="43.1371" lon="3.10186">
        <ele>47</ele>
        <time>2025-12-29T11:14:51.875Z</time>
      </trkpt>
      <trkpt lat="43.13711" lon="3.10187">
        <ele>47</ele>
        <time>2025-12-29T11:14:52.875Z</time>
      </trkpt>
      <trkpt lat="43.13713" lon="3.10187">
        <ele>47</ele>
        <time>2025-12-29T11:14:53.875Z</time>
      </trkpt>
      <trkpt lat="43.13714" lon="3.10186">
        <ele>47</ele>
        <time>2025-12-29T11:14:54.875Z</time>
      </trkpt>
      <trkpt lat="43.13715" lon="3.10186">
        <ele>47</ele>
        <time>2025-12-29T11:14:55.875Z</time>
      </trkpt>
      <trkpt lat="43.13717" lon="3.10185">
        <ele>48</ele>
        <time>2025-12-29T11:14:56.875Z</time>
      </trkpt>
      <trkpt lat="43.13718" lon="3.10185">
        <ele>48</ele>
        <time>2025-12-29T11:14:57.875Z</time>
      </trkpt>
      <trkpt lat="43.13719" lon="3.10184">
        <ele>48</ele>
        <time>2025-12-29T11:14:58.875Z</time>
      </trkpt>
      <trkpt lat="43.1372" lon="3.10183">
        <ele>48</ele>
        <time>2025-12-29T11:14:59.875Z</time>
      </trkpt>
      <trkpt lat="43.13721" lon="3.10183">
        <ele>48</ele>
        <time>2025-12-29T11:15:00.875Z</time>
      </trkpt>
      <trkpt lat="43.13722" lon="3.10182">
        <ele>48</ele>
        <time>2025-12-29T11:15:01.875Z</time>
      </trkpt>
      <trkpt lat="43.13723" lon="3.1018">
        <ele>48</ele>
        <time>2025-12-29T11:15:02.875Z</time>
      </trkpt>
      <trkpt lat="43.13724" lon="3.10177">
        <ele>48</ele>
        <time>2025-12-29T11:15:03.875Z</time>
      </trkpt>
      <trkpt lat="43.13726" lon="3.10171">
        <ele>48</ele>
        <time>2025-12-29T11:15:04.875Z</time>
      </trkpt>
      <trkpt lat="43.13727" lon="3.10167">
        <ele>48</ele>
        <time>2025-12-29T11:15:05.875Z</time>
      </trkpt>
      <trkpt lat="43.13729" lon="3.10162">
        <ele>48</ele>
        <time>2025-12-29T11:15:06.875Z</time>
      </trkpt>
      <trkpt lat="43.13729" lon="3.1016">
        <ele>48</ele>
        <time>2025-12-29T11:15:07.875Z</time>
      </trkpt>
      <trkpt lat="43.1373" lon="3.10157">
        <ele>48</ele>
        <time>2025-12-29T11:15:08.875Z</time>
      </trkpt>
      <trkpt lat="43.13731" lon="3.10155">
        <ele>48</ele>
        <time>2025-12-29T11:15:09.875Z</time>
      </trkpt>
      <trkpt lat="43.13731" lon="3.10153">
        <ele>48</ele>
        <time>2025-12-29T11:15:10.875Z</time>
      </trkpt>
      <trkpt lat="43.13731" lon="3.10151">
        <ele>48</ele>
        <time>2025-12-29T11:15:11.875Z</time>
      </trkpt>
      <trkpt lat="43.13732" lon="3.10148">
        <ele>49</ele>
        <time>2025-12-29T11:15:12.875Z</time>
      </trkpt>
      <trkpt lat="43.13732" lon="3.10146">
        <ele>49</ele>
        <time>2025-12-29T11:15:13.875Z</time>
      </trkpt>
      <trkpt lat="43.13733" lon="3.10145">
        <ele>49</ele>
        <time>2025-12-29T11:15:14.875Z</time>
      </trkpt>
      <trkpt lat="43.13734" lon="3.10144">
        <ele>48</ele>
        <time>2025-12-29T11:15:15.875Z</time>
      </trkpt>
      <trkpt lat="43.13735" lon="3.10143">
        <ele>48</ele>
        <time>2025-12-29T11:15:16.875Z</time>
      </trkpt>
      <trkpt lat="43.13736" lon="3.10142">
        <ele>48</ele>
        <time>2025-12-29T11:15:17.875Z</time>
      </trkpt>
      <trkpt lat="43.13737" lon="3.10142">
        <ele>48</ele>
        <time>2025-12-29T11:15:18.875Z</time>
      </trkpt>
      <trkpt lat="43.13738" lon="3.10142">
        <ele>48</ele>
        <time>2025-12-29T11:15:19.875Z</time>
      </trkpt>
      <trkpt lat="43.13739" lon="3.10143">
        <ele>48</ele>
        <time>2025-12-29T11:15:20.875Z</time>
      </trkpt>
      <trkpt lat="43.1374" lon="3.10144">
        <ele>48</ele>
        <time>2025-12-29T11:15:21.875Z</time>
      </trkpt>
      <trkpt lat="43.13742" lon="3.10144">
        <ele>48</ele>
        <time>2025-12-29T11:15:22.875Z</time>
      </trkpt>
      <trkpt lat="43.13742" lon="3.10146">
        <ele>48</ele>
        <time>2025-12-29T11:15:23.875Z</time>
      </trkpt>
      <trkpt lat="43.13742" lon="3.10147">
        <ele>48</ele>
        <time>2025-12-29T11:15:24.875Z</time>
      </trkpt>
      <trkpt lat="43.13742" lon="3.1015">
        <ele>48</ele>
        <time>2025-12-29T11:15:25.875Z</time>
      </trkpt>
      <trkpt lat="43.13742" lon="3.10153">
        <ele>48</ele>
        <time>2025-12-29T11:15:26.875Z</time>
      </trkpt>
      <trkpt lat="43.13743" lon="3.10156">
        <ele>48</ele>
        <time>2025-12-29T11:15:27.875Z</time>
      </trkpt>
      <trkpt lat="43.13744" lon="3.10158">
        <ele>48</ele>
        <time>2025-12-29T11:15:28.875Z</time>
      </trkpt>
      <trkpt lat="43.13745" lon="3.10161">
        <ele>48</ele>
        <time>2025-12-29T11:15:29.875Z</time>
      </trkpt>
      <trkpt lat="43.13746" lon="3.10161">
        <ele>48</ele>
        <time>2025-12-29T11:15:30.875Z</time>
      </trkpt>
      <trkpt lat="43.13748" lon="3.10161">
        <ele>48</ele>
        <time>2025-12-29T11:15:31.875Z</time>
      </trkpt>
      <trkpt lat="43.13749" lon="3.10161">
        <ele>48</ele>
        <time>2025-12-29T11:15:32.875Z</time>
      </trkpt>
      <trkpt lat="43.13751" lon="3.10161">
        <ele>48</ele>
        <time>2025-12-29T11:15:33.875Z</time>
      </trkpt>
      <trkpt lat="43.13752" lon="3.1016">
        <ele>48</ele>
        <time>2025-12-29T11:15:34.875Z</time>
      </trkpt>
      <trkpt lat="43.13753" lon="3.1016">
        <ele>48</ele>
        <time>2025-12-29T11:15:35.875Z</time>
      </trkpt>
      <trkpt lat="43.13754" lon="3.1016">
        <ele>49</ele>
        <time>2025-12-29T11:15:36.875Z</time>
      </trkpt>
      <trkpt lat="43.13755" lon="3.10162">
        <ele>49</ele>
        <time>2025-12-29T11:15:37.875Z</time>
      </trkpt>
      <trkpt lat="43.13757" lon="3.10162">
        <ele>49</ele>
        <time>2025-12-29T11:15:38.875Z</time>
      </trkpt>
      <trkpt lat="43.13759" lon="3.10163">
        <ele>49</ele>
        <time>2025-12-29T11:15:39.875Z</time>
      </trkpt>
      <trkpt lat="43.13761" lon="3.10163">
        <ele>49</ele>
        <time>2025-12-29T11:15:40.875Z</time>
      </trkpt>
      <trkpt lat="43.13763" lon="3.10163">
        <ele>48</ele>
        <time>2025-12-29T11:15:41.875Z</time>
      </trkpt>
      <trkpt lat="43.13764" lon="3.10164">
        <ele>48</ele>
        <time>2025-12-29T11:15:42.875Z</time>
      </trkpt>
      <trkpt lat="43.13765" lon="3.10165">
        <ele>48</ele>
        <time>2025-12-29T11:15:43.875Z</time>
      </trkpt>
      <trkpt lat="43.13765" lon="3.10166">
        <ele>48</ele>
        <time>2025-12-29T11:15:44.875Z</time>
      </trkpt>
      <trkpt lat="43.13766" lon="3.10168">
        <ele>48</ele>
        <time>2025-12-29T11:15:45.875Z</time>
      </trkpt>
      <trkpt lat="43.13767" lon="3.10168">
        <ele>48</ele>
        <time>2025-12-29T11:15:46.875Z</time>
      </trkpt>
      <trkpt lat="43.13768" lon="3.10168">
        <ele>48</ele>
        <time>2025-12-29T11:15:47.875Z</time>
      </trkpt>
      <trkpt lat="43.13769" lon="3.10169">
        <ele>48</ele>
        <time>2025-12-29T11:15:48.875Z</time>
      </trkpt>
      <trkpt lat="43.1377" lon="3.10168">
        <ele>48</ele>
        <time>2025-12-29T11:15:49.875Z</time>
      </trkpt>
      <trkpt lat="43.13772" lon="3.10165">
        <ele>48</ele>
        <time>2025-12-29T11:15:50.875Z</time>
      </trkpt>
      <trkpt lat="43.13773" lon="3.10163">
        <ele>48</ele>
        <time>2025-12-29T11:15:51.875Z</time>
      </trkpt>
      <trkpt lat="43.13775" lon="3.1016">
        <ele>48</ele>
        <time>2025-12-29T11:15:52.875Z</time>
      </trkpt>
      <trkpt lat="43.13776" lon="3.10157">
        <ele>48</ele>
        <time>2025-12-29T11:15:53.875Z</time>
      </trkpt>
      <trkpt lat="43.13777" lon="3.10154">
        <ele>48</ele>
        <time>2025-12-29T11:15:54.875Z</time>
      </trkpt>
      <trkpt lat="43.13779" lon="3.10152">
        <ele>48</ele>
        <time>2025-12-29T11:15:55.875Z</time>
      </trkpt>
      <trkpt lat="43.1378" lon="3.10151">
        <ele>48</ele>
        <time>2025-12-29T11:15:56.875Z</time>
      </trkpt>
      <trkpt lat="43.1378" lon="3.1015">
        <ele>48</ele>
        <time>2025-12-29T11:15:57.875Z</time>
      </trkpt>
      <trkpt lat="43.13781" lon="3.1015">
        <ele>48</ele>
        <time>2025-12-29T11:15:58.875Z</time>
      </trkpt>
      <trkpt lat="43.13781" lon="3.1015">
        <ele>49</ele>
        <time>2025-12-29T11:15:59.875Z</time>
      </trkpt>
      <trkpt lat="43.13782" lon="3.10149">
        <ele>49</ele>
        <time>2025-12-29T11:16:00.875Z</time>
      </trkpt>
      <trkpt lat="43.13783" lon="3.10147">
        <ele>49</ele>
        <time>2025-12-29T11:16:01.875Z</time>
      </trkpt>
      <trkpt lat="43.13784" lon="3.10148">
        <ele>49</ele>
        <time>2025-12-29T11:16:02.875Z</time>
      </trkpt>
      <trkpt lat="43.13784" lon="3.10148">
        <ele>49</ele>
        <time>2025-12-29T11:16:03.875Z</time>
      </trkpt>
      <trkpt lat="43.13785" lon="3.10149">
        <ele>49</ele>
        <time>2025-12-29T11:16:04.875Z</time>
      </trkpt>
      <trkpt lat="43.13786" lon="3.10149">
        <ele>49</ele>
        <time>2025-12-29T11:16:05.875Z</time>
      </trkpt>
      <trkpt lat="43.13787" lon="3.10148">
        <ele>49</ele>
        <time>2025-12-29T11:16:06.875Z</time>
      </trkpt>
      <trkpt lat="43.13788" lon="3.10148">
        <ele>50</ele>
        <time>2025-12-29T11:16:07.875Z</time>
      </trkpt>
      <trkpt lat="43.13789" lon="3.10149">
        <ele>50</ele>
        <time>2025-12-29T11:16:08.875Z</time>
      </trkpt>
      <trkpt lat="43.1379" lon="3.10149">
        <ele>50</ele>
        <time>2025-12-29T11:16:09.875Z</time>
      </trkpt>
      <trkpt lat="43.13791" lon="3.1015">
        <ele>50</ele>
        <time>2025-12-29T11:16:10.875Z</time>
      </trkpt>
      <trkpt lat="43.13792" lon="3.10151">
        <ele>50</ele>
        <time>2025-12-29T11:16:11.875Z</time>
      </trkpt>
      <trkpt lat="43.13793" lon="3.10152">
        <ele>50</ele>
        <time>2025-12-29T11:16:12.875Z</time>
      </trkpt>
      <trkpt lat="43.13794" lon="3.10153">
        <ele>50</ele>
        <time>2025-12-29T11:16:13.875Z</time>
      </trkpt>
      <trkpt lat="43.13796" lon="3.10152">
        <ele>50</ele>
        <time>2025-12-29T11:16:14.875Z</time>
      </trkpt>
      <trkpt lat="43.13797" lon="3.10153">
        <ele>50</ele>
        <time>2025-12-29T11:16:15.875Z</time>
      </trkpt>
      <trkpt lat="43.13797" lon="3.10153">
        <ele>50</ele>
        <time>2025-12-29T11:16:16.875Z</time>
      </trkpt>
      <trkpt lat="43.13798" lon="3.10152">
        <ele>50</ele>
        <time>2025-12-29T11:16:17.875Z</time>
      </trkpt>
      <trkpt lat="43.13799" lon="3.10152">
        <ele>51</ele>
        <time>2025-12-29T11:16:18.875Z</time>
      </trkpt>
      <trkpt lat="43.13799" lon="3.10152">
        <ele>51</ele>
        <time>2025-12-29T11:16:19.875Z</time>
      </trkpt>
      <trkpt lat="43.13799" lon="3.10152">
        <ele>51</ele>
        <time>2025-12-29T11:16:20.875Z</time>
      </trkpt>
      <trkpt lat="43.13799" lon="3.10153">
        <ele>51</ele>
        <time>2025-12-29T11:16:21.875Z</time>
      </trkpt>
      <trkpt lat="43.13799" lon="3.10153">
        <ele>51</ele>
        <time>2025-12-29T11:16:22.875Z</time>
      </trkpt>
      <trkpt lat="43.138" lon="3.1015">
        <ele>51</ele>
        <time>2025-12-29T11:16:23.875Z</time>
      </trkpt>
      <trkpt lat="43.13801" lon="3.1015">
        <ele>51</ele>
        <time>2025-12-29T11:16:24.875Z</time>
      </trkpt>
      <trkpt lat="43.13801" lon="3.10149">
        <ele>52</ele>
        <time>2025-12-29T11:16:25.875Z</time>
      </trkpt>
      <trkpt lat="43.13802" lon="3.10148">
        <ele>52</ele>
        <time>2025-12-29T11:16:26.875Z</time>
      </trkpt>
      <trkpt lat="43.13802" lon="3.10148">
        <ele>52</ele>
        <time>2025-12-29T11:16:27.875Z</time>
      </trkpt>
      <trkpt lat="43.13803" lon="3.10147">
        <ele>52</ele>
        <time>2025-12-29T11:16:28.875Z</time>
      </trkpt>
      <trkpt lat="43.13803" lon="3.10147">
        <ele>52</ele>
        <time>2025-12-29T11:16:29.875Z</time>
      </trkpt>
      <trkpt lat="43.13804" lon="3.10147">
        <ele>52</ele>
        <time>2025-12-29T11:16:30.875Z</time>
      </trkpt>
      <trkpt lat="43.13804" lon="3.10149">
        <ele>52</ele>
        <time>2025-12-29T11:16:31.875Z</time>
      </trkpt>
      <trkpt lat="43.13805" lon="3.1015">
        <ele>52</ele>
        <time>2025-12-29T11:16:32.875Z</time>
      </trkpt>
      <trkpt lat="43.13805" lon="3.10151">
        <ele>52</ele>
        <time>2025-12-29T11:16:33.875Z</time>
      </trkpt>
      <trkpt lat="43.13806" lon="3.10153">
        <ele>52</ele>
        <time>2025-12-29T11:16:34.875Z</time>
      </trkpt>
      <trkpt lat="43.13806" lon="3.10154">
        <ele>52</ele>
        <time>2025-12-29T11:16:35.875Z</time>
      </trkpt>
      <trkpt lat="43.13807" lon="3.10154">
        <ele>52</ele>
        <time>2025-12-29T11:16:36.875Z</time>
      </trkpt>
      <trkpt lat="43.13807" lon="3.10155">
        <ele>52</ele>
        <time>2025-12-29T11:16:37.875Z</time>
      </trkpt>
      <trkpt lat="43.13808" lon="3.10156">
        <ele>52</ele>
        <time>2025-12-29T11:16:38.875Z</time>
      </trkpt>
      <trkpt lat="43.13808" lon="3.10156">
        <ele>52</ele>
        <time>2025-12-29T11:16:39.875Z</time>
      </trkpt>
      <trkpt lat="43.13809" lon="3.10157">
        <ele>51</ele>
        <time>2025-12-29T11:16:40.875Z</time>
      </trkpt>
      <trkpt lat="43.1381" lon="3.10157">
        <ele>51</ele>
        <time>2025-12-29T11:16:41.875Z</time>
      </trkpt>
      <trkpt lat="43.1381" lon="3.10158">
        <ele>51</ele>
        <time>2025-12-29T11:16:42.875Z</time>
      </trkpt>
      <trkpt lat="43.13811" lon="3.10159">
        <ele>51</ele>
        <time>2025-12-29T11:16:43.875Z</time>
      </trkpt>
      <trkpt lat="43.13812" lon="3.1016">
        <ele>51</ele>
        <time>2025-12-29T11:16:44.875Z</time>
      </trkpt>
      <trkpt lat="43.13813" lon="3.10161">
        <ele>51</ele>
        <time>2025-12-29T11:16:45.875Z</time>
      </trkpt>
      <trkpt lat="43.13815" lon="3.1016">
        <ele>51</ele>
        <time>2025-12-29T11:16:46.875Z</time>
      </trkpt>
      <trkpt lat="43.13816" lon="3.1016">
        <ele>51</ele>
        <time>2025-12-29T11:16:47.875Z</time>
      </trkpt>
      <trkpt lat="43.13817" lon="3.10159">
        <ele>52</ele>
        <time>2025-12-29T11:16:48.875Z</time>
      </trkpt>
      <trkpt lat="43.13818" lon="3.10159">
        <ele>52</ele>
        <time>2025-12-29T11:16:49.875Z</time>
      </trkpt>
      <trkpt lat="43.13819" lon="3.10159">
        <ele>52</ele>
        <time>2025-12-29T11:16:50.875Z</time>
      </trkpt>
      <trkpt lat="43.13821" lon="3.10159">
        <ele>52</ele>
        <time>2025-12-29T11:16:51.875Z</time>
      </trkpt>
      <trkpt lat="43.13822" lon="3.10158">
        <ele>52</ele>
        <time>2025-12-29T11:16:52.875Z</time>
      </trkpt>
      <trkpt lat="43.13824" lon="3.10158">
        <ele>52</ele>
        <time>2025-12-29T11:16:53.875Z</time>
      </trkpt>
      <trkpt lat="43.13824" lon="3.10158">
        <ele>52</ele>
        <time>2025-12-29T11:16:54.875Z</time>
      </trkpt>
      <trkpt lat="43.13825" lon="3.10159">
        <ele>52</ele>
        <time>2025-12-29T11:16:55.875Z</time>
      </trkpt>
      <trkpt lat="43.13826" lon="3.1016">
        <ele>52</ele>
        <time>2025-12-29T11:16:56.875Z</time>
      </trkpt>
      <trkpt lat="43.13827" lon="3.10161">
        <ele>52</ele>
        <time>2025-12-29T11:16:57.875Z</time>
      </trkpt>
      <trkpt lat="43.13828" lon="3.10162">
        <ele>52</ele>
        <time>2025-12-29T11:16:58.875Z</time>
      </trkpt>
      <trkpt lat="43.13829" lon="3.10162">
        <ele>52</ele>
        <time>2025-12-29T11:16:59.875Z</time>
      </trkpt>
      <trkpt lat="43.1383" lon="3.10163">
        <ele>52</ele>
        <time>2025-12-29T11:17:00.875Z</time>
      </trkpt>
      <trkpt lat="43.1383" lon="3.10163">
        <ele>52</ele>
        <time>2025-12-29T11:17:01.875Z</time>
      </trkpt>
      <trkpt lat="43.13831" lon="3.10163">
        <ele>52</ele>
        <time>2025-12-29T11:17:02.875Z</time>
      </trkpt>
      <trkpt lat="43.13831" lon="3.10163">
        <ele>52</ele>
        <time>2025-12-29T11:17:03.875Z</time>
      </trkpt>
      <trkpt lat="43.1383" lon="3.10163">
        <ele>52</ele>
        <time>2025-12-29T11:17:04.875Z</time>
      </trkpt>
      <trkpt lat="43.13831" lon="3.10163">
        <ele>52</ele>
        <time>2025-12-29T11:17:05.875Z</time>
      </trkpt>
      <trkpt lat="43.13831" lon="3.10162">
        <ele>52</ele>
        <time>2025-12-29T11:17:06.875Z</time>
      </trkpt>
      <trkpt lat="43.13831" lon="3.10162">
        <ele>52</ele>
        <time>2025-12-29T11:17:07.875Z</time>
      </trkpt>
      <trkpt lat="43.13831" lon="3.10162">
        <ele>52</ele>
        <time>2025-12-29T11:17:08.875Z</time>
      </trkpt>
      <trkpt lat="43.13831" lon="3.10162">
        <ele>52</ele>
        <time>2025-12-29T11:17:09.875Z</time>
      </trkpt>
      <trkpt lat="43.13831" lon="3.10162">
        <ele>52</ele>
        <time>2025-12-29T11:17:10.875Z</time>
      </trkpt>
      <trkpt lat="43.13831" lon="3.10162">
        <ele>52</ele>
        <time>2025-12-29T11:17:11.875Z</time>
      </trkpt>
      <trkpt lat="43.13831" lon="3.10161">
        <ele>52</ele>
        <time>2025-12-29T11:17:12.875Z</time>
      </trkpt>
      <trkpt lat="43.13831" lon="3.10161">
        <ele>52</ele>
        <time>2025-12-29T11:17:13.875Z</time>
      </trkpt>
      <trkpt lat="43.1383" lon="3.10161">
        <ele>52</ele>
        <time>2025-12-29T11:17:14.875Z</time>
      </trkpt>
      <trkpt lat="43.1383" lon="3.10161">
        <ele>52</ele>
        <time>2025-12-29T11:17:15.875Z</time>
      </trkpt>
      <trkpt lat="43.1383" lon="3.10162">
        <ele>52</ele>
        <time>2025-12-29T11:17:16.875Z</time>
      </trkpt>
      <trkpt lat="43.1383" lon="3.10162">
        <ele>52</ele>
        <time>2025-12-29T11:17:17.875Z</time>
      </trkpt>
      <trkpt lat="43.13831" lon="3.10163">
        <ele>52</ele>
        <time>2025-12-29T11:17:18.875Z</time>
      </trkpt>
      <trkpt lat="43.13831" lon="3.10163">
        <ele>52</ele>
        <time>2025-12-29T11:17:19.875Z</time>
      </trkpt>
      <trkpt lat="43.13832" lon="3.10163">
        <ele>52</ele>
        <time>2025-12-29T11:17:20.875Z</time>
      </trkpt>
      <trkpt lat="43.13832" lon="3.10164">
        <ele>52</ele>
        <time>2025-12-29T11:17:21.875Z</time>
      </trkpt>
      <trkpt lat="43.13833" lon="3.10165">
        <ele>53</ele>
        <time>2025-12-29T11:17:22.875Z</time>
      </trkpt>
      <trkpt lat="43.13834" lon="3.10166">
        <ele>53</ele>
        <time>2025-12-29T11:17:23.875Z</time>
      </trkpt>
      <trkpt lat="43.13835" lon="3.10168">
        <ele>53</ele>
        <time>2025-12-29T11:17:24.875Z</time>
      </trkpt>
      <trkpt lat="43.13835" lon="3.10169">
        <ele>54</ele>
        <time>2025-12-29T11:17:25.875Z</time>
      </trkpt>
      <trkpt lat="43.13837" lon="3.1017">
        <ele>54</ele>
        <time>2025-12-29T11:17:26.875Z</time>
      </trkpt>
      <trkpt lat="43.13838" lon="3.10171">
        <ele>54</ele>
        <time>2025-12-29T11:17:27.875Z</time>
      </trkpt>
      <trkpt lat="43.13839" lon="3.10172">
        <ele>54</ele>
        <time>2025-12-29T11:17:28.875Z</time>
      </trkpt>
      <trkpt lat="43.1384" lon="3.10172">
        <ele>54</ele>
        <time>2025-12-29T11:17:29.875Z</time>
      </trkpt>
      <trkpt lat="43.1384" lon="3.10172">
        <ele>54</ele>
        <time>2025-12-29T11:17:30.875Z</time>
      </trkpt>
      <trkpt lat="43.13841" lon="3.10174">
        <ele>54</ele>
        <time>2025-12-29T11:17:31.875Z</time>
      </trkpt>
      <trkpt lat="43.13841" lon="3.10175">
        <ele>54</ele>
        <time>2025-12-29T11:17:32.875Z</time>
      </trkpt>
      <trkpt lat="43.13842" lon="3.10177">
        <ele>54</ele>
        <time>2025-12-29T11:17:33.875Z</time>
      </trkpt>
      <trkpt lat="43.13843" lon="3.10179">
        <ele>54</ele>
        <time>2025-12-29T11:17:34.875Z</time>
      </trkpt>
      <trkpt lat="43.13844" lon="3.10179">
        <ele>54</ele>
        <time>2025-12-29T11:17:35.875Z</time>
      </trkpt>
      <trkpt lat="43.13845" lon="3.10179">
        <ele>54</ele>
        <time>2025-12-29T11:17:36.875Z</time>
      </trkpt>
      <trkpt lat="43.13846" lon="3.10179">
        <ele>54</ele>
        <time>2025-12-29T11:17:37.875Z</time>
      </trkpt>
      <trkpt lat="43.13847" lon="3.10179">
        <ele>54</ele>
        <time>2025-12-29T11:17:38.875Z</time>
      </trkpt>
      <trkpt lat="43.13849" lon="3.10179">
        <ele>54</ele>
        <time>2025-12-29T11:17:39.875Z</time>
      </trkpt>
      <trkpt lat="43.13852" lon="3.10177">
        <ele>54</ele>
        <time>2025-12-29T11:17:40.875Z</time>
      </trkpt>
      <trkpt lat="43.13853" lon="3.10175">
        <ele>54</ele>
        <time>2025-12-29T11:17:41.875Z</time>
      </trkpt>
      <trkpt lat="43.13855" lon="3.10174">
        <ele>54</ele>
        <time>2025-12-29T11:17:42.875Z</time>
      </trkpt>
      <trkpt lat="43.13856" lon="3.10173">
        <ele>54</ele>
        <time>2025-12-29T11:17:43.875Z</time>
      </trkpt>
      <trkpt lat="43.13857" lon="3.10171">
        <ele>55</ele>
        <time>2025-12-29T11:17:44.875Z</time>
      </trkpt>
      <trkpt lat="43.13858" lon="3.1017">
        <ele>55</ele>
        <time>2025-12-29T11:17:45.875Z</time>
      </trkpt>
      <trkpt lat="43.1386" lon="3.10168">
        <ele>55</ele>
        <time>2025-12-29T11:17:46.875Z</time>
      </trkpt>
      <trkpt lat="43.13861" lon="3.10167">
        <ele>55</ele>
        <time>2025-12-29T11:17:47.875Z</time>
      </trkpt>
      <trkpt lat="43.13862" lon="3.10166">
        <ele>56</ele>
        <time>2025-12-29T11:17:48.875Z</time>
      </trkpt>
      <trkpt lat="43.13864" lon="3.10166">
        <ele>56</ele>
        <time>2025-12-29T11:17:49.875Z</time>
      </trkpt>
      <trkpt lat="43.13865" lon="3.10165">
        <ele>56</ele>
        <time>2025-12-29T11:17:50.875Z</time>
      </trkpt>
      <trkpt lat="43.13866" lon="3.10165">
        <ele>57</ele>
        <time>2025-12-29T11:17:51.875Z</time>
      </trkpt>
      <trkpt lat="43.13868" lon="3.10164">
        <ele>57</ele>
        <time>2025-12-29T11:17:52.875Z</time>
      </trkpt>
      <trkpt lat="43.13869" lon="3.10164">
        <ele>57</ele>
        <time>2025-12-29T11:17:53.875Z</time>
      </trkpt>
      <trkpt lat="43.13869" lon="3.10164">
        <ele>57</ele>
        <time>2025-12-29T11:17:54.875Z</time>
      </trkpt>
      <trkpt lat="43.1387" lon="3.10164">
        <ele>57</ele>
        <time>2025-12-29T11:17:55.875Z</time>
      </trkpt>
      <trkpt lat="43.13872" lon="3.10164">
        <ele>57</ele>
        <time>2025-12-29T11:17:56.875Z</time>
      </trkpt>
      <trkpt lat="43.13873" lon="3.10164">
        <ele>57</ele>
        <time>2025-12-29T11:17:57.875Z</time>
      </trkpt>
      <trkpt lat="43.13874" lon="3.10163">
        <ele>57</ele>
        <time>2025-12-29T11:17:58.875Z</time>
      </trkpt>
      <trkpt lat="43.13875" lon="3.10163">
        <ele>57</ele>
        <time>2025-12-29T11:17:59.875Z</time>
      </trkpt>
      <trkpt lat="43.13876" lon="3.10162">
        <ele>57</ele>
        <time>2025-12-29T11:18:00.875Z</time>
      </trkpt>
      <trkpt lat="43.13877" lon="3.10161">
        <ele>57</ele>
        <time>2025-12-29T11:18:01.875Z</time>
      </trkpt>
      <trkpt lat="43.13876" lon="3.10165">
        <ele>57</ele>
        <time>2025-12-29T11:18:02.875Z</time>
      </trkpt>
      <trkpt lat="43.13876" lon="3.10167">
        <ele>57</ele>
        <time>2025-12-29T11:18:03.875Z</time>
      </trkpt>
      <trkpt lat="43.13876" lon="3.10168">
        <ele>57</ele>
        <time>2025-12-29T11:18:04.875Z</time>
      </trkpt>
      <trkpt lat="43.13877" lon="3.10163">
        <ele>57</ele>
        <time>2025-12-29T11:18:05.875Z</time>
      </trkpt>
      <trkpt lat="43.13877" lon="3.1016">
        <ele>57</ele>
        <time>2025-12-29T11:18:06.875Z</time>
      </trkpt>
      <trkpt lat="43.13878" lon="3.10158">
        <ele>57</ele>
        <time>2025-12-29T11:18:07.875Z</time>
      </trkpt>
      <trkpt lat="43.13877" lon="3.10159">
        <ele>57</ele>
        <time>2025-12-29T11:18:08.875Z</time>
      </trkpt>
      <trkpt lat="43.13876" lon="3.1016">
        <ele>57</ele>
        <time>2025-12-29T11:18:09.875Z</time>
      </trkpt>
      <trkpt lat="43.13875" lon="3.1016">
        <ele>57</ele>
        <time>2025-12-29T11:18:10.875Z</time>
      </trkpt>
      <trkpt lat="43.13875" lon="3.1016">
        <ele>57</ele>
        <time>2025-12-29T11:18:11.875Z</time>
      </trkpt>
      <trkpt lat="43.13876" lon="3.10158">
        <ele>57</ele>
        <time>2025-12-29T11:18:12.875Z</time>
      </trkpt>
      <trkpt lat="43.13877" lon="3.10156">
        <ele>57</ele>
        <time>2025-12-29T11:18:13.875Z</time>
      </trkpt>
      <trkpt lat="43.13877" lon="3.10154">
        <ele>57</ele>
        <time>2025-12-29T11:18:14.875Z</time>
      </trkpt>
      <trkpt lat="43.13878" lon="3.10151">
        <ele>57</ele>
        <time>2025-12-29T11:18:15.875Z</time>
      </trkpt>
      <trkpt lat="43.13879" lon="3.10149">
        <ele>57</ele>
        <time>2025-12-29T11:18:16.875Z</time>
      </trkpt>
      <trkpt lat="43.13879" lon="3.10147">
        <ele>57</ele>
        <time>2025-12-29T11:18:17.875Z</time>
      </trkpt>
      <trkpt lat="43.1388" lon="3.10145">
        <ele>57</ele>
        <time>2025-12-29T11:18:18.875Z</time>
      </trkpt>
      <trkpt lat="43.13881" lon="3.10142">
        <ele>57</ele>
        <time>2025-12-29T11:18:19.875Z</time>
      </trkpt>
      <trkpt lat="43.13881" lon="3.1014">
        <ele>57</ele>
        <time>2025-12-29T11:18:20.875Z</time>
      </trkpt>
      <trkpt lat="43.13882" lon="3.10139">
        <ele>57</ele>
        <time>2025-12-29T11:18:21.875Z</time>
      </trkpt>
      <trkpt lat="43.13883" lon="3.10137">
        <ele>57</ele>
        <time>2025-12-29T11:18:22.875Z</time>
      </trkpt>
      <trkpt lat="43.13885" lon="3.10136">
        <ele>58</ele>
        <time>2025-12-29T11:18:23.875Z</time>
      </trkpt>
      <trkpt lat="43.13887" lon="3.10133">
        <ele>58</ele>
        <time>2025-12-29T11:18:24.875Z</time>
      </trkpt>
      <trkpt lat="43.13889" lon="3.10132">
        <ele>58</ele>
        <time>2025-12-29T11:18:25.875Z</time>
      </trkpt>
      <trkpt lat="43.1389" lon="3.1013">
        <ele>58</ele>
        <time>2025-12-29T11:18:26.875Z</time>
      </trkpt>
      <trkpt lat="43.13891" lon="3.10129">
        <ele>58</ele>
        <time>2025-12-29T11:18:27.875Z</time>
      </trkpt>
      <trkpt lat="43.13891" lon="3.10129">
        <ele>58</ele>
        <time>2025-12-29T11:18:28.875Z</time>
      </trkpt>
      <trkpt lat="43.13892" lon="3.10129">
        <ele>58</ele>
        <time>2025-12-29T11:18:29.875Z</time>
      </trkpt>
      <trkpt lat="43.13893" lon="3.10127">
        <ele>58</ele>
        <time>2025-12-29T11:18:30.875Z</time>
      </trkpt>
      <trkpt lat="43.13896" lon="3.10124">
        <ele>58</ele>
        <time>2025-12-29T11:18:31.875Z</time>
      </trkpt>
      <trkpt lat="43.13897" lon="3.10123">
        <ele>58</ele>
        <time>2025-12-29T11:18:32.875Z</time>
      </trkpt>
      <trkpt lat="43.13899" lon="3.10123">
        <ele>58</ele>
        <time>2025-12-29T11:18:33.875Z</time>
      </trkpt>
      <trkpt lat="43.13901" lon="3.10122">
        <ele>58</ele>
        <time>2025-12-29T11:18:34.875Z</time>
      </trkpt>
      <trkpt lat="43.13902" lon="3.10122">
        <ele>58</ele>
        <time>2025-12-29T11:18:35.875Z</time>
      </trkpt>
      <trkpt lat="43.13904" lon="3.10122">
        <ele>58</ele>
        <time>2025-12-29T11:18:36.875Z</time>
      </trkpt>
      <trkpt lat="43.13905" lon="3.10124">
        <ele>58</ele>
        <time>2025-12-29T11:18:37.875Z</time>
      </trkpt>
      <trkpt lat="43.13907" lon="3.10124">
        <ele>58</ele>
        <time>2025-12-29T11:18:38.875Z</time>
      </trkpt>
      <trkpt lat="43.13909" lon="3.10122">
        <ele>58</ele>
        <time>2025-12-29T11:18:39.875Z</time>
      </trkpt>
      <trkpt lat="43.13912" lon="3.1012">
        <ele>58</ele>
        <time>2025-12-29T11:18:40.875Z</time>
      </trkpt>
      <trkpt lat="43.13913" lon="3.10119">
        <ele>58</ele>
        <time>2025-12-29T11:18:41.875Z</time>
      </trkpt>
      <trkpt lat="43.13914" lon="3.1012">
        <ele>58</ele>
        <time>2025-12-29T11:18:42.875Z</time>
      </trkpt>
      <trkpt lat="43.13915" lon="3.10121">
        <ele>58</ele>
        <time>2025-12-29T11:18:43.875Z</time>
      </trkpt>
      <trkpt lat="43.13916" lon="3.10121">
        <ele>58</ele>
        <time>2025-12-29T11:18:44.875Z</time>
      </trkpt>
      <trkpt lat="43.13917" lon="3.10121">
        <ele>58</ele>
        <time>2025-12-29T11:18:45.875Z</time>
      </trkpt>
      <trkpt lat="43.13919" lon="3.10122">
        <ele>58</ele>
        <time>2025-12-29T11:18:46.875Z</time>
      </trkpt>
      <trkpt lat="43.1392" lon="3.10122">
        <ele>58</ele>
        <time>2025-12-29T11:18:47.875Z</time>
      </trkpt>
      <trkpt lat="43.13921" lon="3.10124">
        <ele>58</ele>
        <time>2025-12-29T11:18:48.875Z</time>
      </trkpt>
      <trkpt lat="43.13922" lon="3.10125">
        <ele>58</ele>
        <time>2025-12-29T11:18:49.875Z</time>
      </trkpt>
      <trkpt lat="43.13922" lon="3.10126">
        <ele>58</ele>
        <time>2025-12-29T11:18:50.875Z</time>
      </trkpt>
      <trkpt lat="43.13923" lon="3.10128">
        <ele>58</ele>
        <time>2025-12-29T11:18:51.875Z</time>
      </trkpt>
      <trkpt lat="43.13924" lon="3.10131">
        <ele>58</ele>
        <time>2025-12-29T11:18:52.875Z</time>
      </trkpt>
      <trkpt lat="43.13924" lon="3.10134">
        <ele>59</ele>
        <time>2025-12-29T11:18:53.875Z</time>
      </trkpt>
      <trkpt lat="43.13925" lon="3.10136">
        <ele>59</ele>
        <time>2025-12-29T11:18:54.875Z</time>
      </trkpt>
      <trkpt lat="43.13926" lon="3.10138">
        <ele>59</ele>
        <time>2025-12-29T11:18:55.875Z</time>
      </trkpt>
      <trkpt lat="43.13927" lon="3.10139">
        <ele>59</ele>
        <time>2025-12-29T11:18:56.875Z</time>
      </trkpt>
      <trkpt lat="43.13929" lon="3.10137">
        <ele>60</ele>
        <time>2025-12-29T11:18:57.875Z</time>
      </trkpt>
      <trkpt lat="43.1393" lon="3.10139">
        <ele>60</ele>
        <time>2025-12-29T11:18:58.875Z</time>
      </trkpt>
      <trkpt lat="43.13931" lon="3.1014">
        <ele>60</ele>
        <time>2025-12-29T11:18:59.875Z</time>
      </trkpt>
      <trkpt lat="43.13932" lon="3.10142">
        <ele>60</ele>
        <time>2025-12-29T11:19:00.875Z</time>
      </trkpt>
      <trkpt lat="43.13934" lon="3.10137">
        <ele>60</ele>
        <time>2025-12-29T11:19:01.875Z</time>
      </trkpt>
      <trkpt lat="43.13936" lon="3.10136">
        <ele>61</ele>
        <time>2025-12-29T11:19:02.875Z</time>
      </trkpt>
      <trkpt lat="43.13938" lon="3.10134">
        <ele>61</ele>
        <time>2025-12-29T11:19:03.875Z</time>
      </trkpt>
      <trkpt lat="43.13939" lon="3.10133">
        <ele>61</ele>
        <time>2025-12-29T11:19:04.875Z</time>
      </trkpt>
      <trkpt lat="43.13941" lon="3.10132">
        <ele>61</ele>
        <time>2025-12-29T11:19:05.875Z</time>
      </trkpt>
      <trkpt lat="43.13942" lon="3.10132">
        <ele>61</ele>
        <time>2025-12-29T11:19:06.875Z</time>
      </trkpt>
      <trkpt lat="43.13944" lon="3.10132">
        <ele>61</ele>
        <time>2025-12-29T11:19:07.875Z</time>
      </trkpt>
      <trkpt lat="43.13945" lon="3.10132">
        <ele>61</ele>
        <time>2025-12-29T11:19:08.875Z</time>
      </trkpt>
      <trkpt lat="43.13947" lon="3.10131">
        <ele>61</ele>
        <time>2025-12-29T11:19:09.875Z</time>
      </trkpt>
      <trkpt lat="43.13949" lon="3.1013">
        <ele>61</ele>
        <time>2025-12-29T11:19:10.875Z</time>
      </trkpt>
      <trkpt lat="43.1395" lon="3.1013">
        <ele>61</ele>
        <time>2025-12-29T11:19:11.875Z</time>
      </trkpt>
      <trkpt lat="43.13952" lon="3.10129">
        <ele>60</ele>
        <time>2025-12-29T11:19:12.875Z</time>
      </trkpt>
      <trkpt lat="43.13953" lon="3.1013">
        <ele>60</ele>
        <time>2025-12-29T11:19:13.875Z</time>
      </trkpt>
      <trkpt lat="43.13955" lon="3.1013">
        <ele>60</ele>
        <time>2025-12-29T11:19:14.875Z</time>
      </trkpt>
      <trkpt lat="43.13956" lon="3.1013">
        <ele>60</ele>
        <time>2025-12-29T11:19:15.875Z</time>
      </trkpt>
      <trkpt lat="43.13957" lon="3.10131">
        <ele>60</ele>
        <time>2025-12-29T11:19:16.875Z</time>
      </trkpt>
      <trkpt lat="43.13958" lon="3.10131">
        <ele>60</ele>
        <time>2025-12-29T11:19:17.875Z</time>
      </trkpt>
      <trkpt lat="43.13959" lon="3.10131">
        <ele>60</ele>
        <time>2025-12-29T11:19:18.875Z</time>
      </trkpt>
      <trkpt lat="43.1396" lon="3.10133">
        <ele>60</ele>
        <time>2025-12-29T11:19:19.875Z</time>
      </trkpt>
      <trkpt lat="43.13961" lon="3.10135">
        <ele>59</ele>
        <time>2025-12-29T11:19:20.875Z</time>
      </trkpt>
      <trkpt lat="43.13962" lon="3.10136">
        <ele>59</ele>
        <time>2025-12-29T11:19:21.875Z</time>
      </trkpt>
      <trkpt lat="43.13963" lon="3.10137">
        <ele>59</ele>
        <time>2025-12-29T11:19:22.875Z</time>
      </trkpt>
      <trkpt lat="43.13964" lon="3.10138">
        <ele>59</ele>
        <time>2025-12-29T11:19:23.875Z</time>
      </trkpt>
      <trkpt lat="43.13965" lon="3.10138">
        <ele>59</ele>
        <time>2025-12-29T11:19:24.875Z</time>
      </trkpt>
      <trkpt lat="43.13966" lon="3.10138">
        <ele>59</ele>
        <time>2025-12-29T11:19:25.875Z</time>
      </trkpt>
      <trkpt lat="43.13967" lon="3.10139">
        <ele>59</ele>
        <time>2025-12-29T11:19:26.875Z</time>
      </trkpt>
      <trkpt lat="43.13968" lon="3.10139">
        <ele>59</ele>
        <time>2025-12-29T11:19:27.875Z</time>
      </trkpt>
      <trkpt lat="43.13969" lon="3.1014">
        <ele>59</ele>
        <time>2025-12-29T11:19:28.875Z</time>
      </trkpt>
      <trkpt lat="43.13969" lon="3.10142">
        <ele>59</ele>
        <time>2025-12-29T11:19:29.875Z</time>
      </trkpt>
      <trkpt lat="43.1397" lon="3.10143">
        <ele>59</ele>
        <time>2025-12-29T11:19:30.875Z</time>
      </trkpt>
      <trkpt lat="43.13971" lon="3.10144">
        <ele>59</ele>
        <time>2025-12-29T11:19:31.875Z</time>
      </trkpt>
      <trkpt lat="43.13972" lon="3.10145">
        <ele>59</ele>
        <time>2025-12-29T11:19:32.875Z</time>
      </trkpt>
      <trkpt lat="43.13974" lon="3.10147">
        <ele>59</ele>
        <time>2025-12-29T11:19:33.875Z</time>
      </trkpt>
      <trkpt lat="43.13974" lon="3.10149">
        <ele>59</ele>
        <time>2025-12-29T11:19:34.875Z</time>
      </trkpt>
      <trkpt lat="43.13975" lon="3.10151">
        <ele>60</ele>
        <time>2025-12-29T11:19:35.875Z</time>
      </trkpt>
      <trkpt lat="43.13977" lon="3.10152">
        <ele>60</ele>
        <time>2025-12-29T11:19:36.875Z</time>
      </trkpt>
      <trkpt lat="43.13978" lon="3.10152">
        <ele>60</ele>
        <time>2025-12-29T11:19:37.875Z</time>
      </trkpt>
      <trkpt lat="43.13979" lon="3.10153">
        <ele>60</ele>
        <time>2025-12-29T11:19:38.875Z</time>
      </trkpt>
      <trkpt lat="43.13979" lon="3.10154">
        <ele>60</ele>
        <time>2025-12-29T11:19:39.875Z</time>
      </trkpt>
      <trkpt lat="43.1398" lon="3.10155">
        <ele>61</ele>
        <time>2025-12-29T11:19:40.875Z</time>
      </trkpt>
      <trkpt lat="43.13981" lon="3.10156">
        <ele>61</ele>
        <time>2025-12-29T11:19:41.875Z</time>
      </trkpt>
      <trkpt lat="43.13981" lon="3.1016">
        <ele>61</ele>
        <time>2025-12-29T11:19:42.875Z</time>
      </trkpt>
      <trkpt lat="43.13981" lon="3.10162">
        <ele>61</ele>
        <time>2025-12-29T11:19:43.875Z</time>
      </trkpt>
      <trkpt lat="43.13982" lon="3.10164">
        <ele>61</ele>
        <time>2025-12-29T11:19:44.875Z</time>
      </trkpt>
      <trkpt lat="43.13982" lon="3.10164">
        <ele>62</ele>
        <time>2025-12-29T11:19:45.875Z</time>
      </trkpt>
      <trkpt lat="43.13983" lon="3.10164">
        <ele>62</ele>
        <time>2025-12-29T11:19:46.875Z</time>
      </trkpt>
      <trkpt lat="43.13983" lon="3.10166">
        <ele>62</ele>
        <time>2025-12-29T11:19:47.875Z</time>
      </trkpt>
      <trkpt lat="43.13983" lon="3.10167">
        <ele>62</ele>
        <time>2025-12-29T11:19:48.875Z</time>
      </trkpt>
      <trkpt lat="43.13983" lon="3.10169">
        <ele>63</ele>
        <time>2025-12-29T11:19:49.875Z</time>
      </trkpt>
      <trkpt lat="43.13983" lon="3.1017">
        <ele>63</ele>
        <time>2025-12-29T11:19:50.875Z</time>
      </trkpt>
      <trkpt lat="43.13983" lon="3.10171">
        <ele>63</ele>
        <time>2025-12-29T11:19:51.875Z</time>
      </trkpt>
      <trkpt lat="43.13984" lon="3.10173">
        <ele>63</ele>
        <time>2025-12-29T11:19:52.875Z</time>
      </trkpt>
      <trkpt lat="43.13984" lon="3.10174">
        <ele>63</ele>
        <time>2025-12-29T11:19:53.875Z</time>
      </trkpt>
      <trkpt lat="43.13984" lon="3.10175">
        <ele>63</ele>
        <time>2025-12-29T11:19:54.875Z</time>
      </trkpt>
      <trkpt lat="43.13984" lon="3.10177">
        <ele>63</ele>
        <time>2025-12-29T11:19:55.875Z</time>
      </trkpt>
      <trkpt lat="43.13984" lon="3.10176">
        <ele>63</ele>
        <time>2025-12-29T11:19:56.875Z</time>
      </trkpt>
      <trkpt lat="43.13985" lon="3.10175">
        <ele>63</ele>
        <time>2025-12-29T11:19:57.875Z</time>
      </trkpt>
      <trkpt lat="43.13985" lon="3.10175">
        <ele>64</ele>
        <time>2025-12-29T11:19:58.875Z</time>
      </trkpt>
      <trkpt lat="43.13984" lon="3.10175">
        <ele>64</ele>
        <time>2025-12-29T11:19:59.875Z</time>
      </trkpt>
      <trkpt lat="43.13984" lon="3.10175">
        <ele>64</ele>
        <time>2025-12-29T11:20:00.875Z</time>
      </trkpt>
      <trkpt lat="43.13984" lon="3.10175">
        <ele>65</ele>
        <time>2025-12-29T11:20:01.875Z</time>
      </trkpt>
      <trkpt lat="43.13984" lon="3.10175">
        <ele>65</ele>
        <time>2025-12-29T11:20:02.875Z</time>
      </trkpt>
      <trkpt lat="43.13984" lon="3.10175">
        <ele>65</ele>
        <time>2025-12-29T11:20:03.875Z</time>
      </trkpt>
      <trkpt lat="43.13984" lon="3.10176">
        <ele>65</ele>
        <time>2025-12-29T11:20:04.875Z</time>
      </trkpt>
      <trkpt lat="43.13983" lon="3.10177">
        <ele>66</ele>
        <time>2025-12-29T11:20:05.875Z</time>
      </trkpt>
      <trkpt lat="43.13983" lon="3.10178">
        <ele>66</ele>
        <time>2025-12-29T11:20:06.875Z</time>
      </trkpt>
      <trkpt lat="43.13982" lon="3.10179">
        <ele>66</ele>
        <time>2025-12-29T11:20:07.875Z</time>
      </trkpt>
      <trkpt lat="43.13981" lon="3.1018">
        <ele>66</ele>
        <time>2025-12-29T11:20:08.875Z</time>
      </trkpt>
      <trkpt lat="43.1398" lon="3.1018">
        <ele>66</ele>
        <time>2025-12-29T11:20:09.875Z</time>
      </trkpt>
      <trkpt lat="43.13979" lon="3.1018">
        <ele>66</ele>
        <time>2025-12-29T11:20:10.875Z</time>
      </trkpt>
      <trkpt lat="43.13978" lon="3.1018">
        <ele>66</ele>
        <time>2025-12-29T11:20:11.875Z</time>
      </trkpt>
      <trkpt lat="43.13978" lon="3.1018">
        <ele>66</ele>
        <time>2025-12-29T11:20:12.875Z</time>
      </trkpt>
      <trkpt lat="43.13977" lon="3.1018">
        <ele>66</ele>
        <time>2025-12-29T11:20:13.875Z</time>
      </trkpt>
      <trkpt lat="43.13976" lon="3.10182">
        <ele>67</ele>
        <time>2025-12-29T11:20:14.875Z</time>
      </trkpt>
      <trkpt lat="43.13975" lon="3.10183">
        <ele>67</ele>
        <time>2025-12-29T11:20:15.875Z</time>
      </trkpt>
      <trkpt lat="43.13974" lon="3.10183">
        <ele>67</ele>
        <time>2025-12-29T11:20:16.875Z</time>
      </trkpt>
      <trkpt lat="43.13973" lon="3.10183">
        <ele>67</ele>
        <time>2025-12-29T11:20:17.875Z</time>
      </trkpt>
      <trkpt lat="43.13971" lon="3.10184">
        <ele>67</ele>
        <time>2025-12-29T11:20:18.875Z</time>
      </trkpt>
      <trkpt lat="43.1397" lon="3.10184">
        <ele>67</ele>
        <time>2025-12-29T11:20:19.875Z</time>
      </trkpt>
      <trkpt lat="43.13968" lon="3.10185">
        <ele>67</ele>
        <time>2025-12-29T11:20:20.875Z</time>
      </trkpt>
      <trkpt lat="43.13967" lon="3.10186">
        <ele>67</ele>
        <time>2025-12-29T11:20:21.875Z</time>
      </trkpt>
      <trkpt lat="43.13965" lon="3.10187">
        <ele>67</ele>
        <time>2025-12-29T11:20:22.875Z</time>
      </trkpt>
      <trkpt lat="43.13964" lon="3.10187">
        <ele>67</ele>
        <time>2025-12-29T11:20:23.875Z</time>
      </trkpt>
      <trkpt lat="43.13963" lon="3.10186">
        <ele>67</ele>
        <time>2025-12-29T11:20:24.875Z</time>
      </trkpt>
      <trkpt lat="43.13962" lon="3.10188">
        <ele>67</ele>
        <time>2025-12-29T11:20:25.875Z</time>
      </trkpt>
      <trkpt lat="43.13961" lon="3.1019">
        <ele>67</ele>
        <time>2025-12-29T11:20:26.875Z</time>
      </trkpt>
      <trkpt lat="43.13959" lon="3.10192">
        <ele>67</ele>
        <time>2025-12-29T11:20:27.875Z</time>
      </trkpt>
      <trkpt lat="43.13958" lon="3.10193">
        <ele>68</ele>
        <time>2025-12-29T11:20:28.875Z</time>
      </trkpt>
      <trkpt lat="43.13957" lon="3.10195">
        <ele>68</ele>
        <time>2025-12-29T11:20:29.875Z</time>
      </trkpt>
      <trkpt lat="43.13957" lon="3.10196">
        <ele>68</ele>
        <time>2025-12-29T11:20:30.875Z</time>
      </trkpt>
      <trkpt lat="43.13956" lon="3.10197">
        <ele>68</ele>
        <time>2025-12-29T11:20:31.875Z</time>
      </trkpt>
      <trkpt lat="43.13955" lon="3.10198">
        <ele>68</ele>
        <time>2025-12-29T11:20:32.875Z</time>
      </trkpt>
      <trkpt lat="43.13955" lon="3.10199">
        <ele>68</ele>
        <time>2025-12-29T11:20:33.875Z</time>
      </trkpt>
      <trkpt lat="43.13954" lon="3.10201">
        <ele>68</ele>
        <time>2025-12-29T11:20:34.875Z</time>
      </trkpt>
      <trkpt lat="43.13953" lon="3.10203">
        <ele>69</ele>
        <time>2025-12-29T11:20:35.875Z</time>
      </trkpt>
      <trkpt lat="43.13952" lon="3.10205">
        <ele>69</ele>
        <time>2025-12-29T11:20:36.875Z</time>
      </trkpt>
      <trkpt lat="43.1395" lon="3.10207">
        <ele>69</ele>
        <time>2025-12-29T11:20:37.875Z</time>
      </trkpt>
      <trkpt lat="43.1395" lon="3.10205">
        <ele>69</ele>
        <time>2025-12-29T11:20:38.875Z</time>
      </trkpt>
      <trkpt lat="43.1395" lon="3.10203">
        <ele>69</ele>
        <time>2025-12-29T11:20:39.875Z</time>
      </trkpt>
      <trkpt lat="43.1395" lon="3.10202">
        <ele>69</ele>
        <time>2025-12-29T11:20:40.875Z</time>
      </trkpt>
      <trkpt lat="43.13949" lon="3.10209">
        <ele>69</ele>
        <time>2025-12-29T11:20:41.875Z</time>
      </trkpt>
      <trkpt lat="43.13948" lon="3.10211">
        <ele>69</ele>
        <time>2025-12-29T11:20:42.875Z</time>
      </trkpt>
      <trkpt lat="43.13947" lon="3.10213">
        <ele>69</ele>
        <time>2025-12-29T11:20:43.875Z</time>
      </trkpt>
      <trkpt lat="43.13946" lon="3.10215">
        <ele>69</ele>
        <time>2025-12-29T11:20:44.875Z</time>
      </trkpt>
      <trkpt lat="43.13945" lon="3.10216">
        <ele>69</ele>
        <time>2025-12-29T11:20:45.875Z</time>
      </trkpt>
      <trkpt lat="43.13944" lon="3.10218">
        <ele>69</ele>
        <time>2025-12-29T11:20:46.875Z</time>
      </trkpt>
      <trkpt lat="43.13944" lon="3.10221">
        <ele>69</ele>
        <time>2025-12-29T11:20:47.875Z</time>
      </trkpt>
      <trkpt lat="43.13943" lon="3.10223">
        <ele>69</ele>
        <time>2025-12-29T11:20:48.875Z</time>
      </trkpt>
      <trkpt lat="43.13942" lon="3.10224">
        <ele>69</ele>
        <time>2025-12-29T11:20:49.875Z</time>
      </trkpt>
      <trkpt lat="43.13942" lon="3.10226">
        <ele>69</ele>
        <time>2025-12-29T11:20:50.875Z</time>
      </trkpt>
      <trkpt lat="43.13941" lon="3.10228">
        <ele>69</ele>
        <time>2025-12-29T11:20:51.875Z</time>
      </trkpt>
      <trkpt lat="43.13941" lon="3.10231">
        <ele>69</ele>
        <time>2025-12-29T11:20:52.875Z</time>
      </trkpt>
      <trkpt lat="43.1394" lon="3.10233">
        <ele>69</ele>
        <time>2025-12-29T11:20:53.875Z</time>
      </trkpt>
      <trkpt lat="43.13939" lon="3.10235">
        <ele>69</ele>
        <time>2025-12-29T11:20:54.875Z</time>
      </trkpt>
      <trkpt lat="43.13939" lon="3.10237">
        <ele>68</ele>
        <time>2025-12-29T11:20:55.875Z</time>
      </trkpt>
      <trkpt lat="43.13939" lon="3.10236">
        <ele>68</ele>
        <time>2025-12-29T11:20:56.875Z</time>
      </trkpt>
      <trkpt lat="43.13939" lon="3.10237">
        <ele>68</ele>
        <time>2025-12-29T11:20:57.875Z</time>
      </trkpt>
      <trkpt lat="43.13939" lon="3.10239">
        <ele>68</ele>
        <time>2025-12-29T11:20:58.875Z</time>
      </trkpt>
      <trkpt lat="43.13938" lon="3.10242">
        <ele>68</ele>
        <time>2025-12-29T11:20:59.875Z</time>
      </trkpt>
      <trkpt lat="43.13936" lon="3.10247">
        <ele>68</ele>
        <time>2025-12-29T11:21:00.875Z</time>
      </trkpt>
      <trkpt lat="43.13935" lon="3.10251">
        <ele>68</ele>
        <time>2025-12-29T11:21:01.875Z</time>
      </trkpt>
      <trkpt lat="43.13934" lon="3.10253">
        <ele>68</ele>
        <time>2025-12-29T11:21:02.875Z</time>
      </trkpt>
      <trkpt lat="43.13933" lon="3.10256">
        <ele>68</ele>
        <time>2025-12-29T11:21:03.875Z</time>
      </trkpt>
      <trkpt lat="43.13932" lon="3.10259">
        <ele>67</ele>
        <time>2025-12-29T11:21:04.875Z</time>
      </trkpt>
      <trkpt lat="43.13933" lon="3.10259">
        <ele>67</ele>
        <time>2025-12-29T11:21:05.875Z</time>
      </trkpt>
      <trkpt lat="43.13932" lon="3.10259">
        <ele>67</ele>
        <time>2025-12-29T11:21:06.875Z</time>
      </trkpt>
      <trkpt lat="43.13932" lon="3.10262">
        <ele>67</ele>
        <time>2025-12-29T11:21:07.875Z</time>
      </trkpt>
      <trkpt lat="43.13931" lon="3.10265">
        <ele>66</ele>
        <time>2025-12-29T11:21:08.875Z</time>
      </trkpt>
      <trkpt lat="43.1393" lon="3.10268">
        <ele>66</ele>
        <time>2025-12-29T11:21:09.875Z</time>
      </trkpt>
      <trkpt lat="43.13929" lon="3.10271">
        <ele>65</ele>
        <time>2025-12-29T11:21:10.875Z</time>
      </trkpt>
      <trkpt lat="43.13928" lon="3.10274">
        <ele>65</ele>
        <time>2025-12-29T11:21:11.875Z</time>
      </trkpt>
      <trkpt lat="43.13928" lon="3.10276">
        <ele>64</ele>
        <time>2025-12-29T11:21:12.875Z</time>
      </trkpt>
      <trkpt lat="43.13927" lon="3.10278">
        <ele>64</ele>
        <time>2025-12-29T11:21:13.875Z</time>
      </trkpt>
      <trkpt lat="43.13927" lon="3.10278">
        <ele>63</ele>
        <time>2025-12-29T11:21:14.875Z</time>
      </trkpt>
      <trkpt lat="43.13926" lon="3.10279">
        <ele>63</ele>
        <time>2025-12-29T11:21:15.875Z</time>
      </trkpt>
      <trkpt lat="43.13927" lon="3.10282">
        <ele>63</ele>
        <time>2025-12-29T11:21:16.875Z</time>
      </trkpt>
      <trkpt lat="43.13926" lon="3.10284">
        <ele>63</ele>
        <time>2025-12-29T11:21:17.875Z</time>
      </trkpt>
      <trkpt lat="43.13925" lon="3.10287">
        <ele>63</ele>
        <time>2025-12-29T11:21:18.875Z</time>
      </trkpt>
      <trkpt lat="43.13924" lon="3.1029">
        <ele>63</ele>
        <time>2025-12-29T11:21:19.875Z</time>
      </trkpt>
      <trkpt lat="43.13923" lon="3.10294">
        <ele>63</ele>
        <time>2025-12-29T11:21:20.875Z</time>
      </trkpt>
      <trkpt lat="43.13922" lon="3.10298">
        <ele>63</ele>
        <time>2025-12-29T11:21:21.875Z</time>
      </trkpt>
      <trkpt lat="43.13921" lon="3.10301">
        <ele>63</ele>
        <time>2025-12-29T11:21:22.875Z</time>
      </trkpt>
      <trkpt lat="43.13921" lon="3.10304">
        <ele>64</ele>
        <time>2025-12-29T11:21:23.875Z</time>
      </trkpt>
      <trkpt lat="43.1392" lon="3.10307">
        <ele>64</ele>
        <time>2025-12-29T11:21:24.875Z</time>
      </trkpt>
      <trkpt lat="43.13919" lon="3.1031">
        <ele>64</ele>
        <time>2025-12-29T11:21:25.875Z</time>
      </trkpt>
      <trkpt lat="43.13918" lon="3.10313">
        <ele>64</ele>
        <time>2025-12-29T11:21:26.875Z</time>
      </trkpt>
      <trkpt lat="43.13917" lon="3.10314">
        <ele>65</ele>
        <time>2025-12-29T11:21:27.875Z</time>
      </trkpt>
      <trkpt lat="43.13917" lon="3.10316">
        <ele>64</ele>
        <time>2025-12-29T11:21:28.875Z</time>
      </trkpt>
      <trkpt lat="43.13916" lon="3.10317">
        <ele>64</ele>
        <time>2025-12-29T11:21:29.875Z</time>
      </trkpt>
      <trkpt lat="43.13916" lon="3.10318">
        <ele>64</ele>
        <time>2025-12-29T11:21:30.875Z</time>
      </trkpt>
      <trkpt lat="43.13915" lon="3.1032">
        <ele>64</ele>
        <time>2025-12-29T11:21:31.875Z</time>
      </trkpt>
      <trkpt lat="43.13915" lon="3.10322">
        <ele>64</ele>
        <time>2025-12-29T11:21:32.875Z</time>
      </trkpt>
      <trkpt lat="43.13914" lon="3.10323">
        <ele>64</ele>
        <time>2025-12-29T11:21:33.875Z</time>
      </trkpt>
      <trkpt lat="43.13914" lon="3.10325">
        <ele>64</ele>
        <time>2025-12-29T11:21:34.875Z</time>
      </trkpt>
      <trkpt lat="43.13914" lon="3.10327">
        <ele>64</ele>
        <time>2025-12-29T11:21:35.875Z</time>
      </trkpt>
      <trkpt lat="43.13913" lon="3.10328">
        <ele>64</ele>
        <time>2025-12-29T11:21:36.875Z</time>
      </trkpt>
      <trkpt lat="43.13913" lon="3.1033">
        <ele>64</ele>
        <time>2025-12-29T11:21:37.875Z</time>
      </trkpt>
      <trkpt lat="43.13913" lon="3.1033">
        <ele>64</ele>
        <time>2025-12-29T11:21:38.875Z</time>
      </trkpt>
      <trkpt lat="43.13913" lon="3.10331">
        <ele>63</ele>
        <time>2025-12-29T11:21:39.875Z</time>
      </trkpt>
      <trkpt lat="43.13913" lon="3.10332">
        <ele>63</ele>
        <time>2025-12-29T11:21:40.875Z</time>
      </trkpt>
      <trkpt lat="43.13912" lon="3.10336">
        <ele>63</ele>
        <time>2025-12-29T11:21:41.875Z</time>
      </trkpt>
      <trkpt lat="43.13912" lon="3.10338">
        <ele>63</ele>
        <time>2025-12-29T11:21:42.875Z</time>
      </trkpt>
      <trkpt lat="43.13911" lon="3.1034">
        <ele>63</ele>
        <time>2025-12-29T11:21:43.875Z</time>
      </trkpt>
      <trkpt lat="43.13911" lon="3.10342">
        <ele>63</ele>
        <time>2025-12-29T11:21:44.875Z</time>
      </trkpt>
      <trkpt lat="43.13911" lon="3.10344">
        <ele>62</ele>
        <time>2025-12-29T11:21:45.875Z</time>
      </trkpt>
      <trkpt lat="43.13911" lon="3.10346">
        <ele>62</ele>
        <time>2025-12-29T11:21:46.875Z</time>
      </trkpt>
      <trkpt lat="43.1391" lon="3.10352">
        <ele>62</ele>
        <time>2025-12-29T11:21:47.875Z</time>
      </trkpt>
      <trkpt lat="43.1391" lon="3.10354">
        <ele>62</ele>
        <time>2025-12-29T11:21:48.875Z</time>
      </trkpt>
      <trkpt lat="43.1391" lon="3.10355">
        <ele>61</ele>
        <time>2025-12-29T11:21:49.875Z</time>
      </trkpt>
      <trkpt lat="43.1391" lon="3.10358">
        <ele>61</ele>
        <time>2025-12-29T11:21:50.875Z</time>
      </trkpt>
      <trkpt lat="43.1391" lon="3.1036">
        <ele>61</ele>
        <time>2025-12-29T11:21:51.875Z</time>
      </trkpt>
      <trkpt lat="43.13911" lon="3.10361">
        <ele>61</ele>
        <time>2025-12-29T11:21:52.875Z</time>
      </trkpt>
      <trkpt lat="43.13911" lon="3.10364">
        <ele>61</ele>
        <time>2025-12-29T11:21:53.875Z</time>
      </trkpt>
      <trkpt lat="43.13911" lon="3.10365">
        <ele>61</ele>
        <time>2025-12-29T11:21:54.875Z</time>
      </trkpt>
      <trkpt lat="43.13911" lon="3.10369">
        <ele>60</ele>
        <time>2025-12-29T11:21:55.875Z</time>
      </trkpt>
      <trkpt lat="43.13912" lon="3.10368">
        <ele>60</ele>
        <time>2025-12-29T11:21:56.875Z</time>
      </trkpt>
      <trkpt lat="43.13913" lon="3.10368">
        <ele>60</ele>
        <time>2025-12-29T11:21:57.875Z</time>
      </trkpt>
      <trkpt lat="43.13913" lon="3.10368">
        <ele>59</ele>
        <time>2025-12-29T11:21:58.875Z</time>
      </trkpt>
      <trkpt lat="43.13914" lon="3.10368">
        <ele>59</ele>
        <time>2025-12-29T11:21:59.875Z</time>
      </trkpt>
      <trkpt lat="43.13914" lon="3.10368">
        <ele>59</ele>
        <time>2025-12-29T11:22:00.875Z</time>
      </trkpt>
      <trkpt lat="43.13914" lon="3.10369">
        <ele>59</ele>
        <time>2025-12-29T11:22:01.875Z</time>
      </trkpt>
      <trkpt lat="43.13913" lon="3.10369">
        <ele>59</ele>
        <time>2025-12-29T11:22:02.875Z</time>
      </trkpt>
      <trkpt lat="43.13914" lon="3.10368">
        <ele>59</ele>
        <time>2025-12-29T11:22:03.875Z</time>
      </trkpt>
      <trkpt lat="43.13914" lon="3.10367">
        <ele>59</ele>
        <time>2025-12-29T11:22:04.875Z</time>
      </trkpt>
      <trkpt lat="43.13915" lon="3.10367">
        <ele>58</ele>
        <time>2025-12-29T11:22:05.875Z</time>
      </trkpt>
      <trkpt lat="43.13915" lon="3.10366">
        <ele>58</ele>
        <time>2025-12-29T11:22:06.875Z</time>
      </trkpt>
      <trkpt lat="43.13916" lon="3.10365">
        <ele>58</ele>
        <time>2025-12-29T11:22:07.875Z</time>
      </trkpt>
      <trkpt lat="43.13916" lon="3.10363">
        <ele>58</ele>
        <time>2025-12-29T11:22:08.875Z</time>
      </trkpt>
      <trkpt lat="43.13916" lon="3.10362">
        <ele>57</ele>
        <time>2025-12-29T11:22:09.875Z</time>
      </trkpt>
      <trkpt lat="43.13915" lon="3.10361">
        <ele>57</ele>
        <time>2025-12-29T11:22:10.875Z</time>
      </trkpt>
      <trkpt lat="43.13914" lon="3.10362">
        <ele>57</ele>
        <time>2025-12-29T11:22:11.875Z</time>
      </trkpt>
      <trkpt lat="43.13913" lon="3.10362">
        <ele>56</ele>
        <time>2025-12-29T11:22:12.875Z</time>
      </trkpt>
      <trkpt lat="43.13912" lon="3.10361">
        <ele>56</ele>
        <time>2025-12-29T11:22:13.875Z</time>
      </trkpt>
      <trkpt lat="43.13911" lon="3.10361">
        <ele>56</ele>
        <time>2025-12-29T11:22:14.875Z</time>
      </trkpt>
      <trkpt lat="43.1391" lon="3.1036">
        <ele>56</ele>
        <time>2025-12-29T11:22:15.875Z</time>
      </trkpt>
      <trkpt lat="43.13909" lon="3.10359">
        <ele>55</ele>
        <time>2025-12-29T11:22:16.875Z</time>
      </trkpt>
      <trkpt lat="43.13908" lon="3.10358">
        <ele>55</ele>
        <time>2025-12-29T11:22:17.875Z</time>
      </trkpt>
      <trkpt lat="43.13908" lon="3.10356">
        <ele>55</ele>
        <time>2025-12-29T11:22:18.875Z</time>
      </trkpt>
      <trkpt lat="43.13906" lon="3.10356">
        <ele>55</ele>
        <time>2025-12-29T11:22:19.875Z</time>
      </trkpt>
      <trkpt lat="43.13905" lon="3.10356">
        <ele>55</ele>
        <time>2025-12-29T11:22:20.875Z</time>
      </trkpt>
      <trkpt lat="43.13904" lon="3.10357">
        <ele>54</ele>
        <time>2025-12-29T11:22:21.875Z</time>
      </trkpt>
      <trkpt lat="43.13904" lon="3.10353">
        <ele>54</ele>
        <time>2025-12-29T11:22:22.875Z</time>
      </trkpt>
      <trkpt lat="43.13903" lon="3.10349">
        <ele>54</ele>
        <time>2025-12-29T11:22:23.875Z</time>
      </trkpt>
      <trkpt lat="43.13902" lon="3.1035">
        <ele>54</ele>
        <time>2025-12-29T11:22:24.875Z</time>
      </trkpt>
      <trkpt lat="43.13901" lon="3.10353">
        <ele>54</ele>
        <time>2025-12-29T11:22:25.875Z</time>
      </trkpt>
      <trkpt lat="43.13899" lon="3.10354">
        <ele>54</ele>
        <time>2025-12-29T11:22:26.875Z</time>
      </trkpt>
      <trkpt lat="43.13898" lon="3.10356">
        <ele>54</ele>
        <time>2025-12-29T11:22:27.875Z</time>
      </trkpt>
      <trkpt lat="43.13897" lon="3.10357">
        <ele>54</ele>
        <time>2025-12-29T11:22:28.875Z</time>
      </trkpt>
      <trkpt lat="43.13897" lon="3.1036">
        <ele>54</ele>
        <time>2025-12-29T11:22:29.875Z</time>
      </trkpt>
      <trkpt lat="43.13896" lon="3.10363">
        <ele>54</ele>
        <time>2025-12-29T11:22:30.875Z</time>
      </trkpt>
      <trkpt lat="43.13895" lon="3.10367">
        <ele>54</ele>
        <time>2025-12-29T11:22:31.875Z</time>
      </trkpt>
      <trkpt lat="43.13895" lon="3.10369">
        <ele>54</ele>
        <time>2025-12-29T11:22:32.875Z</time>
      </trkpt>
      <trkpt lat="43.13895" lon="3.10371">
        <ele>54</ele>
        <time>2025-12-29T11:22:33.875Z</time>
      </trkpt>
      <trkpt lat="43.13895" lon="3.10373">
        <ele>54</ele>
        <time>2025-12-29T11:22:34.875Z</time>
      </trkpt>
      <trkpt lat="43.13895" lon="3.10376">
        <ele>54</ele>
        <time>2025-12-29T11:22:35.875Z</time>
      </trkpt>
      <trkpt lat="43.13894" lon="3.10378">
        <ele>54</ele>
        <time>2025-12-29T11:22:36.875Z</time>
      </trkpt>
      <trkpt lat="43.13894" lon="3.10379">
        <ele>54</ele>
        <time>2025-12-29T11:22:37.875Z</time>
      </trkpt>
      <trkpt lat="43.13894" lon="3.1038">
        <ele>54</ele>
        <time>2025-12-29T11:22:38.875Z</time>
      </trkpt>
      <trkpt lat="43.13893" lon="3.10381">
        <ele>54</ele>
        <time>2025-12-29T11:22:39.875Z</time>
      </trkpt>
      <trkpt lat="43.13892" lon="3.10381">
        <ele>54</ele>
        <time>2025-12-29T11:22:40.875Z</time>
      </trkpt>
      <trkpt lat="43.13892" lon="3.10382">
        <ele>54</ele>
        <time>2025-12-29T11:22:41.875Z</time>
      </trkpt>
      <trkpt lat="43.13891" lon="3.10382">
        <ele>54</ele>
        <time>2025-12-29T11:22:42.875Z</time>
      </trkpt>
      <trkpt lat="43.1389" lon="3.10383">
        <ele>53</ele>
        <time>2025-12-29T11:22:43.875Z</time>
      </trkpt>
      <trkpt lat="43.1389" lon="3.10381">
        <ele>53</ele>
        <time>2025-12-29T11:22:44.875Z</time>
      </trkpt>
      <trkpt lat="43.13889" lon="3.10381">
        <ele>53</ele>
        <time>2025-12-29T11:22:45.875Z</time>
      </trkpt>
      <trkpt lat="43.13888" lon="3.10383">
        <ele>53</ele>
        <time>2025-12-29T11:22:46.875Z</time>
      </trkpt>
      <trkpt lat="43.13887" lon="3.10384">
        <ele>53</ele>
        <time>2025-12-29T11:22:47.875Z</time>
      </trkpt>
      <trkpt lat="43.13887" lon="3.10384">
        <ele>53</ele>
        <time>2025-12-29T11:22:48.875Z</time>
      </trkpt>
      <trkpt lat="43.13887" lon="3.10384">
        <ele>53</ele>
        <time>2025-12-29T11:22:49.875Z</time>
      </trkpt>
      <trkpt lat="43.13888" lon="3.10385">
        <ele>53</ele>
        <time>2025-12-29T11:22:50.875Z</time>
      </trkpt>
      <trkpt lat="43.13888" lon="3.10384">
        <ele>53</ele>
        <time>2025-12-29T11:22:51.875Z</time>
      </trkpt>
      <trkpt lat="43.13889" lon="3.10383">
        <ele>53</ele>
        <time>2025-12-29T11:22:52.875Z</time>
      </trkpt>
      <trkpt lat="43.13889" lon="3.10383">
        <ele>53</ele>
        <time>2025-12-29T11:22:53.875Z</time>
      </trkpt>
      <trkpt lat="43.13889" lon="3.10382">
        <ele>53</ele>
        <time>2025-12-29T11:22:54.875Z</time>
      </trkpt>
      <trkpt lat="43.1389" lon="3.10383">
        <ele>53</ele>
        <time>2025-12-29T11:22:55.875Z</time>
      </trkpt>
      <trkpt lat="43.1389" lon="3.10383">
        <ele>53</ele>
        <time>2025-12-29T11:22:56.875Z</time>
      </trkpt>
      <trkpt lat="43.1389" lon="3.10383">
        <ele>53</ele>
        <time>2025-12-29T11:22:57.875Z</time>
      </trkpt>
      <trkpt lat="43.1389" lon="3.10383">
        <ele>53</ele>
        <time>2025-12-29T11:22:58.875Z</time>
      </trkpt>
      <trkpt lat="43.13888" lon="3.10384">
        <ele>53</ele>
        <time>2025-12-29T11:22:59.875Z</time>
      </trkpt>
      <trkpt lat="43.13887" lon="3.10386">
        <ele>53</ele>
        <time>2025-12-29T11:23:00.875Z</time>
      </trkpt>
      <trkpt lat="43.13886" lon="3.10388">
        <ele>53</ele>
        <time>2025-12-29T11:23:01.875Z</time>
      </trkpt>
      <trkpt lat="43.13885" lon="3.10392">
        <ele>54</ele>
        <time>2025-12-29T11:23:02.875Z</time>
      </trkpt>
      <trkpt lat="43.13883" lon="3.10394">
        <ele>54</ele>
        <time>2025-12-29T11:23:03.875Z</time>
      </trkpt>
      <trkpt lat="43.13882" lon="3.10395">
        <ele>54</ele>
        <time>2025-12-29T11:23:04.875Z</time>
      </trkpt>
      <trkpt lat="43.13881" lon="3.10397">
        <ele>54</ele>
        <time>2025-12-29T11:23:05.875Z</time>
      </trkpt>
      <trkpt lat="43.1388" lon="3.104">
        <ele>55</ele>
        <time>2025-12-29T11:23:06.875Z</time>
      </trkpt>
      <trkpt lat="43.13879" lon="3.104">
        <ele>55</ele>
        <time>2025-12-29T11:23:07.875Z</time>
      </trkpt>
      <trkpt lat="43.13879" lon="3.104">
        <ele>55</ele>
        <time>2025-12-29T11:23:08.875Z</time>
      </trkpt>
      <trkpt lat="43.13879" lon="3.104">
        <ele>55</ele>
        <time>2025-12-29T11:23:09.875Z</time>
      </trkpt>
      <trkpt lat="43.13879" lon="3.104">
        <ele>55</ele>
        <time>2025-12-29T11:23:10.875Z</time>
      </trkpt>
      <trkpt lat="43.13879" lon="3.104">
        <ele>55</ele>
        <time>2025-12-29T11:23:11.875Z</time>
      </trkpt>
      <trkpt lat="43.13879" lon="3.104">
        <ele>56</ele>
        <time>2025-12-29T11:23:12.875Z</time>
      </trkpt>
      <trkpt lat="43.13878" lon="3.104">
        <ele>56</ele>
        <time>2025-12-29T11:23:13.875Z</time>
      </trkpt>
      <trkpt lat="43.13879" lon="3.104">
        <ele>56</ele>
        <time>2025-12-29T11:23:14.875Z</time>
      </trkpt>
      <trkpt lat="43.13879" lon="3.10399">
        <ele>56</ele>
        <time>2025-12-29T11:23:15.875Z</time>
      </trkpt>
      <trkpt lat="43.13878" lon="3.10401">
        <ele>56</ele>
        <time>2025-12-29T11:23:16.875Z</time>
      </trkpt>
      <trkpt lat="43.13878" lon="3.10401">
        <ele>56</ele>
        <time>2025-12-29T11:23:17.875Z</time>
      </trkpt>
      <trkpt lat="43.13878" lon="3.10402">
        <ele>57</ele>
        <time>2025-12-29T11:23:18.875Z</time>
      </trkpt>
      <trkpt lat="43.13878" lon="3.10402">
        <ele>57</ele>
        <time>2025-12-29T11:23:19.875Z</time>
      </trkpt>
      <trkpt lat="43.13878" lon="3.10406">
        <ele>57</ele>
        <time>2025-12-29T11:23:20.875Z</time>
      </trkpt>
      <trkpt lat="43.13877" lon="3.10407">
        <ele>57</ele>
        <time>2025-12-29T11:23:21.875Z</time>
      </trkpt>
      <trkpt lat="43.13877" lon="3.10408">
        <ele>58</ele>
        <time>2025-12-29T11:23:22.875Z</time>
      </trkpt>
      <trkpt lat="43.13877" lon="3.10408">
        <ele>58</ele>
        <time>2025-12-29T11:23:23.875Z</time>
      </trkpt>
      <trkpt lat="43.13877" lon="3.10409">
        <ele>58</ele>
        <time>2025-12-29T11:23:24.875Z</time>
      </trkpt>
      <trkpt lat="43.13877" lon="3.10409">
        <ele>58</ele>
        <time>2025-12-29T11:23:25.875Z</time>
      </trkpt>
      <trkpt lat="43.13877" lon="3.10409">
        <ele>58</ele>
        <time>2025-12-29T11:23:26.875Z</time>
      </trkpt>
      <trkpt lat="43.13876" lon="3.1041">
        <ele>58</ele>
        <time>2025-12-29T11:23:27.875Z</time>
      </trkpt>
      <trkpt lat="43.13876" lon="3.10412">
        <ele>59</ele>
        <time>2025-12-29T11:23:28.875Z</time>
      </trkpt>
      <trkpt lat="43.13875" lon="3.10415">
        <ele>59</ele>
        <time>2025-12-29T11:23:29.875Z</time>
      </trkpt>
      <trkpt lat="43.13874" lon="3.10417">
        <ele>59</ele>
        <time>2025-12-29T11:23:30.875Z</time>
      </trkpt>
      <trkpt lat="43.13875" lon="3.10415">
        <ele>60</ele>
        <time>2025-12-29T11:23:31.875Z</time>
      </trkpt>
      <trkpt lat="43.13875" lon="3.10415">
        <ele>60</ele>
        <time>2025-12-29T11:23:32.875Z</time>
      </trkpt>
      <trkpt lat="43.13875" lon="3.10415">
        <ele>60</ele>
        <time>2025-12-29T11:23:33.875Z</time>
      </trkpt>
      <trkpt lat="43.13875" lon="3.10415">
        <ele>60</ele>
        <time>2025-12-29T11:23:34.875Z</time>
      </trkpt>
      <trkpt lat="43.13875" lon="3.10415">
        <ele>60</ele>
        <time>2025-12-29T11:23:35.875Z</time>
      </trkpt>
      <trkpt lat="43.13874" lon="3.10415">
        <ele>60</ele>
        <time>2025-12-29T11:23:36.875Z</time>
      </trkpt>
      <trkpt lat="43.13874" lon="3.10415">
        <ele>59</ele>
        <time>2025-12-29T11:23:37.875Z</time>
      </trkpt>
      <trkpt lat="43.13874" lon="3.10415">
        <ele>59</ele>
        <time>2025-12-29T11:23:38.875Z</time>
      </trkpt>
      <trkpt lat="43.13874" lon="3.10415">
        <ele>59</ele>
        <time>2025-12-29T11:23:39.875Z</time>
      </trkpt>
      <trkpt lat="43.13874" lon="3.10415">
        <ele>59</ele>
        <time>2025-12-29T11:23:40.875Z</time>
      </trkpt>
      <trkpt lat="43.13875" lon="3.10415">
        <ele>59</ele>
        <time>2025-12-29T11:23:41.875Z</time>
      </trkpt>
      <trkpt lat="43.13875" lon="3.10415">
        <ele>59</ele>
        <time>2025-12-29T11:23:42.875Z</time>
      </trkpt>
      <trkpt lat="43.13875" lon="3.10415">
        <ele>59</ele>
        <time>2025-12-29T11:23:43.875Z</time>
      </trkpt>
      <trkpt lat="43.13874" lon="3.10415">
        <ele>58</ele>
        <time>2025-12-29T11:23:44.875Z</time>
      </trkpt>
      <trkpt lat="43.13875" lon="3.10415">
        <ele>58</ele>
        <time>2025-12-29T11:23:45.875Z</time>
      </trkpt>
      <trkpt lat="43.13876" lon="3.10415">
        <ele>58</ele>
        <time>2025-12-29T11:23:46.875Z</time>
      </trkpt>
      <trkpt lat="43.13876" lon="3.10415">
        <ele>58</ele>
        <time>2025-12-29T11:23:47.875Z</time>
      </trkpt>
      <trkpt lat="43.13876" lon="3.10416">
        <ele>57</ele>
        <time>2025-12-29T11:23:48.875Z</time>
      </trkpt>
      <trkpt lat="43.13876" lon="3.10416">
        <ele>57</ele>
        <time>2025-12-29T11:23:49.875Z</time>
      </trkpt>
      <trkpt lat="43.13875" lon="3.10417">
        <ele>57</ele>
        <time>2025-12-29T11:23:50.875Z</time>
      </trkpt>
      <trkpt lat="43.13875" lon="3.10417">
        <ele>56</ele>
        <time>2025-12-29T11:23:51.875Z</time>
      </trkpt>
      <trkpt lat="43.13875" lon="3.10418">
        <ele>56</ele>
        <time>2025-12-29T11:23:52.875Z</time>
      </trkpt>
      <trkpt lat="43.13875" lon="3.10419">
        <ele>56</ele>
        <time>2025-12-29T11:23:53.875Z</time>
      </trkpt>
      <trkpt lat="43.13875" lon="3.1042">
        <ele>55</ele>
        <time>2025-12-29T11:23:54.875Z</time>
      </trkpt>
      <trkpt lat="43.13874" lon="3.1042">
        <ele>55</ele>
        <time>2025-12-29T11:23:55.875Z</time>
      </trkpt>
      <trkpt lat="43.13874" lon="3.10422">
        <ele>55</ele>
        <time>2025-12-29T11:23:56.875Z</time>
      </trkpt>
      <trkpt lat="43.13874" lon="3.10423">
        <ele>54</ele>
        <time>2025-12-29T11:23:57.875Z</time>
      </trkpt>
      <trkpt lat="43.13873" lon="3.10423">
        <ele>54</ele>
        <time>2025-12-29T11:23:58.875Z</time>
      </trkpt>
      <trkpt lat="43.13872" lon="3.10423">
        <ele>54</ele>
        <time>2025-12-29T11:23:59.875Z</time>
      </trkpt>
      <trkpt lat="43.13871" lon="3.10423">
        <ele>54</ele>
        <time>2025-12-29T11:24:00.875Z</time>
      </trkpt>
      <trkpt lat="43.1387" lon="3.10421">
        <ele>54</ele>
        <time>2025-12-29T11:24:01.875Z</time>
      </trkpt>
      <trkpt lat="43.13869" lon="3.10421">
        <ele>54</ele>
        <time>2025-12-29T11:24:02.875Z</time>
      </trkpt>
      <trkpt lat="43.13869" lon="3.10422">
        <ele>54</ele>
        <time>2025-12-29T11:24:03.875Z</time>
      </trkpt>
      <trkpt lat="43.13868" lon="3.10423">
        <ele>54</ele>
        <time>2025-12-29T11:24:04.875Z</time>
      </trkpt>
      <trkpt lat="43.13867" lon="3.10424">
        <ele>54</ele>
        <time>2025-12-29T11:24:05.875Z</time>
      </trkpt>
      <trkpt lat="43.13866" lon="3.10425">
        <ele>54</ele>
        <time>2025-12-29T11:24:06.875Z</time>
      </trkpt>
      <trkpt lat="43.13866" lon="3.10425">
        <ele>54</ele>
        <time>2025-12-29T11:24:07.875Z</time>
      </trkpt>
      <trkpt lat="43.13865" lon="3.10426">
        <ele>54</ele>
        <time>2025-12-29T11:24:08.875Z</time>
      </trkpt>
      <trkpt lat="43.13865" lon="3.10427">
        <ele>54</ele>
        <time>2025-12-29T11:24:09.875Z</time>
      </trkpt>
      <trkpt lat="43.13864" lon="3.10428">
        <ele>54</ele>
        <time>2025-12-29T11:24:10.875Z</time>
      </trkpt>
      <trkpt lat="43.13864" lon="3.10429">
        <ele>54</ele>
        <time>2025-12-29T11:24:11.875Z</time>
      </trkpt>
      <trkpt lat="43.13863" lon="3.10429">
        <ele>55</ele>
        <time>2025-12-29T11:24:12.875Z</time>
      </trkpt>
      <trkpt lat="43.13863" lon="3.10429">
        <ele>55</ele>
        <time>2025-12-29T11:24:13.875Z</time>
      </trkpt>
      <trkpt lat="43.13861" lon="3.1043">
        <ele>55</ele>
        <time>2025-12-29T11:24:14.875Z</time>
      </trkpt>
      <trkpt lat="43.1386" lon="3.10431">
        <ele>55</ele>
        <time>2025-12-29T11:24:15.875Z</time>
      </trkpt>
      <trkpt lat="43.13859" lon="3.10432">
        <ele>55</ele>
        <time>2025-12-29T11:24:16.875Z</time>
      </trkpt>
      <trkpt lat="43.13858" lon="3.10433">
        <ele>55</ele>
        <time>2025-12-29T11:24:17.875Z</time>
      </trkpt>
      <trkpt lat="43.13857" lon="3.10433">
        <ele>55</ele>
        <time>2025-12-29T11:24:18.875Z</time>
      </trkpt>
      <trkpt lat="43.13856" lon="3.10433">
        <ele>55</ele>
        <time>2025-12-29T11:24:19.875Z</time>
      </trkpt>
      <trkpt lat="43.13854" lon="3.10434">
        <ele>55</ele>
        <time>2025-12-29T11:24:20.875Z</time>
      </trkpt>
      <trkpt lat="43.13852" lon="3.10434">
        <ele>55</ele>
        <time>2025-12-29T11:24:21.875Z</time>
      </trkpt>
      <trkpt lat="43.13851" lon="3.10435">
        <ele>55</ele>
        <time>2025-12-29T11:24:22.875Z</time>
      </trkpt>
      <trkpt lat="43.13849" lon="3.10436">
        <ele>55</ele>
        <time>2025-12-29T11:24:23.875Z</time>
      </trkpt>
      <trkpt lat="43.13848" lon="3.10436">
        <ele>55</ele>
        <time>2025-12-29T11:24:24.875Z</time>
      </trkpt>
      <trkpt lat="43.13848" lon="3.10438">
        <ele>54</ele>
        <time>2025-12-29T11:24:25.875Z</time>
      </trkpt>
      <trkpt lat="43.13847" lon="3.10439">
        <ele>54</ele>
        <time>2025-12-29T11:24:26.875Z</time>
      </trkpt>
      <trkpt lat="43.13847" lon="3.10441">
        <ele>54</ele>
        <time>2025-12-29T11:24:27.875Z</time>
      </trkpt>
      <trkpt lat="43.13846" lon="3.10442">
        <ele>54</ele>
        <time>2025-12-29T11:24:28.875Z</time>
      </trkpt>
      <trkpt lat="43.13845" lon="3.10442">
        <ele>54</ele>
        <time>2025-12-29T11:24:29.875Z</time>
      </trkpt>
      <trkpt lat="43.13845" lon="3.10444">
        <ele>54</ele>
        <time>2025-12-29T11:24:30.875Z</time>
      </trkpt>
      <trkpt lat="43.13844" lon="3.10445">
        <ele>54</ele>
        <time>2025-12-29T11:24:31.875Z</time>
      </trkpt>
      <trkpt lat="43.13843" lon="3.10446">
        <ele>54</ele>
        <time>2025-12-29T11:24:32.875Z</time>
      </trkpt>
      <trkpt lat="43.13842" lon="3.10446">
        <ele>54</ele>
        <time>2025-12-29T11:24:33.875Z</time>
      </trkpt>
      <trkpt lat="43.13841" lon="3.10447">
        <ele>54</ele>
        <time>2025-12-29T11:24:34.875Z</time>
      </trkpt>
      <trkpt lat="43.1384" lon="3.10447">
        <ele>54</ele>
        <time>2025-12-29T11:24:35.875Z</time>
      </trkpt>
      <trkpt lat="43.13839" lon="3.10447">
        <ele>53</ele>
        <time>2025-12-29T11:24:36.875Z</time>
      </trkpt>
      <trkpt lat="43.13837" lon="3.10449">
        <ele>53</ele>
        <time>2025-12-29T11:24:37.875Z</time>
      </trkpt>
      <trkpt lat="43.13835" lon="3.1045">
        <ele>53</ele>
        <time>2025-12-29T11:24:38.875Z</time>
      </trkpt>
      <trkpt lat="43.13833" lon="3.10452">
        <ele>53</ele>
        <time>2025-12-29T11:24:39.875Z</time>
      </trkpt>
      <trkpt lat="43.13832" lon="3.10453">
        <ele>54</ele>
        <time>2025-12-29T11:24:40.875Z</time>
      </trkpt>
      <trkpt lat="43.13831" lon="3.10455">
        <ele>54</ele>
        <time>2025-12-29T11:24:41.875Z</time>
      </trkpt>
      <trkpt lat="43.13829" lon="3.10455">
        <ele>54</ele>
        <time>2025-12-29T11:24:42.875Z</time>
      </trkpt>
      <trkpt lat="43.13828" lon="3.10456">
        <ele>55</ele>
        <time>2025-12-29T11:24:43.875Z</time>
      </trkpt>
      <trkpt lat="43.13827" lon="3.10458">
        <ele>55</ele>
        <time>2025-12-29T11:24:44.875Z</time>
      </trkpt>
      <trkpt lat="43.13826" lon="3.1046">
        <ele>55</ele>
        <time>2025-12-29T11:24:45.875Z</time>
      </trkpt>
      <trkpt lat="43.13826" lon="3.10462">
        <ele>56</ele>
        <time>2025-12-29T11:24:46.875Z</time>
      </trkpt>
      <trkpt lat="43.13825" lon="3.10465">
        <ele>56</ele>
        <time>2025-12-29T11:24:47.875Z</time>
      </trkpt>
      <trkpt lat="43.13825" lon="3.10468">
        <ele>56</ele>
        <time>2025-12-29T11:24:48.875Z</time>
      </trkpt>
      <trkpt lat="43.13826" lon="3.1047">
        <ele>56</ele>
        <time>2025-12-29T11:24:49.875Z</time>
      </trkpt>
      <trkpt lat="43.13826" lon="3.10471">
        <ele>57</ele>
        <time>2025-12-29T11:24:50.875Z</time>
      </trkpt>
      <trkpt lat="43.13827" lon="3.10473">
        <ele>57</ele>
        <time>2025-12-29T11:24:51.875Z</time>
      </trkpt>
      <trkpt lat="43.13827" lon="3.10475">
        <ele>57</ele>
        <time>2025-12-29T11:24:52.875Z</time>
      </trkpt>
      <trkpt lat="43.13828" lon="3.10476">
        <ele>57</ele>
        <time>2025-12-29T11:24:53.875Z</time>
      </trkpt>
      <trkpt lat="43.13829" lon="3.10477">
        <ele>57</ele>
        <time>2025-12-29T11:24:54.875Z</time>
      </trkpt>
      <trkpt lat="43.1383" lon="3.10477">
        <ele>57</ele>
        <time>2025-12-29T11:24:55.875Z</time>
      </trkpt>
      <trkpt lat="43.13831" lon="3.10479">
        <ele>57</ele>
        <time>2025-12-29T11:24:56.875Z</time>
      </trkpt>
      <trkpt lat="43.13832" lon="3.10481">
        <ele>57</ele>
        <time>2025-12-29T11:24:57.875Z</time>
      </trkpt>
      <trkpt lat="43.13832" lon="3.10483">
        <ele>57</ele>
        <time>2025-12-29T11:24:58.875Z</time>
      </trkpt>
      <trkpt lat="43.13832" lon="3.10486">
        <ele>57</ele>
        <time>2025-12-29T11:24:59.875Z</time>
      </trkpt>
      <trkpt lat="43.13832" lon="3.10487">
        <ele>57</ele>
        <time>2025-12-29T11:25:00.875Z</time>
      </trkpt>
      <trkpt lat="43.13833" lon="3.10489">
        <ele>57</ele>
        <time>2025-12-29T11:25:01.875Z</time>
      </trkpt>
      <trkpt lat="43.13833" lon="3.1049">
        <ele>57</ele>
        <time>2025-12-29T11:25:02.875Z</time>
      </trkpt>
      <trkpt lat="43.13833" lon="3.10492">
        <ele>58</ele>
        <time>2025-12-29T11:25:03.875Z</time>
      </trkpt>
      <trkpt lat="43.13833" lon="3.10494">
        <ele>58</ele>
        <time>2025-12-29T11:25:04.875Z</time>
      </trkpt>
      <trkpt lat="43.13833" lon="3.10495">
        <ele>58</ele>
        <time>2025-12-29T11:25:05.875Z</time>
      </trkpt>
      <trkpt lat="43.13833" lon="3.10496">
        <ele>58</ele>
        <time>2025-12-29T11:25:06.875Z</time>
      </trkpt>
      <trkpt lat="43.13833" lon="3.10497">
        <ele>58</ele>
        <time>2025-12-29T11:25:07.875Z</time>
      </trkpt>
      <trkpt lat="43.13833" lon="3.10498">
        <ele>58</ele>
        <time>2025-12-29T11:25:08.875Z</time>
      </trkpt>
      <trkpt lat="43.13833" lon="3.10499">
        <ele>58</ele>
        <time>2025-12-29T11:25:09.875Z</time>
      </trkpt>
      <trkpt lat="43.13833" lon="3.10501">
        <ele>57</ele>
        <time>2025-12-29T11:25:10.875Z</time>
      </trkpt>
      <trkpt lat="43.13834" lon="3.10503">
        <ele>57</ele>
        <time>2025-12-29T11:25:11.875Z</time>
      </trkpt>
      <trkpt lat="43.13833" lon="3.10506">
        <ele>57</ele>
        <time>2025-12-29T11:25:12.875Z</time>
      </trkpt>
      <trkpt lat="43.13833" lon="3.10508">
        <ele>57</ele>
        <time>2025-12-29T11:25:13.875Z</time>
      </trkpt>
      <trkpt lat="43.13833" lon="3.10511">
        <ele>57</ele>
        <time>2025-12-29T11:25:14.875Z</time>
      </trkpt>
      <trkpt lat="43.13834" lon="3.10513">
        <ele>57</ele>
        <time>2025-12-29T11:25:15.875Z</time>
      </trkpt>
      <trkpt lat="43.13834" lon="3.10515">
        <ele>57</ele>
        <time>2025-12-29T11:25:16.875Z</time>
      </trkpt>
      <trkpt lat="43.13835" lon="3.10516">
        <ele>57</ele>
        <time>2025-12-29T11:25:17.875Z</time>
      </trkpt>
      <trkpt lat="43.13835" lon="3.10518">
        <ele>57</ele>
        <time>2025-12-29T11:25:18.875Z</time>
      </trkpt>
      <trkpt lat="43.13836" lon="3.10519">
        <ele>57</ele>
        <time>2025-12-29T11:25:19.875Z</time>
      </trkpt>
      <trkpt lat="43.13836" lon="3.10521">
        <ele>57</ele>
        <time>2025-12-29T11:25:20.875Z</time>
      </trkpt>
      <trkpt lat="43.13837" lon="3.10523">
        <ele>56</ele>
        <time>2025-12-29T11:25:21.875Z</time>
      </trkpt>
      <trkpt lat="43.13837" lon="3.10525">
        <ele>56</ele>
        <time>2025-12-29T11:25:22.875Z</time>
      </trkpt>
      <trkpt lat="43.13837" lon="3.10527">
        <ele>56</ele>
        <time>2025-12-29T11:25:23.875Z</time>
      </trkpt>
      <trkpt lat="43.13837" lon="3.10528">
        <ele>56</ele>
        <time>2025-12-29T11:25:24.875Z</time>
      </trkpt>
      <trkpt lat="43.13837" lon="3.10529">
        <ele>55</ele>
        <time>2025-12-29T11:25:25.875Z</time>
      </trkpt>
      <trkpt lat="43.13838" lon="3.10529">
        <ele>55</ele>
        <time>2025-12-29T11:25:26.875Z</time>
      </trkpt>
      <trkpt lat="43.13838" lon="3.10529">
        <ele>55</ele>
        <time>2025-12-29T11:25:27.875Z</time>
      </trkpt>
      <trkpt lat="43.13838" lon="3.10529">
        <ele>55</ele>
        <time>2025-12-29T11:25:28.875Z</time>
      </trkpt>
      <trkpt lat="43.13838" lon="3.10529">
        <ele>55</ele>
        <time>2025-12-29T11:25:29.875Z</time>
      </trkpt>
      <trkpt lat="43.13838" lon="3.10529">
        <ele>55</ele>
        <time>2025-12-29T11:25:30.875Z</time>
      </trkpt>
      <trkpt lat="43.13838" lon="3.10529">
        <ele>55</ele>
        <time>2025-12-29T11:25:31.875Z</time>
      </trkpt>
      <trkpt lat="43.13838" lon="3.10529">
        <ele>56</ele>
        <time>2025-12-29T11:25:32.875Z</time>
      </trkpt>
      <trkpt lat="43.13838" lon="3.1053">
        <ele>56</ele>
        <time>2025-12-29T11:25:33.875Z</time>
      </trkpt>
      <trkpt lat="43.13839" lon="3.10529">
        <ele>56</ele>
        <time>2025-12-29T11:25:34.875Z</time>
      </trkpt>
      <trkpt lat="43.1384" lon="3.1053">
        <ele>56</ele>
        <time>2025-12-29T11:25:35.875Z</time>
      </trkpt>
      <trkpt lat="43.13841" lon="3.1053">
        <ele>56</ele>
        <time>2025-12-29T11:25:36.875Z</time>
      </trkpt>
      <trkpt lat="43.13841" lon="3.10531">
        <ele>56</ele>
        <time>2025-12-29T11:25:37.875Z</time>
      </trkpt>
      <trkpt lat="43.13842" lon="3.10532">
        <ele>55</ele>
        <time>2025-12-29T11:25:38.875Z</time>
      </trkpt>
      <trkpt lat="43.13843" lon="3.10533">
        <ele>55</ele>
        <time>2025-12-29T11:25:39.875Z</time>
      </trkpt>
      <trkpt lat="43.13843" lon="3.10534">
        <ele>55</ele>
        <time>2025-12-29T11:25:40.875Z</time>
      </trkpt>
      <trkpt lat="43.13844" lon="3.10535">
        <ele>55</ele>
        <time>2025-12-29T11:25:41.875Z</time>
      </trkpt>
      <trkpt lat="43.13845" lon="3.10536">
        <ele>54</ele>
        <time>2025-12-29T11:25:42.875Z</time>
      </trkpt>
      <trkpt lat="43.13846" lon="3.10538">
        <ele>54</ele>
        <time>2025-12-29T11:25:43.875Z</time>
      </trkpt>
      <trkpt lat="43.13846" lon="3.10539">
        <ele>54</ele>
        <time>2025-12-29T11:25:44.875Z</time>
      </trkpt>
      <trkpt lat="43.13847" lon="3.10541">
        <ele>53</ele>
        <time>2025-12-29T11:25:45.875Z</time>
      </trkpt>
      <trkpt lat="43.13847" lon="3.10543">
        <ele>53</ele>
        <time>2025-12-29T11:25:46.875Z</time>
      </trkpt>
      <trkpt lat="43.13848" lon="3.10544">
        <ele>52</ele>
        <time>2025-12-29T11:25:47.875Z</time>
      </trkpt>
      <trkpt lat="43.13849" lon="3.10546">
        <ele>52</ele>
        <time>2025-12-29T11:25:48.875Z</time>
      </trkpt>
      <trkpt lat="43.1385" lon="3.10547">
        <ele>52</ele>
        <time>2025-12-29T11:25:49.875Z</time>
      </trkpt>
      <trkpt lat="43.13851" lon="3.10549">
        <ele>52</ele>
        <time>2025-12-29T11:25:50.875Z</time>
      </trkpt>
      <trkpt lat="43.13852" lon="3.10551">
        <ele>52</ele>
        <time>2025-12-29T11:25:51.875Z</time>
      </trkpt>
      <trkpt lat="43.13853" lon="3.10553">
        <ele>52</ele>
        <time>2025-12-29T11:25:52.875Z</time>
      </trkpt>
      <trkpt lat="43.13855" lon="3.10554">
        <ele>52</ele>
        <time>2025-12-29T11:25:53.875Z</time>
      </trkpt>
      <trkpt lat="43.13856" lon="3.10555">
        <ele>52</ele>
        <time>2025-12-29T11:25:54.875Z</time>
      </trkpt>
      <trkpt lat="43.13856" lon="3.10556">
        <ele>52</ele>
        <time>2025-12-29T11:25:55.875Z</time>
      </trkpt>
      <trkpt lat="43.13857" lon="3.10558">
        <ele>52</ele>
        <time>2025-12-29T11:25:56.875Z</time>
      </trkpt>
      <trkpt lat="43.13858" lon="3.10559">
        <ele>52</ele>
        <time>2025-12-29T11:25:57.875Z</time>
      </trkpt>
      <trkpt lat="43.13858" lon="3.10561">
        <ele>52</ele>
        <time>2025-12-29T11:25:58.875Z</time>
      </trkpt>
      <trkpt lat="43.13859" lon="3.10562">
        <ele>53</ele>
        <time>2025-12-29T11:25:59.875Z</time>
      </trkpt>
      <trkpt lat="43.1386" lon="3.10563">
        <ele>53</ele>
        <time>2025-12-29T11:26:00.875Z</time>
      </trkpt>
      <trkpt lat="43.13861" lon="3.10563">
        <ele>53</ele>
        <time>2025-12-29T11:26:01.875Z</time>
      </trkpt>
      <trkpt lat="43.13862" lon="3.10564">
        <ele>53</ele>
        <time>2025-12-29T11:26:02.875Z</time>
      </trkpt>
      <trkpt lat="43.13863" lon="3.10565">
        <ele>53</ele>
        <time>2025-12-29T11:26:03.875Z</time>
      </trkpt>
      <trkpt lat="43.13864" lon="3.10566">
        <ele>53</ele>
        <time>2025-12-29T11:26:04.875Z</time>
      </trkpt>
      <trkpt lat="43.13864" lon="3.10569">
        <ele>54</ele>
        <time>2025-12-29T11:26:05.875Z</time>
      </trkpt>
      <trkpt lat="43.13866" lon="3.1057">
        <ele>54</ele>
        <time>2025-12-29T11:26:06.875Z</time>
      </trkpt>
      <trkpt lat="43.13866" lon="3.10572">
        <ele>54</ele>
        <time>2025-12-29T11:26:07.875Z</time>
      </trkpt>
      <trkpt lat="43.13867" lon="3.10574">
        <ele>54</ele>
        <time>2025-12-29T11:26:08.875Z</time>
      </trkpt>
      <trkpt lat="43.13867" lon="3.10575">
        <ele>54</ele>
        <time>2025-12-29T11:26:09.875Z</time>
      </trkpt>
      <trkpt lat="43.13868" lon="3.10577">
        <ele>54</ele>
        <time>2025-12-29T11:26:10.875Z</time>
      </trkpt>
      <trkpt lat="43.13869" lon="3.10578">
        <ele>54</ele>
        <time>2025-12-29T11:26:11.875Z</time>
      </trkpt>
      <trkpt lat="43.13869" lon="3.1058">
        <ele>54</ele>
        <time>2025-12-29T11:26:12.875Z</time>
      </trkpt>
      <trkpt lat="43.1387" lon="3.10582">
        <ele>54</ele>
        <time>2025-12-29T11:26:13.875Z</time>
      </trkpt>
      <trkpt lat="43.13871" lon="3.10585">
        <ele>54</ele>
        <time>2025-12-29T11:26:14.875Z</time>
      </trkpt>
      <trkpt lat="43.13871" lon="3.10586">
        <ele>54</ele>
        <time>2025-12-29T11:26:15.875Z</time>
      </trkpt>
      <trkpt lat="43.13872" lon="3.10587">
        <ele>54</ele>
        <time>2025-12-29T11:26:16.875Z</time>
      </trkpt>
      <trkpt lat="43.13872" lon="3.10587">
        <ele>54</ele>
        <time>2025-12-29T11:26:17.875Z</time>
      </trkpt>
      <trkpt lat="43.13871" lon="3.10587">
        <ele>54</ele>
        <time>2025-12-29T11:26:18.875Z</time>
      </trkpt>
      <trkpt lat="43.13871" lon="3.10587">
        <ele>54</ele>
        <time>2025-12-29T11:26:19.875Z</time>
      </trkpt>
      <trkpt lat="43.13871" lon="3.10587">
        <ele>54</ele>
        <time>2025-12-29T11:26:20.875Z</time>
      </trkpt>
      <trkpt lat="43.13871" lon="3.10587">
        <ele>54</ele>
        <time>2025-12-29T11:26:21.875Z</time>
      </trkpt>
      <trkpt lat="43.13872" lon="3.10587">
        <ele>54</ele>
        <time>2025-12-29T11:26:22.875Z</time>
      </trkpt>
      <trkpt lat="43.13873" lon="3.10587">
        <ele>54</ele>
        <time>2025-12-29T11:26:23.875Z</time>
      </trkpt>
      <trkpt lat="43.13874" lon="3.10587">
        <ele>54</ele>
        <time>2025-12-29T11:26:24.875Z</time>
      </trkpt>
      <trkpt lat="43.13875" lon="3.10588">
        <ele>54</ele>
        <time>2025-12-29T11:26:25.875Z</time>
      </trkpt>
      <trkpt lat="43.13875" lon="3.10588">
        <ele>53</ele>
        <time>2025-12-29T11:26:26.875Z</time>
      </trkpt>
      <trkpt lat="43.13876" lon="3.10589">
        <ele>53</ele>
        <time>2025-12-29T11:26:27.875Z</time>
      </trkpt>
      <trkpt lat="43.13876" lon="3.1059">
        <ele>53</ele>
        <time>2025-12-29T11:26:28.875Z</time>
      </trkpt>
      <trkpt lat="43.13877" lon="3.10591">
        <ele>52</ele>
        <time>2025-12-29T11:26:29.875Z</time>
      </trkpt>
      <trkpt lat="43.13877" lon="3.10592">
        <ele>52</ele>
        <time>2025-12-29T11:26:30.875Z</time>
      </trkpt>
      <trkpt lat="43.13877" lon="3.10593">
        <ele>52</ele>
        <time>2025-12-29T11:26:31.875Z</time>
      </trkpt>
      <trkpt lat="43.13878" lon="3.10594">
        <ele>51</ele>
        <time>2025-12-29T11:26:32.875Z</time>
      </trkpt>
      <trkpt lat="43.13878" lon="3.10595">
        <ele>51</ele>
        <time>2025-12-29T11:26:33.875Z</time>
      </trkpt>
      <trkpt lat="43.13879" lon="3.10596">
        <ele>51</ele>
        <time>2025-12-29T11:26:34.875Z</time>
      </trkpt>
      <trkpt lat="43.13879" lon="3.10598">
        <ele>51</ele>
        <time>2025-12-29T11:26:35.875Z</time>
      </trkpt>
      <trkpt lat="43.13879" lon="3.10598">
        <ele>51</ele>
        <time>2025-12-29T11:26:36.875Z</time>
      </trkpt>
      <trkpt lat="43.13879" lon="3.106">
        <ele>51</ele>
        <time>2025-12-29T11:26:37.875Z</time>
      </trkpt>
      <trkpt lat="43.13879" lon="3.10601">
        <ele>51</ele>
        <time>2025-12-29T11:26:38.875Z</time>
      </trkpt>
      <trkpt lat="43.13879" lon="3.10603">
        <ele>51</ele>
        <time>2025-12-29T11:26:39.875Z</time>
      </trkpt>
      <trkpt lat="43.1388" lon="3.10605">
        <ele>51</ele>
        <time>2025-12-29T11:26:40.875Z</time>
      </trkpt>
      <trkpt lat="43.1388" lon="3.10608">
        <ele>50</ele>
        <time>2025-12-29T11:26:41.875Z</time>
      </trkpt>
      <trkpt lat="43.13881" lon="3.1061">
        <ele>50</ele>
        <time>2025-12-29T11:26:42.875Z</time>
      </trkpt>
      <trkpt lat="43.13881" lon="3.10612">
        <ele>50</ele>
        <time>2025-12-29T11:26:43.875Z</time>
      </trkpt>
      <trkpt lat="43.13883" lon="3.10614">
        <ele>50</ele>
        <time>2025-12-29T11:26:44.875Z</time>
      </trkpt>
      <trkpt lat="43.13884" lon="3.10615">
        <ele>50</ele>
        <time>2025-12-29T11:26:45.875Z</time>
      </trkpt>
      <trkpt lat="43.13884" lon="3.10617">
        <ele>50</ele>
        <time>2025-12-29T11:26:46.875Z</time>
      </trkpt>
      <trkpt lat="43.13884" lon="3.10619">
        <ele>50</ele>
        <time>2025-12-29T11:26:47.875Z</time>
      </trkpt>
      <trkpt lat="43.13884" lon="3.10621">
        <ele>50</ele>
        <time>2025-12-29T11:26:48.875Z</time>
      </trkpt>
      <trkpt lat="43.13884" lon="3.10623">
        <ele>50</ele>
        <time>2025-12-29T11:26:49.875Z</time>
      </trkpt>
      <trkpt lat="43.13883" lon="3.10625">
        <ele>50</ele>
        <time>2025-12-29T11:26:50.875Z</time>
      </trkpt>
      <trkpt lat="43.13883" lon="3.10628">
        <ele>51</ele>
        <time>2025-12-29T11:26:51.875Z</time>
      </trkpt>
      <trkpt lat="43.13883" lon="3.1063">
        <ele>51</ele>
        <time>2025-12-29T11:26:52.875Z</time>
      </trkpt>
      <trkpt lat="43.13882" lon="3.10632">
        <ele>52</ele>
        <time>2025-12-29T11:26:53.875Z</time>
      </trkpt>
      <trkpt lat="43.13882" lon="3.10633">
        <ele>52</ele>
        <time>2025-12-29T11:26:54.875Z</time>
      </trkpt>
      <trkpt lat="43.13882" lon="3.10634">
        <ele>52</ele>
        <time>2025-12-29T11:26:55.875Z</time>
      </trkpt>
      <trkpt lat="43.13882" lon="3.10635">
        <ele>53</ele>
        <time>2025-12-29T11:26:56.875Z</time>
      </trkpt>
      <trkpt lat="43.13882" lon="3.10635">
        <ele>53</ele>
        <time>2025-12-29T11:26:57.875Z</time>
      </trkpt>
      <trkpt lat="43.13882" lon="3.10635">
        <ele>53</ele>
        <time>2025-12-29T11:26:58.875Z</time>
      </trkpt>
      <trkpt lat="43.13882" lon="3.10636">
        <ele>53</ele>
        <time>2025-12-29T11:26:59.875Z</time>
      </trkpt>
      <trkpt lat="43.13882" lon="3.10636">
        <ele>54</ele>
        <time>2025-12-29T11:27:00.875Z</time>
      </trkpt>
      <trkpt lat="43.13883" lon="3.10637">
        <ele>54</ele>
        <time>2025-12-29T11:27:01.875Z</time>
      </trkpt>
      <trkpt lat="43.13883" lon="3.10637">
        <ele>54</ele>
        <time>2025-12-29T11:27:02.875Z</time>
      </trkpt>
      <trkpt lat="43.13883" lon="3.10638">
        <ele>54</ele>
        <time>2025-12-29T11:27:03.875Z</time>
      </trkpt>
      <trkpt lat="43.13883" lon="3.1064">
        <ele>54</ele>
        <time>2025-12-29T11:27:04.875Z</time>
      </trkpt>
      <trkpt lat="43.13883" lon="3.10641">
        <ele>54</ele>
        <time>2025-12-29T11:27:05.875Z</time>
      </trkpt>
      <trkpt lat="43.13884" lon="3.10643">
        <ele>55</ele>
        <time>2025-12-29T11:27:06.875Z</time>
      </trkpt>
      <trkpt lat="43.13884" lon="3.10645">
        <ele>54</ele>
        <time>2025-12-29T11:27:07.875Z</time>
      </trkpt>
      <trkpt lat="43.13884" lon="3.10647">
        <ele>54</ele>
        <time>2025-12-29T11:27:08.875Z</time>
      </trkpt>
      <trkpt lat="43.13885" lon="3.10649">
        <ele>54</ele>
        <time>2025-12-29T11:27:09.875Z</time>
      </trkpt>
      <trkpt lat="43.13885" lon="3.1065">
        <ele>54</ele>
        <time>2025-12-29T11:27:10.875Z</time>
      </trkpt>
      <trkpt lat="43.13886" lon="3.10652">
        <ele>53</ele>
        <time>2025-12-29T11:27:11.875Z</time>
      </trkpt>
      <trkpt lat="43.13887" lon="3.10653">
        <ele>53</ele>
        <time>2025-12-29T11:27:12.875Z</time>
      </trkpt>
      <trkpt lat="43.13888" lon="3.10655">
        <ele>53</ele>
        <time>2025-12-29T11:27:13.875Z</time>
      </trkpt>
      <trkpt lat="43.13889" lon="3.10656">
        <ele>53</ele>
        <time>2025-12-29T11:27:14.875Z</time>
      </trkpt>
      <trkpt lat="43.13889" lon="3.10657">
        <ele>53</ele>
        <time>2025-12-29T11:27:15.875Z</time>
      </trkpt>
      <trkpt lat="43.1389" lon="3.1066">
        <ele>53</ele>
        <time>2025-12-29T11:27:16.875Z</time>
      </trkpt>
      <trkpt lat="43.1389" lon="3.10662">
        <ele>53</ele>
        <time>2025-12-29T11:27:17.875Z</time>
      </trkpt>
      <trkpt lat="43.13891" lon="3.10664">
        <ele>53</ele>
        <time>2025-12-29T11:27:18.875Z</time>
      </trkpt>
      <trkpt lat="43.13891" lon="3.10666">
        <ele>53</ele>
        <time>2025-12-29T11:27:19.875Z</time>
      </trkpt>
      <trkpt lat="43.13891" lon="3.10669">
        <ele>53</ele>
        <time>2025-12-29T11:27:20.875Z</time>
      </trkpt>
      <trkpt lat="43.13892" lon="3.1067">
        <ele>53</ele>
        <time>2025-12-29T11:27:21.875Z</time>
      </trkpt>
      <trkpt lat="43.13893" lon="3.10671">
        <ele>53</ele>
        <time>2025-12-29T11:27:22.875Z</time>
      </trkpt>
      <trkpt lat="43.13893" lon="3.10672">
        <ele>53</ele>
        <time>2025-12-29T11:27:23.875Z</time>
      </trkpt>
      <trkpt lat="43.13894" lon="3.10673">
        <ele>53</ele>
        <time>2025-12-29T11:27:24.875Z</time>
      </trkpt>
      <trkpt lat="43.13895" lon="3.10675">
        <ele>53</ele>
        <time>2025-12-29T11:27:25.875Z</time>
      </trkpt>
      <trkpt lat="43.13896" lon="3.10676">
        <ele>53</ele>
        <time>2025-12-29T11:27:26.875Z</time>
      </trkpt>
      <trkpt lat="43.13897" lon="3.10678">
        <ele>52</ele>
        <time>2025-12-29T11:27:27.875Z</time>
      </trkpt>
      <trkpt lat="43.13899" lon="3.10679">
        <ele>52</ele>
        <time>2025-12-29T11:27:28.875Z</time>
      </trkpt>
      <trkpt lat="43.139" lon="3.1068">
        <ele>52</ele>
        <time>2025-12-29T11:27:29.875Z</time>
      </trkpt>
      <trkpt lat="43.13901" lon="3.10682">
        <ele>52</ele>
        <time>2025-12-29T11:27:30.875Z</time>
      </trkpt>
      <trkpt lat="43.13902" lon="3.10684">
        <ele>52</ele>
        <time>2025-12-29T11:27:31.875Z</time>
      </trkpt>
      <trkpt lat="43.13902" lon="3.10686">
        <ele>52</ele>
        <time>2025-12-29T11:27:32.875Z</time>
      </trkpt>
      <trkpt lat="43.13902" lon="3.10688">
        <ele>52</ele>
        <time>2025-12-29T11:27:33.875Z</time>
      </trkpt>
      <trkpt lat="43.13903" lon="3.10691">
        <ele>52</ele>
        <time>2025-12-29T11:27:34.875Z</time>
      </trkpt>
      <trkpt lat="43.13903" lon="3.10693">
        <ele>51</ele>
        <time>2025-12-29T11:27:35.875Z</time>
      </trkpt>
      <trkpt lat="43.13903" lon="3.10694">
        <ele>51</ele>
        <time>2025-12-29T11:27:36.875Z</time>
      </trkpt>
      <trkpt lat="43.13904" lon="3.10697">
        <ele>51</ele>
        <time>2025-12-29T11:27:37.875Z</time>
      </trkpt>
      <trkpt lat="43.13904" lon="3.107">
        <ele>51</ele>
        <time>2025-12-29T11:27:38.875Z</time>
      </trkpt>
      <trkpt lat="43.13905" lon="3.10702">
        <ele>51</ele>
        <time>2025-12-29T11:27:39.875Z</time>
      </trkpt>
      <trkpt lat="43.13905" lon="3.10704">
        <ele>51</ele>
        <time>2025-12-29T11:27:40.875Z</time>
      </trkpt>
      <trkpt lat="43.13906" lon="3.10706">
        <ele>50</ele>
        <time>2025-12-29T11:27:41.875Z</time>
      </trkpt>
      <trkpt lat="43.13907" lon="3.10708">
        <ele>50</ele>
        <time>2025-12-29T11:27:42.875Z</time>
      </trkpt>
      <trkpt lat="43.13908" lon="3.10711">
        <ele>50</ele>
        <time>2025-12-29T11:27:43.875Z</time>
      </trkpt>
      <trkpt lat="43.13909" lon="3.10713">
        <ele>50</ele>
        <time>2025-12-29T11:27:44.875Z</time>
      </trkpt>
      <trkpt lat="43.13909" lon="3.10715">
        <ele>49</ele>
        <time>2025-12-29T11:27:45.875Z</time>
      </trkpt>
      <trkpt lat="43.13909" lon="3.10718">
        <ele>49</ele>
        <time>2025-12-29T11:27:46.875Z</time>
      </trkpt>
      <trkpt lat="43.13909" lon="3.1072">
        <ele>49</ele>
        <time>2025-12-29T11:27:47.875Z</time>
      </trkpt>
      <trkpt lat="43.1391" lon="3.10721">
        <ele>49</ele>
        <time>2025-12-29T11:27:48.875Z</time>
      </trkpt>
      <trkpt lat="43.13911" lon="3.10723">
        <ele>49</ele>
        <time>2025-12-29T11:27:49.875Z</time>
      </trkpt>
      <trkpt lat="43.13912" lon="3.10724">
        <ele>49</ele>
        <time>2025-12-29T11:27:50.875Z</time>
      </trkpt>
      <trkpt lat="43.13914" lon="3.10725">
        <ele>49</ele>
        <time>2025-12-29T11:27:51.875Z</time>
      </trkpt>
      <trkpt lat="43.13915" lon="3.10727">
        <ele>49</ele>
        <time>2025-12-29T11:27:52.875Z</time>
      </trkpt>
      <trkpt lat="43.13916" lon="3.10729">
        <ele>50</ele>
        <time>2025-12-29T11:27:53.875Z</time>
      </trkpt>
      <trkpt lat="43.13917" lon="3.10732">
        <ele>50</ele>
        <time>2025-12-29T11:27:54.875Z</time>
      </trkpt>
      <trkpt lat="43.13918" lon="3.10733">
        <ele>49</ele>
        <time>2025-12-29T11:27:55.875Z</time>
      </trkpt>
      <trkpt lat="43.13919" lon="3.10735">
        <ele>49</ele>
        <time>2025-12-29T11:27:56.875Z</time>
      </trkpt>
      <trkpt lat="43.13921" lon="3.10736">
        <ele>49</ele>
        <time>2025-12-29T11:27:57.875Z</time>
      </trkpt>
      <trkpt lat="43.13922" lon="3.10738">
        <ele>49</ele>
        <time>2025-12-29T11:27:58.875Z</time>
      </trkpt>
      <trkpt lat="43.13921" lon="3.1074">
        <ele>49</ele>
        <time>2025-12-29T11:27:59.875Z</time>
      </trkpt>
      <trkpt lat="43.13919" lon="3.10742">
        <ele>49</ele>
        <time>2025-12-29T11:28:00.875Z</time>
      </trkpt>
      <trkpt lat="43.13918" lon="3.10744">
        <ele>49</ele>
        <time>2025-12-29T11:28:01.875Z</time>
      </trkpt>
      <trkpt lat="43.13918" lon="3.10747">
        <ele>49</ele>
        <time>2025-12-29T11:28:02.875Z</time>
      </trkpt>
      <trkpt lat="43.13918" lon="3.10751">
        <ele>49</ele>
        <time>2025-12-29T11:28:03.875Z</time>
      </trkpt>
      <trkpt lat="43.13918" lon="3.10753">
        <ele>49</ele>
        <time>2025-12-29T11:28:04.875Z</time>
      </trkpt>
      <trkpt lat="43.13917" lon="3.10756">
        <ele>48</ele>
        <time>2025-12-29T11:28:05.875Z</time>
      </trkpt>
      <trkpt lat="43.13917" lon="3.10758">
        <ele>49</ele>
        <time>2025-12-29T11:28:06.875Z</time>
      </trkpt>
      <trkpt lat="43.13916" lon="3.1076">
        <ele>49</ele>
        <time>2025-12-29T11:28:07.875Z</time>
      </trkpt>
      <trkpt lat="43.13916" lon="3.10763">
        <ele>49</ele>
        <time>2025-12-29T11:28:08.875Z</time>
      </trkpt>
      <trkpt lat="43.13915" lon="3.10768">
        <ele>49</ele>
        <time>2025-12-29T11:28:09.875Z</time>
      </trkpt>
      <trkpt lat="43.13916" lon="3.10772">
        <ele>49</ele>
        <time>2025-12-29T11:28:10.875Z</time>
      </trkpt>
      <trkpt lat="43.13916" lon="3.10774">
        <ele>49</ele>
        <time>2025-12-29T11:28:11.875Z</time>
      </trkpt>
      <trkpt lat="43.13917" lon="3.10776">
        <ele>49</ele>
        <time>2025-12-29T11:28:12.875Z</time>
      </trkpt>
      <trkpt lat="43.13918" lon="3.10778">
        <ele>50</ele>
        <time>2025-12-29T11:28:13.875Z</time>
      </trkpt>
      <trkpt lat="43.1392" lon="3.10779">
        <ele>50</ele>
        <time>2025-12-29T11:28:14.875Z</time>
      </trkpt>
      <trkpt lat="43.13921" lon="3.10781">
        <ele>49</ele>
        <time>2025-12-29T11:28:15.875Z</time>
      </trkpt>
      <trkpt lat="43.13922" lon="3.10783">
        <ele>49</ele>
        <time>2025-12-29T11:28:16.875Z</time>
      </trkpt>
      <trkpt lat="43.13923" lon="3.10785">
        <ele>49</ele>
        <time>2025-12-29T11:28:17.875Z</time>
      </trkpt>
      <trkpt lat="43.13925" lon="3.10785">
        <ele>49</ele>
        <time>2025-12-29T11:28:18.875Z</time>
      </trkpt>
      <trkpt lat="43.13926" lon="3.10785">
        <ele>49</ele>
        <time>2025-12-29T11:28:19.875Z</time>
      </trkpt>
      <trkpt lat="43.13927" lon="3.10786">
        <ele>48</ele>
        <time>2025-12-29T11:28:20.875Z</time>
      </trkpt>
      <trkpt lat="43.13929" lon="3.10787">
        <ele>48</ele>
        <time>2025-12-29T11:28:21.875Z</time>
      </trkpt>
      <trkpt lat="43.1393" lon="3.10789">
        <ele>48</ele>
        <time>2025-12-29T11:28:22.875Z</time>
      </trkpt>
      <trkpt lat="43.13932" lon="3.1079">
        <ele>48</ele>
        <time>2025-12-29T11:28:23.875Z</time>
      </trkpt>
      <trkpt lat="43.13933" lon="3.10791">
        <ele>48</ele>
        <time>2025-12-29T11:28:24.875Z</time>
      </trkpt>
      <trkpt lat="43.13935" lon="3.10792">
        <ele>48</ele>
        <time>2025-12-29T11:28:25.875Z</time>
      </trkpt>
      <trkpt lat="43.13936" lon="3.10793">
        <ele>47</ele>
        <time>2025-12-29T11:28:26.875Z</time>
      </trkpt>
      <trkpt lat="43.13937" lon="3.10794">
        <ele>47</ele>
        <time>2025-12-29T11:28:27.875Z</time>
      </trkpt>
      <trkpt lat="43.13938" lon="3.10796">
        <ele>47</ele>
        <time>2025-12-29T11:28:28.875Z</time>
      </trkpt>
      <trkpt lat="43.13939" lon="3.10796">
        <ele>47</ele>
        <time>2025-12-29T11:28:29.875Z</time>
      </trkpt>
      <trkpt lat="43.1394" lon="3.10797">
        <ele>47</ele>
        <time>2025-12-29T11:28:30.875Z</time>
      </trkpt>
      <trkpt lat="43.13941" lon="3.108">
        <ele>47</ele>
        <time>2025-12-29T11:28:31.875Z</time>
      </trkpt>
      <trkpt lat="43.13941" lon="3.10802">
        <ele>47</ele>
        <time>2025-12-29T11:28:32.875Z</time>
      </trkpt>
      <trkpt lat="43.13942" lon="3.10803">
        <ele>47</ele>
        <time>2025-12-29T11:28:33.875Z</time>
      </trkpt>
      <trkpt lat="43.13943" lon="3.10804">
        <ele>47</ele>
        <time>2025-12-29T11:28:34.875Z</time>
      </trkpt>
      <trkpt lat="43.13943" lon="3.10806">
        <ele>46</ele>
        <time>2025-12-29T11:28:35.875Z</time>
      </trkpt>
      <trkpt lat="43.13944" lon="3.10807">
        <ele>46</ele>
        <time>2025-12-29T11:28:36.875Z</time>
      </trkpt>
      <trkpt lat="43.13945" lon="3.10809">
        <ele>46</ele>
        <time>2025-12-29T11:28:37.875Z</time>
      </trkpt>
      <trkpt lat="43.13945" lon="3.1081">
        <ele>45</ele>
        <time>2025-12-29T11:28:38.875Z</time>
      </trkpt>
      <trkpt lat="43.13945" lon="3.10811">
        <ele>45</ele>
        <time>2025-12-29T11:28:39.875Z</time>
      </trkpt>
      <trkpt lat="43.13946" lon="3.10813">
        <ele>45</ele>
        <time>2025-12-29T11:28:40.875Z</time>
      </trkpt>
      <trkpt lat="43.13946" lon="3.10814">
        <ele>45</ele>
        <time>2025-12-29T11:28:41.875Z</time>
      </trkpt>
      <trkpt lat="43.13947" lon="3.10816">
        <ele>44</ele>
        <time>2025-12-29T11:28:42.875Z</time>
      </trkpt>
      <trkpt lat="43.13947" lon="3.10818">
        <ele>44</ele>
        <time>2025-12-29T11:28:43.875Z</time>
      </trkpt>
      <trkpt lat="43.13948" lon="3.1082">
        <ele>44</ele>
        <time>2025-12-29T11:28:44.875Z</time>
      </trkpt>
      <trkpt lat="43.13949" lon="3.10821">
        <ele>45</ele>
        <time>2025-12-29T11:28:45.875Z</time>
      </trkpt>
      <trkpt lat="43.13949" lon="3.10822">
        <ele>44</ele>
        <time>2025-12-29T11:28:46.875Z</time>
      </trkpt>
      <trkpt lat="43.1395" lon="3.10824">
        <ele>44</ele>
        <time>2025-12-29T11:28:47.875Z</time>
      </trkpt>
      <trkpt lat="43.1395" lon="3.10825">
        <ele>45</ele>
        <time>2025-12-29T11:28:48.875Z</time>
      </trkpt>
      <trkpt lat="43.13951" lon="3.10826">
        <ele>45</ele>
        <time>2025-12-29T11:28:49.875Z</time>
      </trkpt>
      <trkpt lat="43.13952" lon="3.10827">
        <ele>45</ele>
        <time>2025-12-29T11:28:50.875Z</time>
      </trkpt>
      <trkpt lat="43.13952" lon="3.10828">
        <ele>46</ele>
        <time>2025-12-29T11:28:51.875Z</time>
      </trkpt>
      <trkpt lat="43.13953" lon="3.10829">
        <ele>46</ele>
        <time>2025-12-29T11:28:52.875Z</time>
      </trkpt>
      <trkpt lat="43.13953" lon="3.1083">
        <ele>46</ele>
        <time>2025-12-29T11:28:53.875Z</time>
      </trkpt>
      <trkpt lat="43.13953" lon="3.10832">
        <ele>46</ele>
        <time>2025-12-29T11:28:54.875Z</time>
      </trkpt>
      <trkpt lat="43.13953" lon="3.10834">
        <ele>46</ele>
        <time>2025-12-29T11:28:55.875Z</time>
      </trkpt>
      <trkpt lat="43.13953" lon="3.10836">
        <ele>47</ele>
        <time>2025-12-29T11:28:56.875Z</time>
      </trkpt>
      <trkpt lat="43.13953" lon="3.10837">
        <ele>47</ele>
        <time>2025-12-29T11:28:57.875Z</time>
      </trkpt>
      <trkpt lat="43.13954" lon="3.10839">
        <ele>47</ele>
        <time>2025-12-29T11:28:58.875Z</time>
      </trkpt>
      <trkpt lat="43.13954" lon="3.10841">
        <ele>47</ele>
        <time>2025-12-29T11:28:59.875Z</time>
      </trkpt>
      <trkpt lat="43.13954" lon="3.10844">
        <ele>47</ele>
        <time>2025-12-29T11:29:00.875Z</time>
      </trkpt>
      <trkpt lat="43.13954" lon="3.10847">
        <ele>46</ele>
        <time>2025-12-29T11:29:01.875Z</time>
      </trkpt>
      <trkpt lat="43.13955" lon="3.1085">
        <ele>46</ele>
        <time>2025-12-29T11:29:02.875Z</time>
      </trkpt>
      <trkpt lat="43.13956" lon="3.10852">
        <ele>46</ele>
        <time>2025-12-29T11:29:03.875Z</time>
      </trkpt>
      <trkpt lat="43.13957" lon="3.10855">
        <ele>46</ele>
        <time>2025-12-29T11:29:04.875Z</time>
      </trkpt>
      <trkpt lat="43.13957" lon="3.10856">
        <ele>46</ele>
        <time>2025-12-29T11:29:05.875Z</time>
      </trkpt>
      <trkpt lat="43.13959" lon="3.10858">
        <ele>46</ele>
        <time>2025-12-29T11:29:06.875Z</time>
      </trkpt>
      <trkpt lat="43.1396" lon="3.10859">
        <ele>45</ele>
        <time>2025-12-29T11:29:07.875Z</time>
      </trkpt>
      <trkpt lat="43.13961" lon="3.1086">
        <ele>45</ele>
        <time>2025-12-29T11:29:08.875Z</time>
      </trkpt>
      <trkpt lat="43.13962" lon="3.10862">
        <ele>45</ele>
        <time>2025-12-29T11:29:09.875Z</time>
      </trkpt>
      <trkpt lat="43.13964" lon="3.10863">
        <ele>46</ele>
        <time>2025-12-29T11:29:10.875Z</time>
      </trkpt>
      <trkpt lat="43.13965" lon="3.10863">
        <ele>46</ele>
        <time>2025-12-29T11:29:11.875Z</time>
      </trkpt>
      <trkpt lat="43.13966" lon="3.10865">
        <ele>46</ele>
        <time>2025-12-29T11:29:12.875Z</time>
      </trkpt>
      <trkpt lat="43.13966" lon="3.10867">
        <ele>46</ele>
        <time>2025-12-29T11:29:13.875Z</time>
      </trkpt>
      <trkpt lat="43.13967" lon="3.10869">
        <ele>46</ele>
        <time>2025-12-29T11:29:14.875Z</time>
      </trkpt>
      <trkpt lat="43.13967" lon="3.10871">
        <ele>46</ele>
        <time>2025-12-29T11:29:15.875Z</time>
      </trkpt>
      <trkpt lat="43.13968" lon="3.10873">
        <ele>46</ele>
        <time>2025-12-29T11:29:16.875Z</time>
      </trkpt>
      <trkpt lat="43.13969" lon="3.10875">
        <ele>46</ele>
        <time>2025-12-29T11:29:17.875Z</time>
      </trkpt>
      <trkpt lat="43.1397" lon="3.10876">
        <ele>46</ele>
        <time>2025-12-29T11:29:18.875Z</time>
      </trkpt>
      <trkpt lat="43.13971" lon="3.10877">
        <ele>46</ele>
        <time>2025-12-29T11:29:19.875Z</time>
      </trkpt>
      <trkpt lat="43.13971" lon="3.10879">
        <ele>46</ele>
        <time>2025-12-29T11:29:20.875Z</time>
      </trkpt>
      <trkpt lat="43.13972" lon="3.1088">
        <ele>46</ele>
        <time>2025-12-29T11:29:21.875Z</time>
      </trkpt>
      <trkpt lat="43.13973" lon="3.10881">
        <ele>46</ele>
        <time>2025-12-29T11:29:22.875Z</time>
      </trkpt>
      <trkpt lat="43.13974" lon="3.10883">
        <ele>46</ele>
        <time>2025-12-29T11:29:23.875Z</time>
      </trkpt>
      <trkpt lat="43.13974" lon="3.10885">
        <ele>46</ele>
        <time>2025-12-29T11:29:24.875Z</time>
      </trkpt>
      <trkpt lat="43.13975" lon="3.10885">
        <ele>46</ele>
        <time>2025-12-29T11:29:25.875Z</time>
      </trkpt>
      <trkpt lat="43.13976" lon="3.10885">
        <ele>46</ele>
        <time>2025-12-29T11:29:26.875Z</time>
      </trkpt>
      <trkpt lat="43.13977" lon="3.10886">
        <ele>46</ele>
        <time>2025-12-29T11:29:27.875Z</time>
      </trkpt>
      <trkpt lat="43.13977" lon="3.10887">
        <ele>46</ele>
        <time>2025-12-29T11:29:28.875Z</time>
      </trkpt>
      <trkpt lat="43.13978" lon="3.10889">
        <ele>46</ele>
        <time>2025-12-29T11:29:29.875Z</time>
      </trkpt>
      <trkpt lat="43.13979" lon="3.10891">
        <ele>46</ele>
        <time>2025-12-29T11:29:30.875Z</time>
      </trkpt>
      <trkpt lat="43.1398" lon="3.10893">
        <ele>46</ele>
        <time>2025-12-29T11:29:31.875Z</time>
      </trkpt>
      <trkpt lat="43.1398" lon="3.10897">
        <ele>45</ele>
        <time>2025-12-29T11:29:32.875Z</time>
      </trkpt>
      <trkpt lat="43.13979" lon="3.10899">
        <ele>45</ele>
        <time>2025-12-29T11:29:33.875Z</time>
      </trkpt>
      <trkpt lat="43.1398" lon="3.10902">
        <ele>45</ele>
        <time>2025-12-29T11:29:34.875Z</time>
      </trkpt>
      <trkpt lat="43.1398" lon="3.10903">
        <ele>45</ele>
        <time>2025-12-29T11:29:35.875Z</time>
      </trkpt>
      <trkpt lat="43.13981" lon="3.10905">
        <ele>44</ele>
        <time>2025-12-29T11:29:36.875Z</time>
      </trkpt>
      <trkpt lat="43.13982" lon="3.10907">
        <ele>44</ele>
        <time>2025-12-29T11:29:37.875Z</time>
      </trkpt>
      <trkpt lat="43.13984" lon="3.10908">
        <ele>45</ele>
        <time>2025-12-29T11:29:38.875Z</time>
      </trkpt>
      <trkpt lat="43.13985" lon="3.10909">
        <ele>45</ele>
        <time>2025-12-29T11:29:39.875Z</time>
      </trkpt>
      <trkpt lat="43.13987" lon="3.1091">
        <ele>45</ele>
        <time>2025-12-29T11:29:40.875Z</time>
      </trkpt>
      <trkpt lat="43.13988" lon="3.10911">
        <ele>45</ele>
        <time>2025-12-29T11:29:41.875Z</time>
      </trkpt>
      <trkpt lat="43.1399" lon="3.10911">
        <ele>45</ele>
        <time>2025-12-29T11:29:42.875Z</time>
      </trkpt>
      <trkpt lat="43.13991" lon="3.10912">
        <ele>45</ele>
        <time>2025-12-29T11:29:43.875Z</time>
      </trkpt>
      <trkpt lat="43.13993" lon="3.10912">
        <ele>45</ele>
        <time>2025-12-29T11:29:44.875Z</time>
      </trkpt>
      <trkpt lat="43.13994" lon="3.10912">
        <ele>45</ele>
        <time>2025-12-29T11:29:45.875Z</time>
      </trkpt>
      <trkpt lat="43.13995" lon="3.10912">
        <ele>45</ele>
        <time>2025-12-29T11:29:46.875Z</time>
      </trkpt>
      <trkpt lat="43.13996" lon="3.10912">
        <ele>45</ele>
        <time>2025-12-29T11:29:47.875Z</time>
      </trkpt>
      <trkpt lat="43.13998" lon="3.10913">
        <ele>45</ele>
        <time>2025-12-29T11:29:48.875Z</time>
      </trkpt>
      <trkpt lat="43.13999" lon="3.10913">
        <ele>45</ele>
        <time>2025-12-29T11:29:49.875Z</time>
      </trkpt>
      <trkpt lat="43.14" lon="3.10913">
        <ele>45</ele>
        <time>2025-12-29T11:29:50.875Z</time>
      </trkpt>
      <trkpt lat="43.14001" lon="3.10913">
        <ele>45</ele>
        <time>2025-12-29T11:29:51.875Z</time>
      </trkpt>
      <trkpt lat="43.14002" lon="3.10913">
        <ele>45</ele>
        <time>2025-12-29T11:29:52.875Z</time>
      </trkpt>
      <trkpt lat="43.14003" lon="3.10914">
        <ele>45</ele>
        <time>2025-12-29T11:29:53.875Z</time>
      </trkpt>
      <trkpt lat="43.14005" lon="3.10914">
        <ele>45</ele>
        <time>2025-12-29T11:29:54.875Z</time>
      </trkpt>
      <trkpt lat="43.14007" lon="3.10914">
        <ele>45</ele>
        <time>2025-12-29T11:29:55.875Z</time>
      </trkpt>
      <trkpt lat="43.14009" lon="3.10915">
        <ele>45</ele>
        <time>2025-12-29T11:29:56.875Z</time>
      </trkpt>
      <trkpt lat="43.1401" lon="3.10915">
        <ele>45</ele>
        <time>2025-12-29T11:29:57.875Z</time>
      </trkpt>
      <trkpt lat="43.14012" lon="3.10916">
        <ele>45</ele>
        <time>2025-12-29T11:29:58.875Z</time>
      </trkpt>
      <trkpt lat="43.14013" lon="3.10916">
        <ele>45</ele>
        <time>2025-12-29T11:29:59.875Z</time>
      </trkpt>
      <trkpt lat="43.14015" lon="3.10917">
        <ele>45</ele>
        <time>2025-12-29T11:30:00.875Z</time>
      </trkpt>
      <trkpt lat="43.14017" lon="3.10918">
        <ele>45</ele>
        <time>2025-12-29T11:30:01.875Z</time>
      </trkpt>
      <trkpt lat="43.14019" lon="3.10918">
        <ele>44</ele>
        <time>2025-12-29T11:30:02.875Z</time>
      </trkpt>
      <trkpt lat="43.14021" lon="3.10919">
        <ele>44</ele>
        <time>2025-12-29T11:30:03.875Z</time>
      </trkpt>
      <trkpt lat="43.14023" lon="3.10919">
        <ele>44</ele>
        <time>2025-12-29T11:30:04.875Z</time>
      </trkpt>
      <trkpt lat="43.14024" lon="3.10919">
        <ele>44</ele>
        <time>2025-12-29T11:30:05.875Z</time>
      </trkpt>
      <trkpt lat="43.14025" lon="3.10919">
        <ele>43</ele>
        <time>2025-12-29T11:30:06.875Z</time>
      </trkpt>
      <trkpt lat="43.14026" lon="3.10919">
        <ele>43</ele>
        <time>2025-12-29T11:30:07.875Z</time>
      </trkpt>
      <trkpt lat="43.14027" lon="3.10919">
        <ele>43</ele>
        <time>2025-12-29T11:30:08.875Z</time>
      </trkpt>
      <trkpt lat="43.14029" lon="3.10919">
        <ele>43</ele>
        <time>2025-12-29T11:30:09.875Z</time>
      </trkpt>
      <trkpt lat="43.1403" lon="3.10919">
        <ele>42</ele>
        <time>2025-12-29T11:30:10.875Z</time>
      </trkpt>
      <trkpt lat="43.14032" lon="3.1092">
        <ele>42</ele>
        <time>2025-12-29T11:30:11.875Z</time>
      </trkpt>
      <trkpt lat="43.14033" lon="3.1092">
        <ele>42</ele>
        <time>2025-12-29T11:30:12.875Z</time>
      </trkpt>
      <trkpt lat="43.14034" lon="3.10921">
        <ele>42</ele>
        <time>2025-12-29T11:30:13.875Z</time>
      </trkpt>
      <trkpt lat="43.14035" lon="3.10921">
        <ele>41</ele>
        <time>2025-12-29T11:30:14.875Z</time>
      </trkpt>
      <trkpt lat="43.14037" lon="3.10921">
        <ele>41</ele>
        <time>2025-12-29T11:30:15.875Z</time>
      </trkpt>
      <trkpt lat="43.14038" lon="3.10921">
        <ele>41</ele>
        <time>2025-12-29T11:30:16.875Z</time>
      </trkpt>
      <trkpt lat="43.14039" lon="3.1092">
        <ele>41</ele>
        <time>2025-12-29T11:30:17.875Z</time>
      </trkpt>
      <trkpt lat="43.14041" lon="3.1092">
        <ele>41</ele>
        <time>2025-12-29T11:30:18.875Z</time>
      </trkpt>
      <trkpt lat="43.14042" lon="3.1092">
        <ele>41</ele>
        <time>2025-12-29T11:30:19.875Z</time>
      </trkpt>
      <trkpt lat="43.14044" lon="3.10919">
        <ele>41</ele>
        <time>2025-12-29T11:30:20.875Z</time>
      </trkpt>
      <trkpt lat="43.14045" lon="3.10919">
        <ele>41</ele>
        <time>2025-12-29T11:30:21.875Z</time>
      </trkpt>
      <trkpt lat="43.14046" lon="3.10918">
        <ele>41</ele>
        <time>2025-12-29T11:30:22.875Z</time>
      </trkpt>
      <trkpt lat="43.14048" lon="3.10917">
        <ele>41</ele>
        <time>2025-12-29T11:30:23.875Z</time>
      </trkpt>
      <trkpt lat="43.14049" lon="3.10917">
        <ele>41</ele>
        <time>2025-12-29T11:30:24.875Z</time>
      </trkpt>
      <trkpt lat="43.14051" lon="3.10916">
        <ele>41</ele>
        <time>2025-12-29T11:30:25.875Z</time>
      </trkpt>
      <trkpt lat="43.14052" lon="3.10915">
        <ele>41</ele>
        <time>2025-12-29T11:30:26.875Z</time>
      </trkpt>
      <trkpt lat="43.14054" lon="3.10915">
        <ele>41</ele>
        <time>2025-12-29T11:30:27.875Z</time>
      </trkpt>
      <trkpt lat="43.14055" lon="3.10914">
        <ele>41</ele>
        <time>2025-12-29T11:30:28.875Z</time>
      </trkpt>
      <trkpt lat="43.14056" lon="3.10913">
        <ele>41</ele>
        <time>2025-12-29T11:30:29.875Z</time>
      </trkpt>
      <trkpt lat="43.14057" lon="3.10912">
        <ele>41</ele>
        <time>2025-12-29T11:30:30.875Z</time>
      </trkpt>
      <trkpt lat="43.14059" lon="3.10911">
        <ele>41</ele>
        <time>2025-12-29T11:30:31.875Z</time>
      </trkpt>
      <trkpt lat="43.1406" lon="3.10911">
        <ele>41</ele>
        <time>2025-12-29T11:30:32.875Z</time>
      </trkpt>
      <trkpt lat="43.14061" lon="3.1091">
        <ele>41</ele>
        <time>2025-12-29T11:30:33.875Z</time>
      </trkpt>
      <trkpt lat="43.14063" lon="3.10909">
        <ele>41</ele>
        <time>2025-12-29T11:30:34.875Z</time>
      </trkpt>
      <trkpt lat="43.14064" lon="3.10908">
        <ele>41</ele>
        <time>2025-12-29T11:30:35.875Z</time>
      </trkpt>
      <trkpt lat="43.14066" lon="3.10907">
        <ele>41</ele>
        <time>2025-12-29T11:30:36.875Z</time>
      </trkpt>
      <trkpt lat="43.14067" lon="3.10906">
        <ele>41</ele>
        <time>2025-12-29T11:30:37.875Z</time>
      </trkpt>
      <trkpt lat="43.14067" lon="3.10906">
        <ele>41</ele>
        <time>2025-12-29T11:30:38.875Z</time>
      </trkpt>
      <trkpt lat="43.14068" lon="3.10905">
        <ele>41</ele>
        <time>2025-12-29T11:30:39.875Z</time>
      </trkpt>
      <trkpt lat="43.14069" lon="3.10904">
        <ele>41</ele>
        <time>2025-12-29T11:30:40.875Z</time>
      </trkpt>
      <trkpt lat="43.14069" lon="3.10904">
        <ele>41</ele>
        <time>2025-12-29T11:30:41.875Z</time>
      </trkpt>
      <trkpt lat="43.14069" lon="3.10903">
        <ele>40</ele>
        <time>2025-12-29T11:30:42.875Z</time>
      </trkpt>
      <trkpt lat="43.1407" lon="3.10902">
        <ele>40</ele>
        <time>2025-12-29T11:30:43.875Z</time>
      </trkpt>
      <trkpt lat="43.14071" lon="3.10902">
        <ele>40</ele>
        <time>2025-12-29T11:30:44.875Z</time>
      </trkpt>
      <trkpt lat="43.14072" lon="3.10902">
        <ele>40</ele>
        <time>2025-12-29T11:30:45.875Z</time>
      </trkpt>
      <trkpt lat="43.14073" lon="3.10902">
        <ele>40</ele>
        <time>2025-12-29T11:30:46.875Z</time>
      </trkpt>
      <trkpt lat="43.14074" lon="3.10903">
        <ele>40</ele>
        <time>2025-12-29T11:30:47.875Z</time>
      </trkpt>
      <trkpt lat="43.14076" lon="3.10903">
        <ele>40</ele>
        <time>2025-12-29T11:30:48.875Z</time>
      </trkpt>
      <trkpt lat="43.14077" lon="3.10903">
        <ele>40</ele>
        <time>2025-12-29T11:30:49.875Z</time>
      </trkpt>
      <trkpt lat="43.14078" lon="3.10903">
        <ele>40</ele>
        <time>2025-12-29T11:30:50.875Z</time>
      </trkpt>
      <trkpt lat="43.14079" lon="3.10904">
        <ele>40</ele>
        <time>2025-12-29T11:30:51.875Z</time>
      </trkpt>
      <trkpt lat="43.1408" lon="3.10905">
        <ele>40</ele>
        <time>2025-12-29T11:30:52.875Z</time>
      </trkpt>
      <trkpt lat="43.14081" lon="3.10906">
        <ele>40</ele>
        <time>2025-12-29T11:30:53.875Z</time>
      </trkpt>
      <trkpt lat="43.14082" lon="3.10907">
        <ele>40</ele>
        <time>2025-12-29T11:30:54.875Z</time>
      </trkpt>
      <trkpt lat="43.14083" lon="3.10908">
        <ele>40</ele>
        <time>2025-12-29T11:30:55.875Z</time>
      </trkpt>
      <trkpt lat="43.14084" lon="3.1091">
        <ele>40</ele>
        <time>2025-12-29T11:30:56.876Z</time>
      </trkpt>
      <trkpt lat="43.14085" lon="3.10911">
        <ele>40</ele>
        <time>2025-12-29T11:30:57.875Z</time>
      </trkpt>
      <trkpt lat="43.14086" lon="3.10914">
        <ele>40</ele>
        <time>2025-12-29T11:30:58.875Z</time>
      </trkpt>
      <trkpt lat="43.14086" lon="3.10915">
        <ele>40</ele>
        <time>2025-12-29T11:30:59.875Z</time>
      </trkpt>
      <trkpt lat="43.14086" lon="3.10918">
        <ele>40</ele>
        <time>2025-12-29T11:31:00.875Z</time>
      </trkpt>
      <trkpt lat="43.14086" lon="3.10921">
        <ele>40</ele>
        <time>2025-12-29T11:31:01.875Z</time>
      </trkpt>
      <trkpt lat="43.14085" lon="3.10923">
        <ele>40</ele>
        <time>2025-12-29T11:31:02.875Z</time>
      </trkpt>
      <trkpt lat="43.14086" lon="3.10925">
        <ele>40</ele>
        <time>2025-12-29T11:31:03.875Z</time>
      </trkpt>
      <trkpt lat="43.14085" lon="3.10926">
        <ele>40</ele>
        <time>2025-12-29T11:31:04.875Z</time>
      </trkpt>
      <trkpt lat="43.14085" lon="3.10927">
        <ele>41</ele>
        <time>2025-12-29T11:31:05.875Z</time>
      </trkpt>
      <trkpt lat="43.14085" lon="3.10929">
        <ele>41</ele>
        <time>2025-12-29T11:31:06.875Z</time>
      </trkpt>
      <trkpt lat="43.14084" lon="3.1093">
        <ele>42</ele>
        <time>2025-12-29T11:31:07.875Z</time>
      </trkpt>
      <trkpt lat="43.14084" lon="3.10932">
        <ele>42</ele>
        <time>2025-12-29T11:31:08.875Z</time>
      </trkpt>
      <trkpt lat="43.14084" lon="3.10933">
        <ele>42</ele>
        <time>2025-12-29T11:31:09.875Z</time>
      </trkpt>
      <trkpt lat="43.14084" lon="3.10935">
        <ele>42</ele>
        <time>2025-12-29T11:31:10.875Z</time>
      </trkpt>
      <trkpt lat="43.14083" lon="3.10936">
        <ele>43</ele>
        <time>2025-12-29T11:31:11.875Z</time>
      </trkpt>
      <trkpt lat="43.14083" lon="3.10938">
        <ele>43</ele>
        <time>2025-12-29T11:31:12.875Z</time>
      </trkpt>
      <trkpt lat="43.14083" lon="3.10939">
        <ele>43</ele>
        <time>2025-12-29T11:31:13.875Z</time>
      </trkpt>
      <trkpt lat="43.14082" lon="3.10941">
        <ele>43</ele>
        <time>2025-12-29T11:31:14.875Z</time>
      </trkpt>
      <trkpt lat="43.14082" lon="3.10943">
        <ele>43</ele>
        <time>2025-12-29T11:31:15.875Z</time>
      </trkpt>
      <trkpt lat="43.14081" lon="3.10944">
        <ele>43</ele>
        <time>2025-12-29T11:31:16.875Z</time>
      </trkpt>
      <trkpt lat="43.14081" lon="3.10946">
        <ele>43</ele>
        <time>2025-12-29T11:31:17.875Z</time>
      </trkpt>
      <trkpt lat="43.14081" lon="3.10948">
        <ele>43</ele>
        <time>2025-12-29T11:31:18.875Z</time>
      </trkpt>
      <trkpt lat="43.14081" lon="3.1095">
        <ele>43</ele>
        <time>2025-12-29T11:31:19.875Z</time>
      </trkpt>
      <trkpt lat="43.14081" lon="3.10952">
        <ele>43</ele>
        <time>2025-12-29T11:31:20.875Z</time>
      </trkpt>
      <trkpt lat="43.14082" lon="3.10953">
        <ele>43</ele>
        <time>2025-12-29T11:31:21.875Z</time>
      </trkpt>
      <trkpt lat="43.14082" lon="3.10955">
        <ele>42</ele>
        <time>2025-12-29T11:31:22.875Z</time>
      </trkpt>
      <trkpt lat="43.14082" lon="3.10957">
        <ele>42</ele>
        <time>2025-12-29T11:31:23.875Z</time>
      </trkpt>
      <trkpt lat="43.14082" lon="3.10958">
        <ele>42</ele>
        <time>2025-12-29T11:31:24.875Z</time>
      </trkpt>
      <trkpt lat="43.14081" lon="3.1096">
        <ele>42</ele>
        <time>2025-12-29T11:31:25.875Z</time>
      </trkpt>
      <trkpt lat="43.14081" lon="3.10961">
        <ele>42</ele>
        <time>2025-12-29T11:31:26.875Z</time>
      </trkpt>
      <trkpt lat="43.14081" lon="3.10963">
        <ele>42</ele>
        <time>2025-12-29T11:31:27.875Z</time>
      </trkpt>
      <trkpt lat="43.14082" lon="3.10965">
        <ele>42</ele>
        <time>2025-12-29T11:31:28.875Z</time>
      </trkpt>
      <trkpt lat="43.14082" lon="3.10966">
        <ele>43</ele>
        <time>2025-12-29T11:31:29.875Z</time>
      </trkpt>
      <trkpt lat="43.14082" lon="3.10968">
        <ele>43</ele>
        <time>2025-12-29T11:31:30.875Z</time>
      </trkpt>
      <trkpt lat="43.14083" lon="3.1097">
        <ele>43</ele>
        <time>2025-12-29T11:31:31.875Z</time>
      </trkpt>
      <trkpt lat="43.14083" lon="3.10972">
        <ele>44</ele>
        <time>2025-12-29T11:31:32.875Z</time>
      </trkpt>
      <trkpt lat="43.14083" lon="3.10974">
        <ele>44</ele>
        <time>2025-12-29T11:31:33.875Z</time>
      </trkpt>
      <trkpt lat="43.14084" lon="3.10976">
        <ele>44</ele>
        <time>2025-12-29T11:31:34.875Z</time>
      </trkpt>
      <trkpt lat="43.14084" lon="3.10977">
        <ele>44</ele>
        <time>2025-12-29T11:31:35.875Z</time>
      </trkpt>
      <trkpt lat="43.14084" lon="3.1098">
        <ele>45</ele>
        <time>2025-12-29T11:31:36.875Z</time>
      </trkpt>
      <trkpt lat="43.14084" lon="3.10981">
        <ele>45</ele>
        <time>2025-12-29T11:31:37.875Z</time>
      </trkpt>
      <trkpt lat="43.14084" lon="3.10983">
        <ele>45</ele>
        <time>2025-12-29T11:31:38.875Z</time>
      </trkpt>
      <trkpt lat="43.14083" lon="3.10985">
        <ele>45</ele>
        <time>2025-12-29T11:31:39.875Z</time>
      </trkpt>
      <trkpt lat="43.14083" lon="3.10987">
        <ele>45</ele>
        <time>2025-12-29T11:31:40.875Z</time>
      </trkpt>
      <trkpt lat="43.14083" lon="3.10988">
        <ele>45</ele>
        <time>2025-12-29T11:31:41.875Z</time>
      </trkpt>
      <trkpt lat="43.14083" lon="3.1099">
        <ele>45</ele>
        <time>2025-12-29T11:31:42.875Z</time>
      </trkpt>
      <trkpt lat="43.14083" lon="3.10992">
        <ele>45</ele>
        <time>2025-12-29T11:31:43.875Z</time>
      </trkpt>
      <trkpt lat="43.14082" lon="3.10994">
        <ele>45</ele>
        <time>2025-12-29T11:31:44.875Z</time>
      </trkpt>
      <trkpt lat="43.14082" lon="3.10996">
        <ele>45</ele>
        <time>2025-12-29T11:31:45.875Z</time>
      </trkpt>
      <trkpt lat="43.14082" lon="3.10997">
        <ele>45</ele>
        <time>2025-12-29T11:31:46.875Z</time>
      </trkpt>
      <trkpt lat="43.14081" lon="3.10999">
        <ele>45</ele>
        <time>2025-12-29T11:31:47.875Z</time>
      </trkpt>
      <trkpt lat="43.14081" lon="3.11001">
        <ele>45</ele>
        <time>2025-12-29T11:31:48.875Z</time>
      </trkpt>
      <trkpt lat="43.1408" lon="3.11002">
        <ele>45</ele>
        <time>2025-12-29T11:31:49.875Z</time>
      </trkpt>
      <trkpt lat="43.1408" lon="3.11004">
        <ele>45</ele>
        <time>2025-12-29T11:31:50.875Z</time>
      </trkpt>
      <trkpt lat="43.1408" lon="3.11006">
        <ele>45</ele>
        <time>2025-12-29T11:31:51.875Z</time>
      </trkpt>
      <trkpt lat="43.14079" lon="3.11007">
        <ele>45</ele>
        <time>2025-12-29T11:31:52.875Z</time>
      </trkpt>
      <trkpt lat="43.14079" lon="3.11009">
        <ele>46</ele>
        <time>2025-12-29T11:31:53.875Z</time>
      </trkpt>
      <trkpt lat="43.14079" lon="3.11011">
        <ele>46</ele>
        <time>2025-12-29T11:31:54.875Z</time>
      </trkpt>
      <trkpt lat="43.14079" lon="3.11012">
        <ele>46</ele>
        <time>2025-12-29T11:31:55.875Z</time>
      </trkpt>
      <trkpt lat="43.14079" lon="3.11014">
        <ele>46</ele>
        <time>2025-12-29T11:31:56.875Z</time>
      </trkpt>
      <trkpt lat="43.14079" lon="3.11016">
        <ele>45</ele>
        <time>2025-12-29T11:31:57.875Z</time>
      </trkpt>
      <trkpt lat="43.14079" lon="3.11017">
        <ele>45</ele>
        <time>2025-12-29T11:31:58.875Z</time>
      </trkpt>
      <trkpt lat="43.14079" lon="3.11019">
        <ele>45</ele>
        <time>2025-12-29T11:31:59.875Z</time>
      </trkpt>
      <trkpt lat="43.14079" lon="3.11021">
        <ele>45</ele>
        <time>2025-12-29T11:32:00.875Z</time>
      </trkpt>
      <trkpt lat="43.14079" lon="3.11023">
        <ele>45</ele>
        <time>2025-12-29T11:32:01.875Z</time>
      </trkpt>
      <trkpt lat="43.14079" lon="3.11025">
        <ele>45</ele>
        <time>2025-12-29T11:32:02.875Z</time>
      </trkpt>
      <trkpt lat="43.14078" lon="3.11027">
        <ele>45</ele>
        <time>2025-12-29T11:32:03.875Z</time>
      </trkpt>
      <trkpt lat="43.14079" lon="3.11029">
        <ele>45</ele>
        <time>2025-12-29T11:32:04.875Z</time>
      </trkpt>
      <trkpt lat="43.14079" lon="3.11031">
        <ele>45</ele>
        <time>2025-12-29T11:32:05.875Z</time>
      </trkpt>
      <trkpt lat="43.14079" lon="3.11032">
        <ele>45</ele>
        <time>2025-12-29T11:32:06.875Z</time>
      </trkpt>
      <trkpt lat="43.14079" lon="3.11034">
        <ele>45</ele>
        <time>2025-12-29T11:32:07.875Z</time>
      </trkpt>
      <trkpt lat="43.1408" lon="3.11036">
        <ele>45</ele>
        <time>2025-12-29T11:32:08.875Z</time>
      </trkpt>
      <trkpt lat="43.1408" lon="3.11038">
        <ele>46</ele>
        <time>2025-12-29T11:32:09.875Z</time>
      </trkpt>
      <trkpt lat="43.1408" lon="3.11039">
        <ele>46</ele>
        <time>2025-12-29T11:32:10.875Z</time>
      </trkpt>
      <trkpt lat="43.14081" lon="3.11041">
        <ele>46</ele>
        <time>2025-12-29T11:32:11.875Z</time>
      </trkpt>
      <trkpt lat="43.14081" lon="3.11043">
        <ele>46</ele>
        <time>2025-12-29T11:32:12.875Z</time>
      </trkpt>
      <trkpt lat="43.14081" lon="3.11044">
        <ele>46</ele>
        <time>2025-12-29T11:32:13.875Z</time>
      </trkpt>
      <trkpt lat="43.14081" lon="3.11046">
        <ele>46</ele>
        <time>2025-12-29T11:32:14.875Z</time>
      </trkpt>
      <trkpt lat="43.14081" lon="3.11048">
        <ele>47</ele>
        <time>2025-12-29T11:32:15.875Z</time>
      </trkpt>
      <trkpt lat="43.14081" lon="3.11049">
        <ele>47</ele>
        <time>2025-12-29T11:32:16.875Z</time>
      </trkpt>
      <trkpt lat="43.14081" lon="3.11051">
        <ele>47</ele>
        <time>2025-12-29T11:32:17.875Z</time>
      </trkpt>
      <trkpt lat="43.14081" lon="3.11053">
        <ele>47</ele>
        <time>2025-12-29T11:32:18.875Z</time>
      </trkpt>
      <trkpt lat="43.14081" lon="3.11055">
        <ele>47</ele>
        <time>2025-12-29T11:32:19.875Z</time>
      </trkpt>
      <trkpt lat="43.14082" lon="3.11057">
        <ele>48</ele>
        <time>2025-12-29T11:32:20.875Z</time>
      </trkpt>
      <trkpt lat="43.14082" lon="3.11058">
        <ele>48</ele>
        <time>2025-12-29T11:32:21.875Z</time>
      </trkpt>
      <trkpt lat="43.14082" lon="3.1106">
        <ele>48</ele>
        <time>2025-12-29T11:32:22.875Z</time>
      </trkpt>
      <trkpt lat="43.14082" lon="3.11062">
        <ele>48</ele>
        <time>2025-12-29T11:32:23.875Z</time>
      </trkpt>
      <trkpt lat="43.14083" lon="3.11064">
        <ele>48</ele>
        <time>2025-12-29T11:32:24.875Z</time>
      </trkpt>
      <trkpt lat="43.14083" lon="3.11066">
        <ele>48</ele>
        <time>2025-12-29T11:32:25.875Z</time>
      </trkpt>
      <trkpt lat="43.14084" lon="3.11068">
        <ele>48</ele>
        <time>2025-12-29T11:32:26.875Z</time>
      </trkpt>
      <trkpt lat="43.14084" lon="3.1107">
        <ele>48</ele>
        <time>2025-12-29T11:32:27.875Z</time>
      </trkpt>
      <trkpt lat="43.14085" lon="3.11073">
        <ele>48</ele>
        <time>2025-12-29T11:32:28.875Z</time>
      </trkpt>
      <trkpt lat="43.14085" lon="3.11075">
        <ele>49</ele>
        <time>2025-12-29T11:32:29.875Z</time>
      </trkpt>
      <trkpt lat="43.14086" lon="3.11077">
        <ele>49</ele>
        <time>2025-12-29T11:32:30.875Z</time>
      </trkpt>
      <trkpt lat="43.14086" lon="3.11078">
        <ele>49</ele>
        <time>2025-12-29T11:32:31.875Z</time>
      </trkpt>
      <trkpt lat="43.14087" lon="3.1108">
        <ele>49</ele>
        <time>2025-12-29T11:32:32.875Z</time>
      </trkpt>
      <trkpt lat="43.14088" lon="3.11082">
        <ele>49</ele>
        <time>2025-12-29T11:32:33.875Z</time>
      </trkpt>
      <trkpt lat="43.14089" lon="3.11084">
        <ele>50</ele>
        <time>2025-12-29T11:32:34.875Z</time>
      </trkpt>
      <trkpt lat="43.14089" lon="3.11085">
        <ele>50</ele>
        <time>2025-12-29T11:32:35.875Z</time>
      </trkpt>
      <trkpt lat="43.1409" lon="3.11087">
        <ele>50</ele>
        <time>2025-12-29T11:32:36.875Z</time>
      </trkpt>
      <trkpt lat="43.14091" lon="3.11088">
        <ele>50</ele>
        <time>2025-12-29T11:32:37.875Z</time>
      </trkpt>
      <trkpt lat="43.14091" lon="3.1109">
        <ele>49</ele>
        <time>2025-12-29T11:32:38.875Z</time>
      </trkpt>
      <trkpt lat="43.14092" lon="3.11091">
        <ele>49</ele>
        <time>2025-12-29T11:32:39.875Z</time>
      </trkpt>
      <trkpt lat="43.14093" lon="3.11093">
        <ele>49</ele>
        <time>2025-12-29T11:32:40.875Z</time>
      </trkpt>
      <trkpt lat="43.14093" lon="3.11095">
        <ele>48</ele>
        <time>2025-12-29T11:32:41.875Z</time>
      </trkpt>
      <trkpt lat="43.14094" lon="3.11097">
        <ele>48</ele>
        <time>2025-12-29T11:32:42.875Z</time>
      </trkpt>
      <trkpt lat="43.14095" lon="3.11098">
        <ele>48</ele>
        <time>2025-12-29T11:32:43.875Z</time>
      </trkpt>
      <trkpt lat="43.14096" lon="3.111">
        <ele>48</ele>
        <time>2025-12-29T11:32:44.875Z</time>
      </trkpt>
      <trkpt lat="43.14097" lon="3.11101">
        <ele>48</ele>
        <time>2025-12-29T11:32:45.875Z</time>
      </trkpt>
      <trkpt lat="43.14099" lon="3.11103">
        <ele>48</ele>
        <time>2025-12-29T11:32:46.875Z</time>
      </trkpt>
      <trkpt lat="43.141" lon="3.11105">
        <ele>48</ele>
        <time>2025-12-29T11:32:47.875Z</time>
      </trkpt>
      <trkpt lat="43.14101" lon="3.11106">
        <ele>48</ele>
        <time>2025-12-29T11:32:48.875Z</time>
      </trkpt>
      <trkpt lat="43.14101" lon="3.11108">
        <ele>49</ele>
        <time>2025-12-29T11:32:49.875Z</time>
      </trkpt>
      <trkpt lat="43.14102" lon="3.1111">
        <ele>49</ele>
        <time>2025-12-29T11:32:50.875Z</time>
      </trkpt>
      <trkpt lat="43.14103" lon="3.11111">
        <ele>49</ele>
        <time>2025-12-29T11:32:51.875Z</time>
      </trkpt>
      <trkpt lat="43.14104" lon="3.11112">
        <ele>48</ele>
        <time>2025-12-29T11:32:52.875Z</time>
      </trkpt>
      <trkpt lat="43.14104" lon="3.11113">
        <ele>48</ele>
        <time>2025-12-29T11:32:53.875Z</time>
      </trkpt>
      <trkpt lat="43.14105" lon="3.11114">
        <ele>48</ele>
        <time>2025-12-29T11:32:54.875Z</time>
      </trkpt>
      <trkpt lat="43.14106" lon="3.11115">
        <ele>48</ele>
        <time>2025-12-29T11:32:55.875Z</time>
      </trkpt>
      <trkpt lat="43.14107" lon="3.11116">
        <ele>48</ele>
        <time>2025-12-29T11:32:56.875Z</time>
      </trkpt>
      <trkpt lat="43.14109" lon="3.11116">
        <ele>48</ele>
        <time>2025-12-29T11:32:57.875Z</time>
      </trkpt>
      <trkpt lat="43.14109" lon="3.11117">
        <ele>49</ele>
        <time>2025-12-29T11:32:58.875Z</time>
      </trkpt>
      <trkpt lat="43.1411" lon="3.11118">
        <ele>49</ele>
        <time>2025-12-29T11:32:59.875Z</time>
      </trkpt>
      <trkpt lat="43.14111" lon="3.11118">
        <ele>49</ele>
        <time>2025-12-29T11:33:00.875Z</time>
      </trkpt>
      <trkpt lat="43.14112" lon="3.11119">
        <ele>49</ele>
        <time>2025-12-29T11:33:01.875Z</time>
      </trkpt>
      <trkpt lat="43.14112" lon="3.1112">
        <ele>50</ele>
        <time>2025-12-29T11:33:02.875Z</time>
      </trkpt>
      <trkpt lat="43.14113" lon="3.11121">
        <ele>50</ele>
        <time>2025-12-29T11:33:03.875Z</time>
      </trkpt>
      <trkpt lat="43.14113" lon="3.11122">
        <ele>50</ele>
        <time>2025-12-29T11:33:04.875Z</time>
      </trkpt>
      <trkpt lat="43.14114" lon="3.11123">
        <ele>50</ele>
        <time>2025-12-29T11:33:05.875Z</time>
      </trkpt>
      <trkpt lat="43.14114" lon="3.11124">
        <ele>50</ele>
        <time>2025-12-29T11:33:06.875Z</time>
      </trkpt>
      <trkpt lat="43.14115" lon="3.11125">
        <ele>50</ele>
        <time>2025-12-29T11:33:07.875Z</time>
      </trkpt>
      <trkpt lat="43.14117" lon="3.11127">
        <ele>50</ele>
        <time>2025-12-29T11:33:08.875Z</time>
      </trkpt>
      <trkpt lat="43.14117" lon="3.11128">
        <ele>50</ele>
        <time>2025-12-29T11:33:09.875Z</time>
      </trkpt>
      <trkpt lat="43.14118" lon="3.11129">
        <ele>50</ele>
        <time>2025-12-29T11:33:10.875Z</time>
      </trkpt>
      <trkpt lat="43.14119" lon="3.11131">
        <ele>50</ele>
        <time>2025-12-29T11:33:11.875Z</time>
      </trkpt>
      <trkpt lat="43.1412" lon="3.11132">
        <ele>50</ele>
        <time>2025-12-29T11:33:12.875Z</time>
      </trkpt>
      <trkpt lat="43.14121" lon="3.11134">
        <ele>51</ele>
        <time>2025-12-29T11:33:13.875Z</time>
      </trkpt>
      <trkpt lat="43.14121" lon="3.11136">
        <ele>51</ele>
        <time>2025-12-29T11:33:14.875Z</time>
      </trkpt>
      <trkpt lat="43.14122" lon="3.11137">
        <ele>51</ele>
        <time>2025-12-29T11:33:15.875Z</time>
      </trkpt>
      <trkpt lat="43.14123" lon="3.11139">
        <ele>51</ele>
        <time>2025-12-29T11:33:16.875Z</time>
      </trkpt>
      <trkpt lat="43.14124" lon="3.1114">
        <ele>52</ele>
        <time>2025-12-29T11:33:17.875Z</time>
      </trkpt>
      <trkpt lat="43.14125" lon="3.11142">
        <ele>52</ele>
        <time>2025-12-29T11:33:18.875Z</time>
      </trkpt>
      <trkpt lat="43.14126" lon="3.11143">
        <ele>52</ele>
        <time>2025-12-29T11:33:19.875Z</time>
      </trkpt>
      <trkpt lat="43.14127" lon="3.11144">
        <ele>52</ele>
        <time>2025-12-29T11:33:20.875Z</time>
      </trkpt>
      <trkpt lat="43.14127" lon="3.11146">
        <ele>52</ele>
        <time>2025-12-29T11:33:21.875Z</time>
      </trkpt>
      <trkpt lat="43.14128" lon="3.11147">
        <ele>52</ele>
        <time>2025-12-29T11:33:22.875Z</time>
      </trkpt>
      <trkpt lat="43.14129" lon="3.11149">
        <ele>52</ele>
        <time>2025-12-29T11:33:23.875Z</time>
      </trkpt>
      <trkpt lat="43.14129" lon="3.11151">
        <ele>52</ele>
        <time>2025-12-29T11:33:24.875Z</time>
      </trkpt>
      <trkpt lat="43.1413" lon="3.11152">
        <ele>52</ele>
        <time>2025-12-29T11:33:25.875Z</time>
      </trkpt>
      <trkpt lat="43.14131" lon="3.11154">
        <ele>52</ele>
        <time>2025-12-29T11:33:26.875Z</time>
      </trkpt>
      <trkpt lat="43.14132" lon="3.11156">
        <ele>52</ele>
        <time>2025-12-29T11:33:27.875Z</time>
      </trkpt>
      <trkpt lat="43.14133" lon="3.11157">
        <ele>52</ele>
        <time>2025-12-29T11:33:28.875Z</time>
      </trkpt>
      <trkpt lat="43.14133" lon="3.11159">
        <ele>52</ele>
        <time>2025-12-29T11:33:29.875Z</time>
      </trkpt>
      <trkpt lat="43.14134" lon="3.1116">
        <ele>52</ele>
        <time>2025-12-29T11:33:30.875Z</time>
      </trkpt>
      <trkpt lat="43.14135" lon="3.11162">
        <ele>52</ele>
        <time>2025-12-29T11:33:31.875Z</time>
      </trkpt>
      <trkpt lat="43.14136" lon="3.11163">
        <ele>52</ele>
        <time>2025-12-29T11:33:32.875Z</time>
      </trkpt>
      <trkpt lat="43.14136" lon="3.11164">
        <ele>52</ele>
        <time>2025-12-29T11:33:33.875Z</time>
      </trkpt>
      <trkpt lat="43.14137" lon="3.11165">
        <ele>52</ele>
        <time>2025-12-29T11:33:34.875Z</time>
      </trkpt>
      <trkpt lat="43.14138" lon="3.11166">
        <ele>52</ele>
        <time>2025-12-29T11:33:35.875Z</time>
      </trkpt>
      <trkpt lat="43.14139" lon="3.11168">
        <ele>53</ele>
        <time>2025-12-29T11:33:36.875Z</time>
      </trkpt>
      <trkpt lat="43.14139" lon="3.11169">
        <ele>53</ele>
        <time>2025-12-29T11:33:37.875Z</time>
      </trkpt>
      <trkpt lat="43.1414" lon="3.1117">
        <ele>53</ele>
        <time>2025-12-29T11:33:38.875Z</time>
      </trkpt>
      <trkpt lat="43.1414" lon="3.11172">
        <ele>53</ele>
        <time>2025-12-29T11:33:39.875Z</time>
      </trkpt>
      <trkpt lat="43.14141" lon="3.11174">
        <ele>53</ele>
        <time>2025-12-29T11:33:40.875Z</time>
      </trkpt>
      <trkpt lat="43.14142" lon="3.11175">
        <ele>52</ele>
        <time>2025-12-29T11:33:41.875Z</time>
      </trkpt>
      <trkpt lat="43.14143" lon="3.11177">
        <ele>52</ele>
        <time>2025-12-29T11:33:42.875Z</time>
      </trkpt>
      <trkpt lat="43.14144" lon="3.11179">
        <ele>52</ele>
        <time>2025-12-29T11:33:43.875Z</time>
      </trkpt>
      <trkpt lat="43.14145" lon="3.1118">
        <ele>52</ele>
        <time>2025-12-29T11:33:44.875Z</time>
      </trkpt>
      <trkpt lat="43.14146" lon="3.11182">
        <ele>52</ele>
        <time>2025-12-29T11:33:45.875Z</time>
      </trkpt>
      <trkpt lat="43.14147" lon="3.11183">
        <ele>52</ele>
        <time>2025-12-29T11:33:46.875Z</time>
      </trkpt>
      <trkpt lat="43.14147" lon="3.11185">
        <ele>52</ele>
        <time>2025-12-29T11:33:47.875Z</time>
      </trkpt>
      <trkpt lat="43.14148" lon="3.11187">
        <ele>52</ele>
        <time>2025-12-29T11:33:48.875Z</time>
      </trkpt>
      <trkpt lat="43.14149" lon="3.11189">
        <ele>52</ele>
        <time>2025-12-29T11:33:49.875Z</time>
      </trkpt>
      <trkpt lat="43.14149" lon="3.1119">
        <ele>52</ele>
        <time>2025-12-29T11:33:50.875Z</time>
      </trkpt>
      <trkpt lat="43.1415" lon="3.11192">
        <ele>52</ele>
        <time>2025-12-29T11:33:51.875Z</time>
      </trkpt>
      <trkpt lat="43.1415" lon="3.11193">
        <ele>52</ele>
        <time>2025-12-29T11:33:52.875Z</time>
      </trkpt>
      <trkpt lat="43.14151" lon="3.11195">
        <ele>52</ele>
        <time>2025-12-29T11:33:53.875Z</time>
      </trkpt>
      <trkpt lat="43.14151" lon="3.11196">
        <ele>52</ele>
        <time>2025-12-29T11:33:54.875Z</time>
      </trkpt>
      <trkpt lat="43.14152" lon="3.11198">
        <ele>53</ele>
        <time>2025-12-29T11:33:55.875Z</time>
      </trkpt>
      <trkpt lat="43.14153" lon="3.11199">
        <ele>53</ele>
        <time>2025-12-29T11:33:56.875Z</time>
      </trkpt>
      <trkpt lat="43.14154" lon="3.112">
        <ele>54</ele>
        <time>2025-12-29T11:33:57.875Z</time>
      </trkpt>
      <trkpt lat="43.14155" lon="3.11201">
        <ele>54</ele>
        <time>2025-12-29T11:33:58.875Z</time>
      </trkpt>
      <trkpt lat="43.14156" lon="3.11203">
        <ele>54</ele>
        <time>2025-12-29T11:33:59.875Z</time>
      </trkpt>
      <trkpt lat="43.14157" lon="3.11204">
        <ele>54</ele>
        <time>2025-12-29T11:34:00.875Z</time>
      </trkpt>
      <trkpt lat="43.14158" lon="3.11205">
        <ele>55</ele>
        <time>2025-12-29T11:34:01.875Z</time>
      </trkpt>
      <trkpt lat="43.14159" lon="3.11207">
        <ele>55</ele>
        <time>2025-12-29T11:34:02.875Z</time>
      </trkpt>
      <trkpt lat="43.1416" lon="3.11209">
        <ele>55</ele>
        <time>2025-12-29T11:34:03.875Z</time>
      </trkpt>
      <trkpt lat="43.1416" lon="3.1121">
        <ele>55</ele>
        <time>2025-12-29T11:34:04.875Z</time>
      </trkpt>
      <trkpt lat="43.14161" lon="3.11212">
        <ele>55</ele>
        <time>2025-12-29T11:34:05.875Z</time>
      </trkpt>
      <trkpt lat="43.14162" lon="3.11213">
        <ele>56</ele>
        <time>2025-12-29T11:34:06.875Z</time>
      </trkpt>
      <trkpt lat="43.14163" lon="3.11215">
        <ele>55</ele>
        <time>2025-12-29T11:34:07.875Z</time>
      </trkpt>
      <trkpt lat="43.14164" lon="3.11217">
        <ele>55</ele>
        <time>2025-12-29T11:34:08.875Z</time>
      </trkpt>
      <trkpt lat="43.14165" lon="3.11218">
        <ele>55</ele>
        <time>2025-12-29T11:34:09.875Z</time>
      </trkpt>
      <trkpt lat="43.14166" lon="3.1122">
        <ele>55</ele>
        <time>2025-12-29T11:34:10.875Z</time>
      </trkpt>
      <trkpt lat="43.14168" lon="3.11221">
        <ele>56</ele>
        <time>2025-12-29T11:34:11.875Z</time>
      </trkpt>
      <trkpt lat="43.14169" lon="3.11222">
        <ele>56</ele>
        <time>2025-12-29T11:34:12.875Z</time>
      </trkpt>
      <trkpt lat="43.1417" lon="3.11223">
        <ele>56</ele>
        <time>2025-12-29T11:34:13.875Z</time>
      </trkpt>
      <trkpt lat="43.14171" lon="3.11225">
        <ele>57</ele>
        <time>2025-12-29T11:34:14.875Z</time>
      </trkpt>
      <trkpt lat="43.14172" lon="3.11226">
        <ele>57</ele>
        <time>2025-12-29T11:34:15.875Z</time>
      </trkpt>
      <trkpt lat="43.14173" lon="3.11227">
        <ele>57</ele>
        <time>2025-12-29T11:34:16.875Z</time>
      </trkpt>
      <trkpt lat="43.14174" lon="3.11228">
        <ele>57</ele>
        <time>2025-12-29T11:34:17.875Z</time>
      </trkpt>
      <trkpt lat="43.14175" lon="3.1123">
        <ele>57</ele>
        <time>2025-12-29T11:34:18.875Z</time>
      </trkpt>
      <trkpt lat="43.14176" lon="3.11231">
        <ele>58</ele>
        <time>2025-12-29T11:34:19.875Z</time>
      </trkpt>
      <trkpt lat="43.14176" lon="3.11233">
        <ele>58</ele>
        <time>2025-12-29T11:34:20.875Z</time>
      </trkpt>
      <trkpt lat="43.14177" lon="3.11234">
        <ele>58</ele>
        <time>2025-12-29T11:34:21.875Z</time>
      </trkpt>
      <trkpt lat="43.14178" lon="3.11236">
        <ele>58</ele>
        <time>2025-12-29T11:34:22.875Z</time>
      </trkpt>
      <trkpt lat="43.14179" lon="3.11237">
        <ele>58</ele>
        <time>2025-12-29T11:34:23.875Z</time>
      </trkpt>
      <trkpt lat="43.1418" lon="3.11238">
        <ele>58</ele>
        <time>2025-12-29T11:34:24.875Z</time>
      </trkpt>
      <trkpt lat="43.14181" lon="3.11239">
        <ele>57</ele>
        <time>2025-12-29T11:34:25.875Z</time>
      </trkpt>
      <trkpt lat="43.14182" lon="3.11241">
        <ele>57</ele>
        <time>2025-12-29T11:34:26.875Z</time>
      </trkpt>
      <trkpt lat="43.14183" lon="3.11242">
        <ele>57</ele>
        <time>2025-12-29T11:34:27.875Z</time>
      </trkpt>
      <trkpt lat="43.14184" lon="3.11244">
        <ele>57</ele>
        <time>2025-12-29T11:34:28.875Z</time>
      </trkpt>
      <trkpt lat="43.14185" lon="3.11245">
        <ele>57</ele>
        <time>2025-12-29T11:34:29.875Z</time>
      </trkpt>
      <trkpt lat="43.14186" lon="3.11246">
        <ele>57</ele>
        <time>2025-12-29T11:34:30.875Z</time>
      </trkpt>
      <trkpt lat="43.14186" lon="3.11248">
        <ele>57</ele>
        <time>2025-12-29T11:34:31.875Z</time>
      </trkpt>
      <trkpt lat="43.14187" lon="3.11249">
        <ele>58</ele>
        <time>2025-12-29T11:34:32.875Z</time>
      </trkpt>
      <trkpt lat="43.14188" lon="3.11251">
        <ele>58</ele>
        <time>2025-12-29T11:34:33.875Z</time>
      </trkpt>
      <trkpt lat="43.14189" lon="3.11252">
        <ele>58</ele>
        <time>2025-12-29T11:34:34.875Z</time>
      </trkpt>
      <trkpt lat="43.14189" lon="3.11253">
        <ele>58</ele>
        <time>2025-12-29T11:34:35.875Z</time>
      </trkpt>
      <trkpt lat="43.1419" lon="3.11254">
        <ele>58</ele>
        <time>2025-12-29T11:34:36.875Z</time>
      </trkpt>
      <trkpt lat="43.14191" lon="3.11256">
        <ele>58</ele>
        <time>2025-12-29T11:34:37.875Z</time>
      </trkpt>
      <trkpt lat="43.14191" lon="3.11258">
        <ele>58</ele>
        <time>2025-12-29T11:34:38.875Z</time>
      </trkpt>
      <trkpt lat="43.14192" lon="3.11259">
        <ele>58</ele>
        <time>2025-12-29T11:34:39.875Z</time>
      </trkpt>
      <trkpt lat="43.14192" lon="3.11261">
        <ele>57</ele>
        <time>2025-12-29T11:34:40.875Z</time>
      </trkpt>
      <trkpt lat="43.14193" lon="3.11262">
        <ele>57</ele>
        <time>2025-12-29T11:34:41.875Z</time>
      </trkpt>
      <trkpt lat="43.14193" lon="3.11264">
        <ele>57</ele>
        <time>2025-12-29T11:34:42.875Z</time>
      </trkpt>
      <trkpt lat="43.14194" lon="3.11266">
        <ele>57</ele>
        <time>2025-12-29T11:34:43.875Z</time>
      </trkpt>
      <trkpt lat="43.14194" lon="3.11268">
        <ele>57</ele>
        <time>2025-12-29T11:34:44.875Z</time>
      </trkpt>
      <trkpt lat="43.14195" lon="3.1127">
        <ele>57</ele>
        <time>2025-12-29T11:34:45.875Z</time>
      </trkpt>
      <trkpt lat="43.14195" lon="3.11271">
        <ele>56</ele>
        <time>2025-12-29T11:34:46.875Z</time>
      </trkpt>
      <trkpt lat="43.14195" lon="3.11273">
        <ele>56</ele>
        <time>2025-12-29T11:34:47.875Z</time>
      </trkpt>
      <trkpt lat="43.14196" lon="3.11275">
        <ele>56</ele>
        <time>2025-12-29T11:34:48.875Z</time>
      </trkpt>
      <trkpt lat="43.14197" lon="3.11277">
        <ele>56</ele>
        <time>2025-12-29T11:34:49.875Z</time>
      </trkpt>
      <trkpt lat="43.14197" lon="3.1128">
        <ele>56</ele>
        <time>2025-12-29T11:34:50.875Z</time>
      </trkpt>
      <trkpt lat="43.14198" lon="3.11281">
        <ele>56</ele>
        <time>2025-12-29T11:34:51.875Z</time>
      </trkpt>
      <trkpt lat="43.14198" lon="3.11283">
        <ele>56</ele>
        <time>2025-12-29T11:34:52.875Z</time>
      </trkpt>
      <trkpt lat="43.14199" lon="3.11285">
        <ele>56</ele>
        <time>2025-12-29T11:34:53.875Z</time>
      </trkpt>
      <trkpt lat="43.142" lon="3.11286">
        <ele>57</ele>
        <time>2025-12-29T11:34:54.875Z</time>
      </trkpt>
      <trkpt lat="43.14202" lon="3.11288">
        <ele>57</ele>
        <time>2025-12-29T11:34:55.875Z</time>
      </trkpt>
      <trkpt lat="43.14203" lon="3.11288">
        <ele>57</ele>
        <time>2025-12-29T11:34:56.875Z</time>
      </trkpt>
      <trkpt lat="43.14205" lon="3.11289">
        <ele>58</ele>
        <time>2025-12-29T11:34:57.875Z</time>
      </trkpt>
      <trkpt lat="43.14207" lon="3.11289">
        <ele>58</ele>
        <time>2025-12-29T11:34:58.875Z</time>
      </trkpt>
      <trkpt lat="43.14208" lon="3.11289">
        <ele>58</ele>
        <time>2025-12-29T11:34:59.875Z</time>
      </trkpt>
      <trkpt lat="43.14209" lon="3.11289">
        <ele>59</ele>
        <time>2025-12-29T11:35:00.875Z</time>
      </trkpt>
      <trkpt lat="43.1421" lon="3.11288">
        <ele>59</ele>
        <time>2025-12-29T11:35:01.875Z</time>
      </trkpt>
      <trkpt lat="43.14212" lon="3.11287">
        <ele>59</ele>
        <time>2025-12-29T11:35:02.875Z</time>
      </trkpt>
      <trkpt lat="43.14213" lon="3.11287">
        <ele>60</ele>
        <time>2025-12-29T11:35:03.875Z</time>
      </trkpt>
      <trkpt lat="43.14214" lon="3.11287">
        <ele>60</ele>
        <time>2025-12-29T11:35:04.875Z</time>
      </trkpt>
      <trkpt lat="43.14214" lon="3.11287">
        <ele>60</ele>
        <time>2025-12-29T11:35:05.875Z</time>
      </trkpt>
      <trkpt lat="43.14215" lon="3.11286">
        <ele>60</ele>
        <time>2025-12-29T11:35:06.875Z</time>
      </trkpt>
      <trkpt lat="43.14216" lon="3.11286">
        <ele>60</ele>
        <time>2025-12-29T11:35:07.875Z</time>
      </trkpt>
      <trkpt lat="43.14217" lon="3.11285">
        <ele>60</ele>
        <time>2025-12-29T11:35:08.875Z</time>
      </trkpt>
      <trkpt lat="43.14217" lon="3.11283">
        <ele>60</ele>
        <time>2025-12-29T11:35:09.875Z</time>
      </trkpt>
      <trkpt lat="43.14218" lon="3.11282">
        <ele>60</ele>
        <time>2025-12-29T11:35:10.875Z</time>
      </trkpt>
      <trkpt lat="43.14219" lon="3.11281">
        <ele>60</ele>
        <time>2025-12-29T11:35:11.875Z</time>
      </trkpt>
      <trkpt lat="43.14221" lon="3.1128">
        <ele>60</ele>
        <time>2025-12-29T11:35:12.875Z</time>
      </trkpt>
      <trkpt lat="43.14222" lon="3.11279">
        <ele>60</ele>
        <time>2025-12-29T11:35:13.875Z</time>
      </trkpt>
      <trkpt lat="43.14223" lon="3.11278">
        <ele>60</ele>
        <time>2025-12-29T11:35:14.875Z</time>
      </trkpt>
      <trkpt lat="43.14224" lon="3.11277">
        <ele>61</ele>
        <time>2025-12-29T11:35:15.875Z</time>
      </trkpt>
      <trkpt lat="43.14225" lon="3.11276">
        <ele>60</ele>
        <time>2025-12-29T11:35:16.875Z</time>
      </trkpt>
      <trkpt lat="43.14226" lon="3.11275">
        <ele>60</ele>
        <time>2025-12-29T11:35:17.875Z</time>
      </trkpt>
      <trkpt lat="43.14227" lon="3.11274">
        <ele>60</ele>
        <time>2025-12-29T11:35:18.875Z</time>
      </trkpt>
      <trkpt lat="43.14228" lon="3.11273">
        <ele>60</ele>
        <time>2025-12-29T11:35:19.875Z</time>
      </trkpt>
      <trkpt lat="43.14228" lon="3.11272">
        <ele>59</ele>
        <time>2025-12-29T11:35:20.875Z</time>
      </trkpt>
      <trkpt lat="43.14229" lon="3.11272">
        <ele>59</ele>
        <time>2025-12-29T11:35:21.875Z</time>
      </trkpt>
      <trkpt lat="43.1423" lon="3.11271">
        <ele>59</ele>
        <time>2025-12-29T11:35:22.875Z</time>
      </trkpt>
      <trkpt lat="43.14231" lon="3.1127">
        <ele>58</ele>
        <time>2025-12-29T11:35:23.875Z</time>
      </trkpt>
      <trkpt lat="43.14232" lon="3.11269">
        <ele>58</ele>
        <time>2025-12-29T11:35:24.875Z</time>
      </trkpt>
      <trkpt lat="43.14232" lon="3.11269">
        <ele>58</ele>
        <time>2025-12-29T11:35:25.875Z</time>
      </trkpt>
      <trkpt lat="43.14233" lon="3.11268">
        <ele>58</ele>
        <time>2025-12-29T11:35:26.875Z</time>
      </trkpt>
      <trkpt lat="43.14233" lon="3.11268">
        <ele>58</ele>
        <time>2025-12-29T11:35:27.875Z</time>
      </trkpt>
      <trkpt lat="43.14233" lon="3.11268">
        <ele>59</ele>
        <time>2025-12-29T11:35:28.875Z</time>
      </trkpt>
      <trkpt lat="43.14233" lon="3.11268">
        <ele>59</ele>
        <time>2025-12-29T11:35:29.875Z</time>
      </trkpt>
      <trkpt lat="43.14233" lon="3.11268">
        <ele>59</ele>
        <time>2025-12-29T11:35:30.875Z</time>
      </trkpt>
      <trkpt lat="43.14233" lon="3.11268">
        <ele>59</ele>
        <time>2025-12-29T11:35:31.875Z</time>
      </trkpt>
      <trkpt lat="43.14233" lon="3.11268">
        <ele>60</ele>
        <time>2025-12-29T11:35:32.875Z</time>
      </trkpt>
      <trkpt lat="43.14233" lon="3.11268">
        <ele>59</ele>
        <time>2025-12-29T11:35:33.875Z</time>
      </trkpt>
      <trkpt lat="43.14233" lon="3.11268">
        <ele>59</ele>
        <time>2025-12-29T11:35:34.875Z</time>
      </trkpt>
      <trkpt lat="43.14233" lon="3.11268">
        <ele>59</ele>
        <time>2025-12-29T11:35:35.875Z</time>
      </trkpt>
      <trkpt lat="43.14233" lon="3.11268">
        <ele>59</ele>
        <time>2025-12-29T11:35:36.875Z</time>
      </trkpt>
      <trkpt lat="43.14233" lon="3.11268">
        <ele>59</ele>
        <time>2025-12-29T11:35:37.875Z</time>
      </trkpt>
      <trkpt lat="43.14233" lon="3.11268">
        <ele>59</ele>
        <time>2025-12-29T11:35:38.875Z</time>
      </trkpt>
      <trkpt lat="43.14233" lon="3.11268">
        <ele>59</ele>
        <time>2025-12-29T11:35:39.875Z</time>
      </trkpt>
      <trkpt lat="43.14232" lon="3.11268">
        <ele>59</ele>
        <time>2025-12-29T11:35:40.875Z</time>
      </trkpt>
      <trkpt lat="43.14231" lon="3.11268">
        <ele>60</ele>
        <time>2025-12-29T11:35:41.875Z</time>
      </trkpt>
      <trkpt lat="43.14231" lon="3.11267">
        <ele>60</ele>
        <time>2025-12-29T11:35:42.875Z</time>
      </trkpt>
      <trkpt lat="43.14231" lon="3.11267">
        <ele>61</ele>
        <time>2025-12-29T11:35:43.875Z</time>
      </trkpt>
      <trkpt lat="43.1423" lon="3.11267">
        <ele>61</ele>
        <time>2025-12-29T11:35:44.875Z</time>
      </trkpt>
      <trkpt lat="43.1423" lon="3.11267">
        <ele>62</ele>
        <time>2025-12-29T11:35:45.875Z</time>
      </trkpt>
      <trkpt lat="43.1423" lon="3.11267">
        <ele>62</ele>
        <time>2025-12-29T11:35:46.875Z</time>
      </trkpt>
      <trkpt lat="43.1423" lon="3.11267">
        <ele>62</ele>
        <time>2025-12-29T11:35:47.875Z</time>
      </trkpt>
      <trkpt lat="43.1423" lon="3.11267">
        <ele>62</ele>
        <time>2025-12-29T11:35:48.875Z</time>
      </trkpt>
      <trkpt lat="43.14231" lon="3.11267">
        <ele>63</ele>
        <time>2025-12-29T11:35:49.875Z</time>
      </trkpt>
      <trkpt lat="43.14231" lon="3.11267">
        <ele>63</ele>
        <time>2025-12-29T11:35:50.875Z</time>
      </trkpt>
      <trkpt lat="43.14231" lon="3.11267">
        <ele>63</ele>
        <time>2025-12-29T11:35:51.875Z</time>
      </trkpt>
      <trkpt lat="43.14231" lon="3.11267">
        <ele>63</ele>
        <time>2025-12-29T11:35:52.875Z</time>
      </trkpt>
      <trkpt lat="43.14231" lon="3.11268">
        <ele>63</ele>
        <time>2025-12-29T11:35:53.875Z</time>
      </trkpt>
      <trkpt lat="43.14231" lon="3.11268">
        <ele>63</ele>
        <time>2025-12-29T11:35:54.875Z</time>
      </trkpt>
      <trkpt lat="43.14232" lon="3.11268">
        <ele>63</ele>
        <time>2025-12-29T11:35:55.875Z</time>
      </trkpt>
      <trkpt lat="43.14232" lon="3.11268">
        <ele>63</ele>
        <time>2025-12-29T11:35:56.875Z</time>
      </trkpt>
      <trkpt lat="43.14232" lon="3.11268">
        <ele>63</ele>
        <time>2025-12-29T11:35:57.875Z</time>
      </trkpt>
      <trkpt lat="43.14232" lon="3.11268">
        <ele>63</ele>
        <time>2025-12-29T11:35:58.875Z</time>
      </trkpt>
      <trkpt lat="43.14232" lon="3.11268">
        <ele>63</ele>
        <time>2025-12-29T11:35:59.875Z</time>
      </trkpt>
      <trkpt lat="43.14232" lon="3.11268">
        <ele>63</ele>
        <time>2025-12-29T11:36:00.875Z</time>
      </trkpt>
      <trkpt lat="43.14232" lon="3.11268">
        <ele>63</ele>
        <time>2025-12-29T11:36:01.875Z</time>
      </trkpt>
      <trkpt lat="43.14232" lon="3.11268">
        <ele>62</ele>
        <time>2025-12-29T11:36:02.875Z</time>
      </trkpt>
      <trkpt lat="43.14232" lon="3.11268">
        <ele>62</ele>
        <time>2025-12-29T11:36:03.875Z</time>
      </trkpt>
      <trkpt lat="43.14232" lon="3.11268">
        <ele>61</ele>
        <time>2025-12-29T11:36:04.875Z</time>
      </trkpt>
      <trkpt lat="43.14232" lon="3.11268">
        <ele>61</ele>
        <time>2025-12-29T11:36:05.875Z</time>
      </trkpt>
      <trkpt lat="43.14232" lon="3.11268">
        <ele>61</ele>
        <time>2025-12-29T11:36:06.875Z</time>
      </trkpt>
      <trkpt lat="43.14232" lon="3.11268">
        <ele>60</ele>
        <time>2025-12-29T11:36:07.875Z</time>
      </trkpt>
      <trkpt lat="43.14232" lon="3.11267">
        <ele>60</ele>
        <time>2025-12-29T11:36:08.875Z</time>
      </trkpt>
      <trkpt lat="43.14232" lon="3.11267">
        <ele>60</ele>
        <time>2025-12-29T11:36:09.875Z</time>
      </trkpt>
      <trkpt lat="43.14232" lon="3.11267">
        <ele>60</ele>
        <time>2025-12-29T11:36:10.875Z</time>
      </trkpt>
      <trkpt lat="43.14233" lon="3.11267">
        <ele>60</ele>
        <time>2025-12-29T11:36:11.875Z</time>
      </trkpt>
      <trkpt lat="43.14233" lon="3.11267">
        <ele>60</ele>
        <time>2025-12-29T11:36:12.875Z</time>
      </trkpt>
      <trkpt lat="43.14233" lon="3.11267">
        <ele>60</ele>
        <time>2025-12-29T11:36:13.875Z</time>
      </trkpt>
      <trkpt lat="43.14233" lon="3.11267">
        <ele>60</ele>
        <time>2025-12-29T11:36:14.875Z</time>
      </trkpt>
      <trkpt lat="43.14233" lon="3.11267">
        <ele>60</ele>
        <time>2025-12-29T11:36:15.875Z</time>
      </trkpt>
      <trkpt lat="43.14233" lon="3.11267">
        <ele>60</ele>
        <time>2025-12-29T11:36:16.875Z</time>
      </trkpt>
      <trkpt lat="43.14233" lon="3.11267">
        <ele>61</ele>
        <time>2025-12-29T11:36:17.875Z</time>
      </trkpt>
      <trkpt lat="43.14233" lon="3.11267">
        <ele>61</ele>
        <time>2025-12-29T11:36:18.875Z</time>
      </trkpt>
      <trkpt lat="43.14233" lon="3.11267">
        <ele>62</ele>
        <time>2025-12-29T11:36:19.875Z</time>
      </trkpt>
      <trkpt lat="43.14233" lon="3.11267">
        <ele>62</ele>
        <time>2025-12-29T11:36:20.875Z</time>
      </trkpt>
      <trkpt lat="43.14233" lon="3.11267">
        <ele>62</ele>
        <time>2025-12-29T11:36:21.875Z</time>
      </trkpt>
      <trkpt lat="43.14233" lon="3.11267">
        <ele>63</ele>
        <time>2025-12-29T11:36:22.875Z</time>
      </trkpt>
      <trkpt lat="43.14233" lon="3.11267">
        <ele>63</ele>
        <time>2025-12-29T11:36:23.875Z</time>
      </trkpt>
      <trkpt lat="43.14233" lon="3.11267">
        <ele>63</ele>
        <time>2025-12-29T11:36:24.875Z</time>
      </trkpt>
      <trkpt lat="43.14233" lon="3.11267">
        <ele>63</ele>
        <time>2025-12-29T11:36:25.875Z</time>
      </trkpt>
      <trkpt lat="43.14234" lon="3.11267">
        <ele>62</ele>
        <time>2025-12-29T11:36:26.875Z</time>
      </trkpt>
      <trkpt lat="43.14234" lon="3.11267">
        <ele>62</ele>
        <time>2025-12-29T11:36:27.875Z</time>
      </trkpt>
      <trkpt lat="43.14234" lon="3.11267">
        <ele>62</ele>
        <time>2025-12-29T11:36:28.875Z</time>
      </trkpt>
      <trkpt lat="43.14234" lon="3.11267">
        <ele>61</ele>
        <time>2025-12-29T11:36:29.875Z</time>
      </trkpt>
      <trkpt lat="43.14234" lon="3.11267">
        <ele>61</ele>
        <time>2025-12-29T11:36:30.875Z</time>
      </trkpt>
      <trkpt lat="43.14234" lon="3.11267">
        <ele>60</ele>
        <time>2025-12-29T11:36:31.875Z</time>
      </trkpt>
      <trkpt lat="43.14234" lon="3.11266">
        <ele>60</ele>
        <time>2025-12-29T11:36:32.875Z</time>
      </trkpt>
      <trkpt lat="43.14234" lon="3.11266">
        <ele>60</ele>
        <time>2025-12-29T11:36:33.875Z</time>
      </trkpt>
      <trkpt lat="43.14234" lon="3.11266">
        <ele>59</ele>
        <time>2025-12-29T11:36:34.875Z</time>
      </trkpt>
      <trkpt lat="43.14235" lon="3.11266">
        <ele>59</ele>
        <time>2025-12-29T11:36:35.875Z</time>
      </trkpt>
      <trkpt lat="43.14235" lon="3.11266">
        <ele>59</ele>
        <time>2025-12-29T11:36:36.875Z</time>
      </trkpt>
      <trkpt lat="43.14234" lon="3.11266">
        <ele>58</ele>
        <time>2025-12-29T11:36:37.875Z</time>
      </trkpt>
      <trkpt lat="43.14234" lon="3.11266">
        <ele>58</ele>
        <time>2025-12-29T11:36:38.875Z</time>
      </trkpt>
      <trkpt lat="43.14234" lon="3.11266">
        <ele>57</ele>
        <time>2025-12-29T11:36:39.875Z</time>
      </trkpt>
      <trkpt lat="43.14234" lon="3.11266">
        <ele>56</ele>
        <time>2025-12-29T11:36:40.875Z</time>
      </trkpt>
      <trkpt lat="43.14234" lon="3.11266">
        <ele>56</ele>
        <time>2025-12-29T11:36:41.875Z</time>
      </trkpt>
      <trkpt lat="43.14234" lon="3.11266">
        <ele>56</ele>
        <time>2025-12-29T11:36:42.875Z</time>
      </trkpt>
      <trkpt lat="43.14234" lon="3.11266">
        <ele>56</ele>
        <time>2025-12-29T11:36:43.875Z</time>
      </trkpt>
      <trkpt lat="43.14234" lon="3.11266">
        <ele>56</ele>
        <time>2025-12-29T11:36:44.875Z</time>
      </trkpt>
      <trkpt lat="43.14234" lon="3.11266">
        <ele>57</ele>
        <time>2025-12-29T11:36:45.875Z</time>
      </trkpt>
      <trkpt lat="43.14234" lon="3.11266">
        <ele>57</ele>
        <time>2025-12-29T11:36:46.875Z</time>
      </trkpt>
      <trkpt lat="43.14234" lon="3.11266">
        <ele>57</ele>
        <time>2025-12-29T11:36:47.875Z</time>
      </trkpt>
      <trkpt lat="43.14234" lon="3.11266">
        <ele>57</ele>
        <time>2025-12-29T11:36:48.875Z</time>
      </trkpt>
      <trkpt lat="43.14234" lon="3.11266">
        <ele>57</ele>
        <time>2025-12-29T11:36:49.875Z</time>
      </trkpt>
      <trkpt lat="43.14234" lon="3.11266">
        <ele>57</ele>
        <time>2025-12-29T11:36:50.875Z</time>
      </trkpt>
      <trkpt lat="43.14234" lon="3.11266">
        <ele>58</ele>
        <time>2025-12-29T11:36:51.875Z</time>
      </trkpt>
      <trkpt lat="43.14234" lon="3.11266">
        <ele>58</ele>
        <time>2025-12-29T11:36:52.875Z</time>
      </trkpt>
      <trkpt lat="43.14235" lon="3.11266">
        <ele>58</ele>
        <time>2025-12-29T11:36:53.875Z</time>
      </trkpt>
      <trkpt lat="43.14235" lon="3.11266">
        <ele>58</ele>
        <time>2025-12-29T11:36:54.875Z</time>
      </trkpt>
      <trkpt lat="43.14235" lon="3.11266">
        <ele>58</ele>
        <time>2025-12-29T11:36:55.875Z</time>
      </trkpt>
      <trkpt lat="43.14235" lon="3.11266">
        <ele>58</ele>
        <time>2025-12-29T11:36:56.875Z</time>
      </trkpt>
      <trkpt lat="43.14236" lon="3.11266">
        <ele>58</ele>
        <time>2025-12-29T11:36:57.875Z</time>
      </trkpt>
      <trkpt lat="43.14236" lon="3.11265">
        <ele>58</ele>
        <time>2025-12-29T11:36:58.875Z</time>
      </trkpt>
      <trkpt lat="43.14237" lon="3.11264">
        <ele>58</ele>
        <time>2025-12-29T11:36:59.875Z</time>
      </trkpt>
      <trkpt lat="43.14238" lon="3.11263">
        <ele>58</ele>
        <time>2025-12-29T11:37:00.875Z</time>
      </trkpt>
      <trkpt lat="43.14239" lon="3.11262">
        <ele>58</ele>
        <time>2025-12-29T11:37:01.875Z</time>
      </trkpt>
      <trkpt lat="43.14241" lon="3.11261">
        <ele>58</ele>
        <time>2025-12-29T11:37:02.875Z</time>
      </trkpt>
      <trkpt lat="43.14242" lon="3.1126">
        <ele>59</ele>
        <time>2025-12-29T11:37:03.875Z</time>
      </trkpt>
      <trkpt lat="43.14243" lon="3.11259">
        <ele>59</ele>
        <time>2025-12-29T11:37:04.875Z</time>
      </trkpt>
      <trkpt lat="43.14244" lon="3.11258">
        <ele>59</ele>
        <time>2025-12-29T11:37:05.875Z</time>
      </trkpt>
      <trkpt lat="43.14245" lon="3.11257">
        <ele>60</ele>
        <time>2025-12-29T11:37:06.875Z</time>
      </trkpt>
      <trkpt lat="43.14246" lon="3.11256">
        <ele>60</ele>
        <time>2025-12-29T11:37:07.875Z</time>
      </trkpt>
      <trkpt lat="43.14247" lon="3.11255">
        <ele>60</ele>
        <time>2025-12-29T11:37:08.875Z</time>
      </trkpt>
      <trkpt lat="43.14248" lon="3.11254">
        <ele>60</ele>
        <time>2025-12-29T11:37:09.875Z</time>
      </trkpt>
      <trkpt lat="43.14249" lon="3.11253">
        <ele>60</ele>
        <time>2025-12-29T11:37:10.875Z</time>
      </trkpt>
      <trkpt lat="43.1425" lon="3.11252">
        <ele>60</ele>
        <time>2025-12-29T11:37:11.875Z</time>
      </trkpt>
      <trkpt lat="43.14251" lon="3.11252">
        <ele>60</ele>
        <time>2025-12-29T11:37:12.875Z</time>
      </trkpt>
      <trkpt lat="43.14253" lon="3.1125">
        <ele>61</ele>
        <time>2025-12-29T11:37:13.875Z</time>
      </trkpt>
      <trkpt lat="43.14254" lon="3.11249">
        <ele>61</ele>
        <time>2025-12-29T11:37:14.875Z</time>
      </trkpt>
      <trkpt lat="43.14255" lon="3.11248">
        <ele>61</ele>
        <time>2025-12-29T11:37:15.875Z</time>
      </trkpt>
      <trkpt lat="43.14256" lon="3.11247">
        <ele>61</ele>
        <time>2025-12-29T11:37:16.875Z</time>
      </trkpt>
      <trkpt lat="43.14257" lon="3.11246">
        <ele>61</ele>
        <time>2025-12-29T11:37:17.875Z</time>
      </trkpt>
      <trkpt lat="43.14258" lon="3.11245">
        <ele>61</ele>
        <time>2025-12-29T11:37:18.875Z</time>
      </trkpt>
      <trkpt lat="43.1426" lon="3.11244">
        <ele>61</ele>
        <time>2025-12-29T11:37:19.875Z</time>
      </trkpt>
      <trkpt lat="43.14261" lon="3.11242">
        <ele>61</ele>
        <time>2025-12-29T11:37:20.875Z</time>
      </trkpt>
      <trkpt lat="43.14262" lon="3.11241">
        <ele>60</ele>
        <time>2025-12-29T11:37:21.875Z</time>
      </trkpt>
      <trkpt lat="43.14264" lon="3.1124">
        <ele>60</ele>
        <time>2025-12-29T11:37:22.875Z</time>
      </trkpt>
      <trkpt lat="43.14265" lon="3.11238">
        <ele>60</ele>
        <time>2025-12-29T11:37:23.875Z</time>
      </trkpt>
      <trkpt lat="43.14266" lon="3.11237">
        <ele>60</ele>
        <time>2025-12-29T11:37:24.875Z</time>
      </trkpt>
      <trkpt lat="43.14267" lon="3.11236">
        <ele>60</ele>
        <time>2025-12-29T11:37:25.875Z</time>
      </trkpt>
      <trkpt lat="43.14268" lon="3.11235">
        <ele>60</ele>
        <time>2025-12-29T11:37:26.875Z</time>
      </trkpt>
      <trkpt lat="43.14269" lon="3.11234">
        <ele>60</ele>
        <time>2025-12-29T11:37:27.875Z</time>
      </trkpt>
      <trkpt lat="43.1427" lon="3.11233">
        <ele>60</ele>
        <time>2025-12-29T11:37:28.875Z</time>
      </trkpt>
      <trkpt lat="43.14272" lon="3.11232">
        <ele>60</ele>
        <time>2025-12-29T11:37:29.875Z</time>
      </trkpt>
      <trkpt lat="43.14272" lon="3.11231">
        <ele>60</ele>
        <time>2025-12-29T11:37:30.875Z</time>
      </trkpt>
      <trkpt lat="43.14273" lon="3.1123">
        <ele>60</ele>
        <time>2025-12-29T11:37:31.875Z</time>
      </trkpt>
      <trkpt lat="43.14274" lon="3.11229">
        <ele>60</ele>
        <time>2025-12-29T11:37:32.875Z</time>
      </trkpt>
      <trkpt lat="43.14276" lon="3.11228">
        <ele>59</ele>
        <time>2025-12-29T11:37:33.875Z</time>
      </trkpt>
      <trkpt lat="43.14277" lon="3.11227">
        <ele>60</ele>
        <time>2025-12-29T11:37:34.875Z</time>
      </trkpt>
      <trkpt lat="43.14278" lon="3.11226">
        <ele>60</ele>
        <time>2025-12-29T11:37:35.875Z</time>
      </trkpt>
      <trkpt lat="43.14279" lon="3.11225">
        <ele>60</ele>
        <time>2025-12-29T11:37:36.875Z</time>
      </trkpt>
      <trkpt lat="43.1428" lon="3.11223">
        <ele>60</ele>
        <time>2025-12-29T11:37:37.875Z</time>
      </trkpt>
      <trkpt lat="43.14281" lon="3.11223">
        <ele>60</ele>
        <time>2025-12-29T11:37:38.875Z</time>
      </trkpt>
      <trkpt lat="43.14282" lon="3.11222">
        <ele>60</ele>
        <time>2025-12-29T11:37:39.875Z</time>
      </trkpt>
      <trkpt lat="43.14283" lon="3.1122">
        <ele>60</ele>
        <time>2025-12-29T11:37:40.875Z</time>
      </trkpt>
      <trkpt lat="43.14285" lon="3.11219">
        <ele>60</ele>
        <time>2025-12-29T11:37:41.875Z</time>
      </trkpt>
      <trkpt lat="43.14286" lon="3.11217">
        <ele>60</ele>
        <time>2025-12-29T11:37:42.875Z</time>
      </trkpt>
      <trkpt lat="43.14287" lon="3.11216">
        <ele>60</ele>
        <time>2025-12-29T11:37:43.875Z</time>
      </trkpt>
      <trkpt lat="43.14288" lon="3.11215">
        <ele>60</ele>
        <time>2025-12-29T11:37:44.875Z</time>
      </trkpt>
      <trkpt lat="43.14289" lon="3.11214">
        <ele>59</ele>
        <time>2025-12-29T11:37:45.875Z</time>
      </trkpt>
      <trkpt lat="43.1429" lon="3.11212">
        <ele>59</ele>
        <time>2025-12-29T11:37:46.875Z</time>
      </trkpt>
      <trkpt lat="43.14292" lon="3.11211">
        <ele>59</ele>
        <time>2025-12-29T11:37:47.875Z</time>
      </trkpt>
      <trkpt lat="43.14293" lon="3.1121">
        <ele>59</ele>
        <time>2025-12-29T11:37:48.875Z</time>
      </trkpt>
      <trkpt lat="43.14294" lon="3.11209">
        <ele>59</ele>
        <time>2025-12-29T11:37:49.875Z</time>
      </trkpt>
      <trkpt lat="43.14295" lon="3.11208">
        <ele>58</ele>
        <time>2025-12-29T11:37:50.875Z</time>
      </trkpt>
      <trkpt lat="43.14296" lon="3.11207">
        <ele>59</ele>
        <time>2025-12-29T11:37:51.875Z</time>
      </trkpt>
      <trkpt lat="43.14297" lon="3.11206">
        <ele>59</ele>
        <time>2025-12-29T11:37:52.875Z</time>
      </trkpt>
      <trkpt lat="43.14298" lon="3.11205">
        <ele>59</ele>
        <time>2025-12-29T11:37:53.875Z</time>
      </trkpt>
      <trkpt lat="43.14299" lon="3.11205">
        <ele>59</ele>
        <time>2025-12-29T11:37:54.875Z</time>
      </trkpt>
      <trkpt lat="43.14299" lon="3.11204">
        <ele>59</ele>
        <time>2025-12-29T11:37:55.875Z</time>
      </trkpt>
      <trkpt lat="43.143" lon="3.11203">
        <ele>59</ele>
        <time>2025-12-29T11:37:56.875Z</time>
      </trkpt>
      <trkpt lat="43.14301" lon="3.11202">
        <ele>59</ele>
        <time>2025-12-29T11:37:57.875Z</time>
      </trkpt>
      <trkpt lat="43.14302" lon="3.112">
        <ele>59</ele>
        <time>2025-12-29T11:37:58.875Z</time>
      </trkpt>
      <trkpt lat="43.14303" lon="3.11199">
        <ele>60</ele>
        <time>2025-12-29T11:37:59.875Z</time>
      </trkpt>
      <trkpt lat="43.14304" lon="3.11198">
        <ele>60</ele>
        <time>2025-12-29T11:38:00.875Z</time>
      </trkpt>
      <trkpt lat="43.14306" lon="3.11197">
        <ele>60</ele>
        <time>2025-12-29T11:38:01.875Z</time>
      </trkpt>
      <trkpt lat="43.14307" lon="3.11196">
        <ele>60</ele>
        <time>2025-12-29T11:38:02.875Z</time>
      </trkpt>
      <trkpt lat="43.14308" lon="3.11195">
        <ele>60</ele>
        <time>2025-12-29T11:38:03.875Z</time>
      </trkpt>
      <trkpt lat="43.14309" lon="3.11194">
        <ele>60</ele>
        <time>2025-12-29T11:38:04.875Z</time>
      </trkpt>
      <trkpt lat="43.1431" lon="3.11193">
        <ele>60</ele>
        <time>2025-12-29T11:38:05.875Z</time>
      </trkpt>
      <trkpt lat="43.14312" lon="3.11191">
        <ele>60</ele>
        <time>2025-12-29T11:38:06.875Z</time>
      </trkpt>
      <trkpt lat="43.14313" lon="3.1119">
        <ele>60</ele>
        <time>2025-12-29T11:38:07.875Z</time>
      </trkpt>
      <trkpt lat="43.14314" lon="3.11189">
        <ele>60</ele>
        <time>2025-12-29T11:38:08.875Z</time>
      </trkpt>
      <trkpt lat="43.14315" lon="3.11188">
        <ele>60</ele>
        <time>2025-12-29T11:38:09.875Z</time>
      </trkpt>
      <trkpt lat="43.14316" lon="3.11187">
        <ele>60</ele>
        <time>2025-12-29T11:38:10.875Z</time>
      </trkpt>
      <trkpt lat="43.14318" lon="3.11185">
        <ele>60</ele>
        <time>2025-12-29T11:38:11.875Z</time>
      </trkpt>
      <trkpt lat="43.14319" lon="3.11184">
        <ele>60</ele>
        <time>2025-12-29T11:38:12.875Z</time>
      </trkpt>
      <trkpt lat="43.14319" lon="3.11183">
        <ele>60</ele>
        <time>2025-12-29T11:38:13.875Z</time>
      </trkpt>
      <trkpt lat="43.1432" lon="3.11182">
        <ele>59</ele>
        <time>2025-12-29T11:38:14.875Z</time>
      </trkpt>
      <trkpt lat="43.14321" lon="3.11181">
        <ele>59</ele>
        <time>2025-12-29T11:38:15.875Z</time>
      </trkpt>
      <trkpt lat="43.14321" lon="3.1118">
        <ele>59</ele>
        <time>2025-12-29T11:38:16.875Z</time>
      </trkpt>
      <trkpt lat="43.14322" lon="3.11179">
        <ele>58</ele>
        <time>2025-12-29T11:38:17.875Z</time>
      </trkpt>
      <trkpt lat="43.14323" lon="3.11178">
        <ele>59</ele>
        <time>2025-12-29T11:38:18.875Z</time>
      </trkpt>
      <trkpt lat="43.14324" lon="3.11177">
        <ele>59</ele>
        <time>2025-12-29T11:38:19.875Z</time>
      </trkpt>
      <trkpt lat="43.14325" lon="3.11176">
        <ele>59</ele>
        <time>2025-12-29T11:38:20.875Z</time>
      </trkpt>
      <trkpt lat="43.14326" lon="3.11175">
        <ele>59</ele>
        <time>2025-12-29T11:38:21.875Z</time>
      </trkpt>
      <trkpt lat="43.14328" lon="3.11174">
        <ele>60</ele>
        <time>2025-12-29T11:38:22.875Z</time>
      </trkpt>
      <trkpt lat="43.14329" lon="3.11172">
        <ele>60</ele>
        <time>2025-12-29T11:38:23.875Z</time>
      </trkpt>
      <trkpt lat="43.1433" lon="3.11171">
        <ele>60</ele>
        <time>2025-12-29T11:38:24.875Z</time>
      </trkpt>
      <trkpt lat="43.14331" lon="3.1117">
        <ele>60</ele>
        <time>2025-12-29T11:38:25.875Z</time>
      </trkpt>
      <trkpt lat="43.14332" lon="3.11169">
        <ele>60</ele>
        <time>2025-12-29T11:38:26.875Z</time>
      </trkpt>
      <trkpt lat="43.14333" lon="3.11169">
        <ele>60</ele>
        <time>2025-12-29T11:38:27.875Z</time>
      </trkpt>
      <trkpt lat="43.14334" lon="3.11168">
        <ele>60</ele>
        <time>2025-12-29T11:38:28.875Z</time>
      </trkpt>
      <trkpt lat="43.14335" lon="3.11167">
        <ele>60</ele>
        <time>2025-12-29T11:38:29.875Z</time>
      </trkpt>
      <trkpt lat="43.14336" lon="3.11166">
        <ele>60</ele>
        <time>2025-12-29T11:38:30.875Z</time>
      </trkpt>
      <trkpt lat="43.14337" lon="3.11165">
        <ele>61</ele>
        <time>2025-12-29T11:38:31.875Z</time>
      </trkpt>
      <trkpt lat="43.14338" lon="3.11164">
        <ele>61</ele>
        <time>2025-12-29T11:38:32.875Z</time>
      </trkpt>
      <trkpt lat="43.14339" lon="3.11163">
        <ele>61</ele>
        <time>2025-12-29T11:38:33.875Z</time>
      </trkpt>
      <trkpt lat="43.1434" lon="3.11161">
        <ele>61</ele>
        <time>2025-12-29T11:38:34.875Z</time>
      </trkpt>
      <trkpt lat="43.14341" lon="3.1116">
        <ele>62</ele>
        <time>2025-12-29T11:38:35.875Z</time>
      </trkpt>
      <trkpt lat="43.14343" lon="3.11159">
        <ele>62</ele>
        <time>2025-12-29T11:38:36.875Z</time>
      </trkpt>
      <trkpt lat="43.14344" lon="3.11158">
        <ele>62</ele>
        <time>2025-12-29T11:38:37.875Z</time>
      </trkpt>
      <trkpt lat="43.14346" lon="3.11157">
        <ele>62</ele>
        <time>2025-12-29T11:38:38.875Z</time>
      </trkpt>
      <trkpt lat="43.14347" lon="3.11156">
        <ele>62</ele>
        <time>2025-12-29T11:38:39.875Z</time>
      </trkpt>
      <trkpt lat="43.14349" lon="3.11155">
        <ele>62</ele>
        <time>2025-12-29T11:38:40.875Z</time>
      </trkpt>
      <trkpt lat="43.1435" lon="3.11153">
        <ele>63</ele>
        <time>2025-12-29T11:38:41.875Z</time>
      </trkpt>
      <trkpt lat="43.14351" lon="3.11152">
        <ele>63</ele>
        <time>2025-12-29T11:38:42.875Z</time>
      </trkpt>
      <trkpt lat="43.14352" lon="3.11152">
        <ele>63</ele>
        <time>2025-12-29T11:38:43.875Z</time>
      </trkpt>
      <trkpt lat="43.14353" lon="3.11151">
        <ele>63</ele>
        <time>2025-12-29T11:38:44.875Z</time>
      </trkpt>
      <trkpt lat="43.14354" lon="3.1115">
        <ele>62</ele>
        <time>2025-12-29T11:38:45.875Z</time>
      </trkpt>
      <trkpt lat="43.14355" lon="3.11148">
        <ele>62</ele>
        <time>2025-12-29T11:38:46.875Z</time>
      </trkpt>
      <trkpt lat="43.14356" lon="3.11147">
        <ele>62</ele>
        <time>2025-12-29T11:38:47.875Z</time>
      </trkpt>
      <trkpt lat="43.14357" lon="3.11146">
        <ele>61</ele>
        <time>2025-12-29T11:38:48.875Z</time>
      </trkpt>
      <trkpt lat="43.14358" lon="3.11145">
        <ele>61</ele>
        <time>2025-12-29T11:38:49.875Z</time>
      </trkpt>
      <trkpt lat="43.14359" lon="3.11144">
        <ele>62</ele>
        <time>2025-12-29T11:38:50.875Z</time>
      </trkpt>
      <trkpt lat="43.1436" lon="3.11143">
        <ele>62</ele>
        <time>2025-12-29T11:38:51.875Z</time>
      </trkpt>
      <trkpt lat="43.14361" lon="3.11142">
        <ele>62</ele>
        <time>2025-12-29T11:38:52.875Z</time>
      </trkpt>
      <trkpt lat="43.14362" lon="3.11141">
        <ele>62</ele>
        <time>2025-12-29T11:38:53.875Z</time>
      </trkpt>
      <trkpt lat="43.14363" lon="3.1114">
        <ele>63</ele>
        <time>2025-12-29T11:38:54.875Z</time>
      </trkpt>
      <trkpt lat="43.14365" lon="3.11139">
        <ele>63</ele>
        <time>2025-12-29T11:38:55.875Z</time>
      </trkpt>
      <trkpt lat="43.14366" lon="3.11138">
        <ele>63</ele>
        <time>2025-12-29T11:38:56.875Z</time>
      </trkpt>
      <trkpt lat="43.14367" lon="3.11137">
        <ele>63</ele>
        <time>2025-12-29T11:38:57.875Z</time>
      </trkpt>
      <trkpt lat="43.14368" lon="3.11136">
        <ele>63</ele>
        <time>2025-12-29T11:38:58.875Z</time>
      </trkpt>
      <trkpt lat="43.14369" lon="3.11135">
        <ele>63</ele>
        <time>2025-12-29T11:38:59.875Z</time>
      </trkpt>
      <trkpt lat="43.1437" lon="3.11134">
        <ele>62</ele>
        <time>2025-12-29T11:39:00.875Z</time>
      </trkpt>
      <trkpt lat="43.14371" lon="3.11133">
        <ele>62</ele>
        <time>2025-12-29T11:39:01.875Z</time>
      </trkpt>
      <trkpt lat="43.14373" lon="3.11132">
        <ele>62</ele>
        <time>2025-12-29T11:39:02.875Z</time>
      </trkpt>
      <trkpt lat="43.14374" lon="3.1113">
        <ele>62</ele>
        <time>2025-12-29T11:39:03.875Z</time>
      </trkpt>
      <trkpt lat="43.14375" lon="3.11129">
        <ele>62</ele>
        <time>2025-12-29T11:39:04.875Z</time>
      </trkpt>
      <trkpt lat="43.14377" lon="3.11128">
        <ele>62</ele>
        <time>2025-12-29T11:39:05.875Z</time>
      </trkpt>
      <trkpt lat="43.14378" lon="3.11126">
        <ele>62</ele>
        <time>2025-12-29T11:39:06.875Z</time>
      </trkpt>
      <trkpt lat="43.1438" lon="3.11125">
        <ele>62</ele>
        <time>2025-12-29T11:39:07.875Z</time>
      </trkpt>
      <trkpt lat="43.14381" lon="3.11124">
        <ele>62</ele>
        <time>2025-12-29T11:39:08.875Z</time>
      </trkpt>
      <trkpt lat="43.14383" lon="3.11122">
        <ele>62</ele>
        <time>2025-12-29T11:39:09.875Z</time>
      </trkpt>
      <trkpt lat="43.14384" lon="3.11121">
        <ele>62</ele>
        <time>2025-12-29T11:39:10.875Z</time>
      </trkpt>
      <trkpt lat="43.14385" lon="3.1112">
        <ele>62</ele>
        <time>2025-12-29T11:39:11.875Z</time>
      </trkpt>
      <trkpt lat="43.14386" lon="3.11119">
        <ele>62</ele>
        <time>2025-12-29T11:39:12.875Z</time>
      </trkpt>
      <trkpt lat="43.14387" lon="3.11118">
        <ele>62</ele>
        <time>2025-12-29T11:39:13.875Z</time>
      </trkpt>
      <trkpt lat="43.14388" lon="3.11117">
        <ele>63</ele>
        <time>2025-12-29T11:39:14.875Z</time>
      </trkpt>
      <trkpt lat="43.1439" lon="3.11116">
        <ele>63</ele>
        <time>2025-12-29T11:39:15.875Z</time>
      </trkpt>
      <trkpt lat="43.14391" lon="3.11115">
        <ele>63</ele>
        <time>2025-12-29T11:39:16.875Z</time>
      </trkpt>
      <trkpt lat="43.14391" lon="3.11113">
        <ele>62</ele>
        <time>2025-12-29T11:39:17.875Z</time>
      </trkpt>
      <trkpt lat="43.14392" lon="3.11112">
        <ele>62</ele>
        <time>2025-12-29T11:39:18.875Z</time>
      </trkpt>
      <trkpt lat="43.14393" lon="3.11111">
        <ele>62</ele>
        <time>2025-12-29T11:39:19.875Z</time>
      </trkpt>
      <trkpt lat="43.14394" lon="3.1111">
        <ele>62</ele>
        <time>2025-12-29T11:39:20.875Z</time>
      </trkpt>
      <trkpt lat="43.14395" lon="3.11109">
        <ele>62</ele>
        <time>2025-12-29T11:39:21.875Z</time>
      </trkpt>
      <trkpt lat="43.14396" lon="3.11108">
        <ele>62</ele>
        <time>2025-12-29T11:39:22.875Z</time>
      </trkpt>
      <trkpt lat="43.14397" lon="3.11107">
        <ele>62</ele>
        <time>2025-12-29T11:39:23.875Z</time>
      </trkpt>
      <trkpt lat="43.14398" lon="3.11105">
        <ele>63</ele>
        <time>2025-12-29T11:39:24.875Z</time>
      </trkpt>
      <trkpt lat="43.14399" lon="3.11104">
        <ele>63</ele>
        <time>2025-12-29T11:39:25.875Z</time>
      </trkpt>
      <trkpt lat="43.144" lon="3.11103">
        <ele>63</ele>
        <time>2025-12-29T11:39:26.875Z</time>
      </trkpt>
      <trkpt lat="43.14402" lon="3.11101">
        <ele>63</ele>
        <time>2025-12-29T11:39:27.875Z</time>
      </trkpt>
      <trkpt lat="43.14403" lon="3.111">
        <ele>63</ele>
        <time>2025-12-29T11:39:28.875Z</time>
      </trkpt>
      <trkpt lat="43.14405" lon="3.11099">
        <ele>64</ele>
        <time>2025-12-29T11:39:29.875Z</time>
      </trkpt>
      <trkpt lat="43.14406" lon="3.11098">
        <ele>64</ele>
        <time>2025-12-29T11:39:30.875Z</time>
      </trkpt>
      <trkpt lat="43.14407" lon="3.11096">
        <ele>63</ele>
        <time>2025-12-29T11:39:31.875Z</time>
      </trkpt>
      <trkpt lat="43.14408" lon="3.11095">
        <ele>63</ele>
        <time>2025-12-29T11:39:32.875Z</time>
      </trkpt>
      <trkpt lat="43.1441" lon="3.11094">
        <ele>63</ele>
        <time>2025-12-29T11:39:33.875Z</time>
      </trkpt>
      <trkpt lat="43.14411" lon="3.11093">
        <ele>63</ele>
        <time>2025-12-29T11:39:34.875Z</time>
      </trkpt>
      <trkpt lat="43.14412" lon="3.11092">
        <ele>63</ele>
        <time>2025-12-29T11:39:35.875Z</time>
      </trkpt>
      <trkpt lat="43.14413" lon="3.11091">
        <ele>63</ele>
        <time>2025-12-29T11:39:36.875Z</time>
      </trkpt>
      <trkpt lat="43.14414" lon="3.11089">
        <ele>63</ele>
        <time>2025-12-29T11:39:37.875Z</time>
      </trkpt>
      <trkpt lat="43.14415" lon="3.11089">
        <ele>63</ele>
        <time>2025-12-29T11:39:38.875Z</time>
      </trkpt>
      <trkpt lat="43.14416" lon="3.11088">
        <ele>62</ele>
        <time>2025-12-29T11:39:39.875Z</time>
      </trkpt>
      <trkpt lat="43.14417" lon="3.11087">
        <ele>62</ele>
        <time>2025-12-29T11:39:40.875Z</time>
      </trkpt>
      <trkpt lat="43.14418" lon="3.11086">
        <ele>62</ele>
        <time>2025-12-29T11:39:41.875Z</time>
      </trkpt>
      <trkpt lat="43.14419" lon="3.11085">
        <ele>62</ele>
        <time>2025-12-29T11:39:42.875Z</time>
      </trkpt>
      <trkpt lat="43.1442" lon="3.11084">
        <ele>62</ele>
        <time>2025-12-29T11:39:43.875Z</time>
      </trkpt>
      <trkpt lat="43.14421" lon="3.11083">
        <ele>62</ele>
        <time>2025-12-29T11:39:44.875Z</time>
      </trkpt>
      <trkpt lat="43.14422" lon="3.11082">
        <ele>62</ele>
        <time>2025-12-29T11:39:45.875Z</time>
      </trkpt>
      <trkpt lat="43.14424" lon="3.11081">
        <ele>62</ele>
        <time>2025-12-29T11:39:46.875Z</time>
      </trkpt>
      <trkpt lat="43.14425" lon="3.1108">
        <ele>62</ele>
        <time>2025-12-29T11:39:47.875Z</time>
      </trkpt>
      <trkpt lat="43.14426" lon="3.11079">
        <ele>62</ele>
        <time>2025-12-29T11:39:48.875Z</time>
      </trkpt>
      <trkpt lat="43.14428" lon="3.11078">
        <ele>62</ele>
        <time>2025-12-29T11:39:49.875Z</time>
      </trkpt>
      <trkpt lat="43.14429" lon="3.11077">
        <ele>62</ele>
        <time>2025-12-29T11:39:50.875Z</time>
      </trkpt>
      <trkpt lat="43.1443" lon="3.11075">
        <ele>62</ele>
        <time>2025-12-29T11:39:51.875Z</time>
      </trkpt>
      <trkpt lat="43.14431" lon="3.11074">
        <ele>62</ele>
        <time>2025-12-29T11:39:52.875Z</time>
      </trkpt>
      <trkpt lat="43.14432" lon="3.11073">
        <ele>62</ele>
        <time>2025-12-29T11:39:53.875Z</time>
      </trkpt>
      <trkpt lat="43.14433" lon="3.11072">
        <ele>62</ele>
        <time>2025-12-29T11:39:54.875Z</time>
      </trkpt>
      <trkpt lat="43.14434" lon="3.11071">
        <ele>62</ele>
        <time>2025-12-29T11:39:55.875Z</time>
      </trkpt>
      <trkpt lat="43.14435" lon="3.1107">
        <ele>62</ele>
        <time>2025-12-29T11:39:56.875Z</time>
      </trkpt>
      <trkpt lat="43.14436" lon="3.11069">
        <ele>62</ele>
        <time>2025-12-29T11:39:57.875Z</time>
      </trkpt>
      <trkpt lat="43.14437" lon="3.11068">
        <ele>62</ele>
        <time>2025-12-29T11:39:58.875Z</time>
      </trkpt>
      <trkpt lat="43.14438" lon="3.11067">
        <ele>62</ele>
        <time>2025-12-29T11:39:59.875Z</time>
      </trkpt>
      <trkpt lat="43.14438" lon="3.11066">
        <ele>62</ele>
        <time>2025-12-29T11:40:00.875Z</time>
      </trkpt>
      <trkpt lat="43.1444" lon="3.11065">
        <ele>62</ele>
        <time>2025-12-29T11:40:01.875Z</time>
      </trkpt>
      <trkpt lat="43.14441" lon="3.11064">
        <ele>63</ele>
        <time>2025-12-29T11:40:02.875Z</time>
      </trkpt>
      <trkpt lat="43.14442" lon="3.11063">
        <ele>63</ele>
        <time>2025-12-29T11:40:03.875Z</time>
      </trkpt>
      <trkpt lat="43.14443" lon="3.11062">
        <ele>63</ele>
        <time>2025-12-29T11:40:04.875Z</time>
      </trkpt>
      <trkpt lat="43.14444" lon="3.1106">
        <ele>63</ele>
        <time>2025-12-29T11:40:05.875Z</time>
      </trkpt>
      <trkpt lat="43.14445" lon="3.11059">
        <ele>63</ele>
        <time>2025-12-29T11:40:06.875Z</time>
      </trkpt>
      <trkpt lat="43.14446" lon="3.11058">
        <ele>63</ele>
        <time>2025-12-29T11:40:07.875Z</time>
      </trkpt>
      <trkpt lat="43.14447" lon="3.11056">
        <ele>63</ele>
        <time>2025-12-29T11:40:08.875Z</time>
      </trkpt>
      <trkpt lat="43.14448" lon="3.11054">
        <ele>63</ele>
        <time>2025-12-29T11:40:09.875Z</time>
      </trkpt>
      <trkpt lat="43.14449" lon="3.11053">
        <ele>64</ele>
        <time>2025-12-29T11:40:10.875Z</time>
      </trkpt>
      <trkpt lat="43.1445" lon="3.11052">
        <ele>64</ele>
        <time>2025-12-29T11:40:11.875Z</time>
      </trkpt>
      <trkpt lat="43.14451" lon="3.1105">
        <ele>64</ele>
        <time>2025-12-29T11:40:12.875Z</time>
      </trkpt>
      <trkpt lat="43.14452" lon="3.11048">
        <ele>65</ele>
        <time>2025-12-29T11:40:13.875Z</time>
      </trkpt>
      <trkpt lat="43.14452" lon="3.11047">
        <ele>65</ele>
        <time>2025-12-29T11:40:14.875Z</time>
      </trkpt>
      <trkpt lat="43.14453" lon="3.11046">
        <ele>65</ele>
        <time>2025-12-29T11:40:15.875Z</time>
      </trkpt>
      <trkpt lat="43.14455" lon="3.11044">
        <ele>65</ele>
        <time>2025-12-29T11:40:16.875Z</time>
      </trkpt>
      <trkpt lat="43.14456" lon="3.11043">
        <ele>65</ele>
        <time>2025-12-29T11:40:17.875Z</time>
      </trkpt>
      <trkpt lat="43.14457" lon="3.11041">
        <ele>65</ele>
        <time>2025-12-29T11:40:18.875Z</time>
      </trkpt>
      <trkpt lat="43.14457" lon="3.1104">
        <ele>65</ele>
        <time>2025-12-29T11:40:19.875Z</time>
      </trkpt>
      <trkpt lat="43.14458" lon="3.11038">
        <ele>65</ele>
        <time>2025-12-29T11:40:20.875Z</time>
      </trkpt>
      <trkpt lat="43.14459" lon="3.11037">
        <ele>64</ele>
        <time>2025-12-29T11:40:21.875Z</time>
      </trkpt>
      <trkpt lat="43.1446" lon="3.11035">
        <ele>64</ele>
        <time>2025-12-29T11:40:22.875Z</time>
      </trkpt>
      <trkpt lat="43.1446" lon="3.11034">
        <ele>64</ele>
        <time>2025-12-29T11:40:23.875Z</time>
      </trkpt>
      <trkpt lat="43.14461" lon="3.11033">
        <ele>64</ele>
        <time>2025-12-29T11:40:24.875Z</time>
      </trkpt>
      <trkpt lat="43.14461" lon="3.11031">
        <ele>64</ele>
        <time>2025-12-29T11:40:25.875Z</time>
      </trkpt>
      <trkpt lat="43.14462" lon="3.1103">
        <ele>64</ele>
        <time>2025-12-29T11:40:26.875Z</time>
      </trkpt>
      <trkpt lat="43.14463" lon="3.11029">
        <ele>64</ele>
        <time>2025-12-29T11:40:27.875Z</time>
      </trkpt>
      <trkpt lat="43.14464" lon="3.11028">
        <ele>64</ele>
        <time>2025-12-29T11:40:28.875Z</time>
      </trkpt>
      <trkpt lat="43.14464" lon="3.11027">
        <ele>64</ele>
        <time>2025-12-29T11:40:29.875Z</time>
      </trkpt>
      <trkpt lat="43.14465" lon="3.11025">
        <ele>64</ele>
        <time>2025-12-29T11:40:30.875Z</time>
      </trkpt>
      <trkpt lat="43.14466" lon="3.11025">
        <ele>64</ele>
        <time>2025-12-29T11:40:31.875Z</time>
      </trkpt>
      <trkpt lat="43.14466" lon="3.11024">
        <ele>63</ele>
        <time>2025-12-29T11:40:32.875Z</time>
      </trkpt>
      <trkpt lat="43.14467" lon="3.11023">
        <ele>63</ele>
        <time>2025-12-29T11:40:33.875Z</time>
      </trkpt>
      <trkpt lat="43.14468" lon="3.11022">
        <ele>63</ele>
        <time>2025-12-29T11:40:34.875Z</time>
      </trkpt>
      <trkpt lat="43.14469" lon="3.1102">
        <ele>63</ele>
        <time>2025-12-29T11:40:35.875Z</time>
      </trkpt>
      <trkpt lat="43.14471" lon="3.11019">
        <ele>62</ele>
        <time>2025-12-29T11:40:36.875Z</time>
      </trkpt>
      <trkpt lat="43.14472" lon="3.11018">
        <ele>62</ele>
        <time>2025-12-29T11:40:37.875Z</time>
      </trkpt>
      <trkpt lat="43.14473" lon="3.11017">
        <ele>63</ele>
        <time>2025-12-29T11:40:38.875Z</time>
      </trkpt>
      <trkpt lat="43.14474" lon="3.11015">
        <ele>63</ele>
        <time>2025-12-29T11:40:39.875Z</time>
      </trkpt>
      <trkpt lat="43.14475" lon="3.11015">
        <ele>63</ele>
        <time>2025-12-29T11:40:40.875Z</time>
      </trkpt>
      <trkpt lat="43.14476" lon="3.11013">
        <ele>63</ele>
        <time>2025-12-29T11:40:41.875Z</time>
      </trkpt>
      <trkpt lat="43.14477" lon="3.11012">
        <ele>64</ele>
        <time>2025-12-29T11:40:42.875Z</time>
      </trkpt>
      <trkpt lat="43.14478" lon="3.1101">
        <ele>64</ele>
        <time>2025-12-29T11:40:43.875Z</time>
      </trkpt>
      <trkpt lat="43.14478" lon="3.11008">
        <ele>64</ele>
        <time>2025-12-29T11:40:44.875Z</time>
      </trkpt>
      <trkpt lat="43.14479" lon="3.11006">
        <ele>65</ele>
        <time>2025-12-29T11:40:45.875Z</time>
      </trkpt>
      <trkpt lat="43.14479" lon="3.11004">
        <ele>65</ele>
        <time>2025-12-29T11:40:46.875Z</time>
      </trkpt>
      <trkpt lat="43.14479" lon="3.11003">
        <ele>66</ele>
        <time>2025-12-29T11:40:47.875Z</time>
      </trkpt>
      <trkpt lat="43.1448" lon="3.11001">
        <ele>66</ele>
        <time>2025-12-29T11:40:48.875Z</time>
      </trkpt>
      <trkpt lat="43.1448" lon="3.10999">
        <ele>67</ele>
        <time>2025-12-29T11:40:49.875Z</time>
      </trkpt>
      <trkpt lat="43.1448" lon="3.10998">
        <ele>67</ele>
        <time>2025-12-29T11:40:50.875Z</time>
      </trkpt>
      <trkpt lat="43.14481" lon="3.10996">
        <ele>68</ele>
        <time>2025-12-29T11:40:51.875Z</time>
      </trkpt>
      <trkpt lat="43.14482" lon="3.10995">
        <ele>68</ele>
        <time>2025-12-29T11:40:52.875Z</time>
      </trkpt>
      <trkpt lat="43.14483" lon="3.10994">
        <ele>68</ele>
        <time>2025-12-29T11:40:53.875Z</time>
      </trkpt>
      <trkpt lat="43.14484" lon="3.10993">
        <ele>68</ele>
        <time>2025-12-29T11:40:54.875Z</time>
      </trkpt>
      <trkpt lat="43.14485" lon="3.10992">
        <ele>68</ele>
        <time>2025-12-29T11:40:55.875Z</time>
      </trkpt>
      <trkpt lat="43.14486" lon="3.10991">
        <ele>68</ele>
        <time>2025-12-29T11:40:56.875Z</time>
      </trkpt>
      <trkpt lat="43.14486" lon="3.1099">
        <ele>68</ele>
        <time>2025-12-29T11:40:57.875Z</time>
      </trkpt>
      <trkpt lat="43.14487" lon="3.10989">
        <ele>68</ele>
        <time>2025-12-29T11:40:58.875Z</time>
      </trkpt>
      <trkpt lat="43.14488" lon="3.10988">
        <ele>68</ele>
        <time>2025-12-29T11:40:59.875Z</time>
      </trkpt>
      <trkpt lat="43.14489" lon="3.10987">
        <ele>68</ele>
        <time>2025-12-29T11:41:00.875Z</time>
      </trkpt>
      <trkpt lat="43.1449" lon="3.10986">
        <ele>68</ele>
        <time>2025-12-29T11:41:01.875Z</time>
      </trkpt>
      <trkpt lat="43.14491" lon="3.10984">
        <ele>67</ele>
        <time>2025-12-29T11:41:02.875Z</time>
      </trkpt>
      <trkpt lat="43.14492" lon="3.10983">
        <ele>67</ele>
        <time>2025-12-29T11:41:03.875Z</time>
      </trkpt>
      <trkpt lat="43.14493" lon="3.10982">
        <ele>67</ele>
        <time>2025-12-29T11:41:04.875Z</time>
      </trkpt>
      <trkpt lat="43.14495" lon="3.10981">
        <ele>67</ele>
        <time>2025-12-29T11:41:05.875Z</time>
      </trkpt>
      <trkpt lat="43.14495" lon="3.1098">
        <ele>67</ele>
        <time>2025-12-29T11:41:06.875Z</time>
      </trkpt>
      <trkpt lat="43.14495" lon="3.10978">
        <ele>67</ele>
        <time>2025-12-29T11:41:07.875Z</time>
      </trkpt>
      <trkpt lat="43.14496" lon="3.10977">
        <ele>67</ele>
        <time>2025-12-29T11:41:08.875Z</time>
      </trkpt>
      <trkpt lat="43.14496" lon="3.10976">
        <ele>67</ele>
        <time>2025-12-29T11:41:09.875Z</time>
      </trkpt>
      <trkpt lat="43.14497" lon="3.10975">
        <ele>67</ele>
        <time>2025-12-29T11:41:10.875Z</time>
      </trkpt>
      <trkpt lat="43.14498" lon="3.10974">
        <ele>66</ele>
        <time>2025-12-29T11:41:11.875Z</time>
      </trkpt>
      <trkpt lat="43.14499" lon="3.10973">
        <ele>66</ele>
        <time>2025-12-29T11:41:12.875Z</time>
      </trkpt>
      <trkpt lat="43.145" lon="3.10971">
        <ele>66</ele>
        <time>2025-12-29T11:41:13.875Z</time>
      </trkpt>
      <trkpt lat="43.14501" lon="3.1097">
        <ele>66</ele>
        <time>2025-12-29T11:41:14.875Z</time>
      </trkpt>
      <trkpt lat="43.14502" lon="3.10968">
        <ele>67</ele>
        <time>2025-12-29T11:41:15.875Z</time>
      </trkpt>
      <trkpt lat="43.14502" lon="3.10967">
        <ele>67</ele>
        <time>2025-12-29T11:41:16.875Z</time>
      </trkpt>
      <trkpt lat="43.14503" lon="3.10965">
        <ele>67</ele>
        <time>2025-12-29T11:41:17.875Z</time>
      </trkpt>
      <trkpt lat="43.14504" lon="3.10964">
        <ele>67</ele>
        <time>2025-12-29T11:41:18.875Z</time>
      </trkpt>
      <trkpt lat="43.14505" lon="3.10963">
        <ele>68</ele>
        <time>2025-12-29T11:41:19.875Z</time>
      </trkpt>
      <trkpt lat="43.14506" lon="3.10961">
        <ele>68</ele>
        <time>2025-12-29T11:41:20.875Z</time>
      </trkpt>
      <trkpt lat="43.14506" lon="3.10961">
        <ele>69</ele>
        <time>2025-12-29T11:41:21.875Z</time>
      </trkpt>
      <trkpt lat="43.14507" lon="3.1096">
        <ele>69</ele>
        <time>2025-12-29T11:41:22.875Z</time>
      </trkpt>
      <trkpt lat="43.14508" lon="3.10959">
        <ele>69</ele>
        <time>2025-12-29T11:41:23.875Z</time>
      </trkpt>
      <trkpt lat="43.14509" lon="3.10958">
        <ele>70</ele>
        <time>2025-12-29T11:41:24.875Z</time>
      </trkpt>
      <trkpt lat="43.1451" lon="3.10958">
        <ele>70</ele>
        <time>2025-12-29T11:41:25.875Z</time>
      </trkpt>
      <trkpt lat="43.14511" lon="3.10957">
        <ele>70</ele>
        <time>2025-12-29T11:41:26.875Z</time>
      </trkpt>
      <trkpt lat="43.14512" lon="3.10956">
        <ele>70</ele>
        <time>2025-12-29T11:41:27.875Z</time>
      </trkpt>
      <trkpt lat="43.14513" lon="3.10956">
        <ele>71</ele>
        <time>2025-12-29T11:41:28.875Z</time>
      </trkpt>
      <trkpt lat="43.14514" lon="3.10955">
        <ele>71</ele>
        <time>2025-12-29T11:41:29.875Z</time>
      </trkpt>
      <trkpt lat="43.14515" lon="3.10955">
        <ele>71</ele>
        <time>2025-12-29T11:41:30.875Z</time>
      </trkpt>
      <trkpt lat="43.14516" lon="3.10954">
        <ele>70</ele>
        <time>2025-12-29T11:41:31.875Z</time>
      </trkpt>
      <trkpt lat="43.14517" lon="3.10954">
        <ele>70</ele>
        <time>2025-12-29T11:41:32.875Z</time>
      </trkpt>
      <trkpt lat="43.14519" lon="3.10954">
        <ele>70</ele>
        <time>2025-12-29T11:41:33.875Z</time>
      </trkpt>
      <trkpt lat="43.14521" lon="3.10953">
        <ele>70</ele>
        <time>2025-12-29T11:41:34.875Z</time>
      </trkpt>
      <trkpt lat="43.14522" lon="3.10952">
        <ele>71</ele>
        <time>2025-12-29T11:41:35.875Z</time>
      </trkpt>
      <trkpt lat="43.14523" lon="3.10952">
        <ele>71</ele>
        <time>2025-12-29T11:41:36.875Z</time>
      </trkpt>
      <trkpt lat="43.14525" lon="3.10951">
        <ele>71</ele>
        <time>2025-12-29T11:41:37.875Z</time>
      </trkpt>
      <trkpt lat="43.14526" lon="3.1095">
        <ele>71</ele>
        <time>2025-12-29T11:41:38.875Z</time>
      </trkpt>
      <trkpt lat="43.14527" lon="3.10949">
        <ele>71</ele>
        <time>2025-12-29T11:41:39.875Z</time>
      </trkpt>
      <trkpt lat="43.14528" lon="3.10948">
        <ele>71</ele>
        <time>2025-12-29T11:41:40.875Z</time>
      </trkpt>
      <trkpt lat="43.14529" lon="3.10948">
        <ele>71</ele>
        <time>2025-12-29T11:41:41.875Z</time>
      </trkpt>
      <trkpt lat="43.1453" lon="3.10948">
        <ele>71</ele>
        <time>2025-12-29T11:41:42.875Z</time>
      </trkpt>
      <trkpt lat="43.14531" lon="3.10947">
        <ele>71</ele>
        <time>2025-12-29T11:41:43.875Z</time>
      </trkpt>
      <trkpt lat="43.14532" lon="3.10946">
        <ele>71</ele>
        <time>2025-12-29T11:41:44.875Z</time>
      </trkpt>
      <trkpt lat="43.14533" lon="3.10945">
        <ele>71</ele>
        <time>2025-12-29T11:41:45.875Z</time>
      </trkpt>
      <trkpt lat="43.14534" lon="3.10944">
        <ele>71</ele>
        <time>2025-12-29T11:41:46.875Z</time>
      </trkpt>
      <trkpt lat="43.14536" lon="3.10942">
        <ele>71</ele>
        <time>2025-12-29T11:41:47.875Z</time>
      </trkpt>
      <trkpt lat="43.14537" lon="3.10941">
        <ele>71</ele>
        <time>2025-12-29T11:41:48.875Z</time>
      </trkpt>
      <trkpt lat="43.14538" lon="3.10939">
        <ele>71</ele>
        <time>2025-12-29T11:41:49.875Z</time>
      </trkpt>
      <trkpt lat="43.14539" lon="3.10937">
        <ele>71</ele>
        <time>2025-12-29T11:41:50.875Z</time>
      </trkpt>
      <trkpt lat="43.1454" lon="3.10935">
        <ele>72</ele>
        <time>2025-12-29T11:41:51.875Z</time>
      </trkpt>
      <trkpt lat="43.14541" lon="3.10934">
        <ele>72</ele>
        <time>2025-12-29T11:41:52.875Z</time>
      </trkpt>
      <trkpt lat="43.14542" lon="3.10932">
        <ele>73</ele>
        <time>2025-12-29T11:41:53.875Z</time>
      </trkpt>
      <trkpt lat="43.14542" lon="3.10931">
        <ele>73</ele>
        <time>2025-12-29T11:41:54.875Z</time>
      </trkpt>
      <trkpt lat="43.14543" lon="3.10929">
        <ele>73</ele>
        <time>2025-12-29T11:41:55.875Z</time>
      </trkpt>
      <trkpt lat="43.14543" lon="3.10928">
        <ele>73</ele>
        <time>2025-12-29T11:41:56.875Z</time>
      </trkpt>
      <trkpt lat="43.14544" lon="3.10927">
        <ele>73</ele>
        <time>2025-12-29T11:41:57.875Z</time>
      </trkpt>
      <trkpt lat="43.14544" lon="3.10925">
        <ele>72</ele>
        <time>2025-12-29T11:41:58.875Z</time>
      </trkpt>
      <trkpt lat="43.14544" lon="3.10924">
        <ele>72</ele>
        <time>2025-12-29T11:41:59.875Z</time>
      </trkpt>
      <trkpt lat="43.14544" lon="3.10923">
        <ele>72</ele>
        <time>2025-12-29T11:42:00.875Z</time>
      </trkpt>
      <trkpt lat="43.14546" lon="3.10921">
        <ele>71</ele>
        <time>2025-12-29T11:42:01.875Z</time>
      </trkpt>
      <trkpt lat="43.14547" lon="3.1092">
        <ele>71</ele>
        <time>2025-12-29T11:42:02.875Z</time>
      </trkpt>
      <trkpt lat="43.14549" lon="3.1092">
        <ele>72</ele>
        <time>2025-12-29T11:42:03.875Z</time>
      </trkpt>
      <trkpt lat="43.14551" lon="3.10919">
        <ele>72</ele>
        <time>2025-12-29T11:42:04.875Z</time>
      </trkpt>
      <trkpt lat="43.14552" lon="3.10919">
        <ele>73</ele>
        <time>2025-12-29T11:42:05.875Z</time>
      </trkpt>
      <trkpt lat="43.14553" lon="3.10918">
        <ele>73</ele>
        <time>2025-12-29T11:42:06.875Z</time>
      </trkpt>
      <trkpt lat="43.14555" lon="3.10917">
        <ele>74</ele>
        <time>2025-12-29T11:42:07.875Z</time>
      </trkpt>
      <trkpt lat="43.14556" lon="3.10917">
        <ele>74</ele>
        <time>2025-12-29T11:42:08.875Z</time>
      </trkpt>
      <trkpt lat="43.14558" lon="3.10916">
        <ele>74</ele>
        <time>2025-12-29T11:42:09.875Z</time>
      </trkpt>
      <trkpt lat="43.14559" lon="3.10915">
        <ele>74</ele>
        <time>2025-12-29T11:42:10.875Z</time>
      </trkpt>
      <trkpt lat="43.1456" lon="3.10914">
        <ele>75</ele>
        <time>2025-12-29T11:42:11.875Z</time>
      </trkpt>
      <trkpt lat="43.14561" lon="3.10912">
        <ele>75</ele>
        <time>2025-12-29T11:42:12.875Z</time>
      </trkpt>
      <trkpt lat="43.14562" lon="3.10911">
        <ele>75</ele>
        <time>2025-12-29T11:42:13.875Z</time>
      </trkpt>
      <trkpt lat="43.14563" lon="3.10909">
        <ele>74</ele>
        <time>2025-12-29T11:42:14.875Z</time>
      </trkpt>
      <trkpt lat="43.14563" lon="3.10908">
        <ele>74</ele>
        <time>2025-12-29T11:42:15.875Z</time>
      </trkpt>
      <trkpt lat="43.14564" lon="3.10906">
        <ele>74</ele>
        <time>2025-12-29T11:42:16.875Z</time>
      </trkpt>
      <trkpt lat="43.14564" lon="3.10905">
        <ele>74</ele>
        <time>2025-12-29T11:42:17.875Z</time>
      </trkpt>
      <trkpt lat="43.14565" lon="3.10904">
        <ele>74</ele>
        <time>2025-12-29T11:42:18.875Z</time>
      </trkpt>
      <trkpt lat="43.14566" lon="3.10902">
        <ele>74</ele>
        <time>2025-12-29T11:42:19.875Z</time>
      </trkpt>
      <trkpt lat="43.14567" lon="3.10901">
        <ele>74</ele>
        <time>2025-12-29T11:42:20.875Z</time>
      </trkpt>
      <trkpt lat="43.14568" lon="3.10899">
        <ele>74</ele>
        <time>2025-12-29T11:42:21.875Z</time>
      </trkpt>
      <trkpt lat="43.14569" lon="3.10897">
        <ele>74</ele>
        <time>2025-12-29T11:42:22.875Z</time>
      </trkpt>
      <trkpt lat="43.14569" lon="3.10896">
        <ele>75</ele>
        <time>2025-12-29T11:42:23.875Z</time>
      </trkpt>
      <trkpt lat="43.1457" lon="3.10894">
        <ele>75</ele>
        <time>2025-12-29T11:42:24.875Z</time>
      </trkpt>
      <trkpt lat="43.14571" lon="3.10893">
        <ele>76</ele>
        <time>2025-12-29T11:42:25.875Z</time>
      </trkpt>
      <trkpt lat="43.14571" lon="3.10892">
        <ele>76</ele>
        <time>2025-12-29T11:42:26.875Z</time>
      </trkpt>
      <trkpt lat="43.14572" lon="3.1089">
        <ele>76</ele>
        <time>2025-12-29T11:42:27.875Z</time>
      </trkpt>
      <trkpt lat="43.14574" lon="3.10889">
        <ele>76</ele>
        <time>2025-12-29T11:42:28.875Z</time>
      </trkpt>
      <trkpt lat="43.14575" lon="3.10888">
        <ele>77</ele>
        <time>2025-12-29T11:42:29.875Z</time>
      </trkpt>
      <trkpt lat="43.14577" lon="3.10887">
        <ele>77</ele>
        <time>2025-12-29T11:42:30.875Z</time>
      </trkpt>
      <trkpt lat="43.14578" lon="3.10887">
        <ele>77</ele>
        <time>2025-12-29T11:42:31.875Z</time>
      </trkpt>
      <trkpt lat="43.14579" lon="3.10887">
        <ele>77</ele>
        <time>2025-12-29T11:42:32.875Z</time>
      </trkpt>
      <trkpt lat="43.1458" lon="3.10886">
        <ele>77</ele>
        <time>2025-12-29T11:42:33.875Z</time>
      </trkpt>
      <trkpt lat="43.14581" lon="3.10885">
        <ele>77</ele>
        <time>2025-12-29T11:42:34.875Z</time>
      </trkpt>
      <trkpt lat="43.14582" lon="3.10884">
        <ele>77</ele>
        <time>2025-12-29T11:42:35.875Z</time>
      </trkpt>
      <trkpt lat="43.14583" lon="3.10883">
        <ele>77</ele>
        <time>2025-12-29T11:42:36.875Z</time>
      </trkpt>
      <trkpt lat="43.14584" lon="3.10882">
        <ele>77</ele>
        <time>2025-12-29T11:42:37.875Z</time>
      </trkpt>
      <trkpt lat="43.14585" lon="3.10881">
        <ele>77</ele>
        <time>2025-12-29T11:42:38.875Z</time>
      </trkpt>
      <trkpt lat="43.14586" lon="3.1088">
        <ele>76</ele>
        <time>2025-12-29T11:42:39.875Z</time>
      </trkpt>
      <trkpt lat="43.14587" lon="3.10879">
        <ele>76</ele>
        <time>2025-12-29T11:42:40.875Z</time>
      </trkpt>
      <trkpt lat="43.14588" lon="3.10878">
        <ele>77</ele>
        <time>2025-12-29T11:42:41.875Z</time>
      </trkpt>
      <trkpt lat="43.14589" lon="3.10877">
        <ele>77</ele>
        <time>2025-12-29T11:42:42.875Z</time>
      </trkpt>
      <trkpt lat="43.1459" lon="3.10876">
        <ele>77</ele>
        <time>2025-12-29T11:42:43.875Z</time>
      </trkpt>
      <trkpt lat="43.14591" lon="3.10875">
        <ele>77</ele>
        <time>2025-12-29T11:42:44.875Z</time>
      </trkpt>
      <trkpt lat="43.14592" lon="3.10875">
        <ele>78</ele>
        <time>2025-12-29T11:42:45.875Z</time>
      </trkpt>
      <trkpt lat="43.14593" lon="3.10873">
        <ele>78</ele>
        <time>2025-12-29T11:42:46.875Z</time>
      </trkpt>
      <trkpt lat="43.14594" lon="3.10872">
        <ele>77</ele>
        <time>2025-12-29T11:42:47.875Z</time>
      </trkpt>
      <trkpt lat="43.14595" lon="3.10871">
        <ele>77</ele>
        <time>2025-12-29T11:42:48.875Z</time>
      </trkpt>
      <trkpt lat="43.14596" lon="3.1087">
        <ele>77</ele>
        <time>2025-12-29T11:42:49.875Z</time>
      </trkpt>
      <trkpt lat="43.14597" lon="3.10869">
        <ele>77</ele>
        <time>2025-12-29T11:42:50.875Z</time>
      </trkpt>
      <trkpt lat="43.14598" lon="3.10867">
        <ele>77</ele>
        <time>2025-12-29T11:42:51.875Z</time>
      </trkpt>
      <trkpt lat="43.14599" lon="3.10866">
        <ele>77</ele>
        <time>2025-12-29T11:42:52.875Z</time>
      </trkpt>
      <trkpt lat="43.14601" lon="3.10865">
        <ele>77</ele>
        <time>2025-12-29T11:42:53.875Z</time>
      </trkpt>
      <trkpt lat="43.14602" lon="3.10864">
        <ele>78</ele>
        <time>2025-12-29T11:42:54.875Z</time>
      </trkpt>
      <trkpt lat="43.14603" lon="3.10864">
        <ele>78</ele>
        <time>2025-12-29T11:42:55.875Z</time>
      </trkpt>
      <trkpt lat="43.14604" lon="3.10863">
        <ele>78</ele>
        <time>2025-12-29T11:42:56.875Z</time>
      </trkpt>
      <trkpt lat="43.14605" lon="3.10861">
        <ele>78</ele>
        <time>2025-12-29T11:42:57.875Z</time>
      </trkpt>
      <trkpt lat="43.14606" lon="3.1086">
        <ele>78</ele>
        <time>2025-12-29T11:42:58.875Z</time>
      </trkpt>
      <trkpt lat="43.14607" lon="3.10859">
        <ele>77</ele>
        <time>2025-12-29T11:42:59.875Z</time>
      </trkpt>
      <trkpt lat="43.14608" lon="3.10857">
        <ele>77</ele>
        <time>2025-12-29T11:43:00.875Z</time>
      </trkpt>
      <trkpt lat="43.14609" lon="3.10856">
        <ele>77</ele>
        <time>2025-12-29T11:43:01.875Z</time>
      </trkpt>
      <trkpt lat="43.1461" lon="3.10854">
        <ele>77</ele>
        <time>2025-12-29T11:43:02.875Z</time>
      </trkpt>
      <trkpt lat="43.14611" lon="3.10853">
        <ele>77</ele>
        <time>2025-12-29T11:43:03.875Z</time>
      </trkpt>
      <trkpt lat="43.14612" lon="3.10851">
        <ele>77</ele>
        <time>2025-12-29T11:43:04.875Z</time>
      </trkpt>
      <trkpt lat="43.14613" lon="3.1085">
        <ele>77</ele>
        <time>2025-12-29T11:43:05.875Z</time>
      </trkpt>
      <trkpt lat="43.14614" lon="3.10849">
        <ele>76</ele>
        <time>2025-12-29T11:43:06.875Z</time>
      </trkpt>
      <trkpt lat="43.14615" lon="3.10847">
        <ele>76</ele>
        <time>2025-12-29T11:43:07.875Z</time>
      </trkpt>
      <trkpt lat="43.14615" lon="3.10846">
        <ele>77</ele>
        <time>2025-12-29T11:43:08.875Z</time>
      </trkpt>
      <trkpt lat="43.14616" lon="3.10845">
        <ele>77</ele>
        <time>2025-12-29T11:43:09.875Z</time>
      </trkpt>
      <trkpt lat="43.14617" lon="3.10844">
        <ele>77</ele>
        <time>2025-12-29T11:43:10.875Z</time>
      </trkpt>
      <trkpt lat="43.14618" lon="3.10843">
        <ele>78</ele>
        <time>2025-12-29T11:43:11.875Z</time>
      </trkpt>
      <trkpt lat="43.14619" lon="3.10841">
        <ele>79</ele>
        <time>2025-12-29T11:43:12.875Z</time>
      </trkpt>
      <trkpt lat="43.14621" lon="3.1084">
        <ele>80</ele>
        <time>2025-12-29T11:43:13.875Z</time>
      </trkpt>
      <trkpt lat="43.14622" lon="3.10839">
        <ele>81</ele>
        <time>2025-12-29T11:43:14.875Z</time>
      </trkpt>
      <trkpt lat="43.14623" lon="3.10838">
        <ele>81</ele>
        <time>2025-12-29T11:43:15.875Z</time>
      </trkpt>
      <trkpt lat="43.14623" lon="3.10838">
        <ele>81</ele>
        <time>2025-12-29T11:43:16.875Z</time>
      </trkpt>
      <trkpt lat="43.14625" lon="3.10837">
        <ele>82</ele>
        <time>2025-12-29T11:43:17.875Z</time>
      </trkpt>
      <trkpt lat="43.14627" lon="3.10836">
        <ele>82</ele>
        <time>2025-12-29T11:43:18.875Z</time>
      </trkpt>
      <trkpt lat="43.14628" lon="3.10835">
        <ele>82</ele>
        <time>2025-12-29T11:43:19.875Z</time>
      </trkpt>
      <trkpt lat="43.1463" lon="3.10834">
        <ele>82</ele>
        <time>2025-12-29T11:43:20.875Z</time>
      </trkpt>
      <trkpt lat="43.14631" lon="3.10833">
        <ele>83</ele>
        <time>2025-12-29T11:43:21.875Z</time>
      </trkpt>
      <trkpt lat="43.14632" lon="3.10833">
        <ele>82</ele>
        <time>2025-12-29T11:43:22.875Z</time>
      </trkpt>
      <trkpt lat="43.14633" lon="3.10832">
        <ele>82</ele>
        <time>2025-12-29T11:43:23.875Z</time>
      </trkpt>
      <trkpt lat="43.14633" lon="3.10833">
        <ele>82</ele>
        <time>2025-12-29T11:43:24.875Z</time>
      </trkpt>
      <trkpt lat="43.14635" lon="3.10832">
        <ele>82</ele>
        <time>2025-12-29T11:43:25.875Z</time>
      </trkpt>
      <trkpt lat="43.14636" lon="3.10831">
        <ele>81</ele>
        <time>2025-12-29T11:43:26.875Z</time>
      </trkpt>
      <trkpt lat="43.14638" lon="3.1083">
        <ele>81</ele>
        <time>2025-12-29T11:43:27.875Z</time>
      </trkpt>
      <trkpt lat="43.14639" lon="3.10829">
        <ele>81</ele>
        <time>2025-12-29T11:43:28.875Z</time>
      </trkpt>
      <trkpt lat="43.1464" lon="3.10828">
        <ele>81</ele>
        <time>2025-12-29T11:43:29.875Z</time>
      </trkpt>
      <trkpt lat="43.1464" lon="3.10827">
        <ele>81</ele>
        <time>2025-12-29T11:43:30.875Z</time>
      </trkpt>
      <trkpt lat="43.14641" lon="3.10826">
        <ele>81</ele>
        <time>2025-12-29T11:43:31.875Z</time>
      </trkpt>
      <trkpt lat="43.14643" lon="3.10825">
        <ele>81</ele>
        <time>2025-12-29T11:43:32.875Z</time>
      </trkpt>
      <trkpt lat="43.14645" lon="3.10825">
        <ele>81</ele>
        <time>2025-12-29T11:43:33.875Z</time>
      </trkpt>
      <trkpt lat="43.14646" lon="3.10824">
        <ele>81</ele>
        <time>2025-12-29T11:43:34.875Z</time>
      </trkpt>
      <trkpt lat="43.14648" lon="3.10823">
        <ele>81</ele>
        <time>2025-12-29T11:43:35.875Z</time>
      </trkpt>
      <trkpt lat="43.14649" lon="3.10822">
        <ele>81</ele>
        <time>2025-12-29T11:43:36.875Z</time>
      </trkpt>
      <trkpt lat="43.1465" lon="3.10821">
        <ele>81</ele>
        <time>2025-12-29T11:43:37.875Z</time>
      </trkpt>
      <trkpt lat="43.1465" lon="3.1082">
        <ele>81</ele>
        <time>2025-12-29T11:43:38.875Z</time>
      </trkpt>
      <trkpt lat="43.14651" lon="3.10819">
        <ele>81</ele>
        <time>2025-12-29T11:43:39.875Z</time>
      </trkpt>
      <trkpt lat="43.14653" lon="3.10819">
        <ele>80</ele>
        <time>2025-12-29T11:43:40.875Z</time>
      </trkpt>
      <trkpt lat="43.14654" lon="3.10818">
        <ele>80</ele>
        <time>2025-12-29T11:43:41.875Z</time>
      </trkpt>
      <trkpt lat="43.14655" lon="3.10818">
        <ele>80</ele>
        <time>2025-12-29T11:43:42.875Z</time>
      </trkpt>
      <trkpt lat="43.14656" lon="3.10818">
        <ele>80</ele>
        <time>2025-12-29T11:43:43.875Z</time>
      </trkpt>
      <trkpt lat="43.14656" lon="3.10818">
        <ele>81</ele>
        <time>2025-12-29T11:43:44.875Z</time>
      </trkpt>
      <trkpt lat="43.14657" lon="3.10819">
        <ele>81</ele>
        <time>2025-12-29T11:43:45.875Z</time>
      </trkpt>
      <trkpt lat="43.14658" lon="3.10819">
        <ele>81</ele>
        <time>2025-12-29T11:43:46.875Z</time>
      </trkpt>
      <trkpt lat="43.14658" lon="3.10819">
        <ele>81</ele>
        <time>2025-12-29T11:43:47.875Z</time>
      </trkpt>
      <trkpt lat="43.14659" lon="3.1082">
        <ele>82</ele>
        <time>2025-12-29T11:43:48.875Z</time>
      </trkpt>
      <trkpt lat="43.1466" lon="3.1082">
        <ele>81</ele>
        <time>2025-12-29T11:43:49.875Z</time>
      </trkpt>
      <trkpt lat="43.14661" lon="3.1082">
        <ele>81</ele>
        <time>2025-12-29T11:43:50.875Z</time>
      </trkpt>
      <trkpt lat="43.14662" lon="3.10819">
        <ele>81</ele>
        <time>2025-12-29T11:43:51.875Z</time>
      </trkpt>
      <trkpt lat="43.14663" lon="3.10818">
        <ele>80</ele>
        <time>2025-12-29T11:43:52.875Z</time>
      </trkpt>
      <trkpt lat="43.14664" lon="3.10816">
        <ele>80</ele>
        <time>2025-12-29T11:43:53.875Z</time>
      </trkpt>
      <trkpt lat="43.14665" lon="3.10815">
        <ele>80</ele>
        <time>2025-12-29T11:43:54.875Z</time>
      </trkpt>
      <trkpt lat="43.14665" lon="3.10814">
        <ele>80</ele>
        <time>2025-12-29T11:43:55.875Z</time>
      </trkpt>
      <trkpt lat="43.14666" lon="3.10812">
        <ele>80</ele>
        <time>2025-12-29T11:43:56.875Z</time>
      </trkpt>
      <trkpt lat="43.14666" lon="3.10811">
        <ele>80</ele>
        <time>2025-12-29T11:43:57.875Z</time>
      </trkpt>
      <trkpt lat="43.14667" lon="3.10808">
        <ele>81</ele>
        <time>2025-12-29T11:43:58.875Z</time>
      </trkpt>
      <trkpt lat="43.14668" lon="3.10806">
        <ele>81</ele>
        <time>2025-12-29T11:43:59.875Z</time>
      </trkpt>
      <trkpt lat="43.14669" lon="3.10805">
        <ele>81</ele>
        <time>2025-12-29T11:44:00.875Z</time>
      </trkpt>
      <trkpt lat="43.14669" lon="3.10803">
        <ele>81</ele>
        <time>2025-12-29T11:44:01.875Z</time>
      </trkpt>
      <trkpt lat="43.1467" lon="3.10803">
        <ele>81</ele>
        <time>2025-12-29T11:44:02.875Z</time>
      </trkpt>
      <trkpt lat="43.1467" lon="3.10802">
        <ele>81</ele>
        <time>2025-12-29T11:44:03.875Z</time>
      </trkpt>
      <trkpt lat="43.14672" lon="3.108">
        <ele>82</ele>
        <time>2025-12-29T11:44:04.875Z</time>
      </trkpt>
      <trkpt lat="43.14672" lon="3.10799">
        <ele>82</ele>
        <time>2025-12-29T11:44:05.875Z</time>
      </trkpt>
      <trkpt lat="43.14673" lon="3.10799">
        <ele>82</ele>
        <time>2025-12-29T11:44:06.875Z</time>
      </trkpt>
      <trkpt lat="43.14675" lon="3.10798">
        <ele>82</ele>
        <time>2025-12-29T11:44:07.875Z</time>
      </trkpt>
      <trkpt lat="43.14676" lon="3.10798">
        <ele>82</ele>
        <time>2025-12-29T11:44:08.875Z</time>
      </trkpt>
      <trkpt lat="43.14678" lon="3.10797">
        <ele>82</ele>
        <time>2025-12-29T11:44:09.875Z</time>
      </trkpt>
      <trkpt lat="43.14679" lon="3.10797">
        <ele>82</ele>
        <time>2025-12-29T11:44:10.875Z</time>
      </trkpt>
      <trkpt lat="43.1468" lon="3.10795">
        <ele>82</ele>
        <time>2025-12-29T11:44:11.875Z</time>
      </trkpt>
      <trkpt lat="43.1468" lon="3.10794">
        <ele>82</ele>
        <time>2025-12-29T11:44:12.875Z</time>
      </trkpt>
      <trkpt lat="43.1468" lon="3.10792">
        <ele>82</ele>
        <time>2025-12-29T11:44:13.875Z</time>
      </trkpt>
      <trkpt lat="43.1468" lon="3.1079">
        <ele>82</ele>
        <time>2025-12-29T11:44:14.875Z</time>
      </trkpt>
      <trkpt lat="43.1468" lon="3.10789">
        <ele>82</ele>
        <time>2025-12-29T11:44:15.875Z</time>
      </trkpt>
      <trkpt lat="43.1468" lon="3.10788">
        <ele>82</ele>
        <time>2025-12-29T11:44:16.875Z</time>
      </trkpt>
      <trkpt lat="43.1468" lon="3.10788">
        <ele>82</ele>
        <time>2025-12-29T11:44:17.875Z</time>
      </trkpt>
      <trkpt lat="43.1468" lon="3.10788">
        <ele>82</ele>
        <time>2025-12-29T11:44:18.875Z</time>
      </trkpt>
      <trkpt lat="43.14681" lon="3.10787">
        <ele>82</ele>
        <time>2025-12-29T11:44:19.875Z</time>
      </trkpt>
      <trkpt lat="43.14682" lon="3.10787">
        <ele>82</ele>
        <time>2025-12-29T11:44:20.875Z</time>
      </trkpt>
      <trkpt lat="43.14684" lon="3.10787">
        <ele>82</ele>
        <time>2025-12-29T11:44:21.875Z</time>
      </trkpt>
      <trkpt lat="43.14685" lon="3.10786">
        <ele>83</ele>
        <time>2025-12-29T11:44:22.875Z</time>
      </trkpt>
      <trkpt lat="43.14687" lon="3.10786">
        <ele>83</ele>
        <time>2025-12-29T11:44:23.875Z</time>
      </trkpt>
      <trkpt lat="43.14688" lon="3.10785">
        <ele>82</ele>
        <time>2025-12-29T11:44:24.875Z</time>
      </trkpt>
      <trkpt lat="43.14689" lon="3.10784">
        <ele>83</ele>
        <time>2025-12-29T11:44:25.875Z</time>
      </trkpt>
      <trkpt lat="43.1469" lon="3.10783">
        <ele>83</ele>
        <time>2025-12-29T11:44:26.876Z</time>
      </trkpt>
      <trkpt lat="43.14691" lon="3.10782">
        <ele>83</ele>
        <time>2025-12-29T11:44:27.875Z</time>
      </trkpt>
      <trkpt lat="43.14692" lon="3.10781">
        <ele>84</ele>
        <time>2025-12-29T11:44:28.875Z</time>
      </trkpt>
      <trkpt lat="43.14693" lon="3.10779">
        <ele>84</ele>
        <time>2025-12-29T11:44:29.875Z</time>
      </trkpt>
      <trkpt lat="43.14693" lon="3.10778">
        <ele>84</ele>
        <time>2025-12-29T11:44:30.875Z</time>
      </trkpt>
      <trkpt lat="43.14694" lon="3.10776">
        <ele>85</ele>
        <time>2025-12-29T11:44:31.875Z</time>
      </trkpt>
      <trkpt lat="43.14695" lon="3.10774">
        <ele>85</ele>
        <time>2025-12-29T11:44:32.875Z</time>
      </trkpt>
      <trkpt lat="43.14695" lon="3.10772">
        <ele>86</ele>
        <time>2025-12-29T11:44:33.875Z</time>
      </trkpt>
      <trkpt lat="43.14695" lon="3.1077">
        <ele>86</ele>
        <time>2025-12-29T11:44:34.875Z</time>
      </trkpt>
      <trkpt lat="43.14695" lon="3.10768">
        <ele>86</ele>
        <time>2025-12-29T11:44:35.875Z</time>
      </trkpt>
      <trkpt lat="43.14695" lon="3.10766">
        <ele>86</ele>
        <time>2025-12-29T11:44:36.875Z</time>
      </trkpt>
      <trkpt lat="43.14695" lon="3.10765">
        <ele>87</ele>
        <time>2025-12-29T11:44:37.875Z</time>
      </trkpt>
      <trkpt lat="43.14696" lon="3.10763">
        <ele>87</ele>
        <time>2025-12-29T11:44:38.875Z</time>
      </trkpt>
      <trkpt lat="43.14696" lon="3.10763">
        <ele>88</ele>
        <time>2025-12-29T11:44:39.875Z</time>
      </trkpt>
      <trkpt lat="43.14697" lon="3.10762">
        <ele>88</ele>
        <time>2025-12-29T11:44:40.875Z</time>
      </trkpt>
      <trkpt lat="43.14698" lon="3.10762">
        <ele>88</ele>
        <time>2025-12-29T11:44:41.875Z</time>
      </trkpt>
      <trkpt lat="43.14699" lon="3.10761">
        <ele>88</ele>
        <time>2025-12-29T11:44:42.875Z</time>
      </trkpt>
      <trkpt lat="43.147" lon="3.10759">
        <ele>89</ele>
        <time>2025-12-29T11:44:43.875Z</time>
      </trkpt>
      <trkpt lat="43.14701" lon="3.10758">
        <ele>89</ele>
        <time>2025-12-29T11:44:44.875Z</time>
      </trkpt>
      <trkpt lat="43.14702" lon="3.10757">
        <ele>89</ele>
        <time>2025-12-29T11:44:45.875Z</time>
      </trkpt>
      <trkpt lat="43.14702" lon="3.10755">
        <ele>90</ele>
        <time>2025-12-29T11:44:46.875Z</time>
      </trkpt>
      <trkpt lat="43.14703" lon="3.10754">
        <ele>90</ele>
        <time>2025-12-29T11:44:47.875Z</time>
      </trkpt>
      <trkpt lat="43.14703" lon="3.10754">
        <ele>90</ele>
        <time>2025-12-29T11:44:48.875Z</time>
      </trkpt>
      <trkpt lat="43.14705" lon="3.10752">
        <ele>90</ele>
        <time>2025-12-29T11:44:49.875Z</time>
      </trkpt>
      <trkpt lat="43.14707" lon="3.10751">
        <ele>90</ele>
        <time>2025-12-29T11:44:50.875Z</time>
      </trkpt>
      <trkpt lat="43.14708" lon="3.10749">
        <ele>89</ele>
        <time>2025-12-29T11:44:51.875Z</time>
      </trkpt>
      <trkpt lat="43.1471" lon="3.10748">
        <ele>89</ele>
        <time>2025-12-29T11:44:52.875Z</time>
      </trkpt>
      <trkpt lat="43.14711" lon="3.10746">
        <ele>89</ele>
        <time>2025-12-29T11:44:53.875Z</time>
      </trkpt>
      <trkpt lat="43.14712" lon="3.10745">
        <ele>88</ele>
        <time>2025-12-29T11:44:54.875Z</time>
      </trkpt>
      <trkpt lat="43.14712" lon="3.10744">
        <ele>88</ele>
        <time>2025-12-29T11:44:55.875Z</time>
      </trkpt>
      <trkpt lat="43.14712" lon="3.10743">
        <ele>88</ele>
        <time>2025-12-29T11:44:56.875Z</time>
      </trkpt>
      <trkpt lat="43.14713" lon="3.10742">
        <ele>88</ele>
        <time>2025-12-29T11:44:57.875Z</time>
      </trkpt>
      <trkpt lat="43.14714" lon="3.10741">
        <ele>87</ele>
        <time>2025-12-29T11:44:58.875Z</time>
      </trkpt>
      <trkpt lat="43.14716" lon="3.1074">
        <ele>87</ele>
        <time>2025-12-29T11:44:59.875Z</time>
      </trkpt>
      <trkpt lat="43.14716" lon="3.10739">
        <ele>87</ele>
        <time>2025-12-29T11:45:00.875Z</time>
      </trkpt>
      <trkpt lat="43.14716" lon="3.10739">
        <ele>87</ele>
        <time>2025-12-29T11:45:01.875Z</time>
      </trkpt>
      <trkpt lat="43.14717" lon="3.10739">
        <ele>87</ele>
        <time>2025-12-29T11:45:02.875Z</time>
      </trkpt>
      <trkpt lat="43.14717" lon="3.10739">
        <ele>86</ele>
        <time>2025-12-29T11:45:03.875Z</time>
      </trkpt>
      <trkpt lat="43.14718" lon="3.10739">
        <ele>86</ele>
        <time>2025-12-29T11:45:04.875Z</time>
      </trkpt>
      <trkpt lat="43.14718" lon="3.10739">
        <ele>86</ele>
        <time>2025-12-29T11:45:05.875Z</time>
      </trkpt>
      <trkpt lat="43.14719" lon="3.10739">
        <ele>86</ele>
        <time>2025-12-29T11:45:06.875Z</time>
      </trkpt>
      <trkpt lat="43.14719" lon="3.1074">
        <ele>86</ele>
        <time>2025-12-29T11:45:07.875Z</time>
      </trkpt>
      <trkpt lat="43.14719" lon="3.1074">
        <ele>85</ele>
        <time>2025-12-29T11:45:08.875Z</time>
      </trkpt>
      <trkpt lat="43.14719" lon="3.1074">
        <ele>85</ele>
        <time>2025-12-29T11:45:09.875Z</time>
      </trkpt>
      <trkpt lat="43.1472" lon="3.10739">
        <ele>84</ele>
        <time>2025-12-29T11:45:10.875Z</time>
      </trkpt>
      <trkpt lat="43.14719" lon="3.1074">
        <ele>84</ele>
        <time>2025-12-29T11:45:11.875Z</time>
      </trkpt>
      <trkpt lat="43.14719" lon="3.1074">
        <ele>83</ele>
        <time>2025-12-29T11:45:12.875Z</time>
      </trkpt>
      <trkpt lat="43.14719" lon="3.10741">
        <ele>83</ele>
        <time>2025-12-29T11:45:13.875Z</time>
      </trkpt>
      <trkpt lat="43.14719" lon="3.10742">
        <ele>82</ele>
        <time>2025-12-29T11:45:14.875Z</time>
      </trkpt>
      <trkpt lat="43.14719" lon="3.10742">
        <ele>82</ele>
        <time>2025-12-29T11:45:15.875Z</time>
      </trkpt>
      <trkpt lat="43.14719" lon="3.10742">
        <ele>82</ele>
        <time>2025-12-29T11:45:16.875Z</time>
      </trkpt>
      <trkpt lat="43.1472" lon="3.10743">
        <ele>83</ele>
        <time>2025-12-29T11:45:17.875Z</time>
      </trkpt>
      <trkpt lat="43.1472" lon="3.10744">
        <ele>83</ele>
        <time>2025-12-29T11:45:18.875Z</time>
      </trkpt>
      <trkpt lat="43.1472" lon="3.10744">
        <ele>83</ele>
        <time>2025-12-29T11:45:19.875Z</time>
      </trkpt>
      <trkpt lat="43.1472" lon="3.10745">
        <ele>84</ele>
        <time>2025-12-29T11:45:20.875Z</time>
      </trkpt>
      <trkpt lat="43.1472" lon="3.10744">
        <ele>84</ele>
        <time>2025-12-29T11:45:21.875Z</time>
      </trkpt>
      <trkpt lat="43.1472" lon="3.10744">
        <ele>85</ele>
        <time>2025-12-29T11:45:22.875Z</time>
      </trkpt>
      <trkpt lat="43.14721" lon="3.10745">
        <ele>85</ele>
        <time>2025-12-29T11:45:23.875Z</time>
      </trkpt>
      <trkpt lat="43.14721" lon="3.10745">
        <ele>86</ele>
        <time>2025-12-29T11:45:24.875Z</time>
      </trkpt>
      <trkpt lat="43.14722" lon="3.10745">
        <ele>86</ele>
        <time>2025-12-29T11:45:25.875Z</time>
      </trkpt>
      <trkpt lat="43.14722" lon="3.10745">
        <ele>87</ele>
        <time>2025-12-29T11:45:26.875Z</time>
      </trkpt>
      <trkpt lat="43.14722" lon="3.10745">
        <ele>87</ele>
        <time>2025-12-29T11:45:27.875Z</time>
      </trkpt>
      <trkpt lat="43.14723" lon="3.10746">
        <ele>87</ele>
        <time>2025-12-29T11:45:28.875Z</time>
      </trkpt>
      <trkpt lat="43.14723" lon="3.10746">
        <ele>88</ele>
        <time>2025-12-29T11:45:29.875Z</time>
      </trkpt>
      <trkpt lat="43.14723" lon="3.10747">
        <ele>88</ele>
        <time>2025-12-29T11:45:30.875Z</time>
      </trkpt>
      <trkpt lat="43.14724" lon="3.10747">
        <ele>88</ele>
        <time>2025-12-29T11:45:31.875Z</time>
      </trkpt>
      <trkpt lat="43.14724" lon="3.10747">
        <ele>88</ele>
        <time>2025-12-29T11:45:32.875Z</time>
      </trkpt>
      <trkpt lat="43.14725" lon="3.10748">
        <ele>88</ele>
        <time>2025-12-29T11:45:33.875Z</time>
      </trkpt>
      <trkpt lat="43.14726" lon="3.10748">
        <ele>89</ele>
        <time>2025-12-29T11:45:34.875Z</time>
      </trkpt>
      <trkpt lat="43.14726" lon="3.10748">
        <ele>89</ele>
        <time>2025-12-29T11:45:35.875Z</time>
      </trkpt>
      <trkpt lat="43.14726" lon="3.10748">
        <ele>90</ele>
        <time>2025-12-29T11:45:36.875Z</time>
      </trkpt>
      <trkpt lat="43.14727" lon="3.10748">
        <ele>90</ele>
        <time>2025-12-29T11:45:37.875Z</time>
      </trkpt>
      <trkpt lat="43.14727" lon="3.10748">
        <ele>90</ele>
        <time>2025-12-29T11:45:38.875Z</time>
      </trkpt>
      <trkpt lat="43.14728" lon="3.10749">
        <ele>91</ele>
        <time>2025-12-29T11:45:39.875Z</time>
      </trkpt>
      <trkpt lat="43.1473" lon="3.10748">
        <ele>91</ele>
        <time>2025-12-29T11:45:40.875Z</time>
      </trkpt>
      <trkpt lat="43.1473" lon="3.10748">
        <ele>91</ele>
        <time>2025-12-29T11:45:41.875Z</time>
      </trkpt>
      <trkpt lat="43.14731" lon="3.10748">
        <ele>91</ele>
        <time>2025-12-29T11:45:42.875Z</time>
      </trkpt>
      <trkpt lat="43.14731" lon="3.10747">
        <ele>91</ele>
        <time>2025-12-29T11:45:43.875Z</time>
      </trkpt>
      <trkpt lat="43.14731" lon="3.10747">
        <ele>92</ele>
        <time>2025-12-29T11:45:44.875Z</time>
      </trkpt>
      <trkpt lat="43.14732" lon="3.10747">
        <ele>92</ele>
        <time>2025-12-29T11:45:45.875Z</time>
      </trkpt>
      <trkpt lat="43.14733" lon="3.10747">
        <ele>92</ele>
        <time>2025-12-29T11:45:46.875Z</time>
      </trkpt>
      <trkpt lat="43.14733" lon="3.10747">
        <ele>92</ele>
        <time>2025-12-29T11:45:47.875Z</time>
      </trkpt>
      <trkpt lat="43.14734" lon="3.10747">
        <ele>92</ele>
        <time>2025-12-29T11:45:48.875Z</time>
      </trkpt>
      <trkpt lat="43.14734" lon="3.10747">
        <ele>92</ele>
        <time>2025-12-29T11:45:49.875Z</time>
      </trkpt>
      <trkpt lat="43.14734" lon="3.10747">
        <ele>92</ele>
        <time>2025-12-29T11:45:50.875Z</time>
      </trkpt>
      <trkpt lat="43.14735" lon="3.10747">
        <ele>93</ele>
        <time>2025-12-29T11:45:51.875Z</time>
      </trkpt>
      <trkpt lat="43.14736" lon="3.10748">
        <ele>93</ele>
        <time>2025-12-29T11:45:52.875Z</time>
      </trkpt>
      <trkpt lat="43.14736" lon="3.10748">
        <ele>94</ele>
        <time>2025-12-29T11:45:53.875Z</time>
      </trkpt>
      <trkpt lat="43.14737" lon="3.10748">
        <ele>94</ele>
        <time>2025-12-29T11:45:54.875Z</time>
      </trkpt>
      <trkpt lat="43.14737" lon="3.10747">
        <ele>94</ele>
        <time>2025-12-29T11:45:55.875Z</time>
      </trkpt>
      <trkpt lat="43.14737" lon="3.10748">
        <ele>94</ele>
        <time>2025-12-29T11:45:56.875Z</time>
      </trkpt>
      <trkpt lat="43.14737" lon="3.10749">
        <ele>94</ele>
        <time>2025-12-29T11:45:57.875Z</time>
      </trkpt>
      <trkpt lat="43.14737" lon="3.1075">
        <ele>95</ele>
        <time>2025-12-29T11:45:58.875Z</time>
      </trkpt>
      <trkpt lat="43.14738" lon="3.10752">
        <ele>95</ele>
        <time>2025-12-29T11:45:59.875Z</time>
      </trkpt>
      <trkpt lat="43.14738" lon="3.10754">
        <ele>95</ele>
        <time>2025-12-29T11:46:00.875Z</time>
      </trkpt>
      <trkpt lat="43.14738" lon="3.10755">
        <ele>95</ele>
        <time>2025-12-29T11:46:01.875Z</time>
      </trkpt>
      <trkpt lat="43.14739" lon="3.10756">
        <ele>95</ele>
        <time>2025-12-29T11:46:02.875Z</time>
      </trkpt>
      <trkpt lat="43.14739" lon="3.10757">
        <ele>95</ele>
        <time>2025-12-29T11:46:03.875Z</time>
      </trkpt>
      <trkpt lat="43.1474" lon="3.10758">
        <ele>95</ele>
        <time>2025-12-29T11:46:04.875Z</time>
      </trkpt>
      <trkpt lat="43.1474" lon="3.10758">
        <ele>95</ele>
        <time>2025-12-29T11:46:05.875Z</time>
      </trkpt>
      <trkpt lat="43.14741" lon="3.10759">
        <ele>95</ele>
        <time>2025-12-29T11:46:06.875Z</time>
      </trkpt>
      <trkpt lat="43.14741" lon="3.10759">
        <ele>95</ele>
        <time>2025-12-29T11:46:07.875Z</time>
      </trkpt>
      <trkpt lat="43.14741" lon="3.10759">
        <ele>95</ele>
        <time>2025-12-29T11:46:08.875Z</time>
      </trkpt>
      <trkpt lat="43.14742" lon="3.1076">
        <ele>96</ele>
        <time>2025-12-29T11:46:09.875Z</time>
      </trkpt>
      <trkpt lat="43.14742" lon="3.10761">
        <ele>96</ele>
        <time>2025-12-29T11:46:10.875Z</time>
      </trkpt>
      <trkpt lat="43.14742" lon="3.10762">
        <ele>96</ele>
        <time>2025-12-29T11:46:11.875Z</time>
      </trkpt>
      <trkpt lat="43.14743" lon="3.10763">
        <ele>97</ele>
        <time>2025-12-29T11:46:12.875Z</time>
      </trkpt>
      <trkpt lat="43.14744" lon="3.10763">
        <ele>97</ele>
        <time>2025-12-29T11:46:13.875Z</time>
      </trkpt>
      <trkpt lat="43.14744" lon="3.10765">
        <ele>97</ele>
        <time>2025-12-29T11:46:14.875Z</time>
      </trkpt>
      <trkpt lat="43.14745" lon="3.10767">
        <ele>98</ele>
        <time>2025-12-29T11:46:15.875Z</time>
      </trkpt>
      <trkpt lat="43.14746" lon="3.10768">
        <ele>98</ele>
        <time>2025-12-29T11:46:16.875Z</time>
      </trkpt>
      <trkpt lat="43.14746" lon="3.10768">
        <ele>99</ele>
        <time>2025-12-29T11:46:17.875Z</time>
      </trkpt>
      <trkpt lat="43.14747" lon="3.10769">
        <ele>99</ele>
        <time>2025-12-29T11:46:18.875Z</time>
      </trkpt>
      <trkpt lat="43.14748" lon="3.10768">
        <ele>100</ele>
        <time>2025-12-29T11:46:19.875Z</time>
      </trkpt>
      <trkpt lat="43.14748" lon="3.10768">
        <ele>100</ele>
        <time>2025-12-29T11:46:20.875Z</time>
      </trkpt>
      <trkpt lat="43.14748" lon="3.10768">
        <ele>100</ele>
        <time>2025-12-29T11:46:21.875Z</time>
      </trkpt>
      <trkpt lat="43.14749" lon="3.10767">
        <ele>100</ele>
        <time>2025-12-29T11:46:22.875Z</time>
      </trkpt>
      <trkpt lat="43.14752" lon="3.10764">
        <ele>101</ele>
        <time>2025-12-29T11:46:23.875Z</time>
      </trkpt>
      <trkpt lat="43.14753" lon="3.10763">
        <ele>101</ele>
        <time>2025-12-29T11:46:24.875Z</time>
      </trkpt>
      <trkpt lat="43.14753" lon="3.10762">
        <ele>102</ele>
        <time>2025-12-29T11:46:25.875Z</time>
      </trkpt>
      <trkpt lat="43.14754" lon="3.10761">
        <ele>102</ele>
        <time>2025-12-29T11:46:26.875Z</time>
      </trkpt>
      <trkpt lat="43.14754" lon="3.1076">
        <ele>102</ele>
        <time>2025-12-29T11:46:27.875Z</time>
      </trkpt>
      <trkpt lat="43.14755" lon="3.1076">
        <ele>102</ele>
        <time>2025-12-29T11:46:28.875Z</time>
      </trkpt>
      <trkpt lat="43.14755" lon="3.10759">
        <ele>101</ele>
        <time>2025-12-29T11:46:29.875Z</time>
      </trkpt>
      <trkpt lat="43.14755" lon="3.10759">
        <ele>102</ele>
        <time>2025-12-29T11:46:30.875Z</time>
      </trkpt>
      <trkpt lat="43.14755" lon="3.10758">
        <ele>101</ele>
        <time>2025-12-29T11:46:31.875Z</time>
      </trkpt>
      <trkpt lat="43.14756" lon="3.10757">
        <ele>102</ele>
        <time>2025-12-29T11:46:32.875Z</time>
      </trkpt>
      <trkpt lat="43.14757" lon="3.10757">
        <ele>101</ele>
        <time>2025-12-29T11:46:33.875Z</time>
      </trkpt>
      <trkpt lat="43.14757" lon="3.10756">
        <ele>101</ele>
        <time>2025-12-29T11:46:34.875Z</time>
      </trkpt>
      <trkpt lat="43.14758" lon="3.10756">
        <ele>101</ele>
        <time>2025-12-29T11:46:35.875Z</time>
      </trkpt>
      <trkpt lat="43.14759" lon="3.10755">
        <ele>101</ele>
        <time>2025-12-29T11:46:36.875Z</time>
      </trkpt>
      <trkpt lat="43.1476" lon="3.10755">
        <ele>101</ele>
        <time>2025-12-29T11:46:37.875Z</time>
      </trkpt>
      <trkpt lat="43.14761" lon="3.10755">
        <ele>101</ele>
        <time>2025-12-29T11:46:38.875Z</time>
      </trkpt>
      <trkpt lat="43.14762" lon="3.10755">
        <ele>100</ele>
        <time>2025-12-29T11:46:39.875Z</time>
      </trkpt>
      <trkpt lat="43.14763" lon="3.10754">
        <ele>101</ele>
        <time>2025-12-29T11:46:40.875Z</time>
      </trkpt>
      <trkpt lat="43.14764" lon="3.10755">
        <ele>101</ele>
        <time>2025-12-29T11:46:41.875Z</time>
      </trkpt>
      <trkpt lat="43.14765" lon="3.10755">
        <ele>101</ele>
        <time>2025-12-29T11:46:42.875Z</time>
      </trkpt>
      <trkpt lat="43.14765" lon="3.10755">
        <ele>101</ele>
        <time>2025-12-29T11:46:43.875Z</time>
      </trkpt>
      <trkpt lat="43.14766" lon="3.10755">
        <ele>102</ele>
        <time>2025-12-29T11:46:44.875Z</time>
      </trkpt>
      <trkpt lat="43.14766" lon="3.10756">
        <ele>102</ele>
        <time>2025-12-29T11:46:45.875Z</time>
      </trkpt>
      <trkpt lat="43.14766" lon="3.10756">
        <ele>102</ele>
        <time>2025-12-29T11:46:46.875Z</time>
      </trkpt>
      <trkpt lat="43.14767" lon="3.10757">
        <ele>102</ele>
        <time>2025-12-29T11:46:47.875Z</time>
      </trkpt>
      <trkpt lat="43.14767" lon="3.10757">
        <ele>102</ele>
        <time>2025-12-29T11:46:48.875Z</time>
      </trkpt>
      <trkpt lat="43.14767" lon="3.10757">
        <ele>102</ele>
        <time>2025-12-29T11:46:49.875Z</time>
      </trkpt>
      <trkpt lat="43.14767" lon="3.10757">
        <ele>103</ele>
        <time>2025-12-29T11:46:50.875Z</time>
      </trkpt>
      <trkpt lat="43.14767" lon="3.10758">
        <ele>103</ele>
        <time>2025-12-29T11:46:51.875Z</time>
      </trkpt>
      <trkpt lat="43.14767" lon="3.10758">
        <ele>103</ele>
        <time>2025-12-29T11:46:52.875Z</time>
      </trkpt>
      <trkpt lat="43.14767" lon="3.10758">
        <ele>103</ele>
        <time>2025-12-29T11:46:53.875Z</time>
      </trkpt>
      <trkpt lat="43.14768" lon="3.10758">
        <ele>104</ele>
        <time>2025-12-29T11:46:54.875Z</time>
      </trkpt>
      <trkpt lat="43.14768" lon="3.10758">
        <ele>104</ele>
        <time>2025-12-29T11:46:55.875Z</time>
      </trkpt>
      <trkpt lat="43.14768" lon="3.10759">
        <ele>104</ele>
        <time>2025-12-29T11:46:56.875Z</time>
      </trkpt>
      <trkpt lat="43.14768" lon="3.1076">
        <ele>104</ele>
        <time>2025-12-29T11:46:57.875Z</time>
      </trkpt>
      <trkpt lat="43.14769" lon="3.10761">
        <ele>104</ele>
        <time>2025-12-29T11:46:58.875Z</time>
      </trkpt>
      <trkpt lat="43.14769" lon="3.10761">
        <ele>104</ele>
        <time>2025-12-29T11:46:59.875Z</time>
      </trkpt>
      <trkpt lat="43.14769" lon="3.10761">
        <ele>104</ele>
        <time>2025-12-29T11:47:00.875Z</time>
      </trkpt>
      <trkpt lat="43.1477" lon="3.10762">
        <ele>105</ele>
        <time>2025-12-29T11:47:01.875Z</time>
      </trkpt>
      <trkpt lat="43.14771" lon="3.10762">
        <ele>105</ele>
        <time>2025-12-29T11:47:02.875Z</time>
      </trkpt>
      <trkpt lat="43.14772" lon="3.10763">
        <ele>105</ele>
        <time>2025-12-29T11:47:03.875Z</time>
      </trkpt>
      <trkpt lat="43.14774" lon="3.10763">
        <ele>105</ele>
        <time>2025-12-29T11:47:04.875Z</time>
      </trkpt>
      <trkpt lat="43.14775" lon="3.10763">
        <ele>105</ele>
        <time>2025-12-29T11:47:05.875Z</time>
      </trkpt>
      <trkpt lat="43.14776" lon="3.10762">
        <ele>105</ele>
        <time>2025-12-29T11:47:06.875Z</time>
      </trkpt>
      <trkpt lat="43.14778" lon="3.10762">
        <ele>105</ele>
        <time>2025-12-29T11:47:07.875Z</time>
      </trkpt>
      <trkpt lat="43.14779" lon="3.10761">
        <ele>106</ele>
        <time>2025-12-29T11:47:08.875Z</time>
      </trkpt>
      <trkpt lat="43.1478" lon="3.1076">
        <ele>106</ele>
        <time>2025-12-29T11:47:09.875Z</time>
      </trkpt>
      <trkpt lat="43.14781" lon="3.10759">
        <ele>107</ele>
        <time>2025-12-29T11:47:10.875Z</time>
      </trkpt>
      <trkpt lat="43.14783" lon="3.10758">
        <ele>107</ele>
        <time>2025-12-29T11:47:11.875Z</time>
      </trkpt>
      <trkpt lat="43.14784" lon="3.10756">
        <ele>107</ele>
        <time>2025-12-29T11:47:12.875Z</time>
      </trkpt>
      <trkpt lat="43.14784" lon="3.10755">
        <ele>107</ele>
        <time>2025-12-29T11:47:13.875Z</time>
      </trkpt>
      <trkpt lat="43.14785" lon="3.10754">
        <ele>107</ele>
        <time>2025-12-29T11:47:14.875Z</time>
      </trkpt>
      <trkpt lat="43.14786" lon="3.10752">
        <ele>107</ele>
        <time>2025-12-29T11:47:15.875Z</time>
      </trkpt>
      <trkpt lat="43.14787" lon="3.1075">
        <ele>107</ele>
        <time>2025-12-29T11:47:16.875Z</time>
      </trkpt>
      <trkpt lat="43.14787" lon="3.10749">
        <ele>107</ele>
        <time>2025-12-29T11:47:17.875Z</time>
      </trkpt>
      <trkpt lat="43.14788" lon="3.10748">
        <ele>107</ele>
        <time>2025-12-29T11:47:18.875Z</time>
      </trkpt>
      <trkpt lat="43.14788" lon="3.10747">
        <ele>106</ele>
        <time>2025-12-29T11:47:19.875Z</time>
      </trkpt>
      <trkpt lat="43.14789" lon="3.10746">
        <ele>106</ele>
        <time>2025-12-29T11:47:20.875Z</time>
      </trkpt>
      <trkpt lat="43.1479" lon="3.10745">
        <ele>106</ele>
        <time>2025-12-29T11:47:21.875Z</time>
      </trkpt>
      <trkpt lat="43.14791" lon="3.10744">
        <ele>106</ele>
        <time>2025-12-29T11:47:22.875Z</time>
      </trkpt>
      <trkpt lat="43.14792" lon="3.10743">
        <ele>106</ele>
        <time>2025-12-29T11:47:23.875Z</time>
      </trkpt>
      <trkpt lat="43.14792" lon="3.10743">
        <ele>106</ele>
        <time>2025-12-29T11:47:24.875Z</time>
      </trkpt>
      <trkpt lat="43.14792" lon="3.10741">
        <ele>107</ele>
        <time>2025-12-29T11:47:25.875Z</time>
      </trkpt>
      <trkpt lat="43.14794" lon="3.10739">
        <ele>107</ele>
        <time>2025-12-29T11:47:26.875Z</time>
      </trkpt>
      <trkpt lat="43.14795" lon="3.10737">
        <ele>107</ele>
        <time>2025-12-29T11:47:27.875Z</time>
      </trkpt>
      <trkpt lat="43.14796" lon="3.10736">
        <ele>107</ele>
        <time>2025-12-29T11:47:28.875Z</time>
      </trkpt>
      <trkpt lat="43.14797" lon="3.10734">
        <ele>107</ele>
        <time>2025-12-29T11:47:29.875Z</time>
      </trkpt>
      <trkpt lat="43.14797" lon="3.10733">
        <ele>107</ele>
        <time>2025-12-29T11:47:30.875Z</time>
      </trkpt>
      <trkpt lat="43.14797" lon="3.10731">
        <ele>107</ele>
        <time>2025-12-29T11:47:31.875Z</time>
      </trkpt>
      <trkpt lat="43.14797" lon="3.1073">
        <ele>106</ele>
        <time>2025-12-29T11:47:32.875Z</time>
      </trkpt>
      <trkpt lat="43.14798" lon="3.10729">
        <ele>106</ele>
        <time>2025-12-29T11:47:33.875Z</time>
      </trkpt>
      <trkpt lat="43.14798" lon="3.10726">
        <ele>106</ele>
        <time>2025-12-29T11:47:34.875Z</time>
      </trkpt>
      <trkpt lat="43.14799" lon="3.10724">
        <ele>106</ele>
        <time>2025-12-29T11:47:35.875Z</time>
      </trkpt>
      <trkpt lat="43.14801" lon="3.10722">
        <ele>106</ele>
        <time>2025-12-29T11:47:36.875Z</time>
      </trkpt>
      <trkpt lat="43.14801" lon="3.10721">
        <ele>106</ele>
        <time>2025-12-29T11:47:37.875Z</time>
      </trkpt>
      <trkpt lat="43.14801" lon="3.10719">
        <ele>106</ele>
        <time>2025-12-29T11:47:38.875Z</time>
      </trkpt>
      <trkpt lat="43.14801" lon="3.10717">
        <ele>106</ele>
        <time>2025-12-29T11:47:39.875Z</time>
      </trkpt>
      <trkpt lat="43.14801" lon="3.10717">
        <ele>106</ele>
        <time>2025-12-29T11:47:40.875Z</time>
      </trkpt>
      <trkpt lat="43.14803" lon="3.10714">
        <ele>106</ele>
        <time>2025-12-29T11:47:41.875Z</time>
      </trkpt>
      <trkpt lat="43.14804" lon="3.10713">
        <ele>106</ele>
        <time>2025-12-29T11:47:42.875Z</time>
      </trkpt>
      <trkpt lat="43.14805" lon="3.10711">
        <ele>106</ele>
        <time>2025-12-29T11:47:43.875Z</time>
      </trkpt>
      <trkpt lat="43.14806" lon="3.10711">
        <ele>106</ele>
        <time>2025-12-29T11:47:44.875Z</time>
      </trkpt>
      <trkpt lat="43.14806" lon="3.1071">
        <ele>106</ele>
        <time>2025-12-29T11:47:45.875Z</time>
      </trkpt>
      <trkpt lat="43.14807" lon="3.1071">
        <ele>106</ele>
        <time>2025-12-29T11:47:46.875Z</time>
      </trkpt>
      <trkpt lat="43.14808" lon="3.1071">
        <ele>106</ele>
        <time>2025-12-29T11:47:47.875Z</time>
      </trkpt>
      <trkpt lat="43.14809" lon="3.10709">
        <ele>106</ele>
        <time>2025-12-29T11:47:48.875Z</time>
      </trkpt>
      <trkpt lat="43.14809" lon="3.10708">
        <ele>105</ele>
        <time>2025-12-29T11:47:49.875Z</time>
      </trkpt>
      <trkpt lat="43.1481" lon="3.10708">
        <ele>105</ele>
        <time>2025-12-29T11:47:50.875Z</time>
      </trkpt>
      <trkpt lat="43.14811" lon="3.10707">
        <ele>105</ele>
        <time>2025-12-29T11:47:51.875Z</time>
      </trkpt>
      <trkpt lat="43.14811" lon="3.10706">
        <ele>104</ele>
        <time>2025-12-29T11:47:52.875Z</time>
      </trkpt>
      <trkpt lat="43.14812" lon="3.10706">
        <ele>104</ele>
        <time>2025-12-29T11:47:53.875Z</time>
      </trkpt>
      <trkpt lat="43.14812" lon="3.10705">
        <ele>104</ele>
        <time>2025-12-29T11:47:54.875Z</time>
      </trkpt>
      <trkpt lat="43.14813" lon="3.10704">
        <ele>104</ele>
        <time>2025-12-29T11:47:55.875Z</time>
      </trkpt>
      <trkpt lat="43.14813" lon="3.10704">
        <ele>104</ele>
        <time>2025-12-29T11:47:56.875Z</time>
      </trkpt>
      <trkpt lat="43.14813" lon="3.10703">
        <ele>103</ele>
        <time>2025-12-29T11:47:57.875Z</time>
      </trkpt>
      <trkpt lat="43.14813" lon="3.10703">
        <ele>103</ele>
        <time>2025-12-29T11:47:58.875Z</time>
      </trkpt>
      <trkpt lat="43.14813" lon="3.10703">
        <ele>102</ele>
        <time>2025-12-29T11:47:59.875Z</time>
      </trkpt>
      <trkpt lat="43.14814" lon="3.10703">
        <ele>102</ele>
        <time>2025-12-29T11:48:00.875Z</time>
      </trkpt>
      <trkpt lat="43.14814" lon="3.10703">
        <ele>101</ele>
        <time>2025-12-29T11:48:01.875Z</time>
      </trkpt>
      <trkpt lat="43.14814" lon="3.10702">
        <ele>101</ele>
        <time>2025-12-29T11:48:02.875Z</time>
      </trkpt>
      <trkpt lat="43.14815" lon="3.10702">
        <ele>100</ele>
        <time>2025-12-29T11:48:03.875Z</time>
      </trkpt>
      <trkpt lat="43.14815" lon="3.10701">
        <ele>100</ele>
        <time>2025-12-29T11:48:04.875Z</time>
      </trkpt>
      <trkpt lat="43.14816" lon="3.10701">
        <ele>100</ele>
        <time>2025-12-29T11:48:05.875Z</time>
      </trkpt>
      <trkpt lat="43.14816" lon="3.107">
        <ele>100</ele>
        <time>2025-12-29T11:48:06.875Z</time>
      </trkpt>
      <trkpt lat="43.14817" lon="3.10699">
        <ele>100</ele>
        <time>2025-12-29T11:48:07.875Z</time>
      </trkpt>
      <trkpt lat="43.14817" lon="3.10699">
        <ele>100</ele>
        <time>2025-12-29T11:48:08.875Z</time>
      </trkpt>
      <trkpt lat="43.14818" lon="3.10699">
        <ele>101</ele>
        <time>2025-12-29T11:48:09.875Z</time>
      </trkpt>
      <trkpt lat="43.14818" lon="3.10699">
        <ele>101</ele>
        <time>2025-12-29T11:48:10.875Z</time>
      </trkpt>
      <trkpt lat="43.14818" lon="3.10699">
        <ele>102</ele>
        <time>2025-12-29T11:48:11.875Z</time>
      </trkpt>
      <trkpt lat="43.14818" lon="3.10699">
        <ele>102</ele>
        <time>2025-12-29T11:48:12.875Z</time>
      </trkpt>
      <trkpt lat="43.14818" lon="3.10699">
        <ele>102</ele>
        <time>2025-12-29T11:48:13.875Z</time>
      </trkpt>
      <trkpt lat="43.14819" lon="3.10698">
        <ele>102</ele>
        <time>2025-12-29T11:48:14.875Z</time>
      </trkpt>
      <trkpt lat="43.1482" lon="3.10698">
        <ele>102</ele>
        <time>2025-12-29T11:48:15.875Z</time>
      </trkpt>
      <trkpt lat="43.1482" lon="3.10698">
        <ele>102</ele>
        <time>2025-12-29T11:48:16.875Z</time>
      </trkpt>
      <trkpt lat="43.1482" lon="3.10698">
        <ele>103</ele>
        <time>2025-12-29T11:48:17.875Z</time>
      </trkpt>
      <trkpt lat="43.1482" lon="3.10698">
        <ele>103</ele>
        <time>2025-12-29T11:48:18.875Z</time>
      </trkpt>
      <trkpt lat="43.14821" lon="3.10697">
        <ele>104</ele>
        <time>2025-12-29T11:48:19.875Z</time>
      </trkpt>
      <trkpt lat="43.14821" lon="3.10697">
        <ele>104</ele>
        <time>2025-12-29T11:48:20.875Z</time>
      </trkpt>
      <trkpt lat="43.14821" lon="3.10696">
        <ele>105</ele>
        <time>2025-12-29T11:48:21.875Z</time>
      </trkpt>
      <trkpt lat="43.14822" lon="3.10696">
        <ele>105</ele>
        <time>2025-12-29T11:48:22.875Z</time>
      </trkpt>
      <trkpt lat="43.14823" lon="3.10695">
        <ele>105</ele>
        <time>2025-12-29T11:48:23.875Z</time>
      </trkpt>
      <trkpt lat="43.14823" lon="3.10695">
        <ele>105</ele>
        <time>2025-12-29T11:48:24.875Z</time>
      </trkpt>
      <trkpt lat="43.14824" lon="3.10695">
        <ele>105</ele>
        <time>2025-12-29T11:48:25.875Z</time>
      </trkpt>
      <trkpt lat="43.14824" lon="3.10695">
        <ele>105</ele>
        <time>2025-12-29T11:48:26.875Z</time>
      </trkpt>
      <trkpt lat="43.14825" lon="3.10695">
        <ele>106</ele>
        <time>2025-12-29T11:48:27.875Z</time>
      </trkpt>
      <trkpt lat="43.14825" lon="3.10695">
        <ele>106</ele>
        <time>2025-12-29T11:48:28.875Z</time>
      </trkpt>
      <trkpt lat="43.14825" lon="3.10695">
        <ele>106</ele>
        <time>2025-12-29T11:48:29.875Z</time>
      </trkpt>
      <trkpt lat="43.14826" lon="3.10695">
        <ele>106</ele>
        <time>2025-12-29T11:48:30.875Z</time>
      </trkpt>
      <trkpt lat="43.14827" lon="3.10695">
        <ele>105</ele>
        <time>2025-12-29T11:48:31.875Z</time>
      </trkpt>
      <trkpt lat="43.14828" lon="3.10694">
        <ele>105</ele>
        <time>2025-12-29T11:48:32.875Z</time>
      </trkpt>
      <trkpt lat="43.14828" lon="3.10694">
        <ele>106</ele>
        <time>2025-12-29T11:48:33.875Z</time>
      </trkpt>
      <trkpt lat="43.14829" lon="3.10694">
        <ele>106</ele>
        <time>2025-12-29T11:48:34.875Z</time>
      </trkpt>
      <trkpt lat="43.1483" lon="3.10693">
        <ele>107</ele>
        <time>2025-12-29T11:48:35.875Z</time>
      </trkpt>
      <trkpt lat="43.14831" lon="3.10692">
        <ele>108</ele>
        <time>2025-12-29T11:48:36.875Z</time>
      </trkpt>
      <trkpt lat="43.14832" lon="3.10691">
        <ele>108</ele>
        <time>2025-12-29T11:48:37.875Z</time>
      </trkpt>
      <trkpt lat="43.14833" lon="3.1069">
        <ele>109</ele>
        <time>2025-12-29T11:48:38.875Z</time>
      </trkpt>
      <trkpt lat="43.14834" lon="3.10689">
        <ele>110</ele>
        <time>2025-12-29T11:48:39.875Z</time>
      </trkpt>
      <trkpt lat="43.14835" lon="3.1069">
        <ele>110</ele>
        <time>2025-12-29T11:48:40.875Z</time>
      </trkpt>
      <trkpt lat="43.14835" lon="3.1069">
        <ele>110</ele>
        <time>2025-12-29T11:48:41.875Z</time>
      </trkpt>
      <trkpt lat="43.14837" lon="3.10688">
        <ele>111</ele>
        <time>2025-12-29T11:48:42.875Z</time>
      </trkpt>
      <trkpt lat="43.14838" lon="3.10687">
        <ele>111</ele>
        <time>2025-12-29T11:48:43.875Z</time>
      </trkpt>
      <trkpt lat="43.14838" lon="3.10687">
        <ele>111</ele>
        <time>2025-12-29T11:48:44.875Z</time>
      </trkpt>
      <trkpt lat="43.14839" lon="3.10687">
        <ele>111</ele>
        <time>2025-12-29T11:48:45.875Z</time>
      </trkpt>
      <trkpt lat="43.14839" lon="3.10686">
        <ele>112</ele>
        <time>2025-12-29T11:48:46.875Z</time>
      </trkpt>
      <trkpt lat="43.14839" lon="3.10686">
        <ele>112</ele>
        <time>2025-12-29T11:48:47.875Z</time>
      </trkpt>
      <trkpt lat="43.1484" lon="3.10685">
        <ele>112</ele>
        <time>2025-12-29T11:48:48.875Z</time>
      </trkpt>
      <trkpt lat="43.14841" lon="3.10685">
        <ele>112</ele>
        <time>2025-12-29T11:48:49.875Z</time>
      </trkpt>
      <trkpt lat="43.14842" lon="3.10685">
        <ele>112</ele>
        <time>2025-12-29T11:48:50.875Z</time>
      </trkpt>
      <trkpt lat="43.14842" lon="3.10685">
        <ele>113</ele>
        <time>2025-12-29T11:48:51.875Z</time>
      </trkpt>
      <trkpt lat="43.14842" lon="3.10685">
        <ele>113</ele>
        <time>2025-12-29T11:48:52.875Z</time>
      </trkpt>
      <trkpt lat="43.14842" lon="3.10685">
        <ele>113</ele>
        <time>2025-12-29T11:48:53.875Z</time>
      </trkpt>
      <trkpt lat="43.14842" lon="3.10684">
        <ele>113</ele>
        <time>2025-12-29T11:48:54.875Z</time>
      </trkpt>
      <trkpt lat="43.14843" lon="3.10684">
        <ele>113</ele>
        <time>2025-12-29T11:48:55.875Z</time>
      </trkpt>
      <trkpt lat="43.14843" lon="3.10684">
        <ele>113</ele>
        <time>2025-12-29T11:48:56.875Z</time>
      </trkpt>
      <trkpt lat="43.14844" lon="3.10684">
        <ele>114</ele>
        <time>2025-12-29T11:48:57.875Z</time>
      </trkpt>
      <trkpt lat="43.14846" lon="3.10686">
        <ele>114</ele>
        <time>2025-12-29T11:48:58.875Z</time>
      </trkpt>
      <trkpt lat="43.14846" lon="3.10686">
        <ele>114</ele>
        <time>2025-12-29T11:48:59.875Z</time>
      </trkpt>
      <trkpt lat="43.14847" lon="3.10686">
        <ele>114</ele>
        <time>2025-12-29T11:49:00.875Z</time>
      </trkpt>
      <trkpt lat="43.14848" lon="3.10686">
        <ele>114</ele>
        <time>2025-12-29T11:49:01.875Z</time>
      </trkpt>
      <trkpt lat="43.14848" lon="3.10686">
        <ele>115</ele>
        <time>2025-12-29T11:49:02.875Z</time>
      </trkpt>
      <trkpt lat="43.1485" lon="3.10686">
        <ele>115</ele>
        <time>2025-12-29T11:49:03.875Z</time>
      </trkpt>
      <trkpt lat="43.1485" lon="3.10686">
        <ele>116</ele>
        <time>2025-12-29T11:49:04.875Z</time>
      </trkpt>
      <trkpt lat="43.1485" lon="3.10685">
        <ele>116</ele>
        <time>2025-12-29T11:49:05.875Z</time>
      </trkpt>
      <trkpt lat="43.1485" lon="3.10684">
        <ele>116</ele>
        <time>2025-12-29T11:49:06.875Z</time>
      </trkpt>
      <trkpt lat="43.1485" lon="3.10683">
        <ele>116</ele>
        <time>2025-12-29T11:49:07.875Z</time>
      </trkpt>
      <trkpt lat="43.14851" lon="3.10683">
        <ele>116</ele>
        <time>2025-12-29T11:49:08.875Z</time>
      </trkpt>
      <trkpt lat="43.14851" lon="3.10683">
        <ele>116</ele>
        <time>2025-12-29T11:49:09.875Z</time>
      </trkpt>
      <trkpt lat="43.14851" lon="3.10682">
        <ele>116</ele>
        <time>2025-12-29T11:49:10.875Z</time>
      </trkpt>
      <trkpt lat="43.14851" lon="3.10682">
        <ele>116</ele>
        <time>2025-12-29T11:49:11.875Z</time>
      </trkpt>
      <trkpt lat="43.14852" lon="3.10682">
        <ele>117</ele>
        <time>2025-12-29T11:49:12.875Z</time>
      </trkpt>
      <trkpt lat="43.14853" lon="3.10682">
        <ele>117</ele>
        <time>2025-12-29T11:49:13.875Z</time>
      </trkpt>
      <trkpt lat="43.14854" lon="3.10682">
        <ele>117</ele>
        <time>2025-12-29T11:49:14.875Z</time>
      </trkpt>
      <trkpt lat="43.14854" lon="3.10683">
        <ele>117</ele>
        <time>2025-12-29T11:49:15.875Z</time>
      </trkpt>
      <trkpt lat="43.14854" lon="3.10684">
        <ele>117</ele>
        <time>2025-12-29T11:49:16.875Z</time>
      </trkpt>
      <trkpt lat="43.14855" lon="3.10685">
        <ele>117</ele>
        <time>2025-12-29T11:49:17.875Z</time>
      </trkpt>
      <trkpt lat="43.14855" lon="3.10685">
        <ele>118</ele>
        <time>2025-12-29T11:49:18.875Z</time>
      </trkpt>
      <trkpt lat="43.14856" lon="3.10686">
        <ele>118</ele>
        <time>2025-12-29T11:49:19.875Z</time>
      </trkpt>
      <trkpt lat="43.14856" lon="3.10687">
        <ele>118</ele>
        <time>2025-12-29T11:49:20.875Z</time>
      </trkpt>
      <trkpt lat="43.14856" lon="3.10687">
        <ele>118</ele>
        <time>2025-12-29T11:49:21.875Z</time>
      </trkpt>
      <trkpt lat="43.14857" lon="3.10688">
        <ele>119</ele>
        <time>2025-12-29T11:49:22.875Z</time>
      </trkpt>
      <trkpt lat="43.14856" lon="3.10688">
        <ele>119</ele>
        <time>2025-12-29T11:49:23.875Z</time>
      </trkpt>
      <trkpt lat="43.14856" lon="3.10689">
        <ele>119</ele>
        <time>2025-12-29T11:49:24.875Z</time>
      </trkpt>
      <trkpt lat="43.14857" lon="3.10689">
        <ele>119</ele>
        <time>2025-12-29T11:49:25.875Z</time>
      </trkpt>
      <trkpt lat="43.14857" lon="3.10689">
        <ele>120</ele>
        <time>2025-12-29T11:49:26.875Z</time>
      </trkpt>
      <trkpt lat="43.14857" lon="3.10689">
        <ele>120</ele>
        <time>2025-12-29T11:49:27.875Z</time>
      </trkpt>
      <trkpt lat="43.14857" lon="3.10689">
        <ele>120</ele>
        <time>2025-12-29T11:49:28.875Z</time>
      </trkpt>
      <trkpt lat="43.14858" lon="3.10688">
        <ele>120</ele>
        <time>2025-12-29T11:49:29.875Z</time>
      </trkpt>
      <trkpt lat="43.14859" lon="3.10687">
        <ele>119</ele>
        <time>2025-12-29T11:49:30.875Z</time>
      </trkpt>
      <trkpt lat="43.1486" lon="3.10685">
        <ele>119</ele>
        <time>2025-12-29T11:49:31.875Z</time>
      </trkpt>
      <trkpt lat="43.1486" lon="3.10685">
        <ele>119</ele>
        <time>2025-12-29T11:49:32.875Z</time>
      </trkpt>
      <trkpt lat="43.1486" lon="3.10685">
        <ele>119</ele>
        <time>2025-12-29T11:49:33.875Z</time>
      </trkpt>
      <trkpt lat="43.14862" lon="3.10683">
        <ele>118</ele>
        <time>2025-12-29T11:49:34.875Z</time>
      </trkpt>
      <trkpt lat="43.14862" lon="3.10683">
        <ele>118</ele>
        <time>2025-12-29T11:49:35.875Z</time>
      </trkpt>
      <trkpt lat="43.14863" lon="3.10683">
        <ele>118</ele>
        <time>2025-12-29T11:49:36.875Z</time>
      </trkpt>
      <trkpt lat="43.14863" lon="3.10682">
        <ele>118</ele>
        <time>2025-12-29T11:49:37.875Z</time>
      </trkpt>
      <trkpt lat="43.14863" lon="3.10682">
        <ele>118</ele>
        <time>2025-12-29T11:49:38.875Z</time>
      </trkpt>
      <trkpt lat="43.14863" lon="3.10682">
        <ele>118</ele>
        <time>2025-12-29T11:49:39.875Z</time>
      </trkpt>
      <trkpt lat="43.14864" lon="3.10681">
        <ele>117</ele>
        <time>2025-12-29T11:49:40.875Z</time>
      </trkpt>
      <trkpt lat="43.14865" lon="3.1068">
        <ele>117</ele>
        <time>2025-12-29T11:49:41.875Z</time>
      </trkpt>
      <trkpt lat="43.14866" lon="3.10679">
        <ele>117</ele>
        <time>2025-12-29T11:49:42.875Z</time>
      </trkpt>
      <trkpt lat="43.14866" lon="3.10678">
        <ele>117</ele>
        <time>2025-12-29T11:49:43.875Z</time>
      </trkpt>
      <trkpt lat="43.14867" lon="3.10678">
        <ele>117</ele>
        <time>2025-12-29T11:49:44.875Z</time>
      </trkpt>
      <trkpt lat="43.14868" lon="3.10676">
        <ele>117</ele>
        <time>2025-12-29T11:49:45.875Z</time>
      </trkpt>
      <trkpt lat="43.14868" lon="3.10676">
        <ele>117</ele>
        <time>2025-12-29T11:49:46.875Z</time>
      </trkpt>
      <trkpt lat="43.1487" lon="3.10676">
        <ele>118</ele>
        <time>2025-12-29T11:49:47.875Z</time>
      </trkpt>
      <trkpt lat="43.14871" lon="3.10676">
        <ele>118</ele>
        <time>2025-12-29T11:49:48.875Z</time>
      </trkpt>
      <trkpt lat="43.14872" lon="3.10676">
        <ele>118</ele>
        <time>2025-12-29T11:49:49.875Z</time>
      </trkpt>
      <trkpt lat="43.14872" lon="3.10675">
        <ele>118</ele>
        <time>2025-12-29T11:49:50.875Z</time>
      </trkpt>
      <trkpt lat="43.14872" lon="3.10675">
        <ele>119</ele>
        <time>2025-12-29T11:49:51.875Z</time>
      </trkpt>
      <trkpt lat="43.14872" lon="3.10675">
        <ele>119</ele>
        <time>2025-12-29T11:49:52.875Z</time>
      </trkpt>
      <trkpt lat="43.14873" lon="3.10675">
        <ele>119</ele>
        <time>2025-12-29T11:49:53.875Z</time>
      </trkpt>
      <trkpt lat="43.14873" lon="3.10675">
        <ele>120</ele>
        <time>2025-12-29T11:49:54.875Z</time>
      </trkpt>
      <trkpt lat="43.14874" lon="3.10675">
        <ele>120</ele>
        <time>2025-12-29T11:49:55.875Z</time>
      </trkpt>
      <trkpt lat="43.14875" lon="3.10675">
        <ele>120</ele>
        <time>2025-12-29T11:49:56.875Z</time>
      </trkpt>
      <trkpt lat="43.14875" lon="3.10676">
        <ele>121</ele>
        <time>2025-12-29T11:49:57.875Z</time>
      </trkpt>
      <trkpt lat="43.14876" lon="3.10676">
        <ele>121</ele>
        <time>2025-12-29T11:49:58.875Z</time>
      </trkpt>
      <trkpt lat="43.14876" lon="3.10675">
        <ele>121</ele>
        <time>2025-12-29T11:49:59.875Z</time>
      </trkpt>
      <trkpt lat="43.14876" lon="3.10675">
        <ele>121</ele>
        <time>2025-12-29T11:50:00.875Z</time>
      </trkpt>
      <trkpt lat="43.14877" lon="3.10674">
        <ele>121</ele>
        <time>2025-12-29T11:50:01.875Z</time>
      </trkpt>
      <trkpt lat="43.14879" lon="3.10673">
        <ele>121</ele>
        <time>2025-12-29T11:50:02.875Z</time>
      </trkpt>
      <trkpt lat="43.14879" lon="3.10673">
        <ele>121</ele>
        <time>2025-12-29T11:50:03.875Z</time>
      </trkpt>
      <trkpt lat="43.1488" lon="3.10673">
        <ele>121</ele>
        <time>2025-12-29T11:50:04.875Z</time>
      </trkpt>
      <trkpt lat="43.1488" lon="3.10673">
        <ele>121</ele>
        <time>2025-12-29T11:50:05.875Z</time>
      </trkpt>
      <trkpt lat="43.1488" lon="3.10673">
        <ele>121</ele>
        <time>2025-12-29T11:50:06.875Z</time>
      </trkpt>
      <trkpt lat="43.14881" lon="3.10671">
        <ele>121</ele>
        <time>2025-12-29T11:50:07.875Z</time>
      </trkpt>
      <trkpt lat="43.14882" lon="3.1067">
        <ele>121</ele>
        <time>2025-12-29T11:50:08.875Z</time>
      </trkpt>
      <trkpt lat="43.14883" lon="3.1067">
        <ele>122</ele>
        <time>2025-12-29T11:50:09.875Z</time>
      </trkpt>
      <trkpt lat="43.14883" lon="3.10669">
        <ele>122</ele>
        <time>2025-12-29T11:50:10.875Z</time>
      </trkpt>
      <trkpt lat="43.14884" lon="3.10669">
        <ele>122</ele>
        <time>2025-12-29T11:50:11.875Z</time>
      </trkpt>
      <trkpt lat="43.14885" lon="3.10668">
        <ele>123</ele>
        <time>2025-12-29T11:50:12.875Z</time>
      </trkpt>
      <trkpt lat="43.14885" lon="3.10668">
        <ele>123</ele>
        <time>2025-12-29T11:50:13.875Z</time>
      </trkpt>
      <trkpt lat="43.14886" lon="3.10668">
        <ele>123</ele>
        <time>2025-12-29T11:50:14.875Z</time>
      </trkpt>
      <trkpt lat="43.14886" lon="3.10669">
        <ele>124</ele>
        <time>2025-12-29T11:50:15.875Z</time>
      </trkpt>
      <trkpt lat="43.14887" lon="3.10669">
        <ele>124</ele>
        <time>2025-12-29T11:50:16.875Z</time>
      </trkpt>
      <trkpt lat="43.14887" lon="3.10669">
        <ele>124</ele>
        <time>2025-12-29T11:50:17.875Z</time>
      </trkpt>
      <trkpt lat="43.14888" lon="3.10669">
        <ele>125</ele>
        <time>2025-12-29T11:50:18.875Z</time>
      </trkpt>
      <trkpt lat="43.14888" lon="3.10669">
        <ele>125</ele>
        <time>2025-12-29T11:50:19.875Z</time>
      </trkpt>
      <trkpt lat="43.14888" lon="3.1067">
        <ele>126</ele>
        <time>2025-12-29T11:50:20.875Z</time>
      </trkpt>
      <trkpt lat="43.14888" lon="3.1067">
        <ele>126</ele>
        <time>2025-12-29T11:50:21.875Z</time>
      </trkpt>
      <trkpt lat="43.14888" lon="3.1067">
        <ele>126</ele>
        <time>2025-12-29T11:50:22.875Z</time>
      </trkpt>
      <trkpt lat="43.14888" lon="3.1067">
        <ele>127</ele>
        <time>2025-12-29T11:50:23.875Z</time>
      </trkpt>
      <trkpt lat="43.14888" lon="3.1067">
        <ele>127</ele>
        <time>2025-12-29T11:50:24.875Z</time>
      </trkpt>
      <trkpt lat="43.14888" lon="3.10671">
        <ele>128</ele>
        <time>2025-12-29T11:50:25.875Z</time>
      </trkpt>
      <trkpt lat="43.14888" lon="3.10671">
        <ele>129</ele>
        <time>2025-12-29T11:50:26.875Z</time>
      </trkpt>
      <trkpt lat="43.14888" lon="3.10671">
        <ele>129</ele>
        <time>2025-12-29T11:50:27.875Z</time>
      </trkpt>
      <trkpt lat="43.14887" lon="3.1067">
        <ele>129</ele>
        <time>2025-12-29T11:50:28.875Z</time>
      </trkpt>
      <trkpt lat="43.14886" lon="3.1067">
        <ele>129</ele>
        <time>2025-12-29T11:50:29.875Z</time>
      </trkpt>
      <trkpt lat="43.14886" lon="3.1067">
        <ele>129</ele>
        <time>2025-12-29T11:50:30.875Z</time>
      </trkpt>
      <trkpt lat="43.14885" lon="3.1067">
        <ele>129</ele>
        <time>2025-12-29T11:50:31.875Z</time>
      </trkpt>
      <trkpt lat="43.14885" lon="3.1067">
        <ele>129</ele>
        <time>2025-12-29T11:50:32.875Z</time>
      </trkpt>
      <trkpt lat="43.14885" lon="3.1067">
        <ele>129</ele>
        <time>2025-12-29T11:50:33.875Z</time>
      </trkpt>
      <trkpt lat="43.14885" lon="3.10671">
        <ele>129</ele>
        <time>2025-12-29T11:50:34.875Z</time>
      </trkpt>
      <trkpt lat="43.14885" lon="3.10671">
        <ele>129</ele>
        <time>2025-12-29T11:50:35.875Z</time>
      </trkpt>
      <trkpt lat="43.14885" lon="3.10672">
        <ele>130</ele>
        <time>2025-12-29T11:50:36.875Z</time>
      </trkpt>
      <trkpt lat="43.14885" lon="3.10672">
        <ele>130</ele>
        <time>2025-12-29T11:50:37.875Z</time>
      </trkpt>
      <trkpt lat="43.14885" lon="3.10672">
        <ele>130</ele>
        <time>2025-12-29T11:50:38.875Z</time>
      </trkpt>
      <trkpt lat="43.14885" lon="3.10673">
        <ele>131</ele>
        <time>2025-12-29T11:50:39.875Z</time>
      </trkpt>
      <trkpt lat="43.14886" lon="3.10674">
        <ele>131</ele>
        <time>2025-12-29T11:50:40.875Z</time>
      </trkpt>
      <trkpt lat="43.14886" lon="3.10675">
        <ele>131</ele>
        <time>2025-12-29T11:50:41.875Z</time>
      </trkpt>
      <trkpt lat="43.14886" lon="3.10675">
        <ele>132</ele>
        <time>2025-12-29T11:50:42.875Z</time>
      </trkpt>
      <trkpt lat="43.14886" lon="3.10675">
        <ele>132</ele>
        <time>2025-12-29T11:50:43.875Z</time>
      </trkpt>
      <trkpt lat="43.14887" lon="3.10675">
        <ele>133</ele>
        <time>2025-12-29T11:50:44.875Z</time>
      </trkpt>
      <trkpt lat="43.14887" lon="3.10676">
        <ele>133</ele>
        <time>2025-12-29T11:50:45.875Z</time>
      </trkpt>
      <trkpt lat="43.14887" lon="3.10676">
        <ele>134</ele>
        <time>2025-12-29T11:50:46.875Z</time>
      </trkpt>
      <trkpt lat="43.14887" lon="3.10676">
        <ele>134</ele>
        <time>2025-12-29T11:50:47.875Z</time>
      </trkpt>
      <trkpt lat="43.14887" lon="3.10676">
        <ele>134</ele>
        <time>2025-12-29T11:50:48.875Z</time>
      </trkpt>
      <trkpt lat="43.14887" lon="3.10677">
        <ele>134</ele>
        <time>2025-12-29T11:50:49.875Z</time>
      </trkpt>
      <trkpt lat="43.14887" lon="3.10677">
        <ele>134</ele>
        <time>2025-12-29T11:50:50.875Z</time>
      </trkpt>
      <trkpt lat="43.14887" lon="3.10677">
        <ele>135</ele>
        <time>2025-12-29T11:50:51.875Z</time>
      </trkpt>
      <trkpt lat="43.14887" lon="3.10677">
        <ele>135</ele>
        <time>2025-12-29T11:50:52.875Z</time>
      </trkpt>
      <trkpt lat="43.14887" lon="3.10677">
        <ele>135</ele>
        <time>2025-12-29T11:50:53.875Z</time>
      </trkpt>
      <trkpt lat="43.14888" lon="3.10677">
        <ele>135</ele>
        <time>2025-12-29T11:50:54.875Z</time>
      </trkpt>
      <trkpt lat="43.14888" lon="3.10677">
        <ele>135</ele>
        <time>2025-12-29T11:50:55.875Z</time>
      </trkpt>
      <trkpt lat="43.14889" lon="3.10677">
        <ele>135</ele>
        <time>2025-12-29T11:50:56.875Z</time>
      </trkpt>
      <trkpt lat="43.14889" lon="3.10677">
        <ele>135</ele>
        <time>2025-12-29T11:50:57.875Z</time>
      </trkpt>
      <trkpt lat="43.14889" lon="3.10677">
        <ele>135</ele>
        <time>2025-12-29T11:50:58.875Z</time>
      </trkpt>
      <trkpt lat="43.14889" lon="3.10677">
        <ele>135</ele>
        <time>2025-12-29T11:50:59.875Z</time>
      </trkpt>
      <trkpt lat="43.14889" lon="3.10676">
        <ele>135</ele>
        <time>2025-12-29T11:51:00.875Z</time>
      </trkpt>
      <trkpt lat="43.14889" lon="3.10676">
        <ele>135</ele>
        <time>2025-12-29T11:51:01.875Z</time>
      </trkpt>
      <trkpt lat="43.14889" lon="3.10676">
        <ele>135</ele>
        <time>2025-12-29T11:51:02.875Z</time>
      </trkpt>
      <trkpt lat="43.14889" lon="3.10676">
        <ele>135</ele>
        <time>2025-12-29T11:51:03.875Z</time>
      </trkpt>
      <trkpt lat="43.14889" lon="3.10676">
        <ele>135</ele>
        <time>2025-12-29T11:51:04.875Z</time>
      </trkpt>
      <trkpt lat="43.14889" lon="3.10677">
        <ele>136</ele>
        <time>2025-12-29T11:51:05.875Z</time>
      </trkpt>
      <trkpt lat="43.14889" lon="3.10677">
        <ele>136</ele>
        <time>2025-12-29T11:51:06.875Z</time>
      </trkpt>
      <trkpt lat="43.1489" lon="3.10678">
        <ele>136</ele>
        <time>2025-12-29T11:51:07.875Z</time>
      </trkpt>
      <trkpt lat="43.1489" lon="3.10678">
        <ele>136</ele>
        <time>2025-12-29T11:51:08.875Z</time>
      </trkpt>
      <trkpt lat="43.1489" lon="3.10678">
        <ele>136</ele>
        <time>2025-12-29T11:51:09.875Z</time>
      </trkpt>
      <trkpt lat="43.1489" lon="3.10678">
        <ele>136</ele>
        <time>2025-12-29T11:51:10.875Z</time>
      </trkpt>
      <trkpt lat="43.1489" lon="3.10678">
        <ele>136</ele>
        <time>2025-12-29T11:51:11.875Z</time>
      </trkpt>
      <trkpt lat="43.14891" lon="3.10679">
        <ele>135</ele>
        <time>2025-12-29T11:51:12.875Z</time>
      </trkpt>
      <trkpt lat="43.14892" lon="3.10679">
        <ele>135</ele>
        <time>2025-12-29T11:51:13.875Z</time>
      </trkpt>
      <trkpt lat="43.14892" lon="3.1068">
        <ele>135</ele>
        <time>2025-12-29T11:51:14.875Z</time>
      </trkpt>
      <trkpt lat="43.14892" lon="3.1068">
        <ele>134</ele>
        <time>2025-12-29T11:51:15.875Z</time>
      </trkpt>
      <trkpt lat="43.14892" lon="3.1068">
        <ele>134</ele>
        <time>2025-12-29T11:51:16.875Z</time>
      </trkpt>
      <trkpt lat="43.14893" lon="3.1068">
        <ele>134</ele>
        <time>2025-12-29T11:51:17.875Z</time>
      </trkpt>
      <trkpt lat="43.14893" lon="3.1068">
        <ele>134</ele>
        <time>2025-12-29T11:51:18.875Z</time>
      </trkpt>
      <trkpt lat="43.14893" lon="3.1068">
        <ele>133</ele>
        <time>2025-12-29T11:51:19.875Z</time>
      </trkpt>
      <trkpt lat="43.14894" lon="3.1068">
        <ele>133</ele>
        <time>2025-12-29T11:51:20.875Z</time>
      </trkpt>
      <trkpt lat="43.14894" lon="3.10681">
        <ele>133</ele>
        <time>2025-12-29T11:51:21.875Z</time>
      </trkpt>
      <trkpt lat="43.14893" lon="3.10681">
        <ele>134</ele>
        <time>2025-12-29T11:51:22.875Z</time>
      </trkpt>
      <trkpt lat="43.14893" lon="3.10681">
        <ele>134</ele>
        <time>2025-12-29T11:51:23.875Z</time>
      </trkpt>
      <trkpt lat="43.14893" lon="3.10682">
        <ele>134</ele>
        <time>2025-12-29T11:51:24.875Z</time>
      </trkpt>
      <trkpt lat="43.14893" lon="3.10683">
        <ele>134</ele>
        <time>2025-12-29T11:51:25.875Z</time>
      </trkpt>
      <trkpt lat="43.14893" lon="3.10684">
        <ele>134</ele>
        <time>2025-12-29T11:51:26.875Z</time>
      </trkpt>
      <trkpt lat="43.14894" lon="3.10685">
        <ele>134</ele>
        <time>2025-12-29T11:51:27.875Z</time>
      </trkpt>
      <trkpt lat="43.14894" lon="3.10686">
        <ele>134</ele>
        <time>2025-12-29T11:51:28.875Z</time>
      </trkpt>
      <trkpt lat="43.14894" lon="3.10687">
        <ele>134</ele>
        <time>2025-12-29T11:51:29.875Z</time>
      </trkpt>
      <trkpt lat="43.14895" lon="3.10687">
        <ele>135</ele>
        <time>2025-12-29T11:51:30.875Z</time>
      </trkpt>
      <trkpt lat="43.14895" lon="3.10688">
        <ele>135</ele>
        <time>2025-12-29T11:51:31.875Z</time>
      </trkpt>
      <trkpt lat="43.14895" lon="3.10688">
        <ele>135</ele>
        <time>2025-12-29T11:51:32.875Z</time>
      </trkpt>
      <trkpt lat="43.14895" lon="3.10688">
        <ele>136</ele>
        <time>2025-12-29T11:51:33.875Z</time>
      </trkpt>
      <trkpt lat="43.14895" lon="3.10688">
        <ele>136</ele>
        <time>2025-12-29T11:51:34.875Z</time>
      </trkpt>
      <trkpt lat="43.14895" lon="3.10688">
        <ele>136</ele>
        <time>2025-12-29T11:51:35.875Z</time>
      </trkpt>
      <trkpt lat="43.14895" lon="3.1069">
        <ele>136</ele>
        <time>2025-12-29T11:51:36.875Z</time>
      </trkpt>
      <trkpt lat="43.14895" lon="3.1069">
        <ele>137</ele>
        <time>2025-12-29T11:51:37.875Z</time>
      </trkpt>
      <trkpt lat="43.14895" lon="3.1069">
        <ele>137</ele>
        <time>2025-12-29T11:51:38.875Z</time>
      </trkpt>
      <trkpt lat="43.14895" lon="3.1069">
        <ele>137</ele>
        <time>2025-12-29T11:51:39.875Z</time>
      </trkpt>
      <trkpt lat="43.14896" lon="3.10692">
        <ele>137</ele>
        <time>2025-12-29T11:51:40.875Z</time>
      </trkpt>
      <trkpt lat="43.14896" lon="3.10693">
        <ele>137</ele>
        <time>2025-12-29T11:51:41.875Z</time>
      </trkpt>
      <trkpt lat="43.14896" lon="3.10693">
        <ele>137</ele>
        <time>2025-12-29T11:51:42.875Z</time>
      </trkpt>
      <trkpt lat="43.14898" lon="3.10695">
        <ele>137</ele>
        <time>2025-12-29T11:51:43.875Z</time>
      </trkpt>
      <trkpt lat="43.14898" lon="3.10695">
        <ele>137</ele>
        <time>2025-12-29T11:51:44.875Z</time>
      </trkpt>
      <trkpt lat="43.14898" lon="3.10695">
        <ele>136</ele>
        <time>2025-12-29T11:51:45.875Z</time>
      </trkpt>
      <trkpt lat="43.14899" lon="3.10696">
        <ele>136</ele>
        <time>2025-12-29T11:51:46.875Z</time>
      </trkpt>
      <trkpt lat="43.14899" lon="3.10696">
        <ele>136</ele>
        <time>2025-12-29T11:51:47.875Z</time>
      </trkpt>
      <trkpt lat="43.14899" lon="3.10696">
        <ele>136</ele>
        <time>2025-12-29T11:51:48.875Z</time>
      </trkpt>
      <trkpt lat="43.149" lon="3.10697">
        <ele>136</ele>
        <time>2025-12-29T11:51:49.875Z</time>
      </trkpt>
      <trkpt lat="43.149" lon="3.10697">
        <ele>136</ele>
        <time>2025-12-29T11:51:50.875Z</time>
      </trkpt>
      <trkpt lat="43.14901" lon="3.10698">
        <ele>136</ele>
        <time>2025-12-29T11:51:51.875Z</time>
      </trkpt>
      <trkpt lat="43.14901" lon="3.10698">
        <ele>137</ele>
        <time>2025-12-29T11:51:52.875Z</time>
      </trkpt>
      <trkpt lat="43.14901" lon="3.10698">
        <ele>137</ele>
        <time>2025-12-29T11:51:53.875Z</time>
      </trkpt>
      <trkpt lat="43.14902" lon="3.10697">
        <ele>138</ele>
        <time>2025-12-29T11:51:54.875Z</time>
      </trkpt>
      <trkpt lat="43.14902" lon="3.10697">
        <ele>138</ele>
        <time>2025-12-29T11:51:55.875Z</time>
      </trkpt>
      <trkpt lat="43.14902" lon="3.10696">
        <ele>138</ele>
        <time>2025-12-29T11:51:56.875Z</time>
      </trkpt>
      <trkpt lat="43.14902" lon="3.10696">
        <ele>138</ele>
        <time>2025-12-29T11:51:57.875Z</time>
      </trkpt>
      <trkpt lat="43.14902" lon="3.10696">
        <ele>138</ele>
        <time>2025-12-29T11:51:58.875Z</time>
      </trkpt>
      <trkpt lat="43.14902" lon="3.10696">
        <ele>139</ele>
        <time>2025-12-29T11:51:59.875Z</time>
      </trkpt>
      <trkpt lat="43.14902" lon="3.10697">
        <ele>139</ele>
        <time>2025-12-29T11:52:00.875Z</time>
      </trkpt>
      <trkpt lat="43.14902" lon="3.10697">
        <ele>139</ele>
        <time>2025-12-29T11:52:01.875Z</time>
      </trkpt>
      <trkpt lat="43.14903" lon="3.10698">
        <ele>140</ele>
        <time>2025-12-29T11:52:02.875Z</time>
      </trkpt>
      <trkpt lat="43.14903" lon="3.10699">
        <ele>141</ele>
        <time>2025-12-29T11:52:03.875Z</time>
      </trkpt>
      <trkpt lat="43.14903" lon="3.107">
        <ele>141</ele>
        <time>2025-12-29T11:52:04.875Z</time>
      </trkpt>
      <trkpt lat="43.14903" lon="3.10701">
        <ele>141</ele>
        <time>2025-12-29T11:52:05.875Z</time>
      </trkpt>
      <trkpt lat="43.14903" lon="3.10701">
        <ele>142</ele>
        <time>2025-12-29T11:52:06.875Z</time>
      </trkpt>
      <trkpt lat="43.14904" lon="3.10701">
        <ele>142</ele>
        <time>2025-12-29T11:52:07.875Z</time>
      </trkpt>
      <trkpt lat="43.14904" lon="3.10702">
        <ele>142</ele>
        <time>2025-12-29T11:52:08.875Z</time>
      </trkpt>
      <trkpt lat="43.14904" lon="3.10703">
        <ele>143</ele>
        <time>2025-12-29T11:52:09.875Z</time>
      </trkpt>
      <trkpt lat="43.14905" lon="3.10703">
        <ele>143</ele>
        <time>2025-12-29T11:52:10.875Z</time>
      </trkpt>
      <trkpt lat="43.14905" lon="3.10704">
        <ele>144</ele>
        <time>2025-12-29T11:52:11.875Z</time>
      </trkpt>
      <trkpt lat="43.14905" lon="3.10704">
        <ele>145</ele>
        <time>2025-12-29T11:52:12.875Z</time>
      </trkpt>
      <trkpt lat="43.14905" lon="3.10704">
        <ele>145</ele>
        <time>2025-12-29T11:52:13.875Z</time>
      </trkpt>
      <trkpt lat="43.14905" lon="3.10704">
        <ele>146</ele>
        <time>2025-12-29T11:52:14.875Z</time>
      </trkpt>
      <trkpt lat="43.14905" lon="3.10704">
        <ele>146</ele>
        <time>2025-12-29T11:52:15.875Z</time>
      </trkpt>
      <trkpt lat="43.14905" lon="3.10704">
        <ele>147</ele>
        <time>2025-12-29T11:52:16.875Z</time>
      </trkpt>
      <trkpt lat="43.14905" lon="3.10704">
        <ele>147</ele>
        <time>2025-12-29T11:52:17.875Z</time>
      </trkpt>
      <trkpt lat="43.14905" lon="3.10704">
        <ele>148</ele>
        <time>2025-12-29T11:52:18.875Z</time>
      </trkpt>
      <trkpt lat="43.14905" lon="3.10704">
        <ele>149</ele>
        <time>2025-12-29T11:52:19.875Z</time>
      </trkpt>
      <trkpt lat="43.14904" lon="3.10704">
        <ele>149</ele>
        <time>2025-12-29T11:52:20.875Z</time>
      </trkpt>
      <trkpt lat="43.14904" lon="3.10704">
        <ele>149</ele>
        <time>2025-12-29T11:52:21.875Z</time>
      </trkpt>
      <trkpt lat="43.14904" lon="3.10704">
        <ele>148</ele>
        <time>2025-12-29T11:52:22.875Z</time>
      </trkpt>
      <trkpt lat="43.14904" lon="3.10704">
        <ele>148</ele>
        <time>2025-12-29T11:52:23.875Z</time>
      </trkpt>
      <trkpt lat="43.14905" lon="3.10704">
        <ele>148</ele>
        <time>2025-12-29T11:52:24.875Z</time>
      </trkpt>
      <trkpt lat="43.14904" lon="3.10704">
        <ele>149</ele>
        <time>2025-12-29T11:52:25.875Z</time>
      </trkpt>
      <trkpt lat="43.14904" lon="3.10704">
        <ele>149</ele>
        <time>2025-12-29T11:52:26.875Z</time>
      </trkpt>
      <trkpt lat="43.14905" lon="3.10704">
        <ele>149</ele>
        <time>2025-12-29T11:52:27.875Z</time>
      </trkpt>
      <trkpt lat="43.14905" lon="3.10704">
        <ele>149</ele>
        <time>2025-12-29T11:52:28.875Z</time>
      </trkpt>
      <trkpt lat="43.14905" lon="3.10704">
        <ele>149</ele>
        <time>2025-12-29T11:52:29.875Z</time>
      </trkpt>
      <trkpt lat="43.14906" lon="3.10705">
        <ele>149</ele>
        <time>2025-12-29T11:52:30.875Z</time>
      </trkpt>
      <trkpt lat="43.14906" lon="3.10705">
        <ele>149</ele>
        <time>2025-12-29T11:52:31.875Z</time>
      </trkpt>
      <trkpt lat="43.14906" lon="3.10705">
        <ele>149</ele>
        <time>2025-12-29T11:52:32.875Z</time>
      </trkpt>
      <trkpt lat="43.14906" lon="3.10706">
        <ele>149</ele>
        <time>2025-12-29T11:52:33.875Z</time>
      </trkpt>
      <trkpt lat="43.14907" lon="3.10707">
        <ele>149</ele>
        <time>2025-12-29T11:52:34.875Z</time>
      </trkpt>
      <trkpt lat="43.14907" lon="3.10707">
        <ele>149</ele>
        <time>2025-12-29T11:52:35.875Z</time>
      </trkpt>
      <trkpt lat="43.14907" lon="3.10708">
        <ele>150</ele>
        <time>2025-12-29T11:52:36.875Z</time>
      </trkpt>
      <trkpt lat="43.14906" lon="3.10708">
        <ele>150</ele>
        <time>2025-12-29T11:52:37.875Z</time>
      </trkpt>
      <trkpt lat="43.14906" lon="3.10708">
        <ele>150</ele>
        <time>2025-12-29T11:52:38.875Z</time>
      </trkpt>
      <trkpt lat="43.14907" lon="3.10709">
        <ele>150</ele>
        <time>2025-12-29T11:52:39.875Z</time>
      </trkpt>
      <trkpt lat="43.14907" lon="3.1071">
        <ele>150</ele>
        <time>2025-12-29T11:52:40.875Z</time>
      </trkpt>
      <trkpt lat="43.14907" lon="3.1071">
        <ele>150</ele>
        <time>2025-12-29T11:52:41.875Z</time>
      </trkpt>
      <trkpt lat="43.14907" lon="3.10711">
        <ele>150</ele>
        <time>2025-12-29T11:52:42.875Z</time>
      </trkpt>
      <trkpt lat="43.14907" lon="3.10711">
        <ele>150</ele>
        <time>2025-12-29T11:52:43.875Z</time>
      </trkpt>
      <trkpt lat="43.14907" lon="3.10711">
        <ele>150</ele>
        <time>2025-12-29T11:52:44.875Z</time>
      </trkpt>
      <trkpt lat="43.14907" lon="3.10711">
        <ele>150</ele>
        <time>2025-12-29T11:52:45.875Z</time>
      </trkpt>
      <trkpt lat="43.14907" lon="3.10712">
        <ele>151</ele>
        <time>2025-12-29T11:52:46.875Z</time>
      </trkpt>
      <trkpt lat="43.14908" lon="3.10712">
        <ele>151</ele>
        <time>2025-12-29T11:52:47.875Z</time>
      </trkpt>
      <trkpt lat="43.14908" lon="3.10712">
        <ele>151</ele>
        <time>2025-12-29T11:52:48.875Z</time>
      </trkpt>
      <trkpt lat="43.14908" lon="3.10713">
        <ele>151</ele>
        <time>2025-12-29T11:52:49.875Z</time>
      </trkpt>
      <trkpt lat="43.14908" lon="3.10713">
        <ele>151</ele>
        <time>2025-12-29T11:52:50.875Z</time>
      </trkpt>
      <trkpt lat="43.14908" lon="3.10714">
        <ele>151</ele>
        <time>2025-12-29T11:52:51.875Z</time>
      </trkpt>
      <trkpt lat="43.14908" lon="3.10715">
        <ele>152</ele>
        <time>2025-12-29T11:52:52.875Z</time>
      </trkpt>
      <trkpt lat="43.14908" lon="3.10715">
        <ele>152</ele>
        <time>2025-12-29T11:52:53.875Z</time>
      </trkpt>
      <trkpt lat="43.14908" lon="3.10716">
        <ele>152</ele>
        <time>2025-12-29T11:52:54.875Z</time>
      </trkpt>
      <trkpt lat="43.14908" lon="3.10716">
        <ele>153</ele>
        <time>2025-12-29T11:52:55.875Z</time>
      </trkpt>
      <trkpt lat="43.14908" lon="3.10716">
        <ele>153</ele>
        <time>2025-12-29T11:52:56.875Z</time>
      </trkpt>
      <trkpt lat="43.14908" lon="3.10717">
        <ele>153</ele>
        <time>2025-12-29T11:52:57.875Z</time>
      </trkpt>
      <trkpt lat="43.14907" lon="3.10717">
        <ele>154</ele>
        <time>2025-12-29T11:52:58.875Z</time>
      </trkpt>
      <trkpt lat="43.14908" lon="3.10717">
        <ele>154</ele>
        <time>2025-12-29T11:52:59.875Z</time>
      </trkpt>
      <trkpt lat="43.14908" lon="3.10718">
        <ele>154</ele>
        <time>2025-12-29T11:53:00.875Z</time>
      </trkpt>
      <trkpt lat="43.14908" lon="3.10718">
        <ele>155</ele>
        <time>2025-12-29T11:53:01.875Z</time>
      </trkpt>
      <trkpt lat="43.14908" lon="3.10718">
        <ele>155</ele>
        <time>2025-12-29T11:53:02.875Z</time>
      </trkpt>
      <trkpt lat="43.14908" lon="3.10718">
        <ele>155</ele>
        <time>2025-12-29T11:53:03.875Z</time>
      </trkpt>
      <trkpt lat="43.14908" lon="3.10719">
        <ele>156</ele>
        <time>2025-12-29T11:53:04.875Z</time>
      </trkpt>
      <trkpt lat="43.14908" lon="3.10719">
        <ele>156</ele>
        <time>2025-12-29T11:53:05.875Z</time>
      </trkpt>
      <trkpt lat="43.14908" lon="3.10719">
        <ele>156</ele>
        <time>2025-12-29T11:53:06.875Z</time>
      </trkpt>
      <trkpt lat="43.14908" lon="3.10718">
        <ele>157</ele>
        <time>2025-12-29T11:53:07.875Z</time>
      </trkpt>
      <trkpt lat="43.14908" lon="3.10718">
        <ele>157</ele>
        <time>2025-12-29T11:53:08.875Z</time>
      </trkpt>
      <trkpt lat="43.14908" lon="3.10718">
        <ele>157</ele>
        <time>2025-12-29T11:53:09.875Z</time>
      </trkpt>
      <trkpt lat="43.14908" lon="3.10718">
        <ele>157</ele>
        <time>2025-12-29T11:53:10.875Z</time>
      </trkpt>
      <trkpt lat="43.14908" lon="3.10718">
        <ele>157</ele>
        <time>2025-12-29T11:53:11.875Z</time>
      </trkpt>
      <trkpt lat="43.14908" lon="3.10718">
        <ele>157</ele>
        <time>2025-12-29T11:53:12.875Z</time>
      </trkpt>
      <trkpt lat="43.14908" lon="3.10719">
        <ele>157</ele>
        <time>2025-12-29T11:53:13.875Z</time>
      </trkpt>
      <trkpt lat="43.14909" lon="3.10718">
        <ele>157</ele>
        <time>2025-12-29T11:53:14.875Z</time>
      </trkpt>
      <trkpt lat="43.14909" lon="3.10718">
        <ele>157</ele>
        <time>2025-12-29T11:53:15.875Z</time>
      </trkpt>
      <trkpt lat="43.14909" lon="3.10717">
        <ele>157</ele>
        <time>2025-12-29T11:53:16.875Z</time>
      </trkpt>
      <trkpt lat="43.14909" lon="3.10717">
        <ele>157</ele>
        <time>2025-12-29T11:53:17.875Z</time>
      </trkpt>
      <trkpt lat="43.1491" lon="3.10718">
        <ele>158</ele>
        <time>2025-12-29T11:53:18.875Z</time>
      </trkpt>
      <trkpt lat="43.1491" lon="3.10718">
        <ele>158</ele>
        <time>2025-12-29T11:53:19.875Z</time>
      </trkpt>
      <trkpt lat="43.14912" lon="3.10719">
        <ele>158</ele>
        <time>2025-12-29T11:53:20.875Z</time>
      </trkpt>
      <trkpt lat="43.14912" lon="3.10719">
        <ele>158</ele>
        <time>2025-12-29T11:53:21.875Z</time>
      </trkpt>
      <trkpt lat="43.14912" lon="3.10719">
        <ele>158</ele>
        <time>2025-12-29T11:53:22.875Z</time>
      </trkpt>
      <trkpt lat="43.14913" lon="3.10719">
        <ele>159</ele>
        <time>2025-12-29T11:53:23.875Z</time>
      </trkpt>
      <trkpt lat="43.14914" lon="3.10719">
        <ele>159</ele>
        <time>2025-12-29T11:53:24.875Z</time>
      </trkpt>
      <trkpt lat="43.14915" lon="3.10719">
        <ele>160</ele>
        <time>2025-12-29T11:53:25.875Z</time>
      </trkpt>
      <trkpt lat="43.14916" lon="3.10719">
        <ele>160</ele>
        <time>2025-12-29T11:53:26.875Z</time>
      </trkpt>
      <trkpt lat="43.14916" lon="3.10718">
        <ele>161</ele>
        <time>2025-12-29T11:53:27.875Z</time>
      </trkpt>
      <trkpt lat="43.14917" lon="3.10718">
        <ele>161</ele>
        <time>2025-12-29T11:53:28.875Z</time>
      </trkpt>
      <trkpt lat="43.14918" lon="3.10718">
        <ele>161</ele>
        <time>2025-12-29T11:53:29.875Z</time>
      </trkpt>
      <trkpt lat="43.14918" lon="3.10718">
        <ele>161</ele>
        <time>2025-12-29T11:53:30.875Z</time>
      </trkpt>
      <trkpt lat="43.14918" lon="3.10717">
        <ele>162</ele>
        <time>2025-12-29T11:53:31.875Z</time>
      </trkpt>
      <trkpt lat="43.14919" lon="3.10716">
        <ele>162</ele>
        <time>2025-12-29T11:53:32.875Z</time>
      </trkpt>
      <trkpt lat="43.14919" lon="3.10716">
        <ele>162</ele>
        <time>2025-12-29T11:53:33.875Z</time>
      </trkpt>
      <trkpt lat="43.14919" lon="3.10716">
        <ele>163</ele>
        <time>2025-12-29T11:53:34.875Z</time>
      </trkpt>
      <trkpt lat="43.1492" lon="3.10717">
        <ele>163</ele>
        <time>2025-12-29T11:53:35.875Z</time>
      </trkpt>
      <trkpt lat="43.14921" lon="3.10717">
        <ele>163</ele>
        <time>2025-12-29T11:53:36.875Z</time>
      </trkpt>
      <trkpt lat="43.14922" lon="3.10719">
        <ele>163</ele>
        <time>2025-12-29T11:53:37.875Z</time>
      </trkpt>
      <trkpt lat="43.14922" lon="3.10719">
        <ele>163</ele>
        <time>2025-12-29T11:53:38.875Z</time>
      </trkpt>
      <trkpt lat="43.14923" lon="3.10719">
        <ele>163</ele>
        <time>2025-12-29T11:53:39.875Z</time>
      </trkpt>
      <trkpt lat="43.14923" lon="3.10718">
        <ele>163</ele>
        <time>2025-12-29T11:53:40.875Z</time>
      </trkpt>
      <trkpt lat="43.14924" lon="3.10719">
        <ele>163</ele>
        <time>2025-12-29T11:53:41.875Z</time>
      </trkpt>
      <trkpt lat="43.14925" lon="3.1072">
        <ele>163</ele>
        <time>2025-12-29T11:53:42.875Z</time>
      </trkpt>
      <trkpt lat="43.14925" lon="3.1072">
        <ele>163</ele>
        <time>2025-12-29T11:53:43.875Z</time>
      </trkpt>
      <trkpt lat="43.14926" lon="3.10721">
        <ele>163</ele>
        <time>2025-12-29T11:53:44.875Z</time>
      </trkpt>
      <trkpt lat="43.14926" lon="3.10721">
        <ele>163</ele>
        <time>2025-12-29T11:53:45.875Z</time>
      </trkpt>
      <trkpt lat="43.14927" lon="3.10721">
        <ele>163</ele>
        <time>2025-12-29T11:53:46.875Z</time>
      </trkpt>
      <trkpt lat="43.14927" lon="3.10721">
        <ele>163</ele>
        <time>2025-12-29T11:53:47.875Z</time>
      </trkpt>
      <trkpt lat="43.14928" lon="3.10721">
        <ele>164</ele>
        <time>2025-12-29T11:53:48.875Z</time>
      </trkpt>
      <trkpt lat="43.14928" lon="3.10721">
        <ele>164</ele>
        <time>2025-12-29T11:53:49.875Z</time>
      </trkpt>
      <trkpt lat="43.14929" lon="3.10721">
        <ele>164</ele>
        <time>2025-12-29T11:53:50.875Z</time>
      </trkpt>
      <trkpt lat="43.14929" lon="3.10721">
        <ele>164</ele>
        <time>2025-12-29T11:53:51.875Z</time>
      </trkpt>
      <trkpt lat="43.14929" lon="3.10722">
        <ele>164</ele>
        <time>2025-12-29T11:53:52.875Z</time>
      </trkpt>
      <trkpt lat="43.1493" lon="3.10723">
        <ele>164</ele>
        <time>2025-12-29T11:53:53.875Z</time>
      </trkpt>
      <trkpt lat="43.14931" lon="3.10723">
        <ele>164</ele>
        <time>2025-12-29T11:53:54.875Z</time>
      </trkpt>
      <trkpt lat="43.14931" lon="3.10723">
        <ele>164</ele>
        <time>2025-12-29T11:53:55.875Z</time>
      </trkpt>
      <trkpt lat="43.14931" lon="3.10724">
        <ele>164</ele>
        <time>2025-12-29T11:53:56.875Z</time>
      </trkpt>
      <trkpt lat="43.14931" lon="3.10724">
        <ele>164</ele>
        <time>2025-12-29T11:53:57.875Z</time>
      </trkpt>
      <trkpt lat="43.14932" lon="3.10724">
        <ele>164</ele>
        <time>2025-12-29T11:53:58.875Z</time>
      </trkpt>
      <trkpt lat="43.14932" lon="3.10725">
        <ele>164</ele>
        <time>2025-12-29T11:53:59.875Z</time>
      </trkpt>
      <trkpt lat="43.14933" lon="3.10727">
        <ele>164</ele>
        <time>2025-12-29T11:54:00.875Z</time>
      </trkpt>
      <trkpt lat="43.14933" lon="3.10727">
        <ele>164</ele>
        <time>2025-12-29T11:54:01.875Z</time>
      </trkpt>
      <trkpt lat="43.14934" lon="3.10729">
        <ele>163</ele>
        <time>2025-12-29T11:54:02.875Z</time>
      </trkpt>
      <trkpt lat="43.14934" lon="3.10729">
        <ele>163</ele>
        <time>2025-12-29T11:54:03.875Z</time>
      </trkpt>
      <trkpt lat="43.14935" lon="3.10729">
        <ele>163</ele>
        <time>2025-12-29T11:54:04.875Z</time>
      </trkpt>
      <trkpt lat="43.14935" lon="3.10729">
        <ele>163</ele>
        <time>2025-12-29T11:54:05.875Z</time>
      </trkpt>
      <trkpt lat="43.14936" lon="3.1073">
        <ele>162</ele>
        <time>2025-12-29T11:54:06.875Z</time>
      </trkpt>
      <trkpt lat="43.14937" lon="3.1073">
        <ele>162</ele>
        <time>2025-12-29T11:54:07.875Z</time>
      </trkpt>
      <trkpt lat="43.14938" lon="3.1073">
        <ele>162</ele>
        <time>2025-12-29T11:54:08.875Z</time>
      </trkpt>
      <trkpt lat="43.14938" lon="3.10729">
        <ele>162</ele>
        <time>2025-12-29T11:54:09.875Z</time>
      </trkpt>
      <trkpt lat="43.14939" lon="3.10729">
        <ele>162</ele>
        <time>2025-12-29T11:54:10.875Z</time>
      </trkpt>
      <trkpt lat="43.1494" lon="3.10728">
        <ele>162</ele>
        <time>2025-12-29T11:54:11.875Z</time>
      </trkpt>
      <trkpt lat="43.14941" lon="3.10727">
        <ele>162</ele>
        <time>2025-12-29T11:54:12.875Z</time>
      </trkpt>
      <trkpt lat="43.14942" lon="3.10727">
        <ele>162</ele>
        <time>2025-12-29T11:54:13.875Z</time>
      </trkpt>
      <trkpt lat="43.14943" lon="3.10726">
        <ele>162</ele>
        <time>2025-12-29T11:54:14.875Z</time>
      </trkpt>
      <trkpt lat="43.14944" lon="3.10725">
        <ele>162</ele>
        <time>2025-12-29T11:54:15.875Z</time>
      </trkpt>
      <trkpt lat="43.14946" lon="3.10725">
        <ele>162</ele>
        <time>2025-12-29T11:54:16.875Z</time>
      </trkpt>
      <trkpt lat="43.14947" lon="3.10725">
        <ele>162</ele>
        <time>2025-12-29T11:54:17.875Z</time>
      </trkpt>
      <trkpt lat="43.14949" lon="3.10725">
        <ele>162</ele>
        <time>2025-12-29T11:54:18.875Z</time>
      </trkpt>
      <trkpt lat="43.1495" lon="3.10726">
        <ele>162</ele>
        <time>2025-12-29T11:54:19.875Z</time>
      </trkpt>
      <trkpt lat="43.14951" lon="3.10726">
        <ele>162</ele>
        <time>2025-12-29T11:54:20.875Z</time>
      </trkpt>
      <trkpt lat="43.14952" lon="3.10726">
        <ele>162</ele>
        <time>2025-12-29T11:54:21.875Z</time>
      </trkpt>
      <trkpt lat="43.14953" lon="3.10726">
        <ele>162</ele>
        <time>2025-12-29T11:54:22.875Z</time>
      </trkpt>
      <trkpt lat="43.14953" lon="3.10726">
        <ele>162</ele>
        <time>2025-12-29T11:54:23.875Z</time>
      </trkpt>
      <trkpt lat="43.14954" lon="3.10726">
        <ele>162</ele>
        <time>2025-12-29T11:54:24.875Z</time>
      </trkpt>
      <trkpt lat="43.14954" lon="3.10726">
        <ele>162</ele>
        <time>2025-12-29T11:54:25.875Z</time>
      </trkpt>
      <trkpt lat="43.14955" lon="3.10726">
        <ele>162</ele>
        <time>2025-12-29T11:54:26.875Z</time>
      </trkpt>
      <trkpt lat="43.14956" lon="3.10726">
        <ele>162</ele>
        <time>2025-12-29T11:54:27.875Z</time>
      </trkpt>
      <trkpt lat="43.14956" lon="3.10726">
        <ele>162</ele>
        <time>2025-12-29T11:54:28.875Z</time>
      </trkpt>
      <trkpt lat="43.14956" lon="3.10726">
        <ele>162</ele>
        <time>2025-12-29T11:54:29.875Z</time>
      </trkpt>
      <trkpt lat="43.14956" lon="3.10726">
        <ele>161</ele>
        <time>2025-12-29T11:54:30.875Z</time>
      </trkpt>
      <trkpt lat="43.14956" lon="3.10726">
        <ele>161</ele>
        <time>2025-12-29T11:54:31.875Z</time>
      </trkpt>
      <trkpt lat="43.14957" lon="3.10725">
        <ele>161</ele>
        <time>2025-12-29T11:54:32.875Z</time>
      </trkpt>
      <trkpt lat="43.14958" lon="3.10726">
        <ele>160</ele>
        <time>2025-12-29T11:54:33.875Z</time>
      </trkpt>
      <trkpt lat="43.1496" lon="3.10727">
        <ele>160</ele>
        <time>2025-12-29T11:54:34.875Z</time>
      </trkpt>
      <trkpt lat="43.14961" lon="3.10727">
        <ele>160</ele>
        <time>2025-12-29T11:54:35.875Z</time>
      </trkpt>
      <trkpt lat="43.14962" lon="3.10726">
        <ele>160</ele>
        <time>2025-12-29T11:54:36.875Z</time>
      </trkpt>
      <trkpt lat="43.14962" lon="3.10726">
        <ele>160</ele>
        <time>2025-12-29T11:54:37.875Z</time>
      </trkpt>
      <trkpt lat="43.14962" lon="3.10726">
        <ele>160</ele>
        <time>2025-12-29T11:54:38.875Z</time>
      </trkpt>
      <trkpt lat="43.14963" lon="3.10725">
        <ele>160</ele>
        <time>2025-12-29T11:54:39.875Z</time>
      </trkpt>
      <trkpt lat="43.14964" lon="3.10725">
        <ele>160</ele>
        <time>2025-12-29T11:54:40.875Z</time>
      </trkpt>
      <trkpt lat="43.14964" lon="3.10725">
        <ele>160</ele>
        <time>2025-12-29T11:54:41.875Z</time>
      </trkpt>
      <trkpt lat="43.14965" lon="3.10725">
        <ele>160</ele>
        <time>2025-12-29T11:54:42.875Z</time>
      </trkpt>
      <trkpt lat="43.14966" lon="3.10725">
        <ele>160</ele>
        <time>2025-12-29T11:54:43.875Z</time>
      </trkpt>
      <trkpt lat="43.14967" lon="3.10726">
        <ele>160</ele>
        <time>2025-12-29T11:54:44.875Z</time>
      </trkpt>
      <trkpt lat="43.14968" lon="3.10725">
        <ele>160</ele>
        <time>2025-12-29T11:54:45.875Z</time>
      </trkpt>
      <trkpt lat="43.14969" lon="3.10725">
        <ele>159</ele>
        <time>2025-12-29T11:54:46.875Z</time>
      </trkpt>
      <trkpt lat="43.1497" lon="3.10724">
        <ele>159</ele>
        <time>2025-12-29T11:54:47.875Z</time>
      </trkpt>
      <trkpt lat="43.1497" lon="3.10724">
        <ele>159</ele>
        <time>2025-12-29T11:54:48.875Z</time>
      </trkpt>
      <trkpt lat="43.14971" lon="3.10724">
        <ele>160</ele>
        <time>2025-12-29T11:54:49.875Z</time>
      </trkpt>
      <trkpt lat="43.14972" lon="3.10724">
        <ele>160</ele>
        <time>2025-12-29T11:54:50.875Z</time>
      </trkpt>
      <trkpt lat="43.14972" lon="3.10724">
        <ele>160</ele>
        <time>2025-12-29T11:54:51.875Z</time>
      </trkpt>
      <trkpt lat="43.14972" lon="3.10724">
        <ele>160</ele>
        <time>2025-12-29T11:54:52.875Z</time>
      </trkpt>
      <trkpt lat="43.14975" lon="3.10725">
        <ele>160</ele>
        <time>2025-12-29T11:54:53.875Z</time>
      </trkpt>
      <trkpt lat="43.14976" lon="3.10725">
        <ele>160</ele>
        <time>2025-12-29T11:54:54.875Z</time>
      </trkpt>
      <trkpt lat="43.14977" lon="3.10724">
        <ele>161</ele>
        <time>2025-12-29T11:54:55.875Z</time>
      </trkpt>
      <trkpt lat="43.14978" lon="3.10724">
        <ele>161</ele>
        <time>2025-12-29T11:54:56.875Z</time>
      </trkpt>
      <trkpt lat="43.1498" lon="3.10723">
        <ele>161</ele>
        <time>2025-12-29T11:54:57.875Z</time>
      </trkpt>
      <trkpt lat="43.14981" lon="3.10722">
        <ele>161</ele>
        <time>2025-12-29T11:54:58.875Z</time>
      </trkpt>
      <trkpt lat="43.14983" lon="3.10721">
        <ele>161</ele>
        <time>2025-12-29T11:54:59.875Z</time>
      </trkpt>
      <trkpt lat="43.14984" lon="3.10721">
        <ele>161</ele>
        <time>2025-12-29T11:55:00.875Z</time>
      </trkpt>
      <trkpt lat="43.14984" lon="3.10721">
        <ele>161</ele>
        <time>2025-12-29T11:55:01.875Z</time>
      </trkpt>
      <trkpt lat="43.14985" lon="3.10719">
        <ele>162</ele>
        <time>2025-12-29T11:55:02.875Z</time>
      </trkpt>
      <trkpt lat="43.14985" lon="3.10719">
        <ele>162</ele>
        <time>2025-12-29T11:55:03.875Z</time>
      </trkpt>
      <trkpt lat="43.14986" lon="3.10718">
        <ele>162</ele>
        <time>2025-12-29T11:55:04.875Z</time>
      </trkpt>
      <trkpt lat="43.14989" lon="3.10717">
        <ele>163</ele>
        <time>2025-12-29T11:55:05.875Z</time>
      </trkpt>
      <trkpt lat="43.1499" lon="3.10716">
        <ele>163</ele>
        <time>2025-12-29T11:55:06.875Z</time>
      </trkpt>
      <trkpt lat="43.14991" lon="3.10715">
        <ele>163</ele>
        <time>2025-12-29T11:55:07.875Z</time>
      </trkpt>
      <trkpt lat="43.14992" lon="3.10715">
        <ele>163</ele>
        <time>2025-12-29T11:55:08.875Z</time>
      </trkpt>
      <trkpt lat="43.14992" lon="3.10715">
        <ele>163</ele>
        <time>2025-12-29T11:55:09.875Z</time>
      </trkpt>
      <trkpt lat="43.14992" lon="3.10714">
        <ele>163</ele>
        <time>2025-12-29T11:55:10.875Z</time>
      </trkpt>
      <trkpt lat="43.14992" lon="3.10713">
        <ele>162</ele>
        <time>2025-12-29T11:55:11.875Z</time>
      </trkpt>
      <trkpt lat="43.14993" lon="3.10712">
        <ele>162</ele>
        <time>2025-12-29T11:55:12.875Z</time>
      </trkpt>
      <trkpt lat="43.14993" lon="3.10711">
        <ele>162</ele>
        <time>2025-12-29T11:55:13.875Z</time>
      </trkpt>
      <trkpt lat="43.14993" lon="3.1071">
        <ele>162</ele>
        <time>2025-12-29T11:55:14.875Z</time>
      </trkpt>
      <trkpt lat="43.14994" lon="3.10709">
        <ele>161</ele>
        <time>2025-12-29T11:55:15.875Z</time>
      </trkpt>
      <trkpt lat="43.14995" lon="3.10709">
        <ele>161</ele>
        <time>2025-12-29T11:55:16.875Z</time>
      </trkpt>
      <trkpt lat="43.14995" lon="3.10709">
        <ele>161</ele>
        <time>2025-12-29T11:55:17.875Z</time>
      </trkpt>
      <trkpt lat="43.14997" lon="3.10709">
        <ele>161</ele>
        <time>2025-12-29T11:55:18.875Z</time>
      </trkpt>
      <trkpt lat="43.14998" lon="3.10708">
        <ele>161</ele>
        <time>2025-12-29T11:55:19.875Z</time>
      </trkpt>
      <trkpt lat="43.14998" lon="3.10708">
        <ele>161</ele>
        <time>2025-12-29T11:55:20.875Z</time>
      </trkpt>
      <trkpt lat="43.15" lon="3.10707">
        <ele>161</ele>
        <time>2025-12-29T11:55:21.875Z</time>
      </trkpt>
      <trkpt lat="43.15001" lon="3.10706">
        <ele>161</ele>
        <time>2025-12-29T11:55:22.875Z</time>
      </trkpt>
      <trkpt lat="43.15002" lon="3.10706">
        <ele>161</ele>
        <time>2025-12-29T11:55:23.875Z</time>
      </trkpt>
      <trkpt lat="43.15003" lon="3.10705">
        <ele>161</ele>
        <time>2025-12-29T11:55:24.875Z</time>
      </trkpt>
      <trkpt lat="43.15003" lon="3.10705">
        <ele>160</ele>
        <time>2025-12-29T11:55:25.875Z</time>
      </trkpt>
      <trkpt lat="43.15004" lon="3.10704">
        <ele>160</ele>
        <time>2025-12-29T11:55:26.875Z</time>
      </trkpt>
      <trkpt lat="43.15004" lon="3.10704">
        <ele>160</ele>
        <time>2025-12-29T11:55:27.875Z</time>
      </trkpt>
      <trkpt lat="43.15004" lon="3.10704">
        <ele>160</ele>
        <time>2025-12-29T11:55:28.875Z</time>
      </trkpt>
      <trkpt lat="43.15005" lon="3.10704">
        <ele>161</ele>
        <time>2025-12-29T11:55:29.875Z</time>
      </trkpt>
      <trkpt lat="43.15005" lon="3.10704">
        <ele>161</ele>
        <time>2025-12-29T11:55:30.875Z</time>
      </trkpt>
      <trkpt lat="43.15006" lon="3.10704">
        <ele>161</ele>
        <time>2025-12-29T11:55:31.875Z</time>
      </trkpt>
      <trkpt lat="43.15007" lon="3.10703">
        <ele>161</ele>
        <time>2025-12-29T11:55:32.875Z</time>
      </trkpt>
      <trkpt lat="43.15007" lon="3.10703">
        <ele>161</ele>
        <time>2025-12-29T11:55:33.875Z</time>
      </trkpt>
      <trkpt lat="43.15007" lon="3.10703">
        <ele>161</ele>
        <time>2025-12-29T11:55:34.875Z</time>
      </trkpt>
      <trkpt lat="43.15008" lon="3.10703">
        <ele>161</ele>
        <time>2025-12-29T11:55:35.875Z</time>
      </trkpt>
      <trkpt lat="43.15009" lon="3.10703">
        <ele>161</ele>
        <time>2025-12-29T11:55:36.875Z</time>
      </trkpt>
      <trkpt lat="43.15009" lon="3.10703">
        <ele>161</ele>
        <time>2025-12-29T11:55:37.875Z</time>
      </trkpt>
      <trkpt lat="43.15009" lon="3.10703">
        <ele>161</ele>
        <time>2025-12-29T11:55:38.875Z</time>
      </trkpt>
      <trkpt lat="43.15013" lon="3.10702">
        <ele>161</ele>
        <time>2025-12-29T11:55:39.875Z</time>
      </trkpt>
      <trkpt lat="43.15014" lon="3.10702">
        <ele>161</ele>
        <time>2025-12-29T11:55:40.875Z</time>
      </trkpt>
      <trkpt lat="43.15015" lon="3.10701">
        <ele>162</ele>
        <time>2025-12-29T11:55:41.875Z</time>
      </trkpt>
      <trkpt lat="43.15014" lon="3.10701">
        <ele>162</ele>
        <time>2025-12-29T11:55:42.875Z</time>
      </trkpt>
      <trkpt lat="43.15014" lon="3.107">
        <ele>162</ele>
        <time>2025-12-29T11:55:43.875Z</time>
      </trkpt>
      <trkpt lat="43.15015" lon="3.107">
        <ele>163</ele>
        <time>2025-12-29T11:55:44.875Z</time>
      </trkpt>
      <trkpt lat="43.15016" lon="3.107">
        <ele>163</ele>
        <time>2025-12-29T11:55:45.875Z</time>
      </trkpt>
      <trkpt lat="43.15016" lon="3.10699">
        <ele>163</ele>
        <time>2025-12-29T11:55:46.875Z</time>
      </trkpt>
      <trkpt lat="43.15017" lon="3.10699">
        <ele>163</ele>
        <time>2025-12-29T11:55:47.875Z</time>
      </trkpt>
      <trkpt lat="43.15017" lon="3.107">
        <ele>163</ele>
        <time>2025-12-29T11:55:48.875Z</time>
      </trkpt>
      <trkpt lat="43.15018" lon="3.107">
        <ele>163</ele>
        <time>2025-12-29T11:55:49.875Z</time>
      </trkpt>
      <trkpt lat="43.15018" lon="3.107">
        <ele>164</ele>
        <time>2025-12-29T11:55:50.875Z</time>
      </trkpt>
      <trkpt lat="43.15018" lon="3.107">
        <ele>164</ele>
        <time>2025-12-29T11:55:51.875Z</time>
      </trkpt>
      <trkpt lat="43.15019" lon="3.107">
        <ele>164</ele>
        <time>2025-12-29T11:55:52.876Z</time>
      </trkpt>
      <trkpt lat="43.15019" lon="3.107">
        <ele>164</ele>
        <time>2025-12-29T11:55:53.875Z</time>
      </trkpt>
      <trkpt lat="43.15021" lon="3.10701">
        <ele>164</ele>
        <time>2025-12-29T11:55:54.875Z</time>
      </trkpt>
      <trkpt lat="43.15021" lon="3.10701">
        <ele>164</ele>
        <time>2025-12-29T11:55:55.875Z</time>
      </trkpt>
      <trkpt lat="43.15021" lon="3.10701">
        <ele>164</ele>
        <time>2025-12-29T11:55:56.875Z</time>
      </trkpt>
      <trkpt lat="43.15022" lon="3.10702">
        <ele>164</ele>
        <time>2025-12-29T11:55:57.875Z</time>
      </trkpt>
      <trkpt lat="43.15022" lon="3.10702">
        <ele>164</ele>
        <time>2025-12-29T11:55:58.875Z</time>
      </trkpt>
      <trkpt lat="43.15022" lon="3.10702">
        <ele>164</ele>
        <time>2025-12-29T11:55:59.875Z</time>
      </trkpt>
      <trkpt lat="43.15023" lon="3.10702">
        <ele>164</ele>
        <time>2025-12-29T11:56:00.875Z</time>
      </trkpt>
      <trkpt lat="43.15023" lon="3.10702">
        <ele>164</ele>
        <time>2025-12-29T11:56:01.875Z</time>
      </trkpt>
      <trkpt lat="43.15023" lon="3.10702">
        <ele>164</ele>
        <time>2025-12-29T11:56:02.875Z</time>
      </trkpt>
      <trkpt lat="43.15024" lon="3.10702">
        <ele>165</ele>
        <time>2025-12-29T11:56:03.875Z</time>
      </trkpt>
      <trkpt lat="43.15024" lon="3.10702">
        <ele>165</ele>
        <time>2025-12-29T11:56:04.875Z</time>
      </trkpt>
      <trkpt lat="43.15024" lon="3.10702">
        <ele>165</ele>
        <time>2025-12-29T11:56:05.875Z</time>
      </trkpt>
      <trkpt lat="43.15025" lon="3.10702">
        <ele>165</ele>
        <time>2025-12-29T11:56:06.875Z</time>
      </trkpt>
      <trkpt lat="43.15026" lon="3.10702">
        <ele>165</ele>
        <time>2025-12-29T11:56:07.875Z</time>
      </trkpt>
      <trkpt lat="43.15026" lon="3.10702">
        <ele>165</ele>
        <time>2025-12-29T11:56:08.875Z</time>
      </trkpt>
      <trkpt lat="43.15026" lon="3.10702">
        <ele>165</ele>
        <time>2025-12-29T11:56:09.875Z</time>
      </trkpt>
      <trkpt lat="43.15027" lon="3.10702">
        <ele>165</ele>
        <time>2025-12-29T11:56:10.875Z</time>
      </trkpt>
      <trkpt lat="43.15027" lon="3.10702">
        <ele>165</ele>
        <time>2025-12-29T11:56:11.875Z</time>
      </trkpt>
      <trkpt lat="43.15027" lon="3.10702">
        <ele>165</ele>
        <time>2025-12-29T11:56:12.875Z</time>
      </trkpt>
      <trkpt lat="43.15028" lon="3.10703">
        <ele>166</ele>
        <time>2025-12-29T11:56:13.875Z</time>
      </trkpt>
      <trkpt lat="43.15028" lon="3.10703">
        <ele>166</ele>
        <time>2025-12-29T11:56:14.875Z</time>
      </trkpt>
      <trkpt lat="43.15028" lon="3.10703">
        <ele>167</ele>
        <time>2025-12-29T11:56:15.875Z</time>
      </trkpt>
      <trkpt lat="43.15028" lon="3.10703">
        <ele>167</ele>
        <time>2025-12-29T11:56:16.875Z</time>
      </trkpt>
      <trkpt lat="43.15029" lon="3.10703">
        <ele>167</ele>
        <time>2025-12-29T11:56:17.875Z</time>
      </trkpt>
      <trkpt lat="43.15029" lon="3.10703">
        <ele>168</ele>
        <time>2025-12-29T11:56:18.875Z</time>
      </trkpt>
      <trkpt lat="43.1503" lon="3.10704">
        <ele>168</ele>
        <time>2025-12-29T11:56:19.875Z</time>
      </trkpt>
      <trkpt lat="43.1503" lon="3.10704">
        <ele>169</ele>
        <time>2025-12-29T11:56:20.875Z</time>
      </trkpt>
      <trkpt lat="43.1503" lon="3.10704">
        <ele>169</ele>
        <time>2025-12-29T11:56:21.875Z</time>
      </trkpt>
      <trkpt lat="43.1503" lon="3.10705">
        <ele>170</ele>
        <time>2025-12-29T11:56:22.875Z</time>
      </trkpt>
      <trkpt lat="43.1503" lon="3.10706">
        <ele>170</ele>
        <time>2025-12-29T11:56:23.875Z</time>
      </trkpt>
      <trkpt lat="43.1503" lon="3.10707">
        <ele>170</ele>
        <time>2025-12-29T11:56:24.875Z</time>
      </trkpt>
      <trkpt lat="43.1503" lon="3.10707">
        <ele>171</ele>
        <time>2025-12-29T11:56:25.875Z</time>
      </trkpt>
      <trkpt lat="43.1503" lon="3.10707">
        <ele>171</ele>
        <time>2025-12-29T11:56:26.875Z</time>
      </trkpt>
      <trkpt lat="43.1503" lon="3.10706">
        <ele>171</ele>
        <time>2025-12-29T11:56:27.875Z</time>
      </trkpt>
      <trkpt lat="43.1503" lon="3.10706">
        <ele>171</ele>
        <time>2025-12-29T11:56:28.875Z</time>
      </trkpt>
      <trkpt lat="43.1503" lon="3.10705">
        <ele>171</ele>
        <time>2025-12-29T11:56:29.875Z</time>
      </trkpt>
      <trkpt lat="43.1503" lon="3.10705">
        <ele>171</ele>
        <time>2025-12-29T11:56:30.875Z</time>
      </trkpt>
      <trkpt lat="43.1503" lon="3.10705">
        <ele>171</ele>
        <time>2025-12-29T11:56:31.875Z</time>
      </trkpt>
      <trkpt lat="43.1503" lon="3.10704">
        <ele>171</ele>
        <time>2025-12-29T11:56:32.875Z</time>
      </trkpt>
      <trkpt lat="43.1503" lon="3.10704">
        <ele>171</ele>
        <time>2025-12-29T11:56:33.875Z</time>
      </trkpt>
      <trkpt lat="43.1503" lon="3.10704">
        <ele>171</ele>
        <time>2025-12-29T11:56:34.875Z</time>
      </trkpt>
      <trkpt lat="43.1503" lon="3.10705">
        <ele>171</ele>
        <time>2025-12-29T11:56:35.875Z</time>
      </trkpt>
      <trkpt lat="43.1503" lon="3.10707">
        <ele>171</ele>
        <time>2025-12-29T11:56:36.875Z</time>
      </trkpt>
      <trkpt lat="43.1503" lon="3.10707">
        <ele>171</ele>
        <time>2025-12-29T11:56:37.875Z</time>
      </trkpt>
      <trkpt lat="43.1503" lon="3.10707">
        <ele>171</ele>
        <time>2025-12-29T11:56:38.875Z</time>
      </trkpt>
      <trkpt lat="43.1503" lon="3.10707">
        <ele>171</ele>
        <time>2025-12-29T11:56:39.875Z</time>
      </trkpt>
      <trkpt lat="43.1503" lon="3.10707">
        <ele>171</ele>
        <time>2025-12-29T11:56:40.875Z</time>
      </trkpt>
      <trkpt lat="43.1503" lon="3.10707">
        <ele>171</ele>
        <time>2025-12-29T11:56:41.875Z</time>
      </trkpt>
      <trkpt lat="43.1503" lon="3.10706">
        <ele>171</ele>
        <time>2025-12-29T11:56:42.875Z</time>
      </trkpt>
      <trkpt lat="43.1503" lon="3.10707">
        <ele>171</ele>
        <time>2025-12-29T11:56:43.875Z</time>
      </trkpt>
      <trkpt lat="43.1503" lon="3.10708">
        <ele>171</ele>
        <time>2025-12-29T11:56:44.875Z</time>
      </trkpt>
      <trkpt lat="43.1503" lon="3.10708">
        <ele>172</ele>
        <time>2025-12-29T11:56:45.875Z</time>
      </trkpt>
      <trkpt lat="43.1503" lon="3.10709">
        <ele>172</ele>
        <time>2025-12-29T11:56:46.875Z</time>
      </trkpt>
      <trkpt lat="43.15031" lon="3.1071">
        <ele>172</ele>
        <time>2025-12-29T11:56:47.875Z</time>
      </trkpt>
      <trkpt lat="43.15031" lon="3.1071">
        <ele>172</ele>
        <time>2025-12-29T11:56:48.875Z</time>
      </trkpt>
      <trkpt lat="43.15031" lon="3.10711">
        <ele>171</ele>
        <time>2025-12-29T11:56:49.875Z</time>
      </trkpt>
      <trkpt lat="43.15031" lon="3.10711">
        <ele>171</ele>
        <time>2025-12-29T11:56:50.875Z</time>
      </trkpt>
      <trkpt lat="43.15031" lon="3.10711">
        <ele>171</ele>
        <time>2025-12-29T11:56:51.875Z</time>
      </trkpt>
      <trkpt lat="43.15031" lon="3.10711">
        <ele>171</ele>
        <time>2025-12-29T11:56:52.875Z</time>
      </trkpt>
      <trkpt lat="43.15031" lon="3.10711">
        <ele>171</ele>
        <time>2025-12-29T11:56:53.875Z</time>
      </trkpt>
      <trkpt lat="43.15031" lon="3.10711">
        <ele>171</ele>
        <time>2025-12-29T11:56:54.875Z</time>
      </trkpt>
      <trkpt lat="43.15031" lon="3.10711">
        <ele>171</ele>
        <time>2025-12-29T11:56:55.876Z</time>
      </trkpt>
      <trkpt lat="43.15031" lon="3.10711">
        <ele>171</ele>
        <time>2025-12-29T11:56:56.875Z</time>
      </trkpt>
      <trkpt lat="43.15031" lon="3.10712">
        <ele>171</ele>
        <time>2025-12-29T11:56:57.875Z</time>
      </trkpt>
      <trkpt lat="43.15031" lon="3.10712">
        <ele>171</ele>
        <time>2025-12-29T11:56:58.875Z</time>
      </trkpt>
      <trkpt lat="43.15031" lon="3.10712">
        <ele>171</ele>
        <time>2025-12-29T11:56:59.875Z</time>
      </trkpt>
      <trkpt lat="43.15031" lon="3.10712">
        <ele>172</ele>
        <time>2025-12-29T11:57:00.875Z</time>
      </trkpt>
      <trkpt lat="43.15029" lon="3.10712">
        <ele>172</ele>
        <time>2025-12-29T11:57:01.875Z</time>
      </trkpt>
      <trkpt lat="43.15029" lon="3.10712">
        <ele>172</ele>
        <time>2025-12-29T11:57:02.875Z</time>
      </trkpt>
      <trkpt lat="43.15029" lon="3.10712">
        <ele>173</ele>
        <time>2025-12-29T11:57:03.875Z</time>
      </trkpt>
      <trkpt lat="43.15029" lon="3.10712">
        <ele>173</ele>
        <time>2025-12-29T11:57:04.875Z</time>
      </trkpt>
      <trkpt lat="43.15029" lon="3.10713">
        <ele>173</ele>
        <time>2025-12-29T11:57:05.875Z</time>
      </trkpt>
      <trkpt lat="43.15029" lon="3.10713">
        <ele>174</ele>
        <time>2025-12-29T11:57:06.875Z</time>
      </trkpt>
      <trkpt lat="43.15029" lon="3.10713">
        <ele>174</ele>
        <time>2025-12-29T11:57:07.875Z</time>
      </trkpt>
      <trkpt lat="43.15029" lon="3.10713">
        <ele>174</ele>
        <time>2025-12-29T11:57:08.875Z</time>
      </trkpt>
      <trkpt lat="43.15029" lon="3.10714">
        <ele>174</ele>
        <time>2025-12-29T11:57:09.875Z</time>
      </trkpt>
      <trkpt lat="43.15029" lon="3.10713">
        <ele>174</ele>
        <time>2025-12-29T11:57:10.875Z</time>
      </trkpt>
      <trkpt lat="43.15029" lon="3.10713">
        <ele>174</ele>
        <time>2025-12-29T11:57:11.875Z</time>
      </trkpt>
      <trkpt lat="43.15029" lon="3.10713">
        <ele>174</ele>
        <time>2025-12-29T11:57:12.875Z</time>
      </trkpt>
      <trkpt lat="43.1503" lon="3.10713">
        <ele>174</ele>
        <time>2025-12-29T11:57:13.875Z</time>
      </trkpt>
      <trkpt lat="43.1503" lon="3.10713">
        <ele>174</ele>
        <time>2025-12-29T11:57:14.875Z</time>
      </trkpt>
      <trkpt lat="43.1503" lon="3.10713">
        <ele>174</ele>
        <time>2025-12-29T11:57:15.875Z</time>
      </trkpt>
      <trkpt lat="43.1503" lon="3.10713">
        <ele>175</ele>
        <time>2025-12-29T11:57:16.875Z</time>
      </trkpt>
      <trkpt lat="43.1503" lon="3.10714">
        <ele>175</ele>
        <time>2025-12-29T11:57:17.875Z</time>
      </trkpt>
      <trkpt lat="43.1503" lon="3.10714">
        <ele>175</ele>
        <time>2025-12-29T11:57:18.875Z</time>
      </trkpt>
      <trkpt lat="43.1503" lon="3.10714">
        <ele>175</ele>
        <time>2025-12-29T11:57:19.875Z</time>
      </trkpt>
      <trkpt lat="43.15031" lon="3.10715">
        <ele>175</ele>
        <time>2025-12-29T11:57:20.875Z</time>
      </trkpt>
      <trkpt lat="43.15031" lon="3.10715">
        <ele>175</ele>
        <time>2025-12-29T11:57:21.875Z</time>
      </trkpt>
      <trkpt lat="43.15032" lon="3.10715">
        <ele>175</ele>
        <time>2025-12-29T11:57:22.875Z</time>
      </trkpt>
      <trkpt lat="43.15032" lon="3.10715">
        <ele>175</ele>
        <time>2025-12-29T11:57:23.875Z</time>
      </trkpt>
      <trkpt lat="43.15032" lon="3.10715">
        <ele>175</ele>
        <time>2025-12-29T11:57:24.875Z</time>
      </trkpt>
      <trkpt lat="43.15032" lon="3.10716">
        <ele>176</ele>
        <time>2025-12-29T11:57:25.875Z</time>
      </trkpt>
      <trkpt lat="43.15032" lon="3.10716">
        <ele>176</ele>
        <time>2025-12-29T11:57:26.876Z</time>
      </trkpt>
      <trkpt lat="43.15032" lon="3.10716">
        <ele>176</ele>
        <time>2025-12-29T11:57:27.875Z</time>
      </trkpt>
      <trkpt lat="43.15033" lon="3.10716">
        <ele>176</ele>
        <time>2025-12-29T11:57:28.875Z</time>
      </trkpt>
      <trkpt lat="43.15033" lon="3.10715">
        <ele>177</ele>
        <time>2025-12-29T11:57:29.875Z</time>
      </trkpt>
      <trkpt lat="43.15033" lon="3.10715">
        <ele>177</ele>
        <time>2025-12-29T11:57:30.875Z</time>
      </trkpt>
      <trkpt lat="43.15033" lon="3.10715">
        <ele>177</ele>
        <time>2025-12-29T11:57:31.875Z</time>
      </trkpt>
      <trkpt lat="43.15033" lon="3.10715">
        <ele>178</ele>
        <time>2025-12-29T11:57:32.875Z</time>
      </trkpt>
      <trkpt lat="43.15033" lon="3.10715">
        <ele>178</ele>
        <time>2025-12-29T11:57:33.875Z</time>
      </trkpt>
      <trkpt lat="43.15034" lon="3.10715">
        <ele>178</ele>
        <time>2025-12-29T11:57:34.875Z</time>
      </trkpt>
      <trkpt lat="43.15034" lon="3.10715">
        <ele>179</ele>
        <time>2025-12-29T11:57:35.875Z</time>
      </trkpt>
      <trkpt lat="43.15035" lon="3.10715">
        <ele>179</ele>
        <time>2025-12-29T11:57:36.875Z</time>
      </trkpt>
      <trkpt lat="43.15035" lon="3.10715">
        <ele>179</ele>
        <time>2025-12-29T11:57:37.875Z</time>
      </trkpt>
      <trkpt lat="43.15035" lon="3.10714">
        <ele>180</ele>
        <time>2025-12-29T11:57:38.875Z</time>
      </trkpt>
      <trkpt lat="43.15035" lon="3.10714">
        <ele>180</ele>
        <time>2025-12-29T11:57:39.875Z</time>
      </trkpt>
      <trkpt lat="43.15035" lon="3.10715">
        <ele>180</ele>
        <time>2025-12-29T11:57:40.875Z</time>
      </trkpt>
      <trkpt lat="43.15036" lon="3.10715">
        <ele>181</ele>
        <time>2025-12-29T11:57:41.875Z</time>
      </trkpt>
      <trkpt lat="43.15036" lon="3.10715">
        <ele>181</ele>
        <time>2025-12-29T11:57:42.875Z</time>
      </trkpt>
      <trkpt lat="43.15037" lon="3.10715">
        <ele>181</ele>
        <time>2025-12-29T11:57:43.875Z</time>
      </trkpt>
      <trkpt lat="43.15038" lon="3.10715">
        <ele>181</ele>
        <time>2025-12-29T11:57:44.875Z</time>
      </trkpt>
      <trkpt lat="43.15038" lon="3.10715">
        <ele>181</ele>
        <time>2025-12-29T11:57:45.875Z</time>
      </trkpt>
      <trkpt lat="43.15039" lon="3.10714">
        <ele>181</ele>
        <time>2025-12-29T11:57:46.875Z</time>
      </trkpt>
      <trkpt lat="43.15039" lon="3.10714">
        <ele>182</ele>
        <time>2025-12-29T11:57:47.875Z</time>
      </trkpt>
      <trkpt lat="43.15039" lon="3.10714">
        <ele>182</ele>
        <time>2025-12-29T11:57:48.875Z</time>
      </trkpt>
      <trkpt lat="43.1504" lon="3.10714">
        <ele>182</ele>
        <time>2025-12-29T11:57:49.875Z</time>
      </trkpt>
      <trkpt lat="43.1504" lon="3.10713">
        <ele>182</ele>
        <time>2025-12-29T11:57:50.875Z</time>
      </trkpt>
      <trkpt lat="43.15041" lon="3.10713">
        <ele>182</ele>
        <time>2025-12-29T11:57:51.875Z</time>
      </trkpt>
      <trkpt lat="43.15042" lon="3.10712">
        <ele>183</ele>
        <time>2025-12-29T11:57:52.875Z</time>
      </trkpt>
      <trkpt lat="43.15042" lon="3.10712">
        <ele>183</ele>
        <time>2025-12-29T11:57:53.875Z</time>
      </trkpt>
      <trkpt lat="43.15042" lon="3.10712">
        <ele>183</ele>
        <time>2025-12-29T11:57:54.875Z</time>
      </trkpt>
      <trkpt lat="43.15042" lon="3.10712">
        <ele>183</ele>
        <time>2025-12-29T11:57:55.875Z</time>
      </trkpt>
      <trkpt lat="43.15042" lon="3.10711">
        <ele>183</ele>
        <time>2025-12-29T11:57:56.875Z</time>
      </trkpt>
      <trkpt lat="43.15042" lon="3.10711">
        <ele>183</ele>
        <time>2025-12-29T11:57:57.875Z</time>
      </trkpt>
      <trkpt lat="43.15042" lon="3.10711">
        <ele>183</ele>
        <time>2025-12-29T11:57:58.875Z</time>
      </trkpt>
      <trkpt lat="43.15043" lon="3.1071">
        <ele>183</ele>
        <time>2025-12-29T11:57:59.875Z</time>
      </trkpt>
      <trkpt lat="43.15043" lon="3.10709">
        <ele>183</ele>
        <time>2025-12-29T11:58:00.875Z</time>
      </trkpt>
      <trkpt lat="43.15043" lon="3.10708">
        <ele>183</ele>
        <time>2025-12-29T11:58:01.875Z</time>
      </trkpt>
      <trkpt lat="43.15043" lon="3.10706">
        <ele>183</ele>
        <time>2025-12-29T11:58:02.875Z</time>
      </trkpt>
      <trkpt lat="43.15043" lon="3.10705">
        <ele>183</ele>
        <time>2025-12-29T11:58:03.875Z</time>
      </trkpt>
      <trkpt lat="43.15043" lon="3.10704">
        <ele>183</ele>
        <time>2025-12-29T11:58:04.875Z</time>
      </trkpt>
      <trkpt lat="43.15043" lon="3.10703">
        <ele>183</ele>
        <time>2025-12-29T11:58:05.875Z</time>
      </trkpt>
      <trkpt lat="43.15044" lon="3.10703">
        <ele>183</ele>
        <time>2025-12-29T11:58:06.875Z</time>
      </trkpt>
      <trkpt lat="43.15044" lon="3.10703">
        <ele>183</ele>
        <time>2025-12-29T11:58:07.875Z</time>
      </trkpt>
      <trkpt lat="43.15044" lon="3.10703">
        <ele>183</ele>
        <time>2025-12-29T11:58:08.875Z</time>
      </trkpt>
      <trkpt lat="43.15044" lon="3.10704">
        <ele>183</ele>
        <time>2025-12-29T11:58:09.875Z</time>
      </trkpt>
      <trkpt lat="43.15044" lon="3.10704">
        <ele>183</ele>
        <time>2025-12-29T11:58:10.875Z</time>
      </trkpt>
      <trkpt lat="43.15045" lon="3.10703">
        <ele>183</ele>
        <time>2025-12-29T11:58:11.875Z</time>
      </trkpt>
      <trkpt lat="43.15045" lon="3.10702">
        <ele>183</ele>
        <time>2025-12-29T11:58:12.875Z</time>
      </trkpt>
      <trkpt lat="43.15045" lon="3.10701">
        <ele>183</ele>
        <time>2025-12-29T11:58:13.875Z</time>
      </trkpt>
      <trkpt lat="43.15044" lon="3.10699">
        <ele>184</ele>
        <time>2025-12-29T11:58:14.875Z</time>
      </trkpt>
      <trkpt lat="43.15044" lon="3.10698">
        <ele>184</ele>
        <time>2025-12-29T11:58:15.875Z</time>
      </trkpt>
      <trkpt lat="43.15044" lon="3.10697">
        <ele>184</ele>
        <time>2025-12-29T11:58:16.875Z</time>
      </trkpt>
      <trkpt lat="43.15044" lon="3.10697">
        <ele>185</ele>
        <time>2025-12-29T11:58:17.875Z</time>
      </trkpt>
      <trkpt lat="43.15044" lon="3.10696">
        <ele>185</ele>
        <time>2025-12-29T11:58:18.875Z</time>
      </trkpt>
      <trkpt lat="43.15044" lon="3.10696">
        <ele>185</ele>
        <time>2025-12-29T11:58:19.875Z</time>
      </trkpt>
      <trkpt lat="43.15044" lon="3.10696">
        <ele>185</ele>
        <time>2025-12-29T11:58:20.875Z</time>
      </trkpt>
      <trkpt lat="43.15044" lon="3.10696">
        <ele>185</ele>
        <time>2025-12-29T11:58:21.875Z</time>
      </trkpt>
      <trkpt lat="43.15044" lon="3.10696">
        <ele>184</ele>
        <time>2025-12-29T11:58:22.875Z</time>
      </trkpt>
      <trkpt lat="43.15044" lon="3.10696">
        <ele>184</ele>
        <time>2025-12-29T11:58:23.875Z</time>
      </trkpt>
      <trkpt lat="43.15044" lon="3.10696">
        <ele>184</ele>
        <time>2025-12-29T11:58:24.875Z</time>
      </trkpt>
      <trkpt lat="43.15044" lon="3.10696">
        <ele>183</ele>
        <time>2025-12-29T11:58:25.875Z</time>
      </trkpt>
      <trkpt lat="43.15044" lon="3.10696">
        <ele>183</ele>
        <time>2025-12-29T11:58:26.875Z</time>
      </trkpt>
      <trkpt lat="43.15044" lon="3.10696">
        <ele>183</ele>
        <time>2025-12-29T11:58:27.875Z</time>
      </trkpt>
      <trkpt lat="43.15044" lon="3.10696">
        <ele>182</ele>
        <time>2025-12-29T11:58:28.875Z</time>
      </trkpt>
      <trkpt lat="43.15044" lon="3.10697">
        <ele>182</ele>
        <time>2025-12-29T11:58:29.875Z</time>
      </trkpt>
      <trkpt lat="43.15044" lon="3.10697">
        <ele>182</ele>
        <time>2025-12-29T11:58:30.875Z</time>
      </trkpt>
      <trkpt lat="43.15044" lon="3.10697">
        <ele>182</ele>
        <time>2025-12-29T11:58:31.875Z</time>
      </trkpt>
      <trkpt lat="43.15044" lon="3.10697">
        <ele>183</ele>
        <time>2025-12-29T11:58:32.875Z</time>
      </trkpt>
      <trkpt lat="43.15044" lon="3.10697">
        <ele>183</ele>
        <time>2025-12-29T11:58:33.875Z</time>
      </trkpt>
      <trkpt lat="43.15044" lon="3.10696">
        <ele>183</ele>
        <time>2025-12-29T11:58:34.875Z</time>
      </trkpt>
      <trkpt lat="43.15044" lon="3.10696">
        <ele>183</ele>
        <time>2025-12-29T11:58:35.875Z</time>
      </trkpt>
      <trkpt lat="43.15044" lon="3.10696">
        <ele>183</ele>
        <time>2025-12-29T11:58:36.875Z</time>
      </trkpt>
      <trkpt lat="43.15044" lon="3.10697">
        <ele>183</ele>
        <time>2025-12-29T11:58:37.875Z</time>
      </trkpt>
      <trkpt lat="43.15043" lon="3.10697">
        <ele>183</ele>
        <time>2025-12-29T11:58:38.875Z</time>
      </trkpt>
      <trkpt lat="43.15043" lon="3.10697">
        <ele>183</ele>
        <time>2025-12-29T11:58:39.875Z</time>
      </trkpt>
      <trkpt lat="43.15043" lon="3.10697">
        <ele>183</ele>
        <time>2025-12-29T11:58:40.875Z</time>
      </trkpt>
      <trkpt lat="43.15043" lon="3.10697">
        <ele>183</ele>
        <time>2025-12-29T11:58:41.875Z</time>
      </trkpt>
      <trkpt lat="43.15043" lon="3.10697">
        <ele>184</ele>
        <time>2025-12-29T11:58:42.875Z</time>
      </trkpt>
      <trkpt lat="43.15043" lon="3.10697">
        <ele>184</ele>
        <time>2025-12-29T11:58:43.875Z</time>
      </trkpt>
      <trkpt lat="43.15043" lon="3.10697">
        <ele>184</ele>
        <time>2025-12-29T11:58:44.875Z</time>
      </trkpt>
      <trkpt lat="43.15043" lon="3.10697">
        <ele>185</ele>
        <time>2025-12-29T11:58:45.875Z</time>
      </trkpt>
      <trkpt lat="43.15043" lon="3.10697">
        <ele>185</ele>
        <time>2025-12-29T11:58:46.875Z</time>
      </trkpt>
      <trkpt lat="43.15043" lon="3.10697">
        <ele>186</ele>
        <time>2025-12-29T11:58:47.875Z</time>
      </trkpt>
      <trkpt lat="43.15043" lon="3.10697">
        <ele>185</ele>
        <time>2025-12-29T11:58:48.875Z</time>
      </trkpt>
      <trkpt lat="43.15043" lon="3.10697">
        <ele>185</ele>
        <time>2025-12-29T11:58:49.875Z</time>
      </trkpt>
      <trkpt lat="43.15043" lon="3.10697">
        <ele>185</ele>
        <time>2025-12-29T11:58:50.875Z</time>
      </trkpt>
      <trkpt lat="43.15043" lon="3.10697">
        <ele>185</ele>
        <time>2025-12-29T11:58:51.875Z</time>
      </trkpt>
      <trkpt lat="43.15043" lon="3.10697">
        <ele>186</ele>
        <time>2025-12-29T11:58:52.875Z</time>
      </trkpt>
      <trkpt lat="43.15043" lon="3.10697">
        <ele>186</ele>
        <time>2025-12-29T11:58:53.875Z</time>
      </trkpt>
      <trkpt lat="43.15043" lon="3.10697">
        <ele>187</ele>
        <time>2025-12-29T11:58:54.875Z</time>
      </trkpt>
      <trkpt lat="43.15043" lon="3.10697">
        <ele>188</ele>
        <time>2025-12-29T11:58:55.875Z</time>
      </trkpt>
      <trkpt lat="43.15043" lon="3.10697">
        <ele>188</ele>
        <time>2025-12-29T11:58:56.875Z</time>
      </trkpt>
      <trkpt lat="43.15043" lon="3.10698">
        <ele>188</ele>
        <time>2025-12-29T11:58:57.875Z</time>
      </trkpt>
      <trkpt lat="43.15043" lon="3.10698">
        <ele>189</ele>
        <time>2025-12-29T11:58:58.875Z</time>
      </trkpt>
      <trkpt lat="43.15043" lon="3.10698">
        <ele>189</ele>
        <time>2025-12-29T11:58:59.875Z</time>
      </trkpt>
      <trkpt lat="43.15043" lon="3.10698">
        <ele>189</ele>
        <time>2025-12-29T11:59:00.875Z</time>
      </trkpt>
      <trkpt lat="43.15043" lon="3.10698">
        <ele>188</ele>
        <time>2025-12-29T11:59:01.875Z</time>
      </trkpt>
      <trkpt lat="43.15043" lon="3.10698">
        <ele>188</ele>
        <time>2025-12-29T11:59:02.875Z</time>
      </trkpt>
      <trkpt lat="43.15043" lon="3.10698">
        <ele>188</ele>
        <time>2025-12-29T11:59:03.875Z</time>
      </trkpt>
      <trkpt lat="43.15043" lon="3.10698">
        <ele>187</ele>
        <time>2025-12-29T11:59:04.875Z</time>
      </trkpt>
      <trkpt lat="43.15043" lon="3.10698">
        <ele>187</ele>
        <time>2025-12-29T11:59:05.875Z</time>
      </trkpt>
      <trkpt lat="43.15044" lon="3.10698">
        <ele>186</ele>
        <time>2025-12-29T11:59:06.875Z</time>
      </trkpt>
      <trkpt lat="43.15044" lon="3.10699">
        <ele>186</ele>
        <time>2025-12-29T11:59:07.875Z</time>
      </trkpt>
      <trkpt lat="43.15044" lon="3.10699">
        <ele>186</ele>
        <time>2025-12-29T11:59:08.875Z</time>
      </trkpt>
      <trkpt lat="43.15044" lon="3.107">
        <ele>186</ele>
        <time>2025-12-29T11:59:09.875Z</time>
      </trkpt>
      <trkpt lat="43.15045" lon="3.10701">
        <ele>185</ele>
        <time>2025-12-29T11:59:10.875Z</time>
      </trkpt>
      <trkpt lat="43.15045" lon="3.10701">
        <ele>185</ele>
        <time>2025-12-29T11:59:11.875Z</time>
      </trkpt>
      <trkpt lat="43.15045" lon="3.10702">
        <ele>185</ele>
        <time>2025-12-29T11:59:12.875Z</time>
      </trkpt>
      <trkpt lat="43.15045" lon="3.10702">
        <ele>185</ele>
        <time>2025-12-29T11:59:13.875Z</time>
      </trkpt>
      <trkpt lat="43.15045" lon="3.10703">
        <ele>184</ele>
        <time>2025-12-29T11:59:14.875Z</time>
      </trkpt>
      <trkpt lat="43.15045" lon="3.10704">
        <ele>183</ele>
        <time>2025-12-29T11:59:15.875Z</time>
      </trkpt>
      <trkpt lat="43.15046" lon="3.10705">
        <ele>183</ele>
        <time>2025-12-29T11:59:16.875Z</time>
      </trkpt>
      <trkpt lat="43.15047" lon="3.10706">
        <ele>182</ele>
        <time>2025-12-29T11:59:17.875Z</time>
      </trkpt>
      <trkpt lat="43.15047" lon="3.10706">
        <ele>182</ele>
        <time>2025-12-29T11:59:18.875Z</time>
      </trkpt>
      <trkpt lat="43.15048" lon="3.10707">
        <ele>182</ele>
        <time>2025-12-29T11:59:19.875Z</time>
      </trkpt>
      <trkpt lat="43.15049" lon="3.10708">
        <ele>182</ele>
        <time>2025-12-29T11:59:20.875Z</time>
      </trkpt>
      <trkpt lat="43.15049" lon="3.10709">
        <ele>182</ele>
        <time>2025-12-29T11:59:21.875Z</time>
      </trkpt>
      <trkpt lat="43.1505" lon="3.1071">
        <ele>182</ele>
        <time>2025-12-29T11:59:22.875Z</time>
      </trkpt>
      <trkpt lat="43.1505" lon="3.10711">
        <ele>182</ele>
        <time>2025-12-29T11:59:23.875Z</time>
      </trkpt>
      <trkpt lat="43.15051" lon="3.10712">
        <ele>182</ele>
        <time>2025-12-29T11:59:24.875Z</time>
      </trkpt>
      <trkpt lat="43.15051" lon="3.10714">
        <ele>182</ele>
        <time>2025-12-29T11:59:25.875Z</time>
      </trkpt>
      <trkpt lat="43.15051" lon="3.10715">
        <ele>182</ele>
        <time>2025-12-29T11:59:26.875Z</time>
      </trkpt>
      <trkpt lat="43.15051" lon="3.10716">
        <ele>182</ele>
        <time>2025-12-29T11:59:27.875Z</time>
      </trkpt>
      <trkpt lat="43.15051" lon="3.10716">
        <ele>182</ele>
        <time>2025-12-29T11:59:28.875Z</time>
      </trkpt>
      <trkpt lat="43.15051" lon="3.10717">
        <ele>182</ele>
        <time>2025-12-29T11:59:29.875Z</time>
      </trkpt>
      <trkpt lat="43.15051" lon="3.10717">
        <ele>183</ele>
        <time>2025-12-29T11:59:30.875Z</time>
      </trkpt>
      <trkpt lat="43.15051" lon="3.10717">
        <ele>183</ele>
        <time>2025-12-29T11:59:31.875Z</time>
      </trkpt>
      <trkpt lat="43.15051" lon="3.10717">
        <ele>184</ele>
        <time>2025-12-29T11:59:32.875Z</time>
      </trkpt>
      <trkpt lat="43.15051" lon="3.10718">
        <ele>184</ele>
        <time>2025-12-29T11:59:33.875Z</time>
      </trkpt>
      <trkpt lat="43.15051" lon="3.10718">
        <ele>185</ele>
        <time>2025-12-29T11:59:34.875Z</time>
      </trkpt>
      <trkpt lat="43.15052" lon="3.10719">
        <ele>185</ele>
        <time>2025-12-29T11:59:35.875Z</time>
      </trkpt>
      <trkpt lat="43.15053" lon="3.10721">
        <ele>185</ele>
        <time>2025-12-29T11:59:36.875Z</time>
      </trkpt>
      <trkpt lat="43.15055" lon="3.1072">
        <ele>185</ele>
        <time>2025-12-29T11:59:37.875Z</time>
      </trkpt>
      <trkpt lat="43.15057" lon="3.1072">
        <ele>185</ele>
        <time>2025-12-29T11:59:38.875Z</time>
      </trkpt>
      <trkpt lat="43.15058" lon="3.10719">
        <ele>186</ele>
        <time>2025-12-29T11:59:39.875Z</time>
      </trkpt>
      <trkpt lat="43.15058" lon="3.10719">
        <ele>186</ele>
        <time>2025-12-29T11:59:40.875Z</time>
      </trkpt>
      <trkpt lat="43.15059" lon="3.10718">
        <ele>186</ele>
        <time>2025-12-29T11:59:41.875Z</time>
      </trkpt>
      <trkpt lat="43.15059" lon="3.10718">
        <ele>187</ele>
        <time>2025-12-29T11:59:42.875Z</time>
      </trkpt>
      <trkpt lat="43.15059" lon="3.10718">
        <ele>187</ele>
        <time>2025-12-29T11:59:43.875Z</time>
      </trkpt>
      <trkpt lat="43.15059" lon="3.10718">
        <ele>188</ele>
        <time>2025-12-29T11:59:44.875Z</time>
      </trkpt>
      <trkpt lat="43.15059" lon="3.10718">
        <ele>188</ele>
        <time>2025-12-29T11:59:45.875Z</time>
      </trkpt>
      <trkpt lat="43.15059" lon="3.10718">
        <ele>188</ele>
        <time>2025-12-29T11:59:46.875Z</time>
      </trkpt>
      <trkpt lat="43.15059" lon="3.10719">
        <ele>188</ele>
        <time>2025-12-29T11:59:47.875Z</time>
      </trkpt>
      <trkpt lat="43.15059" lon="3.10719">
        <ele>188</ele>
        <time>2025-12-29T11:59:48.875Z</time>
      </trkpt>
      <trkpt lat="43.15058" lon="3.1072">
        <ele>187</ele>
        <time>2025-12-29T11:59:49.875Z</time>
      </trkpt>
      <trkpt lat="43.15058" lon="3.1072">
        <ele>187</ele>
        <time>2025-12-29T11:59:50.875Z</time>
      </trkpt>
      <trkpt lat="43.15057" lon="3.10722">
        <ele>187</ele>
        <time>2025-12-29T11:59:51.875Z</time>
      </trkpt>
      <trkpt lat="43.15057" lon="3.10722">
        <ele>187</ele>
        <time>2025-12-29T11:59:52.875Z</time>
      </trkpt>
      <trkpt lat="43.15056" lon="3.10723">
        <ele>186</ele>
        <time>2025-12-29T11:59:53.875Z</time>
      </trkpt>
      <trkpt lat="43.15055" lon="3.10723">
        <ele>186</ele>
        <time>2025-12-29T11:59:54.875Z</time>
      </trkpt>
      <trkpt lat="43.15054" lon="3.10724">
        <ele>186</ele>
        <time>2025-12-29T11:59:55.875Z</time>
      </trkpt>
      <trkpt lat="43.15054" lon="3.10724">
        <ele>186</ele>
        <time>2025-12-29T11:59:56.875Z</time>
      </trkpt>
      <trkpt lat="43.15053" lon="3.10725">
        <ele>186</ele>
        <time>2025-12-29T11:59:57.875Z</time>
      </trkpt>
      <trkpt lat="43.15052" lon="3.10725">
        <ele>187</ele>
        <time>2025-12-29T11:59:58.875Z</time>
      </trkpt>
      <trkpt lat="43.1505" lon="3.10726">
        <ele>187</ele>
        <time>2025-12-29T11:59:59.875Z</time>
      </trkpt>
      <trkpt lat="43.15049" lon="3.10726">
        <ele>187</ele>
        <time>2025-12-29T12:00:00.875Z</time>
      </trkpt>
      <trkpt lat="43.15047" lon="3.10727">
        <ele>188</ele>
        <time>2025-12-29T12:00:01.875Z</time>
      </trkpt>
      <trkpt lat="43.15046" lon="3.10727">
        <ele>188</ele>
        <time>2025-12-29T12:00:02.875Z</time>
      </trkpt>
      <trkpt lat="43.15045" lon="3.10728">
        <ele>188</ele>
        <time>2025-12-29T12:00:03.875Z</time>
      </trkpt>
      <trkpt lat="43.15044" lon="3.10728">
        <ele>188</ele>
        <time>2025-12-29T12:00:04.875Z</time>
      </trkpt>
      <trkpt lat="43.15043" lon="3.10729">
        <ele>187</ele>
        <time>2025-12-29T12:00:05.875Z</time>
      </trkpt>
      <trkpt lat="43.15041" lon="3.1073">
        <ele>187</ele>
        <time>2025-12-29T12:00:06.875Z</time>
      </trkpt>
      <trkpt lat="43.1504" lon="3.10731">
        <ele>187</ele>
        <time>2025-12-29T12:00:07.875Z</time>
      </trkpt>
      <trkpt lat="43.15039" lon="3.10732">
        <ele>187</ele>
        <time>2025-12-29T12:00:08.875Z</time>
      </trkpt>
      <trkpt lat="43.15038" lon="3.10732">
        <ele>186</ele>
        <time>2025-12-29T12:00:09.875Z</time>
      </trkpt>
      <trkpt lat="43.15037" lon="3.10733">
        <ele>186</ele>
        <time>2025-12-29T12:00:10.875Z</time>
      </trkpt>
      <trkpt lat="43.15035" lon="3.10733">
        <ele>186</ele>
        <time>2025-12-29T12:00:11.875Z</time>
      </trkpt>
      <trkpt lat="43.15034" lon="3.10734">
        <ele>186</ele>
        <time>2025-12-29T12:00:12.875Z</time>
      </trkpt>
      <trkpt lat="43.15033" lon="3.10734">
        <ele>186</ele>
        <time>2025-12-29T12:00:13.875Z</time>
      </trkpt>
      <trkpt lat="43.15032" lon="3.10735">
        <ele>186</ele>
        <time>2025-12-29T12:00:14.875Z</time>
      </trkpt>
      <trkpt lat="43.15031" lon="3.10735">
        <ele>186</ele>
        <time>2025-12-29T12:00:15.875Z</time>
      </trkpt>
      <trkpt lat="43.1503" lon="3.10736">
        <ele>186</ele>
        <time>2025-12-29T12:00:16.875Z</time>
      </trkpt>
      <trkpt lat="43.1503" lon="3.10736">
        <ele>186</ele>
        <time>2025-12-29T12:00:17.875Z</time>
      </trkpt>
      <trkpt lat="43.15028" lon="3.10736">
        <ele>186</ele>
        <time>2025-12-29T12:00:18.875Z</time>
      </trkpt>
      <trkpt lat="43.15027" lon="3.10737">
        <ele>186</ele>
        <time>2025-12-29T12:00:19.875Z</time>
      </trkpt>
      <trkpt lat="43.15026" lon="3.10738">
        <ele>186</ele>
        <time>2025-12-29T12:00:20.875Z</time>
      </trkpt>
      <trkpt lat="43.15025" lon="3.10739">
        <ele>185</ele>
        <time>2025-12-29T12:00:21.875Z</time>
      </trkpt>
      <trkpt lat="43.15024" lon="3.10739">
        <ele>185</ele>
        <time>2025-12-29T12:00:22.875Z</time>
      </trkpt>
      <trkpt lat="43.15022" lon="3.1074">
        <ele>185</ele>
        <time>2025-12-29T12:00:23.875Z</time>
      </trkpt>
      <trkpt lat="43.15021" lon="3.1074">
        <ele>185</ele>
        <time>2025-12-29T12:00:24.875Z</time>
      </trkpt>
      <trkpt lat="43.1502" lon="3.10741">
        <ele>185</ele>
        <time>2025-12-29T12:00:25.875Z</time>
      </trkpt>
      <trkpt lat="43.15019" lon="3.10741">
        <ele>185</ele>
        <time>2025-12-29T12:00:26.875Z</time>
      </trkpt>
      <trkpt lat="43.15018" lon="3.10742">
        <ele>185</ele>
        <time>2025-12-29T12:00:27.875Z</time>
      </trkpt>
      <trkpt lat="43.15017" lon="3.10742">
        <ele>185</ele>
        <time>2025-12-29T12:00:28.875Z</time>
      </trkpt>
      <trkpt lat="43.15016" lon="3.10743">
        <ele>185</ele>
        <time>2025-12-29T12:00:29.875Z</time>
      </trkpt>
      <trkpt lat="43.15015" lon="3.10744">
        <ele>185</ele>
        <time>2025-12-29T12:00:30.875Z</time>
      </trkpt>
      <trkpt lat="43.15014" lon="3.10744">
        <ele>185</ele>
        <time>2025-12-29T12:00:31.875Z</time>
      </trkpt>
      <trkpt lat="43.15013" lon="3.10745">
        <ele>185</ele>
        <time>2025-12-29T12:00:32.875Z</time>
      </trkpt>
      <trkpt lat="43.15012" lon="3.10745">
        <ele>184</ele>
        <time>2025-12-29T12:00:33.875Z</time>
      </trkpt>
      <trkpt lat="43.15011" lon="3.10746">
        <ele>184</ele>
        <time>2025-12-29T12:00:34.875Z</time>
      </trkpt>
      <trkpt lat="43.1501" lon="3.10746">
        <ele>184</ele>
        <time>2025-12-29T12:00:35.875Z</time>
      </trkpt>
      <trkpt lat="43.15009" lon="3.10747">
        <ele>184</ele>
        <time>2025-12-29T12:00:36.875Z</time>
      </trkpt>
      <trkpt lat="43.15007" lon="3.10747">
        <ele>184</ele>
        <time>2025-12-29T12:00:37.875Z</time>
      </trkpt>
      <trkpt lat="43.15006" lon="3.10748">
        <ele>184</ele>
        <time>2025-12-29T12:00:38.875Z</time>
      </trkpt>
      <trkpt lat="43.15005" lon="3.10748">
        <ele>185</ele>
        <time>2025-12-29T12:00:39.875Z</time>
      </trkpt>
      <trkpt lat="43.15004" lon="3.10749">
        <ele>185</ele>
        <time>2025-12-29T12:00:40.875Z</time>
      </trkpt>
      <trkpt lat="43.15003" lon="3.1075">
        <ele>185</ele>
        <time>2025-12-29T12:00:41.875Z</time>
      </trkpt>
      <trkpt lat="43.15002" lon="3.10751">
        <ele>185</ele>
        <time>2025-12-29T12:00:42.875Z</time>
      </trkpt>
      <trkpt lat="43.15001" lon="3.10752">
        <ele>185</ele>
        <time>2025-12-29T12:00:43.875Z</time>
      </trkpt>
      <trkpt lat="43.15" lon="3.10753">
        <ele>185</ele>
        <time>2025-12-29T12:00:44.875Z</time>
      </trkpt>
      <trkpt lat="43.14999" lon="3.10753">
        <ele>185</ele>
        <time>2025-12-29T12:00:45.875Z</time>
      </trkpt>
      <trkpt lat="43.14998" lon="3.10753">
        <ele>185</ele>
        <time>2025-12-29T12:00:46.875Z</time>
      </trkpt>
      <trkpt lat="43.14998" lon="3.10753">
        <ele>185</ele>
        <time>2025-12-29T12:00:47.875Z</time>
      </trkpt>
      <trkpt lat="43.14997" lon="3.10754">
        <ele>185</ele>
        <time>2025-12-29T12:00:48.875Z</time>
      </trkpt>
      <trkpt lat="43.14996" lon="3.10754">
        <ele>185</ele>
        <time>2025-12-29T12:00:49.875Z</time>
      </trkpt>
      <trkpt lat="43.14995" lon="3.10754">
        <ele>185</ele>
        <time>2025-12-29T12:00:50.875Z</time>
      </trkpt>
      <trkpt lat="43.14994" lon="3.10754">
        <ele>185</ele>
        <time>2025-12-29T12:00:51.875Z</time>
      </trkpt>
      <trkpt lat="43.14993" lon="3.10754">
        <ele>185</ele>
        <time>2025-12-29T12:00:52.875Z</time>
      </trkpt>
      <trkpt lat="43.14992" lon="3.10753">
        <ele>184</ele>
        <time>2025-12-29T12:00:53.875Z</time>
      </trkpt>
      <trkpt lat="43.14991" lon="3.10754">
        <ele>184</ele>
        <time>2025-12-29T12:00:54.875Z</time>
      </trkpt>
      <trkpt lat="43.1499" lon="3.10754">
        <ele>184</ele>
        <time>2025-12-29T12:00:55.875Z</time>
      </trkpt>
      <trkpt lat="43.14989" lon="3.10754">
        <ele>184</ele>
        <time>2025-12-29T12:00:56.875Z</time>
      </trkpt>
      <trkpt lat="43.14989" lon="3.10755">
        <ele>184</ele>
        <time>2025-12-29T12:00:57.875Z</time>
      </trkpt>
      <trkpt lat="43.14988" lon="3.10755">
        <ele>184</ele>
        <time>2025-12-29T12:00:58.875Z</time>
      </trkpt>
      <trkpt lat="43.14987" lon="3.10754">
        <ele>184</ele>
        <time>2025-12-29T12:00:59.875Z</time>
      </trkpt>
      <trkpt lat="43.14986" lon="3.10754">
        <ele>185</ele>
        <time>2025-12-29T12:01:00.875Z</time>
      </trkpt>
      <trkpt lat="43.14986" lon="3.10755">
        <ele>185</ele>
        <time>2025-12-29T12:01:01.875Z</time>
      </trkpt>
      <trkpt lat="43.14985" lon="3.10755">
        <ele>185</ele>
        <time>2025-12-29T12:01:02.875Z</time>
      </trkpt>
      <trkpt lat="43.14984" lon="3.10755">
        <ele>185</ele>
        <time>2025-12-29T12:01:03.875Z</time>
      </trkpt>
      <trkpt lat="43.14983" lon="3.10756">
        <ele>185</ele>
        <time>2025-12-29T12:01:04.875Z</time>
      </trkpt>
      <trkpt lat="43.14982" lon="3.10756">
        <ele>184</ele>
        <time>2025-12-29T12:01:05.875Z</time>
      </trkpt>
      <trkpt lat="43.14981" lon="3.10756">
        <ele>184</ele>
        <time>2025-12-29T12:01:06.875Z</time>
      </trkpt>
      <trkpt lat="43.14981" lon="3.10757">
        <ele>184</ele>
        <time>2025-12-29T12:01:07.875Z</time>
      </trkpt>
      <trkpt lat="43.1498" lon="3.10757">
        <ele>184</ele>
        <time>2025-12-29T12:01:08.875Z</time>
      </trkpt>
      <trkpt lat="43.14979" lon="3.10757">
        <ele>183</ele>
        <time>2025-12-29T12:01:09.875Z</time>
      </trkpt>
      <trkpt lat="43.14979" lon="3.10757">
        <ele>183</ele>
        <time>2025-12-29T12:01:10.875Z</time>
      </trkpt>
      <trkpt lat="43.14978" lon="3.10758">
        <ele>183</ele>
        <time>2025-12-29T12:01:11.875Z</time>
      </trkpt>
      <trkpt lat="43.14977" lon="3.10758">
        <ele>182</ele>
        <time>2025-12-29T12:01:12.875Z</time>
      </trkpt>
      <trkpt lat="43.14976" lon="3.10758">
        <ele>182</ele>
        <time>2025-12-29T12:01:13.875Z</time>
      </trkpt>
      <trkpt lat="43.14975" lon="3.10758">
        <ele>182</ele>
        <time>2025-12-29T12:01:14.875Z</time>
      </trkpt>
      <trkpt lat="43.14975" lon="3.10758">
        <ele>182</ele>
        <time>2025-12-29T12:01:15.875Z</time>
      </trkpt>
      <trkpt lat="43.14974" lon="3.10757">
        <ele>181</ele>
        <time>2025-12-29T12:01:16.875Z</time>
      </trkpt>
      <trkpt lat="43.14972" lon="3.10757">
        <ele>181</ele>
        <time>2025-12-29T12:01:17.875Z</time>
      </trkpt>
      <trkpt lat="43.14971" lon="3.10758">
        <ele>181</ele>
        <time>2025-12-29T12:01:18.875Z</time>
      </trkpt>
      <trkpt lat="43.1497" lon="3.10758">
        <ele>181</ele>
        <time>2025-12-29T12:01:19.875Z</time>
      </trkpt>
      <trkpt lat="43.14969" lon="3.10758">
        <ele>181</ele>
        <time>2025-12-29T12:01:20.875Z</time>
      </trkpt>
      <trkpt lat="43.14968" lon="3.10759">
        <ele>181</ele>
        <time>2025-12-29T12:01:21.875Z</time>
      </trkpt>
      <trkpt lat="43.14967" lon="3.1076">
        <ele>181</ele>
        <time>2025-12-29T12:01:22.875Z</time>
      </trkpt>
      <trkpt lat="43.14967" lon="3.1076">
        <ele>181</ele>
        <time>2025-12-29T12:01:23.875Z</time>
      </trkpt>
      <trkpt lat="43.14967" lon="3.1076">
        <ele>181</ele>
        <time>2025-12-29T12:01:24.875Z</time>
      </trkpt>
      <trkpt lat="43.14966" lon="3.10761">
        <ele>181</ele>
        <time>2025-12-29T12:01:25.875Z</time>
      </trkpt>
      <trkpt lat="43.14965" lon="3.10761">
        <ele>182</ele>
        <time>2025-12-29T12:01:26.875Z</time>
      </trkpt>
      <trkpt lat="43.14964" lon="3.10761">
        <ele>182</ele>
        <time>2025-12-29T12:01:27.875Z</time>
      </trkpt>
      <trkpt lat="43.14963" lon="3.10761">
        <ele>182</ele>
        <time>2025-12-29T12:01:28.875Z</time>
      </trkpt>
      <trkpt lat="43.14962" lon="3.10761">
        <ele>182</ele>
        <time>2025-12-29T12:01:29.875Z</time>
      </trkpt>
      <trkpt lat="43.14961" lon="3.10762">
        <ele>183</ele>
        <time>2025-12-29T12:01:30.875Z</time>
      </trkpt>
      <trkpt lat="43.14959" lon="3.10762">
        <ele>183</ele>
        <time>2025-12-29T12:01:31.875Z</time>
      </trkpt>
      <trkpt lat="43.14958" lon="3.10762">
        <ele>183</ele>
        <time>2025-12-29T12:01:32.875Z</time>
      </trkpt>
      <trkpt lat="43.14957" lon="3.10762">
        <ele>182</ele>
        <time>2025-12-29T12:01:33.875Z</time>
      </trkpt>
      <trkpt lat="43.14956" lon="3.10762">
        <ele>182</ele>
        <time>2025-12-29T12:01:34.875Z</time>
      </trkpt>
      <trkpt lat="43.14954" lon="3.10762">
        <ele>182</ele>
        <time>2025-12-29T12:01:35.875Z</time>
      </trkpt>
      <trkpt lat="43.14953" lon="3.10762">
        <ele>182</ele>
        <time>2025-12-29T12:01:36.875Z</time>
      </trkpt>
      <trkpt lat="43.14952" lon="3.10762">
        <ele>182</ele>
        <time>2025-12-29T12:01:37.875Z</time>
      </trkpt>
      <trkpt lat="43.14951" lon="3.10763">
        <ele>182</ele>
        <time>2025-12-29T12:01:38.875Z</time>
      </trkpt>
      <trkpt lat="43.1495" lon="3.10763">
        <ele>181</ele>
        <time>2025-12-29T12:01:39.875Z</time>
      </trkpt>
      <trkpt lat="43.14948" lon="3.10763">
        <ele>181</ele>
        <time>2025-12-29T12:01:40.875Z</time>
      </trkpt>
      <trkpt lat="43.14947" lon="3.10763">
        <ele>181</ele>
        <time>2025-12-29T12:01:41.875Z</time>
      </trkpt>
      <trkpt lat="43.14947" lon="3.10764">
        <ele>181</ele>
        <time>2025-12-29T12:01:42.875Z</time>
      </trkpt>
      <trkpt lat="43.14946" lon="3.10764">
        <ele>181</ele>
        <time>2025-12-29T12:01:43.875Z</time>
      </trkpt>
      <trkpt lat="43.14945" lon="3.10764">
        <ele>181</ele>
        <time>2025-12-29T12:01:44.875Z</time>
      </trkpt>
      <trkpt lat="43.14945" lon="3.10764">
        <ele>180</ele>
        <time>2025-12-29T12:01:45.875Z</time>
      </trkpt>
      <trkpt lat="43.14945" lon="3.10764">
        <ele>181</ele>
        <time>2025-12-29T12:01:46.875Z</time>
      </trkpt>
      <trkpt lat="43.14946" lon="3.10764">
        <ele>181</ele>
        <time>2025-12-29T12:01:47.875Z</time>
      </trkpt>
      <trkpt lat="43.14946" lon="3.10764">
        <ele>181</ele>
        <time>2025-12-29T12:01:48.875Z</time>
      </trkpt>
      <trkpt lat="43.14945" lon="3.10764">
        <ele>181</ele>
        <time>2025-12-29T12:01:49.875Z</time>
      </trkpt>
      <trkpt lat="43.14945" lon="3.10764">
        <ele>181</ele>
        <time>2025-12-29T12:01:50.875Z</time>
      </trkpt>
      <trkpt lat="43.14946" lon="3.10764">
        <ele>181</ele>
        <time>2025-12-29T12:01:51.875Z</time>
      </trkpt>
      <trkpt lat="43.14945" lon="3.10764">
        <ele>180</ele>
        <time>2025-12-29T12:01:52.875Z</time>
      </trkpt>
      <trkpt lat="43.14944" lon="3.10764">
        <ele>180</ele>
        <time>2025-12-29T12:01:53.875Z</time>
      </trkpt>
      <trkpt lat="43.14943" lon="3.10764">
        <ele>180</ele>
        <time>2025-12-29T12:01:54.875Z</time>
      </trkpt>
      <trkpt lat="43.14942" lon="3.10765">
        <ele>180</ele>
        <time>2025-12-29T12:01:55.875Z</time>
      </trkpt>
      <trkpt lat="43.14941" lon="3.10765">
        <ele>180</ele>
        <time>2025-12-29T12:01:56.875Z</time>
      </trkpt>
      <trkpt lat="43.1494" lon="3.10765">
        <ele>179</ele>
        <time>2025-12-29T12:01:57.875Z</time>
      </trkpt>
      <trkpt lat="43.14939" lon="3.10766">
        <ele>179</ele>
        <time>2025-12-29T12:01:58.875Z</time>
      </trkpt>
      <trkpt lat="43.14938" lon="3.10766">
        <ele>179</ele>
        <time>2025-12-29T12:01:59.875Z</time>
      </trkpt>
      <trkpt lat="43.14937" lon="3.10766">
        <ele>179</ele>
        <time>2025-12-29T12:02:00.875Z</time>
      </trkpt>
      <trkpt lat="43.14936" lon="3.10767">
        <ele>179</ele>
        <time>2025-12-29T12:02:01.875Z</time>
      </trkpt>
      <trkpt lat="43.14935" lon="3.10767">
        <ele>180</ele>
        <time>2025-12-29T12:02:02.875Z</time>
      </trkpt>
      <trkpt lat="43.14935" lon="3.10767">
        <ele>180</ele>
        <time>2025-12-29T12:02:03.875Z</time>
      </trkpt>
      <trkpt lat="43.14935" lon="3.10767">
        <ele>180</ele>
        <time>2025-12-29T12:02:04.875Z</time>
      </trkpt>
      <trkpt lat="43.14935" lon="3.10767">
        <ele>181</ele>
        <time>2025-12-29T12:02:05.875Z</time>
      </trkpt>
      <trkpt lat="43.14935" lon="3.10767">
        <ele>181</ele>
        <time>2025-12-29T12:02:06.875Z</time>
      </trkpt>
      <trkpt lat="43.14935" lon="3.10768">
        <ele>181</ele>
        <time>2025-12-29T12:02:07.875Z</time>
      </trkpt>
      <trkpt lat="43.14935" lon="3.10768">
        <ele>181</ele>
        <time>2025-12-29T12:02:08.875Z</time>
      </trkpt>
      <trkpt lat="43.14935" lon="3.10769">
        <ele>181</ele>
        <time>2025-12-29T12:02:09.875Z</time>
      </trkpt>
      <trkpt lat="43.14934" lon="3.10769">
        <ele>181</ele>
        <time>2025-12-29T12:02:10.875Z</time>
      </trkpt>
      <trkpt lat="43.14934" lon="3.10769">
        <ele>180</ele>
        <time>2025-12-29T12:02:11.875Z</time>
      </trkpt>
      <trkpt lat="43.14933" lon="3.10769">
        <ele>180</ele>
        <time>2025-12-29T12:02:12.875Z</time>
      </trkpt>
      <trkpt lat="43.14932" lon="3.10769">
        <ele>180</ele>
        <time>2025-12-29T12:02:13.875Z</time>
      </trkpt>
      <trkpt lat="43.14932" lon="3.10769">
        <ele>180</ele>
        <time>2025-12-29T12:02:14.875Z</time>
      </trkpt>
      <trkpt lat="43.14931" lon="3.10769">
        <ele>180</ele>
        <time>2025-12-29T12:02:15.875Z</time>
      </trkpt>
      <trkpt lat="43.1493" lon="3.1077">
        <ele>180</ele>
        <time>2025-12-29T12:02:16.875Z</time>
      </trkpt>
      <trkpt lat="43.1493" lon="3.1077">
        <ele>180</ele>
        <time>2025-12-29T12:02:17.875Z</time>
      </trkpt>
      <trkpt lat="43.1493" lon="3.1077">
        <ele>180</ele>
        <time>2025-12-29T12:02:18.875Z</time>
      </trkpt>
      <trkpt lat="43.14931" lon="3.1077">
        <ele>181</ele>
        <time>2025-12-29T12:02:19.875Z</time>
      </trkpt>
      <trkpt lat="43.14931" lon="3.1077">
        <ele>181</ele>
        <time>2025-12-29T12:02:20.875Z</time>
      </trkpt>
      <trkpt lat="43.14931" lon="3.1077">
        <ele>181</ele>
        <time>2025-12-29T12:02:21.875Z</time>
      </trkpt>
      <trkpt lat="43.14931" lon="3.1077">
        <ele>181</ele>
        <time>2025-12-29T12:02:22.875Z</time>
      </trkpt>
      <trkpt lat="43.14931" lon="3.1077">
        <ele>181</ele>
        <time>2025-12-29T12:02:23.875Z</time>
      </trkpt>
      <trkpt lat="43.14931" lon="3.1077">
        <ele>181</ele>
        <time>2025-12-29T12:02:24.875Z</time>
      </trkpt>
      <trkpt lat="43.14931" lon="3.1077">
        <ele>181</ele>
        <time>2025-12-29T12:02:25.875Z</time>
      </trkpt>
      <trkpt lat="43.14931" lon="3.1077">
        <ele>181</ele>
        <time>2025-12-29T12:02:26.875Z</time>
      </trkpt>
      <trkpt lat="43.14931" lon="3.1077">
        <ele>181</ele>
        <time>2025-12-29T12:02:27.875Z</time>
      </trkpt>
      <trkpt lat="43.14931" lon="3.1077">
        <ele>181</ele>
        <time>2025-12-29T12:02:28.875Z</time>
      </trkpt>
      <trkpt lat="43.14931" lon="3.1077">
        <ele>181</ele>
        <time>2025-12-29T12:02:29.875Z</time>
      </trkpt>
      <trkpt lat="43.14931" lon="3.1077">
        <ele>181</ele>
        <time>2025-12-29T12:02:30.875Z</time>
      </trkpt>
      <trkpt lat="43.14931" lon="3.1077">
        <ele>180</ele>
        <time>2025-12-29T12:02:31.875Z</time>
      </trkpt>
      <trkpt lat="43.14931" lon="3.1077">
        <ele>180</ele>
        <time>2025-12-29T12:02:32.875Z</time>
      </trkpt>
      <trkpt lat="43.14931" lon="3.10771">
        <ele>180</ele>
        <time>2025-12-29T12:02:33.875Z</time>
      </trkpt>
      <trkpt lat="43.14931" lon="3.10771">
        <ele>180</ele>
        <time>2025-12-29T12:02:34.875Z</time>
      </trkpt>
      <trkpt lat="43.14931" lon="3.10771">
        <ele>180</ele>
        <time>2025-12-29T12:02:35.875Z</time>
      </trkpt>
      <trkpt lat="43.14931" lon="3.10771">
        <ele>180</ele>
        <time>2025-12-29T12:02:36.875Z</time>
      </trkpt>
      <trkpt lat="43.14931" lon="3.10771">
        <ele>180</ele>
        <time>2025-12-29T12:02:37.875Z</time>
      </trkpt>
      <trkpt lat="43.14931" lon="3.10771">
        <ele>180</ele>
        <time>2025-12-29T12:02:38.875Z</time>
      </trkpt>
      <trkpt lat="43.14931" lon="3.10771">
        <ele>180</ele>
        <time>2025-12-29T12:02:39.875Z</time>
      </trkpt>
      <trkpt lat="43.14931" lon="3.10771">
        <ele>180</ele>
        <time>2025-12-29T12:02:40.875Z</time>
      </trkpt>
      <trkpt lat="43.14931" lon="3.1077">
        <ele>180</ele>
        <time>2025-12-29T12:02:41.875Z</time>
      </trkpt>
      <trkpt lat="43.14931" lon="3.1077">
        <ele>180</ele>
        <time>2025-12-29T12:02:42.875Z</time>
      </trkpt>
      <trkpt lat="43.14931" lon="3.1077">
        <ele>181</ele>
        <time>2025-12-29T12:02:43.875Z</time>
      </trkpt>
      <trkpt lat="43.14931" lon="3.1077">
        <ele>181</ele>
        <time>2025-12-29T12:02:44.875Z</time>
      </trkpt>
      <trkpt lat="43.14931" lon="3.1077">
        <ele>181</ele>
        <time>2025-12-29T12:02:45.875Z</time>
      </trkpt>
      <trkpt lat="43.14931" lon="3.1077">
        <ele>181</ele>
        <time>2025-12-29T12:02:46.875Z</time>
      </trkpt>
      <trkpt lat="43.14931" lon="3.1077">
        <ele>182</ele>
        <time>2025-12-29T12:02:47.875Z</time>
      </trkpt>
      <trkpt lat="43.14931" lon="3.1077">
        <ele>182</ele>
        <time>2025-12-29T12:02:48.875Z</time>
      </trkpt>
      <trkpt lat="43.14931" lon="3.1077">
        <ele>182</ele>
        <time>2025-12-29T12:02:49.875Z</time>
      </trkpt>
      <trkpt lat="43.14931" lon="3.1077">
        <ele>183</ele>
        <time>2025-12-29T12:02:50.875Z</time>
      </trkpt>
      <trkpt lat="43.14931" lon="3.1077">
        <ele>183</ele>
        <time>2025-12-29T12:02:51.875Z</time>
      </trkpt>
      <trkpt lat="43.14931" lon="3.1077">
        <ele>183</ele>
        <time>2025-12-29T12:02:52.875Z</time>
      </trkpt>
      <trkpt lat="43.14931" lon="3.1077">
        <ele>183</ele>
        <time>2025-12-29T12:02:53.875Z</time>
      </trkpt>
      <trkpt lat="43.14931" lon="3.1077">
        <ele>184</ele>
        <time>2025-12-29T12:02:54.875Z</time>
      </trkpt>
      <trkpt lat="43.14931" lon="3.1077">
        <ele>184</ele>
        <time>2025-12-29T12:02:55.875Z</time>
      </trkpt>
      <trkpt lat="43.14931" lon="3.1077">
        <ele>185</ele>
        <time>2025-12-29T12:02:56.875Z</time>
      </trkpt>
      <trkpt lat="43.14931" lon="3.1077">
        <ele>185</ele>
        <time>2025-12-29T12:02:57.875Z</time>
      </trkpt>
      <trkpt lat="43.14931" lon="3.1077">
        <ele>185</ele>
        <time>2025-12-29T12:02:58.875Z</time>
      </trkpt>
      <trkpt lat="43.14931" lon="3.1077">
        <ele>184</ele>
        <time>2025-12-29T12:02:59.875Z</time>
      </trkpt>
      <trkpt lat="43.14932" lon="3.1077">
        <ele>184</ele>
        <time>2025-12-29T12:03:00.875Z</time>
      </trkpt>
      <trkpt lat="43.14932" lon="3.1077">
        <ele>184</ele>
        <time>2025-12-29T12:03:01.875Z</time>
      </trkpt>
      <trkpt lat="43.14932" lon="3.1077">
        <ele>184</ele>
        <time>2025-12-29T12:03:02.875Z</time>
      </trkpt>
      <trkpt lat="43.14932" lon="3.1077">
        <ele>184</ele>
        <time>2025-12-29T12:03:03.875Z</time>
      </trkpt>
      <trkpt lat="43.14932" lon="3.1077">
        <ele>185</ele>
        <time>2025-12-29T12:03:04.875Z</time>
      </trkpt>
      <trkpt lat="43.14932" lon="3.1077">
        <ele>185</ele>
        <time>2025-12-29T12:03:05.875Z</time>
      </trkpt>
      <trkpt lat="43.14932" lon="3.1077">
        <ele>185</ele>
        <time>2025-12-29T12:03:06.875Z</time>
      </trkpt>
      <trkpt lat="43.14932" lon="3.1077">
        <ele>185</ele>
        <time>2025-12-29T12:03:07.875Z</time>
      </trkpt>
      <trkpt lat="43.14932" lon="3.1077">
        <ele>185</ele>
        <time>2025-12-29T12:03:08.875Z</time>
      </trkpt>
      <trkpt lat="43.14932" lon="3.1077">
        <ele>184</ele>
        <time>2025-12-29T12:03:09.875Z</time>
      </trkpt>
      <trkpt lat="43.14932" lon="3.1077">
        <ele>184</ele>
        <time>2025-12-29T12:03:10.875Z</time>
      </trkpt>
      <trkpt lat="43.14932" lon="3.1077">
        <ele>184</ele>
        <time>2025-12-29T12:03:11.875Z</time>
      </trkpt>
      <trkpt lat="43.14932" lon="3.1077">
        <ele>184</ele>
        <time>2025-12-29T12:03:12.875Z</time>
      </trkpt>
      <trkpt lat="43.14932" lon="3.1077">
        <ele>183</ele>
        <time>2025-12-29T12:03:13.875Z</time>
      </trkpt>
      <trkpt lat="43.14932" lon="3.10771">
        <ele>183</ele>
        <time>2025-12-29T12:03:14.875Z</time>
      </trkpt>
      <trkpt lat="43.14932" lon="3.10771">
        <ele>183</ele>
        <time>2025-12-29T12:03:15.875Z</time>
      </trkpt>
      <trkpt lat="43.14932" lon="3.10771">
        <ele>183</ele>
        <time>2025-12-29T12:03:16.875Z</time>
      </trkpt>
      <trkpt lat="43.14932" lon="3.10771">
        <ele>183</ele>
        <time>2025-12-29T12:03:17.875Z</time>
      </trkpt>
      <trkpt lat="43.14932" lon="3.10771">
        <ele>183</ele>
        <time>2025-12-29T12:03:18.875Z</time>
      </trkpt>
      <trkpt lat="43.14932" lon="3.10771">
        <ele>183</ele>
        <time>2025-12-29T12:03:19.875Z</time>
      </trkpt>
      <trkpt lat="43.14932" lon="3.10771">
        <ele>183</ele>
        <time>2025-12-29T12:03:20.875Z</time>
      </trkpt>
      <trkpt lat="43.14932" lon="3.10771">
        <ele>183</ele>
        <time>2025-12-29T12:03:21.875Z</time>
      </trkpt>
      <trkpt lat="43.14931" lon="3.1077">
        <ele>183</ele>
        <time>2025-12-29T12:03:22.875Z</time>
      </trkpt>
      <trkpt lat="43.1493" lon="3.1077">
        <ele>183</ele>
        <time>2025-12-29T12:03:23.875Z</time>
      </trkpt>
      <trkpt lat="43.14929" lon="3.1077">
        <ele>182</ele>
        <time>2025-12-29T12:03:24.875Z</time>
      </trkpt>
      <trkpt lat="43.14928" lon="3.1077">
        <ele>182</ele>
        <time>2025-12-29T12:03:25.875Z</time>
      </trkpt>
      <trkpt lat="43.14927" lon="3.1077">
        <ele>182</ele>
        <time>2025-12-29T12:03:26.875Z</time>
      </trkpt>
      <trkpt lat="43.14926" lon="3.1077">
        <ele>182</ele>
        <time>2025-12-29T12:03:27.875Z</time>
      </trkpt>
      <trkpt lat="43.14925" lon="3.1077">
        <ele>182</ele>
        <time>2025-12-29T12:03:28.875Z</time>
      </trkpt>
      <trkpt lat="43.14923" lon="3.1077">
        <ele>182</ele>
        <time>2025-12-29T12:03:29.875Z</time>
      </trkpt>
      <trkpt lat="43.14922" lon="3.1077">
        <ele>182</ele>
        <time>2025-12-29T12:03:30.875Z</time>
      </trkpt>
      <trkpt lat="43.14922" lon="3.1077">
        <ele>182</ele>
        <time>2025-12-29T12:03:31.875Z</time>
      </trkpt>
      <trkpt lat="43.14922" lon="3.1077">
        <ele>182</ele>
        <time>2025-12-29T12:03:32.875Z</time>
      </trkpt>
      <trkpt lat="43.14922" lon="3.1077">
        <ele>182</ele>
        <time>2025-12-29T12:03:33.875Z</time>
      </trkpt>
      <trkpt lat="43.14921" lon="3.1077">
        <ele>182</ele>
        <time>2025-12-29T12:03:34.875Z</time>
      </trkpt>
      <trkpt lat="43.14921" lon="3.1077">
        <ele>182</ele>
        <time>2025-12-29T12:03:35.875Z</time>
      </trkpt>
      <trkpt lat="43.14921" lon="3.1077">
        <ele>181</ele>
        <time>2025-12-29T12:03:36.875Z</time>
      </trkpt>
      <trkpt lat="43.14921" lon="3.1077">
        <ele>181</ele>
        <time>2025-12-29T12:03:37.875Z</time>
      </trkpt>
      <trkpt lat="43.14921" lon="3.1077">
        <ele>181</ele>
        <time>2025-12-29T12:03:38.875Z</time>
      </trkpt>
      <trkpt lat="43.14921" lon="3.1077">
        <ele>180</ele>
        <time>2025-12-29T12:03:39.875Z</time>
      </trkpt>
      <trkpt lat="43.14921" lon="3.1077">
        <ele>180</ele>
        <time>2025-12-29T12:03:40.875Z</time>
      </trkpt>
      <trkpt lat="43.14921" lon="3.1077">
        <ele>180</ele>
        <time>2025-12-29T12:03:41.875Z</time>
      </trkpt>
      <trkpt lat="43.14921" lon="3.1077">
        <ele>180</ele>
        <time>2025-12-29T12:03:42.875Z</time>
      </trkpt>
      <trkpt lat="43.14921" lon="3.1077">
        <ele>180</ele>
        <time>2025-12-29T12:03:43.875Z</time>
      </trkpt>
      <trkpt lat="43.14921" lon="3.1077">
        <ele>179</ele>
        <time>2025-12-29T12:03:44.875Z</time>
      </trkpt>
      <trkpt lat="43.14921" lon="3.1077">
        <ele>179</ele>
        <time>2025-12-29T12:03:45.875Z</time>
      </trkpt>
      <trkpt lat="43.14922" lon="3.1077">
        <ele>179</ele>
        <time>2025-12-29T12:03:46.875Z</time>
      </trkpt>
      <trkpt lat="43.14922" lon="3.1077">
        <ele>179</ele>
        <time>2025-12-29T12:03:47.875Z</time>
      </trkpt>
      <trkpt lat="43.14922" lon="3.1077">
        <ele>179</ele>
        <time>2025-12-29T12:03:48.875Z</time>
      </trkpt>
      <trkpt lat="43.14921" lon="3.1077">
        <ele>179</ele>
        <time>2025-12-29T12:03:49.875Z</time>
      </trkpt>
      <trkpt lat="43.14921" lon="3.10771">
        <ele>179</ele>
        <time>2025-12-29T12:03:50.875Z</time>
      </trkpt>
      <trkpt lat="43.14921" lon="3.10771">
        <ele>179</ele>
        <time>2025-12-29T12:03:51.875Z</time>
      </trkpt>
      <trkpt lat="43.14922" lon="3.10771">
        <ele>179</ele>
        <time>2025-12-29T12:03:52.875Z</time>
      </trkpt>
      <trkpt lat="43.14922" lon="3.10771">
        <ele>179</ele>
        <time>2025-12-29T12:03:53.875Z</time>
      </trkpt>
      <trkpt lat="43.14922" lon="3.1077">
        <ele>179</ele>
        <time>2025-12-29T12:03:54.875Z</time>
      </trkpt>
      <trkpt lat="43.14923" lon="3.1077">
        <ele>180</ele>
        <time>2025-12-29T12:03:55.875Z</time>
      </trkpt>
      <trkpt lat="43.14923" lon="3.1077">
        <ele>179</ele>
        <time>2025-12-29T12:03:56.875Z</time>
      </trkpt>
      <trkpt lat="43.14923" lon="3.10769">
        <ele>179</ele>
        <time>2025-12-29T12:03:57.875Z</time>
      </trkpt>
      <trkpt lat="43.14923" lon="3.10768">
        <ele>179</ele>
        <time>2025-12-29T12:03:58.875Z</time>
      </trkpt>
      <trkpt lat="43.14923" lon="3.10766">
        <ele>180</ele>
        <time>2025-12-29T12:03:59.875Z</time>
      </trkpt>
      <trkpt lat="43.14923" lon="3.10765">
        <ele>180</ele>
        <time>2025-12-29T12:04:00.875Z</time>
      </trkpt>
      <trkpt lat="43.14923" lon="3.10765">
        <ele>180</ele>
        <time>2025-12-29T12:04:01.875Z</time>
      </trkpt>
      <trkpt lat="43.14923" lon="3.10764">
        <ele>180</ele>
        <time>2025-12-29T12:04:02.875Z</time>
      </trkpt>
      <trkpt lat="43.14923" lon="3.10763">
        <ele>180</ele>
        <time>2025-12-29T12:04:03.875Z</time>
      </trkpt>
      <trkpt lat="43.14923" lon="3.10762">
        <ele>180</ele>
        <time>2025-12-29T12:04:04.875Z</time>
      </trkpt>
      <trkpt lat="43.14924" lon="3.10762">
        <ele>181</ele>
        <time>2025-12-29T12:04:05.875Z</time>
      </trkpt>
      <trkpt lat="43.14924" lon="3.10761">
        <ele>181</ele>
        <time>2025-12-29T12:04:06.875Z</time>
      </trkpt>
      <trkpt lat="43.14925" lon="3.1076">
        <ele>181</ele>
        <time>2025-12-29T12:04:07.875Z</time>
      </trkpt>
      <trkpt lat="43.14925" lon="3.10759">
        <ele>181</ele>
        <time>2025-12-29T12:04:08.875Z</time>
      </trkpt>
      <trkpt lat="43.14925" lon="3.10758">
        <ele>181</ele>
        <time>2025-12-29T12:04:09.875Z</time>
      </trkpt>
      <trkpt lat="43.14925" lon="3.10757">
        <ele>181</ele>
        <time>2025-12-29T12:04:10.875Z</time>
      </trkpt>
      <trkpt lat="43.14925" lon="3.10756">
        <ele>181</ele>
        <time>2025-12-29T12:04:11.875Z</time>
      </trkpt>
      <trkpt lat="43.14925" lon="3.10755">
        <ele>181</ele>
        <time>2025-12-29T12:04:12.875Z</time>
      </trkpt>
      <trkpt lat="43.14925" lon="3.10754">
        <ele>181</ele>
        <time>2025-12-29T12:04:13.875Z</time>
      </trkpt>
      <trkpt lat="43.14926" lon="3.10754">
        <ele>181</ele>
        <time>2025-12-29T12:04:14.875Z</time>
      </trkpt>
      <trkpt lat="43.14926" lon="3.10753">
        <ele>180</ele>
        <time>2025-12-29T12:04:15.875Z</time>
      </trkpt>
      <trkpt lat="43.14926" lon="3.10753">
        <ele>180</ele>
        <time>2025-12-29T12:04:16.875Z</time>
      </trkpt>
      <trkpt lat="43.14927" lon="3.10753">
        <ele>181</ele>
        <time>2025-12-29T12:04:17.875Z</time>
      </trkpt>
      <trkpt lat="43.14927" lon="3.10753">
        <ele>181</ele>
        <time>2025-12-29T12:04:18.875Z</time>
      </trkpt>
      <trkpt lat="43.14926" lon="3.10753">
        <ele>181</ele>
        <time>2025-12-29T12:04:19.875Z</time>
      </trkpt>
      <trkpt lat="43.14926" lon="3.10753">
        <ele>180</ele>
        <time>2025-12-29T12:04:20.875Z</time>
      </trkpt>
      <trkpt lat="43.14926" lon="3.10753">
        <ele>180</ele>
        <time>2025-12-29T12:04:21.875Z</time>
      </trkpt>
      <trkpt lat="43.14927" lon="3.10753">
        <ele>180</ele>
        <time>2025-12-29T12:04:22.875Z</time>
      </trkpt>
      <trkpt lat="43.14927" lon="3.10753">
        <ele>180</ele>
        <time>2025-12-29T12:04:23.875Z</time>
      </trkpt>
      <trkpt lat="43.14927" lon="3.10753">
        <ele>179</ele>
        <time>2025-12-29T12:04:24.875Z</time>
      </trkpt>
      <trkpt lat="43.14927" lon="3.10753">
        <ele>179</ele>
        <time>2025-12-29T12:04:25.875Z</time>
      </trkpt>
      <trkpt lat="43.14927" lon="3.10753">
        <ele>179</ele>
        <time>2025-12-29T12:04:26.875Z</time>
      </trkpt>
      <trkpt lat="43.14927" lon="3.10753">
        <ele>179</ele>
        <time>2025-12-29T12:04:27.875Z</time>
      </trkpt>
      <trkpt lat="43.14927" lon="3.10753">
        <ele>179</ele>
        <time>2025-12-29T12:04:28.875Z</time>
      </trkpt>
      <trkpt lat="43.14927" lon="3.10753">
        <ele>179</ele>
        <time>2025-12-29T12:04:29.875Z</time>
      </trkpt>
      <trkpt lat="43.14927" lon="3.10753">
        <ele>179</ele>
        <time>2025-12-29T12:04:30.875Z</time>
      </trkpt>
      <trkpt lat="43.14927" lon="3.10752">
        <ele>179</ele>
        <time>2025-12-29T12:04:31.875Z</time>
      </trkpt>
      <trkpt lat="43.14927" lon="3.10752">
        <ele>179</ele>
        <time>2025-12-29T12:04:32.875Z</time>
      </trkpt>
      <trkpt lat="43.14927" lon="3.10752">
        <ele>179</ele>
        <time>2025-12-29T12:04:33.875Z</time>
      </trkpt>
      <trkpt lat="43.14927" lon="3.10752">
        <ele>179</ele>
        <time>2025-12-29T12:04:34.875Z</time>
      </trkpt>
      <trkpt lat="43.14927" lon="3.10752">
        <ele>179</ele>
        <time>2025-12-29T12:04:35.875Z</time>
      </trkpt>
      <trkpt lat="43.14927" lon="3.10752">
        <ele>179</ele>
        <time>2025-12-29T12:04:36.875Z</time>
      </trkpt>
      <trkpt lat="43.14927" lon="3.10752">
        <ele>179</ele>
        <time>2025-12-29T12:04:37.875Z</time>
      </trkpt>
      <trkpt lat="43.14927" lon="3.10752">
        <ele>179</ele>
        <time>2025-12-29T12:04:38.875Z</time>
      </trkpt>
      <trkpt lat="43.14927" lon="3.10752">
        <ele>179</ele>
        <time>2025-12-29T12:04:39.875Z</time>
      </trkpt>
      <trkpt lat="43.14927" lon="3.10752">
        <ele>180</ele>
        <time>2025-12-29T12:04:40.875Z</time>
      </trkpt>
      <trkpt lat="43.14927" lon="3.10752">
        <ele>180</ele>
        <time>2025-12-29T12:04:41.875Z</time>
      </trkpt>
      <trkpt lat="43.14927" lon="3.10752">
        <ele>180</ele>
        <time>2025-12-29T12:04:42.875Z</time>
      </trkpt>
      <trkpt lat="43.14927" lon="3.10752">
        <ele>180</ele>
        <time>2025-12-29T12:04:43.875Z</time>
      </trkpt>
      <trkpt lat="43.14927" lon="3.10752">
        <ele>180</ele>
        <time>2025-12-29T12:04:44.875Z</time>
      </trkpt>
      <trkpt lat="43.14927" lon="3.10752">
        <ele>181</ele>
        <time>2025-12-29T12:04:45.875Z</time>
      </trkpt>
      <trkpt lat="43.14927" lon="3.10752">
        <ele>181</ele>
        <time>2025-12-29T12:04:46.875Z</time>
      </trkpt>
      <trkpt lat="43.14927" lon="3.10752">
        <ele>181</ele>
        <time>2025-12-29T12:04:47.875Z</time>
      </trkpt>
      <trkpt lat="43.14927" lon="3.10752">
        <ele>181</ele>
        <time>2025-12-29T12:04:48.875Z</time>
      </trkpt>
      <trkpt lat="43.14927" lon="3.10752">
        <ele>180</ele>
        <time>2025-12-29T12:04:49.875Z</time>
      </trkpt>
      <trkpt lat="43.14927" lon="3.10752">
        <ele>180</ele>
        <time>2025-12-29T12:04:50.875Z</time>
      </trkpt>
      <trkpt lat="43.14927" lon="3.10752">
        <ele>181</ele>
        <time>2025-12-29T12:04:51.875Z</time>
      </trkpt>
      <trkpt lat="43.14927" lon="3.10752">
        <ele>181</ele>
        <time>2025-12-29T12:04:52.875Z</time>
      </trkpt>
      <trkpt lat="43.14927" lon="3.10752">
        <ele>182</ele>
        <time>2025-12-29T12:04:53.875Z</time>
      </trkpt>
      <trkpt lat="43.14927" lon="3.10752">
        <ele>182</ele>
        <time>2025-12-29T12:04:54.875Z</time>
      </trkpt>
      <trkpt lat="43.14928" lon="3.10752">
        <ele>182</ele>
        <time>2025-12-29T12:04:55.875Z</time>
      </trkpt>
      <trkpt lat="43.14928" lon="3.10752">
        <ele>183</ele>
        <time>2025-12-29T12:04:56.875Z</time>
      </trkpt>
      <trkpt lat="43.14928" lon="3.10752">
        <ele>183</ele>
        <time>2025-12-29T12:04:57.875Z</time>
      </trkpt>
      <trkpt lat="43.14928" lon="3.10752">
        <ele>183</ele>
        <time>2025-12-29T12:04:58.875Z</time>
      </trkpt>
      <trkpt lat="43.14928" lon="3.10752">
        <ele>184</ele>
        <time>2025-12-29T12:04:59.875Z</time>
      </trkpt>
      <trkpt lat="43.14928" lon="3.10752">
        <ele>184</ele>
        <time>2025-12-29T12:05:00.875Z</time>
      </trkpt>
      <trkpt lat="43.14928" lon="3.10752">
        <ele>185</ele>
        <time>2025-12-29T12:05:01.875Z</time>
      </trkpt>
      <trkpt lat="43.14928" lon="3.10752">
        <ele>185</ele>
        <time>2025-12-29T12:05:02.875Z</time>
      </trkpt>
      <trkpt lat="43.14928" lon="3.10752">
        <ele>185</ele>
        <time>2025-12-29T12:05:03.875Z</time>
      </trkpt>
      <trkpt lat="43.14928" lon="3.10752">
        <ele>185</ele>
        <time>2025-12-29T12:05:04.875Z</time>
      </trkpt>
      <trkpt lat="43.14928" lon="3.10752">
        <ele>185</ele>
        <time>2025-12-29T12:05:05.875Z</time>
      </trkpt>
      <trkpt lat="43.14927" lon="3.10752">
        <ele>185</ele>
        <time>2025-12-29T12:05:06.875Z</time>
      </trkpt>
      <trkpt lat="43.14927" lon="3.10752">
        <ele>184</ele>
        <time>2025-12-29T12:05:07.875Z</time>
      </trkpt>
      <trkpt lat="43.14927" lon="3.10753">
        <ele>184</ele>
        <time>2025-12-29T12:05:08.875Z</time>
      </trkpt>
      <trkpt lat="43.14927" lon="3.10753">
        <ele>184</ele>
        <time>2025-12-29T12:05:09.875Z</time>
      </trkpt>
      <trkpt lat="43.14927" lon="3.10753">
        <ele>184</ele>
        <time>2025-12-29T12:05:10.875Z</time>
      </trkpt>
      <trkpt lat="43.14927" lon="3.10754">
        <ele>184</ele>
        <time>2025-12-29T12:05:11.875Z</time>
      </trkpt>
      <trkpt lat="43.14927" lon="3.10755">
        <ele>184</ele>
        <time>2025-12-29T12:05:12.875Z</time>
      </trkpt>
      <trkpt lat="43.14927" lon="3.10756">
        <ele>184</ele>
        <time>2025-12-29T12:05:13.875Z</time>
      </trkpt>
      <trkpt lat="43.14926" lon="3.10757">
        <ele>184</ele>
        <time>2025-12-29T12:05:14.875Z</time>
      </trkpt>
      <trkpt lat="43.14926" lon="3.10758">
        <ele>184</ele>
        <time>2025-12-29T12:05:15.875Z</time>
      </trkpt>
      <trkpt lat="43.14926" lon="3.10759">
        <ele>184</ele>
        <time>2025-12-29T12:05:16.875Z</time>
      </trkpt>
      <trkpt lat="43.14927" lon="3.10759">
        <ele>184</ele>
        <time>2025-12-29T12:05:17.875Z</time>
      </trkpt>
      <trkpt lat="43.14928" lon="3.10759">
        <ele>184</ele>
        <time>2025-12-29T12:05:18.875Z</time>
      </trkpt>
      <trkpt lat="43.14928" lon="3.10759">
        <ele>184</ele>
        <time>2025-12-29T12:05:19.875Z</time>
      </trkpt>
      <trkpt lat="43.14928" lon="3.1076">
        <ele>183</ele>
        <time>2025-12-29T12:05:20.875Z</time>
      </trkpt>
      <trkpt lat="43.14928" lon="3.10761">
        <ele>183</ele>
        <time>2025-12-29T12:05:21.875Z</time>
      </trkpt>
      <trkpt lat="43.14927" lon="3.10761">
        <ele>183</ele>
        <time>2025-12-29T12:05:22.875Z</time>
      </trkpt>
      <trkpt lat="43.14926" lon="3.10761">
        <ele>183</ele>
        <time>2025-12-29T12:05:23.875Z</time>
      </trkpt>
      <trkpt lat="43.14925" lon="3.1076">
        <ele>183</ele>
        <time>2025-12-29T12:05:24.875Z</time>
      </trkpt>
      <trkpt lat="43.14924" lon="3.1076">
        <ele>183</ele>
        <time>2025-12-29T12:05:25.875Z</time>
      </trkpt>
      <trkpt lat="43.14924" lon="3.10761">
        <ele>183</ele>
        <time>2025-12-29T12:05:26.875Z</time>
      </trkpt>
      <trkpt lat="43.14924" lon="3.1076">
        <ele>182</ele>
        <time>2025-12-29T12:05:27.875Z</time>
      </trkpt>
      <trkpt lat="43.14924" lon="3.10759">
        <ele>182</ele>
        <time>2025-12-29T12:05:28.875Z</time>
      </trkpt>
      <trkpt lat="43.14923" lon="3.10759">
        <ele>182</ele>
        <time>2025-12-29T12:05:29.875Z</time>
      </trkpt>
      <trkpt lat="43.14923" lon="3.10759">
        <ele>182</ele>
        <time>2025-12-29T12:05:30.875Z</time>
      </trkpt>
      <trkpt lat="43.14923" lon="3.10758">
        <ele>182</ele>
        <time>2025-12-29T12:05:31.875Z</time>
      </trkpt>
      <trkpt lat="43.14923" lon="3.10758">
        <ele>182</ele>
        <time>2025-12-29T12:05:32.875Z</time>
      </trkpt>
      <trkpt lat="43.14923" lon="3.10758">
        <ele>182</ele>
        <time>2025-12-29T12:05:33.875Z</time>
      </trkpt>
      <trkpt lat="43.14923" lon="3.10759">
        <ele>182</ele>
        <time>2025-12-29T12:05:34.875Z</time>
      </trkpt>
      <trkpt lat="43.14923" lon="3.10759">
        <ele>182</ele>
        <time>2025-12-29T12:05:35.875Z</time>
      </trkpt>
      <trkpt lat="43.14923" lon="3.10759">
        <ele>183</ele>
        <time>2025-12-29T12:05:36.875Z</time>
      </trkpt>
      <trkpt lat="43.14924" lon="3.10759">
        <ele>183</ele>
        <time>2025-12-29T12:05:37.875Z</time>
      </trkpt>
      <trkpt lat="43.14924" lon="3.10759">
        <ele>183</ele>
        <time>2025-12-29T12:05:38.875Z</time>
      </trkpt>
      <trkpt lat="43.14924" lon="3.10759">
        <ele>183</ele>
        <time>2025-12-29T12:05:39.875Z</time>
      </trkpt>
      <trkpt lat="43.14924" lon="3.10759">
        <ele>183</ele>
        <time>2025-12-29T12:05:40.875Z</time>
      </trkpt>
      <trkpt lat="43.14924" lon="3.1076">
        <ele>183</ele>
        <time>2025-12-29T12:05:41.875Z</time>
      </trkpt>
      <trkpt lat="43.14924" lon="3.1076">
        <ele>183</ele>
        <time>2025-12-29T12:05:42.875Z</time>
      </trkpt>
      <trkpt lat="43.14924" lon="3.1076">
        <ele>183</ele>
        <time>2025-12-29T12:05:43.875Z</time>
      </trkpt>
      <trkpt lat="43.14924" lon="3.1076">
        <ele>183</ele>
        <time>2025-12-29T12:05:44.875Z</time>
      </trkpt>
      <trkpt lat="43.14924" lon="3.1076">
        <ele>183</ele>
        <time>2025-12-29T12:05:45.875Z</time>
      </trkpt>
      <trkpt lat="43.14924" lon="3.1076">
        <ele>183</ele>
        <time>2025-12-29T12:05:46.875Z</time>
      </trkpt>
      <trkpt lat="43.14924" lon="3.1076">
        <ele>183</ele>
        <time>2025-12-29T12:05:47.875Z</time>
      </trkpt>
      <trkpt lat="43.14924" lon="3.1076">
        <ele>183</ele>
        <time>2025-12-29T12:05:48.875Z</time>
      </trkpt>
      <trkpt lat="43.14924" lon="3.1076">
        <ele>182</ele>
        <time>2025-12-29T12:05:49.875Z</time>
      </trkpt>
      <trkpt lat="43.14924" lon="3.1076">
        <ele>182</ele>
        <time>2025-12-29T12:05:50.875Z</time>
      </trkpt>
      <trkpt lat="43.14925" lon="3.1076">
        <ele>182</ele>
        <time>2025-12-29T12:05:51.875Z</time>
      </trkpt>
      <trkpt lat="43.14925" lon="3.1076">
        <ele>182</ele>
        <time>2025-12-29T12:05:52.875Z</time>
      </trkpt>
      <trkpt lat="43.14925" lon="3.1076">
        <ele>182</ele>
        <time>2025-12-29T12:05:53.875Z</time>
      </trkpt>
      <trkpt lat="43.14925" lon="3.1076">
        <ele>182</ele>
        <time>2025-12-29T12:05:54.875Z</time>
      </trkpt>
      <trkpt lat="43.14925" lon="3.1076">
        <ele>182</ele>
        <time>2025-12-29T12:05:55.875Z</time>
      </trkpt>
      <trkpt lat="43.14925" lon="3.10761">
        <ele>182</ele>
        <time>2025-12-29T12:05:56.875Z</time>
      </trkpt>
      <trkpt lat="43.14926" lon="3.10761">
        <ele>182</ele>
        <time>2025-12-29T12:05:57.875Z</time>
      </trkpt>
      <trkpt lat="43.14927" lon="3.10762">
        <ele>182</ele>
        <time>2025-12-29T12:05:58.875Z</time>
      </trkpt>
      <trkpt lat="43.14927" lon="3.10762">
        <ele>182</ele>
        <time>2025-12-29T12:05:59.875Z</time>
      </trkpt>
      <trkpt lat="43.14929" lon="3.10762">
        <ele>182</ele>
        <time>2025-12-29T12:06:00.875Z</time>
      </trkpt>
      <trkpt lat="43.1493" lon="3.10763">
        <ele>182</ele>
        <time>2025-12-29T12:06:01.875Z</time>
      </trkpt>
      <trkpt lat="43.1493" lon="3.10763">
        <ele>182</ele>
        <time>2025-12-29T12:06:02.875Z</time>
      </trkpt>
      <trkpt lat="43.14931" lon="3.10763">
        <ele>182</ele>
        <time>2025-12-29T12:06:03.875Z</time>
      </trkpt>
      <trkpt lat="43.14932" lon="3.10763">
        <ele>182</ele>
        <time>2025-12-29T12:06:04.875Z</time>
      </trkpt>
      <trkpt lat="43.14933" lon="3.10763">
        <ele>182</ele>
        <time>2025-12-29T12:06:05.875Z</time>
      </trkpt>
      <trkpt lat="43.14934" lon="3.10764">
        <ele>182</ele>
        <time>2025-12-29T12:06:06.875Z</time>
      </trkpt>
      <trkpt lat="43.14934" lon="3.10764">
        <ele>182</ele>
        <time>2025-12-29T12:06:07.875Z</time>
      </trkpt>
      <trkpt lat="43.14935" lon="3.10764">
        <ele>182</ele>
        <time>2025-12-29T12:06:08.875Z</time>
      </trkpt>
      <trkpt lat="43.14935" lon="3.10764">
        <ele>182</ele>
        <time>2025-12-29T12:06:09.875Z</time>
      </trkpt>
      <trkpt lat="43.14935" lon="3.10764">
        <ele>182</ele>
        <time>2025-12-29T12:06:10.875Z</time>
      </trkpt>
      <trkpt lat="43.14935" lon="3.10765">
        <ele>182</ele>
        <time>2025-12-29T12:06:11.875Z</time>
      </trkpt>
      <trkpt lat="43.14935" lon="3.10765">
        <ele>181</ele>
        <time>2025-12-29T12:06:12.875Z</time>
      </trkpt>
      <trkpt lat="43.14936" lon="3.10765">
        <ele>181</ele>
        <time>2025-12-29T12:06:13.875Z</time>
      </trkpt>
      <trkpt lat="43.14937" lon="3.10764">
        <ele>181</ele>
        <time>2025-12-29T12:06:14.875Z</time>
      </trkpt>
      <trkpt lat="43.14938" lon="3.10764">
        <ele>180</ele>
        <time>2025-12-29T12:06:15.875Z</time>
      </trkpt>
      <trkpt lat="43.14939" lon="3.10764">
        <ele>180</ele>
        <time>2025-12-29T12:06:16.875Z</time>
      </trkpt>
      <trkpt lat="43.1494" lon="3.10764">
        <ele>180</ele>
        <time>2025-12-29T12:06:17.875Z</time>
      </trkpt>
      <trkpt lat="43.14941" lon="3.10764">
        <ele>180</ele>
        <time>2025-12-29T12:06:18.875Z</time>
      </trkpt>
      <trkpt lat="43.14943" lon="3.10764">
        <ele>180</ele>
        <time>2025-12-29T12:06:19.875Z</time>
      </trkpt>
      <trkpt lat="43.14944" lon="3.10764">
        <ele>180</ele>
        <time>2025-12-29T12:06:20.875Z</time>
      </trkpt>
      <trkpt lat="43.14945" lon="3.10764">
        <ele>179</ele>
        <time>2025-12-29T12:06:21.875Z</time>
      </trkpt>
      <trkpt lat="43.14947" lon="3.10763">
        <ele>179</ele>
        <time>2025-12-29T12:06:22.875Z</time>
      </trkpt>
      <trkpt lat="43.14948" lon="3.10763">
        <ele>179</ele>
        <time>2025-12-29T12:06:23.875Z</time>
      </trkpt>
      <trkpt lat="43.14949" lon="3.10763">
        <ele>179</ele>
        <time>2025-12-29T12:06:24.875Z</time>
      </trkpt>
      <trkpt lat="43.1495" lon="3.10763">
        <ele>178</ele>
        <time>2025-12-29T12:06:25.875Z</time>
      </trkpt>
      <trkpt lat="43.14952" lon="3.10762">
        <ele>178</ele>
        <time>2025-12-29T12:06:26.875Z</time>
      </trkpt>
      <trkpt lat="43.14953" lon="3.10762">
        <ele>178</ele>
        <time>2025-12-29T12:06:27.875Z</time>
      </trkpt>
      <trkpt lat="43.14954" lon="3.10762">
        <ele>178</ele>
        <time>2025-12-29T12:06:28.875Z</time>
      </trkpt>
      <trkpt lat="43.14955" lon="3.10761">
        <ele>178</ele>
        <time>2025-12-29T12:06:29.875Z</time>
      </trkpt>
      <trkpt lat="43.14956" lon="3.10761">
        <ele>178</ele>
        <time>2025-12-29T12:06:30.875Z</time>
      </trkpt>
      <trkpt lat="43.14957" lon="3.10761">
        <ele>177</ele>
        <time>2025-12-29T12:06:31.875Z</time>
      </trkpt>
      <trkpt lat="43.14958" lon="3.10761">
        <ele>177</ele>
        <time>2025-12-29T12:06:32.875Z</time>
      </trkpt>
      <trkpt lat="43.14959" lon="3.10761">
        <ele>177</ele>
        <time>2025-12-29T12:06:33.875Z</time>
      </trkpt>
      <trkpt lat="43.14959" lon="3.1076">
        <ele>177</ele>
        <time>2025-12-29T12:06:34.875Z</time>
      </trkpt>
      <trkpt lat="43.14959" lon="3.1076">
        <ele>177</ele>
        <time>2025-12-29T12:06:35.875Z</time>
      </trkpt>
      <trkpt lat="43.1496" lon="3.1076">
        <ele>177</ele>
        <time>2025-12-29T12:06:36.875Z</time>
      </trkpt>
      <trkpt lat="43.1496" lon="3.1076">
        <ele>177</ele>
        <time>2025-12-29T12:06:37.875Z</time>
      </trkpt>
      <trkpt lat="43.1496" lon="3.10759">
        <ele>177</ele>
        <time>2025-12-29T12:06:38.875Z</time>
      </trkpt>
      <trkpt lat="43.1496" lon="3.10759">
        <ele>177</ele>
        <time>2025-12-29T12:06:39.875Z</time>
      </trkpt>
      <trkpt lat="43.1496" lon="3.10759">
        <ele>177</ele>
        <time>2025-12-29T12:06:40.875Z</time>
      </trkpt>
      <trkpt lat="43.1496" lon="3.10759">
        <ele>177</ele>
        <time>2025-12-29T12:06:41.875Z</time>
      </trkpt>
      <trkpt lat="43.1496" lon="3.10759">
        <ele>177</ele>
        <time>2025-12-29T12:06:42.875Z</time>
      </trkpt>
      <trkpt lat="43.1496" lon="3.10759">
        <ele>177</ele>
        <time>2025-12-29T12:06:43.875Z</time>
      </trkpt>
      <trkpt lat="43.1496" lon="3.10759">
        <ele>177</ele>
        <time>2025-12-29T12:06:44.875Z</time>
      </trkpt>
      <trkpt lat="43.1496" lon="3.10759">
        <ele>177</ele>
        <time>2025-12-29T12:06:45.875Z</time>
      </trkpt>
      <trkpt lat="43.1496" lon="3.10759">
        <ele>178</ele>
        <time>2025-12-29T12:06:46.875Z</time>
      </trkpt>
      <trkpt lat="43.1496" lon="3.10759">
        <ele>178</ele>
        <time>2025-12-29T12:06:47.875Z</time>
      </trkpt>
      <trkpt lat="43.14961" lon="3.10759">
        <ele>178</ele>
        <time>2025-12-29T12:06:48.875Z</time>
      </trkpt>
      <trkpt lat="43.14961" lon="3.10759">
        <ele>178</ele>
        <time>2025-12-29T12:06:49.875Z</time>
      </trkpt>
      <trkpt lat="43.14962" lon="3.10759">
        <ele>178</ele>
        <time>2025-12-29T12:06:50.875Z</time>
      </trkpt>
      <trkpt lat="43.14963" lon="3.10759">
        <ele>178</ele>
        <time>2025-12-29T12:06:51.875Z</time>
      </trkpt>
      <trkpt lat="43.14964" lon="3.10759">
        <ele>178</ele>
        <time>2025-12-29T12:06:52.875Z</time>
      </trkpt>
      <trkpt lat="43.14965" lon="3.10759">
        <ele>178</ele>
        <time>2025-12-29T12:06:53.875Z</time>
      </trkpt>
      <trkpt lat="43.14966" lon="3.10759">
        <ele>179</ele>
        <time>2025-12-29T12:06:54.875Z</time>
      </trkpt>
      <trkpt lat="43.14967" lon="3.10759">
        <ele>179</ele>
        <time>2025-12-29T12:06:55.875Z</time>
      </trkpt>
      <trkpt lat="43.14968" lon="3.10758">
        <ele>180</ele>
        <time>2025-12-29T12:06:56.875Z</time>
      </trkpt>
      <trkpt lat="43.14968" lon="3.10758">
        <ele>180</ele>
        <time>2025-12-29T12:06:57.875Z</time>
      </trkpt>
      <trkpt lat="43.14968" lon="3.10758">
        <ele>180</ele>
        <time>2025-12-29T12:06:58.875Z</time>
      </trkpt>
      <trkpt lat="43.14968" lon="3.10757">
        <ele>180</ele>
        <time>2025-12-29T12:06:59.875Z</time>
      </trkpt>
      <trkpt lat="43.14968" lon="3.10757">
        <ele>180</ele>
        <time>2025-12-29T12:07:00.875Z</time>
      </trkpt>
      <trkpt lat="43.14969" lon="3.10758">
        <ele>180</ele>
        <time>2025-12-29T12:07:01.875Z</time>
      </trkpt>
      <trkpt lat="43.1497" lon="3.10758">
        <ele>181</ele>
        <time>2025-12-29T12:07:02.875Z</time>
      </trkpt>
      <trkpt lat="43.14971" lon="3.10758">
        <ele>181</ele>
        <time>2025-12-29T12:07:03.875Z</time>
      </trkpt>
      <trkpt lat="43.14972" lon="3.10758">
        <ele>181</ele>
        <time>2025-12-29T12:07:04.875Z</time>
      </trkpt>
      <trkpt lat="43.14973" lon="3.10758">
        <ele>181</ele>
        <time>2025-12-29T12:07:05.875Z</time>
      </trkpt>
      <trkpt lat="43.14974" lon="3.10758">
        <ele>181</ele>
        <time>2025-12-29T12:07:06.875Z</time>
      </trkpt>
      <trkpt lat="43.14974" lon="3.10757">
        <ele>181</ele>
        <time>2025-12-29T12:07:07.875Z</time>
      </trkpt>
      <trkpt lat="43.14975" lon="3.10757">
        <ele>181</ele>
        <time>2025-12-29T12:07:08.875Z</time>
      </trkpt>
      <trkpt lat="43.14976" lon="3.10757">
        <ele>182</ele>
        <time>2025-12-29T12:07:09.875Z</time>
      </trkpt>
      <trkpt lat="43.14976" lon="3.10757">
        <ele>182</ele>
        <time>2025-12-29T12:07:10.875Z</time>
      </trkpt>
      <trkpt lat="43.14977" lon="3.10757">
        <ele>182</ele>
        <time>2025-12-29T12:07:11.875Z</time>
      </trkpt>
      <trkpt lat="43.14977" lon="3.10756">
        <ele>182</ele>
        <time>2025-12-29T12:07:12.875Z</time>
      </trkpt>
      <trkpt lat="43.14977" lon="3.10756">
        <ele>182</ele>
        <time>2025-12-29T12:07:13.875Z</time>
      </trkpt>
      <trkpt lat="43.14977" lon="3.10756">
        <ele>182</ele>
        <time>2025-12-29T12:07:14.875Z</time>
      </trkpt>
      <trkpt lat="43.14977" lon="3.10756">
        <ele>182</ele>
        <time>2025-12-29T12:07:15.875Z</time>
      </trkpt>
      <trkpt lat="43.14977" lon="3.10756">
        <ele>182</ele>
        <time>2025-12-29T12:07:16.875Z</time>
      </trkpt>
      <trkpt lat="43.14977" lon="3.10756">
        <ele>182</ele>
        <time>2025-12-29T12:07:17.875Z</time>
      </trkpt>
      <trkpt lat="43.14977" lon="3.10756">
        <ele>182</ele>
        <time>2025-12-29T12:07:18.875Z</time>
      </trkpt>
      <trkpt lat="43.14977" lon="3.10756">
        <ele>182</ele>
        <time>2025-12-29T12:07:19.875Z</time>
      </trkpt>
      <trkpt lat="43.14977" lon="3.10756">
        <ele>182</ele>
        <time>2025-12-29T12:07:20.875Z</time>
      </trkpt>
      <trkpt lat="43.14977" lon="3.10756">
        <ele>182</ele>
        <time>2025-12-29T12:07:21.875Z</time>
      </trkpt>
      <trkpt lat="43.14978" lon="3.10756">
        <ele>182</ele>
        <time>2025-12-29T12:07:22.875Z</time>
      </trkpt>
      <trkpt lat="43.14978" lon="3.10756">
        <ele>181</ele>
        <time>2025-12-29T12:07:23.875Z</time>
      </trkpt>
      <trkpt lat="43.14979" lon="3.10756">
        <ele>181</ele>
        <time>2025-12-29T12:07:24.875Z</time>
      </trkpt>
      <trkpt lat="43.1498" lon="3.10756">
        <ele>181</ele>
        <time>2025-12-29T12:07:25.875Z</time>
      </trkpt>
      <trkpt lat="43.14981" lon="3.10756">
        <ele>181</ele>
        <time>2025-12-29T12:07:26.875Z</time>
      </trkpt>
      <trkpt lat="43.14983" lon="3.10756">
        <ele>181</ele>
        <time>2025-12-29T12:07:27.875Z</time>
      </trkpt>
      <trkpt lat="43.14984" lon="3.10756">
        <ele>181</ele>
        <time>2025-12-29T12:07:28.875Z</time>
      </trkpt>
      <trkpt lat="43.14985" lon="3.10755">
        <ele>181</ele>
        <time>2025-12-29T12:07:29.875Z</time>
      </trkpt>
      <trkpt lat="43.14986" lon="3.10755">
        <ele>181</ele>
        <time>2025-12-29T12:07:30.875Z</time>
      </trkpt>
      <trkpt lat="43.14987" lon="3.10755">
        <ele>180</ele>
        <time>2025-12-29T12:07:31.875Z</time>
      </trkpt>
      <trkpt lat="43.14988" lon="3.10754">
        <ele>180</ele>
        <time>2025-12-29T12:07:32.875Z</time>
      </trkpt>
      <trkpt lat="43.1499" lon="3.10754">
        <ele>180</ele>
        <time>2025-12-29T12:07:33.875Z</time>
      </trkpt>
      <trkpt lat="43.14991" lon="3.10753">
        <ele>180</ele>
        <time>2025-12-29T12:07:34.875Z</time>
      </trkpt>
      <trkpt lat="43.14992" lon="3.10753">
        <ele>180</ele>
        <time>2025-12-29T12:07:35.875Z</time>
      </trkpt>
      <trkpt lat="43.14993" lon="3.10753">
        <ele>181</ele>
        <time>2025-12-29T12:07:36.875Z</time>
      </trkpt>
      <trkpt lat="43.14994" lon="3.10753">
        <ele>180</ele>
        <time>2025-12-29T12:07:37.875Z</time>
      </trkpt>
      <trkpt lat="43.14995" lon="3.10753">
        <ele>181</ele>
        <time>2025-12-29T12:07:38.875Z</time>
      </trkpt>
      <trkpt lat="43.14997" lon="3.10752">
        <ele>181</ele>
        <time>2025-12-29T12:07:39.875Z</time>
      </trkpt>
      <trkpt lat="43.14998" lon="3.10752">
        <ele>181</ele>
        <time>2025-12-29T12:07:40.875Z</time>
      </trkpt>
      <trkpt lat="43.15" lon="3.10751">
        <ele>181</ele>
        <time>2025-12-29T12:07:41.875Z</time>
      </trkpt>
      <trkpt lat="43.15001" lon="3.10751">
        <ele>181</ele>
        <time>2025-12-29T12:07:42.875Z</time>
      </trkpt>
      <trkpt lat="43.15003" lon="3.1075">
        <ele>181</ele>
        <time>2025-12-29T12:07:43.875Z</time>
      </trkpt>
      <trkpt lat="43.15004" lon="3.1075">
        <ele>181</ele>
        <time>2025-12-29T12:07:44.875Z</time>
      </trkpt>
      <trkpt lat="43.15005" lon="3.10749">
        <ele>181</ele>
        <time>2025-12-29T12:07:45.875Z</time>
      </trkpt>
      <trkpt lat="43.15006" lon="3.10749">
        <ele>181</ele>
        <time>2025-12-29T12:07:46.875Z</time>
      </trkpt>
      <trkpt lat="43.15008" lon="3.10748">
        <ele>181</ele>
        <time>2025-12-29T12:07:47.875Z</time>
      </trkpt>
      <trkpt lat="43.15009" lon="3.10748">
        <ele>181</ele>
        <time>2025-12-29T12:07:48.875Z</time>
      </trkpt>
      <trkpt lat="43.1501" lon="3.10747">
        <ele>181</ele>
        <time>2025-12-29T12:07:49.875Z</time>
      </trkpt>
      <trkpt lat="43.15011" lon="3.10747">
        <ele>181</ele>
        <time>2025-12-29T12:07:50.875Z</time>
      </trkpt>
      <trkpt lat="43.15012" lon="3.10746">
        <ele>181</ele>
        <time>2025-12-29T12:07:51.875Z</time>
      </trkpt>
      <trkpt lat="43.15013" lon="3.10745">
        <ele>181</ele>
        <time>2025-12-29T12:07:52.875Z</time>
      </trkpt>
      <trkpt lat="43.15014" lon="3.10745">
        <ele>181</ele>
        <time>2025-12-29T12:07:53.875Z</time>
      </trkpt>
      <trkpt lat="43.15016" lon="3.10744">
        <ele>181</ele>
        <time>2025-12-29T12:07:54.875Z</time>
      </trkpt>
      <trkpt lat="43.15017" lon="3.10743">
        <ele>181</ele>
        <time>2025-12-29T12:07:55.875Z</time>
      </trkpt>
      <trkpt lat="43.15018" lon="3.10743">
        <ele>182</ele>
        <time>2025-12-29T12:07:56.875Z</time>
      </trkpt>
      <trkpt lat="43.15019" lon="3.10742">
        <ele>182</ele>
        <time>2025-12-29T12:07:57.875Z</time>
      </trkpt>
      <trkpt lat="43.1502" lon="3.10741">
        <ele>182</ele>
        <time>2025-12-29T12:07:58.875Z</time>
      </trkpt>
      <trkpt lat="43.15021" lon="3.10741">
        <ele>182</ele>
        <time>2025-12-29T12:07:59.875Z</time>
      </trkpt>
      <trkpt lat="43.15022" lon="3.10741">
        <ele>182</ele>
        <time>2025-12-29T12:08:00.875Z</time>
      </trkpt>
      <trkpt lat="43.15024" lon="3.1074">
        <ele>182</ele>
        <time>2025-12-29T12:08:01.875Z</time>
      </trkpt>
      <trkpt lat="43.15025" lon="3.1074">
        <ele>183</ele>
        <time>2025-12-29T12:08:02.875Z</time>
      </trkpt>
      <trkpt lat="43.15026" lon="3.1074">
        <ele>183</ele>
        <time>2025-12-29T12:08:03.875Z</time>
      </trkpt>
      <trkpt lat="43.15028" lon="3.10739">
        <ele>183</ele>
        <time>2025-12-29T12:08:04.875Z</time>
      </trkpt>
      <trkpt lat="43.15029" lon="3.10739">
        <ele>183</ele>
        <time>2025-12-29T12:08:05.875Z</time>
      </trkpt>
      <trkpt lat="43.1503" lon="3.10738">
        <ele>184</ele>
        <time>2025-12-29T12:08:06.875Z</time>
      </trkpt>
      <trkpt lat="43.15031" lon="3.10737">
        <ele>184</ele>
        <time>2025-12-29T12:08:07.875Z</time>
      </trkpt>
      <trkpt lat="43.15032" lon="3.10736">
        <ele>184</ele>
        <time>2025-12-29T12:08:08.875Z</time>
      </trkpt>
      <trkpt lat="43.15034" lon="3.10735">
        <ele>184</ele>
        <time>2025-12-29T12:08:09.875Z</time>
      </trkpt>
      <trkpt lat="43.15035" lon="3.10735">
        <ele>184</ele>
        <time>2025-12-29T12:08:10.875Z</time>
      </trkpt>
      <trkpt lat="43.15036" lon="3.10735">
        <ele>184</ele>
        <time>2025-12-29T12:08:11.875Z</time>
      </trkpt>
      <trkpt lat="43.15037" lon="3.10735">
        <ele>185</ele>
        <time>2025-12-29T12:08:12.875Z</time>
      </trkpt>
      <trkpt lat="43.15038" lon="3.10734">
        <ele>185</ele>
        <time>2025-12-29T12:08:13.875Z</time>
      </trkpt>
      <trkpt lat="43.1504" lon="3.10734">
        <ele>185</ele>
        <time>2025-12-29T12:08:14.875Z</time>
      </trkpt>
      <trkpt lat="43.15041" lon="3.10733">
        <ele>185</ele>
        <time>2025-12-29T12:08:15.875Z</time>
      </trkpt>
      <trkpt lat="43.15042" lon="3.10733">
        <ele>185</ele>
        <time>2025-12-29T12:08:16.875Z</time>
      </trkpt>
      <trkpt lat="43.15042" lon="3.10732">
        <ele>185</ele>
        <time>2025-12-29T12:08:17.875Z</time>
      </trkpt>
      <trkpt lat="43.15043" lon="3.10732">
        <ele>185</ele>
        <time>2025-12-29T12:08:18.875Z</time>
      </trkpt>
      <trkpt lat="43.15044" lon="3.10731">
        <ele>185</ele>
        <time>2025-12-29T12:08:19.875Z</time>
      </trkpt>
      <trkpt lat="43.15046" lon="3.10731">
        <ele>185</ele>
        <time>2025-12-29T12:08:20.875Z</time>
      </trkpt>
      <trkpt lat="43.15047" lon="3.1073">
        <ele>185</ele>
        <time>2025-12-29T12:08:21.875Z</time>
      </trkpt>
      <trkpt lat="43.15049" lon="3.1073">
        <ele>185</ele>
        <time>2025-12-29T12:08:22.875Z</time>
      </trkpt>
      <trkpt lat="43.1505" lon="3.10729">
        <ele>185</ele>
        <time>2025-12-29T12:08:23.875Z</time>
      </trkpt>
      <trkpt lat="43.15051" lon="3.10729">
        <ele>185</ele>
        <time>2025-12-29T12:08:24.875Z</time>
      </trkpt>
      <trkpt lat="43.15052" lon="3.10728">
        <ele>185</ele>
        <time>2025-12-29T12:08:25.875Z</time>
      </trkpt>
      <trkpt lat="43.15053" lon="3.10727">
        <ele>185</ele>
        <time>2025-12-29T12:08:26.875Z</time>
      </trkpt>
      <trkpt lat="43.15054" lon="3.10727">
        <ele>185</ele>
        <time>2025-12-29T12:08:27.875Z</time>
      </trkpt>
      <trkpt lat="43.15054" lon="3.10726">
        <ele>185</ele>
        <time>2025-12-29T12:08:28.875Z</time>
      </trkpt>
      <trkpt lat="43.15055" lon="3.10725">
        <ele>186</ele>
        <time>2025-12-29T12:08:29.875Z</time>
      </trkpt>
      <trkpt lat="43.15055" lon="3.10723">
        <ele>186</ele>
        <time>2025-12-29T12:08:30.875Z</time>
      </trkpt>
      <trkpt lat="43.15057" lon="3.10721">
        <ele>186</ele>
        <time>2025-12-29T12:08:31.875Z</time>
      </trkpt>
      <trkpt lat="43.15058" lon="3.1072">
        <ele>187</ele>
        <time>2025-12-29T12:08:32.875Z</time>
      </trkpt>
      <trkpt lat="43.15059" lon="3.10718">
        <ele>188</ele>
        <time>2025-12-29T12:08:33.875Z</time>
      </trkpt>
      <trkpt lat="43.1506" lon="3.10717">
        <ele>188</ele>
        <time>2025-12-29T12:08:34.875Z</time>
      </trkpt>
      <trkpt lat="43.1506" lon="3.10716">
        <ele>189</ele>
        <time>2025-12-29T12:08:35.875Z</time>
      </trkpt>
      <trkpt lat="43.15061" lon="3.10714">
        <ele>189</ele>
        <time>2025-12-29T12:08:36.875Z</time>
      </trkpt>
      <trkpt lat="43.15061" lon="3.10714">
        <ele>190</ele>
        <time>2025-12-29T12:08:37.875Z</time>
      </trkpt>
      <trkpt lat="43.15061" lon="3.10713">
        <ele>190</ele>
        <time>2025-12-29T12:08:38.875Z</time>
      </trkpt>
      <trkpt lat="43.15061" lon="3.10713">
        <ele>190</ele>
        <time>2025-12-29T12:08:39.875Z</time>
      </trkpt>
      <trkpt lat="43.15061" lon="3.10713">
        <ele>189</ele>
        <time>2025-12-29T12:08:40.875Z</time>
      </trkpt>
      <trkpt lat="43.15061" lon="3.10713">
        <ele>189</ele>
        <time>2025-12-29T12:08:41.875Z</time>
      </trkpt>
      <trkpt lat="43.15061" lon="3.10713">
        <ele>187</ele>
        <time>2025-12-29T12:08:42.875Z</time>
      </trkpt>
      <trkpt lat="43.15061" lon="3.10713">
        <ele>186</ele>
        <time>2025-12-29T12:08:43.875Z</time>
      </trkpt>
      <trkpt lat="43.15061" lon="3.10713">
        <ele>185</ele>
        <time>2025-12-29T12:08:44.875Z</time>
      </trkpt>
      <trkpt lat="43.15061" lon="3.10713">
        <ele>184</ele>
        <time>2025-12-29T12:08:45.875Z</time>
      </trkpt>
      <trkpt lat="43.15061" lon="3.10713">
        <ele>183</ele>
        <time>2025-12-29T12:08:46.875Z</time>
      </trkpt>
      <trkpt lat="43.1506" lon="3.10713">
        <ele>182</ele>
        <time>2025-12-29T12:08:47.875Z</time>
      </trkpt>
      <trkpt lat="43.1506" lon="3.10713">
        <ele>182</ele>
        <time>2025-12-29T12:08:48.875Z</time>
      </trkpt>
      <trkpt lat="43.1506" lon="3.10713">
        <ele>181</ele>
        <time>2025-12-29T12:08:49.875Z</time>
      </trkpt>
      <trkpt lat="43.1506" lon="3.10713">
        <ele>181</ele>
        <time>2025-12-29T12:08:50.875Z</time>
      </trkpt>
      <trkpt lat="43.1506" lon="3.10713">
        <ele>181</ele>
        <time>2025-12-29T12:08:51.875Z</time>
      </trkpt>
      <trkpt lat="43.1506" lon="3.10713">
        <ele>181</ele>
        <time>2025-12-29T12:08:52.876Z</time>
      </trkpt>
      <trkpt lat="43.1506" lon="3.10713">
        <ele>182</ele>
        <time>2025-12-29T12:08:53.875Z</time>
      </trkpt>
      <trkpt lat="43.1506" lon="3.10712">
        <ele>182</ele>
        <time>2025-12-29T12:08:54.875Z</time>
      </trkpt>
      <trkpt lat="43.15059" lon="3.10712">
        <ele>183</ele>
        <time>2025-12-29T12:08:55.875Z</time>
      </trkpt>
      <trkpt lat="43.15059" lon="3.10711">
        <ele>183</ele>
        <time>2025-12-29T12:08:56.875Z</time>
      </trkpt>
      <trkpt lat="43.15059" lon="3.10711">
        <ele>184</ele>
        <time>2025-12-29T12:08:57.875Z</time>
      </trkpt>
      <trkpt lat="43.15059" lon="3.1071">
        <ele>185</ele>
        <time>2025-12-29T12:08:58.875Z</time>
      </trkpt>
      <trkpt lat="43.1506" lon="3.1071">
        <ele>185</ele>
        <time>2025-12-29T12:08:59.875Z</time>
      </trkpt>
      <trkpt lat="43.1506" lon="3.1071">
        <ele>185</ele>
        <time>2025-12-29T12:09:00.875Z</time>
      </trkpt>
      <trkpt lat="43.1506" lon="3.1071">
        <ele>186</ele>
        <time>2025-12-29T12:09:01.875Z</time>
      </trkpt>
      <trkpt lat="43.1506" lon="3.1071">
        <ele>186</ele>
        <time>2025-12-29T12:09:02.875Z</time>
      </trkpt>
      <trkpt lat="43.1506" lon="3.10709">
        <ele>186</ele>
        <time>2025-12-29T12:09:03.875Z</time>
      </trkpt>
      <trkpt lat="43.1506" lon="3.10709">
        <ele>186</ele>
        <time>2025-12-29T12:09:04.875Z</time>
      </trkpt>
      <trkpt lat="43.1506" lon="3.10709">
        <ele>186</ele>
        <time>2025-12-29T12:09:05.875Z</time>
      </trkpt>
      <trkpt lat="43.1506" lon="3.10708">
        <ele>186</ele>
        <time>2025-12-29T12:09:06.875Z</time>
      </trkpt>
      <trkpt lat="43.1506" lon="3.10708">
        <ele>186</ele>
        <time>2025-12-29T12:09:07.875Z</time>
      </trkpt>
      <trkpt lat="43.15061" lon="3.10708">
        <ele>186</ele>
        <time>2025-12-29T12:09:08.875Z</time>
      </trkpt>
      <trkpt lat="43.15061" lon="3.10709">
        <ele>185</ele>
        <time>2025-12-29T12:09:09.875Z</time>
      </trkpt>
      <trkpt lat="43.15061" lon="3.10709">
        <ele>185</ele>
        <time>2025-12-29T12:09:10.875Z</time>
      </trkpt>
      <trkpt lat="43.15061" lon="3.10709">
        <ele>185</ele>
        <time>2025-12-29T12:09:11.875Z</time>
      </trkpt>
      <trkpt lat="43.15061" lon="3.10709">
        <ele>185</ele>
        <time>2025-12-29T12:09:12.875Z</time>
      </trkpt>
      <trkpt lat="43.15061" lon="3.10709">
        <ele>185</ele>
        <time>2025-12-29T12:09:13.875Z</time>
      </trkpt>
      <trkpt lat="43.15061" lon="3.1071">
        <ele>185</ele>
        <time>2025-12-29T12:09:14.875Z</time>
      </trkpt>
      <trkpt lat="43.15061" lon="3.1071">
        <ele>186</ele>
        <time>2025-12-29T12:09:15.875Z</time>
      </trkpt>
      <trkpt lat="43.15061" lon="3.1071">
        <ele>186</ele>
        <time>2025-12-29T12:09:16.875Z</time>
      </trkpt>
      <trkpt lat="43.15061" lon="3.1071">
        <ele>186</ele>
        <time>2025-12-29T12:09:17.875Z</time>
      </trkpt>
      <trkpt lat="43.15061" lon="3.1071">
        <ele>186</ele>
        <time>2025-12-29T12:09:18.875Z</time>
      </trkpt>
      <trkpt lat="43.15061" lon="3.1071">
        <ele>186</ele>
        <time>2025-12-29T12:09:19.875Z</time>
      </trkpt>
      <trkpt lat="43.15061" lon="3.1071">
        <ele>186</ele>
        <time>2025-12-29T12:09:20.875Z</time>
      </trkpt>
      <trkpt lat="43.15061" lon="3.1071">
        <ele>186</ele>
        <time>2025-12-29T12:09:21.875Z</time>
      </trkpt>
      <trkpt lat="43.15061" lon="3.1071">
        <ele>186</ele>
        <time>2025-12-29T12:09:22.875Z</time>
      </trkpt>
      <trkpt lat="43.15061" lon="3.1071">
        <ele>186</ele>
        <time>2025-12-29T12:09:23.875Z</time>
      </trkpt>
      <trkpt lat="43.15061" lon="3.1071">
        <ele>187</ele>
        <time>2025-12-29T12:09:24.875Z</time>
      </trkpt>
      <trkpt lat="43.15061" lon="3.1071">
        <ele>187</ele>
        <time>2025-12-29T12:09:25.875Z</time>
      </trkpt>
      <trkpt lat="43.15061" lon="3.1071">
        <ele>188</ele>
        <time>2025-12-29T12:09:26.875Z</time>
      </trkpt>
      <trkpt lat="43.15061" lon="3.10711">
        <ele>188</ele>
        <time>2025-12-29T12:09:27.875Z</time>
      </trkpt>
      <trkpt lat="43.15061" lon="3.1071">
        <ele>188</ele>
        <time>2025-12-29T12:09:28.875Z</time>
      </trkpt>
      <trkpt lat="43.15061" lon="3.1071">
        <ele>188</ele>
        <time>2025-12-29T12:09:29.875Z</time>
      </trkpt>
      <trkpt lat="43.15061" lon="3.10711">
        <ele>187</ele>
        <time>2025-12-29T12:09:30.875Z</time>
      </trkpt>
      <trkpt lat="43.15061" lon="3.10711">
        <ele>187</ele>
        <time>2025-12-29T12:09:31.875Z</time>
      </trkpt>
      <trkpt lat="43.15061" lon="3.10711">
        <ele>187</ele>
        <time>2025-12-29T12:09:32.875Z</time>
      </trkpt>
      <trkpt lat="43.15061" lon="3.1071">
        <ele>187</ele>
        <time>2025-12-29T12:09:33.875Z</time>
      </trkpt>
      <trkpt lat="43.15062" lon="3.10711">
        <ele>187</ele>
        <time>2025-12-29T12:09:34.875Z</time>
      </trkpt>
      <trkpt lat="43.15062" lon="3.10711">
        <ele>187</ele>
        <time>2025-12-29T12:09:35.875Z</time>
      </trkpt>
      <trkpt lat="43.15061" lon="3.1071">
        <ele>187</ele>
        <time>2025-12-29T12:09:36.875Z</time>
      </trkpt>
      <trkpt lat="43.1506" lon="3.1071">
        <ele>187</ele>
        <time>2025-12-29T12:09:37.875Z</time>
      </trkpt>
      <trkpt lat="43.1506" lon="3.1071">
        <ele>187</ele>
        <time>2025-12-29T12:09:38.875Z</time>
      </trkpt>
      <trkpt lat="43.1506" lon="3.10709">
        <ele>187</ele>
        <time>2025-12-29T12:09:39.875Z</time>
      </trkpt>
      <trkpt lat="43.1506" lon="3.10709">
        <ele>187</ele>
        <time>2025-12-29T12:09:40.875Z</time>
      </trkpt>
      <trkpt lat="43.1506" lon="3.10709">
        <ele>187</ele>
        <time>2025-12-29T12:09:41.875Z</time>
      </trkpt>
      <trkpt lat="43.1506" lon="3.10709">
        <ele>187</ele>
        <time>2025-12-29T12:09:42.875Z</time>
      </trkpt>
      <trkpt lat="43.1506" lon="3.10709">
        <ele>187</ele>
        <time>2025-12-29T12:09:43.875Z</time>
      </trkpt>
      <trkpt lat="43.1506" lon="3.10709">
        <ele>186</ele>
        <time>2025-12-29T12:09:44.875Z</time>
      </trkpt>
      <trkpt lat="43.1506" lon="3.10709">
        <ele>186</ele>
        <time>2025-12-29T12:09:45.875Z</time>
      </trkpt>
      <trkpt lat="43.1506" lon="3.10709">
        <ele>186</ele>
        <time>2025-12-29T12:09:46.875Z</time>
      </trkpt>
      <trkpt lat="43.1506" lon="3.10709">
        <ele>186</ele>
        <time>2025-12-29T12:09:47.875Z</time>
      </trkpt>
      <trkpt lat="43.1506" lon="3.10708">
        <ele>186</ele>
        <time>2025-12-29T12:09:48.875Z</time>
      </trkpt>
      <trkpt lat="43.1506" lon="3.10709">
        <ele>186</ele>
        <time>2025-12-29T12:09:49.875Z</time>
      </trkpt>
      <trkpt lat="43.15059" lon="3.1071">
        <ele>186</ele>
        <time>2025-12-29T12:09:50.875Z</time>
      </trkpt>
      <trkpt lat="43.15059" lon="3.1071">
        <ele>186</ele>
        <time>2025-12-29T12:09:51.875Z</time>
      </trkpt>
      <trkpt lat="43.15059" lon="3.1071">
        <ele>186</ele>
        <time>2025-12-29T12:09:52.875Z</time>
      </trkpt>
      <trkpt lat="43.15059" lon="3.1071">
        <ele>186</ele>
        <time>2025-12-29T12:09:53.875Z</time>
      </trkpt>
      <trkpt lat="43.15059" lon="3.10711">
        <ele>186</ele>
        <time>2025-12-29T12:09:54.875Z</time>
      </trkpt>
      <trkpt lat="43.1506" lon="3.10711">
        <ele>185</ele>
        <time>2025-12-29T12:09:55.875Z</time>
      </trkpt>
      <trkpt lat="43.15061" lon="3.10711">
        <ele>185</ele>
        <time>2025-12-29T12:09:56.875Z</time>
      </trkpt>
      <trkpt lat="43.15061" lon="3.10711">
        <ele>185</ele>
        <time>2025-12-29T12:09:57.875Z</time>
      </trkpt>
      <trkpt lat="43.15062" lon="3.10711">
        <ele>185</ele>
        <time>2025-12-29T12:09:58.875Z</time>
      </trkpt>
      <trkpt lat="43.15062" lon="3.1071">
        <ele>185</ele>
        <time>2025-12-29T12:09:59.875Z</time>
      </trkpt>
      <trkpt lat="43.15063" lon="3.10709">
        <ele>185</ele>
        <time>2025-12-29T12:10:00.875Z</time>
      </trkpt>
      <trkpt lat="43.15063" lon="3.10707">
        <ele>186</ele>
        <time>2025-12-29T12:10:01.875Z</time>
      </trkpt>
      <trkpt lat="43.15063" lon="3.10707">
        <ele>186</ele>
        <time>2025-12-29T12:10:02.875Z</time>
      </trkpt>
      <trkpt lat="43.15063" lon="3.10707">
        <ele>186</ele>
        <time>2025-12-29T12:10:03.875Z</time>
      </trkpt>
      <trkpt lat="43.15063" lon="3.10707">
        <ele>187</ele>
        <time>2025-12-29T12:10:04.875Z</time>
      </trkpt>
      <trkpt lat="43.15063" lon="3.10707">
        <ele>187</ele>
        <time>2025-12-29T12:10:05.875Z</time>
      </trkpt>
      <trkpt lat="43.15063" lon="3.10706">
        <ele>187</ele>
        <time>2025-12-29T12:10:06.875Z</time>
      </trkpt>
      <trkpt lat="43.15063" lon="3.10705">
        <ele>187</ele>
        <time>2025-12-29T12:10:07.875Z</time>
      </trkpt>
      <trkpt lat="43.15063" lon="3.10705">
        <ele>186</ele>
        <time>2025-12-29T12:10:08.875Z</time>
      </trkpt>
      <trkpt lat="43.15064" lon="3.10704">
        <ele>186</ele>
        <time>2025-12-29T12:10:09.875Z</time>
      </trkpt>
      <trkpt lat="43.15064" lon="3.10703">
        <ele>186</ele>
        <time>2025-12-29T12:10:10.875Z</time>
      </trkpt>
      <trkpt lat="43.15064" lon="3.10703">
        <ele>186</ele>
        <time>2025-12-29T12:10:11.875Z</time>
      </trkpt>
      <trkpt lat="43.15065" lon="3.10702">
        <ele>186</ele>
        <time>2025-12-29T12:10:12.875Z</time>
      </trkpt>
      <trkpt lat="43.15065" lon="3.10702">
        <ele>187</ele>
        <time>2025-12-29T12:10:13.875Z</time>
      </trkpt>
      <trkpt lat="43.15066" lon="3.10701">
        <ele>187</ele>
        <time>2025-12-29T12:10:14.875Z</time>
      </trkpt>
      <trkpt lat="43.15066" lon="3.10699">
        <ele>187</ele>
        <time>2025-12-29T12:10:15.875Z</time>
      </trkpt>
      <trkpt lat="43.15067" lon="3.10698">
        <ele>188</ele>
        <time>2025-12-29T12:10:16.875Z</time>
      </trkpt>
      <trkpt lat="43.15067" lon="3.10697">
        <ele>188</ele>
        <time>2025-12-29T12:10:17.875Z</time>
      </trkpt>
      <trkpt lat="43.15068" lon="3.10695">
        <ele>188</ele>
        <time>2025-12-29T12:10:18.875Z</time>
      </trkpt>
      <trkpt lat="43.15068" lon="3.10693">
        <ele>188</ele>
        <time>2025-12-29T12:10:19.875Z</time>
      </trkpt>
      <trkpt lat="43.15069" lon="3.10692">
        <ele>188</ele>
        <time>2025-12-29T12:10:20.875Z</time>
      </trkpt>
      <trkpt lat="43.15069" lon="3.10691">
        <ele>189</ele>
        <time>2025-12-29T12:10:21.875Z</time>
      </trkpt>
      <trkpt lat="43.1507" lon="3.10689">
        <ele>189</ele>
        <time>2025-12-29T12:10:22.875Z</time>
      </trkpt>
      <trkpt lat="43.1507" lon="3.10687">
        <ele>189</ele>
        <time>2025-12-29T12:10:23.875Z</time>
      </trkpt>
      <trkpt lat="43.15071" lon="3.10686">
        <ele>189</ele>
        <time>2025-12-29T12:10:24.875Z</time>
      </trkpt>
      <trkpt lat="43.15071" lon="3.10685">
        <ele>190</ele>
        <time>2025-12-29T12:10:25.875Z</time>
      </trkpt>
      <trkpt lat="43.15072" lon="3.10684">
        <ele>190</ele>
        <time>2025-12-29T12:10:26.875Z</time>
      </trkpt>
      <trkpt lat="43.15072" lon="3.10682">
        <ele>190</ele>
        <time>2025-12-29T12:10:27.875Z</time>
      </trkpt>
      <trkpt lat="43.15073" lon="3.1068">
        <ele>190</ele>
        <time>2025-12-29T12:10:28.875Z</time>
      </trkpt>
      <trkpt lat="43.15073" lon="3.10679">
        <ele>190</ele>
        <time>2025-12-29T12:10:29.875Z</time>
      </trkpt>
      <trkpt lat="43.15074" lon="3.10679">
        <ele>190</ele>
        <time>2025-12-29T12:10:30.875Z</time>
      </trkpt>
      <trkpt lat="43.15074" lon="3.10678">
        <ele>191</ele>
        <time>2025-12-29T12:10:31.875Z</time>
      </trkpt>
      <trkpt lat="43.15074" lon="3.10678">
        <ele>191</ele>
        <time>2025-12-29T12:10:32.875Z</time>
      </trkpt>
      <trkpt lat="43.15074" lon="3.10678">
        <ele>191</ele>
        <time>2025-12-29T12:10:33.875Z</time>
      </trkpt>
      <trkpt lat="43.15074" lon="3.10677">
        <ele>190</ele>
        <time>2025-12-29T12:10:34.875Z</time>
      </trkpt>
      <trkpt lat="43.15074" lon="3.10677">
        <ele>190</ele>
        <time>2025-12-29T12:10:35.875Z</time>
      </trkpt>
      <trkpt lat="43.15074" lon="3.10677">
        <ele>190</ele>
        <time>2025-12-29T12:10:36.875Z</time>
      </trkpt>
      <trkpt lat="43.15073" lon="3.10677">
        <ele>190</ele>
        <time>2025-12-29T12:10:37.875Z</time>
      </trkpt>
      <trkpt lat="43.15074" lon="3.10676">
        <ele>189</ele>
        <time>2025-12-29T12:10:38.875Z</time>
      </trkpt>
      <trkpt lat="43.15074" lon="3.10675">
        <ele>189</ele>
        <time>2025-12-29T12:10:39.875Z</time>
      </trkpt>
      <trkpt lat="43.15074" lon="3.10673">
        <ele>188</ele>
        <time>2025-12-29T12:10:40.875Z</time>
      </trkpt>
      <trkpt lat="43.15074" lon="3.10672">
        <ele>188</ele>
        <time>2025-12-29T12:10:41.875Z</time>
      </trkpt>
      <trkpt lat="43.15075" lon="3.1067">
        <ele>188</ele>
        <time>2025-12-29T12:10:42.875Z</time>
      </trkpt>
      <trkpt lat="43.15076" lon="3.10668">
        <ele>188</ele>
        <time>2025-12-29T12:10:43.875Z</time>
      </trkpt>
      <trkpt lat="43.15076" lon="3.10666">
        <ele>188</ele>
        <time>2025-12-29T12:10:44.875Z</time>
      </trkpt>
      <trkpt lat="43.15076" lon="3.10665">
        <ele>187</ele>
        <time>2025-12-29T12:10:45.875Z</time>
      </trkpt>
      <trkpt lat="43.15077" lon="3.10663">
        <ele>187</ele>
        <time>2025-12-29T12:10:46.875Z</time>
      </trkpt>
      <trkpt lat="43.15077" lon="3.10661">
        <ele>187</ele>
        <time>2025-12-29T12:10:47.875Z</time>
      </trkpt>
      <trkpt lat="43.15076" lon="3.10659">
        <ele>187</ele>
        <time>2025-12-29T12:10:48.875Z</time>
      </trkpt>
      <trkpt lat="43.15076" lon="3.10657">
        <ele>187</ele>
        <time>2025-12-29T12:10:49.875Z</time>
      </trkpt>
      <trkpt lat="43.15076" lon="3.10655">
        <ele>188</ele>
        <time>2025-12-29T12:10:50.875Z</time>
      </trkpt>
      <trkpt lat="43.15077" lon="3.10653">
        <ele>188</ele>
        <time>2025-12-29T12:10:51.875Z</time>
      </trkpt>
      <trkpt lat="43.15078" lon="3.10652">
        <ele>188</ele>
        <time>2025-12-29T12:10:52.875Z</time>
      </trkpt>
      <trkpt lat="43.15078" lon="3.1065">
        <ele>188</ele>
        <time>2025-12-29T12:10:53.875Z</time>
      </trkpt>
      <trkpt lat="43.15078" lon="3.10648">
        <ele>188</ele>
        <time>2025-12-29T12:10:54.875Z</time>
      </trkpt>
      <trkpt lat="43.15078" lon="3.10647">
        <ele>189</ele>
        <time>2025-12-29T12:10:55.875Z</time>
      </trkpt>
      <trkpt lat="43.15077" lon="3.10645">
        <ele>189</ele>
        <time>2025-12-29T12:10:56.875Z</time>
      </trkpt>
      <trkpt lat="43.15077" lon="3.10644">
        <ele>189</ele>
        <time>2025-12-29T12:10:57.875Z</time>
      </trkpt>
      <trkpt lat="43.15077" lon="3.10642">
        <ele>189</ele>
        <time>2025-12-29T12:10:58.875Z</time>
      </trkpt>
      <trkpt lat="43.15077" lon="3.1064">
        <ele>190</ele>
        <time>2025-12-29T12:10:59.875Z</time>
      </trkpt>
      <trkpt lat="43.15077" lon="3.10639">
        <ele>190</ele>
        <time>2025-12-29T12:11:00.875Z</time>
      </trkpt>
      <trkpt lat="43.15076" lon="3.10637">
        <ele>191</ele>
        <time>2025-12-29T12:11:01.875Z</time>
      </trkpt>
      <trkpt lat="43.15076" lon="3.10635">
        <ele>191</ele>
        <time>2025-12-29T12:11:02.875Z</time>
      </trkpt>
      <trkpt lat="43.15076" lon="3.10633">
        <ele>192</ele>
        <time>2025-12-29T12:11:03.875Z</time>
      </trkpt>
      <trkpt lat="43.15076" lon="3.10631">
        <ele>192</ele>
        <time>2025-12-29T12:11:04.875Z</time>
      </trkpt>
      <trkpt lat="43.15076" lon="3.1063">
        <ele>192</ele>
        <time>2025-12-29T12:11:05.875Z</time>
      </trkpt>
      <trkpt lat="43.15076" lon="3.10628">
        <ele>192</ele>
        <time>2025-12-29T12:11:06.875Z</time>
      </trkpt>
      <trkpt lat="43.15076" lon="3.10626">
        <ele>192</ele>
        <time>2025-12-29T12:11:07.875Z</time>
      </trkpt>
      <trkpt lat="43.15075" lon="3.10625">
        <ele>192</ele>
        <time>2025-12-29T12:11:08.875Z</time>
      </trkpt>
      <trkpt lat="43.15074" lon="3.10623">
        <ele>192</ele>
        <time>2025-12-29T12:11:09.875Z</time>
      </trkpt>
      <trkpt lat="43.15073" lon="3.10621">
        <ele>191</ele>
        <time>2025-12-29T12:11:10.875Z</time>
      </trkpt>
      <trkpt lat="43.15073" lon="3.10619">
        <ele>191</ele>
        <time>2025-12-29T12:11:11.875Z</time>
      </trkpt>
      <trkpt lat="43.15072" lon="3.10618">
        <ele>191</ele>
        <time>2025-12-29T12:11:12.875Z</time>
      </trkpt>
      <trkpt lat="43.15072" lon="3.10617">
        <ele>190</ele>
        <time>2025-12-29T12:11:13.875Z</time>
      </trkpt>
      <trkpt lat="43.15071" lon="3.10616">
        <ele>190</ele>
        <time>2025-12-29T12:11:14.875Z</time>
      </trkpt>
      <trkpt lat="43.1507" lon="3.10615">
        <ele>189</ele>
        <time>2025-12-29T12:11:15.875Z</time>
      </trkpt>
      <trkpt lat="43.1507" lon="3.10613">
        <ele>189</ele>
        <time>2025-12-29T12:11:16.875Z</time>
      </trkpt>
      <trkpt lat="43.15069" lon="3.10612">
        <ele>188</ele>
        <time>2025-12-29T12:11:17.875Z</time>
      </trkpt>
      <trkpt lat="43.15069" lon="3.10611">
        <ele>188</ele>
        <time>2025-12-29T12:11:18.875Z</time>
      </trkpt>
      <trkpt lat="43.15068" lon="3.10609">
        <ele>188</ele>
        <time>2025-12-29T12:11:19.875Z</time>
      </trkpt>
      <trkpt lat="43.15068" lon="3.10607">
        <ele>188</ele>
        <time>2025-12-29T12:11:20.875Z</time>
      </trkpt>
      <trkpt lat="43.15067" lon="3.10606">
        <ele>188</ele>
        <time>2025-12-29T12:11:21.875Z</time>
      </trkpt>
      <trkpt lat="43.15066" lon="3.10604">
        <ele>188</ele>
        <time>2025-12-29T12:11:22.875Z</time>
      </trkpt>
      <trkpt lat="43.15066" lon="3.10603">
        <ele>188</ele>
        <time>2025-12-29T12:11:23.875Z</time>
      </trkpt>
      <trkpt lat="43.15065" lon="3.10602">
        <ele>188</ele>
        <time>2025-12-29T12:11:24.875Z</time>
      </trkpt>
      <trkpt lat="43.15064" lon="3.106">
        <ele>189</ele>
        <time>2025-12-29T12:11:25.875Z</time>
      </trkpt>
      <trkpt lat="43.15064" lon="3.10599">
        <ele>189</ele>
        <time>2025-12-29T12:11:26.875Z</time>
      </trkpt>
      <trkpt lat="43.15063" lon="3.10597">
        <ele>188</ele>
        <time>2025-12-29T12:11:27.875Z</time>
      </trkpt>
      <trkpt lat="43.15063" lon="3.10596">
        <ele>188</ele>
        <time>2025-12-29T12:11:28.875Z</time>
      </trkpt>
      <trkpt lat="43.15062" lon="3.10594">
        <ele>188</ele>
        <time>2025-12-29T12:11:29.875Z</time>
      </trkpt>
      <trkpt lat="43.15061" lon="3.10592">
        <ele>189</ele>
        <time>2025-12-29T12:11:30.875Z</time>
      </trkpt>
      <trkpt lat="43.15061" lon="3.1059">
        <ele>189</ele>
        <time>2025-12-29T12:11:31.875Z</time>
      </trkpt>
      <trkpt lat="43.1506" lon="3.10589">
        <ele>189</ele>
        <time>2025-12-29T12:11:32.875Z</time>
      </trkpt>
      <trkpt lat="43.15059" lon="3.10587">
        <ele>189</ele>
        <time>2025-12-29T12:11:33.875Z</time>
      </trkpt>
      <trkpt lat="43.15059" lon="3.10586">
        <ele>189</ele>
        <time>2025-12-29T12:11:34.875Z</time>
      </trkpt>
      <trkpt lat="43.15058" lon="3.10584">
        <ele>188</ele>
        <time>2025-12-29T12:11:35.875Z</time>
      </trkpt>
      <trkpt lat="43.15057" lon="3.10583">
        <ele>188</ele>
        <time>2025-12-29T12:11:36.875Z</time>
      </trkpt>
      <trkpt lat="43.15057" lon="3.10582">
        <ele>188</ele>
        <time>2025-12-29T12:11:37.875Z</time>
      </trkpt>
      <trkpt lat="43.15056" lon="3.1058">
        <ele>188</ele>
        <time>2025-12-29T12:11:38.875Z</time>
      </trkpt>
      <trkpt lat="43.15056" lon="3.10578">
        <ele>188</ele>
        <time>2025-12-29T12:11:39.875Z</time>
      </trkpt>
      <trkpt lat="43.15055" lon="3.10577">
        <ele>189</ele>
        <time>2025-12-29T12:11:40.875Z</time>
      </trkpt>
      <trkpt lat="43.15055" lon="3.10576">
        <ele>189</ele>
        <time>2025-12-29T12:11:41.875Z</time>
      </trkpt>
      <trkpt lat="43.15054" lon="3.10576">
        <ele>189</ele>
        <time>2025-12-29T12:11:42.876Z</time>
      </trkpt>
      <trkpt lat="43.15054" lon="3.10575">
        <ele>189</ele>
        <time>2025-12-29T12:11:43.875Z</time>
      </trkpt>
      <trkpt lat="43.15054" lon="3.10575">
        <ele>189</ele>
        <time>2025-12-29T12:11:44.875Z</time>
      </trkpt>
      <trkpt lat="43.15054" lon="3.10575">
        <ele>189</ele>
        <time>2025-12-29T12:11:45.875Z</time>
      </trkpt>
      <trkpt lat="43.15053" lon="3.10575">
        <ele>189</ele>
        <time>2025-12-29T12:11:46.875Z</time>
      </trkpt>
      <trkpt lat="43.15053" lon="3.10575">
        <ele>188</ele>
        <time>2025-12-29T12:11:47.875Z</time>
      </trkpt>
      <trkpt lat="43.15053" lon="3.10575">
        <ele>188</ele>
        <time>2025-12-29T12:11:48.875Z</time>
      </trkpt>
      <trkpt lat="43.15053" lon="3.10575">
        <ele>188</ele>
        <time>2025-12-29T12:11:49.875Z</time>
      </trkpt>
      <trkpt lat="43.15053" lon="3.10575">
        <ele>188</ele>
        <time>2025-12-29T12:11:50.875Z</time>
      </trkpt>
      <trkpt lat="43.15053" lon="3.10575">
        <ele>188</ele>
        <time>2025-12-29T12:11:51.875Z</time>
      </trkpt>
      <trkpt lat="43.15053" lon="3.10575">
        <ele>187</ele>
        <time>2025-12-29T12:11:52.875Z</time>
      </trkpt>
      <trkpt lat="43.15053" lon="3.10575">
        <ele>187</ele>
        <time>2025-12-29T12:11:53.875Z</time>
      </trkpt>
      <trkpt lat="43.15053" lon="3.10575">
        <ele>187</ele>
        <time>2025-12-29T12:11:54.875Z</time>
      </trkpt>
      <trkpt lat="43.15053" lon="3.10575">
        <ele>187</ele>
        <time>2025-12-29T12:11:55.875Z</time>
      </trkpt>
      <trkpt lat="43.15053" lon="3.10574">
        <ele>187</ele>
        <time>2025-12-29T12:11:56.875Z</time>
      </trkpt>
      <trkpt lat="43.15053" lon="3.10574">
        <ele>187</ele>
        <time>2025-12-29T12:11:57.875Z</time>
      </trkpt>
      <trkpt lat="43.15053" lon="3.10572">
        <ele>187</ele>
        <time>2025-12-29T12:11:58.875Z</time>
      </trkpt>
      <trkpt lat="43.15052" lon="3.10571">
        <ele>187</ele>
        <time>2025-12-29T12:11:59.875Z</time>
      </trkpt>
      <trkpt lat="43.15052" lon="3.1057">
        <ele>187</ele>
        <time>2025-12-29T12:12:00.875Z</time>
      </trkpt>
      <trkpt lat="43.15052" lon="3.10569">
        <ele>187</ele>
        <time>2025-12-29T12:12:01.875Z</time>
      </trkpt>
      <trkpt lat="43.15052" lon="3.10568">
        <ele>187</ele>
        <time>2025-12-29T12:12:02.875Z</time>
      </trkpt>
      <trkpt lat="43.15051" lon="3.10567">
        <ele>187</ele>
        <time>2025-12-29T12:12:03.875Z</time>
      </trkpt>
      <trkpt lat="43.15051" lon="3.10565">
        <ele>187</ele>
        <time>2025-12-29T12:12:04.875Z</time>
      </trkpt>
      <trkpt lat="43.1505" lon="3.10564">
        <ele>187</ele>
        <time>2025-12-29T12:12:05.875Z</time>
      </trkpt>
      <trkpt lat="43.1505" lon="3.10563">
        <ele>186</ele>
        <time>2025-12-29T12:12:06.875Z</time>
      </trkpt>
      <trkpt lat="43.15048" lon="3.10562">
        <ele>186</ele>
        <time>2025-12-29T12:12:07.875Z</time>
      </trkpt>
      <trkpt lat="43.15047" lon="3.10561">
        <ele>186</ele>
        <time>2025-12-29T12:12:08.875Z</time>
      </trkpt>
      <trkpt lat="43.15046" lon="3.10559">
        <ele>186</ele>
        <time>2025-12-29T12:12:09.875Z</time>
      </trkpt>
      <trkpt lat="43.15045" lon="3.10558">
        <ele>186</ele>
        <time>2025-12-29T12:12:10.875Z</time>
      </trkpt>
      <trkpt lat="43.15045" lon="3.10557">
        <ele>186</ele>
        <time>2025-12-29T12:12:11.875Z</time>
      </trkpt>
      <trkpt lat="43.15044" lon="3.10556">
        <ele>186</ele>
        <time>2025-12-29T12:12:12.875Z</time>
      </trkpt>
      <trkpt lat="43.15043" lon="3.10555">
        <ele>186</ele>
        <time>2025-12-29T12:12:13.875Z</time>
      </trkpt>
      <trkpt lat="43.15042" lon="3.10554">
        <ele>186</ele>
        <time>2025-12-29T12:12:14.875Z</time>
      </trkpt>
      <trkpt lat="43.15042" lon="3.10553">
        <ele>186</ele>
        <time>2025-12-29T12:12:15.875Z</time>
      </trkpt>
      <trkpt lat="43.15041" lon="3.10552">
        <ele>186</ele>
        <time>2025-12-29T12:12:16.875Z</time>
      </trkpt>
      <trkpt lat="43.1504" lon="3.10551">
        <ele>186</ele>
        <time>2025-12-29T12:12:17.875Z</time>
      </trkpt>
      <trkpt lat="43.15039" lon="3.1055">
        <ele>186</ele>
        <time>2025-12-29T12:12:18.875Z</time>
      </trkpt>
      <trkpt lat="43.15039" lon="3.10549">
        <ele>185</ele>
        <time>2025-12-29T12:12:19.875Z</time>
      </trkpt>
      <trkpt lat="43.15038" lon="3.10548">
        <ele>185</ele>
        <time>2025-12-29T12:12:20.875Z</time>
      </trkpt>
      <trkpt lat="43.15038" lon="3.10547">
        <ele>185</ele>
        <time>2025-12-29T12:12:21.875Z</time>
      </trkpt>
      <trkpt lat="43.15037" lon="3.10545">
        <ele>184</ele>
        <time>2025-12-29T12:12:22.875Z</time>
      </trkpt>
      <trkpt lat="43.15037" lon="3.10544">
        <ele>184</ele>
        <time>2025-12-29T12:12:23.875Z</time>
      </trkpt>
      <trkpt lat="43.15036" lon="3.10542">
        <ele>184</ele>
        <time>2025-12-29T12:12:24.875Z</time>
      </trkpt>
      <trkpt lat="43.15035" lon="3.10541">
        <ele>183</ele>
        <time>2025-12-29T12:12:25.875Z</time>
      </trkpt>
      <trkpt lat="43.15034" lon="3.10539">
        <ele>183</ele>
        <time>2025-12-29T12:12:26.875Z</time>
      </trkpt>
      <trkpt lat="43.15033" lon="3.10538">
        <ele>183</ele>
        <time>2025-12-29T12:12:27.875Z</time>
      </trkpt>
      <trkpt lat="43.15032" lon="3.10536">
        <ele>182</ele>
        <time>2025-12-29T12:12:28.875Z</time>
      </trkpt>
      <trkpt lat="43.15031" lon="3.10535">
        <ele>182</ele>
        <time>2025-12-29T12:12:29.875Z</time>
      </trkpt>
      <trkpt lat="43.1503" lon="3.10533">
        <ele>182</ele>
        <time>2025-12-29T12:12:30.875Z</time>
      </trkpt>
      <trkpt lat="43.15029" lon="3.10532">
        <ele>182</ele>
        <time>2025-12-29T12:12:31.875Z</time>
      </trkpt>
      <trkpt lat="43.15029" lon="3.10531">
        <ele>183</ele>
        <time>2025-12-29T12:12:32.875Z</time>
      </trkpt>
      <trkpt lat="43.15028" lon="3.10529">
        <ele>183</ele>
        <time>2025-12-29T12:12:33.875Z</time>
      </trkpt>
      <trkpt lat="43.15027" lon="3.10529">
        <ele>183</ele>
        <time>2025-12-29T12:12:34.875Z</time>
      </trkpt>
      <trkpt lat="43.15026" lon="3.10528">
        <ele>184</ele>
        <time>2025-12-29T12:12:35.875Z</time>
      </trkpt>
      <trkpt lat="43.15026" lon="3.10526">
        <ele>184</ele>
        <time>2025-12-29T12:12:36.875Z</time>
      </trkpt>
      <trkpt lat="43.15025" lon="3.10525">
        <ele>184</ele>
        <time>2025-12-29T12:12:37.875Z</time>
      </trkpt>
      <trkpt lat="43.15024" lon="3.10523">
        <ele>185</ele>
        <time>2025-12-29T12:12:38.875Z</time>
      </trkpt>
      <trkpt lat="43.15023" lon="3.10522">
        <ele>185</ele>
        <time>2025-12-29T12:12:39.875Z</time>
      </trkpt>
      <trkpt lat="43.15022" lon="3.1052">
        <ele>186</ele>
        <time>2025-12-29T12:12:40.875Z</time>
      </trkpt>
      <trkpt lat="43.15021" lon="3.10519">
        <ele>186</ele>
        <time>2025-12-29T12:12:41.875Z</time>
      </trkpt>
      <trkpt lat="43.1502" lon="3.10517">
        <ele>186</ele>
        <time>2025-12-29T12:12:42.875Z</time>
      </trkpt>
      <trkpt lat="43.15019" lon="3.10515">
        <ele>186</ele>
        <time>2025-12-29T12:12:43.875Z</time>
      </trkpt>
      <trkpt lat="43.15018" lon="3.10514">
        <ele>186</ele>
        <time>2025-12-29T12:12:44.875Z</time>
      </trkpt>
      <trkpt lat="43.15017" lon="3.10512">
        <ele>186</ele>
        <time>2025-12-29T12:12:45.875Z</time>
      </trkpt>
      <trkpt lat="43.15016" lon="3.1051">
        <ele>186</ele>
        <time>2025-12-29T12:12:46.875Z</time>
      </trkpt>
      <trkpt lat="43.15014" lon="3.10509">
        <ele>186</ele>
        <time>2025-12-29T12:12:47.875Z</time>
      </trkpt>
      <trkpt lat="43.15013" lon="3.10507">
        <ele>186</ele>
        <time>2025-12-29T12:12:48.875Z</time>
      </trkpt>
      <trkpt lat="43.15012" lon="3.10506">
        <ele>185</ele>
        <time>2025-12-29T12:12:49.875Z</time>
      </trkpt>
      <trkpt lat="43.15011" lon="3.10504">
        <ele>185</ele>
        <time>2025-12-29T12:12:50.875Z</time>
      </trkpt>
      <trkpt lat="43.1501" lon="3.10503">
        <ele>185</ele>
        <time>2025-12-29T12:12:51.875Z</time>
      </trkpt>
      <trkpt lat="43.15009" lon="3.10502">
        <ele>185</ele>
        <time>2025-12-29T12:12:52.875Z</time>
      </trkpt>
      <trkpt lat="43.15008" lon="3.105">
        <ele>185</ele>
        <time>2025-12-29T12:12:53.875Z</time>
      </trkpt>
      <trkpt lat="43.15007" lon="3.10499">
        <ele>185</ele>
        <time>2025-12-29T12:12:54.875Z</time>
      </trkpt>
      <trkpt lat="43.15006" lon="3.10498">
        <ele>185</ele>
        <time>2025-12-29T12:12:55.875Z</time>
      </trkpt>
      <trkpt lat="43.15006" lon="3.10498">
        <ele>184</ele>
        <time>2025-12-29T12:12:56.875Z</time>
      </trkpt>
      <trkpt lat="43.15005" lon="3.10496">
        <ele>184</ele>
        <time>2025-12-29T12:12:57.875Z</time>
      </trkpt>
      <trkpt lat="43.15004" lon="3.10495">
        <ele>184</ele>
        <time>2025-12-29T12:12:58.875Z</time>
      </trkpt>
      <trkpt lat="43.15003" lon="3.10495">
        <ele>183</ele>
        <time>2025-12-29T12:12:59.875Z</time>
      </trkpt>
      <trkpt lat="43.15002" lon="3.10494">
        <ele>183</ele>
        <time>2025-12-29T12:13:00.875Z</time>
      </trkpt>
      <trkpt lat="43.15001" lon="3.10493">
        <ele>183</ele>
        <time>2025-12-29T12:13:01.875Z</time>
      </trkpt>
      <trkpt lat="43.15" lon="3.10491">
        <ele>183</ele>
        <time>2025-12-29T12:13:02.875Z</time>
      </trkpt>
      <trkpt lat="43.14999" lon="3.1049">
        <ele>183</ele>
        <time>2025-12-29T12:13:03.875Z</time>
      </trkpt>
      <trkpt lat="43.14998" lon="3.10489">
        <ele>183</ele>
        <time>2025-12-29T12:13:04.875Z</time>
      </trkpt>
      <trkpt lat="43.14997" lon="3.10488">
        <ele>183</ele>
        <time>2025-12-29T12:13:05.875Z</time>
      </trkpt>
      <trkpt lat="43.14996" lon="3.10487">
        <ele>184</ele>
        <time>2025-12-29T12:13:06.875Z</time>
      </trkpt>
      <trkpt lat="43.14994" lon="3.10486">
        <ele>184</ele>
        <time>2025-12-29T12:13:07.875Z</time>
      </trkpt>
      <trkpt lat="43.14993" lon="3.10484">
        <ele>184</ele>
        <time>2025-12-29T12:13:08.875Z</time>
      </trkpt>
      <trkpt lat="43.14992" lon="3.10483">
        <ele>184</ele>
        <time>2025-12-29T12:13:09.875Z</time>
      </trkpt>
      <trkpt lat="43.14991" lon="3.10482">
        <ele>184</ele>
        <time>2025-12-29T12:13:10.875Z</time>
      </trkpt>
      <trkpt lat="43.14989" lon="3.1048">
        <ele>183</ele>
        <time>2025-12-29T12:13:11.875Z</time>
      </trkpt>
      <trkpt lat="43.14988" lon="3.10479">
        <ele>183</ele>
        <time>2025-12-29T12:13:12.875Z</time>
      </trkpt>
      <trkpt lat="43.14987" lon="3.10477">
        <ele>183</ele>
        <time>2025-12-29T12:13:13.875Z</time>
      </trkpt>
      <trkpt lat="43.14986" lon="3.10476">
        <ele>183</ele>
        <time>2025-12-29T12:13:14.875Z</time>
      </trkpt>
      <trkpt lat="43.14985" lon="3.10475">
        <ele>183</ele>
        <time>2025-12-29T12:13:15.875Z</time>
      </trkpt>
      <trkpt lat="43.14983" lon="3.10473">
        <ele>183</ele>
        <time>2025-12-29T12:13:16.875Z</time>
      </trkpt>
      <trkpt lat="43.14982" lon="3.10472">
        <ele>183</ele>
        <time>2025-12-29T12:13:17.875Z</time>
      </trkpt>
      <trkpt lat="43.14981" lon="3.10471">
        <ele>183</ele>
        <time>2025-12-29T12:13:18.875Z</time>
      </trkpt>
      <trkpt lat="43.1498" lon="3.1047">
        <ele>182</ele>
        <time>2025-12-29T12:13:19.875Z</time>
      </trkpt>
      <trkpt lat="43.14979" lon="3.10469">
        <ele>182</ele>
        <time>2025-12-29T12:13:20.875Z</time>
      </trkpt>
      <trkpt lat="43.14978" lon="3.10468">
        <ele>182</ele>
        <time>2025-12-29T12:13:21.875Z</time>
      </trkpt>
      <trkpt lat="43.14977" lon="3.10467">
        <ele>182</ele>
        <time>2025-12-29T12:13:22.875Z</time>
      </trkpt>
      <trkpt lat="43.14976" lon="3.10466">
        <ele>182</ele>
        <time>2025-12-29T12:13:23.875Z</time>
      </trkpt>
      <trkpt lat="43.14975" lon="3.10465">
        <ele>182</ele>
        <time>2025-12-29T12:13:24.875Z</time>
      </trkpt>
      <trkpt lat="43.14973" lon="3.10464">
        <ele>182</ele>
        <time>2025-12-29T12:13:25.875Z</time>
      </trkpt>
      <trkpt lat="43.14972" lon="3.10463">
        <ele>182</ele>
        <time>2025-12-29T12:13:26.875Z</time>
      </trkpt>
      <trkpt lat="43.14971" lon="3.10462">
        <ele>182</ele>
        <time>2025-12-29T12:13:27.875Z</time>
      </trkpt>
      <trkpt lat="43.1497" lon="3.10461">
        <ele>182</ele>
        <time>2025-12-29T12:13:28.875Z</time>
      </trkpt>
      <trkpt lat="43.14969" lon="3.1046">
        <ele>182</ele>
        <time>2025-12-29T12:13:29.875Z</time>
      </trkpt>
      <trkpt lat="43.14967" lon="3.10458">
        <ele>182</ele>
        <time>2025-12-29T12:13:30.875Z</time>
      </trkpt>
      <trkpt lat="43.14966" lon="3.10457">
        <ele>182</ele>
        <time>2025-12-29T12:13:31.875Z</time>
      </trkpt>
      <trkpt lat="43.14964" lon="3.10456">
        <ele>182</ele>
        <time>2025-12-29T12:13:32.875Z</time>
      </trkpt>
      <trkpt lat="43.14963" lon="3.10455">
        <ele>182</ele>
        <time>2025-12-29T12:13:33.875Z</time>
      </trkpt>
      <trkpt lat="43.14962" lon="3.10454">
        <ele>182</ele>
        <time>2025-12-29T12:13:34.875Z</time>
      </trkpt>
      <trkpt lat="43.1496" lon="3.10453">
        <ele>182</ele>
        <time>2025-12-29T12:13:35.875Z</time>
      </trkpt>
      <trkpt lat="43.14959" lon="3.10452">
        <ele>182</ele>
        <time>2025-12-29T12:13:36.875Z</time>
      </trkpt>
      <trkpt lat="43.14958" lon="3.1045">
        <ele>182</ele>
        <time>2025-12-29T12:13:37.875Z</time>
      </trkpt>
      <trkpt lat="43.14956" lon="3.10449">
        <ele>182</ele>
        <time>2025-12-29T12:13:38.875Z</time>
      </trkpt>
      <trkpt lat="43.14955" lon="3.10448">
        <ele>182</ele>
        <time>2025-12-29T12:13:39.875Z</time>
      </trkpt>
      <trkpt lat="43.14954" lon="3.10446">
        <ele>182</ele>
        <time>2025-12-29T12:13:40.875Z</time>
      </trkpt>
      <trkpt lat="43.14953" lon="3.10445">
        <ele>182</ele>
        <time>2025-12-29T12:13:41.875Z</time>
      </trkpt>
      <trkpt lat="43.14952" lon="3.10444">
        <ele>182</ele>
        <time>2025-12-29T12:13:42.875Z</time>
      </trkpt>
      <trkpt lat="43.14951" lon="3.10443">
        <ele>182</ele>
        <time>2025-12-29T12:13:43.875Z</time>
      </trkpt>
      <trkpt lat="43.14951" lon="3.10441">
        <ele>182</ele>
        <time>2025-12-29T12:13:44.875Z</time>
      </trkpt>
      <trkpt lat="43.1495" lon="3.1044">
        <ele>181</ele>
        <time>2025-12-29T12:13:45.875Z</time>
      </trkpt>
      <trkpt lat="43.14949" lon="3.10438">
        <ele>181</ele>
        <time>2025-12-29T12:13:46.875Z</time>
      </trkpt>
      <trkpt lat="43.14948" lon="3.10437">
        <ele>181</ele>
        <time>2025-12-29T12:13:47.875Z</time>
      </trkpt>
      <trkpt lat="43.14947" lon="3.10436">
        <ele>181</ele>
        <time>2025-12-29T12:13:48.875Z</time>
      </trkpt>
      <trkpt lat="43.14946" lon="3.10435">
        <ele>181</ele>
        <time>2025-12-29T12:13:49.875Z</time>
      </trkpt>
      <trkpt lat="43.14946" lon="3.10433">
        <ele>181</ele>
        <time>2025-12-29T12:13:50.875Z</time>
      </trkpt>
      <trkpt lat="43.14945" lon="3.10432">
        <ele>181</ele>
        <time>2025-12-29T12:13:51.875Z</time>
      </trkpt>
      <trkpt lat="43.14944" lon="3.10431">
        <ele>181</ele>
        <time>2025-12-29T12:13:52.875Z</time>
      </trkpt>
      <trkpt lat="43.14943" lon="3.10429">
        <ele>181</ele>
        <time>2025-12-29T12:13:53.875Z</time>
      </trkpt>
      <trkpt lat="43.14942" lon="3.10428">
        <ele>181</ele>
        <time>2025-12-29T12:13:54.875Z</time>
      </trkpt>
      <trkpt lat="43.14941" lon="3.10426">
        <ele>181</ele>
        <time>2025-12-29T12:13:55.875Z</time>
      </trkpt>
      <trkpt lat="43.1494" lon="3.10425">
        <ele>181</ele>
        <time>2025-12-29T12:13:56.875Z</time>
      </trkpt>
      <trkpt lat="43.14939" lon="3.10423">
        <ele>181</ele>
        <time>2025-12-29T12:13:57.875Z</time>
      </trkpt>
      <trkpt lat="43.14939" lon="3.10422">
        <ele>181</ele>
        <time>2025-12-29T12:13:58.875Z</time>
      </trkpt>
      <trkpt lat="43.14938" lon="3.1042">
        <ele>181</ele>
        <time>2025-12-29T12:13:59.875Z</time>
      </trkpt>
      <trkpt lat="43.14937" lon="3.10419">
        <ele>181</ele>
        <time>2025-12-29T12:14:00.875Z</time>
      </trkpt>
      <trkpt lat="43.14936" lon="3.10417">
        <ele>181</ele>
        <time>2025-12-29T12:14:01.875Z</time>
      </trkpt>
      <trkpt lat="43.14936" lon="3.10415">
        <ele>181</ele>
        <time>2025-12-29T12:14:02.875Z</time>
      </trkpt>
      <trkpt lat="43.14935" lon="3.10413">
        <ele>181</ele>
        <time>2025-12-29T12:14:03.875Z</time>
      </trkpt>
      <trkpt lat="43.14934" lon="3.10412">
        <ele>181</ele>
        <time>2025-12-29T12:14:04.875Z</time>
      </trkpt>
      <trkpt lat="43.14934" lon="3.1041">
        <ele>181</ele>
        <time>2025-12-29T12:14:05.875Z</time>
      </trkpt>
      <trkpt lat="43.14933" lon="3.10408">
        <ele>181</ele>
        <time>2025-12-29T12:14:06.875Z</time>
      </trkpt>
      <trkpt lat="43.14933" lon="3.10406">
        <ele>181</ele>
        <time>2025-12-29T12:14:07.875Z</time>
      </trkpt>
      <trkpt lat="43.14933" lon="3.10404">
        <ele>181</ele>
        <time>2025-12-29T12:14:08.875Z</time>
      </trkpt>
      <trkpt lat="43.14933" lon="3.10402">
        <ele>180</ele>
        <time>2025-12-29T12:14:09.875Z</time>
      </trkpt>
      <trkpt lat="43.14933" lon="3.104">
        <ele>180</ele>
        <time>2025-12-29T12:14:10.875Z</time>
      </trkpt>
      <trkpt lat="43.14933" lon="3.10399">
        <ele>180</ele>
        <time>2025-12-29T12:14:11.875Z</time>
      </trkpt>
      <trkpt lat="43.14932" lon="3.10397">
        <ele>180</ele>
        <time>2025-12-29T12:14:12.875Z</time>
      </trkpt>
      <trkpt lat="43.14932" lon="3.10396">
        <ele>180</ele>
        <time>2025-12-29T12:14:13.875Z</time>
      </trkpt>
      <trkpt lat="43.14932" lon="3.10395">
        <ele>180</ele>
        <time>2025-12-29T12:14:14.875Z</time>
      </trkpt>
      <trkpt lat="43.14932" lon="3.10394">
        <ele>180</ele>
        <time>2025-12-29T12:14:15.875Z</time>
      </trkpt>
      <trkpt lat="43.14932" lon="3.10393">
        <ele>180</ele>
        <time>2025-12-29T12:14:16.875Z</time>
      </trkpt>
      <trkpt lat="43.14931" lon="3.10392">
        <ele>180</ele>
        <time>2025-12-29T12:14:17.875Z</time>
      </trkpt>
      <trkpt lat="43.14931" lon="3.1039">
        <ele>180</ele>
        <time>2025-12-29T12:14:18.875Z</time>
      </trkpt>
      <trkpt lat="43.14931" lon="3.10389">
        <ele>180</ele>
        <time>2025-12-29T12:14:19.875Z</time>
      </trkpt>
      <trkpt lat="43.1493" lon="3.10388">
        <ele>180</ele>
        <time>2025-12-29T12:14:20.875Z</time>
      </trkpt>
      <trkpt lat="43.1493" lon="3.10386">
        <ele>180</ele>
        <time>2025-12-29T12:14:21.875Z</time>
      </trkpt>
      <trkpt lat="43.1493" lon="3.10384">
        <ele>180</ele>
        <time>2025-12-29T12:14:22.875Z</time>
      </trkpt>
      <trkpt lat="43.1493" lon="3.10383">
        <ele>180</ele>
        <time>2025-12-29T12:14:23.875Z</time>
      </trkpt>
      <trkpt lat="43.1493" lon="3.10382">
        <ele>180</ele>
        <time>2025-12-29T12:14:24.875Z</time>
      </trkpt>
      <trkpt lat="43.1493" lon="3.10381">
        <ele>180</ele>
        <time>2025-12-29T12:14:25.875Z</time>
      </trkpt>
      <trkpt lat="43.1493" lon="3.10381">
        <ele>180</ele>
        <time>2025-12-29T12:14:26.875Z</time>
      </trkpt>
      <trkpt lat="43.14929" lon="3.1038">
        <ele>180</ele>
        <time>2025-12-29T12:14:27.875Z</time>
      </trkpt>
      <trkpt lat="43.14929" lon="3.1038">
        <ele>180</ele>
        <time>2025-12-29T12:14:28.875Z</time>
      </trkpt>
      <trkpt lat="43.14929" lon="3.1038">
        <ele>180</ele>
        <time>2025-12-29T12:14:29.875Z</time>
      </trkpt>
      <trkpt lat="43.14929" lon="3.1038">
        <ele>180</ele>
        <time>2025-12-29T12:14:30.875Z</time>
      </trkpt>
      <trkpt lat="43.14929" lon="3.1038">
        <ele>180</ele>
        <time>2025-12-29T12:14:31.875Z</time>
      </trkpt>
      <trkpt lat="43.14929" lon="3.1038">
        <ele>180</ele>
        <time>2025-12-29T12:14:32.875Z</time>
      </trkpt>
      <trkpt lat="43.1493" lon="3.1038">
        <ele>180</ele>
        <time>2025-12-29T12:14:33.875Z</time>
      </trkpt>
      <trkpt lat="43.1493" lon="3.1038">
        <ele>180</ele>
        <time>2025-12-29T12:14:34.875Z</time>
      </trkpt>
      <trkpt lat="43.1493" lon="3.1038">
        <ele>180</ele>
        <time>2025-12-29T12:14:35.875Z</time>
      </trkpt>
      <trkpt lat="43.1493" lon="3.1038">
        <ele>180</ele>
        <time>2025-12-29T12:14:36.875Z</time>
      </trkpt>
      <trkpt lat="43.14929" lon="3.1038">
        <ele>179</ele>
        <time>2025-12-29T12:14:37.875Z</time>
      </trkpt>
      <trkpt lat="43.1493" lon="3.1038">
        <ele>179</ele>
        <time>2025-12-29T12:14:38.875Z</time>
      </trkpt>
      <trkpt lat="43.1493" lon="3.1038">
        <ele>179</ele>
        <time>2025-12-29T12:14:39.875Z</time>
      </trkpt>
      <trkpt lat="43.1493" lon="3.1038">
        <ele>179</ele>
        <time>2025-12-29T12:14:40.875Z</time>
      </trkpt>
      <trkpt lat="43.1493" lon="3.1038">
        <ele>179</ele>
        <time>2025-12-29T12:14:41.875Z</time>
      </trkpt>
      <trkpt lat="43.1493" lon="3.1038">
        <ele>179</ele>
        <time>2025-12-29T12:14:42.875Z</time>
      </trkpt>
      <trkpt lat="43.1493" lon="3.1038">
        <ele>179</ele>
        <time>2025-12-29T12:14:43.875Z</time>
      </trkpt>
      <trkpt lat="43.1493" lon="3.1038">
        <ele>179</ele>
        <time>2025-12-29T12:14:44.875Z</time>
      </trkpt>
      <trkpt lat="43.1493" lon="3.1038">
        <ele>179</ele>
        <time>2025-12-29T12:14:45.875Z</time>
      </trkpt>
      <trkpt lat="43.1493" lon="3.1038">
        <ele>179</ele>
        <time>2025-12-29T12:14:46.875Z</time>
      </trkpt>
      <trkpt lat="43.1493" lon="3.1038">
        <ele>179</ele>
        <time>2025-12-29T12:14:47.875Z</time>
      </trkpt>
      <trkpt lat="43.1493" lon="3.1038">
        <ele>179</ele>
        <time>2025-12-29T12:14:48.875Z</time>
      </trkpt>
      <trkpt lat="43.1493" lon="3.1038">
        <ele>179</ele>
        <time>2025-12-29T12:14:49.875Z</time>
      </trkpt>
      <trkpt lat="43.1493" lon="3.1038">
        <ele>179</ele>
        <time>2025-12-29T12:14:50.875Z</time>
      </trkpt>
      <trkpt lat="43.1493" lon="3.1038">
        <ele>179</ele>
        <time>2025-12-29T12:14:51.875Z</time>
      </trkpt>
      <trkpt lat="43.1493" lon="3.1038">
        <ele>179</ele>
        <time>2025-12-29T12:14:52.875Z</time>
      </trkpt>
      <trkpt lat="43.1493" lon="3.1038">
        <ele>179</ele>
        <time>2025-12-29T12:14:53.875Z</time>
      </trkpt>
      <trkpt lat="43.1493" lon="3.1038">
        <ele>179</ele>
        <time>2025-12-29T12:14:54.875Z</time>
      </trkpt>
      <trkpt lat="43.1493" lon="3.1038">
        <ele>179</ele>
        <time>2025-12-29T12:14:55.875Z</time>
      </trkpt>
      <trkpt lat="43.1493" lon="3.1038">
        <ele>179</ele>
        <time>2025-12-29T12:14:56.875Z</time>
      </trkpt>
      <trkpt lat="43.1493" lon="3.1038">
        <ele>179</ele>
        <time>2025-12-29T12:14:57.875Z</time>
      </trkpt>
      <trkpt lat="43.1493" lon="3.1038">
        <ele>179</ele>
        <time>2025-12-29T12:14:58.876Z</time>
      </trkpt>
      <trkpt lat="43.1493" lon="3.1038">
        <ele>179</ele>
        <time>2025-12-29T12:14:59.875Z</time>
      </trkpt>
      <trkpt lat="43.1493" lon="3.1038">
        <ele>179</ele>
        <time>2025-12-29T12:15:00.875Z</time>
      </trkpt>
      <trkpt lat="43.1493" lon="3.1038">
        <ele>179</ele>
        <time>2025-12-29T12:15:01.875Z</time>
      </trkpt>
      <trkpt lat="43.1493" lon="3.1038">
        <ele>179</ele>
        <time>2025-12-29T12:15:02.875Z</time>
      </trkpt>
      <trkpt lat="43.1493" lon="3.1038">
        <ele>179</ele>
        <time>2025-12-29T12:15:03.875Z</time>
      </trkpt>
      <trkpt lat="43.1493" lon="3.1038">
        <ele>179</ele>
        <time>2025-12-29T12:15:04.875Z</time>
      </trkpt>
      <trkpt lat="43.1493" lon="3.1038">
        <ele>179</ele>
        <time>2025-12-29T12:15:05.875Z</time>
      </trkpt>
      <trkpt lat="43.1493" lon="3.10379">
        <ele>179</ele>
        <time>2025-12-29T12:15:06.875Z</time>
      </trkpt>
      <trkpt lat="43.1493" lon="3.10379">
        <ele>179</ele>
        <time>2025-12-29T12:15:07.875Z</time>
      </trkpt>
      <trkpt lat="43.1493" lon="3.10378">
        <ele>179</ele>
        <time>2025-12-29T12:15:08.875Z</time>
      </trkpt>
      <trkpt lat="43.14931" lon="3.10377">
        <ele>179</ele>
        <time>2025-12-29T12:15:09.875Z</time>
      </trkpt>
      <trkpt lat="43.14931" lon="3.10376">
        <ele>179</ele>
        <time>2025-12-29T12:15:10.875Z</time>
      </trkpt>
      <trkpt lat="43.14932" lon="3.10375">
        <ele>179</ele>
        <time>2025-12-29T12:15:11.875Z</time>
      </trkpt>
      <trkpt lat="43.14932" lon="3.10373">
        <ele>179</ele>
        <time>2025-12-29T12:15:12.875Z</time>
      </trkpt>
      <trkpt lat="43.14933" lon="3.10372">
        <ele>179</ele>
        <time>2025-12-29T12:15:13.875Z</time>
      </trkpt>
      <trkpt lat="43.14934" lon="3.1037">
        <ele>180</ele>
        <time>2025-12-29T12:15:14.875Z</time>
      </trkpt>
      <trkpt lat="43.14934" lon="3.10369">
        <ele>180</ele>
        <time>2025-12-29T12:15:15.875Z</time>
      </trkpt>
      <trkpt lat="43.14935" lon="3.10367">
        <ele>180</ele>
        <time>2025-12-29T12:15:16.875Z</time>
      </trkpt>
      <trkpt lat="43.14935" lon="3.10366">
        <ele>180</ele>
        <time>2025-12-29T12:15:17.875Z</time>
      </trkpt>
      <trkpt lat="43.14936" lon="3.10365">
        <ele>181</ele>
        <time>2025-12-29T12:15:18.875Z</time>
      </trkpt>
      <trkpt lat="43.14937" lon="3.10363">
        <ele>181</ele>
        <time>2025-12-29T12:15:19.875Z</time>
      </trkpt>
      <trkpt lat="43.14938" lon="3.10362">
        <ele>181</ele>
        <time>2025-12-29T12:15:20.875Z</time>
      </trkpt>
      <trkpt lat="43.14939" lon="3.10361">
        <ele>181</ele>
        <time>2025-12-29T12:15:21.875Z</time>
      </trkpt>
      <trkpt lat="43.1494" lon="3.1036">
        <ele>181</ele>
        <time>2025-12-29T12:15:22.875Z</time>
      </trkpt>
      <trkpt lat="43.14941" lon="3.10359">
        <ele>181</ele>
        <time>2025-12-29T12:15:23.875Z</time>
      </trkpt>
      <trkpt lat="43.14942" lon="3.10358">
        <ele>181</ele>
        <time>2025-12-29T12:15:24.875Z</time>
      </trkpt>
      <trkpt lat="43.14943" lon="3.10358">
        <ele>181</ele>
        <time>2025-12-29T12:15:25.875Z</time>
      </trkpt>
      <trkpt lat="43.14944" lon="3.10357">
        <ele>182</ele>
        <time>2025-12-29T12:15:26.875Z</time>
      </trkpt>
      <trkpt lat="43.14946" lon="3.10356">
        <ele>182</ele>
        <time>2025-12-29T12:15:27.875Z</time>
      </trkpt>
      <trkpt lat="43.14947" lon="3.10356">
        <ele>182</ele>
        <time>2025-12-29T12:15:28.875Z</time>
      </trkpt>
      <trkpt lat="43.14949" lon="3.10355">
        <ele>183</ele>
        <time>2025-12-29T12:15:29.875Z</time>
      </trkpt>
      <trkpt lat="43.1495" lon="3.10355">
        <ele>183</ele>
        <time>2025-12-29T12:15:30.875Z</time>
      </trkpt>
      <trkpt lat="43.14952" lon="3.10355">
        <ele>183</ele>
        <time>2025-12-29T12:15:31.875Z</time>
      </trkpt>
      <trkpt lat="43.14953" lon="3.10355">
        <ele>183</ele>
        <time>2025-12-29T12:15:32.875Z</time>
      </trkpt>
      <trkpt lat="43.14954" lon="3.10355">
        <ele>183</ele>
        <time>2025-12-29T12:15:33.875Z</time>
      </trkpt>
      <trkpt lat="43.14955" lon="3.10355">
        <ele>182</ele>
        <time>2025-12-29T12:15:34.875Z</time>
      </trkpt>
      <trkpt lat="43.14956" lon="3.10356">
        <ele>182</ele>
        <time>2025-12-29T12:15:35.875Z</time>
      </trkpt>
      <trkpt lat="43.14958" lon="3.10356">
        <ele>182</ele>
        <time>2025-12-29T12:15:36.875Z</time>
      </trkpt>
      <trkpt lat="43.14959" lon="3.10356">
        <ele>182</ele>
        <time>2025-12-29T12:15:37.875Z</time>
      </trkpt>
      <trkpt lat="43.1496" lon="3.10357">
        <ele>182</ele>
        <time>2025-12-29T12:15:38.875Z</time>
      </trkpt>
      <trkpt lat="43.14961" lon="3.10357">
        <ele>182</ele>
        <time>2025-12-29T12:15:39.875Z</time>
      </trkpt>
      <trkpt lat="43.14963" lon="3.10357">
        <ele>181</ele>
        <time>2025-12-29T12:15:40.875Z</time>
      </trkpt>
      <trkpt lat="43.14964" lon="3.10358">
        <ele>181</ele>
        <time>2025-12-29T12:15:41.875Z</time>
      </trkpt>
      <trkpt lat="43.14965" lon="3.10359">
        <ele>181</ele>
        <time>2025-12-29T12:15:42.875Z</time>
      </trkpt>
      <trkpt lat="43.14966" lon="3.1036">
        <ele>181</ele>
        <time>2025-12-29T12:15:43.875Z</time>
      </trkpt>
      <trkpt lat="43.14968" lon="3.10361">
        <ele>181</ele>
        <time>2025-12-29T12:15:44.875Z</time>
      </trkpt>
      <trkpt lat="43.14969" lon="3.10362">
        <ele>181</ele>
        <time>2025-12-29T12:15:45.875Z</time>
      </trkpt>
      <trkpt lat="43.1497" lon="3.10362">
        <ele>181</ele>
        <time>2025-12-29T12:15:46.875Z</time>
      </trkpt>
      <trkpt lat="43.14971" lon="3.10363">
        <ele>181</ele>
        <time>2025-12-29T12:15:47.875Z</time>
      </trkpt>
      <trkpt lat="43.14972" lon="3.10363">
        <ele>181</ele>
        <time>2025-12-29T12:15:48.875Z</time>
      </trkpt>
      <trkpt lat="43.14973" lon="3.10364">
        <ele>181</ele>
        <time>2025-12-29T12:15:49.875Z</time>
      </trkpt>
      <trkpt lat="43.14974" lon="3.10365">
        <ele>181</ele>
        <time>2025-12-29T12:15:50.875Z</time>
      </trkpt>
      <trkpt lat="43.14975" lon="3.10365">
        <ele>181</ele>
        <time>2025-12-29T12:15:51.875Z</time>
      </trkpt>
      <trkpt lat="43.14977" lon="3.10366">
        <ele>181</ele>
        <time>2025-12-29T12:15:52.875Z</time>
      </trkpt>
      <trkpt lat="43.14978" lon="3.10367">
        <ele>181</ele>
        <time>2025-12-29T12:15:53.875Z</time>
      </trkpt>
      <trkpt lat="43.14979" lon="3.10368">
        <ele>181</ele>
        <time>2025-12-29T12:15:54.875Z</time>
      </trkpt>
      <trkpt lat="43.1498" lon="3.10368">
        <ele>181</ele>
        <time>2025-12-29T12:15:55.875Z</time>
      </trkpt>
      <trkpt lat="43.14981" lon="3.10369">
        <ele>181</ele>
        <time>2025-12-29T12:15:56.875Z</time>
      </trkpt>
      <trkpt lat="43.14982" lon="3.1037">
        <ele>181</ele>
        <time>2025-12-29T12:15:57.875Z</time>
      </trkpt>
      <trkpt lat="43.14983" lon="3.1037">
        <ele>181</ele>
        <time>2025-12-29T12:15:58.875Z</time>
      </trkpt>
      <trkpt lat="43.14984" lon="3.10371">
        <ele>181</ele>
        <time>2025-12-29T12:15:59.875Z</time>
      </trkpt>
      <trkpt lat="43.14985" lon="3.10372">
        <ele>181</ele>
        <time>2025-12-29T12:16:00.875Z</time>
      </trkpt>
      <trkpt lat="43.14987" lon="3.10373">
        <ele>182</ele>
        <time>2025-12-29T12:16:01.875Z</time>
      </trkpt>
      <trkpt lat="43.14988" lon="3.10374">
        <ele>182</ele>
        <time>2025-12-29T12:16:02.875Z</time>
      </trkpt>
      <trkpt lat="43.14989" lon="3.10375">
        <ele>182</ele>
        <time>2025-12-29T12:16:03.875Z</time>
      </trkpt>
      <trkpt lat="43.14991" lon="3.10376">
        <ele>182</ele>
        <time>2025-12-29T12:16:04.875Z</time>
      </trkpt>
      <trkpt lat="43.14992" lon="3.10377">
        <ele>182</ele>
        <time>2025-12-29T12:16:05.875Z</time>
      </trkpt>
      <trkpt lat="43.14994" lon="3.10378">
        <ele>183</ele>
        <time>2025-12-29T12:16:06.875Z</time>
      </trkpt>
      <trkpt lat="43.14995" lon="3.10379">
        <ele>183</ele>
        <time>2025-12-29T12:16:07.875Z</time>
      </trkpt>
      <trkpt lat="43.14996" lon="3.10379">
        <ele>183</ele>
        <time>2025-12-29T12:16:08.875Z</time>
      </trkpt>
      <trkpt lat="43.14997" lon="3.1038">
        <ele>183</ele>
        <time>2025-12-29T12:16:09.875Z</time>
      </trkpt>
      <trkpt lat="43.14998" lon="3.10381">
        <ele>183</ele>
        <time>2025-12-29T12:16:10.875Z</time>
      </trkpt>
      <trkpt lat="43.14999" lon="3.10382">
        <ele>183</ele>
        <time>2025-12-29T12:16:11.875Z</time>
      </trkpt>
      <trkpt lat="43.15" lon="3.10383">
        <ele>183</ele>
        <time>2025-12-29T12:16:12.875Z</time>
      </trkpt>
      <trkpt lat="43.15001" lon="3.10383">
        <ele>183</ele>
        <time>2025-12-29T12:16:13.875Z</time>
      </trkpt>
      <trkpt lat="43.15002" lon="3.10384">
        <ele>183</ele>
        <time>2025-12-29T12:16:14.875Z</time>
      </trkpt>
      <trkpt lat="43.15003" lon="3.10384">
        <ele>183</ele>
        <time>2025-12-29T12:16:15.875Z</time>
      </trkpt>
      <trkpt lat="43.15005" lon="3.10385">
        <ele>183</ele>
        <time>2025-12-29T12:16:16.875Z</time>
      </trkpt>
      <trkpt lat="43.15006" lon="3.10385">
        <ele>183</ele>
        <time>2025-12-29T12:16:17.875Z</time>
      </trkpt>
      <trkpt lat="43.15007" lon="3.10386">
        <ele>183</ele>
        <time>2025-12-29T12:16:18.875Z</time>
      </trkpt>
      <trkpt lat="43.15008" lon="3.10386">
        <ele>183</ele>
        <time>2025-12-29T12:16:19.875Z</time>
      </trkpt>
      <trkpt lat="43.1501" lon="3.10387">
        <ele>183</ele>
        <time>2025-12-29T12:16:20.875Z</time>
      </trkpt>
      <trkpt lat="43.15011" lon="3.10387">
        <ele>183</ele>
        <time>2025-12-29T12:16:21.875Z</time>
      </trkpt>
      <trkpt lat="43.15012" lon="3.10388">
        <ele>183</ele>
        <time>2025-12-29T12:16:22.875Z</time>
      </trkpt>
      <trkpt lat="43.15013" lon="3.10389">
        <ele>183</ele>
        <time>2025-12-29T12:16:23.875Z</time>
      </trkpt>
      <trkpt lat="43.15014" lon="3.1039">
        <ele>184</ele>
        <time>2025-12-29T12:16:24.875Z</time>
      </trkpt>
      <trkpt lat="43.15016" lon="3.1039">
        <ele>184</ele>
        <time>2025-12-29T12:16:25.875Z</time>
      </trkpt>
      <trkpt lat="43.15017" lon="3.1039">
        <ele>184</ele>
        <time>2025-12-29T12:16:26.875Z</time>
      </trkpt>
      <trkpt lat="43.15018" lon="3.10391">
        <ele>184</ele>
        <time>2025-12-29T12:16:27.875Z</time>
      </trkpt>
      <trkpt lat="43.15019" lon="3.10391">
        <ele>184</ele>
        <time>2025-12-29T12:16:28.875Z</time>
      </trkpt>
      <trkpt lat="43.1502" lon="3.10392">
        <ele>184</ele>
        <time>2025-12-29T12:16:29.875Z</time>
      </trkpt>
      <trkpt lat="43.15021" lon="3.10392">
        <ele>184</ele>
        <time>2025-12-29T12:16:30.875Z</time>
      </trkpt>
      <trkpt lat="43.15023" lon="3.10393">
        <ele>184</ele>
        <time>2025-12-29T12:16:31.875Z</time>
      </trkpt>
      <trkpt lat="43.15024" lon="3.10393">
        <ele>184</ele>
        <time>2025-12-29T12:16:32.875Z</time>
      </trkpt>
      <trkpt lat="43.15025" lon="3.10394">
        <ele>184</ele>
        <time>2025-12-29T12:16:33.875Z</time>
      </trkpt>
      <trkpt lat="43.15027" lon="3.10394">
        <ele>184</ele>
        <time>2025-12-29T12:16:34.875Z</time>
      </trkpt>
      <trkpt lat="43.15028" lon="3.10394">
        <ele>184</ele>
        <time>2025-12-29T12:16:35.875Z</time>
      </trkpt>
      <trkpt lat="43.1503" lon="3.10394">
        <ele>185</ele>
        <time>2025-12-29T12:16:36.875Z</time>
      </trkpt>
      <trkpt lat="43.15031" lon="3.10394">
        <ele>185</ele>
        <time>2025-12-29T12:16:37.875Z</time>
      </trkpt>
      <trkpt lat="43.15032" lon="3.10395">
        <ele>185</ele>
        <time>2025-12-29T12:16:38.875Z</time>
      </trkpt>
      <trkpt lat="43.15034" lon="3.10396">
        <ele>185</ele>
        <time>2025-12-29T12:16:39.875Z</time>
      </trkpt>
      <trkpt lat="43.15035" lon="3.10396">
        <ele>185</ele>
        <time>2025-12-29T12:16:40.875Z</time>
      </trkpt>
      <trkpt lat="43.15037" lon="3.10397">
        <ele>185</ele>
        <time>2025-12-29T12:16:41.875Z</time>
      </trkpt>
      <trkpt lat="43.15038" lon="3.10397">
        <ele>185</ele>
        <time>2025-12-29T12:16:42.875Z</time>
      </trkpt>
      <trkpt lat="43.15039" lon="3.10398">
        <ele>185</ele>
        <time>2025-12-29T12:16:43.875Z</time>
      </trkpt>
      <trkpt lat="43.15041" lon="3.10398">
        <ele>185</ele>
        <time>2025-12-29T12:16:44.875Z</time>
      </trkpt>
      <trkpt lat="43.15042" lon="3.10398">
        <ele>186</ele>
        <time>2025-12-29T12:16:45.875Z</time>
      </trkpt>
      <trkpt lat="43.15043" lon="3.10398">
        <ele>186</ele>
        <time>2025-12-29T12:16:46.875Z</time>
      </trkpt>
      <trkpt lat="43.15045" lon="3.10399">
        <ele>186</ele>
        <time>2025-12-29T12:16:47.875Z</time>
      </trkpt>
      <trkpt lat="43.15046" lon="3.10399">
        <ele>186</ele>
        <time>2025-12-29T12:16:48.875Z</time>
      </trkpt>
      <trkpt lat="43.15048" lon="3.10399">
        <ele>186</ele>
        <time>2025-12-29T12:16:49.875Z</time>
      </trkpt>
      <trkpt lat="43.15049" lon="3.10399">
        <ele>185</ele>
        <time>2025-12-29T12:16:50.875Z</time>
      </trkpt>
      <trkpt lat="43.15051" lon="3.10399">
        <ele>185</ele>
        <time>2025-12-29T12:16:51.875Z</time>
      </trkpt>
      <trkpt lat="43.15052" lon="3.10399">
        <ele>185</ele>
        <time>2025-12-29T12:16:52.875Z</time>
      </trkpt>
      <trkpt lat="43.15054" lon="3.10399">
        <ele>185</ele>
        <time>2025-12-29T12:16:53.875Z</time>
      </trkpt>
      <trkpt lat="43.15055" lon="3.10399">
        <ele>185</ele>
        <time>2025-12-29T12:16:54.875Z</time>
      </trkpt>
      <trkpt lat="43.15057" lon="3.10399">
        <ele>185</ele>
        <time>2025-12-29T12:16:55.875Z</time>
      </trkpt>
      <trkpt lat="43.15058" lon="3.10399">
        <ele>185</ele>
        <time>2025-12-29T12:16:56.875Z</time>
      </trkpt>
      <trkpt lat="43.1506" lon="3.10399">
        <ele>185</ele>
        <time>2025-12-29T12:16:57.875Z</time>
      </trkpt>
      <trkpt lat="43.15061" lon="3.10399">
        <ele>185</ele>
        <time>2025-12-29T12:16:58.875Z</time>
      </trkpt>
      <trkpt lat="43.15062" lon="3.10398">
        <ele>185</ele>
        <time>2025-12-29T12:16:59.875Z</time>
      </trkpt>
      <trkpt lat="43.15064" lon="3.10398">
        <ele>185</ele>
        <time>2025-12-29T12:17:00.875Z</time>
      </trkpt>
      <trkpt lat="43.15065" lon="3.10397">
        <ele>185</ele>
        <time>2025-12-29T12:17:01.875Z</time>
      </trkpt>
      <trkpt lat="43.15066" lon="3.10396">
        <ele>185</ele>
        <time>2025-12-29T12:17:02.875Z</time>
      </trkpt>
      <trkpt lat="43.15067" lon="3.10396">
        <ele>186</ele>
        <time>2025-12-29T12:17:03.875Z</time>
      </trkpt>
      <trkpt lat="43.15069" lon="3.10395">
        <ele>186</ele>
        <time>2025-12-29T12:17:04.875Z</time>
      </trkpt>
      <trkpt lat="43.1507" lon="3.10395">
        <ele>187</ele>
        <time>2025-12-29T12:17:05.875Z</time>
      </trkpt>
      <trkpt lat="43.15071" lon="3.10395">
        <ele>187</ele>
        <time>2025-12-29T12:17:06.875Z</time>
      </trkpt>
      <trkpt lat="43.15072" lon="3.10394">
        <ele>187</ele>
        <time>2025-12-29T12:17:07.875Z</time>
      </trkpt>
      <trkpt lat="43.15074" lon="3.10393">
        <ele>187</ele>
        <time>2025-12-29T12:17:08.875Z</time>
      </trkpt>
      <trkpt lat="43.15075" lon="3.10393">
        <ele>188</ele>
        <time>2025-12-29T12:17:09.875Z</time>
      </trkpt>
      <trkpt lat="43.15076" lon="3.10392">
        <ele>188</ele>
        <time>2025-12-29T12:17:10.875Z</time>
      </trkpt>
      <trkpt lat="43.15077" lon="3.10391">
        <ele>188</ele>
        <time>2025-12-29T12:17:11.875Z</time>
      </trkpt>
      <trkpt lat="43.15079" lon="3.10391">
        <ele>188</ele>
        <time>2025-12-29T12:17:12.875Z</time>
      </trkpt>
      <trkpt lat="43.15081" lon="3.1039">
        <ele>188</ele>
        <time>2025-12-29T12:17:13.875Z</time>
      </trkpt>
      <trkpt lat="43.15082" lon="3.1039">
        <ele>188</ele>
        <time>2025-12-29T12:17:14.875Z</time>
      </trkpt>
      <trkpt lat="43.15083" lon="3.10389">
        <ele>188</ele>
        <time>2025-12-29T12:17:15.875Z</time>
      </trkpt>
      <trkpt lat="43.15084" lon="3.10388">
        <ele>188</ele>
        <time>2025-12-29T12:17:16.875Z</time>
      </trkpt>
      <trkpt lat="43.15085" lon="3.10388">
        <ele>188</ele>
        <time>2025-12-29T12:17:17.875Z</time>
      </trkpt>
      <trkpt lat="43.15086" lon="3.10387">
        <ele>188</ele>
        <time>2025-12-29T12:17:18.875Z</time>
      </trkpt>
      <trkpt lat="43.15087" lon="3.10386">
        <ele>188</ele>
        <time>2025-12-29T12:17:19.875Z</time>
      </trkpt>
      <trkpt lat="43.15089" lon="3.10385">
        <ele>188</ele>
        <time>2025-12-29T12:17:20.875Z</time>
      </trkpt>
      <trkpt lat="43.1509" lon="3.10385">
        <ele>188</ele>
        <time>2025-12-29T12:17:21.875Z</time>
      </trkpt>
      <trkpt lat="43.15091" lon="3.10384">
        <ele>188</ele>
        <time>2025-12-29T12:17:22.875Z</time>
      </trkpt>
      <trkpt lat="43.15092" lon="3.10383">
        <ele>189</ele>
        <time>2025-12-29T12:17:23.875Z</time>
      </trkpt>
      <trkpt lat="43.15093" lon="3.10383">
        <ele>189</ele>
        <time>2025-12-29T12:17:24.875Z</time>
      </trkpt>
      <trkpt lat="43.15094" lon="3.10382">
        <ele>189</ele>
        <time>2025-12-29T12:17:25.875Z</time>
      </trkpt>
      <trkpt lat="43.15094" lon="3.10381">
        <ele>189</ele>
        <time>2025-12-29T12:17:26.875Z</time>
      </trkpt>
      <trkpt lat="43.15095" lon="3.10381">
        <ele>189</ele>
        <time>2025-12-29T12:17:27.875Z</time>
      </trkpt>
      <trkpt lat="43.15096" lon="3.1038">
        <ele>189</ele>
        <time>2025-12-29T12:17:28.875Z</time>
      </trkpt>
      <trkpt lat="43.15098" lon="3.10379">
        <ele>189</ele>
        <time>2025-12-29T12:17:29.875Z</time>
      </trkpt>
      <trkpt lat="43.15099" lon="3.10378">
        <ele>189</ele>
        <time>2025-12-29T12:17:30.875Z</time>
      </trkpt>
      <trkpt lat="43.151" lon="3.10377">
        <ele>189</ele>
        <time>2025-12-29T12:17:31.875Z</time>
      </trkpt>
      <trkpt lat="43.15102" lon="3.10376">
        <ele>189</ele>
        <time>2025-12-29T12:17:32.875Z</time>
      </trkpt>
      <trkpt lat="43.15103" lon="3.10376">
        <ele>190</ele>
        <time>2025-12-29T12:17:33.875Z</time>
      </trkpt>
      <trkpt lat="43.15104" lon="3.10375">
        <ele>190</ele>
        <time>2025-12-29T12:17:34.875Z</time>
      </trkpt>
      <trkpt lat="43.15106" lon="3.10374">
        <ele>190</ele>
        <time>2025-12-29T12:17:35.875Z</time>
      </trkpt>
      <trkpt lat="43.15107" lon="3.10374">
        <ele>190</ele>
        <time>2025-12-29T12:17:36.875Z</time>
      </trkpt>
      <trkpt lat="43.15109" lon="3.10373">
        <ele>190</ele>
        <time>2025-12-29T12:17:37.875Z</time>
      </trkpt>
      <trkpt lat="43.1511" lon="3.10373">
        <ele>191</ele>
        <time>2025-12-29T12:17:38.875Z</time>
      </trkpt>
      <trkpt lat="43.15112" lon="3.10372">
        <ele>191</ele>
        <time>2025-12-29T12:17:39.875Z</time>
      </trkpt>
      <trkpt lat="43.15113" lon="3.10372">
        <ele>191</ele>
        <time>2025-12-29T12:17:40.875Z</time>
      </trkpt>
      <trkpt lat="43.15115" lon="3.10372">
        <ele>191</ele>
        <time>2025-12-29T12:17:41.875Z</time>
      </trkpt>
      <trkpt lat="43.15116" lon="3.10371">
        <ele>191</ele>
        <time>2025-12-29T12:17:42.875Z</time>
      </trkpt>
      <trkpt lat="43.15117" lon="3.10371">
        <ele>190</ele>
        <time>2025-12-29T12:17:43.875Z</time>
      </trkpt>
      <trkpt lat="43.15119" lon="3.10371">
        <ele>190</ele>
        <time>2025-12-29T12:17:44.875Z</time>
      </trkpt>
      <trkpt lat="43.15121" lon="3.10371">
        <ele>190</ele>
        <time>2025-12-29T12:17:45.875Z</time>
      </trkpt>
      <trkpt lat="43.15122" lon="3.1037">
        <ele>190</ele>
        <time>2025-12-29T12:17:46.875Z</time>
      </trkpt>
      <trkpt lat="43.15123" lon="3.1037">
        <ele>190</ele>
        <time>2025-12-29T12:17:47.875Z</time>
      </trkpt>
      <trkpt lat="43.15125" lon="3.1037">
        <ele>190</ele>
        <time>2025-12-29T12:17:48.875Z</time>
      </trkpt>
      <trkpt lat="43.15126" lon="3.1037">
        <ele>190</ele>
        <time>2025-12-29T12:17:49.875Z</time>
      </trkpt>
      <trkpt lat="43.15127" lon="3.1037">
        <ele>190</ele>
        <time>2025-12-29T12:17:50.875Z</time>
      </trkpt>
      <trkpt lat="43.15129" lon="3.10369">
        <ele>190</ele>
        <time>2025-12-29T12:17:51.875Z</time>
      </trkpt>
      <trkpt lat="43.1513" lon="3.10369">
        <ele>189</ele>
        <time>2025-12-29T12:17:52.875Z</time>
      </trkpt>
      <trkpt lat="43.15132" lon="3.10369">
        <ele>189</ele>
        <time>2025-12-29T12:17:53.875Z</time>
      </trkpt>
      <trkpt lat="43.15133" lon="3.10368">
        <ele>189</ele>
        <time>2025-12-29T12:17:54.875Z</time>
      </trkpt>
      <trkpt lat="43.15135" lon="3.10368">
        <ele>189</ele>
        <time>2025-12-29T12:17:55.875Z</time>
      </trkpt>
      <trkpt lat="43.15136" lon="3.10368">
        <ele>189</ele>
        <time>2025-12-29T12:17:56.875Z</time>
      </trkpt>
      <trkpt lat="43.15137" lon="3.10368">
        <ele>189</ele>
        <time>2025-12-29T12:17:57.875Z</time>
      </trkpt>
      <trkpt lat="43.15139" lon="3.10367">
        <ele>189</ele>
        <time>2025-12-29T12:17:58.875Z</time>
      </trkpt>
      <trkpt lat="43.1514" lon="3.10367">
        <ele>189</ele>
        <time>2025-12-29T12:17:59.875Z</time>
      </trkpt>
      <trkpt lat="43.15142" lon="3.10367">
        <ele>188</ele>
        <time>2025-12-29T12:18:00.875Z</time>
      </trkpt>
      <trkpt lat="43.15143" lon="3.10366">
        <ele>188</ele>
        <time>2025-12-29T12:18:01.875Z</time>
      </trkpt>
      <trkpt lat="43.15145" lon="3.10366">
        <ele>188</ele>
        <time>2025-12-29T12:18:02.875Z</time>
      </trkpt>
      <trkpt lat="43.15146" lon="3.10366">
        <ele>188</ele>
        <time>2025-12-29T12:18:03.875Z</time>
      </trkpt>
      <trkpt lat="43.15148" lon="3.10366">
        <ele>188</ele>
        <time>2025-12-29T12:18:04.875Z</time>
      </trkpt>
      <trkpt lat="43.15149" lon="3.10366">
        <ele>188</ele>
        <time>2025-12-29T12:18:05.875Z</time>
      </trkpt>
      <trkpt lat="43.1515" lon="3.10366">
        <ele>188</ele>
        <time>2025-12-29T12:18:06.875Z</time>
      </trkpt>
      <trkpt lat="43.15152" lon="3.10365">
        <ele>188</ele>
        <time>2025-12-29T12:18:07.875Z</time>
      </trkpt>
      <trkpt lat="43.15153" lon="3.10365">
        <ele>187</ele>
        <time>2025-12-29T12:18:08.875Z</time>
      </trkpt>
      <trkpt lat="43.15155" lon="3.10365">
        <ele>187</ele>
        <time>2025-12-29T12:18:09.875Z</time>
      </trkpt>
      <trkpt lat="43.15157" lon="3.10365">
        <ele>187</ele>
        <time>2025-12-29T12:18:10.875Z</time>
      </trkpt>
      <trkpt lat="43.15158" lon="3.10366">
        <ele>187</ele>
        <time>2025-12-29T12:18:11.875Z</time>
      </trkpt>
      <trkpt lat="43.1516" lon="3.10366">
        <ele>187</ele>
        <time>2025-12-29T12:18:12.875Z</time>
      </trkpt>
      <trkpt lat="43.15161" lon="3.10366">
        <ele>187</ele>
        <time>2025-12-29T12:18:13.875Z</time>
      </trkpt>
      <trkpt lat="43.15163" lon="3.10366">
        <ele>187</ele>
        <time>2025-12-29T12:18:14.875Z</time>
      </trkpt>
      <trkpt lat="43.15164" lon="3.10365">
        <ele>187</ele>
        <time>2025-12-29T12:18:15.875Z</time>
      </trkpt>
      <trkpt lat="43.15166" lon="3.10365">
        <ele>187</ele>
        <time>2025-12-29T12:18:16.875Z</time>
      </trkpt>
      <trkpt lat="43.15167" lon="3.10365">
        <ele>187</ele>
        <time>2025-12-29T12:18:17.875Z</time>
      </trkpt>
      <trkpt lat="43.15169" lon="3.10365">
        <ele>187</ele>
        <time>2025-12-29T12:18:18.875Z</time>
      </trkpt>
      <trkpt lat="43.1517" lon="3.10364">
        <ele>187</ele>
        <time>2025-12-29T12:18:19.875Z</time>
      </trkpt>
      <trkpt lat="43.15171" lon="3.10364">
        <ele>187</ele>
        <time>2025-12-29T12:18:20.875Z</time>
      </trkpt>
      <trkpt lat="43.15173" lon="3.10364">
        <ele>187</ele>
        <time>2025-12-29T12:18:21.875Z</time>
      </trkpt>
      <trkpt lat="43.15174" lon="3.10363">
        <ele>187</ele>
        <time>2025-12-29T12:18:22.875Z</time>
      </trkpt>
      <trkpt lat="43.15175" lon="3.10362">
        <ele>187</ele>
        <time>2025-12-29T12:18:23.875Z</time>
      </trkpt>
      <trkpt lat="43.15176" lon="3.10361">
        <ele>187</ele>
        <time>2025-12-29T12:18:24.875Z</time>
      </trkpt>
      <trkpt lat="43.15177" lon="3.1036">
        <ele>188</ele>
        <time>2025-12-29T12:18:25.875Z</time>
      </trkpt>
      <trkpt lat="43.15177" lon="3.10359">
        <ele>188</ele>
        <time>2025-12-29T12:18:26.875Z</time>
      </trkpt>
      <trkpt lat="43.15178" lon="3.10357">
        <ele>188</ele>
        <time>2025-12-29T12:18:27.875Z</time>
      </trkpt>
      <trkpt lat="43.15179" lon="3.10356">
        <ele>188</ele>
        <time>2025-12-29T12:18:28.875Z</time>
      </trkpt>
      <trkpt lat="43.1518" lon="3.10355">
        <ele>188</ele>
        <time>2025-12-29T12:18:29.875Z</time>
      </trkpt>
      <trkpt lat="43.1518" lon="3.10354">
        <ele>188</ele>
        <time>2025-12-29T12:18:30.875Z</time>
      </trkpt>
      <trkpt lat="43.15181" lon="3.10354">
        <ele>188</ele>
        <time>2025-12-29T12:18:31.875Z</time>
      </trkpt>
      <trkpt lat="43.15182" lon="3.10353">
        <ele>188</ele>
        <time>2025-12-29T12:18:32.875Z</time>
      </trkpt>
      <trkpt lat="43.15183" lon="3.10352">
        <ele>188</ele>
        <time>2025-12-29T12:18:33.875Z</time>
      </trkpt>
      <trkpt lat="43.15183" lon="3.1035">
        <ele>188</ele>
        <time>2025-12-29T12:18:34.875Z</time>
      </trkpt>
      <trkpt lat="43.15183" lon="3.10349">
        <ele>188</ele>
        <time>2025-12-29T12:18:35.875Z</time>
      </trkpt>
      <trkpt lat="43.15184" lon="3.10347">
        <ele>188</ele>
        <time>2025-12-29T12:18:36.875Z</time>
      </trkpt>
      <trkpt lat="43.15185" lon="3.10345">
        <ele>188</ele>
        <time>2025-12-29T12:18:37.875Z</time>
      </trkpt>
      <trkpt lat="43.15185" lon="3.10343">
        <ele>188</ele>
        <time>2025-12-29T12:18:38.875Z</time>
      </trkpt>
      <trkpt lat="43.15186" lon="3.10341">
        <ele>188</ele>
        <time>2025-12-29T12:18:39.875Z</time>
      </trkpt>
      <trkpt lat="43.15186" lon="3.1034">
        <ele>188</ele>
        <time>2025-12-29T12:18:40.875Z</time>
      </trkpt>
      <trkpt lat="43.15187" lon="3.10338">
        <ele>188</ele>
        <time>2025-12-29T12:18:41.875Z</time>
      </trkpt>
      <trkpt lat="43.15187" lon="3.10336">
        <ele>188</ele>
        <time>2025-12-29T12:18:42.875Z</time>
      </trkpt>
      <trkpt lat="43.15187" lon="3.10335">
        <ele>188</ele>
        <time>2025-12-29T12:18:43.875Z</time>
      </trkpt>
      <trkpt lat="43.15187" lon="3.10333">
        <ele>188</ele>
        <time>2025-12-29T12:18:44.875Z</time>
      </trkpt>
      <trkpt lat="43.15187" lon="3.10332">
        <ele>188</ele>
        <time>2025-12-29T12:18:45.875Z</time>
      </trkpt>
      <trkpt lat="43.15187" lon="3.1033">
        <ele>188</ele>
        <time>2025-12-29T12:18:46.875Z</time>
      </trkpt>
      <trkpt lat="43.15186" lon="3.10328">
        <ele>188</ele>
        <time>2025-12-29T12:18:47.875Z</time>
      </trkpt>
      <trkpt lat="43.15186" lon="3.10327">
        <ele>188</ele>
        <time>2025-12-29T12:18:48.875Z</time>
      </trkpt>
      <trkpt lat="43.15185" lon="3.10325">
        <ele>187</ele>
        <time>2025-12-29T12:18:49.875Z</time>
      </trkpt>
      <trkpt lat="43.15184" lon="3.10324">
        <ele>187</ele>
        <time>2025-12-29T12:18:50.876Z</time>
      </trkpt>
      <trkpt lat="43.15184" lon="3.10322">
        <ele>187</ele>
        <time>2025-12-29T12:18:51.875Z</time>
      </trkpt>
      <trkpt lat="43.15183" lon="3.1032">
        <ele>187</ele>
        <time>2025-12-29T12:18:52.875Z</time>
      </trkpt>
      <trkpt lat="43.15182" lon="3.10319">
        <ele>187</ele>
        <time>2025-12-29T12:18:53.875Z</time>
      </trkpt>
      <trkpt lat="43.15181" lon="3.10317">
        <ele>187</ele>
        <time>2025-12-29T12:18:54.875Z</time>
      </trkpt>
      <trkpt lat="43.1518" lon="3.10316">
        <ele>187</ele>
        <time>2025-12-29T12:18:55.875Z</time>
      </trkpt>
      <trkpt lat="43.1518" lon="3.10314">
        <ele>187</ele>
        <time>2025-12-29T12:18:56.875Z</time>
      </trkpt>
      <trkpt lat="43.15179" lon="3.10313">
        <ele>186</ele>
        <time>2025-12-29T12:18:57.875Z</time>
      </trkpt>
      <trkpt lat="43.15178" lon="3.10311">
        <ele>186</ele>
        <time>2025-12-29T12:18:58.875Z</time>
      </trkpt>
      <trkpt lat="43.15178" lon="3.10309">
        <ele>186</ele>
        <time>2025-12-29T12:18:59.875Z</time>
      </trkpt>
      <trkpt lat="43.15177" lon="3.10308">
        <ele>186</ele>
        <time>2025-12-29T12:19:00.875Z</time>
      </trkpt>
      <trkpt lat="43.15176" lon="3.10306">
        <ele>186</ele>
        <time>2025-12-29T12:19:01.875Z</time>
      </trkpt>
      <trkpt lat="43.15175" lon="3.10304">
        <ele>186</ele>
        <time>2025-12-29T12:19:02.875Z</time>
      </trkpt>
      <trkpt lat="43.15174" lon="3.10302">
        <ele>185</ele>
        <time>2025-12-29T12:19:03.875Z</time>
      </trkpt>
      <trkpt lat="43.15173" lon="3.10301">
        <ele>185</ele>
        <time>2025-12-29T12:19:04.875Z</time>
      </trkpt>
      <trkpt lat="43.15172" lon="3.10299">
        <ele>185</ele>
        <time>2025-12-29T12:19:05.875Z</time>
      </trkpt>
      <trkpt lat="43.15172" lon="3.10298">
        <ele>185</ele>
        <time>2025-12-29T12:19:06.875Z</time>
      </trkpt>
      <trkpt lat="43.15171" lon="3.10297">
        <ele>184</ele>
        <time>2025-12-29T12:19:07.875Z</time>
      </trkpt>
      <trkpt lat="43.1517" lon="3.10295">
        <ele>184</ele>
        <time>2025-12-29T12:19:08.875Z</time>
      </trkpt>
      <trkpt lat="43.1517" lon="3.10294">
        <ele>184</ele>
        <time>2025-12-29T12:19:09.875Z</time>
      </trkpt>
      <trkpt lat="43.15169" lon="3.10293">
        <ele>183</ele>
        <time>2025-12-29T12:19:10.875Z</time>
      </trkpt>
      <trkpt lat="43.15168" lon="3.10291">
        <ele>183</ele>
        <time>2025-12-29T12:19:11.875Z</time>
      </trkpt>
      <trkpt lat="43.15168" lon="3.1029">
        <ele>183</ele>
        <time>2025-12-29T12:19:12.875Z</time>
      </trkpt>
      <trkpt lat="43.15167" lon="3.10288">
        <ele>184</ele>
        <time>2025-12-29T12:19:13.875Z</time>
      </trkpt>
      <trkpt lat="43.15166" lon="3.10287">
        <ele>184</ele>
        <time>2025-12-29T12:19:14.875Z</time>
      </trkpt>
      <trkpt lat="43.15165" lon="3.10286">
        <ele>184</ele>
        <time>2025-12-29T12:19:15.875Z</time>
      </trkpt>
      <trkpt lat="43.15164" lon="3.10284">
        <ele>184</ele>
        <time>2025-12-29T12:19:16.875Z</time>
      </trkpt>
      <trkpt lat="43.15164" lon="3.10283">
        <ele>184</ele>
        <time>2025-12-29T12:19:17.875Z</time>
      </trkpt>
      <trkpt lat="43.15163" lon="3.10281">
        <ele>184</ele>
        <time>2025-12-29T12:19:18.875Z</time>
      </trkpt>
      <trkpt lat="43.15162" lon="3.1028">
        <ele>184</ele>
        <time>2025-12-29T12:19:19.875Z</time>
      </trkpt>
      <trkpt lat="43.15161" lon="3.10278">
        <ele>184</ele>
        <time>2025-12-29T12:19:20.875Z</time>
      </trkpt>
      <trkpt lat="43.1516" lon="3.10277">
        <ele>184</ele>
        <time>2025-12-29T12:19:21.875Z</time>
      </trkpt>
      <trkpt lat="43.15159" lon="3.10275">
        <ele>184</ele>
        <time>2025-12-29T12:19:22.875Z</time>
      </trkpt>
      <trkpt lat="43.15158" lon="3.10274">
        <ele>184</ele>
        <time>2025-12-29T12:19:23.875Z</time>
      </trkpt>
      <trkpt lat="43.15158" lon="3.10273">
        <ele>183</ele>
        <time>2025-12-29T12:19:24.875Z</time>
      </trkpt>
      <trkpt lat="43.15157" lon="3.10271">
        <ele>183</ele>
        <time>2025-12-29T12:19:25.875Z</time>
      </trkpt>
      <trkpt lat="43.15156" lon="3.10269">
        <ele>183</ele>
        <time>2025-12-29T12:19:26.875Z</time>
      </trkpt>
      <trkpt lat="43.15155" lon="3.10267">
        <ele>183</ele>
        <time>2025-12-29T12:19:27.875Z</time>
      </trkpt>
      <trkpt lat="43.15154" lon="3.10265">
        <ele>183</ele>
        <time>2025-12-29T12:19:28.875Z</time>
      </trkpt>
      <trkpt lat="43.15153" lon="3.10263">
        <ele>183</ele>
        <time>2025-12-29T12:19:29.875Z</time>
      </trkpt>
      <trkpt lat="43.15151" lon="3.10262">
        <ele>183</ele>
        <time>2025-12-29T12:19:30.875Z</time>
      </trkpt>
      <trkpt lat="43.1515" lon="3.1026">
        <ele>183</ele>
        <time>2025-12-29T12:19:31.875Z</time>
      </trkpt>
      <trkpt lat="43.15149" lon="3.10258">
        <ele>184</ele>
        <time>2025-12-29T12:19:32.875Z</time>
      </trkpt>
      <trkpt lat="43.15148" lon="3.10256">
        <ele>184</ele>
        <time>2025-12-29T12:19:33.875Z</time>
      </trkpt>
      <trkpt lat="43.15147" lon="3.10255">
        <ele>184</ele>
        <time>2025-12-29T12:19:34.875Z</time>
      </trkpt>
      <trkpt lat="43.15146" lon="3.10253">
        <ele>184</ele>
        <time>2025-12-29T12:19:35.875Z</time>
      </trkpt>
      <trkpt lat="43.15145" lon="3.10252">
        <ele>184</ele>
        <time>2025-12-29T12:19:36.875Z</time>
      </trkpt>
      <trkpt lat="43.15144" lon="3.10251">
        <ele>184</ele>
        <time>2025-12-29T12:19:37.875Z</time>
      </trkpt>
      <trkpt lat="43.15142" lon="3.10249">
        <ele>184</ele>
        <time>2025-12-29T12:19:38.875Z</time>
      </trkpt>
      <trkpt lat="43.15141" lon="3.10248">
        <ele>184</ele>
        <time>2025-12-29T12:19:39.875Z</time>
      </trkpt>
      <trkpt lat="43.1514" lon="3.10246">
        <ele>184</ele>
        <time>2025-12-29T12:19:40.875Z</time>
      </trkpt>
      <trkpt lat="43.15139" lon="3.10245">
        <ele>184</ele>
        <time>2025-12-29T12:19:41.875Z</time>
      </trkpt>
      <trkpt lat="43.15138" lon="3.10244">
        <ele>184</ele>
        <time>2025-12-29T12:19:42.875Z</time>
      </trkpt>
      <trkpt lat="43.15137" lon="3.10242">
        <ele>184</ele>
        <time>2025-12-29T12:19:43.875Z</time>
      </trkpt>
      <trkpt lat="43.15136" lon="3.10241">
        <ele>184</ele>
        <time>2025-12-29T12:19:44.875Z</time>
      </trkpt>
      <trkpt lat="43.15135" lon="3.1024">
        <ele>184</ele>
        <time>2025-12-29T12:19:45.875Z</time>
      </trkpt>
      <trkpt lat="43.15134" lon="3.10239">
        <ele>184</ele>
        <time>2025-12-29T12:19:46.875Z</time>
      </trkpt>
      <trkpt lat="43.15133" lon="3.10238">
        <ele>184</ele>
        <time>2025-12-29T12:19:47.875Z</time>
      </trkpt>
      <trkpt lat="43.15131" lon="3.10237">
        <ele>184</ele>
        <time>2025-12-29T12:19:48.875Z</time>
      </trkpt>
      <trkpt lat="43.1513" lon="3.10236">
        <ele>184</ele>
        <time>2025-12-29T12:19:49.875Z</time>
      </trkpt>
      <trkpt lat="43.15129" lon="3.10235">
        <ele>184</ele>
        <time>2025-12-29T12:19:50.875Z</time>
      </trkpt>
      <trkpt lat="43.15128" lon="3.10234">
        <ele>185</ele>
        <time>2025-12-29T12:19:51.875Z</time>
      </trkpt>
      <trkpt lat="43.15127" lon="3.10233">
        <ele>184</ele>
        <time>2025-12-29T12:19:52.875Z</time>
      </trkpt>
      <trkpt lat="43.15126" lon="3.10233">
        <ele>184</ele>
        <time>2025-12-29T12:19:53.875Z</time>
      </trkpt>
      <trkpt lat="43.15125" lon="3.10232">
        <ele>184</ele>
        <time>2025-12-29T12:19:54.875Z</time>
      </trkpt>
      <trkpt lat="43.15123" lon="3.10231">
        <ele>183</ele>
        <time>2025-12-29T12:19:55.875Z</time>
      </trkpt>
      <trkpt lat="43.15122" lon="3.1023">
        <ele>183</ele>
        <time>2025-12-29T12:19:56.875Z</time>
      </trkpt>
      <trkpt lat="43.15121" lon="3.10229">
        <ele>183</ele>
        <time>2025-12-29T12:19:57.875Z</time>
      </trkpt>
      <trkpt lat="43.1512" lon="3.10228">
        <ele>183</ele>
        <time>2025-12-29T12:19:58.875Z</time>
      </trkpt>
      <trkpt lat="43.15119" lon="3.10227">
        <ele>183</ele>
        <time>2025-12-29T12:19:59.875Z</time>
      </trkpt>
      <trkpt lat="43.15117" lon="3.10226">
        <ele>183</ele>
        <time>2025-12-29T12:20:00.875Z</time>
      </trkpt>
      <trkpt lat="43.15116" lon="3.10226">
        <ele>183</ele>
        <time>2025-12-29T12:20:01.875Z</time>
      </trkpt>
      <trkpt lat="43.15115" lon="3.10226">
        <ele>183</ele>
        <time>2025-12-29T12:20:02.875Z</time>
      </trkpt>
      <trkpt lat="43.15114" lon="3.10226">
        <ele>183</ele>
        <time>2025-12-29T12:20:03.875Z</time>
      </trkpt>
      <trkpt lat="43.15112" lon="3.10225">
        <ele>183</ele>
        <time>2025-12-29T12:20:04.875Z</time>
      </trkpt>
      <trkpt lat="43.15111" lon="3.10224">
        <ele>182</ele>
        <time>2025-12-29T12:20:05.875Z</time>
      </trkpt>
      <trkpt lat="43.15109" lon="3.10223">
        <ele>182</ele>
        <time>2025-12-29T12:20:06.875Z</time>
      </trkpt>
      <trkpt lat="43.15108" lon="3.10223">
        <ele>182</ele>
        <time>2025-12-29T12:20:07.875Z</time>
      </trkpt>
      <trkpt lat="43.15107" lon="3.10222">
        <ele>181</ele>
        <time>2025-12-29T12:20:08.875Z</time>
      </trkpt>
      <trkpt lat="43.15106" lon="3.10221">
        <ele>181</ele>
        <time>2025-12-29T12:20:09.875Z</time>
      </trkpt>
      <trkpt lat="43.15104" lon="3.1022">
        <ele>181</ele>
        <time>2025-12-29T12:20:10.875Z</time>
      </trkpt>
      <trkpt lat="43.15103" lon="3.1022">
        <ele>180</ele>
        <time>2025-12-29T12:20:11.875Z</time>
      </trkpt>
      <trkpt lat="43.15102" lon="3.10219">
        <ele>180</ele>
        <time>2025-12-29T12:20:12.875Z</time>
      </trkpt>
      <trkpt lat="43.15101" lon="3.10218">
        <ele>180</ele>
        <time>2025-12-29T12:20:13.875Z</time>
      </trkpt>
      <trkpt lat="43.151" lon="3.10216">
        <ele>179</ele>
        <time>2025-12-29T12:20:14.875Z</time>
      </trkpt>
      <trkpt lat="43.15098" lon="3.10216">
        <ele>179</ele>
        <time>2025-12-29T12:20:15.875Z</time>
      </trkpt>
      <trkpt lat="43.15097" lon="3.10215">
        <ele>179</ele>
        <time>2025-12-29T12:20:16.875Z</time>
      </trkpt>
      <trkpt lat="43.15096" lon="3.10214">
        <ele>178</ele>
        <time>2025-12-29T12:20:17.875Z</time>
      </trkpt>
      <trkpt lat="43.15095" lon="3.10214">
        <ele>178</ele>
        <time>2025-12-29T12:20:18.875Z</time>
      </trkpt>
      <trkpt lat="43.15093" lon="3.10213">
        <ele>178</ele>
        <time>2025-12-29T12:20:19.875Z</time>
      </trkpt>
      <trkpt lat="43.15092" lon="3.10212">
        <ele>177</ele>
        <time>2025-12-29T12:20:20.875Z</time>
      </trkpt>
      <trkpt lat="43.15091" lon="3.10212">
        <ele>177</ele>
        <time>2025-12-29T12:20:21.875Z</time>
      </trkpt>
      <trkpt lat="43.15089" lon="3.10212">
        <ele>177</ele>
        <time>2025-12-29T12:20:22.875Z</time>
      </trkpt>
      <trkpt lat="43.15088" lon="3.10211">
        <ele>176</ele>
        <time>2025-12-29T12:20:23.875Z</time>
      </trkpt>
      <trkpt lat="43.15087" lon="3.10211">
        <ele>176</ele>
        <time>2025-12-29T12:20:24.875Z</time>
      </trkpt>
      <trkpt lat="43.15085" lon="3.1021">
        <ele>175</ele>
        <time>2025-12-29T12:20:25.875Z</time>
      </trkpt>
      <trkpt lat="43.15084" lon="3.1021">
        <ele>175</ele>
        <time>2025-12-29T12:20:26.875Z</time>
      </trkpt>
      <trkpt lat="43.15082" lon="3.10209">
        <ele>175</ele>
        <time>2025-12-29T12:20:27.875Z</time>
      </trkpt>
      <trkpt lat="43.15081" lon="3.10208">
        <ele>175</ele>
        <time>2025-12-29T12:20:28.875Z</time>
      </trkpt>
      <trkpt lat="43.15079" lon="3.10207">
        <ele>175</ele>
        <time>2025-12-29T12:20:29.875Z</time>
      </trkpt>
      <trkpt lat="43.15078" lon="3.10206">
        <ele>175</ele>
        <time>2025-12-29T12:20:30.875Z</time>
      </trkpt>
      <trkpt lat="43.15076" lon="3.10205">
        <ele>176</ele>
        <time>2025-12-29T12:20:31.875Z</time>
      </trkpt>
      <trkpt lat="43.15075" lon="3.10205">
        <ele>176</ele>
        <time>2025-12-29T12:20:32.875Z</time>
      </trkpt>
      <trkpt lat="43.15074" lon="3.10204">
        <ele>177</ele>
        <time>2025-12-29T12:20:33.875Z</time>
      </trkpt>
      <trkpt lat="43.15072" lon="3.10203">
        <ele>177</ele>
        <time>2025-12-29T12:20:34.875Z</time>
      </trkpt>
      <trkpt lat="43.15071" lon="3.10202">
        <ele>177</ele>
        <time>2025-12-29T12:20:35.875Z</time>
      </trkpt>
      <trkpt lat="43.15069" lon="3.10201">
        <ele>177</ele>
        <time>2025-12-29T12:20:36.875Z</time>
      </trkpt>
      <trkpt lat="43.15068" lon="3.10201">
        <ele>176</ele>
        <time>2025-12-29T12:20:37.875Z</time>
      </trkpt>
      <trkpt lat="43.15067" lon="3.102">
        <ele>176</ele>
        <time>2025-12-29T12:20:38.875Z</time>
      </trkpt>
      <trkpt lat="43.15065" lon="3.10199">
        <ele>176</ele>
        <time>2025-12-29T12:20:39.875Z</time>
      </trkpt>
      <trkpt lat="43.15064" lon="3.10198">
        <ele>176</ele>
        <time>2025-12-29T12:20:40.875Z</time>
      </trkpt>
      <trkpt lat="43.15063" lon="3.10197">
        <ele>175</ele>
        <time>2025-12-29T12:20:41.875Z</time>
      </trkpt>
      <trkpt lat="43.15062" lon="3.10195">
        <ele>175</ele>
        <time>2025-12-29T12:20:42.875Z</time>
      </trkpt>
      <trkpt lat="43.15061" lon="3.10194">
        <ele>174</ele>
        <time>2025-12-29T12:20:43.875Z</time>
      </trkpt>
      <trkpt lat="43.1506" lon="3.10192">
        <ele>174</ele>
        <time>2025-12-29T12:20:44.875Z</time>
      </trkpt>
      <trkpt lat="43.15059" lon="3.10191">
        <ele>174</ele>
        <time>2025-12-29T12:20:45.875Z</time>
      </trkpt>
      <trkpt lat="43.15059" lon="3.1019">
        <ele>173</ele>
        <time>2025-12-29T12:20:46.875Z</time>
      </trkpt>
      <trkpt lat="43.15058" lon="3.10188">
        <ele>173</ele>
        <time>2025-12-29T12:20:47.875Z</time>
      </trkpt>
      <trkpt lat="43.15058" lon="3.10186">
        <ele>173</ele>
        <time>2025-12-29T12:20:48.875Z</time>
      </trkpt>
      <trkpt lat="43.15058" lon="3.10184">
        <ele>173</ele>
        <time>2025-12-29T12:20:49.875Z</time>
      </trkpt>
      <trkpt lat="43.15058" lon="3.10183">
        <ele>173</ele>
        <time>2025-12-29T12:20:50.875Z</time>
      </trkpt>
      <trkpt lat="43.15057" lon="3.10181">
        <ele>173</ele>
        <time>2025-12-29T12:20:51.875Z</time>
      </trkpt>
      <trkpt lat="43.15058" lon="3.10179">
        <ele>173</ele>
        <time>2025-12-29T12:20:52.875Z</time>
      </trkpt>
      <trkpt lat="43.15058" lon="3.10178">
        <ele>173</ele>
        <time>2025-12-29T12:20:53.875Z</time>
      </trkpt>
      <trkpt lat="43.15059" lon="3.10176">
        <ele>173</ele>
        <time>2025-12-29T12:20:54.875Z</time>
      </trkpt>
      <trkpt lat="43.15059" lon="3.10175">
        <ele>174</ele>
        <time>2025-12-29T12:20:55.875Z</time>
      </trkpt>
      <trkpt lat="43.1506" lon="3.10174">
        <ele>174</ele>
        <time>2025-12-29T12:20:56.875Z</time>
      </trkpt>
      <trkpt lat="43.15061" lon="3.10173">
        <ele>174</ele>
        <time>2025-12-29T12:20:57.875Z</time>
      </trkpt>
      <trkpt lat="43.15063" lon="3.10172">
        <ele>174</ele>
        <time>2025-12-29T12:20:58.875Z</time>
      </trkpt>
      <trkpt lat="43.15064" lon="3.10172">
        <ele>174</ele>
        <time>2025-12-29T12:20:59.875Z</time>
      </trkpt>
      <trkpt lat="43.15065" lon="3.10171">
        <ele>174</ele>
        <time>2025-12-29T12:21:00.875Z</time>
      </trkpt>
      <trkpt lat="43.15066" lon="3.1017">
        <ele>174</ele>
        <time>2025-12-29T12:21:01.875Z</time>
      </trkpt>
      <trkpt lat="43.15067" lon="3.1017">
        <ele>174</ele>
        <time>2025-12-29T12:21:02.875Z</time>
      </trkpt>
      <trkpt lat="43.15069" lon="3.10169">
        <ele>175</ele>
        <time>2025-12-29T12:21:03.875Z</time>
      </trkpt>
      <trkpt lat="43.1507" lon="3.10169">
        <ele>175</ele>
        <time>2025-12-29T12:21:04.875Z</time>
      </trkpt>
      <trkpt lat="43.15071" lon="3.10169">
        <ele>175</ele>
        <time>2025-12-29T12:21:05.875Z</time>
      </trkpt>
      <trkpt lat="43.15072" lon="3.10168">
        <ele>174</ele>
        <time>2025-12-29T12:21:06.875Z</time>
      </trkpt>
      <trkpt lat="43.15074" lon="3.10168">
        <ele>174</ele>
        <time>2025-12-29T12:21:07.875Z</time>
      </trkpt>
      <trkpt lat="43.15075" lon="3.10168">
        <ele>174</ele>
        <time>2025-12-29T12:21:08.875Z</time>
      </trkpt>
      <trkpt lat="43.15077" lon="3.10168">
        <ele>173</ele>
        <time>2025-12-29T12:21:09.875Z</time>
      </trkpt>
      <trkpt lat="43.15078" lon="3.10167">
        <ele>173</ele>
        <time>2025-12-29T12:21:10.875Z</time>
      </trkpt>
      <trkpt lat="43.1508" lon="3.10167">
        <ele>173</ele>
        <time>2025-12-29T12:21:11.875Z</time>
      </trkpt>
      <trkpt lat="43.15081" lon="3.10167">
        <ele>174</ele>
        <time>2025-12-29T12:21:12.875Z</time>
      </trkpt>
      <trkpt lat="43.15083" lon="3.10167">
        <ele>174</ele>
        <time>2025-12-29T12:21:13.875Z</time>
      </trkpt>
      <trkpt lat="43.15084" lon="3.10167">
        <ele>174</ele>
        <time>2025-12-29T12:21:14.875Z</time>
      </trkpt>
      <trkpt lat="43.15086" lon="3.10166">
        <ele>174</ele>
        <time>2025-12-29T12:21:15.875Z</time>
      </trkpt>
      <trkpt lat="43.15087" lon="3.10166">
        <ele>174</ele>
        <time>2025-12-29T12:21:16.875Z</time>
      </trkpt>
      <trkpt lat="43.15088" lon="3.10166">
        <ele>174</ele>
        <time>2025-12-29T12:21:17.875Z</time>
      </trkpt>
      <trkpt lat="43.1509" lon="3.10166">
        <ele>174</ele>
        <time>2025-12-29T12:21:18.875Z</time>
      </trkpt>
      <trkpt lat="43.15091" lon="3.10165">
        <ele>174</ele>
        <time>2025-12-29T12:21:19.875Z</time>
      </trkpt>
      <trkpt lat="43.15092" lon="3.10165">
        <ele>174</ele>
        <time>2025-12-29T12:21:20.875Z</time>
      </trkpt>
      <trkpt lat="43.15093" lon="3.10164">
        <ele>174</ele>
        <time>2025-12-29T12:21:21.875Z</time>
      </trkpt>
      <trkpt lat="43.15094" lon="3.10163">
        <ele>174</ele>
        <time>2025-12-29T12:21:22.875Z</time>
      </trkpt>
      <trkpt lat="43.15096" lon="3.10163">
        <ele>174</ele>
        <time>2025-12-29T12:21:23.875Z</time>
      </trkpt>
      <trkpt lat="43.15097" lon="3.10163">
        <ele>174</ele>
        <time>2025-12-29T12:21:24.875Z</time>
      </trkpt>
      <trkpt lat="43.15098" lon="3.10162">
        <ele>174</ele>
        <time>2025-12-29T12:21:25.875Z</time>
      </trkpt>
      <trkpt lat="43.151" lon="3.10161">
        <ele>174</ele>
        <time>2025-12-29T12:21:26.875Z</time>
      </trkpt>
      <trkpt lat="43.15101" lon="3.10161">
        <ele>173</ele>
        <time>2025-12-29T12:21:27.875Z</time>
      </trkpt>
      <trkpt lat="43.15102" lon="3.1016">
        <ele>173</ele>
        <time>2025-12-29T12:21:28.875Z</time>
      </trkpt>
      <trkpt lat="43.15103" lon="3.10159">
        <ele>173</ele>
        <time>2025-12-29T12:21:29.875Z</time>
      </trkpt>
      <trkpt lat="43.15104" lon="3.10158">
        <ele>173</ele>
        <time>2025-12-29T12:21:30.875Z</time>
      </trkpt>
      <trkpt lat="43.15106" lon="3.10157">
        <ele>172</ele>
        <time>2025-12-29T12:21:31.875Z</time>
      </trkpt>
      <trkpt lat="43.15107" lon="3.10156">
        <ele>172</ele>
        <time>2025-12-29T12:21:32.875Z</time>
      </trkpt>
      <trkpt lat="43.15108" lon="3.10155">
        <ele>172</ele>
        <time>2025-12-29T12:21:33.875Z</time>
      </trkpt>
      <trkpt lat="43.15109" lon="3.10153">
        <ele>172</ele>
        <time>2025-12-29T12:21:34.875Z</time>
      </trkpt>
      <trkpt lat="43.1511" lon="3.10152">
        <ele>172</ele>
        <time>2025-12-29T12:21:35.875Z</time>
      </trkpt>
      <trkpt lat="43.15111" lon="3.10151">
        <ele>172</ele>
        <time>2025-12-29T12:21:36.875Z</time>
      </trkpt>
      <trkpt lat="43.15112" lon="3.10149">
        <ele>172</ele>
        <time>2025-12-29T12:21:37.875Z</time>
      </trkpt>
      <trkpt lat="43.15113" lon="3.10147">
        <ele>172</ele>
        <time>2025-12-29T12:21:38.875Z</time>
      </trkpt>
      <trkpt lat="43.15114" lon="3.10146">
        <ele>172</ele>
        <time>2025-12-29T12:21:39.875Z</time>
      </trkpt>
      <trkpt lat="43.15115" lon="3.10144">
        <ele>172</ele>
        <time>2025-12-29T12:21:40.875Z</time>
      </trkpt>
      <trkpt lat="43.15116" lon="3.10142">
        <ele>172</ele>
        <time>2025-12-29T12:21:41.875Z</time>
      </trkpt>
      <trkpt lat="43.15117" lon="3.1014">
        <ele>172</ele>
        <time>2025-12-29T12:21:42.875Z</time>
      </trkpt>
      <trkpt lat="43.15117" lon="3.10137">
        <ele>172</ele>
        <time>2025-12-29T12:21:43.875Z</time>
      </trkpt>
      <trkpt lat="43.15117" lon="3.10135">
        <ele>172</ele>
        <time>2025-12-29T12:21:44.875Z</time>
      </trkpt>
      <trkpt lat="43.15118" lon="3.10134">
        <ele>172</ele>
        <time>2025-12-29T12:21:45.875Z</time>
      </trkpt>
      <trkpt lat="43.15118" lon="3.10132">
        <ele>172</ele>
        <time>2025-12-29T12:21:46.875Z</time>
      </trkpt>
      <trkpt lat="43.15118" lon="3.10131">
        <ele>172</ele>
        <time>2025-12-29T12:21:47.875Z</time>
      </trkpt>
      <trkpt lat="43.15118" lon="3.10131">
        <ele>173</ele>
        <time>2025-12-29T12:21:48.875Z</time>
      </trkpt>
      <trkpt lat="43.15118" lon="3.1013">
        <ele>173</ele>
        <time>2025-12-29T12:21:49.875Z</time>
      </trkpt>
      <trkpt lat="43.15119" lon="3.1013">
        <ele>173</ele>
        <time>2025-12-29T12:21:50.875Z</time>
      </trkpt>
      <trkpt lat="43.15119" lon="3.1013">
        <ele>173</ele>
        <time>2025-12-29T12:21:51.875Z</time>
      </trkpt>
      <trkpt lat="43.15119" lon="3.1013">
        <ele>173</ele>
        <time>2025-12-29T12:21:52.875Z</time>
      </trkpt>
      <trkpt lat="43.15121" lon="3.1013">
        <ele>174</ele>
        <time>2025-12-29T12:21:53.875Z</time>
      </trkpt>
      <trkpt lat="43.15122" lon="3.1013">
        <ele>174</ele>
        <time>2025-12-29T12:21:54.875Z</time>
      </trkpt>
      <trkpt lat="43.15123" lon="3.10129">
        <ele>173</ele>
        <time>2025-12-29T12:21:55.875Z</time>
      </trkpt>
      <trkpt lat="43.15124" lon="3.10128">
        <ele>173</ele>
        <time>2025-12-29T12:21:56.875Z</time>
      </trkpt>
      <trkpt lat="43.15125" lon="3.10128">
        <ele>173</ele>
        <time>2025-12-29T12:21:57.875Z</time>
      </trkpt>
      <trkpt lat="43.15126" lon="3.10126">
        <ele>173</ele>
        <time>2025-12-29T12:21:58.875Z</time>
      </trkpt>
      <trkpt lat="43.15126" lon="3.10125">
        <ele>173</ele>
        <time>2025-12-29T12:21:59.875Z</time>
      </trkpt>
      <trkpt lat="43.15127" lon="3.10124">
        <ele>173</ele>
        <time>2025-12-29T12:22:00.875Z</time>
      </trkpt>
      <trkpt lat="43.15127" lon="3.10123">
        <ele>173</ele>
        <time>2025-12-29T12:22:01.875Z</time>
      </trkpt>
      <trkpt lat="43.15128" lon="3.10122">
        <ele>173</ele>
        <time>2025-12-29T12:22:02.875Z</time>
      </trkpt>
      <trkpt lat="43.15128" lon="3.10121">
        <ele>173</ele>
        <time>2025-12-29T12:22:03.875Z</time>
      </trkpt>
      <trkpt lat="43.15129" lon="3.1012">
        <ele>173</ele>
        <time>2025-12-29T12:22:04.875Z</time>
      </trkpt>
      <trkpt lat="43.1513" lon="3.1012">
        <ele>173</ele>
        <time>2025-12-29T12:22:05.875Z</time>
      </trkpt>
      <trkpt lat="43.1513" lon="3.10119">
        <ele>172</ele>
        <time>2025-12-29T12:22:06.875Z</time>
      </trkpt>
      <trkpt lat="43.15131" lon="3.10119">
        <ele>172</ele>
        <time>2025-12-29T12:22:07.875Z</time>
      </trkpt>
      <trkpt lat="43.15132" lon="3.10118">
        <ele>172</ele>
        <time>2025-12-29T12:22:08.875Z</time>
      </trkpt>
      <trkpt lat="43.15133" lon="3.10118">
        <ele>172</ele>
        <time>2025-12-29T12:22:09.875Z</time>
      </trkpt>
      <trkpt lat="43.15134" lon="3.10118">
        <ele>172</ele>
        <time>2025-12-29T12:22:10.875Z</time>
      </trkpt>
      <trkpt lat="43.15134" lon="3.10119">
        <ele>172</ele>
        <time>2025-12-29T12:22:11.875Z</time>
      </trkpt>
      <trkpt lat="43.15135" lon="3.10119">
        <ele>172</ele>
        <time>2025-12-29T12:22:12.875Z</time>
      </trkpt>
      <trkpt lat="43.15135" lon="3.10119">
        <ele>172</ele>
        <time>2025-12-29T12:22:13.875Z</time>
      </trkpt>
      <trkpt lat="43.15136" lon="3.10119">
        <ele>172</ele>
        <time>2025-12-29T12:22:14.875Z</time>
      </trkpt>
      <trkpt lat="43.15137" lon="3.10119">
        <ele>172</ele>
        <time>2025-12-29T12:22:15.875Z</time>
      </trkpt>
      <trkpt lat="43.15138" lon="3.10119">
        <ele>172</ele>
        <time>2025-12-29T12:22:16.875Z</time>
      </trkpt>
      <trkpt lat="43.15138" lon="3.10119">
        <ele>173</ele>
        <time>2025-12-29T12:22:17.875Z</time>
      </trkpt>
      <trkpt lat="43.15139" lon="3.10119">
        <ele>173</ele>
        <time>2025-12-29T12:22:18.875Z</time>
      </trkpt>
      <trkpt lat="43.1514" lon="3.10119">
        <ele>173</ele>
        <time>2025-12-29T12:22:19.875Z</time>
      </trkpt>
      <trkpt lat="43.15141" lon="3.10119">
        <ele>173</ele>
        <time>2025-12-29T12:22:20.875Z</time>
      </trkpt>
      <trkpt lat="43.15142" lon="3.10119">
        <ele>173</ele>
        <time>2025-12-29T12:22:21.875Z</time>
      </trkpt>
      <trkpt lat="43.15142" lon="3.10118">
        <ele>174</ele>
        <time>2025-12-29T12:22:22.875Z</time>
      </trkpt>
      <trkpt lat="43.15143" lon="3.10118">
        <ele>174</ele>
        <time>2025-12-29T12:22:23.875Z</time>
      </trkpt>
      <trkpt lat="43.15143" lon="3.10118">
        <ele>174</ele>
        <time>2025-12-29T12:22:24.875Z</time>
      </trkpt>
      <trkpt lat="43.15144" lon="3.10118">
        <ele>174</ele>
        <time>2025-12-29T12:22:25.875Z</time>
      </trkpt>
      <trkpt lat="43.15144" lon="3.10118">
        <ele>174</ele>
        <time>2025-12-29T12:22:26.875Z</time>
      </trkpt>
      <trkpt lat="43.15145" lon="3.10118">
        <ele>174</ele>
        <time>2025-12-29T12:22:27.875Z</time>
      </trkpt>
      <trkpt lat="43.15145" lon="3.10117">
        <ele>174</ele>
        <time>2025-12-29T12:22:28.875Z</time>
      </trkpt>
      <trkpt lat="43.15146" lon="3.10117">
        <ele>175</ele>
        <time>2025-12-29T12:22:29.875Z</time>
      </trkpt>
      <trkpt lat="43.15146" lon="3.10117">
        <ele>175</ele>
        <time>2025-12-29T12:22:30.875Z</time>
      </trkpt>
      <trkpt lat="43.15147" lon="3.10117">
        <ele>175</ele>
        <time>2025-12-29T12:22:31.875Z</time>
      </trkpt>
      <trkpt lat="43.15148" lon="3.10117">
        <ele>175</ele>
        <time>2025-12-29T12:22:32.875Z</time>
      </trkpt>
      <trkpt lat="43.15148" lon="3.10117">
        <ele>175</ele>
        <time>2025-12-29T12:22:33.875Z</time>
      </trkpt>
      <trkpt lat="43.15149" lon="3.10117">
        <ele>175</ele>
        <time>2025-12-29T12:22:34.875Z</time>
      </trkpt>
      <trkpt lat="43.1515" lon="3.10117">
        <ele>175</ele>
        <time>2025-12-29T12:22:35.875Z</time>
      </trkpt>
      <trkpt lat="43.15151" lon="3.10117">
        <ele>176</ele>
        <time>2025-12-29T12:22:36.875Z</time>
      </trkpt>
      <trkpt lat="43.15151" lon="3.10117">
        <ele>176</ele>
        <time>2025-12-29T12:22:37.875Z</time>
      </trkpt>
      <trkpt lat="43.15152" lon="3.10116">
        <ele>176</ele>
        <time>2025-12-29T12:22:38.875Z</time>
      </trkpt>
      <trkpt lat="43.15153" lon="3.10116">
        <ele>176</ele>
        <time>2025-12-29T12:22:39.875Z</time>
      </trkpt>
      <trkpt lat="43.15153" lon="3.10115">
        <ele>177</ele>
        <time>2025-12-29T12:22:40.875Z</time>
      </trkpt>
      <trkpt lat="43.15154" lon="3.10115">
        <ele>177</ele>
        <time>2025-12-29T12:22:41.875Z</time>
      </trkpt>
      <trkpt lat="43.15154" lon="3.10114">
        <ele>177</ele>
        <time>2025-12-29T12:22:42.875Z</time>
      </trkpt>
      <trkpt lat="43.15155" lon="3.10113">
        <ele>178</ele>
        <time>2025-12-29T12:22:43.875Z</time>
      </trkpt>
      <trkpt lat="43.15155" lon="3.10113">
        <ele>178</ele>
        <time>2025-12-29T12:22:44.875Z</time>
      </trkpt>
      <trkpt lat="43.15155" lon="3.10112">
        <ele>178</ele>
        <time>2025-12-29T12:22:45.875Z</time>
      </trkpt>
      <trkpt lat="43.15155" lon="3.10112">
        <ele>179</ele>
        <time>2025-12-29T12:22:46.875Z</time>
      </trkpt>
      <trkpt lat="43.15156" lon="3.10111">
        <ele>179</ele>
        <time>2025-12-29T12:22:47.875Z</time>
      </trkpt>
      <trkpt lat="43.15157" lon="3.10111">
        <ele>179</ele>
        <time>2025-12-29T12:22:48.875Z</time>
      </trkpt>
      <trkpt lat="43.15158" lon="3.1011">
        <ele>179</ele>
        <time>2025-12-29T12:22:49.875Z</time>
      </trkpt>
      <trkpt lat="43.15158" lon="3.10109">
        <ele>179</ele>
        <time>2025-12-29T12:22:50.875Z</time>
      </trkpt>
      <trkpt lat="43.15159" lon="3.10109">
        <ele>179</ele>
        <time>2025-12-29T12:22:51.875Z</time>
      </trkpt>
      <trkpt lat="43.1516" lon="3.10108">
        <ele>179</ele>
        <time>2025-12-29T12:22:52.875Z</time>
      </trkpt>
      <trkpt lat="43.15161" lon="3.10108">
        <ele>179</ele>
        <time>2025-12-29T12:22:53.875Z</time>
      </trkpt>
      <trkpt lat="43.15162" lon="3.10107">
        <ele>179</ele>
        <time>2025-12-29T12:22:54.875Z</time>
      </trkpt>
      <trkpt lat="43.15162" lon="3.10107">
        <ele>179</ele>
        <time>2025-12-29T12:22:55.875Z</time>
      </trkpt>
      <trkpt lat="43.15162" lon="3.10107">
        <ele>179</ele>
        <time>2025-12-29T12:22:56.875Z</time>
      </trkpt>
      <trkpt lat="43.15163" lon="3.10106">
        <ele>180</ele>
        <time>2025-12-29T12:22:57.875Z</time>
      </trkpt>
      <trkpt lat="43.15164" lon="3.10106">
        <ele>180</ele>
        <time>2025-12-29T12:22:58.875Z</time>
      </trkpt>
      <trkpt lat="43.15164" lon="3.10106">
        <ele>180</ele>
        <time>2025-12-29T12:22:59.875Z</time>
      </trkpt>
      <trkpt lat="43.15165" lon="3.10106">
        <ele>180</ele>
        <time>2025-12-29T12:23:00.875Z</time>
      </trkpt>
      <trkpt lat="43.15165" lon="3.10106">
        <ele>180</ele>
        <time>2025-12-29T12:23:01.875Z</time>
      </trkpt>
      <trkpt lat="43.15166" lon="3.10105">
        <ele>180</ele>
        <time>2025-12-29T12:23:02.875Z</time>
      </trkpt>
      <trkpt lat="43.15167" lon="3.10104">
        <ele>180</ele>
        <time>2025-12-29T12:23:03.875Z</time>
      </trkpt>
      <trkpt lat="43.15167" lon="3.10104">
        <ele>180</ele>
        <time>2025-12-29T12:23:04.875Z</time>
      </trkpt>
      <trkpt lat="43.15167" lon="3.10103">
        <ele>181</ele>
        <time>2025-12-29T12:23:05.875Z</time>
      </trkpt>
      <trkpt lat="43.15168" lon="3.10102">
        <ele>181</ele>
        <time>2025-12-29T12:23:06.875Z</time>
      </trkpt>
      <trkpt lat="43.15169" lon="3.10101">
        <ele>181</ele>
        <time>2025-12-29T12:23:07.875Z</time>
      </trkpt>
      <trkpt lat="43.15169" lon="3.10101">
        <ele>181</ele>
        <time>2025-12-29T12:23:08.875Z</time>
      </trkpt>
      <trkpt lat="43.15169" lon="3.101">
        <ele>181</ele>
        <time>2025-12-29T12:23:09.875Z</time>
      </trkpt>
      <trkpt lat="43.1517" lon="3.10098">
        <ele>181</ele>
        <time>2025-12-29T12:23:10.875Z</time>
      </trkpt>
      <trkpt lat="43.1517" lon="3.10097">
        <ele>181</ele>
        <time>2025-12-29T12:23:11.875Z</time>
      </trkpt>
      <trkpt lat="43.15171" lon="3.10096">
        <ele>181</ele>
        <time>2025-12-29T12:23:12.875Z</time>
      </trkpt>
      <trkpt lat="43.15171" lon="3.10095">
        <ele>181</ele>
        <time>2025-12-29T12:23:13.875Z</time>
      </trkpt>
      <trkpt lat="43.15172" lon="3.10093">
        <ele>182</ele>
        <time>2025-12-29T12:23:14.875Z</time>
      </trkpt>
      <trkpt lat="43.15172" lon="3.10092">
        <ele>182</ele>
        <time>2025-12-29T12:23:15.875Z</time>
      </trkpt>
      <trkpt lat="43.15173" lon="3.1009">
        <ele>182</ele>
        <time>2025-12-29T12:23:16.875Z</time>
      </trkpt>
      <trkpt lat="43.15174" lon="3.10089">
        <ele>182</ele>
        <time>2025-12-29T12:23:17.875Z</time>
      </trkpt>
      <trkpt lat="43.15175" lon="3.10088">
        <ele>182</ele>
        <time>2025-12-29T12:23:18.875Z</time>
      </trkpt>
      <trkpt lat="43.15176" lon="3.10087">
        <ele>182</ele>
        <time>2025-12-29T12:23:19.875Z</time>
      </trkpt>
      <trkpt lat="43.15176" lon="3.10085">
        <ele>182</ele>
        <time>2025-12-29T12:23:20.875Z</time>
      </trkpt>
      <trkpt lat="43.15177" lon="3.10084">
        <ele>182</ele>
        <time>2025-12-29T12:23:21.875Z</time>
      </trkpt>
      <trkpt lat="43.15177" lon="3.10083">
        <ele>182</ele>
        <time>2025-12-29T12:23:22.875Z</time>
      </trkpt>
      <trkpt lat="43.15177" lon="3.10081">
        <ele>183</ele>
        <time>2025-12-29T12:23:23.875Z</time>
      </trkpt>
      <trkpt lat="43.15178" lon="3.1008">
        <ele>183</ele>
        <time>2025-12-29T12:23:24.875Z</time>
      </trkpt>
      <trkpt lat="43.15179" lon="3.10079">
        <ele>183</ele>
        <time>2025-12-29T12:23:25.875Z</time>
      </trkpt>
      <trkpt lat="43.1518" lon="3.10078">
        <ele>183</ele>
        <time>2025-12-29T12:23:26.875Z</time>
      </trkpt>
      <trkpt lat="43.1518" lon="3.10077">
        <ele>184</ele>
        <time>2025-12-29T12:23:27.875Z</time>
      </trkpt>
      <trkpt lat="43.15181" lon="3.10075">
        <ele>184</ele>
        <time>2025-12-29T12:23:28.875Z</time>
      </trkpt>
      <trkpt lat="43.15182" lon="3.10074">
        <ele>184</ele>
        <time>2025-12-29T12:23:29.875Z</time>
      </trkpt>
      <trkpt lat="43.15182" lon="3.10073">
        <ele>184</ele>
        <time>2025-12-29T12:23:30.875Z</time>
      </trkpt>
      <trkpt lat="43.15183" lon="3.10072">
        <ele>184</ele>
        <time>2025-12-29T12:23:31.875Z</time>
      </trkpt>
      <trkpt lat="43.15184" lon="3.10071">
        <ele>184</ele>
        <time>2025-12-29T12:23:32.875Z</time>
      </trkpt>
      <trkpt lat="43.15185" lon="3.10071">
        <ele>184</ele>
        <time>2025-12-29T12:23:33.875Z</time>
      </trkpt>
      <trkpt lat="43.15185" lon="3.1007">
        <ele>184</ele>
        <time>2025-12-29T12:23:34.875Z</time>
      </trkpt>
      <trkpt lat="43.15186" lon="3.10069">
        <ele>184</ele>
        <time>2025-12-29T12:23:35.875Z</time>
      </trkpt>
      <trkpt lat="43.15186" lon="3.10067">
        <ele>184</ele>
        <time>2025-12-29T12:23:36.875Z</time>
      </trkpt>
      <trkpt lat="43.15186" lon="3.10066">
        <ele>184</ele>
        <time>2025-12-29T12:23:37.875Z</time>
      </trkpt>
      <trkpt lat="43.15186" lon="3.10064">
        <ele>184</ele>
        <time>2025-12-29T12:23:38.875Z</time>
      </trkpt>
      <trkpt lat="43.15186" lon="3.10063">
        <ele>184</ele>
        <time>2025-12-29T12:23:39.875Z</time>
      </trkpt>
      <trkpt lat="43.15186" lon="3.10063">
        <ele>184</ele>
        <time>2025-12-29T12:23:40.875Z</time>
      </trkpt>
      <trkpt lat="43.15186" lon="3.10062">
        <ele>184</ele>
        <time>2025-12-29T12:23:41.875Z</time>
      </trkpt>
      <trkpt lat="43.15186" lon="3.10062">
        <ele>183</ele>
        <time>2025-12-29T12:23:42.875Z</time>
      </trkpt>
      <trkpt lat="43.15186" lon="3.10062">
        <ele>183</ele>
        <time>2025-12-29T12:23:43.875Z</time>
      </trkpt>
      <trkpt lat="43.15186" lon="3.10062">
        <ele>183</ele>
        <time>2025-12-29T12:23:44.875Z</time>
      </trkpt>
      <trkpt lat="43.15186" lon="3.10062">
        <ele>183</ele>
        <time>2025-12-29T12:23:45.875Z</time>
      </trkpt>
      <trkpt lat="43.15186" lon="3.10061">
        <ele>183</ele>
        <time>2025-12-29T12:23:46.875Z</time>
      </trkpt>
      <trkpt lat="43.15186" lon="3.10061">
        <ele>183</ele>
        <time>2025-12-29T12:23:47.875Z</time>
      </trkpt>
      <trkpt lat="43.15187" lon="3.1006">
        <ele>183</ele>
        <time>2025-12-29T12:23:48.875Z</time>
      </trkpt>
      <trkpt lat="43.15187" lon="3.10059">
        <ele>183</ele>
        <time>2025-12-29T12:23:49.875Z</time>
      </trkpt>
      <trkpt lat="43.15188" lon="3.10058">
        <ele>183</ele>
        <time>2025-12-29T12:23:50.875Z</time>
      </trkpt>
      <trkpt lat="43.15188" lon="3.10057">
        <ele>184</ele>
        <time>2025-12-29T12:23:51.875Z</time>
      </trkpt>
      <trkpt lat="43.15188" lon="3.10056">
        <ele>184</ele>
        <time>2025-12-29T12:23:52.875Z</time>
      </trkpt>
      <trkpt lat="43.15188" lon="3.10055">
        <ele>184</ele>
        <time>2025-12-29T12:23:53.875Z</time>
      </trkpt>
      <trkpt lat="43.15188" lon="3.10054">
        <ele>184</ele>
        <time>2025-12-29T12:23:54.875Z</time>
      </trkpt>
      <trkpt lat="43.15188" lon="3.10054">
        <ele>184</ele>
        <time>2025-12-29T12:23:55.875Z</time>
      </trkpt>
      <trkpt lat="43.15189" lon="3.10053">
        <ele>184</ele>
        <time>2025-12-29T12:23:56.875Z</time>
      </trkpt>
      <trkpt lat="43.15189" lon="3.10052">
        <ele>184</ele>
        <time>2025-12-29T12:23:57.875Z</time>
      </trkpt>
      <trkpt lat="43.1519" lon="3.10052">
        <ele>184</ele>
        <time>2025-12-29T12:23:58.875Z</time>
      </trkpt>
      <trkpt lat="43.1519" lon="3.10051">
        <ele>184</ele>
        <time>2025-12-29T12:23:59.875Z</time>
      </trkpt>
      <trkpt lat="43.1519" lon="3.10051">
        <ele>184</ele>
        <time>2025-12-29T12:24:00.875Z</time>
      </trkpt>
      <trkpt lat="43.15191" lon="3.1005">
        <ele>184</ele>
        <time>2025-12-29T12:24:01.875Z</time>
      </trkpt>
      <trkpt lat="43.15191" lon="3.1005">
        <ele>184</ele>
        <time>2025-12-29T12:24:02.875Z</time>
      </trkpt>
      <trkpt lat="43.15191" lon="3.1005">
        <ele>184</ele>
        <time>2025-12-29T12:24:03.875Z</time>
      </trkpt>
      <trkpt lat="43.15191" lon="3.1005">
        <ele>184</ele>
        <time>2025-12-29T12:24:04.875Z</time>
      </trkpt>
      <trkpt lat="43.15191" lon="3.1005">
        <ele>184</ele>
        <time>2025-12-29T12:24:05.875Z</time>
      </trkpt>
      <trkpt lat="43.15191" lon="3.1005">
        <ele>183</ele>
        <time>2025-12-29T12:24:06.875Z</time>
      </trkpt>
      <trkpt lat="43.1519" lon="3.1005">
        <ele>183</ele>
        <time>2025-12-29T12:24:07.875Z</time>
      </trkpt>
      <trkpt lat="43.1519" lon="3.1005">
        <ele>182</ele>
        <time>2025-12-29T12:24:08.875Z</time>
      </trkpt>
      <trkpt lat="43.1519" lon="3.1005">
        <ele>181</ele>
        <time>2025-12-29T12:24:09.875Z</time>
      </trkpt>
      <trkpt lat="43.1519" lon="3.1005">
        <ele>181</ele>
        <time>2025-12-29T12:24:10.875Z</time>
      </trkpt>
      <trkpt lat="43.1519" lon="3.1005">
        <ele>180</ele>
        <time>2025-12-29T12:24:11.875Z</time>
      </trkpt>
      <trkpt lat="43.1519" lon="3.1005">
        <ele>180</ele>
        <time>2025-12-29T12:24:12.875Z</time>
      </trkpt>
      <trkpt lat="43.1519" lon="3.1005">
        <ele>179</ele>
        <time>2025-12-29T12:24:13.875Z</time>
      </trkpt>
      <trkpt lat="43.1519" lon="3.1005">
        <ele>179</ele>
        <time>2025-12-29T12:24:14.875Z</time>
      </trkpt>
      <trkpt lat="43.1519" lon="3.1005">
        <ele>179</ele>
        <time>2025-12-29T12:24:15.875Z</time>
      </trkpt>
      <trkpt lat="43.1519" lon="3.1005">
        <ele>178</ele>
        <time>2025-12-29T12:24:16.875Z</time>
      </trkpt>
      <trkpt lat="43.1519" lon="3.1005">
        <ele>178</ele>
        <time>2025-12-29T12:24:17.875Z</time>
      </trkpt>
      <trkpt lat="43.1519" lon="3.1005">
        <ele>179</ele>
        <time>2025-12-29T12:24:18.875Z</time>
      </trkpt>
      <trkpt lat="43.1519" lon="3.1005">
        <ele>179</ele>
        <time>2025-12-29T12:24:19.875Z</time>
      </trkpt>
      <trkpt lat="43.1519" lon="3.1005">
        <ele>180</ele>
        <time>2025-12-29T12:24:20.875Z</time>
      </trkpt>
      <trkpt lat="43.1519" lon="3.1005">
        <ele>181</ele>
        <time>2025-12-29T12:24:21.875Z</time>
      </trkpt>
      <trkpt lat="43.1519" lon="3.1005">
        <ele>181</ele>
        <time>2025-12-29T12:24:22.875Z</time>
      </trkpt>
      <trkpt lat="43.1519" lon="3.1005">
        <ele>182</ele>
        <time>2025-12-29T12:24:23.875Z</time>
      </trkpt>
      <trkpt lat="43.1519" lon="3.1005">
        <ele>182</ele>
        <time>2025-12-29T12:24:24.875Z</time>
      </trkpt>
      <trkpt lat="43.1519" lon="3.1005">
        <ele>183</ele>
        <time>2025-12-29T12:24:25.875Z</time>
      </trkpt>
      <trkpt lat="43.1519" lon="3.1005">
        <ele>183</ele>
        <time>2025-12-29T12:24:26.875Z</time>
      </trkpt>
      <trkpt lat="43.1519" lon="3.1005">
        <ele>184</ele>
        <time>2025-12-29T12:24:27.875Z</time>
      </trkpt>
      <trkpt lat="43.1519" lon="3.1005">
        <ele>184</ele>
        <time>2025-12-29T12:24:28.875Z</time>
      </trkpt>
      <trkpt lat="43.1519" lon="3.10049">
        <ele>184</ele>
        <time>2025-12-29T12:24:29.875Z</time>
      </trkpt>
      <trkpt lat="43.1519" lon="3.10049">
        <ele>184</ele>
        <time>2025-12-29T12:24:30.875Z</time>
      </trkpt>
      <trkpt lat="43.1519" lon="3.10049">
        <ele>184</ele>
        <time>2025-12-29T12:24:31.875Z</time>
      </trkpt>
      <trkpt lat="43.1519" lon="3.1005">
        <ele>185</ele>
        <time>2025-12-29T12:24:32.875Z</time>
      </trkpt>
      <trkpt lat="43.1519" lon="3.1005">
        <ele>185</ele>
        <time>2025-12-29T12:24:33.875Z</time>
      </trkpt>
      <trkpt lat="43.1519" lon="3.1005">
        <ele>185</ele>
        <time>2025-12-29T12:24:34.875Z</time>
      </trkpt>
      <trkpt lat="43.1519" lon="3.1005">
        <ele>185</ele>
        <time>2025-12-29T12:24:35.875Z</time>
      </trkpt>
      <trkpt lat="43.1519" lon="3.1005">
        <ele>185</ele>
        <time>2025-12-29T12:24:36.875Z</time>
      </trkpt>
      <trkpt lat="43.1519" lon="3.1005">
        <ele>185</ele>
        <time>2025-12-29T12:24:37.875Z</time>
      </trkpt>
      <trkpt lat="43.1519" lon="3.1005">
        <ele>185</ele>
        <time>2025-12-29T12:24:38.875Z</time>
      </trkpt>
      <trkpt lat="43.15189" lon="3.1005">
        <ele>185</ele>
        <time>2025-12-29T12:24:39.875Z</time>
      </trkpt>
      <trkpt lat="43.15189" lon="3.1005">
        <ele>185</ele>
        <time>2025-12-29T12:24:40.875Z</time>
      </trkpt>
      <trkpt lat="43.15189" lon="3.10049">
        <ele>185</ele>
        <time>2025-12-29T12:24:41.875Z</time>
      </trkpt>
      <trkpt lat="43.1519" lon="3.10049">
        <ele>185</ele>
        <time>2025-12-29T12:24:42.875Z</time>
      </trkpt>
      <trkpt lat="43.1519" lon="3.10049">
        <ele>185</ele>
        <time>2025-12-29T12:24:43.875Z</time>
      </trkpt>
      <trkpt lat="43.15191" lon="3.10049">
        <ele>185</ele>
        <time>2025-12-29T12:24:44.875Z</time>
      </trkpt>
      <trkpt lat="43.15191" lon="3.10049">
        <ele>185</ele>
        <time>2025-12-29T12:24:45.875Z</time>
      </trkpt>
      <trkpt lat="43.15191" lon="3.10049">
        <ele>186</ele>
        <time>2025-12-29T12:24:46.875Z</time>
      </trkpt>
      <trkpt lat="43.15191" lon="3.10049">
        <ele>186</ele>
        <time>2025-12-29T12:24:47.875Z</time>
      </trkpt>
      <trkpt lat="43.15191" lon="3.10049">
        <ele>186</ele>
        <time>2025-12-29T12:24:48.875Z</time>
      </trkpt>
      <trkpt lat="43.15191" lon="3.10049">
        <ele>186</ele>
        <time>2025-12-29T12:24:49.875Z</time>
      </trkpt>
      <trkpt lat="43.1519" lon="3.10049">
        <ele>186</ele>
        <time>2025-12-29T12:24:50.875Z</time>
      </trkpt>
      <trkpt lat="43.1519" lon="3.10048">
        <ele>186</ele>
        <time>2025-12-29T12:24:51.875Z</time>
      </trkpt>
      <trkpt lat="43.15189" lon="3.10048">
        <ele>186</ele>
        <time>2025-12-29T12:24:52.875Z</time>
      </trkpt>
      <trkpt lat="43.15189" lon="3.10048">
        <ele>186</ele>
        <time>2025-12-29T12:24:53.875Z</time>
      </trkpt>
      <trkpt lat="43.15188" lon="3.10047">
        <ele>186</ele>
        <time>2025-12-29T12:24:54.875Z</time>
      </trkpt>
      <trkpt lat="43.15188" lon="3.10047">
        <ele>186</ele>
        <time>2025-12-29T12:24:55.875Z</time>
      </trkpt>
      <trkpt lat="43.15187" lon="3.10047">
        <ele>186</ele>
        <time>2025-12-29T12:24:56.875Z</time>
      </trkpt>
      <trkpt lat="43.15187" lon="3.10046">
        <ele>186</ele>
        <time>2025-12-29T12:24:57.875Z</time>
      </trkpt>
      <trkpt lat="43.15186" lon="3.10046">
        <ele>186</ele>
        <time>2025-12-29T12:24:58.875Z</time>
      </trkpt>
      <trkpt lat="43.15186" lon="3.10046">
        <ele>186</ele>
        <time>2025-12-29T12:24:59.875Z</time>
      </trkpt>
      <trkpt lat="43.15185" lon="3.10045">
        <ele>185</ele>
        <time>2025-12-29T12:25:00.875Z</time>
      </trkpt>
      <trkpt lat="43.15184" lon="3.10044">
        <ele>185</ele>
        <time>2025-12-29T12:25:01.875Z</time>
      </trkpt>
      <trkpt lat="43.15184" lon="3.10043">
        <ele>185</ele>
        <time>2025-12-29T12:25:02.875Z</time>
      </trkpt>
      <trkpt lat="43.15184" lon="3.10042">
        <ele>186</ele>
        <time>2025-12-29T12:25:03.875Z</time>
      </trkpt>
      <trkpt lat="43.15184" lon="3.10041">
        <ele>186</ele>
        <time>2025-12-29T12:25:04.875Z</time>
      </trkpt>
      <trkpt lat="43.15183" lon="3.1004">
        <ele>185</ele>
        <time>2025-12-29T12:25:05.875Z</time>
      </trkpt>
      <trkpt lat="43.15183" lon="3.10038">
        <ele>185</ele>
        <time>2025-12-29T12:25:06.875Z</time>
      </trkpt>
      <trkpt lat="43.15183" lon="3.10036">
        <ele>185</ele>
        <time>2025-12-29T12:25:07.875Z</time>
      </trkpt>
      <trkpt lat="43.15183" lon="3.10034">
        <ele>185</ele>
        <time>2025-12-29T12:25:08.875Z</time>
      </trkpt>
      <trkpt lat="43.15182" lon="3.10033">
        <ele>185</ele>
        <time>2025-12-29T12:25:09.875Z</time>
      </trkpt>
      <trkpt lat="43.15182" lon="3.10031">
        <ele>185</ele>
        <time>2025-12-29T12:25:10.875Z</time>
      </trkpt>
      <trkpt lat="43.15181" lon="3.1003">
        <ele>185</ele>
        <time>2025-12-29T12:25:11.875Z</time>
      </trkpt>
      <trkpt lat="43.15181" lon="3.10029">
        <ele>185</ele>
        <time>2025-12-29T12:25:12.875Z</time>
      </trkpt>
      <trkpt lat="43.1518" lon="3.10027">
        <ele>185</ele>
        <time>2025-12-29T12:25:13.875Z</time>
      </trkpt>
      <trkpt lat="43.1518" lon="3.10026">
        <ele>185</ele>
        <time>2025-12-29T12:25:14.875Z</time>
      </trkpt>
      <trkpt lat="43.1518" lon="3.10025">
        <ele>184</ele>
        <time>2025-12-29T12:25:15.875Z</time>
      </trkpt>
      <trkpt lat="43.15179" lon="3.10023">
        <ele>184</ele>
        <time>2025-12-29T12:25:16.875Z</time>
      </trkpt>
      <trkpt lat="43.15179" lon="3.10022">
        <ele>184</ele>
        <time>2025-12-29T12:25:17.875Z</time>
      </trkpt>
      <trkpt lat="43.15179" lon="3.1002">
        <ele>184</ele>
        <time>2025-12-29T12:25:18.875Z</time>
      </trkpt>
      <trkpt lat="43.15179" lon="3.10018">
        <ele>184</ele>
        <time>2025-12-29T12:25:19.875Z</time>
      </trkpt>
      <trkpt lat="43.15178" lon="3.10017">
        <ele>184</ele>
        <time>2025-12-29T12:25:20.875Z</time>
      </trkpt>
      <trkpt lat="43.15178" lon="3.10015">
        <ele>184</ele>
        <time>2025-12-29T12:25:21.875Z</time>
      </trkpt>
      <trkpt lat="43.15178" lon="3.10014">
        <ele>184</ele>
        <time>2025-12-29T12:25:22.875Z</time>
      </trkpt>
      <trkpt lat="43.15177" lon="3.10013">
        <ele>184</ele>
        <time>2025-12-29T12:25:23.875Z</time>
      </trkpt>
      <trkpt lat="43.15176" lon="3.10012">
        <ele>184</ele>
        <time>2025-12-29T12:25:24.875Z</time>
      </trkpt>
      <trkpt lat="43.15176" lon="3.10011">
        <ele>184</ele>
        <time>2025-12-29T12:25:25.875Z</time>
      </trkpt>
      <trkpt lat="43.15175" lon="3.1001">
        <ele>183</ele>
        <time>2025-12-29T12:25:26.875Z</time>
      </trkpt>
      <trkpt lat="43.15174" lon="3.10009">
        <ele>183</ele>
        <time>2025-12-29T12:25:27.875Z</time>
      </trkpt>
      <trkpt lat="43.15173" lon="3.10008">
        <ele>183</ele>
        <time>2025-12-29T12:25:28.875Z</time>
      </trkpt>
      <trkpt lat="43.15173" lon="3.10007">
        <ele>183</ele>
        <time>2025-12-29T12:25:29.875Z</time>
      </trkpt>
      <trkpt lat="43.15172" lon="3.10006">
        <ele>183</ele>
        <time>2025-12-29T12:25:30.875Z</time>
      </trkpt>
      <trkpt lat="43.15171" lon="3.10004">
        <ele>183</ele>
        <time>2025-12-29T12:25:31.875Z</time>
      </trkpt>
      <trkpt lat="43.1517" lon="3.10003">
        <ele>183</ele>
        <time>2025-12-29T12:25:32.875Z</time>
      </trkpt>
      <trkpt lat="43.1517" lon="3.10002">
        <ele>183</ele>
        <time>2025-12-29T12:25:33.875Z</time>
      </trkpt>
      <trkpt lat="43.1517" lon="3.10001">
        <ele>183</ele>
        <time>2025-12-29T12:25:34.875Z</time>
      </trkpt>
      <trkpt lat="43.15169" lon="3.1">
        <ele>183</ele>
        <time>2025-12-29T12:25:35.875Z</time>
      </trkpt>
      <trkpt lat="43.15169" lon="3.09999">
        <ele>183</ele>
        <time>2025-12-29T12:25:36.875Z</time>
      </trkpt>
      <trkpt lat="43.15168" lon="3.09997">
        <ele>183</ele>
        <time>2025-12-29T12:25:37.875Z</time>
      </trkpt>
      <trkpt lat="43.15168" lon="3.09996">
        <ele>183</ele>
        <time>2025-12-29T12:25:38.875Z</time>
      </trkpt>
      <trkpt lat="43.15167" lon="3.09994">
        <ele>183</ele>
        <time>2025-12-29T12:25:39.875Z</time>
      </trkpt>
      <trkpt lat="43.15167" lon="3.09993">
        <ele>183</ele>
        <time>2025-12-29T12:25:40.875Z</time>
      </trkpt>
      <trkpt lat="43.15166" lon="3.09992">
        <ele>183</ele>
        <time>2025-12-29T12:25:41.875Z</time>
      </trkpt>
      <trkpt lat="43.15166" lon="3.09991">
        <ele>183</ele>
        <time>2025-12-29T12:25:42.875Z</time>
      </trkpt>
      <trkpt lat="43.15166" lon="3.09989">
        <ele>183</ele>
        <time>2025-12-29T12:25:43.875Z</time>
      </trkpt>
      <trkpt lat="43.15166" lon="3.09988">
        <ele>183</ele>
        <time>2025-12-29T12:25:44.875Z</time>
      </trkpt>
      <trkpt lat="43.15166" lon="3.09986">
        <ele>183</ele>
        <time>2025-12-29T12:25:45.875Z</time>
      </trkpt>
      <trkpt lat="43.15166" lon="3.09985">
        <ele>183</ele>
        <time>2025-12-29T12:25:46.875Z</time>
      </trkpt>
      <trkpt lat="43.15165" lon="3.09984">
        <ele>183</ele>
        <time>2025-12-29T12:25:47.875Z</time>
      </trkpt>
      <trkpt lat="43.15165" lon="3.09983">
        <ele>183</ele>
        <time>2025-12-29T12:25:48.875Z</time>
      </trkpt>
      <trkpt lat="43.15165" lon="3.09982">
        <ele>183</ele>
        <time>2025-12-29T12:25:49.875Z</time>
      </trkpt>
      <trkpt lat="43.15165" lon="3.09981">
        <ele>183</ele>
        <time>2025-12-29T12:25:50.875Z</time>
      </trkpt>
      <trkpt lat="43.15164" lon="3.0998">
        <ele>184</ele>
        <time>2025-12-29T12:25:51.875Z</time>
      </trkpt>
      <trkpt lat="43.15163" lon="3.09978">
        <ele>184</ele>
        <time>2025-12-29T12:25:52.875Z</time>
      </trkpt>
      <trkpt lat="43.15162" lon="3.09977">
        <ele>184</ele>
        <time>2025-12-29T12:25:53.875Z</time>
      </trkpt>
      <trkpt lat="43.15161" lon="3.09975">
        <ele>185</ele>
        <time>2025-12-29T12:25:54.875Z</time>
      </trkpt>
      <trkpt lat="43.1516" lon="3.09974">
        <ele>185</ele>
        <time>2025-12-29T12:25:55.875Z</time>
      </trkpt>
      <trkpt lat="43.15159" lon="3.09973">
        <ele>185</ele>
        <time>2025-12-29T12:25:56.875Z</time>
      </trkpt>
      <trkpt lat="43.15158" lon="3.09973">
        <ele>186</ele>
        <time>2025-12-29T12:25:57.875Z</time>
      </trkpt>
      <trkpt lat="43.15157" lon="3.09972">
        <ele>186</ele>
        <time>2025-12-29T12:25:58.875Z</time>
      </trkpt>
      <trkpt lat="43.15156" lon="3.09972">
        <ele>186</ele>
        <time>2025-12-29T12:25:59.875Z</time>
      </trkpt>
      <trkpt lat="43.15155" lon="3.09972">
        <ele>185</ele>
        <time>2025-12-29T12:26:00.875Z</time>
      </trkpt>
      <trkpt lat="43.15154" lon="3.09971">
        <ele>185</ele>
        <time>2025-12-29T12:26:01.875Z</time>
      </trkpt>
      <trkpt lat="43.15153" lon="3.09971">
        <ele>185</ele>
        <time>2025-12-29T12:26:02.875Z</time>
      </trkpt>
      <trkpt lat="43.15152" lon="3.0997">
        <ele>185</ele>
        <time>2025-12-29T12:26:03.875Z</time>
      </trkpt>
      <trkpt lat="43.15151" lon="3.0997">
        <ele>185</ele>
        <time>2025-12-29T12:26:04.875Z</time>
      </trkpt>
      <trkpt lat="43.1515" lon="3.09969">
        <ele>184</ele>
        <time>2025-12-29T12:26:05.875Z</time>
      </trkpt>
      <trkpt lat="43.15149" lon="3.09968">
        <ele>184</ele>
        <time>2025-12-29T12:26:06.875Z</time>
      </trkpt>
      <trkpt lat="43.15148" lon="3.09967">
        <ele>184</ele>
        <time>2025-12-29T12:26:07.875Z</time>
      </trkpt>
      <trkpt lat="43.15148" lon="3.09966">
        <ele>184</ele>
        <time>2025-12-29T12:26:08.875Z</time>
      </trkpt>
      <trkpt lat="43.15147" lon="3.09966">
        <ele>184</ele>
        <time>2025-12-29T12:26:09.875Z</time>
      </trkpt>
      <trkpt lat="43.15146" lon="3.09965">
        <ele>183</ele>
        <time>2025-12-29T12:26:10.875Z</time>
      </trkpt>
      <trkpt lat="43.15145" lon="3.09964">
        <ele>183</ele>
        <time>2025-12-29T12:26:11.875Z</time>
      </trkpt>
      <trkpt lat="43.15145" lon="3.09963">
        <ele>183</ele>
        <time>2025-12-29T12:26:12.875Z</time>
      </trkpt>
      <trkpt lat="43.15144" lon="3.09962">
        <ele>183</ele>
        <time>2025-12-29T12:26:13.875Z</time>
      </trkpt>
      <trkpt lat="43.15143" lon="3.09961">
        <ele>182</ele>
        <time>2025-12-29T12:26:14.875Z</time>
      </trkpt>
      <trkpt lat="43.15142" lon="3.09959">
        <ele>182</ele>
        <time>2025-12-29T12:26:15.875Z</time>
      </trkpt>
      <trkpt lat="43.15141" lon="3.09958">
        <ele>182</ele>
        <time>2025-12-29T12:26:16.875Z</time>
      </trkpt>
      <trkpt lat="43.1514" lon="3.09957">
        <ele>182</ele>
        <time>2025-12-29T12:26:17.875Z</time>
      </trkpt>
      <trkpt lat="43.1514" lon="3.09956">
        <ele>182</ele>
        <time>2025-12-29T12:26:18.875Z</time>
      </trkpt>
      <trkpt lat="43.15139" lon="3.09955">
        <ele>183</ele>
        <time>2025-12-29T12:26:19.875Z</time>
      </trkpt>
      <trkpt lat="43.15138" lon="3.09953">
        <ele>183</ele>
        <time>2025-12-29T12:26:20.875Z</time>
      </trkpt>
      <trkpt lat="43.15138" lon="3.09952">
        <ele>183</ele>
        <time>2025-12-29T12:26:21.875Z</time>
      </trkpt>
      <trkpt lat="43.15137" lon="3.0995">
        <ele>182</ele>
        <time>2025-12-29T12:26:22.875Z</time>
      </trkpt>
      <trkpt lat="43.15136" lon="3.09948">
        <ele>182</ele>
        <time>2025-12-29T12:26:23.875Z</time>
      </trkpt>
      <trkpt lat="43.15136" lon="3.09946">
        <ele>182</ele>
        <time>2025-12-29T12:26:24.875Z</time>
      </trkpt>
      <trkpt lat="43.15135" lon="3.09945">
        <ele>182</ele>
        <time>2025-12-29T12:26:25.875Z</time>
      </trkpt>
      <trkpt lat="43.15134" lon="3.09943">
        <ele>182</ele>
        <time>2025-12-29T12:26:26.875Z</time>
      </trkpt>
      <trkpt lat="43.15133" lon="3.09943">
        <ele>182</ele>
        <time>2025-12-29T12:26:27.875Z</time>
      </trkpt>
      <trkpt lat="43.15132" lon="3.09942">
        <ele>182</ele>
        <time>2025-12-29T12:26:28.875Z</time>
      </trkpt>
      <trkpt lat="43.15132" lon="3.09941">
        <ele>183</ele>
        <time>2025-12-29T12:26:29.875Z</time>
      </trkpt>
      <trkpt lat="43.15131" lon="3.09939">
        <ele>183</ele>
        <time>2025-12-29T12:26:30.875Z</time>
      </trkpt>
      <trkpt lat="43.1513" lon="3.09938">
        <ele>183</ele>
        <time>2025-12-29T12:26:31.875Z</time>
      </trkpt>
      <trkpt lat="43.1513" lon="3.09936">
        <ele>183</ele>
        <time>2025-12-29T12:26:32.875Z</time>
      </trkpt>
      <trkpt lat="43.15129" lon="3.09935">
        <ele>183</ele>
        <time>2025-12-29T12:26:33.875Z</time>
      </trkpt>
      <trkpt lat="43.15129" lon="3.09933">
        <ele>183</ele>
        <time>2025-12-29T12:26:34.875Z</time>
      </trkpt>
      <trkpt lat="43.15128" lon="3.09932">
        <ele>183</ele>
        <time>2025-12-29T12:26:35.875Z</time>
      </trkpt>
      <trkpt lat="43.15127" lon="3.09931">
        <ele>183</ele>
        <time>2025-12-29T12:26:36.875Z</time>
      </trkpt>
      <trkpt lat="43.15126" lon="3.0993">
        <ele>183</ele>
        <time>2025-12-29T12:26:37.875Z</time>
      </trkpt>
      <trkpt lat="43.15125" lon="3.09929">
        <ele>183</ele>
        <time>2025-12-29T12:26:38.875Z</time>
      </trkpt>
      <trkpt lat="43.15124" lon="3.09928">
        <ele>183</ele>
        <time>2025-12-29T12:26:39.875Z</time>
      </trkpt>
      <trkpt lat="43.15123" lon="3.09926">
        <ele>183</ele>
        <time>2025-12-29T12:26:40.875Z</time>
      </trkpt>
      <trkpt lat="43.15122" lon="3.09924">
        <ele>183</ele>
        <time>2025-12-29T12:26:41.875Z</time>
      </trkpt>
      <trkpt lat="43.15122" lon="3.09922">
        <ele>183</ele>
        <time>2025-12-29T12:26:42.875Z</time>
      </trkpt>
      <trkpt lat="43.15121" lon="3.09921">
        <ele>183</ele>
        <time>2025-12-29T12:26:43.875Z</time>
      </trkpt>
      <trkpt lat="43.1512" lon="3.09919">
        <ele>183</ele>
        <time>2025-12-29T12:26:44.875Z</time>
      </trkpt>
      <trkpt lat="43.15119" lon="3.09918">
        <ele>183</ele>
        <time>2025-12-29T12:26:45.875Z</time>
      </trkpt>
      <trkpt lat="43.15119" lon="3.09917">
        <ele>183</ele>
        <time>2025-12-29T12:26:46.875Z</time>
      </trkpt>
      <trkpt lat="43.15119" lon="3.09916">
        <ele>183</ele>
        <time>2025-12-29T12:26:47.875Z</time>
      </trkpt>
      <trkpt lat="43.15118" lon="3.09915">
        <ele>183</ele>
        <time>2025-12-29T12:26:48.875Z</time>
      </trkpt>
      <trkpt lat="43.15117" lon="3.09914">
        <ele>183</ele>
        <time>2025-12-29T12:26:49.875Z</time>
      </trkpt>
      <trkpt lat="43.15117" lon="3.09912">
        <ele>183</ele>
        <time>2025-12-29T12:26:50.875Z</time>
      </trkpt>
      <trkpt lat="43.15116" lon="3.0991">
        <ele>183</ele>
        <time>2025-12-29T12:26:51.875Z</time>
      </trkpt>
      <trkpt lat="43.15115" lon="3.09909">
        <ele>183</ele>
        <time>2025-12-29T12:26:52.875Z</time>
      </trkpt>
      <trkpt lat="43.15114" lon="3.09907">
        <ele>183</ele>
        <time>2025-12-29T12:26:53.875Z</time>
      </trkpt>
      <trkpt lat="43.15114" lon="3.09907">
        <ele>183</ele>
        <time>2025-12-29T12:26:54.875Z</time>
      </trkpt>
      <trkpt lat="43.15113" lon="3.09906">
        <ele>183</ele>
        <time>2025-12-29T12:26:55.875Z</time>
      </trkpt>
      <trkpt lat="43.15112" lon="3.09905">
        <ele>183</ele>
        <time>2025-12-29T12:26:56.875Z</time>
      </trkpt>
      <trkpt lat="43.15111" lon="3.09904">
        <ele>183</ele>
        <time>2025-12-29T12:26:57.875Z</time>
      </trkpt>
      <trkpt lat="43.1511" lon="3.09903">
        <ele>183</ele>
        <time>2025-12-29T12:26:58.875Z</time>
      </trkpt>
      <trkpt lat="43.15109" lon="3.09902">
        <ele>182</ele>
        <time>2025-12-29T12:26:59.875Z</time>
      </trkpt>
      <trkpt lat="43.15108" lon="3.09901">
        <ele>183</ele>
        <time>2025-12-29T12:27:00.875Z</time>
      </trkpt>
      <trkpt lat="43.15108" lon="3.09901">
        <ele>183</ele>
        <time>2025-12-29T12:27:01.875Z</time>
      </trkpt>
      <trkpt lat="43.15107" lon="3.099">
        <ele>182</ele>
        <time>2025-12-29T12:27:02.875Z</time>
      </trkpt>
      <trkpt lat="43.15106" lon="3.099">
        <ele>182</ele>
        <time>2025-12-29T12:27:03.875Z</time>
      </trkpt>
      <trkpt lat="43.15105" lon="3.09899">
        <ele>182</ele>
        <time>2025-12-29T12:27:04.875Z</time>
      </trkpt>
      <trkpt lat="43.15105" lon="3.09898">
        <ele>182</ele>
        <time>2025-12-29T12:27:05.875Z</time>
      </trkpt>
      <trkpt lat="43.15104" lon="3.09897">
        <ele>182</ele>
        <time>2025-12-29T12:27:06.875Z</time>
      </trkpt>
      <trkpt lat="43.15103" lon="3.09897">
        <ele>182</ele>
        <time>2025-12-29T12:27:07.875Z</time>
      </trkpt>
      <trkpt lat="43.15102" lon="3.09896">
        <ele>182</ele>
        <time>2025-12-29T12:27:08.875Z</time>
      </trkpt>
      <trkpt lat="43.15102" lon="3.09896">
        <ele>182</ele>
        <time>2025-12-29T12:27:09.875Z</time>
      </trkpt>
      <trkpt lat="43.15101" lon="3.09896">
        <ele>182</ele>
        <time>2025-12-29T12:27:10.875Z</time>
      </trkpt>
      <trkpt lat="43.15101" lon="3.09896">
        <ele>182</ele>
        <time>2025-12-29T12:27:11.875Z</time>
      </trkpt>
      <trkpt lat="43.15101" lon="3.09896">
        <ele>182</ele>
        <time>2025-12-29T12:27:12.875Z</time>
      </trkpt>
      <trkpt lat="43.151" lon="3.09896">
        <ele>182</ele>
        <time>2025-12-29T12:27:13.875Z</time>
      </trkpt>
      <trkpt lat="43.151" lon="3.09897">
        <ele>181</ele>
        <time>2025-12-29T12:27:14.875Z</time>
      </trkpt>
      <trkpt lat="43.151" lon="3.09896">
        <ele>181</ele>
        <time>2025-12-29T12:27:15.875Z</time>
      </trkpt>
      <trkpt lat="43.151" lon="3.09896">
        <ele>181</ele>
        <time>2025-12-29T12:27:16.875Z</time>
      </trkpt>
      <trkpt lat="43.15101" lon="3.09896">
        <ele>181</ele>
        <time>2025-12-29T12:27:17.875Z</time>
      </trkpt>
      <trkpt lat="43.15101" lon="3.09896">
        <ele>181</ele>
        <time>2025-12-29T12:27:18.875Z</time>
      </trkpt>
      <trkpt lat="43.15101" lon="3.09896">
        <ele>180</ele>
        <time>2025-12-29T12:27:19.875Z</time>
      </trkpt>
      <trkpt lat="43.15101" lon="3.09896">
        <ele>180</ele>
        <time>2025-12-29T12:27:20.875Z</time>
      </trkpt>
      <trkpt lat="43.15102" lon="3.09896">
        <ele>180</ele>
        <time>2025-12-29T12:27:21.875Z</time>
      </trkpt>
      <trkpt lat="43.15102" lon="3.09896">
        <ele>180</ele>
        <time>2025-12-29T12:27:22.875Z</time>
      </trkpt>
      <trkpt lat="43.15102" lon="3.09896">
        <ele>180</ele>
        <time>2025-12-29T12:27:23.875Z</time>
      </trkpt>
      <trkpt lat="43.15101" lon="3.09896">
        <ele>180</ele>
        <time>2025-12-29T12:27:24.875Z</time>
      </trkpt>
      <trkpt lat="43.15101" lon="3.09897">
        <ele>180</ele>
        <time>2025-12-29T12:27:25.875Z</time>
      </trkpt>
      <trkpt lat="43.151" lon="3.09896">
        <ele>179</ele>
        <time>2025-12-29T12:27:26.875Z</time>
      </trkpt>
      <trkpt lat="43.15099" lon="3.09896">
        <ele>179</ele>
        <time>2025-12-29T12:27:27.875Z</time>
      </trkpt>
      <trkpt lat="43.15099" lon="3.09896">
        <ele>179</ele>
        <time>2025-12-29T12:27:28.875Z</time>
      </trkpt>
      <trkpt lat="43.15098" lon="3.09896">
        <ele>179</ele>
        <time>2025-12-29T12:27:29.875Z</time>
      </trkpt>
      <trkpt lat="43.15098" lon="3.09896">
        <ele>179</ele>
        <time>2025-12-29T12:27:30.875Z</time>
      </trkpt>
      <trkpt lat="43.15097" lon="3.09896">
        <ele>180</ele>
        <time>2025-12-29T12:27:31.875Z</time>
      </trkpt>
      <trkpt lat="43.15097" lon="3.09896">
        <ele>180</ele>
        <time>2025-12-29T12:27:32.875Z</time>
      </trkpt>
      <trkpt lat="43.15097" lon="3.09896">
        <ele>180</ele>
        <time>2025-12-29T12:27:33.875Z</time>
      </trkpt>
      <trkpt lat="43.15097" lon="3.09896">
        <ele>180</ele>
        <time>2025-12-29T12:27:34.875Z</time>
      </trkpt>
      <trkpt lat="43.15097" lon="3.09896">
        <ele>180</ele>
        <time>2025-12-29T12:27:35.875Z</time>
      </trkpt>
      <trkpt lat="43.15097" lon="3.09896">
        <ele>180</ele>
        <time>2025-12-29T12:27:36.875Z</time>
      </trkpt>
      <trkpt lat="43.15097" lon="3.09896">
        <ele>180</ele>
        <time>2025-12-29T12:27:37.875Z</time>
      </trkpt>
      <trkpt lat="43.15097" lon="3.09896">
        <ele>179</ele>
        <time>2025-12-29T12:27:38.875Z</time>
      </trkpt>
      <trkpt lat="43.15097" lon="3.09896">
        <ele>179</ele>
        <time>2025-12-29T12:27:39.875Z</time>
      </trkpt>
      <trkpt lat="43.15097" lon="3.09896">
        <ele>179</ele>
        <time>2025-12-29T12:27:40.875Z</time>
      </trkpt>
      <trkpt lat="43.15097" lon="3.09896">
        <ele>179</ele>
        <time>2025-12-29T12:27:41.875Z</time>
      </trkpt>
      <trkpt lat="43.15096" lon="3.09897">
        <ele>179</ele>
        <time>2025-12-29T12:27:42.875Z</time>
      </trkpt>
      <trkpt lat="43.15096" lon="3.09897">
        <ele>179</ele>
        <time>2025-12-29T12:27:43.875Z</time>
      </trkpt>
      <trkpt lat="43.15096" lon="3.09897">
        <ele>180</ele>
        <time>2025-12-29T12:27:44.875Z</time>
      </trkpt>
      <trkpt lat="43.15096" lon="3.09898">
        <ele>180</ele>
        <time>2025-12-29T12:27:45.875Z</time>
      </trkpt>
      <trkpt lat="43.15096" lon="3.09898">
        <ele>180</ele>
        <time>2025-12-29T12:27:46.875Z</time>
      </trkpt>
      <trkpt lat="43.15096" lon="3.09898">
        <ele>181</ele>
        <time>2025-12-29T12:27:47.875Z</time>
      </trkpt>
      <trkpt lat="43.15096" lon="3.09898">
        <ele>181</ele>
        <time>2025-12-29T12:27:48.875Z</time>
      </trkpt>
      <trkpt lat="43.15096" lon="3.09898">
        <ele>181</ele>
        <time>2025-12-29T12:27:49.875Z</time>
      </trkpt>
      <trkpt lat="43.15096" lon="3.09898">
        <ele>181</ele>
        <time>2025-12-29T12:27:50.875Z</time>
      </trkpt>
      <trkpt lat="43.15096" lon="3.09898">
        <ele>180</ele>
        <time>2025-12-29T12:27:51.875Z</time>
      </trkpt>
      <trkpt lat="43.15096" lon="3.09898">
        <ele>180</ele>
        <time>2025-12-29T12:27:52.875Z</time>
      </trkpt>
      <trkpt lat="43.15096" lon="3.09898">
        <ele>180</ele>
        <time>2025-12-29T12:27:53.875Z</time>
      </trkpt>
      <trkpt lat="43.15096" lon="3.09898">
        <ele>180</ele>
        <time>2025-12-29T12:27:54.875Z</time>
      </trkpt>
      <trkpt lat="43.15096" lon="3.09898">
        <ele>180</ele>
        <time>2025-12-29T12:27:55.875Z</time>
      </trkpt>
      <trkpt lat="43.15096" lon="3.09898">
        <ele>180</ele>
        <time>2025-12-29T12:27:56.875Z</time>
      </trkpt>
      <trkpt lat="43.15096" lon="3.09898">
        <ele>181</ele>
        <time>2025-12-29T12:27:57.875Z</time>
      </trkpt>
      <trkpt lat="43.15096" lon="3.09898">
        <ele>181</ele>
        <time>2025-12-29T12:27:58.875Z</time>
      </trkpt>
      <trkpt lat="43.15096" lon="3.09898">
        <ele>181</ele>
        <time>2025-12-29T12:27:59.875Z</time>
      </trkpt>
      <trkpt lat="43.15096" lon="3.09898">
        <ele>181</ele>
        <time>2025-12-29T12:28:00.875Z</time>
      </trkpt>
      <trkpt lat="43.15096" lon="3.09898">
        <ele>182</ele>
        <time>2025-12-29T12:28:01.875Z</time>
      </trkpt>
      <trkpt lat="43.15096" lon="3.09898">
        <ele>182</ele>
        <time>2025-12-29T12:28:02.875Z</time>
      </trkpt>
      <trkpt lat="43.15096" lon="3.09898">
        <ele>182</ele>
        <time>2025-12-29T12:28:03.875Z</time>
      </trkpt>
      <trkpt lat="43.15096" lon="3.09898">
        <ele>182</ele>
        <time>2025-12-29T12:28:04.875Z</time>
      </trkpt>
      <trkpt lat="43.15096" lon="3.09898">
        <ele>182</ele>
        <time>2025-12-29T12:28:05.875Z</time>
      </trkpt>
      <trkpt lat="43.15096" lon="3.09898">
        <ele>182</ele>
        <time>2025-12-29T12:28:06.875Z</time>
      </trkpt>
      <trkpt lat="43.15096" lon="3.09898">
        <ele>182</ele>
        <time>2025-12-29T12:28:07.875Z</time>
      </trkpt>
      <trkpt lat="43.15096" lon="3.09898">
        <ele>182</ele>
        <time>2025-12-29T12:28:08.875Z</time>
      </trkpt>
      <trkpt lat="43.15096" lon="3.09898">
        <ele>182</ele>
        <time>2025-12-29T12:28:09.875Z</time>
      </trkpt>
      <trkpt lat="43.15096" lon="3.09898">
        <ele>182</ele>
        <time>2025-12-29T12:28:10.875Z</time>
      </trkpt>
      <trkpt lat="43.15096" lon="3.09898">
        <ele>182</ele>
        <time>2025-12-29T12:28:11.875Z</time>
      </trkpt>
      <trkpt lat="43.15096" lon="3.09898">
        <ele>182</ele>
        <time>2025-12-29T12:28:12.875Z</time>
      </trkpt>
      <trkpt lat="43.15096" lon="3.09898">
        <ele>181</ele>
        <time>2025-12-29T12:28:13.875Z</time>
      </trkpt>
      <trkpt lat="43.15096" lon="3.09898">
        <ele>181</ele>
        <time>2025-12-29T12:28:14.875Z</time>
      </trkpt>
      <trkpt lat="43.15096" lon="3.09898">
        <ele>181</ele>
        <time>2025-12-29T12:28:15.875Z</time>
      </trkpt>
      <trkpt lat="43.15096" lon="3.09898">
        <ele>180</ele>
        <time>2025-12-29T12:28:16.875Z</time>
      </trkpt>
      <trkpt lat="43.15096" lon="3.09898">
        <ele>180</ele>
        <time>2025-12-29T12:28:17.875Z</time>
      </trkpt>
      <trkpt lat="43.15096" lon="3.09898">
        <ele>180</ele>
        <time>2025-12-29T12:28:18.875Z</time>
      </trkpt>
      <trkpt lat="43.15096" lon="3.09898">
        <ele>180</ele>
        <time>2025-12-29T12:28:19.875Z</time>
      </trkpt>
      <trkpt lat="43.15096" lon="3.09898">
        <ele>181</ele>
        <time>2025-12-29T12:28:20.875Z</time>
      </trkpt>
      <trkpt lat="43.15096" lon="3.09898">
        <ele>181</ele>
        <time>2025-12-29T12:28:21.875Z</time>
      </trkpt>
      <trkpt lat="43.15096" lon="3.09898">
        <ele>182</ele>
        <time>2025-12-29T12:28:22.875Z</time>
      </trkpt>
      <trkpt lat="43.15096" lon="3.09898">
        <ele>182</ele>
        <time>2025-12-29T12:28:23.875Z</time>
      </trkpt>
      <trkpt lat="43.15096" lon="3.09898">
        <ele>182</ele>
        <time>2025-12-29T12:28:24.875Z</time>
      </trkpt>
      <trkpt lat="43.15096" lon="3.09898">
        <ele>183</ele>
        <time>2025-12-29T12:28:25.875Z</time>
      </trkpt>
      <trkpt lat="43.15096" lon="3.09898">
        <ele>183</ele>
        <time>2025-12-29T12:28:26.875Z</time>
      </trkpt>
      <trkpt lat="43.15096" lon="3.09898">
        <ele>183</ele>
        <time>2025-12-29T12:28:27.875Z</time>
      </trkpt>
      <trkpt lat="43.15096" lon="3.09898">
        <ele>182</ele>
        <time>2025-12-29T12:28:28.876Z</time>
      </trkpt>
      <trkpt lat="43.15096" lon="3.09898">
        <ele>182</ele>
        <time>2025-12-29T12:28:29.875Z</time>
      </trkpt>
      <trkpt lat="43.15095" lon="3.09897">
        <ele>182</ele>
        <time>2025-12-29T12:28:30.875Z</time>
      </trkpt>
      <trkpt lat="43.15095" lon="3.09897">
        <ele>182</ele>
        <time>2025-12-29T12:28:31.875Z</time>
      </trkpt>
      <trkpt lat="43.15094" lon="3.09896">
        <ele>182</ele>
        <time>2025-12-29T12:28:32.875Z</time>
      </trkpt>
      <trkpt lat="43.15094" lon="3.09896">
        <ele>182</ele>
        <time>2025-12-29T12:28:33.875Z</time>
      </trkpt>
      <trkpt lat="43.15093" lon="3.09895">
        <ele>182</ele>
        <time>2025-12-29T12:28:34.875Z</time>
      </trkpt>
      <trkpt lat="43.15093" lon="3.09894">
        <ele>182</ele>
        <time>2025-12-29T12:28:35.875Z</time>
      </trkpt>
      <trkpt lat="43.15093" lon="3.09893">
        <ele>182</ele>
        <time>2025-12-29T12:28:36.875Z</time>
      </trkpt>
      <trkpt lat="43.15092" lon="3.09892">
        <ele>182</ele>
        <time>2025-12-29T12:28:37.875Z</time>
      </trkpt>
      <trkpt lat="43.15092" lon="3.09892">
        <ele>183</ele>
        <time>2025-12-29T12:28:38.875Z</time>
      </trkpt>
      <trkpt lat="43.15092" lon="3.09891">
        <ele>183</ele>
        <time>2025-12-29T12:28:39.875Z</time>
      </trkpt>
      <trkpt lat="43.15091" lon="3.09891">
        <ele>183</ele>
        <time>2025-12-29T12:28:40.875Z</time>
      </trkpt>
      <trkpt lat="43.15091" lon="3.09891">
        <ele>183</ele>
        <time>2025-12-29T12:28:41.875Z</time>
      </trkpt>
      <trkpt lat="43.15091" lon="3.09891">
        <ele>183</ele>
        <time>2025-12-29T12:28:42.875Z</time>
      </trkpt>
      <trkpt lat="43.1509" lon="3.0989">
        <ele>183</ele>
        <time>2025-12-29T12:28:43.875Z</time>
      </trkpt>
      <trkpt lat="43.1509" lon="3.0989">
        <ele>183</ele>
        <time>2025-12-29T12:28:44.875Z</time>
      </trkpt>
      <trkpt lat="43.1509" lon="3.0989">
        <ele>183</ele>
        <time>2025-12-29T12:28:45.875Z</time>
      </trkpt>
      <trkpt lat="43.15089" lon="3.0989">
        <ele>183</ele>
        <time>2025-12-29T12:28:46.875Z</time>
      </trkpt>
      <trkpt lat="43.15089" lon="3.0989">
        <ele>182</ele>
        <time>2025-12-29T12:28:47.875Z</time>
      </trkpt>
      <trkpt lat="43.15088" lon="3.0989">
        <ele>182</ele>
        <time>2025-12-29T12:28:48.875Z</time>
      </trkpt>
      <trkpt lat="43.15088" lon="3.0989">
        <ele>181</ele>
        <time>2025-12-29T12:28:49.875Z</time>
      </trkpt>
      <trkpt lat="43.15088" lon="3.0989">
        <ele>180</ele>
        <time>2025-12-29T12:28:50.875Z</time>
      </trkpt>
      <trkpt lat="43.15088" lon="3.0989">
        <ele>180</ele>
        <time>2025-12-29T12:28:51.875Z</time>
      </trkpt>
      <trkpt lat="43.15088" lon="3.0989">
        <ele>179</ele>
        <time>2025-12-29T12:28:52.875Z</time>
      </trkpt>
      <trkpt lat="43.15087" lon="3.0989">
        <ele>179</ele>
        <time>2025-12-29T12:28:53.875Z</time>
      </trkpt>
      <trkpt lat="43.15087" lon="3.0989">
        <ele>179</ele>
        <time>2025-12-29T12:28:54.875Z</time>
      </trkpt>
      <trkpt lat="43.15087" lon="3.0989">
        <ele>179</ele>
        <time>2025-12-29T12:28:55.875Z</time>
      </trkpt>
      <trkpt lat="43.15087" lon="3.09889">
        <ele>179</ele>
        <time>2025-12-29T12:28:56.875Z</time>
      </trkpt>
      <trkpt lat="43.15086" lon="3.09888">
        <ele>179</ele>
        <time>2025-12-29T12:28:57.875Z</time>
      </trkpt>
      <trkpt lat="43.15086" lon="3.09888">
        <ele>179</ele>
        <time>2025-12-29T12:28:58.875Z</time>
      </trkpt>
      <trkpt lat="43.15086" lon="3.09887">
        <ele>179</ele>
        <time>2025-12-29T12:28:59.875Z</time>
      </trkpt>
      <trkpt lat="43.15085" lon="3.09887">
        <ele>179</ele>
        <time>2025-12-29T12:29:00.875Z</time>
      </trkpt>
      <trkpt lat="43.15085" lon="3.09887">
        <ele>179</ele>
        <time>2025-12-29T12:29:01.875Z</time>
      </trkpt>
      <trkpt lat="43.15085" lon="3.09887">
        <ele>180</ele>
        <time>2025-12-29T12:29:02.875Z</time>
      </trkpt>
      <trkpt lat="43.15084" lon="3.09887">
        <ele>180</ele>
        <time>2025-12-29T12:29:03.875Z</time>
      </trkpt>
      <trkpt lat="43.15084" lon="3.09887">
        <ele>180</ele>
        <time>2025-12-29T12:29:04.875Z</time>
      </trkpt>
      <trkpt lat="43.15084" lon="3.09887">
        <ele>179</ele>
        <time>2025-12-29T12:29:05.875Z</time>
      </trkpt>
      <trkpt lat="43.15083" lon="3.09887">
        <ele>179</ele>
        <time>2025-12-29T12:29:06.875Z</time>
      </trkpt>
      <trkpt lat="43.15083" lon="3.09886">
        <ele>179</ele>
        <time>2025-12-29T12:29:07.875Z</time>
      </trkpt>
      <trkpt lat="43.15082" lon="3.09885">
        <ele>179</ele>
        <time>2025-12-29T12:29:08.875Z</time>
      </trkpt>
      <trkpt lat="43.15082" lon="3.09884">
        <ele>178</ele>
        <time>2025-12-29T12:29:09.875Z</time>
      </trkpt>
      <trkpt lat="43.15082" lon="3.09884">
        <ele>178</ele>
        <time>2025-12-29T12:29:10.875Z</time>
      </trkpt>
      <trkpt lat="43.15082" lon="3.09883">
        <ele>178</ele>
        <time>2025-12-29T12:29:11.875Z</time>
      </trkpt>
      <trkpt lat="43.15081" lon="3.09883">
        <ele>178</ele>
        <time>2025-12-29T12:29:12.875Z</time>
      </trkpt>
      <trkpt lat="43.15081" lon="3.09882">
        <ele>178</ele>
        <time>2025-12-29T12:29:13.875Z</time>
      </trkpt>
      <trkpt lat="43.15081" lon="3.09882">
        <ele>178</ele>
        <time>2025-12-29T12:29:14.875Z</time>
      </trkpt>
      <trkpt lat="43.15081" lon="3.09882">
        <ele>178</ele>
        <time>2025-12-29T12:29:15.875Z</time>
      </trkpt>
      <trkpt lat="43.15081" lon="3.09881">
        <ele>178</ele>
        <time>2025-12-29T12:29:16.875Z</time>
      </trkpt>
      <trkpt lat="43.15081" lon="3.09881">
        <ele>178</ele>
        <time>2025-12-29T12:29:17.875Z</time>
      </trkpt>
      <trkpt lat="43.15081" lon="3.0988">
        <ele>177</ele>
        <time>2025-12-29T12:29:18.875Z</time>
      </trkpt>
      <trkpt lat="43.15081" lon="3.0988">
        <ele>177</ele>
        <time>2025-12-29T12:29:19.875Z</time>
      </trkpt>
      <trkpt lat="43.15081" lon="3.09881">
        <ele>177</ele>
        <time>2025-12-29T12:29:20.875Z</time>
      </trkpt>
      <trkpt lat="43.15081" lon="3.0988">
        <ele>177</ele>
        <time>2025-12-29T12:29:21.875Z</time>
      </trkpt>
      <trkpt lat="43.15081" lon="3.0988">
        <ele>177</ele>
        <time>2025-12-29T12:29:22.875Z</time>
      </trkpt>
      <trkpt lat="43.15081" lon="3.0988">
        <ele>177</ele>
        <time>2025-12-29T12:29:23.875Z</time>
      </trkpt>
      <trkpt lat="43.15081" lon="3.09879">
        <ele>176</ele>
        <time>2025-12-29T12:29:24.875Z</time>
      </trkpt>
      <trkpt lat="43.15081" lon="3.09878">
        <ele>176</ele>
        <time>2025-12-29T12:29:25.875Z</time>
      </trkpt>
      <trkpt lat="43.1508" lon="3.09877">
        <ele>176</ele>
        <time>2025-12-29T12:29:26.875Z</time>
      </trkpt>
      <trkpt lat="43.1508" lon="3.09877">
        <ele>175</ele>
        <time>2025-12-29T12:29:27.875Z</time>
      </trkpt>
      <trkpt lat="43.1508" lon="3.09876">
        <ele>175</ele>
        <time>2025-12-29T12:29:28.875Z</time>
      </trkpt>
      <trkpt lat="43.1508" lon="3.09876">
        <ele>175</ele>
        <time>2025-12-29T12:29:29.875Z</time>
      </trkpt>
      <trkpt lat="43.1508" lon="3.09875">
        <ele>175</ele>
        <time>2025-12-29T12:29:30.875Z</time>
      </trkpt>
      <trkpt lat="43.1508" lon="3.09874">
        <ele>175</ele>
        <time>2025-12-29T12:29:31.875Z</time>
      </trkpt>
      <trkpt lat="43.1508" lon="3.09874">
        <ele>175</ele>
        <time>2025-12-29T12:29:32.875Z</time>
      </trkpt>
      <trkpt lat="43.15079" lon="3.09873">
        <ele>175</ele>
        <time>2025-12-29T12:29:33.875Z</time>
      </trkpt>
      <trkpt lat="43.15079" lon="3.09872">
        <ele>175</ele>
        <time>2025-12-29T12:29:34.875Z</time>
      </trkpt>
      <trkpt lat="43.15079" lon="3.09871">
        <ele>174</ele>
        <time>2025-12-29T12:29:35.875Z</time>
      </trkpt>
      <trkpt lat="43.15079" lon="3.0987">
        <ele>174</ele>
        <time>2025-12-29T12:29:36.875Z</time>
      </trkpt>
      <trkpt lat="43.15078" lon="3.0987">
        <ele>174</ele>
        <time>2025-12-29T12:29:37.875Z</time>
      </trkpt>
      <trkpt lat="43.15078" lon="3.09869">
        <ele>173</ele>
        <time>2025-12-29T12:29:38.875Z</time>
      </trkpt>
      <trkpt lat="43.15077" lon="3.09869">
        <ele>173</ele>
        <time>2025-12-29T12:29:39.875Z</time>
      </trkpt>
      <trkpt lat="43.15076" lon="3.09868">
        <ele>173</ele>
        <time>2025-12-29T12:29:40.875Z</time>
      </trkpt>
      <trkpt lat="43.15076" lon="3.09867">
        <ele>172</ele>
        <time>2025-12-29T12:29:41.875Z</time>
      </trkpt>
      <trkpt lat="43.15075" lon="3.09867">
        <ele>172</ele>
        <time>2025-12-29T12:29:42.875Z</time>
      </trkpt>
      <trkpt lat="43.15074" lon="3.09867">
        <ele>172</ele>
        <time>2025-12-29T12:29:43.875Z</time>
      </trkpt>
      <trkpt lat="43.15074" lon="3.09866">
        <ele>172</ele>
        <time>2025-12-29T12:29:44.875Z</time>
      </trkpt>
      <trkpt lat="43.15074" lon="3.09865">
        <ele>172</ele>
        <time>2025-12-29T12:29:45.875Z</time>
      </trkpt>
      <trkpt lat="43.15074" lon="3.09864">
        <ele>172</ele>
        <time>2025-12-29T12:29:46.875Z</time>
      </trkpt>
      <trkpt lat="43.15074" lon="3.09863">
        <ele>172</ele>
        <time>2025-12-29T12:29:47.875Z</time>
      </trkpt>
      <trkpt lat="43.15073" lon="3.09863">
        <ele>172</ele>
        <time>2025-12-29T12:29:48.875Z</time>
      </trkpt>
      <trkpt lat="43.15073" lon="3.09862">
        <ele>172</ele>
        <time>2025-12-29T12:29:49.875Z</time>
      </trkpt>
      <trkpt lat="43.15073" lon="3.09861">
        <ele>172</ele>
        <time>2025-12-29T12:29:50.875Z</time>
      </trkpt>
      <trkpt lat="43.15072" lon="3.0986">
        <ele>172</ele>
        <time>2025-12-29T12:29:51.875Z</time>
      </trkpt>
      <trkpt lat="43.15071" lon="3.09859">
        <ele>172</ele>
        <time>2025-12-29T12:29:52.875Z</time>
      </trkpt>
      <trkpt lat="43.15071" lon="3.09858">
        <ele>172</ele>
        <time>2025-12-29T12:29:53.875Z</time>
      </trkpt>
      <trkpt lat="43.15071" lon="3.09858">
        <ele>172</ele>
        <time>2025-12-29T12:29:54.875Z</time>
      </trkpt>
      <trkpt lat="43.15071" lon="3.09857">
        <ele>172</ele>
        <time>2025-12-29T12:29:55.875Z</time>
      </trkpt>
      <trkpt lat="43.1507" lon="3.09857">
        <ele>172</ele>
        <time>2025-12-29T12:29:56.875Z</time>
      </trkpt>
      <trkpt lat="43.1507" lon="3.09856">
        <ele>172</ele>
        <time>2025-12-29T12:29:57.875Z</time>
      </trkpt>
      <trkpt lat="43.1507" lon="3.09856">
        <ele>172</ele>
        <time>2025-12-29T12:29:58.875Z</time>
      </trkpt>
      <trkpt lat="43.1507" lon="3.09856">
        <ele>172</ele>
        <time>2025-12-29T12:29:59.875Z</time>
      </trkpt>
      <trkpt lat="43.1507" lon="3.09855">
        <ele>172</ele>
        <time>2025-12-29T12:30:00.875Z</time>
      </trkpt>
      <trkpt lat="43.1507" lon="3.09855">
        <ele>172</ele>
        <time>2025-12-29T12:30:01.875Z</time>
      </trkpt>
      <trkpt lat="43.1507" lon="3.09854">
        <ele>172</ele>
        <time>2025-12-29T12:30:02.875Z</time>
      </trkpt>
      <trkpt lat="43.1507" lon="3.09852">
        <ele>172</ele>
        <time>2025-12-29T12:30:03.875Z</time>
      </trkpt>
      <trkpt lat="43.15069" lon="3.09852">
        <ele>172</ele>
        <time>2025-12-29T12:30:04.875Z</time>
      </trkpt>
      <trkpt lat="43.15068" lon="3.09851">
        <ele>172</ele>
        <time>2025-12-29T12:30:05.875Z</time>
      </trkpt>
      <trkpt lat="43.15068" lon="3.09851">
        <ele>172</ele>
        <time>2025-12-29T12:30:06.875Z</time>
      </trkpt>
      <trkpt lat="43.15068" lon="3.09851">
        <ele>172</ele>
        <time>2025-12-29T12:30:07.875Z</time>
      </trkpt>
      <trkpt lat="43.15067" lon="3.09851">
        <ele>172</ele>
        <time>2025-12-29T12:30:08.875Z</time>
      </trkpt>
      <trkpt lat="43.15067" lon="3.09851">
        <ele>172</ele>
        <time>2025-12-29T12:30:09.875Z</time>
      </trkpt>
      <trkpt lat="43.15066" lon="3.09851">
        <ele>171</ele>
        <time>2025-12-29T12:30:10.875Z</time>
      </trkpt>
      <trkpt lat="43.15065" lon="3.09852">
        <ele>171</ele>
        <time>2025-12-29T12:30:11.875Z</time>
      </trkpt>
      <trkpt lat="43.15065" lon="3.09852">
        <ele>171</ele>
        <time>2025-12-29T12:30:12.875Z</time>
      </trkpt>
      <trkpt lat="43.15064" lon="3.09852">
        <ele>171</ele>
        <time>2025-12-29T12:30:13.875Z</time>
      </trkpt>
      <trkpt lat="43.15063" lon="3.09852">
        <ele>171</ele>
        <time>2025-12-29T12:30:14.875Z</time>
      </trkpt>
      <trkpt lat="43.15062" lon="3.09852">
        <ele>171</ele>
        <time>2025-12-29T12:30:15.875Z</time>
      </trkpt>
      <trkpt lat="43.15061" lon="3.09852">
        <ele>171</ele>
        <time>2025-12-29T12:30:16.875Z</time>
      </trkpt>
      <trkpt lat="43.1506" lon="3.09852">
        <ele>170</ele>
        <time>2025-12-29T12:30:17.875Z</time>
      </trkpt>
      <trkpt lat="43.15059" lon="3.09852">
        <ele>170</ele>
        <time>2025-12-29T12:30:18.875Z</time>
      </trkpt>
      <trkpt lat="43.15058" lon="3.09852">
        <ele>170</ele>
        <time>2025-12-29T12:30:19.875Z</time>
      </trkpt>
      <trkpt lat="43.15057" lon="3.09853">
        <ele>171</ele>
        <time>2025-12-29T12:30:20.875Z</time>
      </trkpt>
      <trkpt lat="43.15056" lon="3.09853">
        <ele>171</ele>
        <time>2025-12-29T12:30:21.875Z</time>
      </trkpt>
      <trkpt lat="43.15055" lon="3.09853">
        <ele>171</ele>
        <time>2025-12-29T12:30:22.875Z</time>
      </trkpt>
      <trkpt lat="43.15055" lon="3.09853">
        <ele>171</ele>
        <time>2025-12-29T12:30:23.875Z</time>
      </trkpt>
      <trkpt lat="43.15054" lon="3.09853">
        <ele>171</ele>
        <time>2025-12-29T12:30:24.875Z</time>
      </trkpt>
      <trkpt lat="43.15053" lon="3.09853">
        <ele>171</ele>
        <time>2025-12-29T12:30:25.875Z</time>
      </trkpt>
      <trkpt lat="43.15052" lon="3.09853">
        <ele>171</ele>
        <time>2025-12-29T12:30:26.875Z</time>
      </trkpt>
      <trkpt lat="43.15052" lon="3.09852">
        <ele>171</ele>
        <time>2025-12-29T12:30:27.875Z</time>
      </trkpt>
      <trkpt lat="43.15051" lon="3.09852">
        <ele>171</ele>
        <time>2025-12-29T12:30:28.875Z</time>
      </trkpt>
      <trkpt lat="43.1505" lon="3.09851">
        <ele>171</ele>
        <time>2025-12-29T12:30:29.875Z</time>
      </trkpt>
      <trkpt lat="43.15049" lon="3.09852">
        <ele>171</ele>
        <time>2025-12-29T12:30:30.875Z</time>
      </trkpt>
      <trkpt lat="43.15048" lon="3.09851">
        <ele>171</ele>
        <time>2025-12-29T12:30:31.875Z</time>
      </trkpt>
      <trkpt lat="43.15047" lon="3.09851">
        <ele>171</ele>
        <time>2025-12-29T12:30:32.875Z</time>
      </trkpt>
      <trkpt lat="43.15046" lon="3.0985">
        <ele>172</ele>
        <time>2025-12-29T12:30:33.875Z</time>
      </trkpt>
      <trkpt lat="43.15045" lon="3.09849">
        <ele>172</ele>
        <time>2025-12-29T12:30:34.875Z</time>
      </trkpt>
      <trkpt lat="43.15045" lon="3.09849">
        <ele>172</ele>
        <time>2025-12-29T12:30:35.875Z</time>
      </trkpt>
      <trkpt lat="43.15044" lon="3.09848">
        <ele>172</ele>
        <time>2025-12-29T12:30:36.875Z</time>
      </trkpt>
      <trkpt lat="43.15044" lon="3.09847">
        <ele>172</ele>
        <time>2025-12-29T12:30:37.875Z</time>
      </trkpt>
      <trkpt lat="43.15043" lon="3.09847">
        <ele>172</ele>
        <time>2025-12-29T12:30:38.875Z</time>
      </trkpt>
      <trkpt lat="43.15042" lon="3.09846">
        <ele>172</ele>
        <time>2025-12-29T12:30:39.875Z</time>
      </trkpt>
      <trkpt lat="43.15041" lon="3.09845">
        <ele>172</ele>
        <time>2025-12-29T12:30:40.875Z</time>
      </trkpt>
      <trkpt lat="43.1504" lon="3.09845">
        <ele>172</ele>
        <time>2025-12-29T12:30:41.875Z</time>
      </trkpt>
      <trkpt lat="43.1504" lon="3.09844">
        <ele>171</ele>
        <time>2025-12-29T12:30:42.875Z</time>
      </trkpt>
      <trkpt lat="43.15039" lon="3.09843">
        <ele>171</ele>
        <time>2025-12-29T12:30:43.875Z</time>
      </trkpt>
      <trkpt lat="43.15038" lon="3.09843">
        <ele>171</ele>
        <time>2025-12-29T12:30:44.875Z</time>
      </trkpt>
      <trkpt lat="43.15037" lon="3.09842">
        <ele>171</ele>
        <time>2025-12-29T12:30:45.875Z</time>
      </trkpt>
      <trkpt lat="43.15036" lon="3.09841">
        <ele>171</ele>
        <time>2025-12-29T12:30:46.875Z</time>
      </trkpt>
      <trkpt lat="43.15036" lon="3.09841">
        <ele>171</ele>
        <time>2025-12-29T12:30:47.875Z</time>
      </trkpt>
      <trkpt lat="43.15035" lon="3.09841">
        <ele>171</ele>
        <time>2025-12-29T12:30:48.875Z</time>
      </trkpt>
      <trkpt lat="43.15035" lon="3.0984">
        <ele>170</ele>
        <time>2025-12-29T12:30:49.875Z</time>
      </trkpt>
      <trkpt lat="43.15034" lon="3.0984">
        <ele>170</ele>
        <time>2025-12-29T12:30:50.875Z</time>
      </trkpt>
      <trkpt lat="43.15033" lon="3.09839">
        <ele>170</ele>
        <time>2025-12-29T12:30:51.875Z</time>
      </trkpt>
      <trkpt lat="43.15033" lon="3.09838">
        <ele>170</ele>
        <time>2025-12-29T12:30:52.875Z</time>
      </trkpt>
      <trkpt lat="43.15032" lon="3.09837">
        <ele>170</ele>
        <time>2025-12-29T12:30:53.875Z</time>
      </trkpt>
      <trkpt lat="43.15031" lon="3.09836">
        <ele>170</ele>
        <time>2025-12-29T12:30:54.875Z</time>
      </trkpt>
      <trkpt lat="43.1503" lon="3.09836">
        <ele>170</ele>
        <time>2025-12-29T12:30:55.875Z</time>
      </trkpt>
      <trkpt lat="43.15029" lon="3.09835">
        <ele>170</ele>
        <time>2025-12-29T12:30:56.875Z</time>
      </trkpt>
      <trkpt lat="43.15027" lon="3.09835">
        <ele>170</ele>
        <time>2025-12-29T12:30:57.875Z</time>
      </trkpt>
      <trkpt lat="43.15026" lon="3.09835">
        <ele>169</ele>
        <time>2025-12-29T12:30:58.875Z</time>
      </trkpt>
      <trkpt lat="43.15025" lon="3.09835">
        <ele>169</ele>
        <time>2025-12-29T12:30:59.875Z</time>
      </trkpt>
      <trkpt lat="43.15025" lon="3.09834">
        <ele>169</ele>
        <time>2025-12-29T12:31:00.875Z</time>
      </trkpt>
      <trkpt lat="43.15024" lon="3.09834">
        <ele>168</ele>
        <time>2025-12-29T12:31:01.875Z</time>
      </trkpt>
      <trkpt lat="43.15023" lon="3.09834">
        <ele>168</ele>
        <time>2025-12-29T12:31:02.875Z</time>
      </trkpt>
      <trkpt lat="43.15023" lon="3.09834">
        <ele>168</ele>
        <time>2025-12-29T12:31:03.875Z</time>
      </trkpt>
      <trkpt lat="43.15022" lon="3.09833">
        <ele>167</ele>
        <time>2025-12-29T12:31:04.875Z</time>
      </trkpt>
      <trkpt lat="43.15022" lon="3.09833">
        <ele>167</ele>
        <time>2025-12-29T12:31:05.875Z</time>
      </trkpt>
      <trkpt lat="43.15021" lon="3.09832">
        <ele>167</ele>
        <time>2025-12-29T12:31:06.875Z</time>
      </trkpt>
      <trkpt lat="43.1502" lon="3.09831">
        <ele>167</ele>
        <time>2025-12-29T12:31:07.875Z</time>
      </trkpt>
      <trkpt lat="43.15019" lon="3.0983">
        <ele>167</ele>
        <time>2025-12-29T12:31:08.875Z</time>
      </trkpt>
      <trkpt lat="43.15018" lon="3.09829">
        <ele>167</ele>
        <time>2025-12-29T12:31:09.875Z</time>
      </trkpt>
      <trkpt lat="43.15017" lon="3.09828">
        <ele>167</ele>
        <time>2025-12-29T12:31:10.875Z</time>
      </trkpt>
      <trkpt lat="43.15016" lon="3.09827">
        <ele>167</ele>
        <time>2025-12-29T12:31:11.875Z</time>
      </trkpt>
      <trkpt lat="43.15015" lon="3.09827">
        <ele>167</ele>
        <time>2025-12-29T12:31:12.875Z</time>
      </trkpt>
      <trkpt lat="43.15014" lon="3.09826">
        <ele>167</ele>
        <time>2025-12-29T12:31:13.875Z</time>
      </trkpt>
      <trkpt lat="43.15014" lon="3.09825">
        <ele>167</ele>
        <time>2025-12-29T12:31:14.875Z</time>
      </trkpt>
      <trkpt lat="43.15013" lon="3.09824">
        <ele>167</ele>
        <time>2025-12-29T12:31:15.875Z</time>
      </trkpt>
      <trkpt lat="43.15012" lon="3.09824">
        <ele>167</ele>
        <time>2025-12-29T12:31:16.875Z</time>
      </trkpt>
      <trkpt lat="43.15012" lon="3.09823">
        <ele>166</ele>
        <time>2025-12-29T12:31:17.875Z</time>
      </trkpt>
      <trkpt lat="43.15011" lon="3.09823">
        <ele>165</ele>
        <time>2025-12-29T12:31:18.875Z</time>
      </trkpt>
      <trkpt lat="43.15011" lon="3.09823">
        <ele>165</ele>
        <time>2025-12-29T12:31:19.875Z</time>
      </trkpt>
      <trkpt lat="43.1501" lon="3.09823">
        <ele>164</ele>
        <time>2025-12-29T12:31:20.875Z</time>
      </trkpt>
      <trkpt lat="43.15009" lon="3.09822">
        <ele>164</ele>
        <time>2025-12-29T12:31:21.875Z</time>
      </trkpt>
      <trkpt lat="43.15008" lon="3.09822">
        <ele>163</ele>
        <time>2025-12-29T12:31:22.875Z</time>
      </trkpt>
      <trkpt lat="43.15008" lon="3.09822">
        <ele>163</ele>
        <time>2025-12-29T12:31:23.875Z</time>
      </trkpt>
      <trkpt lat="43.15007" lon="3.09821">
        <ele>163</ele>
        <time>2025-12-29T12:31:24.875Z</time>
      </trkpt>
      <trkpt lat="43.15006" lon="3.09821">
        <ele>162</ele>
        <time>2025-12-29T12:31:25.875Z</time>
      </trkpt>
      <trkpt lat="43.15006" lon="3.09821">
        <ele>162</ele>
        <time>2025-12-29T12:31:26.875Z</time>
      </trkpt>
      <trkpt lat="43.15005" lon="3.09821">
        <ele>162</ele>
        <time>2025-12-29T12:31:27.875Z</time>
      </trkpt>
      <trkpt lat="43.15004" lon="3.09821">
        <ele>162</ele>
        <time>2025-12-29T12:31:28.875Z</time>
      </trkpt>
      <trkpt lat="43.15003" lon="3.0982">
        <ele>161</ele>
        <time>2025-12-29T12:31:29.875Z</time>
      </trkpt>
      <trkpt lat="43.15002" lon="3.09819">
        <ele>161</ele>
        <time>2025-12-29T12:31:30.875Z</time>
      </trkpt>
      <trkpt lat="43.15001" lon="3.09819">
        <ele>161</ele>
        <time>2025-12-29T12:31:31.875Z</time>
      </trkpt>
      <trkpt lat="43.15" lon="3.09818">
        <ele>161</ele>
        <time>2025-12-29T12:31:32.875Z</time>
      </trkpt>
      <trkpt lat="43.14999" lon="3.09817">
        <ele>161</ele>
        <time>2025-12-29T12:31:33.875Z</time>
      </trkpt>
      <trkpt lat="43.14998" lon="3.09817">
        <ele>161</ele>
        <time>2025-12-29T12:31:34.875Z</time>
      </trkpt>
      <trkpt lat="43.14997" lon="3.09816">
        <ele>161</ele>
        <time>2025-12-29T12:31:35.875Z</time>
      </trkpt>
      <trkpt lat="43.14996" lon="3.09816">
        <ele>161</ele>
        <time>2025-12-29T12:31:36.875Z</time>
      </trkpt>
      <trkpt lat="43.14995" lon="3.09816">
        <ele>161</ele>
        <time>2025-12-29T12:31:37.875Z</time>
      </trkpt>
      <trkpt lat="43.14994" lon="3.09815">
        <ele>160</ele>
        <time>2025-12-29T12:31:38.875Z</time>
      </trkpt>
      <trkpt lat="43.14993" lon="3.09815">
        <ele>160</ele>
        <time>2025-12-29T12:31:39.875Z</time>
      </trkpt>
      <trkpt lat="43.14992" lon="3.09815">
        <ele>159</ele>
        <time>2025-12-29T12:31:40.875Z</time>
      </trkpt>
      <trkpt lat="43.14992" lon="3.09815">
        <ele>159</ele>
        <time>2025-12-29T12:31:41.875Z</time>
      </trkpt>
      <trkpt lat="43.14991" lon="3.09815">
        <ele>158</ele>
        <time>2025-12-29T12:31:42.875Z</time>
      </trkpt>
      <trkpt lat="43.14991" lon="3.09815">
        <ele>158</ele>
        <time>2025-12-29T12:31:43.875Z</time>
      </trkpt>
      <trkpt lat="43.1499" lon="3.09815">
        <ele>158</ele>
        <time>2025-12-29T12:31:44.875Z</time>
      </trkpt>
      <trkpt lat="43.1499" lon="3.09815">
        <ele>158</ele>
        <time>2025-12-29T12:31:45.875Z</time>
      </trkpt>
      <trkpt lat="43.14989" lon="3.09814">
        <ele>158</ele>
        <time>2025-12-29T12:31:46.875Z</time>
      </trkpt>
      <trkpt lat="43.14988" lon="3.09814">
        <ele>157</ele>
        <time>2025-12-29T12:31:47.875Z</time>
      </trkpt>
      <trkpt lat="43.14987" lon="3.09814">
        <ele>157</ele>
        <time>2025-12-29T12:31:48.875Z</time>
      </trkpt>
      <trkpt lat="43.14986" lon="3.09813">
        <ele>157</ele>
        <time>2025-12-29T12:31:49.875Z</time>
      </trkpt>
      <trkpt lat="43.14986" lon="3.09812">
        <ele>157</ele>
        <time>2025-12-29T12:31:50.875Z</time>
      </trkpt>
      <trkpt lat="43.14985" lon="3.09811">
        <ele>157</ele>
        <time>2025-12-29T12:31:51.875Z</time>
      </trkpt>
      <trkpt lat="43.14985" lon="3.09811">
        <ele>157</ele>
        <time>2025-12-29T12:31:52.875Z</time>
      </trkpt>
      <trkpt lat="43.14984" lon="3.0981">
        <ele>157</ele>
        <time>2025-12-29T12:31:53.875Z</time>
      </trkpt>
      <trkpt lat="43.14983" lon="3.0981">
        <ele>158</ele>
        <time>2025-12-29T12:31:54.875Z</time>
      </trkpt>
      <trkpt lat="43.14983" lon="3.09809">
        <ele>158</ele>
        <time>2025-12-29T12:31:55.875Z</time>
      </trkpt>
      <trkpt lat="43.14982" lon="3.09808">
        <ele>158</ele>
        <time>2025-12-29T12:31:56.875Z</time>
      </trkpt>
      <trkpt lat="43.14982" lon="3.09806">
        <ele>158</ele>
        <time>2025-12-29T12:31:57.875Z</time>
      </trkpt>
      <trkpt lat="43.14982" lon="3.09805">
        <ele>158</ele>
        <time>2025-12-29T12:31:58.875Z</time>
      </trkpt>
      <trkpt lat="43.14982" lon="3.09805">
        <ele>157</ele>
        <time>2025-12-29T12:31:59.875Z</time>
      </trkpt>
      <trkpt lat="43.14982" lon="3.09804">
        <ele>157</ele>
        <time>2025-12-29T12:32:00.875Z</time>
      </trkpt>
      <trkpt lat="43.14982" lon="3.09804">
        <ele>157</ele>
        <time>2025-12-29T12:32:01.875Z</time>
      </trkpt>
      <trkpt lat="43.14982" lon="3.09803">
        <ele>157</ele>
        <time>2025-12-29T12:32:02.875Z</time>
      </trkpt>
      <trkpt lat="43.14981" lon="3.09803">
        <ele>157</ele>
        <time>2025-12-29T12:32:03.875Z</time>
      </trkpt>
      <trkpt lat="43.1498" lon="3.09803">
        <ele>157</ele>
        <time>2025-12-29T12:32:04.875Z</time>
      </trkpt>
      <trkpt lat="43.14979" lon="3.09803">
        <ele>157</ele>
        <time>2025-12-29T12:32:05.875Z</time>
      </trkpt>
      <trkpt lat="43.14978" lon="3.09803">
        <ele>157</ele>
        <time>2025-12-29T12:32:06.875Z</time>
      </trkpt>
      <trkpt lat="43.14978" lon="3.09803">
        <ele>157</ele>
        <time>2025-12-29T12:32:07.875Z</time>
      </trkpt>
      <trkpt lat="43.14977" lon="3.09802">
        <ele>157</ele>
        <time>2025-12-29T12:32:08.875Z</time>
      </trkpt>
      <trkpt lat="43.14976" lon="3.09801">
        <ele>157</ele>
        <time>2025-12-29T12:32:09.875Z</time>
      </trkpt>
      <trkpt lat="43.14976" lon="3.09801">
        <ele>157</ele>
        <time>2025-12-29T12:32:10.875Z</time>
      </trkpt>
      <trkpt lat="43.14975" lon="3.098">
        <ele>157</ele>
        <time>2025-12-29T12:32:11.875Z</time>
      </trkpt>
      <trkpt lat="43.14974" lon="3.09801">
        <ele>157</ele>
        <time>2025-12-29T12:32:12.875Z</time>
      </trkpt>
      <trkpt lat="43.14973" lon="3.098">
        <ele>157</ele>
        <time>2025-12-29T12:32:13.875Z</time>
      </trkpt>
      <trkpt lat="43.14972" lon="3.09799">
        <ele>157</ele>
        <time>2025-12-29T12:32:14.875Z</time>
      </trkpt>
      <trkpt lat="43.14971" lon="3.09798">
        <ele>157</ele>
        <time>2025-12-29T12:32:15.875Z</time>
      </trkpt>
      <trkpt lat="43.1497" lon="3.09797">
        <ele>157</ele>
        <time>2025-12-29T12:32:16.875Z</time>
      </trkpt>
      <trkpt lat="43.14969" lon="3.09796">
        <ele>157</ele>
        <time>2025-12-29T12:32:17.875Z</time>
      </trkpt>
      <trkpt lat="43.14969" lon="3.09796">
        <ele>157</ele>
        <time>2025-12-29T12:32:18.875Z</time>
      </trkpt>
      <trkpt lat="43.14968" lon="3.09795">
        <ele>157</ele>
        <time>2025-12-29T12:32:19.875Z</time>
      </trkpt>
      <trkpt lat="43.14968" lon="3.09795">
        <ele>157</ele>
        <time>2025-12-29T12:32:20.875Z</time>
      </trkpt>
      <trkpt lat="43.14967" lon="3.09794">
        <ele>157</ele>
        <time>2025-12-29T12:32:21.875Z</time>
      </trkpt>
      <trkpt lat="43.14966" lon="3.09794">
        <ele>156</ele>
        <time>2025-12-29T12:32:22.875Z</time>
      </trkpt>
      <trkpt lat="43.14966" lon="3.09794">
        <ele>156</ele>
        <time>2025-12-29T12:32:23.875Z</time>
      </trkpt>
      <trkpt lat="43.14965" lon="3.09794">
        <ele>156</ele>
        <time>2025-12-29T12:32:24.875Z</time>
      </trkpt>
      <trkpt lat="43.14964" lon="3.09794">
        <ele>156</ele>
        <time>2025-12-29T12:32:25.875Z</time>
      </trkpt>
      <trkpt lat="43.14964" lon="3.09795">
        <ele>156</ele>
        <time>2025-12-29T12:32:26.875Z</time>
      </trkpt>
      <trkpt lat="43.14964" lon="3.09795">
        <ele>156</ele>
        <time>2025-12-29T12:32:27.875Z</time>
      </trkpt>
      <trkpt lat="43.14964" lon="3.09796">
        <ele>156</ele>
        <time>2025-12-29T12:32:28.875Z</time>
      </trkpt>
      <trkpt lat="43.14964" lon="3.09796">
        <ele>156</ele>
        <time>2025-12-29T12:32:29.875Z</time>
      </trkpt>
      <trkpt lat="43.14964" lon="3.09796">
        <ele>155</ele>
        <time>2025-12-29T12:32:30.875Z</time>
      </trkpt>
      <trkpt lat="43.14964" lon="3.09796">
        <ele>155</ele>
        <time>2025-12-29T12:32:31.875Z</time>
      </trkpt>
      <trkpt lat="43.14964" lon="3.09796">
        <ele>155</ele>
        <time>2025-12-29T12:32:32.875Z</time>
      </trkpt>
      <trkpt lat="43.14964" lon="3.09796">
        <ele>155</ele>
        <time>2025-12-29T12:32:33.875Z</time>
      </trkpt>
      <trkpt lat="43.14964" lon="3.09795">
        <ele>155</ele>
        <time>2025-12-29T12:32:34.875Z</time>
      </trkpt>
      <trkpt lat="43.14963" lon="3.09795">
        <ele>154</ele>
        <time>2025-12-29T12:32:35.875Z</time>
      </trkpt>
      <trkpt lat="43.14963" lon="3.09795">
        <ele>154</ele>
        <time>2025-12-29T12:32:36.875Z</time>
      </trkpt>
      <trkpt lat="43.14963" lon="3.09795">
        <ele>154</ele>
        <time>2025-12-29T12:32:37.875Z</time>
      </trkpt>
      <trkpt lat="43.14964" lon="3.09796">
        <ele>153</ele>
        <time>2025-12-29T12:32:38.875Z</time>
      </trkpt>
      <trkpt lat="43.14964" lon="3.09796">
        <ele>153</ele>
        <time>2025-12-29T12:32:39.875Z</time>
      </trkpt>
      <trkpt lat="43.14963" lon="3.09796">
        <ele>153</ele>
        <time>2025-12-29T12:32:40.875Z</time>
      </trkpt>
      <trkpt lat="43.14963" lon="3.09797">
        <ele>154</ele>
        <time>2025-12-29T12:32:41.875Z</time>
      </trkpt>
      <trkpt lat="43.14963" lon="3.09797">
        <ele>154</ele>
        <time>2025-12-29T12:32:42.875Z</time>
      </trkpt>
      <trkpt lat="43.14963" lon="3.09797">
        <ele>154</ele>
        <time>2025-12-29T12:32:43.875Z</time>
      </trkpt>
      <trkpt lat="43.14963" lon="3.09798">
        <ele>155</ele>
        <time>2025-12-29T12:32:44.875Z</time>
      </trkpt>
      <trkpt lat="43.14963" lon="3.098">
        <ele>154</ele>
        <time>2025-12-29T12:32:45.875Z</time>
      </trkpt>
      <trkpt lat="43.14963" lon="3.098">
        <ele>154</ele>
        <time>2025-12-29T12:32:46.875Z</time>
      </trkpt>
      <trkpt lat="43.14963" lon="3.09801">
        <ele>154</ele>
        <time>2025-12-29T12:32:47.875Z</time>
      </trkpt>
      <trkpt lat="43.14963" lon="3.09801">
        <ele>154</ele>
        <time>2025-12-29T12:32:48.875Z</time>
      </trkpt>
      <trkpt lat="43.14963" lon="3.09801">
        <ele>153</ele>
        <time>2025-12-29T12:32:49.875Z</time>
      </trkpt>
      <trkpt lat="43.14962" lon="3.09801">
        <ele>153</ele>
        <time>2025-12-29T12:32:50.875Z</time>
      </trkpt>
      <trkpt lat="43.14962" lon="3.09802">
        <ele>153</ele>
        <time>2025-12-29T12:32:51.875Z</time>
      </trkpt>
      <trkpt lat="43.14962" lon="3.09803">
        <ele>154</ele>
        <time>2025-12-29T12:32:52.875Z</time>
      </trkpt>
      <trkpt lat="43.14962" lon="3.09803">
        <ele>154</ele>
        <time>2025-12-29T12:32:53.875Z</time>
      </trkpt>
      <trkpt lat="43.14961" lon="3.09804">
        <ele>155</ele>
        <time>2025-12-29T12:32:54.875Z</time>
      </trkpt>
      <trkpt lat="43.14961" lon="3.09804">
        <ele>155</ele>
        <time>2025-12-29T12:32:55.875Z</time>
      </trkpt>
      <trkpt lat="43.14961" lon="3.09805">
        <ele>155</ele>
        <time>2025-12-29T12:32:56.875Z</time>
      </trkpt>
      <trkpt lat="43.1496" lon="3.09805">
        <ele>155</ele>
        <time>2025-12-29T12:32:57.875Z</time>
      </trkpt>
      <trkpt lat="43.14959" lon="3.09805">
        <ele>156</ele>
        <time>2025-12-29T12:32:58.875Z</time>
      </trkpt>
      <trkpt lat="43.14959" lon="3.09805">
        <ele>156</ele>
        <time>2025-12-29T12:32:59.875Z</time>
      </trkpt>
      <trkpt lat="43.14958" lon="3.09806">
        <ele>156</ele>
        <time>2025-12-29T12:33:00.875Z</time>
      </trkpt>
      <trkpt lat="43.14958" lon="3.09807">
        <ele>156</ele>
        <time>2025-12-29T12:33:01.875Z</time>
      </trkpt>
      <trkpt lat="43.14958" lon="3.09807">
        <ele>157</ele>
        <time>2025-12-29T12:33:02.875Z</time>
      </trkpt>
      <trkpt lat="43.14958" lon="3.09807">
        <ele>157</ele>
        <time>2025-12-29T12:33:03.875Z</time>
      </trkpt>
      <trkpt lat="43.14958" lon="3.09808">
        <ele>157</ele>
        <time>2025-12-29T12:33:04.875Z</time>
      </trkpt>
      <trkpt lat="43.14957" lon="3.09808">
        <ele>157</ele>
        <time>2025-12-29T12:33:05.875Z</time>
      </trkpt>
      <trkpt lat="43.14957" lon="3.09808">
        <ele>158</ele>
        <time>2025-12-29T12:33:06.875Z</time>
      </trkpt>
      <trkpt lat="43.14957" lon="3.09808">
        <ele>158</ele>
        <time>2025-12-29T12:33:07.875Z</time>
      </trkpt>
      <trkpt lat="43.14956" lon="3.09808">
        <ele>158</ele>
        <time>2025-12-29T12:33:08.875Z</time>
      </trkpt>
      <trkpt lat="43.14955" lon="3.09808">
        <ele>159</ele>
        <time>2025-12-29T12:33:09.875Z</time>
      </trkpt>
      <trkpt lat="43.14955" lon="3.09808">
        <ele>159</ele>
        <time>2025-12-29T12:33:10.875Z</time>
      </trkpt>
      <trkpt lat="43.14954" lon="3.09809">
        <ele>159</ele>
        <time>2025-12-29T12:33:11.875Z</time>
      </trkpt>
      <trkpt lat="43.14954" lon="3.09809">
        <ele>160</ele>
        <time>2025-12-29T12:33:12.875Z</time>
      </trkpt>
      <trkpt lat="43.14953" lon="3.0981">
        <ele>160</ele>
        <time>2025-12-29T12:33:13.875Z</time>
      </trkpt>
      <trkpt lat="43.14953" lon="3.0981">
        <ele>160</ele>
        <time>2025-12-29T12:33:14.875Z</time>
      </trkpt>
      <trkpt lat="43.14953" lon="3.0981">
        <ele>161</ele>
        <time>2025-12-29T12:33:15.875Z</time>
      </trkpt>
      <trkpt lat="43.14952" lon="3.09811">
        <ele>161</ele>
        <time>2025-12-29T12:33:16.875Z</time>
      </trkpt>
      <trkpt lat="43.14952" lon="3.09811">
        <ele>161</ele>
        <time>2025-12-29T12:33:17.875Z</time>
      </trkpt>
      <trkpt lat="43.14951" lon="3.09811">
        <ele>161</ele>
        <time>2025-12-29T12:33:18.875Z</time>
      </trkpt>
      <trkpt lat="43.14951" lon="3.09811">
        <ele>161</ele>
        <time>2025-12-29T12:33:19.875Z</time>
      </trkpt>
      <trkpt lat="43.14951" lon="3.09811">
        <ele>161</ele>
        <time>2025-12-29T12:33:20.875Z</time>
      </trkpt>
      <trkpt lat="43.1495" lon="3.09811">
        <ele>160</ele>
        <time>2025-12-29T12:33:21.875Z</time>
      </trkpt>
      <trkpt lat="43.1495" lon="3.09811">
        <ele>160</ele>
        <time>2025-12-29T12:33:22.875Z</time>
      </trkpt>
      <trkpt lat="43.14949" lon="3.09812">
        <ele>160</ele>
        <time>2025-12-29T12:33:23.875Z</time>
      </trkpt>
      <trkpt lat="43.14949" lon="3.09812">
        <ele>159</ele>
        <time>2025-12-29T12:33:24.875Z</time>
      </trkpt>
      <trkpt lat="43.14948" lon="3.09812">
        <ele>159</ele>
        <time>2025-12-29T12:33:25.875Z</time>
      </trkpt>
      <trkpt lat="43.14948" lon="3.09812">
        <ele>159</ele>
        <time>2025-12-29T12:33:26.875Z</time>
      </trkpt>
      <trkpt lat="43.14947" lon="3.09812">
        <ele>158</ele>
        <time>2025-12-29T12:33:27.875Z</time>
      </trkpt>
      <trkpt lat="43.14947" lon="3.09812">
        <ele>158</ele>
        <time>2025-12-29T12:33:28.875Z</time>
      </trkpt>
      <trkpt lat="43.14946" lon="3.09813">
        <ele>157</ele>
        <time>2025-12-29T12:33:29.875Z</time>
      </trkpt>
      <trkpt lat="43.14945" lon="3.09813">
        <ele>157</ele>
        <time>2025-12-29T12:33:30.875Z</time>
      </trkpt>
      <trkpt lat="43.14944" lon="3.09814">
        <ele>157</ele>
        <time>2025-12-29T12:33:31.875Z</time>
      </trkpt>
      <trkpt lat="43.14943" lon="3.09814">
        <ele>156</ele>
        <time>2025-12-29T12:33:32.875Z</time>
      </trkpt>
      <trkpt lat="43.14942" lon="3.09814">
        <ele>156</ele>
        <time>2025-12-29T12:33:33.875Z</time>
      </trkpt>
      <trkpt lat="43.14941" lon="3.09814">
        <ele>156</ele>
        <time>2025-12-29T12:33:34.875Z</time>
      </trkpt>
      <trkpt lat="43.1494" lon="3.09815">
        <ele>156</ele>
        <time>2025-12-29T12:33:35.875Z</time>
      </trkpt>
      <trkpt lat="43.14939" lon="3.09814">
        <ele>156</ele>
        <time>2025-12-29T12:33:36.875Z</time>
      </trkpt>
      <trkpt lat="43.14938" lon="3.09814">
        <ele>156</ele>
        <time>2025-12-29T12:33:37.875Z</time>
      </trkpt>
      <trkpt lat="43.14937" lon="3.09814">
        <ele>156</ele>
        <time>2025-12-29T12:33:38.875Z</time>
      </trkpt>
      <trkpt lat="43.14937" lon="3.09812">
        <ele>156</ele>
        <time>2025-12-29T12:33:39.875Z</time>
      </trkpt>
      <trkpt lat="43.14936" lon="3.09811">
        <ele>156</ele>
        <time>2025-12-29T12:33:40.875Z</time>
      </trkpt>
      <trkpt lat="43.14935" lon="3.0981">
        <ele>157</ele>
        <time>2025-12-29T12:33:41.875Z</time>
      </trkpt>
      <trkpt lat="43.14934" lon="3.0981">
        <ele>156</ele>
        <time>2025-12-29T12:33:42.875Z</time>
      </trkpt>
      <trkpt lat="43.14933" lon="3.09809">
        <ele>156</ele>
        <time>2025-12-29T12:33:43.875Z</time>
      </trkpt>
      <trkpt lat="43.14933" lon="3.09809">
        <ele>156</ele>
        <time>2025-12-29T12:33:44.875Z</time>
      </trkpt>
      <trkpt lat="43.14931" lon="3.09808">
        <ele>156</ele>
        <time>2025-12-29T12:33:45.875Z</time>
      </trkpt>
      <trkpt lat="43.1493" lon="3.09808">
        <ele>155</ele>
        <time>2025-12-29T12:33:46.875Z</time>
      </trkpt>
      <trkpt lat="43.14929" lon="3.09808">
        <ele>155</ele>
        <time>2025-12-29T12:33:47.875Z</time>
      </trkpt>
      <trkpt lat="43.14929" lon="3.09808">
        <ele>154</ele>
        <time>2025-12-29T12:33:48.875Z</time>
      </trkpt>
      <trkpt lat="43.14928" lon="3.09809">
        <ele>154</ele>
        <time>2025-12-29T12:33:49.875Z</time>
      </trkpt>
      <trkpt lat="43.14928" lon="3.0981">
        <ele>153</ele>
        <time>2025-12-29T12:33:50.875Z</time>
      </trkpt>
      <trkpt lat="43.14928" lon="3.0981">
        <ele>153</ele>
        <time>2025-12-29T12:33:51.875Z</time>
      </trkpt>
      <trkpt lat="43.14928" lon="3.0981">
        <ele>152</ele>
        <time>2025-12-29T12:33:52.875Z</time>
      </trkpt>
      <trkpt lat="43.14928" lon="3.09811">
        <ele>151</ele>
        <time>2025-12-29T12:33:53.875Z</time>
      </trkpt>
      <trkpt lat="43.14928" lon="3.09811">
        <ele>150</ele>
        <time>2025-12-29T12:33:54.875Z</time>
      </trkpt>
      <trkpt lat="43.14927" lon="3.09812">
        <ele>150</ele>
        <time>2025-12-29T12:33:55.875Z</time>
      </trkpt>
      <trkpt lat="43.14927" lon="3.09812">
        <ele>149</ele>
        <time>2025-12-29T12:33:56.875Z</time>
      </trkpt>
      <trkpt lat="43.14926" lon="3.09813">
        <ele>149</ele>
        <time>2025-12-29T12:33:57.875Z</time>
      </trkpt>
      <trkpt lat="43.14926" lon="3.09813">
        <ele>148</ele>
        <time>2025-12-29T12:33:58.875Z</time>
      </trkpt>
      <trkpt lat="43.14925" lon="3.09813">
        <ele>148</ele>
        <time>2025-12-29T12:33:59.875Z</time>
      </trkpt>
      <trkpt lat="43.14925" lon="3.09813">
        <ele>148</ele>
        <time>2025-12-29T12:34:00.875Z</time>
      </trkpt>
      <trkpt lat="43.14924" lon="3.09814">
        <ele>148</ele>
        <time>2025-12-29T12:34:01.875Z</time>
      </trkpt>
      <trkpt lat="43.14924" lon="3.09815">
        <ele>148</ele>
        <time>2025-12-29T12:34:02.875Z</time>
      </trkpt>
      <trkpt lat="43.14924" lon="3.09816">
        <ele>148</ele>
        <time>2025-12-29T12:34:03.875Z</time>
      </trkpt>
      <trkpt lat="43.14925" lon="3.09817">
        <ele>148</ele>
        <time>2025-12-29T12:34:04.875Z</time>
      </trkpt>
      <trkpt lat="43.14925" lon="3.09819">
        <ele>148</ele>
        <time>2025-12-29T12:34:05.875Z</time>
      </trkpt>
      <trkpt lat="43.14925" lon="3.0982">
        <ele>148</ele>
        <time>2025-12-29T12:34:06.875Z</time>
      </trkpt>
      <trkpt lat="43.14925" lon="3.0982">
        <ele>148</ele>
        <time>2025-12-29T12:34:07.875Z</time>
      </trkpt>
      <trkpt lat="43.14925" lon="3.0982">
        <ele>148</ele>
        <time>2025-12-29T12:34:08.875Z</time>
      </trkpt>
      <trkpt lat="43.14926" lon="3.0982">
        <ele>148</ele>
        <time>2025-12-29T12:34:09.875Z</time>
      </trkpt>
      <trkpt lat="43.14925" lon="3.0982">
        <ele>148</ele>
        <time>2025-12-29T12:34:10.875Z</time>
      </trkpt>
      <trkpt lat="43.14925" lon="3.0982">
        <ele>148</ele>
        <time>2025-12-29T12:34:11.875Z</time>
      </trkpt>
      <trkpt lat="43.14925" lon="3.0982">
        <ele>148</ele>
        <time>2025-12-29T12:34:12.875Z</time>
      </trkpt>
      <trkpt lat="43.14925" lon="3.09821">
        <ele>148</ele>
        <time>2025-12-29T12:34:13.875Z</time>
      </trkpt>
      <trkpt lat="43.14925" lon="3.09821">
        <ele>148</ele>
        <time>2025-12-29T12:34:14.875Z</time>
      </trkpt>
      <trkpt lat="43.14925" lon="3.09821">
        <ele>148</ele>
        <time>2025-12-29T12:34:15.875Z</time>
      </trkpt>
      <trkpt lat="43.14925" lon="3.09821">
        <ele>148</ele>
        <time>2025-12-29T12:34:16.875Z</time>
      </trkpt>
      <trkpt lat="43.14925" lon="3.09821">
        <ele>149</ele>
        <time>2025-12-29T12:34:17.875Z</time>
      </trkpt>
      <trkpt lat="43.14925" lon="3.09821">
        <ele>149</ele>
        <time>2025-12-29T12:34:18.875Z</time>
      </trkpt>
      <trkpt lat="43.14925" lon="3.09821">
        <ele>149</ele>
        <time>2025-12-29T12:34:19.875Z</time>
      </trkpt>
      <trkpt lat="43.14925" lon="3.09821">
        <ele>149</ele>
        <time>2025-12-29T12:34:20.875Z</time>
      </trkpt>
      <trkpt lat="43.14925" lon="3.09821">
        <ele>148</ele>
        <time>2025-12-29T12:34:21.875Z</time>
      </trkpt>
      <trkpt lat="43.14925" lon="3.09821">
        <ele>148</ele>
        <time>2025-12-29T12:34:22.875Z</time>
      </trkpt>
      <trkpt lat="43.14925" lon="3.09821">
        <ele>148</ele>
        <time>2025-12-29T12:34:23.875Z</time>
      </trkpt>
      <trkpt lat="43.14925" lon="3.09821">
        <ele>148</ele>
        <time>2025-12-29T12:34:24.875Z</time>
      </trkpt>
      <trkpt lat="43.14925" lon="3.09821">
        <ele>148</ele>
        <time>2025-12-29T12:34:25.875Z</time>
      </trkpt>
      <trkpt lat="43.14925" lon="3.09821">
        <ele>148</ele>
        <time>2025-12-29T12:34:26.875Z</time>
      </trkpt>
      <trkpt lat="43.14925" lon="3.09821">
        <ele>148</ele>
        <time>2025-12-29T12:34:27.875Z</time>
      </trkpt>
      <trkpt lat="43.14925" lon="3.09821">
        <ele>148</ele>
        <time>2025-12-29T12:34:28.875Z</time>
      </trkpt>
      <trkpt lat="43.14925" lon="3.09821">
        <ele>148</ele>
        <time>2025-12-29T12:34:29.875Z</time>
      </trkpt>
      <trkpt lat="43.14925" lon="3.09821">
        <ele>149</ele>
        <time>2025-12-29T12:34:30.875Z</time>
      </trkpt>
      <trkpt lat="43.14925" lon="3.09821">
        <ele>149</ele>
        <time>2025-12-29T12:34:31.875Z</time>
      </trkpt>
      <trkpt lat="43.14925" lon="3.09821">
        <ele>149</ele>
        <time>2025-12-29T12:34:32.875Z</time>
      </trkpt>
      <trkpt lat="43.14926" lon="3.09821">
        <ele>149</ele>
        <time>2025-12-29T12:34:33.875Z</time>
      </trkpt>
      <trkpt lat="43.14926" lon="3.09821">
        <ele>150</ele>
        <time>2025-12-29T12:34:34.875Z</time>
      </trkpt>
      <trkpt lat="43.14926" lon="3.09821">
        <ele>150</ele>
        <time>2025-12-29T12:34:35.875Z</time>
      </trkpt>
      <trkpt lat="43.14926" lon="3.09821">
        <ele>150</ele>
        <time>2025-12-29T12:34:36.875Z</time>
      </trkpt>
      <trkpt lat="43.14926" lon="3.09821">
        <ele>150</ele>
        <time>2025-12-29T12:34:37.875Z</time>
      </trkpt>
      <trkpt lat="43.14926" lon="3.09821">
        <ele>150</ele>
        <time>2025-12-29T12:34:38.875Z</time>
      </trkpt>
      <trkpt lat="43.14926" lon="3.09821">
        <ele>150</ele>
        <time>2025-12-29T12:34:39.875Z</time>
      </trkpt>
      <trkpt lat="43.14925" lon="3.09821">
        <ele>150</ele>
        <time>2025-12-29T12:34:40.875Z</time>
      </trkpt>
      <trkpt lat="43.14925" lon="3.09821">
        <ele>149</ele>
        <time>2025-12-29T12:34:41.875Z</time>
      </trkpt>
      <trkpt lat="43.14925" lon="3.09821">
        <ele>149</ele>
        <time>2025-12-29T12:34:42.875Z</time>
      </trkpt>
      <trkpt lat="43.14925" lon="3.09821">
        <ele>149</ele>
        <time>2025-12-29T12:34:43.875Z</time>
      </trkpt>
      <trkpt lat="43.14925" lon="3.09821">
        <ele>149</ele>
        <time>2025-12-29T12:34:44.875Z</time>
      </trkpt>
      <trkpt lat="43.14925" lon="3.09821">
        <ele>149</ele>
        <time>2025-12-29T12:34:45.875Z</time>
      </trkpt>
      <trkpt lat="43.14925" lon="3.09821">
        <ele>149</ele>
        <time>2025-12-29T12:34:46.875Z</time>
      </trkpt>
      <trkpt lat="43.14925" lon="3.09821">
        <ele>148</ele>
        <time>2025-12-29T12:34:47.875Z</time>
      </trkpt>
      <trkpt lat="43.14925" lon="3.09821">
        <ele>148</ele>
        <time>2025-12-29T12:34:48.875Z</time>
      </trkpt>
      <trkpt lat="43.14925" lon="3.0982">
        <ele>147</ele>
        <time>2025-12-29T12:34:49.875Z</time>
      </trkpt>
      <trkpt lat="43.14925" lon="3.0982">
        <ele>147</ele>
        <time>2025-12-29T12:34:50.875Z</time>
      </trkpt>
      <trkpt lat="43.14925" lon="3.0982">
        <ele>147</ele>
        <time>2025-12-29T12:34:51.875Z</time>
      </trkpt>
      <trkpt lat="43.14925" lon="3.0982">
        <ele>147</ele>
        <time>2025-12-29T12:34:52.875Z</time>
      </trkpt>
      <trkpt lat="43.14925" lon="3.0982">
        <ele>148</ele>
        <time>2025-12-29T12:34:53.875Z</time>
      </trkpt>
      <trkpt lat="43.14925" lon="3.0982">
        <ele>149</ele>
        <time>2025-12-29T12:34:54.875Z</time>
      </trkpt>
      <trkpt lat="43.14925" lon="3.0982">
        <ele>149</ele>
        <time>2025-12-29T12:34:55.875Z</time>
      </trkpt>
      <trkpt lat="43.14925" lon="3.0982">
        <ele>150</ele>
        <time>2025-12-29T12:34:56.875Z</time>
      </trkpt>
      <trkpt lat="43.14925" lon="3.0982">
        <ele>151</ele>
        <time>2025-12-29T12:34:57.875Z</time>
      </trkpt>
      <trkpt lat="43.14925" lon="3.0982">
        <ele>151</ele>
        <time>2025-12-29T12:34:58.875Z</time>
      </trkpt>
      <trkpt lat="43.14925" lon="3.0982">
        <ele>152</ele>
        <time>2025-12-29T12:34:59.875Z</time>
      </trkpt>
      <trkpt lat="43.14925" lon="3.0982">
        <ele>152</ele>
        <time>2025-12-29T12:35:00.875Z</time>
      </trkpt>
      <trkpt lat="43.14925" lon="3.0982">
        <ele>152</ele>
        <time>2025-12-29T12:35:01.875Z</time>
      </trkpt>
      <trkpt lat="43.14925" lon="3.0982">
        <ele>152</ele>
        <time>2025-12-29T12:35:02.875Z</time>
      </trkpt>
      <trkpt lat="43.14925" lon="3.0982">
        <ele>153</ele>
        <time>2025-12-29T12:35:03.875Z</time>
      </trkpt>
      <trkpt lat="43.14925" lon="3.0982">
        <ele>153</ele>
        <time>2025-12-29T12:35:04.875Z</time>
      </trkpt>
      <trkpt lat="43.14925" lon="3.0982">
        <ele>153</ele>
        <time>2025-12-29T12:35:05.875Z</time>
      </trkpt>
      <trkpt lat="43.14925" lon="3.0982">
        <ele>153</ele>
        <time>2025-12-29T12:35:06.875Z</time>
      </trkpt>
      <trkpt lat="43.14925" lon="3.0982">
        <ele>153</ele>
        <time>2025-12-29T12:35:07.875Z</time>
      </trkpt>
      <trkpt lat="43.14925" lon="3.0982">
        <ele>153</ele>
        <time>2025-12-29T12:35:08.875Z</time>
      </trkpt>
      <trkpt lat="43.14925" lon="3.09821">
        <ele>153</ele>
        <time>2025-12-29T12:35:09.875Z</time>
      </trkpt>
      <trkpt lat="43.14925" lon="3.09821">
        <ele>153</ele>
        <time>2025-12-29T12:35:10.875Z</time>
      </trkpt>
      <trkpt lat="43.14925" lon="3.09821">
        <ele>153</ele>
        <time>2025-12-29T12:35:11.875Z</time>
      </trkpt>
      <trkpt lat="43.14925" lon="3.09821">
        <ele>153</ele>
        <time>2025-12-29T12:35:12.875Z</time>
      </trkpt>
      <trkpt lat="43.14925" lon="3.09821">
        <ele>153</ele>
        <time>2025-12-29T12:35:13.875Z</time>
      </trkpt>
      <trkpt lat="43.14925" lon="3.09821">
        <ele>153</ele>
        <time>2025-12-29T12:35:14.875Z</time>
      </trkpt>
      <trkpt lat="43.14925" lon="3.09821">
        <ele>153</ele>
        <time>2025-12-29T12:35:15.875Z</time>
      </trkpt>
      <trkpt lat="43.14925" lon="3.09821">
        <ele>153</ele>
        <time>2025-12-29T12:35:16.875Z</time>
      </trkpt>
      <trkpt lat="43.14925" lon="3.09821">
        <ele>154</ele>
        <time>2025-12-29T12:35:17.875Z</time>
      </trkpt>
      <trkpt lat="43.14925" lon="3.09821">
        <ele>154</ele>
        <time>2025-12-29T12:35:18.875Z</time>
      </trkpt>
      <trkpt lat="43.14925" lon="3.09821">
        <ele>154</ele>
        <time>2025-12-29T12:35:19.875Z</time>
      </trkpt>
      <trkpt lat="43.14925" lon="3.0982">
        <ele>155</ele>
        <time>2025-12-29T12:35:20.875Z</time>
      </trkpt>
      <trkpt lat="43.14925" lon="3.0982">
        <ele>155</ele>
        <time>2025-12-29T12:35:21.875Z</time>
      </trkpt>
      <trkpt lat="43.14925" lon="3.0982">
        <ele>155</ele>
        <time>2025-12-29T12:35:22.875Z</time>
      </trkpt>
      <trkpt lat="43.14925" lon="3.0982">
        <ele>155</ele>
        <time>2025-12-29T12:35:23.875Z</time>
      </trkpt>
      <trkpt lat="43.14925" lon="3.0982">
        <ele>154</ele>
        <time>2025-12-29T12:35:24.875Z</time>
      </trkpt>
      <trkpt lat="43.14925" lon="3.09821">
        <ele>154</ele>
        <time>2025-12-29T12:35:25.875Z</time>
      </trkpt>
      <trkpt lat="43.14925" lon="3.09821">
        <ele>154</ele>
        <time>2025-12-29T12:35:26.875Z</time>
      </trkpt>
      <trkpt lat="43.14925" lon="3.09821">
        <ele>155</ele>
        <time>2025-12-29T12:35:27.875Z</time>
      </trkpt>
      <trkpt lat="43.14925" lon="3.09821">
        <ele>155</ele>
        <time>2025-12-29T12:35:28.875Z</time>
      </trkpt>
      <trkpt lat="43.14925" lon="3.09822">
        <ele>155</ele>
        <time>2025-12-29T12:35:29.875Z</time>
      </trkpt>
      <trkpt lat="43.14925" lon="3.09822">
        <ele>155</ele>
        <time>2025-12-29T12:35:30.875Z</time>
      </trkpt>
      <trkpt lat="43.14925" lon="3.09822">
        <ele>154</ele>
        <time>2025-12-29T12:35:31.875Z</time>
      </trkpt>
      <trkpt lat="43.14925" lon="3.09823">
        <ele>154</ele>
        <time>2025-12-29T12:35:32.875Z</time>
      </trkpt>
      <trkpt lat="43.14924" lon="3.09823">
        <ele>154</ele>
        <time>2025-12-29T12:35:33.875Z</time>
      </trkpt>
      <trkpt lat="43.14924" lon="3.09823">
        <ele>154</ele>
        <time>2025-12-29T12:35:34.875Z</time>
      </trkpt>
      <trkpt lat="43.14924" lon="3.09823">
        <ele>153</ele>
        <time>2025-12-29T12:35:35.875Z</time>
      </trkpt>
      <trkpt lat="43.14923" lon="3.09823">
        <ele>153</ele>
        <time>2025-12-29T12:35:36.875Z</time>
      </trkpt>
      <trkpt lat="43.14923" lon="3.09822">
        <ele>153</ele>
        <time>2025-12-29T12:35:37.875Z</time>
      </trkpt>
      <trkpt lat="43.14923" lon="3.09822">
        <ele>153</ele>
        <time>2025-12-29T12:35:38.875Z</time>
      </trkpt>
      <trkpt lat="43.14922" lon="3.09822">
        <ele>153</ele>
        <time>2025-12-29T12:35:39.875Z</time>
      </trkpt>
      <trkpt lat="43.14922" lon="3.09822">
        <ele>153</ele>
        <time>2025-12-29T12:35:40.875Z</time>
      </trkpt>
      <trkpt lat="43.14921" lon="3.09822">
        <ele>152</ele>
        <time>2025-12-29T12:35:41.875Z</time>
      </trkpt>
      <trkpt lat="43.14921" lon="3.09821">
        <ele>152</ele>
        <time>2025-12-29T12:35:42.875Z</time>
      </trkpt>
      <trkpt lat="43.1492" lon="3.09821">
        <ele>152</ele>
        <time>2025-12-29T12:35:43.875Z</time>
      </trkpt>
      <trkpt lat="43.14919" lon="3.0982">
        <ele>152</ele>
        <time>2025-12-29T12:35:44.875Z</time>
      </trkpt>
      <trkpt lat="43.14919" lon="3.09819">
        <ele>152</ele>
        <time>2025-12-29T12:35:45.875Z</time>
      </trkpt>
      <trkpt lat="43.14918" lon="3.09818">
        <ele>152</ele>
        <time>2025-12-29T12:35:46.875Z</time>
      </trkpt>
      <trkpt lat="43.14917" lon="3.09817">
        <ele>152</ele>
        <time>2025-12-29T12:35:47.875Z</time>
      </trkpt>
      <trkpt lat="43.14916" lon="3.09817">
        <ele>151</ele>
        <time>2025-12-29T12:35:48.875Z</time>
      </trkpt>
      <trkpt lat="43.14915" lon="3.09816">
        <ele>151</ele>
        <time>2025-12-29T12:35:49.875Z</time>
      </trkpt>
      <trkpt lat="43.14915" lon="3.09816">
        <ele>151</ele>
        <time>2025-12-29T12:35:50.875Z</time>
      </trkpt>
      <trkpt lat="43.14915" lon="3.09816">
        <ele>151</ele>
        <time>2025-12-29T12:35:51.875Z</time>
      </trkpt>
      <trkpt lat="43.14915" lon="3.09816">
        <ele>151</ele>
        <time>2025-12-29T12:35:52.875Z</time>
      </trkpt>
      <trkpt lat="43.14915" lon="3.09816">
        <ele>151</ele>
        <time>2025-12-29T12:35:53.875Z</time>
      </trkpt>
      <trkpt lat="43.14915" lon="3.09815">
        <ele>150</ele>
        <time>2025-12-29T12:35:54.875Z</time>
      </trkpt>
      <trkpt lat="43.14915" lon="3.09814">
        <ele>150</ele>
        <time>2025-12-29T12:35:55.875Z</time>
      </trkpt>
      <trkpt lat="43.14915" lon="3.09814">
        <ele>150</ele>
        <time>2025-12-29T12:35:56.875Z</time>
      </trkpt>
      <trkpt lat="43.14915" lon="3.09813">
        <ele>149</ele>
        <time>2025-12-29T12:35:57.875Z</time>
      </trkpt>
      <trkpt lat="43.14915" lon="3.09812">
        <ele>149</ele>
        <time>2025-12-29T12:35:58.875Z</time>
      </trkpt>
      <trkpt lat="43.14915" lon="3.09811">
        <ele>149</ele>
        <time>2025-12-29T12:35:59.875Z</time>
      </trkpt>
      <trkpt lat="43.14914" lon="3.0981">
        <ele>149</ele>
        <time>2025-12-29T12:36:00.875Z</time>
      </trkpt>
      <trkpt lat="43.14914" lon="3.09809">
        <ele>149</ele>
        <time>2025-12-29T12:36:01.875Z</time>
      </trkpt>
      <trkpt lat="43.14913" lon="3.09808">
        <ele>149</ele>
        <time>2025-12-29T12:36:02.875Z</time>
      </trkpt>
      <trkpt lat="43.14913" lon="3.09807">
        <ele>148</ele>
        <time>2025-12-29T12:36:03.875Z</time>
      </trkpt>
      <trkpt lat="43.14912" lon="3.09807">
        <ele>148</ele>
        <time>2025-12-29T12:36:04.875Z</time>
      </trkpt>
      <trkpt lat="43.1491" lon="3.09806">
        <ele>149</ele>
        <time>2025-12-29T12:36:05.875Z</time>
      </trkpt>
      <trkpt lat="43.14909" lon="3.09806">
        <ele>149</ele>
        <time>2025-12-29T12:36:06.875Z</time>
      </trkpt>
      <trkpt lat="43.14908" lon="3.09805">
        <ele>149</ele>
        <time>2025-12-29T12:36:07.875Z</time>
      </trkpt>
      <trkpt lat="43.14907" lon="3.09805">
        <ele>148</ele>
        <time>2025-12-29T12:36:08.875Z</time>
      </trkpt>
      <trkpt lat="43.14906" lon="3.09804">
        <ele>148</ele>
        <time>2025-12-29T12:36:09.875Z</time>
      </trkpt>
      <trkpt lat="43.14905" lon="3.09804">
        <ele>148</ele>
        <time>2025-12-29T12:36:10.875Z</time>
      </trkpt>
      <trkpt lat="43.14904" lon="3.09803">
        <ele>147</ele>
        <time>2025-12-29T12:36:11.875Z</time>
      </trkpt>
      <trkpt lat="43.14903" lon="3.09804">
        <ele>146</ele>
        <time>2025-12-29T12:36:12.875Z</time>
      </trkpt>
      <trkpt lat="43.14903" lon="3.09804">
        <ele>146</ele>
        <time>2025-12-29T12:36:13.875Z</time>
      </trkpt>
      <trkpt lat="43.14902" lon="3.09804">
        <ele>145</ele>
        <time>2025-12-29T12:36:14.875Z</time>
      </trkpt>
      <trkpt lat="43.14902" lon="3.09803">
        <ele>145</ele>
        <time>2025-12-29T12:36:15.875Z</time>
      </trkpt>
      <trkpt lat="43.14901" lon="3.09802">
        <ele>145</ele>
        <time>2025-12-29T12:36:16.875Z</time>
      </trkpt>
      <trkpt lat="43.149" lon="3.09801">
        <ele>144</ele>
        <time>2025-12-29T12:36:17.875Z</time>
      </trkpt>
      <trkpt lat="43.14899" lon="3.098">
        <ele>144</ele>
        <time>2025-12-29T12:36:18.875Z</time>
      </trkpt>
      <trkpt lat="43.14898" lon="3.09799">
        <ele>144</ele>
        <time>2025-12-29T12:36:19.875Z</time>
      </trkpt>
      <trkpt lat="43.14897" lon="3.09798">
        <ele>144</ele>
        <time>2025-12-29T12:36:20.875Z</time>
      </trkpt>
      <trkpt lat="43.14896" lon="3.09797">
        <ele>144</ele>
        <time>2025-12-29T12:36:21.875Z</time>
      </trkpt>
      <trkpt lat="43.14896" lon="3.09796">
        <ele>144</ele>
        <time>2025-12-29T12:36:22.875Z</time>
      </trkpt>
      <trkpt lat="43.14895" lon="3.09795">
        <ele>144</ele>
        <time>2025-12-29T12:36:23.875Z</time>
      </trkpt>
      <trkpt lat="43.14894" lon="3.09795">
        <ele>144</ele>
        <time>2025-12-29T12:36:24.875Z</time>
      </trkpt>
      <trkpt lat="43.14894" lon="3.09795">
        <ele>144</ele>
        <time>2025-12-29T12:36:25.875Z</time>
      </trkpt>
      <trkpt lat="43.14894" lon="3.09795">
        <ele>144</ele>
        <time>2025-12-29T12:36:26.875Z</time>
      </trkpt>
      <trkpt lat="43.14894" lon="3.09795">
        <ele>144</ele>
        <time>2025-12-29T12:36:27.875Z</time>
      </trkpt>
      <trkpt lat="43.14894" lon="3.09795">
        <ele>144</ele>
        <time>2025-12-29T12:36:28.875Z</time>
      </trkpt>
      <trkpt lat="43.14894" lon="3.09795">
        <ele>144</ele>
        <time>2025-12-29T12:36:29.875Z</time>
      </trkpt>
      <trkpt lat="43.14894" lon="3.09795">
        <ele>144</ele>
        <time>2025-12-29T12:36:30.875Z</time>
      </trkpt>
      <trkpt lat="43.14894" lon="3.09795">
        <ele>144</ele>
        <time>2025-12-29T12:36:31.875Z</time>
      </trkpt>
      <trkpt lat="43.14894" lon="3.09795">
        <ele>144</ele>
        <time>2025-12-29T12:36:32.875Z</time>
      </trkpt>
      <trkpt lat="43.14893" lon="3.09794">
        <ele>144</ele>
        <time>2025-12-29T12:36:33.875Z</time>
      </trkpt>
      <trkpt lat="43.14893" lon="3.09794">
        <ele>144</ele>
        <time>2025-12-29T12:36:34.875Z</time>
      </trkpt>
      <trkpt lat="43.14892" lon="3.09793">
        <ele>144</ele>
        <time>2025-12-29T12:36:35.875Z</time>
      </trkpt>
      <trkpt lat="43.14891" lon="3.09791">
        <ele>144</ele>
        <time>2025-12-29T12:36:36.875Z</time>
      </trkpt>
      <trkpt lat="43.14889" lon="3.0979">
        <ele>144</ele>
        <time>2025-12-29T12:36:37.875Z</time>
      </trkpt>
      <trkpt lat="43.14889" lon="3.09789">
        <ele>143</ele>
        <time>2025-12-29T12:36:38.875Z</time>
      </trkpt>
      <trkpt lat="43.14888" lon="3.09787">
        <ele>143</ele>
        <time>2025-12-29T12:36:39.875Z</time>
      </trkpt>
      <trkpt lat="43.14887" lon="3.09786">
        <ele>143</ele>
        <time>2025-12-29T12:36:40.875Z</time>
      </trkpt>
      <trkpt lat="43.14888" lon="3.09785">
        <ele>143</ele>
        <time>2025-12-29T12:36:41.875Z</time>
      </trkpt>
      <trkpt lat="43.14888" lon="3.09783">
        <ele>142</ele>
        <time>2025-12-29T12:36:42.875Z</time>
      </trkpt>
      <trkpt lat="43.14888" lon="3.09781">
        <ele>142</ele>
        <time>2025-12-29T12:36:43.875Z</time>
      </trkpt>
      <trkpt lat="43.14889" lon="3.0978">
        <ele>142</ele>
        <time>2025-12-29T12:36:44.875Z</time>
      </trkpt>
      <trkpt lat="43.14889" lon="3.09778">
        <ele>141</ele>
        <time>2025-12-29T12:36:45.875Z</time>
      </trkpt>
      <trkpt lat="43.14889" lon="3.09776">
        <ele>140</ele>
        <time>2025-12-29T12:36:46.875Z</time>
      </trkpt>
      <trkpt lat="43.1489" lon="3.09774">
        <ele>140</ele>
        <time>2025-12-29T12:36:47.875Z</time>
      </trkpt>
      <trkpt lat="43.1489" lon="3.09772">
        <ele>140</ele>
        <time>2025-12-29T12:36:48.875Z</time>
      </trkpt>
      <trkpt lat="43.1489" lon="3.09771">
        <ele>139</ele>
        <time>2025-12-29T12:36:49.875Z</time>
      </trkpt>
      <trkpt lat="43.14891" lon="3.09769">
        <ele>139</ele>
        <time>2025-12-29T12:36:50.875Z</time>
      </trkpt>
      <trkpt lat="43.14891" lon="3.09767">
        <ele>139</ele>
        <time>2025-12-29T12:36:51.875Z</time>
      </trkpt>
      <trkpt lat="43.14892" lon="3.09765">
        <ele>139</ele>
        <time>2025-12-29T12:36:52.875Z</time>
      </trkpt>
      <trkpt lat="43.14892" lon="3.09764">
        <ele>139</ele>
        <time>2025-12-29T12:36:53.875Z</time>
      </trkpt>
      <trkpt lat="43.14892" lon="3.09762">
        <ele>138</ele>
        <time>2025-12-29T12:36:54.875Z</time>
      </trkpt>
      <trkpt lat="43.14891" lon="3.09761">
        <ele>138</ele>
        <time>2025-12-29T12:36:55.875Z</time>
      </trkpt>
      <trkpt lat="43.14891" lon="3.09759">
        <ele>138</ele>
        <time>2025-12-29T12:36:56.875Z</time>
      </trkpt>
      <trkpt lat="43.1489" lon="3.09758">
        <ele>138</ele>
        <time>2025-12-29T12:36:57.875Z</time>
      </trkpt>
      <trkpt lat="43.14889" lon="3.09757">
        <ele>138</ele>
        <time>2025-12-29T12:36:58.875Z</time>
      </trkpt>
      <trkpt lat="43.14889" lon="3.09756">
        <ele>138</ele>
        <time>2025-12-29T12:36:59.875Z</time>
      </trkpt>
      <trkpt lat="43.14888" lon="3.09756">
        <ele>138</ele>
        <time>2025-12-29T12:37:00.875Z</time>
      </trkpt>
      <trkpt lat="43.14888" lon="3.09756">
        <ele>138</ele>
        <time>2025-12-29T12:37:01.875Z</time>
      </trkpt>
      <trkpt lat="43.14887" lon="3.09754">
        <ele>138</ele>
        <time>2025-12-29T12:37:02.875Z</time>
      </trkpt>
      <trkpt lat="43.14886" lon="3.09753">
        <ele>137</ele>
        <time>2025-12-29T12:37:03.875Z</time>
      </trkpt>
      <trkpt lat="43.14885" lon="3.09752">
        <ele>137</ele>
        <time>2025-12-29T12:37:04.875Z</time>
      </trkpt>
      <trkpt lat="43.14884" lon="3.09752">
        <ele>137</ele>
        <time>2025-12-29T12:37:05.875Z</time>
      </trkpt>
      <trkpt lat="43.14883" lon="3.09752">
        <ele>137</ele>
        <time>2025-12-29T12:37:06.875Z</time>
      </trkpt>
      <trkpt lat="43.14882" lon="3.09752">
        <ele>137</ele>
        <time>2025-12-29T12:37:07.875Z</time>
      </trkpt>
      <trkpt lat="43.1488" lon="3.09752">
        <ele>137</ele>
        <time>2025-12-29T12:37:08.875Z</time>
      </trkpt>
      <trkpt lat="43.14879" lon="3.09752">
        <ele>136</ele>
        <time>2025-12-29T12:37:09.875Z</time>
      </trkpt>
      <trkpt lat="43.14878" lon="3.09752">
        <ele>136</ele>
        <time>2025-12-29T12:37:10.875Z</time>
      </trkpt>
      <trkpt lat="43.14877" lon="3.09752">
        <ele>136</ele>
        <time>2025-12-29T12:37:11.875Z</time>
      </trkpt>
      <trkpt lat="43.14876" lon="3.09752">
        <ele>135</ele>
        <time>2025-12-29T12:37:12.875Z</time>
      </trkpt>
      <trkpt lat="43.14875" lon="3.09753">
        <ele>135</ele>
        <time>2025-12-29T12:37:13.875Z</time>
      </trkpt>
      <trkpt lat="43.14873" lon="3.09753">
        <ele>135</ele>
        <time>2025-12-29T12:37:14.875Z</time>
      </trkpt>
      <trkpt lat="43.14872" lon="3.09753">
        <ele>135</ele>
        <time>2025-12-29T12:37:15.875Z</time>
      </trkpt>
      <trkpt lat="43.14871" lon="3.09753">
        <ele>135</ele>
        <time>2025-12-29T12:37:16.875Z</time>
      </trkpt>
      <trkpt lat="43.1487" lon="3.09753">
        <ele>135</ele>
        <time>2025-12-29T12:37:17.875Z</time>
      </trkpt>
      <trkpt lat="43.14868" lon="3.09754">
        <ele>135</ele>
        <time>2025-12-29T12:37:18.875Z</time>
      </trkpt>
      <trkpt lat="43.14867" lon="3.09754">
        <ele>135</ele>
        <time>2025-12-29T12:37:19.875Z</time>
      </trkpt>
      <trkpt lat="43.14865" lon="3.09754">
        <ele>135</ele>
        <time>2025-12-29T12:37:20.875Z</time>
      </trkpt>
      <trkpt lat="43.14864" lon="3.09755">
        <ele>135</ele>
        <time>2025-12-29T12:37:21.875Z</time>
      </trkpt>
      <trkpt lat="43.14863" lon="3.09755">
        <ele>135</ele>
        <time>2025-12-29T12:37:22.875Z</time>
      </trkpt>
      <trkpt lat="43.14862" lon="3.09755">
        <ele>135</ele>
        <time>2025-12-29T12:37:23.875Z</time>
      </trkpt>
      <trkpt lat="43.14861" lon="3.09756">
        <ele>135</ele>
        <time>2025-12-29T12:37:24.875Z</time>
      </trkpt>
      <trkpt lat="43.1486" lon="3.09757">
        <ele>135</ele>
        <time>2025-12-29T12:37:25.875Z</time>
      </trkpt>
      <trkpt lat="43.14858" lon="3.09757">
        <ele>136</ele>
        <time>2025-12-29T12:37:26.875Z</time>
      </trkpt>
      <trkpt lat="43.14857" lon="3.09758">
        <ele>136</ele>
        <time>2025-12-29T12:37:27.875Z</time>
      </trkpt>
      <trkpt lat="43.14856" lon="3.09758">
        <ele>136</ele>
        <time>2025-12-29T12:37:28.875Z</time>
      </trkpt>
      <trkpt lat="43.14854" lon="3.09758">
        <ele>137</ele>
        <time>2025-12-29T12:37:29.875Z</time>
      </trkpt>
      <trkpt lat="43.14853" lon="3.09759">
        <ele>137</ele>
        <time>2025-12-29T12:37:30.875Z</time>
      </trkpt>
      <trkpt lat="43.14852" lon="3.09759">
        <ele>137</ele>
        <time>2025-12-29T12:37:31.875Z</time>
      </trkpt>
      <trkpt lat="43.14851" lon="3.0976">
        <ele>137</ele>
        <time>2025-12-29T12:37:32.875Z</time>
      </trkpt>
      <trkpt lat="43.1485" lon="3.0976">
        <ele>138</ele>
        <time>2025-12-29T12:37:33.875Z</time>
      </trkpt>
      <trkpt lat="43.14848" lon="3.09761">
        <ele>138</ele>
        <time>2025-12-29T12:37:34.875Z</time>
      </trkpt>
      <trkpt lat="43.14847" lon="3.09761">
        <ele>137</ele>
        <time>2025-12-29T12:37:35.875Z</time>
      </trkpt>
      <trkpt lat="43.14846" lon="3.09762">
        <ele>137</ele>
        <time>2025-12-29T12:37:36.875Z</time>
      </trkpt>
      <trkpt lat="43.14845" lon="3.09763">
        <ele>137</ele>
        <time>2025-12-29T12:37:37.875Z</time>
      </trkpt>
      <trkpt lat="43.14844" lon="3.09763">
        <ele>137</ele>
        <time>2025-12-29T12:37:38.875Z</time>
      </trkpt>
      <trkpt lat="43.14842" lon="3.09763">
        <ele>137</ele>
        <time>2025-12-29T12:37:39.875Z</time>
      </trkpt>
      <trkpt lat="43.14841" lon="3.09764">
        <ele>137</ele>
        <time>2025-12-29T12:37:40.875Z</time>
      </trkpt>
      <trkpt lat="43.1484" lon="3.09764">
        <ele>137</ele>
        <time>2025-12-29T12:37:41.875Z</time>
      </trkpt>
      <trkpt lat="43.14839" lon="3.09764">
        <ele>137</ele>
        <time>2025-12-29T12:37:42.875Z</time>
      </trkpt>
      <trkpt lat="43.14837" lon="3.09764">
        <ele>137</ele>
        <time>2025-12-29T12:37:43.875Z</time>
      </trkpt>
      <trkpt lat="43.14836" lon="3.09764">
        <ele>137</ele>
        <time>2025-12-29T12:37:44.875Z</time>
      </trkpt>
      <trkpt lat="43.14835" lon="3.09764">
        <ele>137</ele>
        <time>2025-12-29T12:37:45.875Z</time>
      </trkpt>
      <trkpt lat="43.14834" lon="3.09764">
        <ele>137</ele>
        <time>2025-12-29T12:37:46.875Z</time>
      </trkpt>
      <trkpt lat="43.14833" lon="3.09764">
        <ele>137</ele>
        <time>2025-12-29T12:37:47.875Z</time>
      </trkpt>
      <trkpt lat="43.14832" lon="3.09763">
        <ele>137</ele>
        <time>2025-12-29T12:37:48.875Z</time>
      </trkpt>
      <trkpt lat="43.14831" lon="3.09762">
        <ele>137</ele>
        <time>2025-12-29T12:37:49.875Z</time>
      </trkpt>
      <trkpt lat="43.1483" lon="3.09762">
        <ele>137</ele>
        <time>2025-12-29T12:37:50.875Z</time>
      </trkpt>
      <trkpt lat="43.14828" lon="3.09761">
        <ele>138</ele>
        <time>2025-12-29T12:37:51.875Z</time>
      </trkpt>
      <trkpt lat="43.14827" lon="3.0976">
        <ele>138</ele>
        <time>2025-12-29T12:37:52.875Z</time>
      </trkpt>
      <trkpt lat="43.14826" lon="3.09759">
        <ele>139</ele>
        <time>2025-12-29T12:37:53.875Z</time>
      </trkpt>
      <trkpt lat="43.14824" lon="3.09758">
        <ele>139</ele>
        <time>2025-12-29T12:37:54.875Z</time>
      </trkpt>
      <trkpt lat="43.14823" lon="3.09757">
        <ele>139</ele>
        <time>2025-12-29T12:37:55.875Z</time>
      </trkpt>
      <trkpt lat="43.14822" lon="3.09756">
        <ele>139</ele>
        <time>2025-12-29T12:37:56.875Z</time>
      </trkpt>
      <trkpt lat="43.14821" lon="3.09755">
        <ele>139</ele>
        <time>2025-12-29T12:37:57.875Z</time>
      </trkpt>
      <trkpt lat="43.1482" lon="3.09753">
        <ele>139</ele>
        <time>2025-12-29T12:37:58.875Z</time>
      </trkpt>
      <trkpt lat="43.14819" lon="3.09752">
        <ele>139</ele>
        <time>2025-12-29T12:37:59.875Z</time>
      </trkpt>
      <trkpt lat="43.14818" lon="3.09751">
        <ele>139</ele>
        <time>2025-12-29T12:38:00.875Z</time>
      </trkpt>
      <trkpt lat="43.14817" lon="3.0975">
        <ele>139</ele>
        <time>2025-12-29T12:38:01.875Z</time>
      </trkpt>
      <trkpt lat="43.14816" lon="3.0975">
        <ele>140</ele>
        <time>2025-12-29T12:38:02.875Z</time>
      </trkpt>
      <trkpt lat="43.14815" lon="3.09749">
        <ele>140</ele>
        <time>2025-12-29T12:38:03.875Z</time>
      </trkpt>
      <trkpt lat="43.14814" lon="3.09747">
        <ele>140</ele>
        <time>2025-12-29T12:38:04.875Z</time>
      </trkpt>
      <trkpt lat="43.14813" lon="3.09746">
        <ele>140</ele>
        <time>2025-12-29T12:38:05.875Z</time>
      </trkpt>
      <trkpt lat="43.14812" lon="3.09745">
        <ele>141</ele>
        <time>2025-12-29T12:38:06.875Z</time>
      </trkpt>
      <trkpt lat="43.14812" lon="3.09745">
        <ele>141</ele>
        <time>2025-12-29T12:38:07.875Z</time>
      </trkpt>
      <trkpt lat="43.14811" lon="3.09744">
        <ele>141</ele>
        <time>2025-12-29T12:38:08.875Z</time>
      </trkpt>
      <trkpt lat="43.1481" lon="3.09743">
        <ele>141</ele>
        <time>2025-12-29T12:38:09.875Z</time>
      </trkpt>
      <trkpt lat="43.14809" lon="3.09742">
        <ele>141</ele>
        <time>2025-12-29T12:38:10.875Z</time>
      </trkpt>
      <trkpt lat="43.14807" lon="3.09742">
        <ele>141</ele>
        <time>2025-12-29T12:38:11.875Z</time>
      </trkpt>
      <trkpt lat="43.14806" lon="3.0974">
        <ele>141</ele>
        <time>2025-12-29T12:38:12.875Z</time>
      </trkpt>
      <trkpt lat="43.14805" lon="3.09739">
        <ele>141</ele>
        <time>2025-12-29T12:38:13.875Z</time>
      </trkpt>
      <trkpt lat="43.14804" lon="3.09738">
        <ele>141</ele>
        <time>2025-12-29T12:38:14.875Z</time>
      </trkpt>
      <trkpt lat="43.14804" lon="3.09737">
        <ele>141</ele>
        <time>2025-12-29T12:38:15.875Z</time>
      </trkpt>
      <trkpt lat="43.14804" lon="3.09736">
        <ele>141</ele>
        <time>2025-12-29T12:38:16.875Z</time>
      </trkpt>
      <trkpt lat="43.14803" lon="3.09735">
        <ele>142</ele>
        <time>2025-12-29T12:38:17.875Z</time>
      </trkpt>
      <trkpt lat="43.14802" lon="3.09734">
        <ele>142</ele>
        <time>2025-12-29T12:38:18.875Z</time>
      </trkpt>
      <trkpt lat="43.14802" lon="3.09733">
        <ele>142</ele>
        <time>2025-12-29T12:38:19.875Z</time>
      </trkpt>
      <trkpt lat="43.14801" lon="3.09731">
        <ele>143</ele>
        <time>2025-12-29T12:38:20.875Z</time>
      </trkpt>
      <trkpt lat="43.148" lon="3.0973">
        <ele>143</ele>
        <time>2025-12-29T12:38:21.875Z</time>
      </trkpt>
      <trkpt lat="43.14799" lon="3.09729">
        <ele>143</ele>
        <time>2025-12-29T12:38:22.875Z</time>
      </trkpt>
      <trkpt lat="43.14799" lon="3.09727">
        <ele>143</ele>
        <time>2025-12-29T12:38:23.875Z</time>
      </trkpt>
      <trkpt lat="43.14798" lon="3.09726">
        <ele>143</ele>
        <time>2025-12-29T12:38:24.875Z</time>
      </trkpt>
      <trkpt lat="43.14797" lon="3.09724">
        <ele>143</ele>
        <time>2025-12-29T12:38:25.875Z</time>
      </trkpt>
      <trkpt lat="43.14796" lon="3.09723">
        <ele>143</ele>
        <time>2025-12-29T12:38:26.875Z</time>
      </trkpt>
      <trkpt lat="43.14796" lon="3.09721">
        <ele>143</ele>
        <time>2025-12-29T12:38:27.875Z</time>
      </trkpt>
      <trkpt lat="43.14795" lon="3.0972">
        <ele>143</ele>
        <time>2025-12-29T12:38:28.875Z</time>
      </trkpt>
      <trkpt lat="43.14795" lon="3.09719">
        <ele>143</ele>
        <time>2025-12-29T12:38:29.875Z</time>
      </trkpt>
      <trkpt lat="43.14794" lon="3.09717">
        <ele>143</ele>
        <time>2025-12-29T12:38:30.875Z</time>
      </trkpt>
      <trkpt lat="43.14793" lon="3.09716">
        <ele>143</ele>
        <time>2025-12-29T12:38:31.875Z</time>
      </trkpt>
      <trkpt lat="43.14793" lon="3.09714">
        <ele>143</ele>
        <time>2025-12-29T12:38:32.875Z</time>
      </trkpt>
      <trkpt lat="43.14792" lon="3.09713">
        <ele>143</ele>
        <time>2025-12-29T12:38:33.875Z</time>
      </trkpt>
      <trkpt lat="43.14791" lon="3.09712">
        <ele>144</ele>
        <time>2025-12-29T12:38:34.875Z</time>
      </trkpt>
      <trkpt lat="43.14791" lon="3.0971">
        <ele>144</ele>
        <time>2025-12-29T12:38:35.875Z</time>
      </trkpt>
      <trkpt lat="43.1479" lon="3.09709">
        <ele>144</ele>
        <time>2025-12-29T12:38:36.875Z</time>
      </trkpt>
      <trkpt lat="43.1479" lon="3.09708">
        <ele>145</ele>
        <time>2025-12-29T12:38:37.875Z</time>
      </trkpt>
      <trkpt lat="43.14789" lon="3.09707">
        <ele>145</ele>
        <time>2025-12-29T12:38:38.875Z</time>
      </trkpt>
      <trkpt lat="43.14788" lon="3.09706">
        <ele>145</ele>
        <time>2025-12-29T12:38:39.875Z</time>
      </trkpt>
      <trkpt lat="43.14787" lon="3.09704">
        <ele>145</ele>
        <time>2025-12-29T12:38:40.875Z</time>
      </trkpt>
      <trkpt lat="43.14786" lon="3.09703">
        <ele>145</ele>
        <time>2025-12-29T12:38:41.875Z</time>
      </trkpt>
      <trkpt lat="43.14786" lon="3.09702">
        <ele>145</ele>
        <time>2025-12-29T12:38:42.875Z</time>
      </trkpt>
      <trkpt lat="43.14785" lon="3.09701">
        <ele>145</ele>
        <time>2025-12-29T12:38:43.875Z</time>
      </trkpt>
      <trkpt lat="43.14784" lon="3.097">
        <ele>145</ele>
        <time>2025-12-29T12:38:44.875Z</time>
      </trkpt>
      <trkpt lat="43.14783" lon="3.09698">
        <ele>146</ele>
        <time>2025-12-29T12:38:45.875Z</time>
      </trkpt>
      <trkpt lat="43.14782" lon="3.09696">
        <ele>146</ele>
        <time>2025-12-29T12:38:46.875Z</time>
      </trkpt>
      <trkpt lat="43.14781" lon="3.09695">
        <ele>146</ele>
        <time>2025-12-29T12:38:47.875Z</time>
      </trkpt>
      <trkpt lat="43.1478" lon="3.09694">
        <ele>146</ele>
        <time>2025-12-29T12:38:48.875Z</time>
      </trkpt>
      <trkpt lat="43.14779" lon="3.09693">
        <ele>146</ele>
        <time>2025-12-29T12:38:49.875Z</time>
      </trkpt>
      <trkpt lat="43.14778" lon="3.09692">
        <ele>146</ele>
        <time>2025-12-29T12:38:50.875Z</time>
      </trkpt>
      <trkpt lat="43.14778" lon="3.09691">
        <ele>146</ele>
        <time>2025-12-29T12:38:51.875Z</time>
      </trkpt>
      <trkpt lat="43.14777" lon="3.0969">
        <ele>146</ele>
        <time>2025-12-29T12:38:52.875Z</time>
      </trkpt>
      <trkpt lat="43.14776" lon="3.09689">
        <ele>146</ele>
        <time>2025-12-29T12:38:53.875Z</time>
      </trkpt>
      <trkpt lat="43.14775" lon="3.09687">
        <ele>146</ele>
        <time>2025-12-29T12:38:54.875Z</time>
      </trkpt>
      <trkpt lat="43.14774" lon="3.09686">
        <ele>146</ele>
        <time>2025-12-29T12:38:55.875Z</time>
      </trkpt>
      <trkpt lat="43.14773" lon="3.09684">
        <ele>146</ele>
        <time>2025-12-29T12:38:56.875Z</time>
      </trkpt>
      <trkpt lat="43.14773" lon="3.09683">
        <ele>146</ele>
        <time>2025-12-29T12:38:57.875Z</time>
      </trkpt>
      <trkpt lat="43.14772" lon="3.09682">
        <ele>146</ele>
        <time>2025-12-29T12:38:58.875Z</time>
      </trkpt>
      <trkpt lat="43.14771" lon="3.09681">
        <ele>146</ele>
        <time>2025-12-29T12:38:59.875Z</time>
      </trkpt>
      <trkpt lat="43.1477" lon="3.09679">
        <ele>147</ele>
        <time>2025-12-29T12:39:00.875Z</time>
      </trkpt>
      <trkpt lat="43.14769" lon="3.09678">
        <ele>147</ele>
        <time>2025-12-29T12:39:01.875Z</time>
      </trkpt>
      <trkpt lat="43.14769" lon="3.09676">
        <ele>147</ele>
        <time>2025-12-29T12:39:02.875Z</time>
      </trkpt>
      <trkpt lat="43.14768" lon="3.09675">
        <ele>148</ele>
        <time>2025-12-29T12:39:03.875Z</time>
      </trkpt>
      <trkpt lat="43.14768" lon="3.09674">
        <ele>148</ele>
        <time>2025-12-29T12:39:04.875Z</time>
      </trkpt>
      <trkpt lat="43.14767" lon="3.09672">
        <ele>148</ele>
        <time>2025-12-29T12:39:05.875Z</time>
      </trkpt>
      <trkpt lat="43.14767" lon="3.09671">
        <ele>148</ele>
        <time>2025-12-29T12:39:06.875Z</time>
      </trkpt>
      <trkpt lat="43.14766" lon="3.09669">
        <ele>148</ele>
        <time>2025-12-29T12:39:07.875Z</time>
      </trkpt>
      <trkpt lat="43.14766" lon="3.09668">
        <ele>148</ele>
        <time>2025-12-29T12:39:08.875Z</time>
      </trkpt>
      <trkpt lat="43.14765" lon="3.09666">
        <ele>147</ele>
        <time>2025-12-29T12:39:09.875Z</time>
      </trkpt>
      <trkpt lat="43.14765" lon="3.09664">
        <ele>147</ele>
        <time>2025-12-29T12:39:10.875Z</time>
      </trkpt>
      <trkpt lat="43.14764" lon="3.09662">
        <ele>147</ele>
        <time>2025-12-29T12:39:11.875Z</time>
      </trkpt>
      <trkpt lat="43.14764" lon="3.0966">
        <ele>147</ele>
        <time>2025-12-29T12:39:12.875Z</time>
      </trkpt>
      <trkpt lat="43.14764" lon="3.09659">
        <ele>147</ele>
        <time>2025-12-29T12:39:13.875Z</time>
      </trkpt>
      <trkpt lat="43.14764" lon="3.09657">
        <ele>147</ele>
        <time>2025-12-29T12:39:14.875Z</time>
      </trkpt>
      <trkpt lat="43.14764" lon="3.09656">
        <ele>147</ele>
        <time>2025-12-29T12:39:15.875Z</time>
      </trkpt>
      <trkpt lat="43.14764" lon="3.09654">
        <ele>147</ele>
        <time>2025-12-29T12:39:16.875Z</time>
      </trkpt>
      <trkpt lat="43.14764" lon="3.09652">
        <ele>147</ele>
        <time>2025-12-29T12:39:17.875Z</time>
      </trkpt>
      <trkpt lat="43.14764" lon="3.09651">
        <ele>147</ele>
        <time>2025-12-29T12:39:18.875Z</time>
      </trkpt>
      <trkpt lat="43.14763" lon="3.09649">
        <ele>147</ele>
        <time>2025-12-29T12:39:19.875Z</time>
      </trkpt>
      <trkpt lat="43.14763" lon="3.09647">
        <ele>147</ele>
        <time>2025-12-29T12:39:20.875Z</time>
      </trkpt>
      <trkpt lat="43.14763" lon="3.09645">
        <ele>147</ele>
        <time>2025-12-29T12:39:21.875Z</time>
      </trkpt>
      <trkpt lat="43.14763" lon="3.09644">
        <ele>147</ele>
        <time>2025-12-29T12:39:22.875Z</time>
      </trkpt>
      <trkpt lat="43.14763" lon="3.09642">
        <ele>147</ele>
        <time>2025-12-29T12:39:23.875Z</time>
      </trkpt>
      <trkpt lat="43.14764" lon="3.0964">
        <ele>147</ele>
        <time>2025-12-29T12:39:24.875Z</time>
      </trkpt>
      <trkpt lat="43.14764" lon="3.09638">
        <ele>147</ele>
        <time>2025-12-29T12:39:25.875Z</time>
      </trkpt>
      <trkpt lat="43.14765" lon="3.09636">
        <ele>148</ele>
        <time>2025-12-29T12:39:26.875Z</time>
      </trkpt>
      <trkpt lat="43.14765" lon="3.09635">
        <ele>148</ele>
        <time>2025-12-29T12:39:27.875Z</time>
      </trkpt>
      <trkpt lat="43.14765" lon="3.09633">
        <ele>149</ele>
        <time>2025-12-29T12:39:28.875Z</time>
      </trkpt>
      <trkpt lat="43.14766" lon="3.09631">
        <ele>149</ele>
        <time>2025-12-29T12:39:29.875Z</time>
      </trkpt>
      <trkpt lat="43.14766" lon="3.09629">
        <ele>149</ele>
        <time>2025-12-29T12:39:30.875Z</time>
      </trkpt>
      <trkpt lat="43.14766" lon="3.09627">
        <ele>149</ele>
        <time>2025-12-29T12:39:31.875Z</time>
      </trkpt>
      <trkpt lat="43.14766" lon="3.09626">
        <ele>149</ele>
        <time>2025-12-29T12:39:32.875Z</time>
      </trkpt>
      <trkpt lat="43.14766" lon="3.09624">
        <ele>149</ele>
        <time>2025-12-29T12:39:33.875Z</time>
      </trkpt>
      <trkpt lat="43.14766" lon="3.09622">
        <ele>148</ele>
        <time>2025-12-29T12:39:34.875Z</time>
      </trkpt>
      <trkpt lat="43.14766" lon="3.0962">
        <ele>148</ele>
        <time>2025-12-29T12:39:35.875Z</time>
      </trkpt>
      <trkpt lat="43.14766" lon="3.09619">
        <ele>148</ele>
        <time>2025-12-29T12:39:36.875Z</time>
      </trkpt>
      <trkpt lat="43.14766" lon="3.09617">
        <ele>148</ele>
        <time>2025-12-29T12:39:37.875Z</time>
      </trkpt>
      <trkpt lat="43.14766" lon="3.09615">
        <ele>148</ele>
        <time>2025-12-29T12:39:38.875Z</time>
      </trkpt>
      <trkpt lat="43.14766" lon="3.09614">
        <ele>148</ele>
        <time>2025-12-29T12:39:39.875Z</time>
      </trkpt>
      <trkpt lat="43.14767" lon="3.09612">
        <ele>148</ele>
        <time>2025-12-29T12:39:40.875Z</time>
      </trkpt>
      <trkpt lat="43.14767" lon="3.0961">
        <ele>148</ele>
        <time>2025-12-29T12:39:41.875Z</time>
      </trkpt>
      <trkpt lat="43.14767" lon="3.09608">
        <ele>149</ele>
        <time>2025-12-29T12:39:42.875Z</time>
      </trkpt>
      <trkpt lat="43.14768" lon="3.09607">
        <ele>149</ele>
        <time>2025-12-29T12:39:43.875Z</time>
      </trkpt>
      <trkpt lat="43.14768" lon="3.09605">
        <ele>149</ele>
        <time>2025-12-29T12:39:44.875Z</time>
      </trkpt>
      <trkpt lat="43.14769" lon="3.09604">
        <ele>149</ele>
        <time>2025-12-29T12:39:45.875Z</time>
      </trkpt>
      <trkpt lat="43.14769" lon="3.09602">
        <ele>149</ele>
        <time>2025-12-29T12:39:46.875Z</time>
      </trkpt>
      <trkpt lat="43.14769" lon="3.09601">
        <ele>149</ele>
        <time>2025-12-29T12:39:47.875Z</time>
      </trkpt>
      <trkpt lat="43.1477" lon="3.09599">
        <ele>149</ele>
        <time>2025-12-29T12:39:48.875Z</time>
      </trkpt>
      <trkpt lat="43.1477" lon="3.09598">
        <ele>150</ele>
        <time>2025-12-29T12:39:49.875Z</time>
      </trkpt>
      <trkpt lat="43.14771" lon="3.09596">
        <ele>150</ele>
        <time>2025-12-29T12:39:50.875Z</time>
      </trkpt>
      <trkpt lat="43.14771" lon="3.09594">
        <ele>150</ele>
        <time>2025-12-29T12:39:51.875Z</time>
      </trkpt>
      <trkpt lat="43.14771" lon="3.09593">
        <ele>150</ele>
        <time>2025-12-29T12:39:52.875Z</time>
      </trkpt>
      <trkpt lat="43.14772" lon="3.09591">
        <ele>150</ele>
        <time>2025-12-29T12:39:53.875Z</time>
      </trkpt>
      <trkpt lat="43.14773" lon="3.09589">
        <ele>150</ele>
        <time>2025-12-29T12:39:54.875Z</time>
      </trkpt>
      <trkpt lat="43.14773" lon="3.09588">
        <ele>150</ele>
        <time>2025-12-29T12:39:55.875Z</time>
      </trkpt>
      <trkpt lat="43.14773" lon="3.09586">
        <ele>150</ele>
        <time>2025-12-29T12:39:56.875Z</time>
      </trkpt>
      <trkpt lat="43.14774" lon="3.09584">
        <ele>150</ele>
        <time>2025-12-29T12:39:57.875Z</time>
      </trkpt>
      <trkpt lat="43.14775" lon="3.09582">
        <ele>150</ele>
        <time>2025-12-29T12:39:58.875Z</time>
      </trkpt>
      <trkpt lat="43.14776" lon="3.0958">
        <ele>150</ele>
        <time>2025-12-29T12:39:59.875Z</time>
      </trkpt>
      <trkpt lat="43.14776" lon="3.09579">
        <ele>150</ele>
        <time>2025-12-29T12:40:00.875Z</time>
      </trkpt>
      <trkpt lat="43.14777" lon="3.09577">
        <ele>150</ele>
        <time>2025-12-29T12:40:01.875Z</time>
      </trkpt>
      <trkpt lat="43.14778" lon="3.09576">
        <ele>151</ele>
        <time>2025-12-29T12:40:02.875Z</time>
      </trkpt>
      <trkpt lat="43.14779" lon="3.09574">
        <ele>151</ele>
        <time>2025-12-29T12:40:03.875Z</time>
      </trkpt>
      <trkpt lat="43.14779" lon="3.09573">
        <ele>151</ele>
        <time>2025-12-29T12:40:04.875Z</time>
      </trkpt>
      <trkpt lat="43.1478" lon="3.09572">
        <ele>151</ele>
        <time>2025-12-29T12:40:05.875Z</time>
      </trkpt>
      <trkpt lat="43.1478" lon="3.0957">
        <ele>152</ele>
        <time>2025-12-29T12:40:06.875Z</time>
      </trkpt>
      <trkpt lat="43.14781" lon="3.09569">
        <ele>152</ele>
        <time>2025-12-29T12:40:07.875Z</time>
      </trkpt>
      <trkpt lat="43.14781" lon="3.09567">
        <ele>151</ele>
        <time>2025-12-29T12:40:08.875Z</time>
      </trkpt>
      <trkpt lat="43.14782" lon="3.09566">
        <ele>151</ele>
        <time>2025-12-29T12:40:09.875Z</time>
      </trkpt>
      <trkpt lat="43.14782" lon="3.09564">
        <ele>151</ele>
        <time>2025-12-29T12:40:10.875Z</time>
      </trkpt>
      <trkpt lat="43.14783" lon="3.09562">
        <ele>151</ele>
        <time>2025-12-29T12:40:11.875Z</time>
      </trkpt>
      <trkpt lat="43.14784" lon="3.0956">
        <ele>152</ele>
        <time>2025-12-29T12:40:12.875Z</time>
      </trkpt>
      <trkpt lat="43.14785" lon="3.09559">
        <ele>152</ele>
        <time>2025-12-29T12:40:13.875Z</time>
      </trkpt>
      <trkpt lat="43.14785" lon="3.09556">
        <ele>152</ele>
        <time>2025-12-29T12:40:14.875Z</time>
      </trkpt>
      <trkpt lat="43.14786" lon="3.09554">
        <ele>152</ele>
        <time>2025-12-29T12:40:15.875Z</time>
      </trkpt>
      <trkpt lat="43.14786" lon="3.09553">
        <ele>151</ele>
        <time>2025-12-29T12:40:16.875Z</time>
      </trkpt>
      <trkpt lat="43.14787" lon="3.09551">
        <ele>151</ele>
        <time>2025-12-29T12:40:17.875Z</time>
      </trkpt>
      <trkpt lat="43.14787" lon="3.0955">
        <ele>151</ele>
        <time>2025-12-29T12:40:18.875Z</time>
      </trkpt>
      <trkpt lat="43.14788" lon="3.09548">
        <ele>151</ele>
        <time>2025-12-29T12:40:19.875Z</time>
      </trkpt>
      <trkpt lat="43.14789" lon="3.09546">
        <ele>151</ele>
        <time>2025-12-29T12:40:20.875Z</time>
      </trkpt>
      <trkpt lat="43.14789" lon="3.09544">
        <ele>151</ele>
        <time>2025-12-29T12:40:21.875Z</time>
      </trkpt>
      <trkpt lat="43.1479" lon="3.09543">
        <ele>152</ele>
        <time>2025-12-29T12:40:22.875Z</time>
      </trkpt>
      <trkpt lat="43.1479" lon="3.09541">
        <ele>152</ele>
        <time>2025-12-29T12:40:23.875Z</time>
      </trkpt>
      <trkpt lat="43.14791" lon="3.09539">
        <ele>152</ele>
        <time>2025-12-29T12:40:24.875Z</time>
      </trkpt>
      <trkpt lat="43.14791" lon="3.09537">
        <ele>152</ele>
        <time>2025-12-29T12:40:25.875Z</time>
      </trkpt>
      <trkpt lat="43.14792" lon="3.09535">
        <ele>152</ele>
        <time>2025-12-29T12:40:26.875Z</time>
      </trkpt>
      <trkpt lat="43.14792" lon="3.09533">
        <ele>151</ele>
        <time>2025-12-29T12:40:27.875Z</time>
      </trkpt>
      <trkpt lat="43.14792" lon="3.09532">
        <ele>151</ele>
        <time>2025-12-29T12:40:28.875Z</time>
      </trkpt>
      <trkpt lat="43.14793" lon="3.0953">
        <ele>151</ele>
        <time>2025-12-29T12:40:29.875Z</time>
      </trkpt>
      <trkpt lat="43.14793" lon="3.09529">
        <ele>150</ele>
        <time>2025-12-29T12:40:30.875Z</time>
      </trkpt>
      <trkpt lat="43.14793" lon="3.09527">
        <ele>150</ele>
        <time>2025-12-29T12:40:31.875Z</time>
      </trkpt>
      <trkpt lat="43.14793" lon="3.09525">
        <ele>150</ele>
        <time>2025-12-29T12:40:32.875Z</time>
      </trkpt>
      <trkpt lat="43.14793" lon="3.09523">
        <ele>150</ele>
        <time>2025-12-29T12:40:33.875Z</time>
      </trkpt>
      <trkpt lat="43.14793" lon="3.09521">
        <ele>151</ele>
        <time>2025-12-29T12:40:34.875Z</time>
      </trkpt>
      <trkpt lat="43.14793" lon="3.09519">
        <ele>151</ele>
        <time>2025-12-29T12:40:35.875Z</time>
      </trkpt>
      <trkpt lat="43.14794" lon="3.09517">
        <ele>151</ele>
        <time>2025-12-29T12:40:36.875Z</time>
      </trkpt>
      <trkpt lat="43.14795" lon="3.09515">
        <ele>151</ele>
        <time>2025-12-29T12:40:37.875Z</time>
      </trkpt>
      <trkpt lat="43.14795" lon="3.09513">
        <ele>151</ele>
        <time>2025-12-29T12:40:38.875Z</time>
      </trkpt>
      <trkpt lat="43.14795" lon="3.09512">
        <ele>151</ele>
        <time>2025-12-29T12:40:39.875Z</time>
      </trkpt>
      <trkpt lat="43.14794" lon="3.0951">
        <ele>151</ele>
        <time>2025-12-29T12:40:40.875Z</time>
      </trkpt>
      <trkpt lat="43.14793" lon="3.09508">
        <ele>151</ele>
        <time>2025-12-29T12:40:41.875Z</time>
      </trkpt>
      <trkpt lat="43.14792" lon="3.09507">
        <ele>151</ele>
        <time>2025-12-29T12:40:42.875Z</time>
      </trkpt>
      <trkpt lat="43.14791" lon="3.09506">
        <ele>151</ele>
        <time>2025-12-29T12:40:43.875Z</time>
      </trkpt>
      <trkpt lat="43.14789" lon="3.09505">
        <ele>151</ele>
        <time>2025-12-29T12:40:44.875Z</time>
      </trkpt>
      <trkpt lat="43.14788" lon="3.09504">
        <ele>152</ele>
        <time>2025-12-29T12:40:45.875Z</time>
      </trkpt>
      <trkpt lat="43.14787" lon="3.09503">
        <ele>152</ele>
        <time>2025-12-29T12:40:46.875Z</time>
      </trkpt>
      <trkpt lat="43.14785" lon="3.09502">
        <ele>152</ele>
        <time>2025-12-29T12:40:47.875Z</time>
      </trkpt>
      <trkpt lat="43.14784" lon="3.09502">
        <ele>152</ele>
        <time>2025-12-29T12:40:48.875Z</time>
      </trkpt>
      <trkpt lat="43.14782" lon="3.09502">
        <ele>151</ele>
        <time>2025-12-29T12:40:49.875Z</time>
      </trkpt>
      <trkpt lat="43.14781" lon="3.09503">
        <ele>151</ele>
        <time>2025-12-29T12:40:50.875Z</time>
      </trkpt>
      <trkpt lat="43.1478" lon="3.09503">
        <ele>152</ele>
        <time>2025-12-29T12:40:51.875Z</time>
      </trkpt>
      <trkpt lat="43.14779" lon="3.09504">
        <ele>152</ele>
        <time>2025-12-29T12:40:52.875Z</time>
      </trkpt>
      <trkpt lat="43.14778" lon="3.09503">
        <ele>152</ele>
        <time>2025-12-29T12:40:53.875Z</time>
      </trkpt>
      <trkpt lat="43.14776" lon="3.09504">
        <ele>152</ele>
        <time>2025-12-29T12:40:54.875Z</time>
      </trkpt>
      <trkpt lat="43.14775" lon="3.09504">
        <ele>152</ele>
        <time>2025-12-29T12:40:55.875Z</time>
      </trkpt>
      <trkpt lat="43.14774" lon="3.09504">
        <ele>152</ele>
        <time>2025-12-29T12:40:56.875Z</time>
      </trkpt>
      <trkpt lat="43.14772" lon="3.09504">
        <ele>152</ele>
        <time>2025-12-29T12:40:57.875Z</time>
      </trkpt>
      <trkpt lat="43.1477" lon="3.09504">
        <ele>152</ele>
        <time>2025-12-29T12:40:58.875Z</time>
      </trkpt>
      <trkpt lat="43.14769" lon="3.09504">
        <ele>152</ele>
        <time>2025-12-29T12:40:59.875Z</time>
      </trkpt>
      <trkpt lat="43.14767" lon="3.09503">
        <ele>152</ele>
        <time>2025-12-29T12:41:00.875Z</time>
      </trkpt>
      <trkpt lat="43.14766" lon="3.09503">
        <ele>152</ele>
        <time>2025-12-29T12:41:01.875Z</time>
      </trkpt>
      <trkpt lat="43.14765" lon="3.09502">
        <ele>152</ele>
        <time>2025-12-29T12:41:02.876Z</time>
      </trkpt>
      <trkpt lat="43.14763" lon="3.09502">
        <ele>151</ele>
        <time>2025-12-29T12:41:03.875Z</time>
      </trkpt>
      <trkpt lat="43.14762" lon="3.09502">
        <ele>151</ele>
        <time>2025-12-29T12:41:04.875Z</time>
      </trkpt>
      <trkpt lat="43.14761" lon="3.09502">
        <ele>150</ele>
        <time>2025-12-29T12:41:05.875Z</time>
      </trkpt>
      <trkpt lat="43.14759" lon="3.09502">
        <ele>150</ele>
        <time>2025-12-29T12:41:06.875Z</time>
      </trkpt>
      <trkpt lat="43.14758" lon="3.09501">
        <ele>150</ele>
        <time>2025-12-29T12:41:07.875Z</time>
      </trkpt>
      <trkpt lat="43.14757" lon="3.09501">
        <ele>150</ele>
        <time>2025-12-29T12:41:08.875Z</time>
      </trkpt>
      <trkpt lat="43.14756" lon="3.09501">
        <ele>151</ele>
        <time>2025-12-29T12:41:09.875Z</time>
      </trkpt>
      <trkpt lat="43.14755" lon="3.095">
        <ele>151</ele>
        <time>2025-12-29T12:41:10.875Z</time>
      </trkpt>
      <trkpt lat="43.14754" lon="3.09499">
        <ele>151</ele>
        <time>2025-12-29T12:41:11.875Z</time>
      </trkpt>
      <trkpt lat="43.14753" lon="3.09498">
        <ele>151</ele>
        <time>2025-12-29T12:41:12.875Z</time>
      </trkpt>
      <trkpt lat="43.14753" lon="3.09497">
        <ele>152</ele>
        <time>2025-12-29T12:41:13.875Z</time>
      </trkpt>
      <trkpt lat="43.14753" lon="3.09496">
        <ele>152</ele>
        <time>2025-12-29T12:41:14.875Z</time>
      </trkpt>
      <trkpt lat="43.14753" lon="3.09495">
        <ele>152</ele>
        <time>2025-12-29T12:41:15.875Z</time>
      </trkpt>
      <trkpt lat="43.14753" lon="3.09495">
        <ele>152</ele>
        <time>2025-12-29T12:41:16.875Z</time>
      </trkpt>
      <trkpt lat="43.14753" lon="3.09494">
        <ele>152</ele>
        <time>2025-12-29T12:41:17.875Z</time>
      </trkpt>
      <trkpt lat="43.14753" lon="3.09492">
        <ele>152</ele>
        <time>2025-12-29T12:41:18.875Z</time>
      </trkpt>
      <trkpt lat="43.14754" lon="3.09491">
        <ele>152</ele>
        <time>2025-12-29T12:41:19.875Z</time>
      </trkpt>
      <trkpt lat="43.14754" lon="3.0949">
        <ele>152</ele>
        <time>2025-12-29T12:41:20.875Z</time>
      </trkpt>
      <trkpt lat="43.14754" lon="3.09489">
        <ele>153</ele>
        <time>2025-12-29T12:41:21.875Z</time>
      </trkpt>
      <trkpt lat="43.14754" lon="3.09487">
        <ele>153</ele>
        <time>2025-12-29T12:41:22.875Z</time>
      </trkpt>
      <trkpt lat="43.14754" lon="3.09486">
        <ele>153</ele>
        <time>2025-12-29T12:41:23.875Z</time>
      </trkpt>
      <trkpt lat="43.14755" lon="3.09485">
        <ele>153</ele>
        <time>2025-12-29T12:41:24.875Z</time>
      </trkpt>
      <trkpt lat="43.14755" lon="3.09484">
        <ele>153</ele>
        <time>2025-12-29T12:41:25.875Z</time>
      </trkpt>
      <trkpt lat="43.14755" lon="3.09482">
        <ele>153</ele>
        <time>2025-12-29T12:41:26.875Z</time>
      </trkpt>
      <trkpt lat="43.14755" lon="3.09481">
        <ele>153</ele>
        <time>2025-12-29T12:41:27.875Z</time>
      </trkpt>
      <trkpt lat="43.14755" lon="3.0948">
        <ele>154</ele>
        <time>2025-12-29T12:41:28.875Z</time>
      </trkpt>
      <trkpt lat="43.14756" lon="3.09479">
        <ele>154</ele>
        <time>2025-12-29T12:41:29.875Z</time>
      </trkpt>
      <trkpt lat="43.14755" lon="3.09478">
        <ele>154</ele>
        <time>2025-12-29T12:41:30.875Z</time>
      </trkpt>
      <trkpt lat="43.14755" lon="3.09477">
        <ele>154</ele>
        <time>2025-12-29T12:41:31.875Z</time>
      </trkpt>
      <trkpt lat="43.14755" lon="3.09476">
        <ele>155</ele>
        <time>2025-12-29T12:41:32.875Z</time>
      </trkpt>
      <trkpt lat="43.14755" lon="3.09475">
        <ele>155</ele>
        <time>2025-12-29T12:41:33.875Z</time>
      </trkpt>
      <trkpt lat="43.14755" lon="3.09474">
        <ele>156</ele>
        <time>2025-12-29T12:41:34.875Z</time>
      </trkpt>
      <trkpt lat="43.14754" lon="3.09473">
        <ele>156</ele>
        <time>2025-12-29T12:41:35.875Z</time>
      </trkpt>
      <trkpt lat="43.14754" lon="3.09472">
        <ele>156</ele>
        <time>2025-12-29T12:41:36.875Z</time>
      </trkpt>
      <trkpt lat="43.14754" lon="3.0947">
        <ele>156</ele>
        <time>2025-12-29T12:41:37.875Z</time>
      </trkpt>
      <trkpt lat="43.14755" lon="3.09469">
        <ele>156</ele>
        <time>2025-12-29T12:41:38.875Z</time>
      </trkpt>
      <trkpt lat="43.14755" lon="3.09468">
        <ele>157</ele>
        <time>2025-12-29T12:41:39.875Z</time>
      </trkpt>
      <trkpt lat="43.14754" lon="3.09467">
        <ele>157</ele>
        <time>2025-12-29T12:41:40.875Z</time>
      </trkpt>
      <trkpt lat="43.14754" lon="3.09465">
        <ele>156</ele>
        <time>2025-12-29T12:41:41.875Z</time>
      </trkpt>
      <trkpt lat="43.14754" lon="3.09464">
        <ele>156</ele>
        <time>2025-12-29T12:41:42.875Z</time>
      </trkpt>
      <trkpt lat="43.14754" lon="3.09463">
        <ele>157</ele>
        <time>2025-12-29T12:41:43.875Z</time>
      </trkpt>
      <trkpt lat="43.14753" lon="3.09462">
        <ele>157</ele>
        <time>2025-12-29T12:41:44.875Z</time>
      </trkpt>
      <trkpt lat="43.14753" lon="3.09461">
        <ele>157</ele>
        <time>2025-12-29T12:41:45.875Z</time>
      </trkpt>
      <trkpt lat="43.14754" lon="3.0946">
        <ele>157</ele>
        <time>2025-12-29T12:41:46.875Z</time>
      </trkpt>
      <trkpt lat="43.14754" lon="3.09459">
        <ele>157</ele>
        <time>2025-12-29T12:41:47.875Z</time>
      </trkpt>
      <trkpt lat="43.14755" lon="3.09458">
        <ele>157</ele>
        <time>2025-12-29T12:41:48.875Z</time>
      </trkpt>
      <trkpt lat="43.14755" lon="3.09457">
        <ele>157</ele>
        <time>2025-12-29T12:41:49.875Z</time>
      </trkpt>
      <trkpt lat="43.14756" lon="3.09456">
        <ele>157</ele>
        <time>2025-12-29T12:41:50.875Z</time>
      </trkpt>
      <trkpt lat="43.14756" lon="3.09455">
        <ele>157</ele>
        <time>2025-12-29T12:41:51.875Z</time>
      </trkpt>
      <trkpt lat="43.14757" lon="3.09454">
        <ele>158</ele>
        <time>2025-12-29T12:41:52.875Z</time>
      </trkpt>
      <trkpt lat="43.14758" lon="3.09453">
        <ele>158</ele>
        <time>2025-12-29T12:41:53.875Z</time>
      </trkpt>
      <trkpt lat="43.14759" lon="3.09452">
        <ele>158</ele>
        <time>2025-12-29T12:41:54.875Z</time>
      </trkpt>
      <trkpt lat="43.14759" lon="3.09451">
        <ele>158</ele>
        <time>2025-12-29T12:41:55.875Z</time>
      </trkpt>
      <trkpt lat="43.14759" lon="3.0945">
        <ele>158</ele>
        <time>2025-12-29T12:41:56.875Z</time>
      </trkpt>
      <trkpt lat="43.1476" lon="3.09449">
        <ele>158</ele>
        <time>2025-12-29T12:41:57.875Z</time>
      </trkpt>
      <trkpt lat="43.1476" lon="3.09448">
        <ele>158</ele>
        <time>2025-12-29T12:41:58.875Z</time>
      </trkpt>
      <trkpt lat="43.1476" lon="3.09447">
        <ele>158</ele>
        <time>2025-12-29T12:41:59.875Z</time>
      </trkpt>
      <trkpt lat="43.1476" lon="3.09446">
        <ele>159</ele>
        <time>2025-12-29T12:42:00.875Z</time>
      </trkpt>
      <trkpt lat="43.1476" lon="3.09445">
        <ele>159</ele>
        <time>2025-12-29T12:42:01.875Z</time>
      </trkpt>
      <trkpt lat="43.1476" lon="3.09445">
        <ele>159</ele>
        <time>2025-12-29T12:42:02.875Z</time>
      </trkpt>
      <trkpt lat="43.1476" lon="3.09444">
        <ele>159</ele>
        <time>2025-12-29T12:42:03.875Z</time>
      </trkpt>
      <trkpt lat="43.14761" lon="3.09443">
        <ele>159</ele>
        <time>2025-12-29T12:42:04.875Z</time>
      </trkpt>
      <trkpt lat="43.14761" lon="3.09442">
        <ele>159</ele>
        <time>2025-12-29T12:42:05.875Z</time>
      </trkpt>
      <trkpt lat="43.14761" lon="3.09441">
        <ele>160</ele>
        <time>2025-12-29T12:42:06.875Z</time>
      </trkpt>
      <trkpt lat="43.14761" lon="3.0944">
        <ele>160</ele>
        <time>2025-12-29T12:42:07.875Z</time>
      </trkpt>
      <trkpt lat="43.14761" lon="3.09439">
        <ele>160</ele>
        <time>2025-12-29T12:42:08.875Z</time>
      </trkpt>
      <trkpt lat="43.14761" lon="3.09438">
        <ele>160</ele>
        <time>2025-12-29T12:42:09.875Z</time>
      </trkpt>
      <trkpt lat="43.14762" lon="3.09437">
        <ele>160</ele>
        <time>2025-12-29T12:42:10.875Z</time>
      </trkpt>
      <trkpt lat="43.14762" lon="3.09436">
        <ele>160</ele>
        <time>2025-12-29T12:42:11.875Z</time>
      </trkpt>
      <trkpt lat="43.14762" lon="3.09435">
        <ele>160</ele>
        <time>2025-12-29T12:42:12.875Z</time>
      </trkpt>
      <trkpt lat="43.14763" lon="3.09434">
        <ele>160</ele>
        <time>2025-12-29T12:42:13.875Z</time>
      </trkpt>
      <trkpt lat="43.14763" lon="3.09433">
        <ele>160</ele>
        <time>2025-12-29T12:42:14.875Z</time>
      </trkpt>
      <trkpt lat="43.14763" lon="3.09433">
        <ele>160</ele>
        <time>2025-12-29T12:42:15.875Z</time>
      </trkpt>
      <trkpt lat="43.14764" lon="3.09432">
        <ele>160</ele>
        <time>2025-12-29T12:42:16.875Z</time>
      </trkpt>
      <trkpt lat="43.14764" lon="3.09431">
        <ele>161</ele>
        <time>2025-12-29T12:42:17.875Z</time>
      </trkpt>
      <trkpt lat="43.14765" lon="3.0943">
        <ele>161</ele>
        <time>2025-12-29T12:42:18.875Z</time>
      </trkpt>
      <trkpt lat="43.14766" lon="3.09429">
        <ele>161</ele>
        <time>2025-12-29T12:42:19.875Z</time>
      </trkpt>
      <trkpt lat="43.14766" lon="3.09428">
        <ele>161</ele>
        <time>2025-12-29T12:42:20.875Z</time>
      </trkpt>
      <trkpt lat="43.14766" lon="3.09428">
        <ele>161</ele>
        <time>2025-12-29T12:42:21.875Z</time>
      </trkpt>
      <trkpt lat="43.14767" lon="3.09427">
        <ele>162</ele>
        <time>2025-12-29T12:42:22.875Z</time>
      </trkpt>
      <trkpt lat="43.14768" lon="3.09426">
        <ele>162</ele>
        <time>2025-12-29T12:42:23.875Z</time>
      </trkpt>
      <trkpt lat="43.14768" lon="3.09425">
        <ele>162</ele>
        <time>2025-12-29T12:42:24.875Z</time>
      </trkpt>
      <trkpt lat="43.14768" lon="3.09424">
        <ele>163</ele>
        <time>2025-12-29T12:42:25.875Z</time>
      </trkpt>
      <trkpt lat="43.14768" lon="3.09423">
        <ele>163</ele>
        <time>2025-12-29T12:42:26.875Z</time>
      </trkpt>
      <trkpt lat="43.14768" lon="3.09422">
        <ele>164</ele>
        <time>2025-12-29T12:42:27.875Z</time>
      </trkpt>
      <trkpt lat="43.14768" lon="3.09421">
        <ele>164</ele>
        <time>2025-12-29T12:42:28.875Z</time>
      </trkpt>
      <trkpt lat="43.14769" lon="3.0942">
        <ele>164</ele>
        <time>2025-12-29T12:42:29.875Z</time>
      </trkpt>
      <trkpt lat="43.14769" lon="3.09419">
        <ele>164</ele>
        <time>2025-12-29T12:42:30.875Z</time>
      </trkpt>
      <trkpt lat="43.14769" lon="3.09418">
        <ele>165</ele>
        <time>2025-12-29T12:42:31.875Z</time>
      </trkpt>
      <trkpt lat="43.14769" lon="3.09417">
        <ele>165</ele>
        <time>2025-12-29T12:42:32.875Z</time>
      </trkpt>
      <trkpt lat="43.14769" lon="3.09416">
        <ele>165</ele>
        <time>2025-12-29T12:42:33.875Z</time>
      </trkpt>
      <trkpt lat="43.14769" lon="3.09415">
        <ele>165</ele>
        <time>2025-12-29T12:42:34.875Z</time>
      </trkpt>
      <trkpt lat="43.14769" lon="3.09413">
        <ele>165</ele>
        <time>2025-12-29T12:42:35.875Z</time>
      </trkpt>
      <trkpt lat="43.14769" lon="3.09412">
        <ele>165</ele>
        <time>2025-12-29T12:42:36.875Z</time>
      </trkpt>
      <trkpt lat="43.14769" lon="3.09411">
        <ele>165</ele>
        <time>2025-12-29T12:42:37.875Z</time>
      </trkpt>
      <trkpt lat="43.14769" lon="3.0941">
        <ele>164</ele>
        <time>2025-12-29T12:42:38.875Z</time>
      </trkpt>
      <trkpt lat="43.14769" lon="3.09408">
        <ele>164</ele>
        <time>2025-12-29T12:42:39.875Z</time>
      </trkpt>
      <trkpt lat="43.14769" lon="3.09407">
        <ele>164</ele>
        <time>2025-12-29T12:42:40.875Z</time>
      </trkpt>
      <trkpt lat="43.14769" lon="3.09407">
        <ele>165</ele>
        <time>2025-12-29T12:42:41.875Z</time>
      </trkpt>
      <trkpt lat="43.14769" lon="3.09406">
        <ele>165</ele>
        <time>2025-12-29T12:42:42.875Z</time>
      </trkpt>
      <trkpt lat="43.14769" lon="3.09405">
        <ele>165</ele>
        <time>2025-12-29T12:42:43.875Z</time>
      </trkpt>
      <trkpt lat="43.14769" lon="3.09404">
        <ele>165</ele>
        <time>2025-12-29T12:42:44.875Z</time>
      </trkpt>
      <trkpt lat="43.14769" lon="3.09403">
        <ele>166</ele>
        <time>2025-12-29T12:42:45.875Z</time>
      </trkpt>
      <trkpt lat="43.14769" lon="3.09402">
        <ele>166</ele>
        <time>2025-12-29T12:42:46.875Z</time>
      </trkpt>
      <trkpt lat="43.14769" lon="3.09401">
        <ele>167</ele>
        <time>2025-12-29T12:42:47.875Z</time>
      </trkpt>
      <trkpt lat="43.14769" lon="3.094">
        <ele>167</ele>
        <time>2025-12-29T12:42:48.875Z</time>
      </trkpt>
      <trkpt lat="43.14769" lon="3.09399">
        <ele>167</ele>
        <time>2025-12-29T12:42:49.875Z</time>
      </trkpt>
      <trkpt lat="43.14769" lon="3.09398">
        <ele>167</ele>
        <time>2025-12-29T12:42:50.875Z</time>
      </trkpt>
      <trkpt lat="43.1477" lon="3.09398">
        <ele>168</ele>
        <time>2025-12-29T12:42:51.875Z</time>
      </trkpt>
      <trkpt lat="43.14771" lon="3.09396">
        <ele>168</ele>
        <time>2025-12-29T12:42:52.875Z</time>
      </trkpt>
      <trkpt lat="43.14771" lon="3.09395">
        <ele>168</ele>
        <time>2025-12-29T12:42:53.875Z</time>
      </trkpt>
      <trkpt lat="43.14771" lon="3.09394">
        <ele>168</ele>
        <time>2025-12-29T12:42:54.875Z</time>
      </trkpt>
      <trkpt lat="43.14771" lon="3.09393">
        <ele>169</ele>
        <time>2025-12-29T12:42:55.875Z</time>
      </trkpt>
      <trkpt lat="43.14771" lon="3.09392">
        <ele>169</ele>
        <time>2025-12-29T12:42:56.875Z</time>
      </trkpt>
      <trkpt lat="43.14772" lon="3.09392">
        <ele>169</ele>
        <time>2025-12-29T12:42:57.875Z</time>
      </trkpt>
      <trkpt lat="43.14772" lon="3.0939">
        <ele>169</ele>
        <time>2025-12-29T12:42:58.875Z</time>
      </trkpt>
      <trkpt lat="43.14772" lon="3.09389">
        <ele>169</ele>
        <time>2025-12-29T12:42:59.875Z</time>
      </trkpt>
      <trkpt lat="43.14772" lon="3.09388">
        <ele>170</ele>
        <time>2025-12-29T12:43:00.875Z</time>
      </trkpt>
      <trkpt lat="43.14772" lon="3.09387">
        <ele>170</ele>
        <time>2025-12-29T12:43:01.875Z</time>
      </trkpt>
      <trkpt lat="43.14773" lon="3.09385">
        <ele>170</ele>
        <time>2025-12-29T12:43:02.875Z</time>
      </trkpt>
      <trkpt lat="43.14773" lon="3.09384">
        <ele>171</ele>
        <time>2025-12-29T12:43:03.875Z</time>
      </trkpt>
      <trkpt lat="43.14774" lon="3.09383">
        <ele>171</ele>
        <time>2025-12-29T12:43:04.875Z</time>
      </trkpt>
      <trkpt lat="43.14774" lon="3.09381">
        <ele>171</ele>
        <time>2025-12-29T12:43:05.875Z</time>
      </trkpt>
      <trkpt lat="43.14774" lon="3.0938">
        <ele>172</ele>
        <time>2025-12-29T12:43:06.875Z</time>
      </trkpt>
      <trkpt lat="43.14775" lon="3.09379">
        <ele>172</ele>
        <time>2025-12-29T12:43:07.875Z</time>
      </trkpt>
      <trkpt lat="43.14775" lon="3.09378">
        <ele>172</ele>
        <time>2025-12-29T12:43:08.875Z</time>
      </trkpt>
      <trkpt lat="43.14775" lon="3.09377">
        <ele>173</ele>
        <time>2025-12-29T12:43:09.875Z</time>
      </trkpt>
      <trkpt lat="43.14775" lon="3.09375">
        <ele>173</ele>
        <time>2025-12-29T12:43:10.875Z</time>
      </trkpt>
      <trkpt lat="43.14776" lon="3.09374">
        <ele>173</ele>
        <time>2025-12-29T12:43:11.875Z</time>
      </trkpt>
      <trkpt lat="43.14776" lon="3.09373">
        <ele>173</ele>
        <time>2025-12-29T12:43:12.875Z</time>
      </trkpt>
      <trkpt lat="43.14776" lon="3.09372">
        <ele>174</ele>
        <time>2025-12-29T12:43:13.875Z</time>
      </trkpt>
      <trkpt lat="43.14777" lon="3.0937">
        <ele>174</ele>
        <time>2025-12-29T12:43:14.875Z</time>
      </trkpt>
      <trkpt lat="43.14777" lon="3.09369">
        <ele>174</ele>
        <time>2025-12-29T12:43:15.875Z</time>
      </trkpt>
      <trkpt lat="43.14778" lon="3.09368">
        <ele>174</ele>
        <time>2025-12-29T12:43:16.875Z</time>
      </trkpt>
      <trkpt lat="43.14778" lon="3.09366">
        <ele>174</ele>
        <time>2025-12-29T12:43:17.875Z</time>
      </trkpt>
      <trkpt lat="43.14778" lon="3.09364">
        <ele>174</ele>
        <time>2025-12-29T12:43:18.875Z</time>
      </trkpt>
      <trkpt lat="43.14778" lon="3.09363">
        <ele>174</ele>
        <time>2025-12-29T12:43:19.875Z</time>
      </trkpt>
      <trkpt lat="43.14779" lon="3.09362">
        <ele>175</ele>
        <time>2025-12-29T12:43:20.875Z</time>
      </trkpt>
      <trkpt lat="43.14779" lon="3.0936">
        <ele>175</ele>
        <time>2025-12-29T12:43:21.875Z</time>
      </trkpt>
      <trkpt lat="43.14779" lon="3.09358">
        <ele>175</ele>
        <time>2025-12-29T12:43:22.875Z</time>
      </trkpt>
      <trkpt lat="43.1478" lon="3.09357">
        <ele>175</ele>
        <time>2025-12-29T12:43:23.875Z</time>
      </trkpt>
      <trkpt lat="43.1478" lon="3.09356">
        <ele>175</ele>
        <time>2025-12-29T12:43:24.875Z</time>
      </trkpt>
      <trkpt lat="43.14781" lon="3.09355">
        <ele>175</ele>
        <time>2025-12-29T12:43:25.875Z</time>
      </trkpt>
      <trkpt lat="43.14781" lon="3.09353">
        <ele>175</ele>
        <time>2025-12-29T12:43:26.875Z</time>
      </trkpt>
      <trkpt lat="43.14781" lon="3.09351">
        <ele>175</ele>
        <time>2025-12-29T12:43:27.875Z</time>
      </trkpt>
      <trkpt lat="43.14782" lon="3.0935">
        <ele>175</ele>
        <time>2025-12-29T12:43:28.875Z</time>
      </trkpt>
      <trkpt lat="43.14782" lon="3.09348">
        <ele>175</ele>
        <time>2025-12-29T12:43:29.875Z</time>
      </trkpt>
      <trkpt lat="43.14782" lon="3.09346">
        <ele>176</ele>
        <time>2025-12-29T12:43:30.875Z</time>
      </trkpt>
      <trkpt lat="43.14783" lon="3.09343">
        <ele>176</ele>
        <time>2025-12-29T12:43:31.875Z</time>
      </trkpt>
      <trkpt lat="43.14783" lon="3.09342">
        <ele>176</ele>
        <time>2025-12-29T12:43:32.875Z</time>
      </trkpt>
      <trkpt lat="43.14784" lon="3.0934">
        <ele>176</ele>
        <time>2025-12-29T12:43:33.875Z</time>
      </trkpt>
      <trkpt lat="43.14784" lon="3.09338">
        <ele>177</ele>
        <time>2025-12-29T12:43:34.875Z</time>
      </trkpt>
      <trkpt lat="43.14785" lon="3.09337">
        <ele>177</ele>
        <time>2025-12-29T12:43:35.875Z</time>
      </trkpt>
      <trkpt lat="43.14786" lon="3.09336">
        <ele>177</ele>
        <time>2025-12-29T12:43:36.875Z</time>
      </trkpt>
      <trkpt lat="43.14787" lon="3.09334">
        <ele>177</ele>
        <time>2025-12-29T12:43:37.875Z</time>
      </trkpt>
      <trkpt lat="43.14787" lon="3.09333">
        <ele>177</ele>
        <time>2025-12-29T12:43:38.875Z</time>
      </trkpt>
      <trkpt lat="43.14787" lon="3.09331">
        <ele>177</ele>
        <time>2025-12-29T12:43:39.875Z</time>
      </trkpt>
      <trkpt lat="43.14787" lon="3.09329">
        <ele>178</ele>
        <time>2025-12-29T12:43:40.875Z</time>
      </trkpt>
      <trkpt lat="43.14787" lon="3.09328">
        <ele>178</ele>
        <time>2025-12-29T12:43:41.875Z</time>
      </trkpt>
      <trkpt lat="43.14788" lon="3.09326">
        <ele>178</ele>
        <time>2025-12-29T12:43:42.875Z</time>
      </trkpt>
      <trkpt lat="43.14788" lon="3.09324">
        <ele>178</ele>
        <time>2025-12-29T12:43:43.875Z</time>
      </trkpt>
      <trkpt lat="43.14788" lon="3.09323">
        <ele>179</ele>
        <time>2025-12-29T12:43:44.875Z</time>
      </trkpt>
      <trkpt lat="43.14789" lon="3.09321">
        <ele>179</ele>
        <time>2025-12-29T12:43:45.875Z</time>
      </trkpt>
      <trkpt lat="43.14789" lon="3.0932">
        <ele>179</ele>
        <time>2025-12-29T12:43:46.875Z</time>
      </trkpt>
      <trkpt lat="43.1479" lon="3.09318">
        <ele>180</ele>
        <time>2025-12-29T12:43:47.875Z</time>
      </trkpt>
      <trkpt lat="43.14791" lon="3.09317">
        <ele>180</ele>
        <time>2025-12-29T12:43:48.875Z</time>
      </trkpt>
      <trkpt lat="43.14791" lon="3.09315">
        <ele>180</ele>
        <time>2025-12-29T12:43:49.875Z</time>
      </trkpt>
      <trkpt lat="43.14792" lon="3.09314">
        <ele>180</ele>
        <time>2025-12-29T12:43:50.875Z</time>
      </trkpt>
      <trkpt lat="43.14793" lon="3.09312">
        <ele>180</ele>
        <time>2025-12-29T12:43:51.875Z</time>
      </trkpt>
      <trkpt lat="43.14794" lon="3.09311">
        <ele>180</ele>
        <time>2025-12-29T12:43:52.875Z</time>
      </trkpt>
      <trkpt lat="43.14794" lon="3.0931">
        <ele>180</ele>
        <time>2025-12-29T12:43:53.875Z</time>
      </trkpt>
      <trkpt lat="43.14795" lon="3.09308">
        <ele>180</ele>
        <time>2025-12-29T12:43:54.875Z</time>
      </trkpt>
      <trkpt lat="43.14796" lon="3.09307">
        <ele>179</ele>
        <time>2025-12-29T12:43:55.875Z</time>
      </trkpt>
      <trkpt lat="43.14797" lon="3.09306">
        <ele>180</ele>
        <time>2025-12-29T12:43:56.875Z</time>
      </trkpt>
      <trkpt lat="43.14798" lon="3.09305">
        <ele>180</ele>
        <time>2025-12-29T12:43:57.875Z</time>
      </trkpt>
      <trkpt lat="43.14799" lon="3.09304">
        <ele>180</ele>
        <time>2025-12-29T12:43:58.875Z</time>
      </trkpt>
      <trkpt lat="43.148" lon="3.09303">
        <ele>180</ele>
        <time>2025-12-29T12:43:59.875Z</time>
      </trkpt>
      <trkpt lat="43.148" lon="3.09301">
        <ele>180</ele>
        <time>2025-12-29T12:44:00.875Z</time>
      </trkpt>
      <trkpt lat="43.14801" lon="3.093">
        <ele>180</ele>
        <time>2025-12-29T12:44:01.875Z</time>
      </trkpt>
      <trkpt lat="43.14802" lon="3.09299">
        <ele>180</ele>
        <time>2025-12-29T12:44:02.875Z</time>
      </trkpt>
      <trkpt lat="43.14802" lon="3.09298">
        <ele>180</ele>
        <time>2025-12-29T12:44:03.875Z</time>
      </trkpt>
      <trkpt lat="43.14803" lon="3.09297">
        <ele>180</ele>
        <time>2025-12-29T12:44:04.875Z</time>
      </trkpt>
      <trkpt lat="43.14804" lon="3.09295">
        <ele>180</ele>
        <time>2025-12-29T12:44:05.875Z</time>
      </trkpt>
      <trkpt lat="43.14805" lon="3.09294">
        <ele>180</ele>
        <time>2025-12-29T12:44:06.875Z</time>
      </trkpt>
      <trkpt lat="43.14806" lon="3.09293">
        <ele>180</ele>
        <time>2025-12-29T12:44:07.875Z</time>
      </trkpt>
      <trkpt lat="43.14808" lon="3.09292">
        <ele>180</ele>
        <time>2025-12-29T12:44:08.875Z</time>
      </trkpt>
      <trkpt lat="43.14809" lon="3.09291">
        <ele>180</ele>
        <time>2025-12-29T12:44:09.875Z</time>
      </trkpt>
      <trkpt lat="43.1481" lon="3.0929">
        <ele>180</ele>
        <time>2025-12-29T12:44:10.875Z</time>
      </trkpt>
      <trkpt lat="43.14811" lon="3.09289">
        <ele>181</ele>
        <time>2025-12-29T12:44:11.875Z</time>
      </trkpt>
      <trkpt lat="43.14812" lon="3.09288">
        <ele>181</ele>
        <time>2025-12-29T12:44:12.875Z</time>
      </trkpt>
      <trkpt lat="43.14813" lon="3.09286">
        <ele>181</ele>
        <time>2025-12-29T12:44:13.875Z</time>
      </trkpt>
      <trkpt lat="43.14814" lon="3.09285">
        <ele>181</ele>
        <time>2025-12-29T12:44:14.875Z</time>
      </trkpt>
      <trkpt lat="43.14815" lon="3.09284">
        <ele>181</ele>
        <time>2025-12-29T12:44:15.875Z</time>
      </trkpt>
      <trkpt lat="43.14816" lon="3.09282">
        <ele>181</ele>
        <time>2025-12-29T12:44:16.875Z</time>
      </trkpt>
      <trkpt lat="43.14816" lon="3.09281">
        <ele>181</ele>
        <time>2025-12-29T12:44:17.875Z</time>
      </trkpt>
      <trkpt lat="43.14818" lon="3.0928">
        <ele>181</ele>
        <time>2025-12-29T12:44:18.875Z</time>
      </trkpt>
      <trkpt lat="43.14819" lon="3.09279">
        <ele>182</ele>
        <time>2025-12-29T12:44:19.875Z</time>
      </trkpt>
      <trkpt lat="43.14819" lon="3.09277">
        <ele>182</ele>
        <time>2025-12-29T12:44:20.875Z</time>
      </trkpt>
      <trkpt lat="43.1482" lon="3.09276">
        <ele>182</ele>
        <time>2025-12-29T12:44:21.875Z</time>
      </trkpt>
      <trkpt lat="43.14821" lon="3.09275">
        <ele>183</ele>
        <time>2025-12-29T12:44:22.875Z</time>
      </trkpt>
      <trkpt lat="43.14822" lon="3.09273">
        <ele>184</ele>
        <time>2025-12-29T12:44:23.875Z</time>
      </trkpt>
      <trkpt lat="43.14823" lon="3.09271">
        <ele>184</ele>
        <time>2025-12-29T12:44:24.875Z</time>
      </trkpt>
      <trkpt lat="43.14823" lon="3.09269">
        <ele>184</ele>
        <time>2025-12-29T12:44:25.875Z</time>
      </trkpt>
      <trkpt lat="43.14824" lon="3.09268">
        <ele>184</ele>
        <time>2025-12-29T12:44:26.875Z</time>
      </trkpt>
      <trkpt lat="43.14825" lon="3.09266">
        <ele>184</ele>
        <time>2025-12-29T12:44:27.875Z</time>
      </trkpt>
      <trkpt lat="43.14826" lon="3.09265">
        <ele>185</ele>
        <time>2025-12-29T12:44:28.875Z</time>
      </trkpt>
      <trkpt lat="43.14827" lon="3.09264">
        <ele>185</ele>
        <time>2025-12-29T12:44:29.875Z</time>
      </trkpt>
      <trkpt lat="43.14828" lon="3.09263">
        <ele>185</ele>
        <time>2025-12-29T12:44:30.875Z</time>
      </trkpt>
      <trkpt lat="43.14829" lon="3.09261">
        <ele>185</ele>
        <time>2025-12-29T12:44:31.875Z</time>
      </trkpt>
      <trkpt lat="43.1483" lon="3.0926">
        <ele>185</ele>
        <time>2025-12-29T12:44:32.875Z</time>
      </trkpt>
      <trkpt lat="43.14831" lon="3.09259">
        <ele>185</ele>
        <time>2025-12-29T12:44:33.875Z</time>
      </trkpt>
      <trkpt lat="43.14832" lon="3.09257">
        <ele>185</ele>
        <time>2025-12-29T12:44:34.875Z</time>
      </trkpt>
      <trkpt lat="43.14833" lon="3.09255">
        <ele>185</ele>
        <time>2025-12-29T12:44:35.875Z</time>
      </trkpt>
      <trkpt lat="43.14834" lon="3.09254">
        <ele>185</ele>
        <time>2025-12-29T12:44:36.875Z</time>
      </trkpt>
      <trkpt lat="43.14835" lon="3.09253">
        <ele>185</ele>
        <time>2025-12-29T12:44:37.875Z</time>
      </trkpt>
      <trkpt lat="43.14836" lon="3.09252">
        <ele>185</ele>
        <time>2025-12-29T12:44:38.875Z</time>
      </trkpt>
      <trkpt lat="43.14837" lon="3.0925">
        <ele>185</ele>
        <time>2025-12-29T12:44:39.875Z</time>
      </trkpt>
      <trkpt lat="43.14837" lon="3.09249">
        <ele>185</ele>
        <time>2025-12-29T12:44:40.875Z</time>
      </trkpt>
      <trkpt lat="43.14838" lon="3.09248">
        <ele>186</ele>
        <time>2025-12-29T12:44:41.875Z</time>
      </trkpt>
      <trkpt lat="43.14839" lon="3.09247">
        <ele>186</ele>
        <time>2025-12-29T12:44:42.875Z</time>
      </trkpt>
      <trkpt lat="43.1484" lon="3.09246">
        <ele>186</ele>
        <time>2025-12-29T12:44:43.875Z</time>
      </trkpt>
      <trkpt lat="43.14841" lon="3.09244">
        <ele>186</ele>
        <time>2025-12-29T12:44:44.875Z</time>
      </trkpt>
      <trkpt lat="43.14841" lon="3.09243">
        <ele>186</ele>
        <time>2025-12-29T12:44:45.875Z</time>
      </trkpt>
      <trkpt lat="43.14842" lon="3.09241">
        <ele>186</ele>
        <time>2025-12-29T12:44:46.875Z</time>
      </trkpt>
      <trkpt lat="43.14843" lon="3.09239">
        <ele>186</ele>
        <time>2025-12-29T12:44:47.875Z</time>
      </trkpt>
      <trkpt lat="43.14844" lon="3.09237">
        <ele>187</ele>
        <time>2025-12-29T12:44:48.875Z</time>
      </trkpt>
      <trkpt lat="43.14845" lon="3.09236">
        <ele>187</ele>
        <time>2025-12-29T12:44:49.875Z</time>
      </trkpt>
      <trkpt lat="43.14845" lon="3.09234">
        <ele>187</ele>
        <time>2025-12-29T12:44:50.875Z</time>
      </trkpt>
      <trkpt lat="43.14846" lon="3.09233">
        <ele>188</ele>
        <time>2025-12-29T12:44:51.875Z</time>
      </trkpt>
      <trkpt lat="43.14847" lon="3.09231">
        <ele>188</ele>
        <time>2025-12-29T12:44:52.875Z</time>
      </trkpt>
      <trkpt lat="43.14847" lon="3.09229">
        <ele>188</ele>
        <time>2025-12-29T12:44:53.875Z</time>
      </trkpt>
      <trkpt lat="43.14848" lon="3.09228">
        <ele>188</ele>
        <time>2025-12-29T12:44:54.875Z</time>
      </trkpt>
      <trkpt lat="43.14848" lon="3.09226">
        <ele>188</ele>
        <time>2025-12-29T12:44:55.875Z</time>
      </trkpt>
      <trkpt lat="43.14849" lon="3.09224">
        <ele>188</ele>
        <time>2025-12-29T12:44:56.875Z</time>
      </trkpt>
      <trkpt lat="43.14849" lon="3.09223">
        <ele>188</ele>
        <time>2025-12-29T12:44:57.875Z</time>
      </trkpt>
      <trkpt lat="43.1485" lon="3.09221">
        <ele>187</ele>
        <time>2025-12-29T12:44:58.875Z</time>
      </trkpt>
      <trkpt lat="43.1485" lon="3.09219">
        <ele>187</ele>
        <time>2025-12-29T12:44:59.875Z</time>
      </trkpt>
      <trkpt lat="43.14851" lon="3.09218">
        <ele>187</ele>
        <time>2025-12-29T12:45:00.875Z</time>
      </trkpt>
      <trkpt lat="43.14851" lon="3.09216">
        <ele>187</ele>
        <time>2025-12-29T12:45:01.875Z</time>
      </trkpt>
      <trkpt lat="43.14851" lon="3.09214">
        <ele>188</ele>
        <time>2025-12-29T12:45:02.875Z</time>
      </trkpt>
      <trkpt lat="43.14852" lon="3.09213">
        <ele>188</ele>
        <time>2025-12-29T12:45:03.875Z</time>
      </trkpt>
      <trkpt lat="43.14853" lon="3.09211">
        <ele>188</ele>
        <time>2025-12-29T12:45:04.875Z</time>
      </trkpt>
      <trkpt lat="43.14853" lon="3.09209">
        <ele>188</ele>
        <time>2025-12-29T12:45:05.875Z</time>
      </trkpt>
      <trkpt lat="43.14854" lon="3.09208">
        <ele>188</ele>
        <time>2025-12-29T12:45:06.875Z</time>
      </trkpt>
      <trkpt lat="43.14855" lon="3.09206">
        <ele>188</ele>
        <time>2025-12-29T12:45:07.875Z</time>
      </trkpt>
      <trkpt lat="43.14856" lon="3.09204">
        <ele>187</ele>
        <time>2025-12-29T12:45:08.875Z</time>
      </trkpt>
      <trkpt lat="43.14856" lon="3.09202">
        <ele>187</ele>
        <time>2025-12-29T12:45:09.875Z</time>
      </trkpt>
      <trkpt lat="43.14856" lon="3.092">
        <ele>187</ele>
        <time>2025-12-29T12:45:10.875Z</time>
      </trkpt>
      <trkpt lat="43.14857" lon="3.09199">
        <ele>187</ele>
        <time>2025-12-29T12:45:11.875Z</time>
      </trkpt>
      <trkpt lat="43.14857" lon="3.09197">
        <ele>187</ele>
        <time>2025-12-29T12:45:12.875Z</time>
      </trkpt>
      <trkpt lat="43.14857" lon="3.09195">
        <ele>187</ele>
        <time>2025-12-29T12:45:13.875Z</time>
      </trkpt>
      <trkpt lat="43.14858" lon="3.09193">
        <ele>187</ele>
        <time>2025-12-29T12:45:14.875Z</time>
      </trkpt>
      <trkpt lat="43.14859" lon="3.09191">
        <ele>188</ele>
        <time>2025-12-29T12:45:15.875Z</time>
      </trkpt>
      <trkpt lat="43.1486" lon="3.09189">
        <ele>188</ele>
        <time>2025-12-29T12:45:16.875Z</time>
      </trkpt>
      <trkpt lat="43.1486" lon="3.09187">
        <ele>188</ele>
        <time>2025-12-29T12:45:17.875Z</time>
      </trkpt>
      <trkpt lat="43.14861" lon="3.09185">
        <ele>188</ele>
        <time>2025-12-29T12:45:18.875Z</time>
      </trkpt>
      <trkpt lat="43.14861" lon="3.09183">
        <ele>188</ele>
        <time>2025-12-29T12:45:19.875Z</time>
      </trkpt>
      <trkpt lat="43.14862" lon="3.09181">
        <ele>188</ele>
        <time>2025-12-29T12:45:20.875Z</time>
      </trkpt>
      <trkpt lat="43.14862" lon="3.09179">
        <ele>188</ele>
        <time>2025-12-29T12:45:21.875Z</time>
      </trkpt>
      <trkpt lat="43.14863" lon="3.09177">
        <ele>188</ele>
        <time>2025-12-29T12:45:22.875Z</time>
      </trkpt>
      <trkpt lat="43.14863" lon="3.09176">
        <ele>188</ele>
        <time>2025-12-29T12:45:23.875Z</time>
      </trkpt>
      <trkpt lat="43.14865" lon="3.09174">
        <ele>188</ele>
        <time>2025-12-29T12:45:24.875Z</time>
      </trkpt>
      <trkpt lat="43.14865" lon="3.09172">
        <ele>188</ele>
        <time>2025-12-29T12:45:25.875Z</time>
      </trkpt>
      <trkpt lat="43.14866" lon="3.0917">
        <ele>188</ele>
        <time>2025-12-29T12:45:26.875Z</time>
      </trkpt>
      <trkpt lat="43.14867" lon="3.09168">
        <ele>188</ele>
        <time>2025-12-29T12:45:27.875Z</time>
      </trkpt>
      <trkpt lat="43.14868" lon="3.09166">
        <ele>188</ele>
        <time>2025-12-29T12:45:28.875Z</time>
      </trkpt>
      <trkpt lat="43.14869" lon="3.09164">
        <ele>188</ele>
        <time>2025-12-29T12:45:29.875Z</time>
      </trkpt>
      <trkpt lat="43.14869" lon="3.09162">
        <ele>188</ele>
        <time>2025-12-29T12:45:30.875Z</time>
      </trkpt>
      <trkpt lat="43.1487" lon="3.0916">
        <ele>188</ele>
        <time>2025-12-29T12:45:31.875Z</time>
      </trkpt>
      <trkpt lat="43.14871" lon="3.09158">
        <ele>188</ele>
        <time>2025-12-29T12:45:32.875Z</time>
      </trkpt>
      <trkpt lat="43.14872" lon="3.09156">
        <ele>188</ele>
        <time>2025-12-29T12:45:33.875Z</time>
      </trkpt>
      <trkpt lat="43.14873" lon="3.09154">
        <ele>188</ele>
        <time>2025-12-29T12:45:34.875Z</time>
      </trkpt>
      <trkpt lat="43.14873" lon="3.09152">
        <ele>188</ele>
        <time>2025-12-29T12:45:35.875Z</time>
      </trkpt>
      <trkpt lat="43.14874" lon="3.09151">
        <ele>188</ele>
        <time>2025-12-29T12:45:36.875Z</time>
      </trkpt>
      <trkpt lat="43.14874" lon="3.09149">
        <ele>188</ele>
        <time>2025-12-29T12:45:37.875Z</time>
      </trkpt>
      <trkpt lat="43.14874" lon="3.09147">
        <ele>188</ele>
        <time>2025-12-29T12:45:38.875Z</time>
      </trkpt>
      <trkpt lat="43.14874" lon="3.09146">
        <ele>188</ele>
        <time>2025-12-29T12:45:39.875Z</time>
      </trkpt>
      <trkpt lat="43.14875" lon="3.09144">
        <ele>188</ele>
        <time>2025-12-29T12:45:40.875Z</time>
      </trkpt>
      <trkpt lat="43.14875" lon="3.09142">
        <ele>188</ele>
        <time>2025-12-29T12:45:41.875Z</time>
      </trkpt>
      <trkpt lat="43.14875" lon="3.0914">
        <ele>188</ele>
        <time>2025-12-29T12:45:42.875Z</time>
      </trkpt>
      <trkpt lat="43.14875" lon="3.09138">
        <ele>188</ele>
        <time>2025-12-29T12:45:43.875Z</time>
      </trkpt>
      <trkpt lat="43.14875" lon="3.09137">
        <ele>189</ele>
        <time>2025-12-29T12:45:44.875Z</time>
      </trkpt>
      <trkpt lat="43.14876" lon="3.09135">
        <ele>189</ele>
        <time>2025-12-29T12:45:45.875Z</time>
      </trkpt>
      <trkpt lat="43.14876" lon="3.09133">
        <ele>189</ele>
        <time>2025-12-29T12:45:46.875Z</time>
      </trkpt>
      <trkpt lat="43.14877" lon="3.09131">
        <ele>189</ele>
        <time>2025-12-29T12:45:47.875Z</time>
      </trkpt>
      <trkpt lat="43.14877" lon="3.0913">
        <ele>189</ele>
        <time>2025-12-29T12:45:48.875Z</time>
      </trkpt>
      <trkpt lat="43.14878" lon="3.09128">
        <ele>189</ele>
        <time>2025-12-29T12:45:49.875Z</time>
      </trkpt>
      <trkpt lat="43.14879" lon="3.09127">
        <ele>189</ele>
        <time>2025-12-29T12:45:50.875Z</time>
      </trkpt>
      <trkpt lat="43.1488" lon="3.09125">
        <ele>188</ele>
        <time>2025-12-29T12:45:51.875Z</time>
      </trkpt>
      <trkpt lat="43.1488" lon="3.09123">
        <ele>188</ele>
        <time>2025-12-29T12:45:52.875Z</time>
      </trkpt>
      <trkpt lat="43.1488" lon="3.09121">
        <ele>188</ele>
        <time>2025-12-29T12:45:53.875Z</time>
      </trkpt>
      <trkpt lat="43.14881" lon="3.09119">
        <ele>188</ele>
        <time>2025-12-29T12:45:54.875Z</time>
      </trkpt>
      <trkpt lat="43.14882" lon="3.09117">
        <ele>188</ele>
        <time>2025-12-29T12:45:55.875Z</time>
      </trkpt>
      <trkpt lat="43.14882" lon="3.09115">
        <ele>187</ele>
        <time>2025-12-29T12:45:56.875Z</time>
      </trkpt>
      <trkpt lat="43.14883" lon="3.09113">
        <ele>187</ele>
        <time>2025-12-29T12:45:57.875Z</time>
      </trkpt>
      <trkpt lat="43.14883" lon="3.09111">
        <ele>187</ele>
        <time>2025-12-29T12:45:58.875Z</time>
      </trkpt>
      <trkpt lat="43.14883" lon="3.09109">
        <ele>188</ele>
        <time>2025-12-29T12:45:59.875Z</time>
      </trkpt>
      <trkpt lat="43.14884" lon="3.09106">
        <ele>188</ele>
        <time>2025-12-29T12:46:00.875Z</time>
      </trkpt>
      <trkpt lat="43.14885" lon="3.09105">
        <ele>188</ele>
        <time>2025-12-29T12:46:01.875Z</time>
      </trkpt>
      <trkpt lat="43.14885" lon="3.09103">
        <ele>188</ele>
        <time>2025-12-29T12:46:02.875Z</time>
      </trkpt>
      <trkpt lat="43.14885" lon="3.09101">
        <ele>188</ele>
        <time>2025-12-29T12:46:03.875Z</time>
      </trkpt>
      <trkpt lat="43.14886" lon="3.09099">
        <ele>188</ele>
        <time>2025-12-29T12:46:04.875Z</time>
      </trkpt>
      <trkpt lat="43.14886" lon="3.09097">
        <ele>188</ele>
        <time>2025-12-29T12:46:05.875Z</time>
      </trkpt>
      <trkpt lat="43.14887" lon="3.09095">
        <ele>188</ele>
        <time>2025-12-29T12:46:06.875Z</time>
      </trkpt>
      <trkpt lat="43.14887" lon="3.09093">
        <ele>188</ele>
        <time>2025-12-29T12:46:07.875Z</time>
      </trkpt>
      <trkpt lat="43.14888" lon="3.09091">
        <ele>187</ele>
        <time>2025-12-29T12:46:08.875Z</time>
      </trkpt>
      <trkpt lat="43.14888" lon="3.09089">
        <ele>187</ele>
        <time>2025-12-29T12:46:09.875Z</time>
      </trkpt>
      <trkpt lat="43.14888" lon="3.09087">
        <ele>187</ele>
        <time>2025-12-29T12:46:10.875Z</time>
      </trkpt>
      <trkpt lat="43.14888" lon="3.09086">
        <ele>187</ele>
        <time>2025-12-29T12:46:11.875Z</time>
      </trkpt>
      <trkpt lat="43.14889" lon="3.09084">
        <ele>187</ele>
        <time>2025-12-29T12:46:12.875Z</time>
      </trkpt>
      <trkpt lat="43.14889" lon="3.09082">
        <ele>187</ele>
        <time>2025-12-29T12:46:13.875Z</time>
      </trkpt>
      <trkpt lat="43.1489" lon="3.09081">
        <ele>188</ele>
        <time>2025-12-29T12:46:14.875Z</time>
      </trkpt>
      <trkpt lat="43.1489" lon="3.09079">
        <ele>188</ele>
        <time>2025-12-29T12:46:15.875Z</time>
      </trkpt>
      <trkpt lat="43.14891" lon="3.09077">
        <ele>188</ele>
        <time>2025-12-29T12:46:16.875Z</time>
      </trkpt>
      <trkpt lat="43.14891" lon="3.09076">
        <ele>188</ele>
        <time>2025-12-29T12:46:17.875Z</time>
      </trkpt>
      <trkpt lat="43.14891" lon="3.09073">
        <ele>188</ele>
        <time>2025-12-29T12:46:18.875Z</time>
      </trkpt>
      <trkpt lat="43.14892" lon="3.09072">
        <ele>188</ele>
        <time>2025-12-29T12:46:19.875Z</time>
      </trkpt>
      <trkpt lat="43.14892" lon="3.0907">
        <ele>188</ele>
        <time>2025-12-29T12:46:20.875Z</time>
      </trkpt>
      <trkpt lat="43.14893" lon="3.09068">
        <ele>188</ele>
        <time>2025-12-29T12:46:21.875Z</time>
      </trkpt>
      <trkpt lat="43.14893" lon="3.09066">
        <ele>188</ele>
        <time>2025-12-29T12:46:22.875Z</time>
      </trkpt>
      <trkpt lat="43.14893" lon="3.09065">
        <ele>188</ele>
        <time>2025-12-29T12:46:23.875Z</time>
      </trkpt>
      <trkpt lat="43.14894" lon="3.09063">
        <ele>188</ele>
        <time>2025-12-29T12:46:24.875Z</time>
      </trkpt>
      <trkpt lat="43.14894" lon="3.09061">
        <ele>188</ele>
        <time>2025-12-29T12:46:25.875Z</time>
      </trkpt>
      <trkpt lat="43.14894" lon="3.09059">
        <ele>188</ele>
        <time>2025-12-29T12:46:26.875Z</time>
      </trkpt>
      <trkpt lat="43.14894" lon="3.09058">
        <ele>188</ele>
        <time>2025-12-29T12:46:27.875Z</time>
      </trkpt>
      <trkpt lat="43.14894" lon="3.09056">
        <ele>187</ele>
        <time>2025-12-29T12:46:28.875Z</time>
      </trkpt>
      <trkpt lat="43.14894" lon="3.09054">
        <ele>187</ele>
        <time>2025-12-29T12:46:29.875Z</time>
      </trkpt>
      <trkpt lat="43.14895" lon="3.09053">
        <ele>187</ele>
        <time>2025-12-29T12:46:30.875Z</time>
      </trkpt>
      <trkpt lat="43.14896" lon="3.09051">
        <ele>187</ele>
        <time>2025-12-29T12:46:31.875Z</time>
      </trkpt>
      <trkpt lat="43.14897" lon="3.0905">
        <ele>187</ele>
        <time>2025-12-29T12:46:32.875Z</time>
      </trkpt>
      <trkpt lat="43.14898" lon="3.09048">
        <ele>187</ele>
        <time>2025-12-29T12:46:33.875Z</time>
      </trkpt>
      <trkpt lat="43.14898" lon="3.09046">
        <ele>187</ele>
        <time>2025-12-29T12:46:34.875Z</time>
      </trkpt>
      <trkpt lat="43.14899" lon="3.09044">
        <ele>187</ele>
        <time>2025-12-29T12:46:35.875Z</time>
      </trkpt>
      <trkpt lat="43.14899" lon="3.09042">
        <ele>187</ele>
        <time>2025-12-29T12:46:36.875Z</time>
      </trkpt>
      <trkpt lat="43.14899" lon="3.0904">
        <ele>187</ele>
        <time>2025-12-29T12:46:37.875Z</time>
      </trkpt>
      <trkpt lat="43.149" lon="3.09038">
        <ele>187</ele>
        <time>2025-12-29T12:46:38.875Z</time>
      </trkpt>
      <trkpt lat="43.14901" lon="3.09036">
        <ele>187</ele>
        <time>2025-12-29T12:46:39.875Z</time>
      </trkpt>
      <trkpt lat="43.14902" lon="3.09034">
        <ele>187</ele>
        <time>2025-12-29T12:46:40.875Z</time>
      </trkpt>
      <trkpt lat="43.14902" lon="3.09032">
        <ele>187</ele>
        <time>2025-12-29T12:46:41.875Z</time>
      </trkpt>
      <trkpt lat="43.14903" lon="3.0903">
        <ele>187</ele>
        <time>2025-12-29T12:46:42.875Z</time>
      </trkpt>
      <trkpt lat="43.14903" lon="3.09028">
        <ele>187</ele>
        <time>2025-12-29T12:46:43.875Z</time>
      </trkpt>
      <trkpt lat="43.14904" lon="3.09026">
        <ele>187</ele>
        <time>2025-12-29T12:46:44.875Z</time>
      </trkpt>
      <trkpt lat="43.14904" lon="3.09024">
        <ele>186</ele>
        <time>2025-12-29T12:46:45.875Z</time>
      </trkpt>
      <trkpt lat="43.14905" lon="3.09022">
        <ele>186</ele>
        <time>2025-12-29T12:46:46.875Z</time>
      </trkpt>
      <trkpt lat="43.14905" lon="3.0902">
        <ele>186</ele>
        <time>2025-12-29T12:46:47.875Z</time>
      </trkpt>
      <trkpt lat="43.14906" lon="3.09018">
        <ele>187</ele>
        <time>2025-12-29T12:46:48.875Z</time>
      </trkpt>
      <trkpt lat="43.14906" lon="3.09016">
        <ele>186</ele>
        <time>2025-12-29T12:46:49.875Z</time>
      </trkpt>
      <trkpt lat="43.14907" lon="3.09014">
        <ele>186</ele>
        <time>2025-12-29T12:46:50.875Z</time>
      </trkpt>
      <trkpt lat="43.14907" lon="3.09012">
        <ele>186</ele>
        <time>2025-12-29T12:46:51.875Z</time>
      </trkpt>
      <trkpt lat="43.14907" lon="3.09011">
        <ele>186</ele>
        <time>2025-12-29T12:46:52.875Z</time>
      </trkpt>
      <trkpt lat="43.14908" lon="3.09009">
        <ele>186</ele>
        <time>2025-12-29T12:46:53.875Z</time>
      </trkpt>
      <trkpt lat="43.14908" lon="3.09007">
        <ele>186</ele>
        <time>2025-12-29T12:46:54.875Z</time>
      </trkpt>
      <trkpt lat="43.14909" lon="3.09005">
        <ele>185</ele>
        <time>2025-12-29T12:46:55.875Z</time>
      </trkpt>
      <trkpt lat="43.14909" lon="3.09004">
        <ele>185</ele>
        <time>2025-12-29T12:46:56.875Z</time>
      </trkpt>
      <trkpt lat="43.14909" lon="3.09002">
        <ele>185</ele>
        <time>2025-12-29T12:46:57.875Z</time>
      </trkpt>
      <trkpt lat="43.1491" lon="3.09">
        <ele>185</ele>
        <time>2025-12-29T12:46:58.875Z</time>
      </trkpt>
      <trkpt lat="43.1491" lon="3.08999">
        <ele>184</ele>
        <time>2025-12-29T12:46:59.875Z</time>
      </trkpt>
      <trkpt lat="43.1491" lon="3.08997">
        <ele>184</ele>
        <time>2025-12-29T12:47:00.875Z</time>
      </trkpt>
      <trkpt lat="43.1491" lon="3.08995">
        <ele>184</ele>
        <time>2025-12-29T12:47:01.875Z</time>
      </trkpt>
      <trkpt lat="43.14911" lon="3.08994">
        <ele>184</ele>
        <time>2025-12-29T12:47:02.875Z</time>
      </trkpt>
      <trkpt lat="43.14912" lon="3.08992">
        <ele>184</ele>
        <time>2025-12-29T12:47:03.875Z</time>
      </trkpt>
      <trkpt lat="43.14912" lon="3.0899">
        <ele>184</ele>
        <time>2025-12-29T12:47:04.875Z</time>
      </trkpt>
      <trkpt lat="43.14913" lon="3.08988">
        <ele>183</ele>
        <time>2025-12-29T12:47:05.875Z</time>
      </trkpt>
      <trkpt lat="43.14914" lon="3.08986">
        <ele>183</ele>
        <time>2025-12-29T12:47:06.875Z</time>
      </trkpt>
      <trkpt lat="43.14914" lon="3.08984">
        <ele>183</ele>
        <time>2025-12-29T12:47:07.875Z</time>
      </trkpt>
      <trkpt lat="43.14915" lon="3.08982">
        <ele>183</ele>
        <time>2025-12-29T12:47:08.875Z</time>
      </trkpt>
      <trkpt lat="43.14915" lon="3.0898">
        <ele>183</ele>
        <time>2025-12-29T12:47:09.875Z</time>
      </trkpt>
      <trkpt lat="43.14916" lon="3.08979">
        <ele>183</ele>
        <time>2025-12-29T12:47:10.875Z</time>
      </trkpt>
      <trkpt lat="43.14917" lon="3.08977">
        <ele>183</ele>
        <time>2025-12-29T12:47:11.875Z</time>
      </trkpt>
      <trkpt lat="43.14917" lon="3.08975">
        <ele>183</ele>
        <time>2025-12-29T12:47:12.875Z</time>
      </trkpt>
      <trkpt lat="43.14918" lon="3.08973">
        <ele>183</ele>
        <time>2025-12-29T12:47:13.875Z</time>
      </trkpt>
      <trkpt lat="43.14918" lon="3.08971">
        <ele>183</ele>
        <time>2025-12-29T12:47:14.875Z</time>
      </trkpt>
      <trkpt lat="43.14918" lon="3.08969">
        <ele>183</ele>
        <time>2025-12-29T12:47:15.875Z</time>
      </trkpt>
      <trkpt lat="43.14918" lon="3.08967">
        <ele>183</ele>
        <time>2025-12-29T12:47:16.875Z</time>
      </trkpt>
      <trkpt lat="43.14917" lon="3.08965">
        <ele>183</ele>
        <time>2025-12-29T12:47:17.875Z</time>
      </trkpt>
      <trkpt lat="43.14918" lon="3.08963">
        <ele>183</ele>
        <time>2025-12-29T12:47:18.875Z</time>
      </trkpt>
      <trkpt lat="43.14919" lon="3.08961">
        <ele>182</ele>
        <time>2025-12-29T12:47:19.875Z</time>
      </trkpt>
      <trkpt lat="43.1492" lon="3.08959">
        <ele>183</ele>
        <time>2025-12-29T12:47:20.875Z</time>
      </trkpt>
      <trkpt lat="43.14921" lon="3.08957">
        <ele>183</ele>
        <time>2025-12-29T12:47:21.875Z</time>
      </trkpt>
      <trkpt lat="43.14922" lon="3.08955">
        <ele>183</ele>
        <time>2025-12-29T12:47:22.875Z</time>
      </trkpt>
      <trkpt lat="43.14923" lon="3.08953">
        <ele>183</ele>
        <time>2025-12-29T12:47:23.875Z</time>
      </trkpt>
      <trkpt lat="43.14923" lon="3.08951">
        <ele>183</ele>
        <time>2025-12-29T12:47:24.875Z</time>
      </trkpt>
      <trkpt lat="43.14923" lon="3.08949">
        <ele>183</ele>
        <time>2025-12-29T12:47:25.875Z</time>
      </trkpt>
      <trkpt lat="43.14923" lon="3.08948">
        <ele>182</ele>
        <time>2025-12-29T12:47:26.875Z</time>
      </trkpt>
      <trkpt lat="43.14923" lon="3.08946">
        <ele>182</ele>
        <time>2025-12-29T12:47:27.875Z</time>
      </trkpt>
      <trkpt lat="43.14923" lon="3.08944">
        <ele>182</ele>
        <time>2025-12-29T12:47:28.875Z</time>
      </trkpt>
      <trkpt lat="43.14924" lon="3.08942">
        <ele>181</ele>
        <time>2025-12-29T12:47:29.875Z</time>
      </trkpt>
      <trkpt lat="43.14924" lon="3.08941">
        <ele>181</ele>
        <time>2025-12-29T12:47:30.875Z</time>
      </trkpt>
      <trkpt lat="43.14924" lon="3.08939">
        <ele>180</ele>
        <time>2025-12-29T12:47:31.875Z</time>
      </trkpt>
      <trkpt lat="43.14925" lon="3.08937">
        <ele>180</ele>
        <time>2025-12-29T12:47:32.875Z</time>
      </trkpt>
      <trkpt lat="43.14925" lon="3.08936">
        <ele>180</ele>
        <time>2025-12-29T12:47:33.875Z</time>
      </trkpt>
      <trkpt lat="43.14926" lon="3.08934">
        <ele>180</ele>
        <time>2025-12-29T12:47:34.875Z</time>
      </trkpt>
      <trkpt lat="43.14926" lon="3.08933">
        <ele>180</ele>
        <time>2025-12-29T12:47:35.875Z</time>
      </trkpt>
      <trkpt lat="43.14927" lon="3.08931">
        <ele>180</ele>
        <time>2025-12-29T12:47:36.875Z</time>
      </trkpt>
      <trkpt lat="43.14927" lon="3.08929">
        <ele>180</ele>
        <time>2025-12-29T12:47:37.875Z</time>
      </trkpt>
      <trkpt lat="43.14927" lon="3.08927">
        <ele>180</ele>
        <time>2025-12-29T12:47:38.875Z</time>
      </trkpt>
      <trkpt lat="43.14928" lon="3.08926">
        <ele>179</ele>
        <time>2025-12-29T12:47:39.875Z</time>
      </trkpt>
      <trkpt lat="43.14928" lon="3.08924">
        <ele>179</ele>
        <time>2025-12-29T12:47:40.875Z</time>
      </trkpt>
      <trkpt lat="43.14929" lon="3.08922">
        <ele>179</ele>
        <time>2025-12-29T12:47:41.875Z</time>
      </trkpt>
      <trkpt lat="43.1493" lon="3.08921">
        <ele>179</ele>
        <time>2025-12-29T12:47:42.875Z</time>
      </trkpt>
      <trkpt lat="43.1493" lon="3.08919">
        <ele>180</ele>
        <time>2025-12-29T12:47:43.875Z</time>
      </trkpt>
      <trkpt lat="43.1493" lon="3.08917">
        <ele>180</ele>
        <time>2025-12-29T12:47:44.875Z</time>
      </trkpt>
      <trkpt lat="43.1493" lon="3.08916">
        <ele>179</ele>
        <time>2025-12-29T12:47:45.875Z</time>
      </trkpt>
      <trkpt lat="43.1493" lon="3.08914">
        <ele>179</ele>
        <time>2025-12-29T12:47:46.875Z</time>
      </trkpt>
      <trkpt lat="43.1493" lon="3.08912">
        <ele>179</ele>
        <time>2025-12-29T12:47:47.875Z</time>
      </trkpt>
      <trkpt lat="43.1493" lon="3.08911">
        <ele>178</ele>
        <time>2025-12-29T12:47:48.875Z</time>
      </trkpt>
      <trkpt lat="43.1493" lon="3.0891">
        <ele>178</ele>
        <time>2025-12-29T12:47:49.875Z</time>
      </trkpt>
      <trkpt lat="43.1493" lon="3.08909">
        <ele>178</ele>
        <time>2025-12-29T12:47:50.875Z</time>
      </trkpt>
      <trkpt lat="43.1493" lon="3.08907">
        <ele>177</ele>
        <time>2025-12-29T12:47:51.875Z</time>
      </trkpt>
      <trkpt lat="43.14931" lon="3.08906">
        <ele>177</ele>
        <time>2025-12-29T12:47:52.875Z</time>
      </trkpt>
      <trkpt lat="43.14931" lon="3.08904">
        <ele>177</ele>
        <time>2025-12-29T12:47:53.875Z</time>
      </trkpt>
      <trkpt lat="43.14931" lon="3.08903">
        <ele>177</ele>
        <time>2025-12-29T12:47:54.875Z</time>
      </trkpt>
      <trkpt lat="43.14931" lon="3.08901">
        <ele>177</ele>
        <time>2025-12-29T12:47:55.875Z</time>
      </trkpt>
      <trkpt lat="43.14931" lon="3.089">
        <ele>176</ele>
        <time>2025-12-29T12:47:56.875Z</time>
      </trkpt>
      <trkpt lat="43.14931" lon="3.08898">
        <ele>176</ele>
        <time>2025-12-29T12:47:57.875Z</time>
      </trkpt>
      <trkpt lat="43.14931" lon="3.08897">
        <ele>176</ele>
        <time>2025-12-29T12:47:58.875Z</time>
      </trkpt>
      <trkpt lat="43.14931" lon="3.08895">
        <ele>175</ele>
        <time>2025-12-29T12:47:59.875Z</time>
      </trkpt>
      <trkpt lat="43.14931" lon="3.08894">
        <ele>175</ele>
        <time>2025-12-29T12:48:00.875Z</time>
      </trkpt>
      <trkpt lat="43.14932" lon="3.08892">
        <ele>174</ele>
        <time>2025-12-29T12:48:01.875Z</time>
      </trkpt>
      <trkpt lat="43.14933" lon="3.08891">
        <ele>174</ele>
        <time>2025-12-29T12:48:02.875Z</time>
      </trkpt>
      <trkpt lat="43.14934" lon="3.08889">
        <ele>173</ele>
        <time>2025-12-29T12:48:03.875Z</time>
      </trkpt>
      <trkpt lat="43.14935" lon="3.08887">
        <ele>173</ele>
        <time>2025-12-29T12:48:04.875Z</time>
      </trkpt>
      <trkpt lat="43.14936" lon="3.08885">
        <ele>172</ele>
        <time>2025-12-29T12:48:05.875Z</time>
      </trkpt>
      <trkpt lat="43.14937" lon="3.08883">
        <ele>171</ele>
        <time>2025-12-29T12:48:06.875Z</time>
      </trkpt>
      <trkpt lat="43.14937" lon="3.08881">
        <ele>171</ele>
        <time>2025-12-29T12:48:07.875Z</time>
      </trkpt>
      <trkpt lat="43.14938" lon="3.0888">
        <ele>170</ele>
        <time>2025-12-29T12:48:08.875Z</time>
      </trkpt>
      <trkpt lat="43.14939" lon="3.08878">
        <ele>169</ele>
        <time>2025-12-29T12:48:09.875Z</time>
      </trkpt>
      <trkpt lat="43.14939" lon="3.08876">
        <ele>169</ele>
        <time>2025-12-29T12:48:10.875Z</time>
      </trkpt>
      <trkpt lat="43.14939" lon="3.08875">
        <ele>169</ele>
        <time>2025-12-29T12:48:11.875Z</time>
      </trkpt>
      <trkpt lat="43.1494" lon="3.08873">
        <ele>168</ele>
        <time>2025-12-29T12:48:12.875Z</time>
      </trkpt>
      <trkpt lat="43.14941" lon="3.08871">
        <ele>168</ele>
        <time>2025-12-29T12:48:13.875Z</time>
      </trkpt>
      <trkpt lat="43.14941" lon="3.08869">
        <ele>168</ele>
        <time>2025-12-29T12:48:14.875Z</time>
      </trkpt>
      <trkpt lat="43.14942" lon="3.08868">
        <ele>168</ele>
        <time>2025-12-29T12:48:15.875Z</time>
      </trkpt>
      <trkpt lat="43.14942" lon="3.08867">
        <ele>168</ele>
        <time>2025-12-29T12:48:16.875Z</time>
      </trkpt>
      <trkpt lat="43.14942" lon="3.08866">
        <ele>168</ele>
        <time>2025-12-29T12:48:17.875Z</time>
      </trkpt>
      <trkpt lat="43.14943" lon="3.08865">
        <ele>168</ele>
        <time>2025-12-29T12:48:18.875Z</time>
      </trkpt>
      <trkpt lat="43.14943" lon="3.08864">
        <ele>168</ele>
        <time>2025-12-29T12:48:19.875Z</time>
      </trkpt>
      <trkpt lat="43.14944" lon="3.08862">
        <ele>168</ele>
        <time>2025-12-29T12:48:20.875Z</time>
      </trkpt>
      <trkpt lat="43.14945" lon="3.0886">
        <ele>168</ele>
        <time>2025-12-29T12:48:21.875Z</time>
      </trkpt>
      <trkpt lat="43.14945" lon="3.08858">
        <ele>168</ele>
        <time>2025-12-29T12:48:22.875Z</time>
      </trkpt>
      <trkpt lat="43.14945" lon="3.08857">
        <ele>168</ele>
        <time>2025-12-29T12:48:23.875Z</time>
      </trkpt>
      <trkpt lat="43.14945" lon="3.08855">
        <ele>168</ele>
        <time>2025-12-29T12:48:24.875Z</time>
      </trkpt>
      <trkpt lat="43.14945" lon="3.08853">
        <ele>168</ele>
        <time>2025-12-29T12:48:25.875Z</time>
      </trkpt>
      <trkpt lat="43.14946" lon="3.08851">
        <ele>168</ele>
        <time>2025-12-29T12:48:26.875Z</time>
      </trkpt>
      <trkpt lat="43.14946" lon="3.08849">
        <ele>168</ele>
        <time>2025-12-29T12:48:27.875Z</time>
      </trkpt>
      <trkpt lat="43.14947" lon="3.08847">
        <ele>168</ele>
        <time>2025-12-29T12:48:28.875Z</time>
      </trkpt>
      <trkpt lat="43.14947" lon="3.08845">
        <ele>168</ele>
        <time>2025-12-29T12:48:29.875Z</time>
      </trkpt>
      <trkpt lat="43.14948" lon="3.08842">
        <ele>168</ele>
        <time>2025-12-29T12:48:30.875Z</time>
      </trkpt>
      <trkpt lat="43.14948" lon="3.0884">
        <ele>168</ele>
        <time>2025-12-29T12:48:31.875Z</time>
      </trkpt>
      <trkpt lat="43.14948" lon="3.08838">
        <ele>168</ele>
        <time>2025-12-29T12:48:32.875Z</time>
      </trkpt>
      <trkpt lat="43.14948" lon="3.08836">
        <ele>168</ele>
        <time>2025-12-29T12:48:33.875Z</time>
      </trkpt>
      <trkpt lat="43.14948" lon="3.08834">
        <ele>168</ele>
        <time>2025-12-29T12:48:34.875Z</time>
      </trkpt>
      <trkpt lat="43.14949" lon="3.08832">
        <ele>168</ele>
        <time>2025-12-29T12:48:35.875Z</time>
      </trkpt>
      <trkpt lat="43.1495" lon="3.0883">
        <ele>168</ele>
        <time>2025-12-29T12:48:36.875Z</time>
      </trkpt>
      <trkpt lat="43.1495" lon="3.08828">
        <ele>167</ele>
        <time>2025-12-29T12:48:37.875Z</time>
      </trkpt>
      <trkpt lat="43.1495" lon="3.08826">
        <ele>167</ele>
        <time>2025-12-29T12:48:38.875Z</time>
      </trkpt>
      <trkpt lat="43.14951" lon="3.08824">
        <ele>167</ele>
        <time>2025-12-29T12:48:39.875Z</time>
      </trkpt>
      <trkpt lat="43.14951" lon="3.08822">
        <ele>167</ele>
        <time>2025-12-29T12:48:40.875Z</time>
      </trkpt>
      <trkpt lat="43.14951" lon="3.0882">
        <ele>167</ele>
        <time>2025-12-29T12:48:41.875Z</time>
      </trkpt>
      <trkpt lat="43.14951" lon="3.08818">
        <ele>167</ele>
        <time>2025-12-29T12:48:42.875Z</time>
      </trkpt>
      <trkpt lat="43.14951" lon="3.08816">
        <ele>167</ele>
        <time>2025-12-29T12:48:43.875Z</time>
      </trkpt>
      <trkpt lat="43.14952" lon="3.08815">
        <ele>167</ele>
        <time>2025-12-29T12:48:44.875Z</time>
      </trkpt>
      <trkpt lat="43.14953" lon="3.08813">
        <ele>167</ele>
        <time>2025-12-29T12:48:45.875Z</time>
      </trkpt>
      <trkpt lat="43.14953" lon="3.08811">
        <ele>167</ele>
        <time>2025-12-29T12:48:46.875Z</time>
      </trkpt>
      <trkpt lat="43.14954" lon="3.0881">
        <ele>167</ele>
        <time>2025-12-29T12:48:47.875Z</time>
      </trkpt>
      <trkpt lat="43.14954" lon="3.08808">
        <ele>167</ele>
        <time>2025-12-29T12:48:48.875Z</time>
      </trkpt>
      <trkpt lat="43.14954" lon="3.08806">
        <ele>167</ele>
        <time>2025-12-29T12:48:49.875Z</time>
      </trkpt>
      <trkpt lat="43.14953" lon="3.08804">
        <ele>167</ele>
        <time>2025-12-29T12:48:50.875Z</time>
      </trkpt>
      <trkpt lat="43.14953" lon="3.08802">
        <ele>167</ele>
        <time>2025-12-29T12:48:51.875Z</time>
      </trkpt>
      <trkpt lat="43.14953" lon="3.088">
        <ele>167</ele>
        <time>2025-12-29T12:48:52.875Z</time>
      </trkpt>
      <trkpt lat="43.14953" lon="3.08799">
        <ele>166</ele>
        <time>2025-12-29T12:48:53.875Z</time>
      </trkpt>
      <trkpt lat="43.14954" lon="3.08797">
        <ele>166</ele>
        <time>2025-12-29T12:48:54.875Z</time>
      </trkpt>
      <trkpt lat="43.14955" lon="3.08796">
        <ele>166</ele>
        <time>2025-12-29T12:48:55.875Z</time>
      </trkpt>
      <trkpt lat="43.14956" lon="3.08795">
        <ele>166</ele>
        <time>2025-12-29T12:48:56.875Z</time>
      </trkpt>
      <trkpt lat="43.14957" lon="3.08793">
        <ele>166</ele>
        <time>2025-12-29T12:48:57.875Z</time>
      </trkpt>
      <trkpt lat="43.14958" lon="3.08792">
        <ele>166</ele>
        <time>2025-12-29T12:48:58.875Z</time>
      </trkpt>
      <trkpt lat="43.14959" lon="3.08791">
        <ele>166</ele>
        <time>2025-12-29T12:48:59.875Z</time>
      </trkpt>
      <trkpt lat="43.1496" lon="3.08789">
        <ele>166</ele>
        <time>2025-12-29T12:49:00.875Z</time>
      </trkpt>
      <trkpt lat="43.14961" lon="3.08787">
        <ele>166</ele>
        <time>2025-12-29T12:49:01.875Z</time>
      </trkpt>
      <trkpt lat="43.14961" lon="3.08785">
        <ele>165</ele>
        <time>2025-12-29T12:49:02.875Z</time>
      </trkpt>
      <trkpt lat="43.14962" lon="3.08783">
        <ele>165</ele>
        <time>2025-12-29T12:49:03.875Z</time>
      </trkpt>
      <trkpt lat="43.14963" lon="3.08781">
        <ele>165</ele>
        <time>2025-12-29T12:49:04.875Z</time>
      </trkpt>
      <trkpt lat="43.14963" lon="3.08779">
        <ele>165</ele>
        <time>2025-12-29T12:49:05.875Z</time>
      </trkpt>
      <trkpt lat="43.14964" lon="3.08777">
        <ele>165</ele>
        <time>2025-12-29T12:49:06.875Z</time>
      </trkpt>
      <trkpt lat="43.14964" lon="3.08775">
        <ele>164</ele>
        <time>2025-12-29T12:49:07.875Z</time>
      </trkpt>
      <trkpt lat="43.14964" lon="3.08773">
        <ele>164</ele>
        <time>2025-12-29T12:49:08.875Z</time>
      </trkpt>
      <trkpt lat="43.14964" lon="3.08771">
        <ele>163</ele>
        <time>2025-12-29T12:49:09.875Z</time>
      </trkpt>
      <trkpt lat="43.14964" lon="3.08769">
        <ele>163</ele>
        <time>2025-12-29T12:49:10.875Z</time>
      </trkpt>
      <trkpt lat="43.14964" lon="3.08767">
        <ele>163</ele>
        <time>2025-12-29T12:49:11.875Z</time>
      </trkpt>
      <trkpt lat="43.14964" lon="3.08766">
        <ele>163</ele>
        <time>2025-12-29T12:49:12.875Z</time>
      </trkpt>
      <trkpt lat="43.14965" lon="3.08764">
        <ele>163</ele>
        <time>2025-12-29T12:49:13.875Z</time>
      </trkpt>
      <trkpt lat="43.14966" lon="3.08762">
        <ele>164</ele>
        <time>2025-12-29T12:49:14.875Z</time>
      </trkpt>
      <trkpt lat="43.14966" lon="3.0876">
        <ele>164</ele>
        <time>2025-12-29T12:49:15.875Z</time>
      </trkpt>
      <trkpt lat="43.14966" lon="3.08759">
        <ele>164</ele>
        <time>2025-12-29T12:49:16.875Z</time>
      </trkpt>
      <trkpt lat="43.14966" lon="3.08757">
        <ele>164</ele>
        <time>2025-12-29T12:49:17.875Z</time>
      </trkpt>
      <trkpt lat="43.14966" lon="3.08755">
        <ele>164</ele>
        <time>2025-12-29T12:49:18.875Z</time>
      </trkpt>
      <trkpt lat="43.14966" lon="3.08754">
        <ele>164</ele>
        <time>2025-12-29T12:49:19.875Z</time>
      </trkpt>
      <trkpt lat="43.14966" lon="3.08752">
        <ele>164</ele>
        <time>2025-12-29T12:49:20.875Z</time>
      </trkpt>
      <trkpt lat="43.14966" lon="3.08751">
        <ele>164</ele>
        <time>2025-12-29T12:49:21.875Z</time>
      </trkpt>
      <trkpt lat="43.14966" lon="3.0875">
        <ele>164</ele>
        <time>2025-12-29T12:49:22.875Z</time>
      </trkpt>
      <trkpt lat="43.14966" lon="3.08748">
        <ele>164</ele>
        <time>2025-12-29T12:49:23.875Z</time>
      </trkpt>
      <trkpt lat="43.14966" lon="3.08746">
        <ele>164</ele>
        <time>2025-12-29T12:49:24.875Z</time>
      </trkpt>
      <trkpt lat="43.14966" lon="3.08744">
        <ele>164</ele>
        <time>2025-12-29T12:49:25.875Z</time>
      </trkpt>
      <trkpt lat="43.14968" lon="3.08742">
        <ele>165</ele>
        <time>2025-12-29T12:49:26.875Z</time>
      </trkpt>
      <trkpt lat="43.14969" lon="3.0874">
        <ele>165</ele>
        <time>2025-12-29T12:49:27.875Z</time>
      </trkpt>
      <trkpt lat="43.1497" lon="3.08738">
        <ele>165</ele>
        <time>2025-12-29T12:49:28.875Z</time>
      </trkpt>
      <trkpt lat="43.1497" lon="3.08736">
        <ele>165</ele>
        <time>2025-12-29T12:49:29.875Z</time>
      </trkpt>
      <trkpt lat="43.14971" lon="3.08734">
        <ele>165</ele>
        <time>2025-12-29T12:49:30.875Z</time>
      </trkpt>
      <trkpt lat="43.14972" lon="3.08732">
        <ele>165</ele>
        <time>2025-12-29T12:49:31.875Z</time>
      </trkpt>
      <trkpt lat="43.14972" lon="3.0873">
        <ele>165</ele>
        <time>2025-12-29T12:49:32.875Z</time>
      </trkpt>
      <trkpt lat="43.14973" lon="3.08728">
        <ele>165</ele>
        <time>2025-12-29T12:49:33.875Z</time>
      </trkpt>
      <trkpt lat="43.14974" lon="3.08725">
        <ele>165</ele>
        <time>2025-12-29T12:49:34.875Z</time>
      </trkpt>
      <trkpt lat="43.14975" lon="3.08722">
        <ele>165</ele>
        <time>2025-12-29T12:49:35.875Z</time>
      </trkpt>
      <trkpt lat="43.14976" lon="3.0872">
        <ele>165</ele>
        <time>2025-12-29T12:49:36.875Z</time>
      </trkpt>
      <trkpt lat="43.14977" lon="3.08717">
        <ele>165</ele>
        <time>2025-12-29T12:49:37.875Z</time>
      </trkpt>
      <trkpt lat="43.14977" lon="3.08715">
        <ele>166</ele>
        <time>2025-12-29T12:49:38.875Z</time>
      </trkpt>
      <trkpt lat="43.14977" lon="3.08713">
        <ele>166</ele>
        <time>2025-12-29T12:49:39.875Z</time>
      </trkpt>
      <trkpt lat="43.14977" lon="3.08711">
        <ele>166</ele>
        <time>2025-12-29T12:49:40.875Z</time>
      </trkpt>
      <trkpt lat="43.14977" lon="3.0871">
        <ele>166</ele>
        <time>2025-12-29T12:49:41.875Z</time>
      </trkpt>
      <trkpt lat="43.14977" lon="3.08708">
        <ele>166</ele>
        <time>2025-12-29T12:49:42.875Z</time>
      </trkpt>
      <trkpt lat="43.14978" lon="3.08707">
        <ele>167</ele>
        <time>2025-12-29T12:49:43.875Z</time>
      </trkpt>
      <trkpt lat="43.14978" lon="3.08705">
        <ele>167</ele>
        <time>2025-12-29T12:49:44.875Z</time>
      </trkpt>
      <trkpt lat="43.14978" lon="3.08704">
        <ele>167</ele>
        <time>2025-12-29T12:49:45.875Z</time>
      </trkpt>
      <trkpt lat="43.14979" lon="3.08702">
        <ele>167</ele>
        <time>2025-12-29T12:49:46.875Z</time>
      </trkpt>
      <trkpt lat="43.14979" lon="3.08701">
        <ele>167</ele>
        <time>2025-12-29T12:49:47.875Z</time>
      </trkpt>
      <trkpt lat="43.14979" lon="3.08699">
        <ele>168</ele>
        <time>2025-12-29T12:49:48.875Z</time>
      </trkpt>
      <trkpt lat="43.1498" lon="3.08697">
        <ele>168</ele>
        <time>2025-12-29T12:49:49.875Z</time>
      </trkpt>
      <trkpt lat="43.1498" lon="3.08696">
        <ele>168</ele>
        <time>2025-12-29T12:49:50.875Z</time>
      </trkpt>
      <trkpt lat="43.1498" lon="3.08694">
        <ele>168</ele>
        <time>2025-12-29T12:49:51.875Z</time>
      </trkpt>
      <trkpt lat="43.14981" lon="3.08693">
        <ele>168</ele>
        <time>2025-12-29T12:49:52.875Z</time>
      </trkpt>
      <trkpt lat="43.14981" lon="3.08691">
        <ele>168</ele>
        <time>2025-12-29T12:49:53.875Z</time>
      </trkpt>
      <trkpt lat="43.14981" lon="3.08689">
        <ele>168</ele>
        <time>2025-12-29T12:49:54.875Z</time>
      </trkpt>
      <trkpt lat="43.14981" lon="3.08688">
        <ele>168</ele>
        <time>2025-12-29T12:49:55.875Z</time>
      </trkpt>
      <trkpt lat="43.14982" lon="3.08686">
        <ele>168</ele>
        <time>2025-12-29T12:49:56.875Z</time>
      </trkpt>
      <trkpt lat="43.14983" lon="3.08684">
        <ele>168</ele>
        <time>2025-12-29T12:49:57.875Z</time>
      </trkpt>
      <trkpt lat="43.14983" lon="3.08683">
        <ele>168</ele>
        <time>2025-12-29T12:49:58.875Z</time>
      </trkpt>
      <trkpt lat="43.14984" lon="3.08681">
        <ele>169</ele>
        <time>2025-12-29T12:49:59.875Z</time>
      </trkpt>
      <trkpt lat="43.14984" lon="3.0868">
        <ele>169</ele>
        <time>2025-12-29T12:50:00.875Z</time>
      </trkpt>
      <trkpt lat="43.14985" lon="3.08678">
        <ele>169</ele>
        <time>2025-12-29T12:50:01.875Z</time>
      </trkpt>
      <trkpt lat="43.14985" lon="3.08677">
        <ele>169</ele>
        <time>2025-12-29T12:50:02.875Z</time>
      </trkpt>
      <trkpt lat="43.14986" lon="3.08676">
        <ele>170</ele>
        <time>2025-12-29T12:50:03.875Z</time>
      </trkpt>
      <trkpt lat="43.14987" lon="3.08674">
        <ele>170</ele>
        <time>2025-12-29T12:50:04.875Z</time>
      </trkpt>
      <trkpt lat="43.14987" lon="3.08673">
        <ele>170</ele>
        <time>2025-12-29T12:50:05.875Z</time>
      </trkpt>
      <trkpt lat="43.14987" lon="3.08671">
        <ele>170</ele>
        <time>2025-12-29T12:50:06.875Z</time>
      </trkpt>
      <trkpt lat="43.14988" lon="3.08669">
        <ele>170</ele>
        <time>2025-12-29T12:50:07.875Z</time>
      </trkpt>
      <trkpt lat="43.14988" lon="3.08668">
        <ele>170</ele>
        <time>2025-12-29T12:50:08.875Z</time>
      </trkpt>
      <trkpt lat="43.14989" lon="3.08666">
        <ele>170</ele>
        <time>2025-12-29T12:50:09.875Z</time>
      </trkpt>
      <trkpt lat="43.14989" lon="3.08665">
        <ele>170</ele>
        <time>2025-12-29T12:50:10.875Z</time>
      </trkpt>
      <trkpt lat="43.14989" lon="3.08663">
        <ele>170</ele>
        <time>2025-12-29T12:50:11.875Z</time>
      </trkpt>
      <trkpt lat="43.1499" lon="3.08661">
        <ele>170</ele>
        <time>2025-12-29T12:50:12.875Z</time>
      </trkpt>
      <trkpt lat="43.1499" lon="3.0866">
        <ele>170</ele>
        <time>2025-12-29T12:50:13.875Z</time>
      </trkpt>
      <trkpt lat="43.1499" lon="3.08658">
        <ele>170</ele>
        <time>2025-12-29T12:50:14.875Z</time>
      </trkpt>
      <trkpt lat="43.14991" lon="3.08656">
        <ele>170</ele>
        <time>2025-12-29T12:50:15.875Z</time>
      </trkpt>
      <trkpt lat="43.14991" lon="3.08654">
        <ele>171</ele>
        <time>2025-12-29T12:50:16.875Z</time>
      </trkpt>
      <trkpt lat="43.14992" lon="3.08653">
        <ele>172</ele>
        <time>2025-12-29T12:50:17.875Z</time>
      </trkpt>
      <trkpt lat="43.14992" lon="3.08651">
        <ele>172</ele>
        <time>2025-12-29T12:50:18.875Z</time>
      </trkpt>
      <trkpt lat="43.14992" lon="3.0865">
        <ele>173</ele>
        <time>2025-12-29T12:50:19.875Z</time>
      </trkpt>
      <trkpt lat="43.14993" lon="3.08648">
        <ele>173</ele>
        <time>2025-12-29T12:50:20.875Z</time>
      </trkpt>
      <trkpt lat="43.14993" lon="3.08646">
        <ele>173</ele>
        <time>2025-12-29T12:50:21.875Z</time>
      </trkpt>
      <trkpt lat="43.14994" lon="3.08645">
        <ele>173</ele>
        <time>2025-12-29T12:50:22.875Z</time>
      </trkpt>
      <trkpt lat="43.14994" lon="3.08643">
        <ele>173</ele>
        <time>2025-12-29T12:50:23.875Z</time>
      </trkpt>
      <trkpt lat="43.14995" lon="3.08641">
        <ele>173</ele>
        <time>2025-12-29T12:50:24.875Z</time>
      </trkpt>
      <trkpt lat="43.14995" lon="3.0864">
        <ele>173</ele>
        <time>2025-12-29T12:50:25.875Z</time>
      </trkpt>
      <trkpt lat="43.14996" lon="3.08638">
        <ele>173</ele>
        <time>2025-12-29T12:50:26.875Z</time>
      </trkpt>
      <trkpt lat="43.14996" lon="3.08636">
        <ele>173</ele>
        <time>2025-12-29T12:50:27.875Z</time>
      </trkpt>
      <trkpt lat="43.14997" lon="3.08635">
        <ele>174</ele>
        <time>2025-12-29T12:50:28.875Z</time>
      </trkpt>
      <trkpt lat="43.14997" lon="3.08633">
        <ele>174</ele>
        <time>2025-12-29T12:50:29.875Z</time>
      </trkpt>
      <trkpt lat="43.14998" lon="3.08632">
        <ele>174</ele>
        <time>2025-12-29T12:50:30.875Z</time>
      </trkpt>
      <trkpt lat="43.14999" lon="3.0863">
        <ele>174</ele>
        <time>2025-12-29T12:50:31.875Z</time>
      </trkpt>
      <trkpt lat="43.14999" lon="3.08628">
        <ele>174</ele>
        <time>2025-12-29T12:50:32.875Z</time>
      </trkpt>
      <trkpt lat="43.15" lon="3.08626">
        <ele>174</ele>
        <time>2025-12-29T12:50:33.875Z</time>
      </trkpt>
      <trkpt lat="43.15" lon="3.08624">
        <ele>174</ele>
        <time>2025-12-29T12:50:34.875Z</time>
      </trkpt>
      <trkpt lat="43.15001" lon="3.08623">
        <ele>174</ele>
        <time>2025-12-29T12:50:35.875Z</time>
      </trkpt>
      <trkpt lat="43.15002" lon="3.08621">
        <ele>174</ele>
        <time>2025-12-29T12:50:36.875Z</time>
      </trkpt>
      <trkpt lat="43.15002" lon="3.08619">
        <ele>174</ele>
        <time>2025-12-29T12:50:37.875Z</time>
      </trkpt>
      <trkpt lat="43.15003" lon="3.08618">
        <ele>174</ele>
        <time>2025-12-29T12:50:38.875Z</time>
      </trkpt>
      <trkpt lat="43.15003" lon="3.08616">
        <ele>175</ele>
        <time>2025-12-29T12:50:39.875Z</time>
      </trkpt>
      <trkpt lat="43.15003" lon="3.08615">
        <ele>175</ele>
        <time>2025-12-29T12:50:40.875Z</time>
      </trkpt>
      <trkpt lat="43.15003" lon="3.08613">
        <ele>176</ele>
        <time>2025-12-29T12:50:41.875Z</time>
      </trkpt>
      <trkpt lat="43.15004" lon="3.08612">
        <ele>176</ele>
        <time>2025-12-29T12:50:42.875Z</time>
      </trkpt>
      <trkpt lat="43.15004" lon="3.0861">
        <ele>176</ele>
        <time>2025-12-29T12:50:43.875Z</time>
      </trkpt>
      <trkpt lat="43.15004" lon="3.08609">
        <ele>176</ele>
        <time>2025-12-29T12:50:44.875Z</time>
      </trkpt>
      <trkpt lat="43.15005" lon="3.08608">
        <ele>176</ele>
        <time>2025-12-29T12:50:45.875Z</time>
      </trkpt>
      <trkpt lat="43.15005" lon="3.08607">
        <ele>176</ele>
        <time>2025-12-29T12:50:46.875Z</time>
      </trkpt>
      <trkpt lat="43.15005" lon="3.08605">
        <ele>176</ele>
        <time>2025-12-29T12:50:47.875Z</time>
      </trkpt>
      <trkpt lat="43.15005" lon="3.08603">
        <ele>176</ele>
        <time>2025-12-29T12:50:48.875Z</time>
      </trkpt>
      <trkpt lat="43.15005" lon="3.08601">
        <ele>176</ele>
        <time>2025-12-29T12:50:49.875Z</time>
      </trkpt>
      <trkpt lat="43.15006" lon="3.086">
        <ele>176</ele>
        <time>2025-12-29T12:50:50.875Z</time>
      </trkpt>
      <trkpt lat="43.15006" lon="3.08598">
        <ele>176</ele>
        <time>2025-12-29T12:50:51.875Z</time>
      </trkpt>
      <trkpt lat="43.15006" lon="3.08596">
        <ele>176</ele>
        <time>2025-12-29T12:50:52.875Z</time>
      </trkpt>
      <trkpt lat="43.15007" lon="3.08595">
        <ele>176</ele>
        <time>2025-12-29T12:50:53.875Z</time>
      </trkpt>
      <trkpt lat="43.15007" lon="3.08594">
        <ele>176</ele>
        <time>2025-12-29T12:50:54.875Z</time>
      </trkpt>
      <trkpt lat="43.15008" lon="3.08592">
        <ele>177</ele>
        <time>2025-12-29T12:50:55.875Z</time>
      </trkpt>
      <trkpt lat="43.15008" lon="3.08591">
        <ele>177</ele>
        <time>2025-12-29T12:50:56.875Z</time>
      </trkpt>
      <trkpt lat="43.15009" lon="3.08589">
        <ele>177</ele>
        <time>2025-12-29T12:50:57.875Z</time>
      </trkpt>
      <trkpt lat="43.1501" lon="3.08587">
        <ele>177</ele>
        <time>2025-12-29T12:50:58.875Z</time>
      </trkpt>
      <trkpt lat="43.1501" lon="3.08585">
        <ele>177</ele>
        <time>2025-12-29T12:50:59.875Z</time>
      </trkpt>
      <trkpt lat="43.15011" lon="3.08584">
        <ele>178</ele>
        <time>2025-12-29T12:51:00.875Z</time>
      </trkpt>
      <trkpt lat="43.15011" lon="3.08582">
        <ele>178</ele>
        <time>2025-12-29T12:51:01.875Z</time>
      </trkpt>
      <trkpt lat="43.15011" lon="3.08581">
        <ele>178</ele>
        <time>2025-12-29T12:51:02.875Z</time>
      </trkpt>
      <trkpt lat="43.15011" lon="3.08579">
        <ele>178</ele>
        <time>2025-12-29T12:51:03.875Z</time>
      </trkpt>
      <trkpt lat="43.15011" lon="3.08577">
        <ele>178</ele>
        <time>2025-12-29T12:51:04.875Z</time>
      </trkpt>
      <trkpt lat="43.15012" lon="3.08575">
        <ele>178</ele>
        <time>2025-12-29T12:51:05.875Z</time>
      </trkpt>
      <trkpt lat="43.15013" lon="3.08574">
        <ele>178</ele>
        <time>2025-12-29T12:51:06.875Z</time>
      </trkpt>
      <trkpt lat="43.15013" lon="3.08572">
        <ele>178</ele>
        <time>2025-12-29T12:51:07.875Z</time>
      </trkpt>
      <trkpt lat="43.15014" lon="3.08571">
        <ele>178</ele>
        <time>2025-12-29T12:51:08.875Z</time>
      </trkpt>
      <trkpt lat="43.15014" lon="3.08569">
        <ele>178</ele>
        <time>2025-12-29T12:51:09.875Z</time>
      </trkpt>
      <trkpt lat="43.15015" lon="3.08567">
        <ele>178</ele>
        <time>2025-12-29T12:51:10.875Z</time>
      </trkpt>
      <trkpt lat="43.15015" lon="3.08566">
        <ele>179</ele>
        <time>2025-12-29T12:51:11.875Z</time>
      </trkpt>
      <trkpt lat="43.15015" lon="3.08564">
        <ele>179</ele>
        <time>2025-12-29T12:51:12.875Z</time>
      </trkpt>
      <trkpt lat="43.15015" lon="3.08562">
        <ele>179</ele>
        <time>2025-12-29T12:51:13.875Z</time>
      </trkpt>
      <trkpt lat="43.15016" lon="3.08561">
        <ele>179</ele>
        <time>2025-12-29T12:51:14.875Z</time>
      </trkpt>
      <trkpt lat="43.15016" lon="3.08559">
        <ele>179</ele>
        <time>2025-12-29T12:51:15.875Z</time>
      </trkpt>
      <trkpt lat="43.15017" lon="3.08557">
        <ele>179</ele>
        <time>2025-12-29T12:51:16.875Z</time>
      </trkpt>
      <trkpt lat="43.15017" lon="3.08555">
        <ele>179</ele>
        <time>2025-12-29T12:51:17.875Z</time>
      </trkpt>
      <trkpt lat="43.15018" lon="3.08553">
        <ele>179</ele>
        <time>2025-12-29T12:51:18.875Z</time>
      </trkpt>
      <trkpt lat="43.15018" lon="3.08551">
        <ele>179</ele>
        <time>2025-12-29T12:51:19.875Z</time>
      </trkpt>
      <trkpt lat="43.15019" lon="3.08549">
        <ele>179</ele>
        <time>2025-12-29T12:51:20.875Z</time>
      </trkpt>
      <trkpt lat="43.15019" lon="3.08547">
        <ele>179</ele>
        <time>2025-12-29T12:51:21.875Z</time>
      </trkpt>
      <trkpt lat="43.15019" lon="3.08546">
        <ele>179</ele>
        <time>2025-12-29T12:51:22.875Z</time>
      </trkpt>
      <trkpt lat="43.1502" lon="3.08544">
        <ele>179</ele>
        <time>2025-12-29T12:51:23.875Z</time>
      </trkpt>
      <trkpt lat="43.1502" lon="3.08542">
        <ele>180</ele>
        <time>2025-12-29T12:51:24.875Z</time>
      </trkpt>
      <trkpt lat="43.1502" lon="3.0854">
        <ele>180</ele>
        <time>2025-12-29T12:51:25.875Z</time>
      </trkpt>
      <trkpt lat="43.15021" lon="3.08539">
        <ele>180</ele>
        <time>2025-12-29T12:51:26.875Z</time>
      </trkpt>
      <trkpt lat="43.15022" lon="3.08537">
        <ele>181</ele>
        <time>2025-12-29T12:51:27.875Z</time>
      </trkpt>
      <trkpt lat="43.15023" lon="3.08535">
        <ele>181</ele>
        <time>2025-12-29T12:51:28.875Z</time>
      </trkpt>
      <trkpt lat="43.15023" lon="3.08533">
        <ele>181</ele>
        <time>2025-12-29T12:51:29.875Z</time>
      </trkpt>
      <trkpt lat="43.15024" lon="3.08531">
        <ele>182</ele>
        <time>2025-12-29T12:51:30.875Z</time>
      </trkpt>
      <trkpt lat="43.15024" lon="3.08529">
        <ele>182</ele>
        <time>2025-12-29T12:51:31.875Z</time>
      </trkpt>
      <trkpt lat="43.15024" lon="3.08527">
        <ele>182</ele>
        <time>2025-12-29T12:51:32.875Z</time>
      </trkpt>
      <trkpt lat="43.15025" lon="3.08525">
        <ele>182</ele>
        <time>2025-12-29T12:51:33.875Z</time>
      </trkpt>
      <trkpt lat="43.15025" lon="3.08523">
        <ele>182</ele>
        <time>2025-12-29T12:51:34.875Z</time>
      </trkpt>
      <trkpt lat="43.15025" lon="3.08522">
        <ele>182</ele>
        <time>2025-12-29T12:51:35.875Z</time>
      </trkpt>
      <trkpt lat="43.15026" lon="3.0852">
        <ele>182</ele>
        <time>2025-12-29T12:51:36.875Z</time>
      </trkpt>
      <trkpt lat="43.15026" lon="3.08518">
        <ele>182</ele>
        <time>2025-12-29T12:51:37.875Z</time>
      </trkpt>
      <trkpt lat="43.15027" lon="3.08516">
        <ele>182</ele>
        <time>2025-12-29T12:51:38.875Z</time>
      </trkpt>
      <trkpt lat="43.15028" lon="3.08515">
        <ele>181</ele>
        <time>2025-12-29T12:51:39.875Z</time>
      </trkpt>
      <trkpt lat="43.15028" lon="3.08513">
        <ele>182</ele>
        <time>2025-12-29T12:51:40.875Z</time>
      </trkpt>
      <trkpt lat="43.15029" lon="3.08512">
        <ele>182</ele>
        <time>2025-12-29T12:51:41.875Z</time>
      </trkpt>
      <trkpt lat="43.15029" lon="3.0851">
        <ele>182</ele>
        <time>2025-12-29T12:51:42.875Z</time>
      </trkpt>
      <trkpt lat="43.15029" lon="3.08508">
        <ele>182</ele>
        <time>2025-12-29T12:51:43.875Z</time>
      </trkpt>
      <trkpt lat="43.1503" lon="3.08506">
        <ele>182</ele>
        <time>2025-12-29T12:51:44.875Z</time>
      </trkpt>
      <trkpt lat="43.1503" lon="3.08504">
        <ele>182</ele>
        <time>2025-12-29T12:51:45.875Z</time>
      </trkpt>
      <trkpt lat="43.1503" lon="3.08502">
        <ele>182</ele>
        <time>2025-12-29T12:51:46.875Z</time>
      </trkpt>
      <trkpt lat="43.15031" lon="3.085">
        <ele>182</ele>
        <time>2025-12-29T12:51:47.875Z</time>
      </trkpt>
      <trkpt lat="43.15031" lon="3.08498">
        <ele>183</ele>
        <time>2025-12-29T12:51:48.875Z</time>
      </trkpt>
      <trkpt lat="43.15032" lon="3.08496">
        <ele>183</ele>
        <time>2025-12-29T12:51:49.875Z</time>
      </trkpt>
      <trkpt lat="43.15032" lon="3.08495">
        <ele>183</ele>
        <time>2025-12-29T12:51:50.875Z</time>
      </trkpt>
      <trkpt lat="43.15032" lon="3.08493">
        <ele>183</ele>
        <time>2025-12-29T12:51:51.875Z</time>
      </trkpt>
      <trkpt lat="43.15033" lon="3.08491">
        <ele>184</ele>
        <time>2025-12-29T12:51:52.875Z</time>
      </trkpt>
      <trkpt lat="43.15034" lon="3.08489">
        <ele>184</ele>
        <time>2025-12-29T12:51:53.875Z</time>
      </trkpt>
      <trkpt lat="43.15034" lon="3.08488">
        <ele>184</ele>
        <time>2025-12-29T12:51:54.875Z</time>
      </trkpt>
      <trkpt lat="43.15035" lon="3.08486">
        <ele>184</ele>
        <time>2025-12-29T12:51:55.875Z</time>
      </trkpt>
      <trkpt lat="43.15035" lon="3.08484">
        <ele>184</ele>
        <time>2025-12-29T12:51:56.875Z</time>
      </trkpt>
      <trkpt lat="43.15035" lon="3.08482">
        <ele>184</ele>
        <time>2025-12-29T12:51:57.875Z</time>
      </trkpt>
      <trkpt lat="43.15035" lon="3.0848">
        <ele>184</ele>
        <time>2025-12-29T12:51:58.875Z</time>
      </trkpt>
      <trkpt lat="43.15035" lon="3.08478">
        <ele>184</ele>
        <time>2025-12-29T12:51:59.875Z</time>
      </trkpt>
      <trkpt lat="43.15035" lon="3.08476">
        <ele>184</ele>
        <time>2025-12-29T12:52:00.875Z</time>
      </trkpt>
      <trkpt lat="43.15035" lon="3.08475">
        <ele>184</ele>
        <time>2025-12-29T12:52:01.875Z</time>
      </trkpt>
      <trkpt lat="43.15035" lon="3.08473">
        <ele>184</ele>
        <time>2025-12-29T12:52:02.875Z</time>
      </trkpt>
      <trkpt lat="43.15036" lon="3.08472">
        <ele>184</ele>
        <time>2025-12-29T12:52:03.875Z</time>
      </trkpt>
      <trkpt lat="43.15037" lon="3.0847">
        <ele>184</ele>
        <time>2025-12-29T12:52:04.875Z</time>
      </trkpt>
      <trkpt lat="43.15038" lon="3.08469">
        <ele>184</ele>
        <time>2025-12-29T12:52:05.875Z</time>
      </trkpt>
      <trkpt lat="43.15039" lon="3.08467">
        <ele>184</ele>
        <time>2025-12-29T12:52:06.875Z</time>
      </trkpt>
      <trkpt lat="43.1504" lon="3.08465">
        <ele>184</ele>
        <time>2025-12-29T12:52:07.875Z</time>
      </trkpt>
      <trkpt lat="43.1504" lon="3.08463">
        <ele>184</ele>
        <time>2025-12-29T12:52:08.875Z</time>
      </trkpt>
      <trkpt lat="43.15041" lon="3.08461">
        <ele>184</ele>
        <time>2025-12-29T12:52:09.875Z</time>
      </trkpt>
      <trkpt lat="43.15042" lon="3.08459">
        <ele>184</ele>
        <time>2025-12-29T12:52:10.875Z</time>
      </trkpt>
      <trkpt lat="43.15043" lon="3.08457">
        <ele>184</ele>
        <time>2025-12-29T12:52:11.875Z</time>
      </trkpt>
      <trkpt lat="43.15043" lon="3.08455">
        <ele>184</ele>
        <time>2025-12-29T12:52:12.875Z</time>
      </trkpt>
      <trkpt lat="43.15044" lon="3.08453">
        <ele>184</ele>
        <time>2025-12-29T12:52:13.875Z</time>
      </trkpt>
      <trkpt lat="43.15044" lon="3.08451">
        <ele>184</ele>
        <time>2025-12-29T12:52:14.875Z</time>
      </trkpt>
      <trkpt lat="43.15045" lon="3.08449">
        <ele>184</ele>
        <time>2025-12-29T12:52:15.875Z</time>
      </trkpt>
      <trkpt lat="43.15046" lon="3.08447">
        <ele>184</ele>
        <time>2025-12-29T12:52:16.875Z</time>
      </trkpt>
      <trkpt lat="43.15047" lon="3.08445">
        <ele>184</ele>
        <time>2025-12-29T12:52:17.875Z</time>
      </trkpt>
      <trkpt lat="43.15047" lon="3.08443">
        <ele>184</ele>
        <time>2025-12-29T12:52:18.875Z</time>
      </trkpt>
      <trkpt lat="43.15048" lon="3.08441">
        <ele>183</ele>
        <time>2025-12-29T12:52:19.875Z</time>
      </trkpt>
      <trkpt lat="43.15049" lon="3.08439">
        <ele>183</ele>
        <time>2025-12-29T12:52:20.875Z</time>
      </trkpt>
      <trkpt lat="43.15049" lon="3.08437">
        <ele>183</ele>
        <time>2025-12-29T12:52:21.875Z</time>
      </trkpt>
      <trkpt lat="43.15049" lon="3.08435">
        <ele>183</ele>
        <time>2025-12-29T12:52:22.875Z</time>
      </trkpt>
      <trkpt lat="43.15049" lon="3.08433">
        <ele>183</ele>
        <time>2025-12-29T12:52:23.875Z</time>
      </trkpt>
      <trkpt lat="43.1505" lon="3.08431">
        <ele>183</ele>
        <time>2025-12-29T12:52:24.875Z</time>
      </trkpt>
      <trkpt lat="43.1505" lon="3.08429">
        <ele>183</ele>
        <time>2025-12-29T12:52:25.875Z</time>
      </trkpt>
      <trkpt lat="43.15051" lon="3.08427">
        <ele>183</ele>
        <time>2025-12-29T12:52:26.875Z</time>
      </trkpt>
      <trkpt lat="43.15051" lon="3.08425">
        <ele>183</ele>
        <time>2025-12-29T12:52:27.875Z</time>
      </trkpt>
      <trkpt lat="43.15052" lon="3.08424">
        <ele>184</ele>
        <time>2025-12-29T12:52:28.875Z</time>
      </trkpt>
      <trkpt lat="43.15053" lon="3.08422">
        <ele>184</ele>
        <time>2025-12-29T12:52:29.875Z</time>
      </trkpt>
      <trkpt lat="43.15054" lon="3.0842">
        <ele>184</ele>
        <time>2025-12-29T12:52:30.875Z</time>
      </trkpt>
      <trkpt lat="43.15055" lon="3.08418">
        <ele>184</ele>
        <time>2025-12-29T12:52:31.875Z</time>
      </trkpt>
      <trkpt lat="43.15057" lon="3.08416">
        <ele>184</ele>
        <time>2025-12-29T12:52:32.875Z</time>
      </trkpt>
      <trkpt lat="43.15058" lon="3.08414">
        <ele>184</ele>
        <time>2025-12-29T12:52:33.875Z</time>
      </trkpt>
      <trkpt lat="43.15058" lon="3.08412">
        <ele>184</ele>
        <time>2025-12-29T12:52:34.875Z</time>
      </trkpt>
      <trkpt lat="43.15059" lon="3.0841">
        <ele>184</ele>
        <time>2025-12-29T12:52:35.875Z</time>
      </trkpt>
      <trkpt lat="43.1506" lon="3.08408">
        <ele>184</ele>
        <time>2025-12-29T12:52:36.875Z</time>
      </trkpt>
      <trkpt lat="43.15061" lon="3.08406">
        <ele>184</ele>
        <time>2025-12-29T12:52:37.875Z</time>
      </trkpt>
      <trkpt lat="43.15062" lon="3.08404">
        <ele>184</ele>
        <time>2025-12-29T12:52:38.875Z</time>
      </trkpt>
      <trkpt lat="43.15062" lon="3.08403">
        <ele>184</ele>
        <time>2025-12-29T12:52:39.875Z</time>
      </trkpt>
      <trkpt lat="43.15062" lon="3.08401">
        <ele>184</ele>
        <time>2025-12-29T12:52:40.875Z</time>
      </trkpt>
      <trkpt lat="43.15063" lon="3.08399">
        <ele>184</ele>
        <time>2025-12-29T12:52:41.875Z</time>
      </trkpt>
      <trkpt lat="43.15063" lon="3.08397">
        <ele>184</ele>
        <time>2025-12-29T12:52:42.875Z</time>
      </trkpt>
      <trkpt lat="43.15064" lon="3.08395">
        <ele>184</ele>
        <time>2025-12-29T12:52:43.875Z</time>
      </trkpt>
      <trkpt lat="43.15065" lon="3.08393">
        <ele>184</ele>
        <time>2025-12-29T12:52:44.875Z</time>
      </trkpt>
      <trkpt lat="43.15066" lon="3.08391">
        <ele>185</ele>
        <time>2025-12-29T12:52:45.875Z</time>
      </trkpt>
      <trkpt lat="43.15066" lon="3.08389">
        <ele>185</ele>
        <time>2025-12-29T12:52:46.875Z</time>
      </trkpt>
      <trkpt lat="43.15067" lon="3.08387">
        <ele>185</ele>
        <time>2025-12-29T12:52:47.875Z</time>
      </trkpt>
      <trkpt lat="43.15067" lon="3.08385">
        <ele>185</ele>
        <time>2025-12-29T12:52:48.875Z</time>
      </trkpt>
      <trkpt lat="43.15068" lon="3.08382">
        <ele>185</ele>
        <time>2025-12-29T12:52:49.875Z</time>
      </trkpt>
      <trkpt lat="43.15069" lon="3.0838">
        <ele>185</ele>
        <time>2025-12-29T12:52:50.875Z</time>
      </trkpt>
      <trkpt lat="43.15069" lon="3.08379">
        <ele>185</ele>
        <time>2025-12-29T12:52:51.875Z</time>
      </trkpt>
      <trkpt lat="43.1507" lon="3.08377">
        <ele>185</ele>
        <time>2025-12-29T12:52:52.875Z</time>
      </trkpt>
      <trkpt lat="43.15071" lon="3.08375">
        <ele>185</ele>
        <time>2025-12-29T12:52:53.875Z</time>
      </trkpt>
      <trkpt lat="43.15071" lon="3.08373">
        <ele>185</ele>
        <time>2025-12-29T12:52:54.875Z</time>
      </trkpt>
      <trkpt lat="43.15071" lon="3.08371">
        <ele>185</ele>
        <time>2025-12-29T12:52:55.875Z</time>
      </trkpt>
      <trkpt lat="43.15071" lon="3.0837">
        <ele>184</ele>
        <time>2025-12-29T12:52:56.875Z</time>
      </trkpt>
      <trkpt lat="43.15071" lon="3.08368">
        <ele>184</ele>
        <time>2025-12-29T12:52:57.875Z</time>
      </trkpt>
      <trkpt lat="43.15072" lon="3.08366">
        <ele>184</ele>
        <time>2025-12-29T12:52:58.875Z</time>
      </trkpt>
      <trkpt lat="43.15072" lon="3.08364">
        <ele>184</ele>
        <time>2025-12-29T12:52:59.875Z</time>
      </trkpt>
      <trkpt lat="43.15072" lon="3.08362">
        <ele>184</ele>
        <time>2025-12-29T12:53:00.875Z</time>
      </trkpt>
      <trkpt lat="43.15072" lon="3.0836">
        <ele>184</ele>
        <time>2025-12-29T12:53:01.875Z</time>
      </trkpt>
      <trkpt lat="43.15072" lon="3.08359">
        <ele>184</ele>
        <time>2025-12-29T12:53:02.875Z</time>
      </trkpt>
      <trkpt lat="43.15072" lon="3.08357">
        <ele>184</ele>
        <time>2025-12-29T12:53:03.875Z</time>
      </trkpt>
      <trkpt lat="43.15072" lon="3.08355">
        <ele>184</ele>
        <time>2025-12-29T12:53:04.875Z</time>
      </trkpt>
      <trkpt lat="43.15073" lon="3.08353">
        <ele>185</ele>
        <time>2025-12-29T12:53:05.875Z</time>
      </trkpt>
      <trkpt lat="43.15074" lon="3.08351">
        <ele>185</ele>
        <time>2025-12-29T12:53:06.875Z</time>
      </trkpt>
      <trkpt lat="43.15074" lon="3.08349">
        <ele>185</ele>
        <time>2025-12-29T12:53:07.875Z</time>
      </trkpt>
      <trkpt lat="43.15076" lon="3.08347">
        <ele>185</ele>
        <time>2025-12-29T12:53:08.875Z</time>
      </trkpt>
      <trkpt lat="43.15076" lon="3.08345">
        <ele>185</ele>
        <time>2025-12-29T12:53:09.875Z</time>
      </trkpt>
      <trkpt lat="43.15077" lon="3.08342">
        <ele>185</ele>
        <time>2025-12-29T12:53:10.875Z</time>
      </trkpt>
      <trkpt lat="43.15078" lon="3.08341">
        <ele>185</ele>
        <time>2025-12-29T12:53:11.875Z</time>
      </trkpt>
      <trkpt lat="43.15078" lon="3.08339">
        <ele>185</ele>
        <time>2025-12-29T12:53:12.875Z</time>
      </trkpt>
      <trkpt lat="43.15079" lon="3.08338">
        <ele>185</ele>
        <time>2025-12-29T12:53:13.875Z</time>
      </trkpt>
      <trkpt lat="43.1508" lon="3.08337">
        <ele>185</ele>
        <time>2025-12-29T12:53:14.875Z</time>
      </trkpt>
      <trkpt lat="43.1508" lon="3.08335">
        <ele>185</ele>
        <time>2025-12-29T12:53:15.875Z</time>
      </trkpt>
      <trkpt lat="43.1508" lon="3.08333">
        <ele>185</ele>
        <time>2025-12-29T12:53:16.875Z</time>
      </trkpt>
      <trkpt lat="43.15081" lon="3.08332">
        <ele>185</ele>
        <time>2025-12-29T12:53:17.875Z</time>
      </trkpt>
      <trkpt lat="43.15082" lon="3.0833">
        <ele>185</ele>
        <time>2025-12-29T12:53:18.875Z</time>
      </trkpt>
      <trkpt lat="43.15083" lon="3.08328">
        <ele>185</ele>
        <time>2025-12-29T12:53:19.875Z</time>
      </trkpt>
      <trkpt lat="43.15084" lon="3.08326">
        <ele>185</ele>
        <time>2025-12-29T12:53:20.875Z</time>
      </trkpt>
      <trkpt lat="43.15085" lon="3.08324">
        <ele>185</ele>
        <time>2025-12-29T12:53:21.875Z</time>
      </trkpt>
      <trkpt lat="43.15086" lon="3.08322">
        <ele>185</ele>
        <time>2025-12-29T12:53:22.875Z</time>
      </trkpt>
      <trkpt lat="43.15087" lon="3.0832">
        <ele>185</ele>
        <time>2025-12-29T12:53:23.875Z</time>
      </trkpt>
      <trkpt lat="43.15088" lon="3.08319">
        <ele>185</ele>
        <time>2025-12-29T12:53:24.875Z</time>
      </trkpt>
      <trkpt lat="43.15089" lon="3.08317">
        <ele>186</ele>
        <time>2025-12-29T12:53:25.875Z</time>
      </trkpt>
      <trkpt lat="43.15089" lon="3.08315">
        <ele>185</ele>
        <time>2025-12-29T12:53:26.875Z</time>
      </trkpt>
      <trkpt lat="43.1509" lon="3.08314">
        <ele>185</ele>
        <time>2025-12-29T12:53:27.875Z</time>
      </trkpt>
      <trkpt lat="43.1509" lon="3.08312">
        <ele>185</ele>
        <time>2025-12-29T12:53:28.875Z</time>
      </trkpt>
      <trkpt lat="43.15091" lon="3.08311">
        <ele>185</ele>
        <time>2025-12-29T12:53:29.875Z</time>
      </trkpt>
      <trkpt lat="43.15091" lon="3.08309">
        <ele>185</ele>
        <time>2025-12-29T12:53:30.875Z</time>
      </trkpt>
      <trkpt lat="43.15092" lon="3.08308">
        <ele>185</ele>
        <time>2025-12-29T12:53:31.875Z</time>
      </trkpt>
      <trkpt lat="43.15092" lon="3.08306">
        <ele>185</ele>
        <time>2025-12-29T12:53:32.875Z</time>
      </trkpt>
      <trkpt lat="43.15093" lon="3.08304">
        <ele>185</ele>
        <time>2025-12-29T12:53:33.875Z</time>
      </trkpt>
      <trkpt lat="43.15094" lon="3.08303">
        <ele>185</ele>
        <time>2025-12-29T12:53:34.875Z</time>
      </trkpt>
      <trkpt lat="43.15094" lon="3.08301">
        <ele>185</ele>
        <time>2025-12-29T12:53:35.875Z</time>
      </trkpt>
      <trkpt lat="43.15095" lon="3.08299">
        <ele>185</ele>
        <time>2025-12-29T12:53:36.875Z</time>
      </trkpt>
      <trkpt lat="43.15096" lon="3.08297">
        <ele>185</ele>
        <time>2025-12-29T12:53:37.875Z</time>
      </trkpt>
      <trkpt lat="43.15097" lon="3.08295">
        <ele>185</ele>
        <time>2025-12-29T12:53:38.875Z</time>
      </trkpt>
      <trkpt lat="43.15098" lon="3.08294">
        <ele>185</ele>
        <time>2025-12-29T12:53:39.875Z</time>
      </trkpt>
      <trkpt lat="43.15099" lon="3.08292">
        <ele>186</ele>
        <time>2025-12-29T12:53:40.875Z</time>
      </trkpt>
      <trkpt lat="43.151" lon="3.0829">
        <ele>186</ele>
        <time>2025-12-29T12:53:41.875Z</time>
      </trkpt>
      <trkpt lat="43.15101" lon="3.08288">
        <ele>186</ele>
        <time>2025-12-29T12:53:42.875Z</time>
      </trkpt>
      <trkpt lat="43.15101" lon="3.08286">
        <ele>186</ele>
        <time>2025-12-29T12:53:43.875Z</time>
      </trkpt>
      <trkpt lat="43.15102" lon="3.08284">
        <ele>186</ele>
        <time>2025-12-29T12:53:44.875Z</time>
      </trkpt>
      <trkpt lat="43.15103" lon="3.08283">
        <ele>187</ele>
        <time>2025-12-29T12:53:45.875Z</time>
      </trkpt>
      <trkpt lat="43.15103" lon="3.08281">
        <ele>187</ele>
        <time>2025-12-29T12:53:46.875Z</time>
      </trkpt>
      <trkpt lat="43.15104" lon="3.0828">
        <ele>187</ele>
        <time>2025-12-29T12:53:47.875Z</time>
      </trkpt>
      <trkpt lat="43.15105" lon="3.08278">
        <ele>187</ele>
        <time>2025-12-29T12:53:48.875Z</time>
      </trkpt>
      <trkpt lat="43.15106" lon="3.08277">
        <ele>187</ele>
        <time>2025-12-29T12:53:49.875Z</time>
      </trkpt>
      <trkpt lat="43.15107" lon="3.08274">
        <ele>187</ele>
        <time>2025-12-29T12:53:50.875Z</time>
      </trkpt>
      <trkpt lat="43.15108" lon="3.08273">
        <ele>187</ele>
        <time>2025-12-29T12:53:51.875Z</time>
      </trkpt>
      <trkpt lat="43.15108" lon="3.08271">
        <ele>187</ele>
        <time>2025-12-29T12:53:52.875Z</time>
      </trkpt>
      <trkpt lat="43.15109" lon="3.08269">
        <ele>188</ele>
        <time>2025-12-29T12:53:53.875Z</time>
      </trkpt>
      <trkpt lat="43.1511" lon="3.08267">
        <ele>188</ele>
        <time>2025-12-29T12:53:54.875Z</time>
      </trkpt>
      <trkpt lat="43.1511" lon="3.08264">
        <ele>188</ele>
        <time>2025-12-29T12:53:55.875Z</time>
      </trkpt>
      <trkpt lat="43.15111" lon="3.08262">
        <ele>188</ele>
        <time>2025-12-29T12:53:56.875Z</time>
      </trkpt>
      <trkpt lat="43.15112" lon="3.0826">
        <ele>188</ele>
        <time>2025-12-29T12:53:57.875Z</time>
      </trkpt>
      <trkpt lat="43.15113" lon="3.08258">
        <ele>188</ele>
        <time>2025-12-29T12:53:58.875Z</time>
      </trkpt>
      <trkpt lat="43.15114" lon="3.08256">
        <ele>188</ele>
        <time>2025-12-29T12:53:59.875Z</time>
      </trkpt>
      <trkpt lat="43.15115" lon="3.08255">
        <ele>188</ele>
        <time>2025-12-29T12:54:00.875Z</time>
      </trkpt>
      <trkpt lat="43.15115" lon="3.08253">
        <ele>188</ele>
        <time>2025-12-29T12:54:01.875Z</time>
      </trkpt>
      <trkpt lat="43.15116" lon="3.08252">
        <ele>187</ele>
        <time>2025-12-29T12:54:02.875Z</time>
      </trkpt>
      <trkpt lat="43.15116" lon="3.08251">
        <ele>187</ele>
        <time>2025-12-29T12:54:03.875Z</time>
      </trkpt>
      <trkpt lat="43.15117" lon="3.08249">
        <ele>187</ele>
        <time>2025-12-29T12:54:04.875Z</time>
      </trkpt>
      <trkpt lat="43.15117" lon="3.08248">
        <ele>187</ele>
        <time>2025-12-29T12:54:05.875Z</time>
      </trkpt>
      <trkpt lat="43.15118" lon="3.08246">
        <ele>187</ele>
        <time>2025-12-29T12:54:06.875Z</time>
      </trkpt>
      <trkpt lat="43.15118" lon="3.08243">
        <ele>187</ele>
        <time>2025-12-29T12:54:07.875Z</time>
      </trkpt>
      <trkpt lat="43.15119" lon="3.08241">
        <ele>188</ele>
        <time>2025-12-29T12:54:08.875Z</time>
      </trkpt>
      <trkpt lat="43.1512" lon="3.08239">
        <ele>188</ele>
        <time>2025-12-29T12:54:09.875Z</time>
      </trkpt>
      <trkpt lat="43.15121" lon="3.08237">
        <ele>188</ele>
        <time>2025-12-29T12:54:10.875Z</time>
      </trkpt>
      <trkpt lat="43.15121" lon="3.08235">
        <ele>188</ele>
        <time>2025-12-29T12:54:11.875Z</time>
      </trkpt>
      <trkpt lat="43.15122" lon="3.08233">
        <ele>189</ele>
        <time>2025-12-29T12:54:12.875Z</time>
      </trkpt>
      <trkpt lat="43.15122" lon="3.08232">
        <ele>189</ele>
        <time>2025-12-29T12:54:13.875Z</time>
      </trkpt>
      <trkpt lat="43.15122" lon="3.0823">
        <ele>189</ele>
        <time>2025-12-29T12:54:14.875Z</time>
      </trkpt>
      <trkpt lat="43.15123" lon="3.08229">
        <ele>189</ele>
        <time>2025-12-29T12:54:15.875Z</time>
      </trkpt>
      <trkpt lat="43.15123" lon="3.08228">
        <ele>189</ele>
        <time>2025-12-29T12:54:16.875Z</time>
      </trkpt>
      <trkpt lat="43.15123" lon="3.08226">
        <ele>189</ele>
        <time>2025-12-29T12:54:17.875Z</time>
      </trkpt>
      <trkpt lat="43.15123" lon="3.08225">
        <ele>189</ele>
        <time>2025-12-29T12:54:18.875Z</time>
      </trkpt>
      <trkpt lat="43.15123" lon="3.08223">
        <ele>189</ele>
        <time>2025-12-29T12:54:19.875Z</time>
      </trkpt>
      <trkpt lat="43.15123" lon="3.08221">
        <ele>189</ele>
        <time>2025-12-29T12:54:20.875Z</time>
      </trkpt>
      <trkpt lat="43.15124" lon="3.0822">
        <ele>190</ele>
        <time>2025-12-29T12:54:21.875Z</time>
      </trkpt>
      <trkpt lat="43.15125" lon="3.08218">
        <ele>191</ele>
        <time>2025-12-29T12:54:22.875Z</time>
      </trkpt>
      <trkpt lat="43.15125" lon="3.08216">
        <ele>191</ele>
        <time>2025-12-29T12:54:23.875Z</time>
      </trkpt>
      <trkpt lat="43.15125" lon="3.08214">
        <ele>192</ele>
        <time>2025-12-29T12:54:24.875Z</time>
      </trkpt>
      <trkpt lat="43.15126" lon="3.08211">
        <ele>192</ele>
        <time>2025-12-29T12:54:25.875Z</time>
      </trkpt>
      <trkpt lat="43.15126" lon="3.08209">
        <ele>192</ele>
        <time>2025-12-29T12:54:26.875Z</time>
      </trkpt>
      <trkpt lat="43.15127" lon="3.08207">
        <ele>192</ele>
        <time>2025-12-29T12:54:27.875Z</time>
      </trkpt>
      <trkpt lat="43.15127" lon="3.08205">
        <ele>193</ele>
        <time>2025-12-29T12:54:28.875Z</time>
      </trkpt>
      <trkpt lat="43.15127" lon="3.08204">
        <ele>193</ele>
        <time>2025-12-29T12:54:29.875Z</time>
      </trkpt>
      <trkpt lat="43.15127" lon="3.08202">
        <ele>193</ele>
        <time>2025-12-29T12:54:30.875Z</time>
      </trkpt>
      <trkpt lat="43.15127" lon="3.082">
        <ele>193</ele>
        <time>2025-12-29T12:54:31.875Z</time>
      </trkpt>
      <trkpt lat="43.15127" lon="3.08198">
        <ele>193</ele>
        <time>2025-12-29T12:54:32.875Z</time>
      </trkpt>
      <trkpt lat="43.15128" lon="3.08197">
        <ele>192</ele>
        <time>2025-12-29T12:54:33.875Z</time>
      </trkpt>
      <trkpt lat="43.15128" lon="3.08195">
        <ele>192</ele>
        <time>2025-12-29T12:54:34.875Z</time>
      </trkpt>
      <trkpt lat="43.15128" lon="3.08193">
        <ele>192</ele>
        <time>2025-12-29T12:54:35.875Z</time>
      </trkpt>
      <trkpt lat="43.15129" lon="3.08191">
        <ele>192</ele>
        <time>2025-12-29T12:54:36.875Z</time>
      </trkpt>
      <trkpt lat="43.15128" lon="3.08189">
        <ele>192</ele>
        <time>2025-12-29T12:54:37.875Z</time>
      </trkpt>
      <trkpt lat="43.15128" lon="3.08187">
        <ele>191</ele>
        <time>2025-12-29T12:54:38.875Z</time>
      </trkpt>
      <trkpt lat="43.15128" lon="3.08185">
        <ele>191</ele>
        <time>2025-12-29T12:54:39.875Z</time>
      </trkpt>
      <trkpt lat="43.15128" lon="3.08182">
        <ele>191</ele>
        <time>2025-12-29T12:54:40.875Z</time>
      </trkpt>
      <trkpt lat="43.15127" lon="3.0818">
        <ele>190</ele>
        <time>2025-12-29T12:54:41.875Z</time>
      </trkpt>
      <trkpt lat="43.15127" lon="3.08177">
        <ele>190</ele>
        <time>2025-12-29T12:54:42.875Z</time>
      </trkpt>
      <trkpt lat="43.15127" lon="3.08175">
        <ele>190</ele>
        <time>2025-12-29T12:54:43.875Z</time>
      </trkpt>
      <trkpt lat="43.15126" lon="3.08173">
        <ele>189</ele>
        <time>2025-12-29T12:54:44.875Z</time>
      </trkpt>
      <trkpt lat="43.15126" lon="3.08172">
        <ele>189</ele>
        <time>2025-12-29T12:54:45.875Z</time>
      </trkpt>
      <trkpt lat="43.15126" lon="3.0817">
        <ele>189</ele>
        <time>2025-12-29T12:54:46.875Z</time>
      </trkpt>
      <trkpt lat="43.15126" lon="3.08168">
        <ele>189</ele>
        <time>2025-12-29T12:54:47.875Z</time>
      </trkpt>
      <trkpt lat="43.15126" lon="3.08167">
        <ele>190</ele>
        <time>2025-12-29T12:54:48.875Z</time>
      </trkpt>
      <trkpt lat="43.15125" lon="3.08165">
        <ele>190</ele>
        <time>2025-12-29T12:54:49.875Z</time>
      </trkpt>
      <trkpt lat="43.15125" lon="3.08164">
        <ele>190</ele>
        <time>2025-12-29T12:54:50.875Z</time>
      </trkpt>
      <trkpt lat="43.15125" lon="3.08162">
        <ele>190</ele>
        <time>2025-12-29T12:54:51.875Z</time>
      </trkpt>
      <trkpt lat="43.15125" lon="3.0816">
        <ele>190</ele>
        <time>2025-12-29T12:54:52.875Z</time>
      </trkpt>
      <trkpt lat="43.15124" lon="3.08157">
        <ele>190</ele>
        <time>2025-12-29T12:54:53.875Z</time>
      </trkpt>
      <trkpt lat="43.15124" lon="3.08155">
        <ele>190</ele>
        <time>2025-12-29T12:54:54.875Z</time>
      </trkpt>
      <trkpt lat="43.15124" lon="3.08153">
        <ele>191</ele>
        <time>2025-12-29T12:54:55.875Z</time>
      </trkpt>
      <trkpt lat="43.15123" lon="3.0815">
        <ele>191</ele>
        <time>2025-12-29T12:54:56.875Z</time>
      </trkpt>
      <trkpt lat="43.15123" lon="3.08148">
        <ele>191</ele>
        <time>2025-12-29T12:54:57.875Z</time>
      </trkpt>
      <trkpt lat="43.15122" lon="3.08146">
        <ele>191</ele>
        <time>2025-12-29T12:54:58.875Z</time>
      </trkpt>
      <trkpt lat="43.15122" lon="3.08144">
        <ele>192</ele>
        <time>2025-12-29T12:54:59.875Z</time>
      </trkpt>
      <trkpt lat="43.15121" lon="3.08142">
        <ele>192</ele>
        <time>2025-12-29T12:55:00.875Z</time>
      </trkpt>
      <trkpt lat="43.15121" lon="3.0814">
        <ele>192</ele>
        <time>2025-12-29T12:55:01.875Z</time>
      </trkpt>
      <trkpt lat="43.15121" lon="3.08138">
        <ele>192</ele>
        <time>2025-12-29T12:55:02.875Z</time>
      </trkpt>
      <trkpt lat="43.1512" lon="3.08136">
        <ele>192</ele>
        <time>2025-12-29T12:55:03.875Z</time>
      </trkpt>
      <trkpt lat="43.1512" lon="3.08134">
        <ele>192</ele>
        <time>2025-12-29T12:55:04.875Z</time>
      </trkpt>
      <trkpt lat="43.15119" lon="3.08133">
        <ele>192</ele>
        <time>2025-12-29T12:55:05.875Z</time>
      </trkpt>
      <trkpt lat="43.15119" lon="3.08131">
        <ele>192</ele>
        <time>2025-12-29T12:55:06.875Z</time>
      </trkpt>
      <trkpt lat="43.15118" lon="3.0813">
        <ele>193</ele>
        <time>2025-12-29T12:55:07.875Z</time>
      </trkpt>
      <trkpt lat="43.15117" lon="3.08129">
        <ele>193</ele>
        <time>2025-12-29T12:55:08.875Z</time>
      </trkpt>
      <trkpt lat="43.15115" lon="3.08127">
        <ele>193</ele>
        <time>2025-12-29T12:55:09.875Z</time>
      </trkpt>
      <trkpt lat="43.15114" lon="3.08126">
        <ele>193</ele>
        <time>2025-12-29T12:55:10.875Z</time>
      </trkpt>
      <trkpt lat="43.15113" lon="3.08124">
        <ele>193</ele>
        <time>2025-12-29T12:55:11.875Z</time>
      </trkpt>
      <trkpt lat="43.15111" lon="3.08123">
        <ele>193</ele>
        <time>2025-12-29T12:55:12.875Z</time>
      </trkpt>
      <trkpt lat="43.1511" lon="3.08122">
        <ele>193</ele>
        <time>2025-12-29T12:55:13.875Z</time>
      </trkpt>
      <trkpt lat="43.15108" lon="3.08121">
        <ele>193</ele>
        <time>2025-12-29T12:55:14.875Z</time>
      </trkpt>
      <trkpt lat="43.15107" lon="3.0812">
        <ele>193</ele>
        <time>2025-12-29T12:55:15.875Z</time>
      </trkpt>
      <trkpt lat="43.15105" lon="3.08119">
        <ele>193</ele>
        <time>2025-12-29T12:55:16.875Z</time>
      </trkpt>
      <trkpt lat="43.15104" lon="3.08118">
        <ele>193</ele>
        <time>2025-12-29T12:55:17.875Z</time>
      </trkpt>
      <trkpt lat="43.15103" lon="3.08117">
        <ele>193</ele>
        <time>2025-12-29T12:55:18.875Z</time>
      </trkpt>
      <trkpt lat="43.15101" lon="3.08116">
        <ele>193</ele>
        <time>2025-12-29T12:55:19.875Z</time>
      </trkpt>
      <trkpt lat="43.151" lon="3.08115">
        <ele>193</ele>
        <time>2025-12-29T12:55:20.875Z</time>
      </trkpt>
      <trkpt lat="43.15098" lon="3.08114">
        <ele>194</ele>
        <time>2025-12-29T12:55:21.875Z</time>
      </trkpt>
      <trkpt lat="43.15097" lon="3.08113">
        <ele>194</ele>
        <time>2025-12-29T12:55:22.875Z</time>
      </trkpt>
      <trkpt lat="43.15096" lon="3.08112">
        <ele>193</ele>
        <time>2025-12-29T12:55:23.875Z</time>
      </trkpt>
      <trkpt lat="43.15095" lon="3.08112">
        <ele>193</ele>
        <time>2025-12-29T12:55:24.875Z</time>
      </trkpt>
      <trkpt lat="43.15094" lon="3.08112">
        <ele>193</ele>
        <time>2025-12-29T12:55:25.875Z</time>
      </trkpt>
      <trkpt lat="43.15093" lon="3.08112">
        <ele>193</ele>
        <time>2025-12-29T12:55:26.875Z</time>
      </trkpt>
      <trkpt lat="43.15092" lon="3.08111">
        <ele>193</ele>
        <time>2025-12-29T12:55:27.875Z</time>
      </trkpt>
      <trkpt lat="43.15091" lon="3.0811">
        <ele>193</ele>
        <time>2025-12-29T12:55:28.875Z</time>
      </trkpt>
      <trkpt lat="43.15089" lon="3.0811">
        <ele>193</ele>
        <time>2025-12-29T12:55:29.875Z</time>
      </trkpt>
      <trkpt lat="43.15088" lon="3.08109">
        <ele>193</ele>
        <time>2025-12-29T12:55:30.875Z</time>
      </trkpt>
      <trkpt lat="43.15087" lon="3.08108">
        <ele>193</ele>
        <time>2025-12-29T12:55:31.875Z</time>
      </trkpt>
      <trkpt lat="43.15085" lon="3.08107">
        <ele>193</ele>
        <time>2025-12-29T12:55:32.875Z</time>
      </trkpt>
      <trkpt lat="43.15084" lon="3.08107">
        <ele>193</ele>
        <time>2025-12-29T12:55:33.875Z</time>
      </trkpt>
      <trkpt lat="43.15082" lon="3.08106">
        <ele>193</ele>
        <time>2025-12-29T12:55:34.875Z</time>
      </trkpt>
      <trkpt lat="43.1508" lon="3.08105">
        <ele>194</ele>
        <time>2025-12-29T12:55:35.875Z</time>
      </trkpt>
      <trkpt lat="43.15079" lon="3.08104">
        <ele>194</ele>
        <time>2025-12-29T12:55:36.875Z</time>
      </trkpt>
      <trkpt lat="43.15077" lon="3.08104">
        <ele>194</ele>
        <time>2025-12-29T12:55:37.875Z</time>
      </trkpt>
      <trkpt lat="43.15075" lon="3.08103">
        <ele>194</ele>
        <time>2025-12-29T12:55:38.875Z</time>
      </trkpt>
      <trkpt lat="43.15074" lon="3.08102">
        <ele>194</ele>
        <time>2025-12-29T12:55:39.875Z</time>
      </trkpt>
      <trkpt lat="43.15072" lon="3.08101">
        <ele>193</ele>
        <time>2025-12-29T12:55:40.875Z</time>
      </trkpt>
      <trkpt lat="43.15071" lon="3.081">
        <ele>193</ele>
        <time>2025-12-29T12:55:41.875Z</time>
      </trkpt>
      <trkpt lat="43.15069" lon="3.08099">
        <ele>193</ele>
        <time>2025-12-29T12:55:42.875Z</time>
      </trkpt>
      <trkpt lat="43.15067" lon="3.08098">
        <ele>194</ele>
        <time>2025-12-29T12:55:43.875Z</time>
      </trkpt>
      <trkpt lat="43.15066" lon="3.08097">
        <ele>194</ele>
        <time>2025-12-29T12:55:44.875Z</time>
      </trkpt>
      <trkpt lat="43.15064" lon="3.08096">
        <ele>194</ele>
        <time>2025-12-29T12:55:45.875Z</time>
      </trkpt>
      <trkpt lat="43.15063" lon="3.08095">
        <ele>193</ele>
        <time>2025-12-29T12:55:46.875Z</time>
      </trkpt>
      <trkpt lat="43.15062" lon="3.08094">
        <ele>193</ele>
        <time>2025-12-29T12:55:47.875Z</time>
      </trkpt>
      <trkpt lat="43.1506" lon="3.08092">
        <ele>193</ele>
        <time>2025-12-29T12:55:48.875Z</time>
      </trkpt>
      <trkpt lat="43.15059" lon="3.08092">
        <ele>193</ele>
        <time>2025-12-29T12:55:49.875Z</time>
      </trkpt>
      <trkpt lat="43.15058" lon="3.08091">
        <ele>193</ele>
        <time>2025-12-29T12:55:50.875Z</time>
      </trkpt>
      <trkpt lat="43.15056" lon="3.0809">
        <ele>192</ele>
        <time>2025-12-29T12:55:51.875Z</time>
      </trkpt>
      <trkpt lat="43.15055" lon="3.08089">
        <ele>192</ele>
        <time>2025-12-29T12:55:52.875Z</time>
      </trkpt>
      <trkpt lat="43.15054" lon="3.08088">
        <ele>192</ele>
        <time>2025-12-29T12:55:53.875Z</time>
      </trkpt>
      <trkpt lat="43.15053" lon="3.08087">
        <ele>192</ele>
        <time>2025-12-29T12:55:54.875Z</time>
      </trkpt>
      <trkpt lat="43.15052" lon="3.08086">
        <ele>192</ele>
        <time>2025-12-29T12:55:55.875Z</time>
      </trkpt>
      <trkpt lat="43.1505" lon="3.08086">
        <ele>193</ele>
        <time>2025-12-29T12:55:56.875Z</time>
      </trkpt>
      <trkpt lat="43.15049" lon="3.08085">
        <ele>193</ele>
        <time>2025-12-29T12:55:57.875Z</time>
      </trkpt>
      <trkpt lat="43.15047" lon="3.08084">
        <ele>193</ele>
        <time>2025-12-29T12:55:58.875Z</time>
      </trkpt>
      <trkpt lat="43.15046" lon="3.08083">
        <ele>193</ele>
        <time>2025-12-29T12:55:59.875Z</time>
      </trkpt>
      <trkpt lat="43.15045" lon="3.08082">
        <ele>193</ele>
        <time>2025-12-29T12:56:00.875Z</time>
      </trkpt>
      <trkpt lat="43.15043" lon="3.08082">
        <ele>194</ele>
        <time>2025-12-29T12:56:01.875Z</time>
      </trkpt>
      <trkpt lat="43.15042" lon="3.08081">
        <ele>194</ele>
        <time>2025-12-29T12:56:02.875Z</time>
      </trkpt>
      <trkpt lat="43.1504" lon="3.0808">
        <ele>194</ele>
        <time>2025-12-29T12:56:03.875Z</time>
      </trkpt>
      <trkpt lat="43.15039" lon="3.08079">
        <ele>194</ele>
        <time>2025-12-29T12:56:04.875Z</time>
      </trkpt>
      <trkpt lat="43.15037" lon="3.08079">
        <ele>194</ele>
        <time>2025-12-29T12:56:05.875Z</time>
      </trkpt>
      <trkpt lat="43.15036" lon="3.08078">
        <ele>193</ele>
        <time>2025-12-29T12:56:06.875Z</time>
      </trkpt>
      <trkpt lat="43.15034" lon="3.08077">
        <ele>194</ele>
        <time>2025-12-29T12:56:07.875Z</time>
      </trkpt>
      <trkpt lat="43.15033" lon="3.08076">
        <ele>194</ele>
        <time>2025-12-29T12:56:08.875Z</time>
      </trkpt>
      <trkpt lat="43.15032" lon="3.08076">
        <ele>194</ele>
        <time>2025-12-29T12:56:09.875Z</time>
      </trkpt>
      <trkpt lat="43.15031" lon="3.08075">
        <ele>194</ele>
        <time>2025-12-29T12:56:10.875Z</time>
      </trkpt>
      <trkpt lat="43.1503" lon="3.08075">
        <ele>194</ele>
        <time>2025-12-29T12:56:11.875Z</time>
      </trkpt>
      <trkpt lat="43.15029" lon="3.08074">
        <ele>194</ele>
        <time>2025-12-29T12:56:12.875Z</time>
      </trkpt>
      <trkpt lat="43.15028" lon="3.08074">
        <ele>194</ele>
        <time>2025-12-29T12:56:13.875Z</time>
      </trkpt>
      <trkpt lat="43.15026" lon="3.08073">
        <ele>194</ele>
        <time>2025-12-29T12:56:14.875Z</time>
      </trkpt>
      <trkpt lat="43.15024" lon="3.08073">
        <ele>194</ele>
        <time>2025-12-29T12:56:15.875Z</time>
      </trkpt>
      <trkpt lat="43.15023" lon="3.08073">
        <ele>194</ele>
        <time>2025-12-29T12:56:16.875Z</time>
      </trkpt>
      <trkpt lat="43.15021" lon="3.08073">
        <ele>194</ele>
        <time>2025-12-29T12:56:17.875Z</time>
      </trkpt>
      <trkpt lat="43.15019" lon="3.08073">
        <ele>194</ele>
        <time>2025-12-29T12:56:18.875Z</time>
      </trkpt>
      <trkpt lat="43.15018" lon="3.08073">
        <ele>194</ele>
        <time>2025-12-29T12:56:19.875Z</time>
      </trkpt>
      <trkpt lat="43.15016" lon="3.08073">
        <ele>193</ele>
        <time>2025-12-29T12:56:20.875Z</time>
      </trkpt>
      <trkpt lat="43.15015" lon="3.08074">
        <ele>193</ele>
        <time>2025-12-29T12:56:21.875Z</time>
      </trkpt>
      <trkpt lat="43.15013" lon="3.08075">
        <ele>193</ele>
        <time>2025-12-29T12:56:22.875Z</time>
      </trkpt>
      <trkpt lat="43.15012" lon="3.08075">
        <ele>193</ele>
        <time>2025-12-29T12:56:23.875Z</time>
      </trkpt>
      <trkpt lat="43.15011" lon="3.08076">
        <ele>192</ele>
        <time>2025-12-29T12:56:24.875Z</time>
      </trkpt>
      <trkpt lat="43.1501" lon="3.08077">
        <ele>192</ele>
        <time>2025-12-29T12:56:25.875Z</time>
      </trkpt>
      <trkpt lat="43.15009" lon="3.08078">
        <ele>192</ele>
        <time>2025-12-29T12:56:26.875Z</time>
      </trkpt>
      <trkpt lat="43.15007" lon="3.08079">
        <ele>192</ele>
        <time>2025-12-29T12:56:27.875Z</time>
      </trkpt>
      <trkpt lat="43.15006" lon="3.08079">
        <ele>192</ele>
        <time>2025-12-29T12:56:28.875Z</time>
      </trkpt>
      <trkpt lat="43.15005" lon="3.0808">
        <ele>192</ele>
        <time>2025-12-29T12:56:29.875Z</time>
      </trkpt>
      <trkpt lat="43.15004" lon="3.08081">
        <ele>192</ele>
        <time>2025-12-29T12:56:30.875Z</time>
      </trkpt>
      <trkpt lat="43.15003" lon="3.08082">
        <ele>192</ele>
        <time>2025-12-29T12:56:31.875Z</time>
      </trkpt>
      <trkpt lat="43.15002" lon="3.08083">
        <ele>192</ele>
        <time>2025-12-29T12:56:32.875Z</time>
      </trkpt>
      <trkpt lat="43.15" lon="3.08084">
        <ele>192</ele>
        <time>2025-12-29T12:56:33.875Z</time>
      </trkpt>
      <trkpt lat="43.14999" lon="3.08084">
        <ele>192</ele>
        <time>2025-12-29T12:56:34.875Z</time>
      </trkpt>
      <trkpt lat="43.14997" lon="3.08085">
        <ele>192</ele>
        <time>2025-12-29T12:56:35.875Z</time>
      </trkpt>
      <trkpt lat="43.14996" lon="3.08086">
        <ele>192</ele>
        <time>2025-12-29T12:56:36.875Z</time>
      </trkpt>
      <trkpt lat="43.14995" lon="3.08087">
        <ele>191</ele>
        <time>2025-12-29T12:56:37.875Z</time>
      </trkpt>
      <trkpt lat="43.14993" lon="3.08087">
        <ele>191</ele>
        <time>2025-12-29T12:56:38.875Z</time>
      </trkpt>
      <trkpt lat="43.14992" lon="3.08089">
        <ele>191</ele>
        <time>2025-12-29T12:56:39.875Z</time>
      </trkpt>
      <trkpt lat="43.14991" lon="3.0809">
        <ele>191</ele>
        <time>2025-12-29T12:56:40.875Z</time>
      </trkpt>
      <trkpt lat="43.1499" lon="3.08091">
        <ele>191</ele>
        <time>2025-12-29T12:56:41.875Z</time>
      </trkpt>
      <trkpt lat="43.14989" lon="3.08092">
        <ele>192</ele>
        <time>2025-12-29T12:56:42.875Z</time>
      </trkpt>
      <trkpt lat="43.14988" lon="3.08094">
        <ele>192</ele>
        <time>2025-12-29T12:56:43.875Z</time>
      </trkpt>
      <trkpt lat="43.14987" lon="3.08094">
        <ele>192</ele>
        <time>2025-12-29T12:56:44.875Z</time>
      </trkpt>
      <trkpt lat="43.14985" lon="3.08095">
        <ele>192</ele>
        <time>2025-12-29T12:56:45.875Z</time>
      </trkpt>
      <trkpt lat="43.14984" lon="3.08096">
        <ele>192</ele>
        <time>2025-12-29T12:56:46.875Z</time>
      </trkpt>
      <trkpt lat="43.14982" lon="3.08097">
        <ele>192</ele>
        <time>2025-12-29T12:56:47.875Z</time>
      </trkpt>
      <trkpt lat="43.1498" lon="3.08098">
        <ele>192</ele>
        <time>2025-12-29T12:56:48.875Z</time>
      </trkpt>
      <trkpt lat="43.14979" lon="3.08099">
        <ele>192</ele>
        <time>2025-12-29T12:56:49.875Z</time>
      </trkpt>
      <trkpt lat="43.14977" lon="3.08099">
        <ele>192</ele>
        <time>2025-12-29T12:56:50.875Z</time>
      </trkpt>
      <trkpt lat="43.14975" lon="3.081">
        <ele>192</ele>
        <time>2025-12-29T12:56:51.875Z</time>
      </trkpt>
      <trkpt lat="43.14973" lon="3.081">
        <ele>192</ele>
        <time>2025-12-29T12:56:52.875Z</time>
      </trkpt>
      <trkpt lat="43.14971" lon="3.081">
        <ele>192</ele>
        <time>2025-12-29T12:56:53.875Z</time>
      </trkpt>
      <trkpt lat="43.1497" lon="3.081">
        <ele>192</ele>
        <time>2025-12-29T12:56:54.875Z</time>
      </trkpt>
      <trkpt lat="43.14968" lon="3.081">
        <ele>192</ele>
        <time>2025-12-29T12:56:55.875Z</time>
      </trkpt>
      <trkpt lat="43.14966" lon="3.081">
        <ele>192</ele>
        <time>2025-12-29T12:56:56.875Z</time>
      </trkpt>
      <trkpt lat="43.14964" lon="3.081">
        <ele>192</ele>
        <time>2025-12-29T12:56:57.875Z</time>
      </trkpt>
      <trkpt lat="43.14962" lon="3.081">
        <ele>192</ele>
        <time>2025-12-29T12:56:58.875Z</time>
      </trkpt>
      <trkpt lat="43.14961" lon="3.08099">
        <ele>192</ele>
        <time>2025-12-29T12:56:59.875Z</time>
      </trkpt>
      <trkpt lat="43.1496" lon="3.08099">
        <ele>192</ele>
        <time>2025-12-29T12:57:00.875Z</time>
      </trkpt>
      <trkpt lat="43.14958" lon="3.08099">
        <ele>192</ele>
        <time>2025-12-29T12:57:01.875Z</time>
      </trkpt>
      <trkpt lat="43.14957" lon="3.08098">
        <ele>191</ele>
        <time>2025-12-29T12:57:02.875Z</time>
      </trkpt>
      <trkpt lat="43.14956" lon="3.08097">
        <ele>191</ele>
        <time>2025-12-29T12:57:03.875Z</time>
      </trkpt>
      <trkpt lat="43.14954" lon="3.08097">
        <ele>191</ele>
        <time>2025-12-29T12:57:04.875Z</time>
      </trkpt>
      <trkpt lat="43.14953" lon="3.08096">
        <ele>191</ele>
        <time>2025-12-29T12:57:05.875Z</time>
      </trkpt>
      <trkpt lat="43.14951" lon="3.08096">
        <ele>191</ele>
        <time>2025-12-29T12:57:06.875Z</time>
      </trkpt>
      <trkpt lat="43.1495" lon="3.08096">
        <ele>191</ele>
        <time>2025-12-29T12:57:07.875Z</time>
      </trkpt>
      <trkpt lat="43.14949" lon="3.08096">
        <ele>191</ele>
        <time>2025-12-29T12:57:08.875Z</time>
      </trkpt>
      <trkpt lat="43.14947" lon="3.08095">
        <ele>191</ele>
        <time>2025-12-29T12:57:09.875Z</time>
      </trkpt>
      <trkpt lat="43.14945" lon="3.08095">
        <ele>192</ele>
        <time>2025-12-29T12:57:10.875Z</time>
      </trkpt>
      <trkpt lat="43.14944" lon="3.08094">
        <ele>192</ele>
        <time>2025-12-29T12:57:11.875Z</time>
      </trkpt>
      <trkpt lat="43.14943" lon="3.08093">
        <ele>192</ele>
        <time>2025-12-29T12:57:12.875Z</time>
      </trkpt>
      <trkpt lat="43.14941" lon="3.08093">
        <ele>192</ele>
        <time>2025-12-29T12:57:13.875Z</time>
      </trkpt>
      <trkpt lat="43.14939" lon="3.08093">
        <ele>192</ele>
        <time>2025-12-29T12:57:14.875Z</time>
      </trkpt>
      <trkpt lat="43.14938" lon="3.08092">
        <ele>192</ele>
        <time>2025-12-29T12:57:15.875Z</time>
      </trkpt>
      <trkpt lat="43.14937" lon="3.08092">
        <ele>192</ele>
        <time>2025-12-29T12:57:16.875Z</time>
      </trkpt>
      <trkpt lat="43.14935" lon="3.08092">
        <ele>193</ele>
        <time>2025-12-29T12:57:17.875Z</time>
      </trkpt>
      <trkpt lat="43.14934" lon="3.08091">
        <ele>193</ele>
        <time>2025-12-29T12:57:18.875Z</time>
      </trkpt>
      <trkpt lat="43.14933" lon="3.08091">
        <ele>193</ele>
        <time>2025-12-29T12:57:19.875Z</time>
      </trkpt>
      <trkpt lat="43.14932" lon="3.0809">
        <ele>193</ele>
        <time>2025-12-29T12:57:20.875Z</time>
      </trkpt>
      <trkpt lat="43.14931" lon="3.0809">
        <ele>193</ele>
        <time>2025-12-29T12:57:21.875Z</time>
      </trkpt>
      <trkpt lat="43.14929" lon="3.08089">
        <ele>193</ele>
        <time>2025-12-29T12:57:22.875Z</time>
      </trkpt>
      <trkpt lat="43.14928" lon="3.08088">
        <ele>193</ele>
        <time>2025-12-29T12:57:23.875Z</time>
      </trkpt>
      <trkpt lat="43.14927" lon="3.08088">
        <ele>193</ele>
        <time>2025-12-29T12:57:24.875Z</time>
      </trkpt>
      <trkpt lat="43.14926" lon="3.08087">
        <ele>192</ele>
        <time>2025-12-29T12:57:25.875Z</time>
      </trkpt>
      <trkpt lat="43.14924" lon="3.08086">
        <ele>192</ele>
        <time>2025-12-29T12:57:26.875Z</time>
      </trkpt>
      <trkpt lat="43.14923" lon="3.08085">
        <ele>192</ele>
        <time>2025-12-29T12:57:27.875Z</time>
      </trkpt>
      <trkpt lat="43.14922" lon="3.08084">
        <ele>192</ele>
        <time>2025-12-29T12:57:28.875Z</time>
      </trkpt>
      <trkpt lat="43.1492" lon="3.08083">
        <ele>192</ele>
        <time>2025-12-29T12:57:29.875Z</time>
      </trkpt>
      <trkpt lat="43.14919" lon="3.08082">
        <ele>192</ele>
        <time>2025-12-29T12:57:30.875Z</time>
      </trkpt>
      <trkpt lat="43.14918" lon="3.08081">
        <ele>192</ele>
        <time>2025-12-29T12:57:31.875Z</time>
      </trkpt>
      <trkpt lat="43.14917" lon="3.08079">
        <ele>191</ele>
        <time>2025-12-29T12:57:32.875Z</time>
      </trkpt>
      <trkpt lat="43.14916" lon="3.08078">
        <ele>191</ele>
        <time>2025-12-29T12:57:33.875Z</time>
      </trkpt>
      <trkpt lat="43.14914" lon="3.08077">
        <ele>191</ele>
        <time>2025-12-29T12:57:34.875Z</time>
      </trkpt>
      <trkpt lat="43.14913" lon="3.08076">
        <ele>191</ele>
        <time>2025-12-29T12:57:35.875Z</time>
      </trkpt>
      <trkpt lat="43.14911" lon="3.08074">
        <ele>191</ele>
        <time>2025-12-29T12:57:36.875Z</time>
      </trkpt>
      <trkpt lat="43.1491" lon="3.08074">
        <ele>191</ele>
        <time>2025-12-29T12:57:37.875Z</time>
      </trkpt>
      <trkpt lat="43.14909" lon="3.08073">
        <ele>191</ele>
        <time>2025-12-29T12:57:38.875Z</time>
      </trkpt>
      <trkpt lat="43.14908" lon="3.08072">
        <ele>191</ele>
        <time>2025-12-29T12:57:39.875Z</time>
      </trkpt>
      <trkpt lat="43.14906" lon="3.08071">
        <ele>190</ele>
        <time>2025-12-29T12:57:40.875Z</time>
      </trkpt>
      <trkpt lat="43.14905" lon="3.0807">
        <ele>190</ele>
        <time>2025-12-29T12:57:41.875Z</time>
      </trkpt>
      <trkpt lat="43.14904" lon="3.08069">
        <ele>190</ele>
        <time>2025-12-29T12:57:42.875Z</time>
      </trkpt>
      <trkpt lat="43.14903" lon="3.08068">
        <ele>190</ele>
        <time>2025-12-29T12:57:43.875Z</time>
      </trkpt>
      <trkpt lat="43.14901" lon="3.08067">
        <ele>189</ele>
        <time>2025-12-29T12:57:44.875Z</time>
      </trkpt>
      <trkpt lat="43.149" lon="3.08067">
        <ele>189</ele>
        <time>2025-12-29T12:57:45.875Z</time>
      </trkpt>
      <trkpt lat="43.14899" lon="3.08066">
        <ele>189</ele>
        <time>2025-12-29T12:57:46.875Z</time>
      </trkpt>
      <trkpt lat="43.14898" lon="3.08065">
        <ele>189</ele>
        <time>2025-12-29T12:57:47.875Z</time>
      </trkpt>
      <trkpt lat="43.14896" lon="3.08064">
        <ele>189</ele>
        <time>2025-12-29T12:57:48.875Z</time>
      </trkpt>
      <trkpt lat="43.14895" lon="3.08064">
        <ele>190</ele>
        <time>2025-12-29T12:57:49.875Z</time>
      </trkpt>
      <trkpt lat="43.14894" lon="3.08063">
        <ele>190</ele>
        <time>2025-12-29T12:57:50.875Z</time>
      </trkpt>
      <trkpt lat="43.14893" lon="3.08062">
        <ele>190</ele>
        <time>2025-12-29T12:57:51.875Z</time>
      </trkpt>
      <trkpt lat="43.14892" lon="3.0806">
        <ele>190</ele>
        <time>2025-12-29T12:57:52.875Z</time>
      </trkpt>
      <trkpt lat="43.1489" lon="3.08059">
        <ele>190</ele>
        <time>2025-12-29T12:57:53.875Z</time>
      </trkpt>
      <trkpt lat="43.14889" lon="3.08059">
        <ele>190</ele>
        <time>2025-12-29T12:57:54.875Z</time>
      </trkpt>
      <trkpt lat="43.14888" lon="3.08058">
        <ele>190</ele>
        <time>2025-12-29T12:57:55.875Z</time>
      </trkpt>
      <trkpt lat="43.14887" lon="3.08057">
        <ele>191</ele>
        <time>2025-12-29T12:57:56.875Z</time>
      </trkpt>
      <trkpt lat="43.14885" lon="3.08055">
        <ele>190</ele>
        <time>2025-12-29T12:57:57.875Z</time>
      </trkpt>
      <trkpt lat="43.14884" lon="3.08055">
        <ele>190</ele>
        <time>2025-12-29T12:57:58.875Z</time>
      </trkpt>
      <trkpt lat="43.14883" lon="3.08054">
        <ele>190</ele>
        <time>2025-12-29T12:57:59.875Z</time>
      </trkpt>
      <trkpt lat="43.14881" lon="3.08053">
        <ele>190</ele>
        <time>2025-12-29T12:58:00.875Z</time>
      </trkpt>
      <trkpt lat="43.1488" lon="3.08052">
        <ele>190</ele>
        <time>2025-12-29T12:58:01.875Z</time>
      </trkpt>
      <trkpt lat="43.14878" lon="3.08052">
        <ele>190</ele>
        <time>2025-12-29T12:58:02.875Z</time>
      </trkpt>
      <trkpt lat="43.14877" lon="3.08051">
        <ele>190</ele>
        <time>2025-12-29T12:58:03.875Z</time>
      </trkpt>
      <trkpt lat="43.14876" lon="3.0805">
        <ele>190</ele>
        <time>2025-12-29T12:58:04.875Z</time>
      </trkpt>
      <trkpt lat="43.14874" lon="3.08049">
        <ele>190</ele>
        <time>2025-12-29T12:58:05.875Z</time>
      </trkpt>
      <trkpt lat="43.14873" lon="3.08048">
        <ele>190</ele>
        <time>2025-12-29T12:58:06.875Z</time>
      </trkpt>
      <trkpt lat="43.14871" lon="3.08047">
        <ele>190</ele>
        <time>2025-12-29T12:58:07.875Z</time>
      </trkpt>
      <trkpt lat="43.1487" lon="3.08046">
        <ele>191</ele>
        <time>2025-12-29T12:58:08.875Z</time>
      </trkpt>
      <trkpt lat="43.14868" lon="3.08045">
        <ele>191</ele>
        <time>2025-12-29T12:58:09.875Z</time>
      </trkpt>
      <trkpt lat="43.14866" lon="3.08044">
        <ele>191</ele>
        <time>2025-12-29T12:58:10.875Z</time>
      </trkpt>
      <trkpt lat="43.14865" lon="3.08043">
        <ele>191</ele>
        <time>2025-12-29T12:58:11.875Z</time>
      </trkpt>
      <trkpt lat="43.14864" lon="3.08043">
        <ele>190</ele>
        <time>2025-12-29T12:58:12.875Z</time>
      </trkpt>
      <trkpt lat="43.14862" lon="3.08042">
        <ele>190</ele>
        <time>2025-12-29T12:58:13.875Z</time>
      </trkpt>
      <trkpt lat="43.14861" lon="3.0804">
        <ele>190</ele>
        <time>2025-12-29T12:58:14.875Z</time>
      </trkpt>
      <trkpt lat="43.1486" lon="3.08039">
        <ele>190</ele>
        <time>2025-12-29T12:58:15.875Z</time>
      </trkpt>
      <trkpt lat="43.14858" lon="3.08038">
        <ele>189</ele>
        <time>2025-12-29T12:58:16.875Z</time>
      </trkpt>
      <trkpt lat="43.14857" lon="3.08036">
        <ele>189</ele>
        <time>2025-12-29T12:58:17.875Z</time>
      </trkpt>
      <trkpt lat="43.14856" lon="3.08035">
        <ele>190</ele>
        <time>2025-12-29T12:58:18.875Z</time>
      </trkpt>
      <trkpt lat="43.14854" lon="3.08033">
        <ele>190</ele>
        <time>2025-12-29T12:58:19.875Z</time>
      </trkpt>
      <trkpt lat="43.14854" lon="3.08032">
        <ele>191</ele>
        <time>2025-12-29T12:58:20.875Z</time>
      </trkpt>
      <trkpt lat="43.14853" lon="3.08031">
        <ele>191</ele>
        <time>2025-12-29T12:58:21.875Z</time>
      </trkpt>
      <trkpt lat="43.14851" lon="3.08029">
        <ele>191</ele>
        <time>2025-12-29T12:58:22.875Z</time>
      </trkpt>
      <trkpt lat="43.1485" lon="3.08029">
        <ele>191</ele>
        <time>2025-12-29T12:58:23.875Z</time>
      </trkpt>
      <trkpt lat="43.14849" lon="3.08028">
        <ele>191</ele>
        <time>2025-12-29T12:58:24.875Z</time>
      </trkpt>
      <trkpt lat="43.14848" lon="3.08027">
        <ele>191</ele>
        <time>2025-12-29T12:58:25.875Z</time>
      </trkpt>
      <trkpt lat="43.14847" lon="3.08026">
        <ele>191</ele>
        <time>2025-12-29T12:58:26.875Z</time>
      </trkpt>
      <trkpt lat="43.14846" lon="3.08025">
        <ele>191</ele>
        <time>2025-12-29T12:58:27.875Z</time>
      </trkpt>
      <trkpt lat="43.14845" lon="3.08024">
        <ele>190</ele>
        <time>2025-12-29T12:58:28.875Z</time>
      </trkpt>
      <trkpt lat="43.14844" lon="3.08022">
        <ele>190</ele>
        <time>2025-12-29T12:58:29.875Z</time>
      </trkpt>
      <trkpt lat="43.14844" lon="3.08021">
        <ele>190</ele>
        <time>2025-12-29T12:58:30.875Z</time>
      </trkpt>
      <trkpt lat="43.14843" lon="3.08019">
        <ele>190</ele>
        <time>2025-12-29T12:58:31.875Z</time>
      </trkpt>
      <trkpt lat="43.14842" lon="3.08019">
        <ele>190</ele>
        <time>2025-12-29T12:58:32.875Z</time>
      </trkpt>
      <trkpt lat="43.14842" lon="3.08018">
        <ele>190</ele>
        <time>2025-12-29T12:58:33.875Z</time>
      </trkpt>
      <trkpt lat="43.14842" lon="3.08017">
        <ele>190</ele>
        <time>2025-12-29T12:58:34.875Z</time>
      </trkpt>
      <trkpt lat="43.14842" lon="3.08016">
        <ele>190</ele>
        <time>2025-12-29T12:58:35.875Z</time>
      </trkpt>
      <trkpt lat="43.14842" lon="3.08014">
        <ele>191</ele>
        <time>2025-12-29T12:58:36.875Z</time>
      </trkpt>
      <trkpt lat="43.14842" lon="3.08013">
        <ele>191</ele>
        <time>2025-12-29T12:58:37.875Z</time>
      </trkpt>
      <trkpt lat="43.14842" lon="3.08012">
        <ele>191</ele>
        <time>2025-12-29T12:58:38.875Z</time>
      </trkpt>
      <trkpt lat="43.14842" lon="3.08011">
        <ele>191</ele>
        <time>2025-12-29T12:58:39.875Z</time>
      </trkpt>
      <trkpt lat="43.14842" lon="3.0801">
        <ele>191</ele>
        <time>2025-12-29T12:58:40.875Z</time>
      </trkpt>
      <trkpt lat="43.14842" lon="3.08008">
        <ele>191</ele>
        <time>2025-12-29T12:58:41.875Z</time>
      </trkpt>
      <trkpt lat="43.14843" lon="3.08007">
        <ele>191</ele>
        <time>2025-12-29T12:58:42.875Z</time>
      </trkpt>
      <trkpt lat="43.14843" lon="3.08006">
        <ele>191</ele>
        <time>2025-12-29T12:58:43.875Z</time>
      </trkpt>
      <trkpt lat="43.14844" lon="3.08005">
        <ele>191</ele>
        <time>2025-12-29T12:58:44.875Z</time>
      </trkpt>
      <trkpt lat="43.14846" lon="3.08003">
        <ele>191</ele>
        <time>2025-12-29T12:58:45.875Z</time>
      </trkpt>
      <trkpt lat="43.14847" lon="3.08003">
        <ele>190</ele>
        <time>2025-12-29T12:58:46.875Z</time>
      </trkpt>
      <trkpt lat="43.14848" lon="3.08001">
        <ele>190</ele>
        <time>2025-12-29T12:58:47.875Z</time>
      </trkpt>
      <trkpt lat="43.14848" lon="3.08">
        <ele>190</ele>
        <time>2025-12-29T12:58:48.875Z</time>
      </trkpt>
      <trkpt lat="43.14848" lon="3.07998">
        <ele>190</ele>
        <time>2025-12-29T12:58:49.875Z</time>
      </trkpt>
      <trkpt lat="43.14848" lon="3.07997">
        <ele>189</ele>
        <time>2025-12-29T12:58:50.875Z</time>
      </trkpt>
      <trkpt lat="43.14848" lon="3.07997">
        <ele>189</ele>
        <time>2025-12-29T12:58:51.875Z</time>
      </trkpt>
      <trkpt lat="43.14848" lon="3.07996">
        <ele>188</ele>
        <time>2025-12-29T12:58:52.875Z</time>
      </trkpt>
      <trkpt lat="43.14849" lon="3.07996">
        <ele>188</ele>
        <time>2025-12-29T12:58:53.875Z</time>
      </trkpt>
      <trkpt lat="43.14849" lon="3.07995">
        <ele>188</ele>
        <time>2025-12-29T12:58:54.875Z</time>
      </trkpt>
      <trkpt lat="43.14849" lon="3.07994">
        <ele>188</ele>
        <time>2025-12-29T12:58:55.875Z</time>
      </trkpt>
      <trkpt lat="43.14849" lon="3.07993">
        <ele>189</ele>
        <time>2025-12-29T12:58:56.875Z</time>
      </trkpt>
      <trkpt lat="43.14849" lon="3.07992">
        <ele>189</ele>
        <time>2025-12-29T12:58:57.875Z</time>
      </trkpt>
      <trkpt lat="43.14849" lon="3.07992">
        <ele>189</ele>
        <time>2025-12-29T12:58:58.875Z</time>
      </trkpt>
      <trkpt lat="43.14849" lon="3.07992">
        <ele>189</ele>
        <time>2025-12-29T12:58:59.875Z</time>
      </trkpt>
      <trkpt lat="43.14849" lon="3.07991">
        <ele>189</ele>
        <time>2025-12-29T12:59:00.875Z</time>
      </trkpt>
      <trkpt lat="43.14849" lon="3.07991">
        <ele>189</ele>
        <time>2025-12-29T12:59:01.875Z</time>
      </trkpt>
      <trkpt lat="43.14849" lon="3.07991">
        <ele>189</ele>
        <time>2025-12-29T12:59:02.875Z</time>
      </trkpt>
      <trkpt lat="43.14848" lon="3.0799">
        <ele>188</ele>
        <time>2025-12-29T12:59:03.875Z</time>
      </trkpt>
      <trkpt lat="43.14848" lon="3.07989">
        <ele>189</ele>
        <time>2025-12-29T12:59:04.875Z</time>
      </trkpt>
      <trkpt lat="43.14847" lon="3.07988">
        <ele>189</ele>
        <time>2025-12-29T12:59:05.875Z</time>
      </trkpt>
      <trkpt lat="43.14847" lon="3.07986">
        <ele>189</ele>
        <time>2025-12-29T12:59:06.875Z</time>
      </trkpt>
      <trkpt lat="43.14847" lon="3.07985">
        <ele>189</ele>
        <time>2025-12-29T12:59:07.875Z</time>
      </trkpt>
      <trkpt lat="43.14846" lon="3.07984">
        <ele>189</ele>
        <time>2025-12-29T12:59:08.875Z</time>
      </trkpt>
      <trkpt lat="43.14846" lon="3.07982">
        <ele>189</ele>
        <time>2025-12-29T12:59:09.875Z</time>
      </trkpt>
      <trkpt lat="43.14846" lon="3.07981">
        <ele>190</ele>
        <time>2025-12-29T12:59:10.875Z</time>
      </trkpt>
      <trkpt lat="43.14845" lon="3.07979">
        <ele>190</ele>
        <time>2025-12-29T12:59:11.875Z</time>
      </trkpt>
      <trkpt lat="43.14845" lon="3.07977">
        <ele>190</ele>
        <time>2025-12-29T12:59:12.875Z</time>
      </trkpt>
      <trkpt lat="43.14845" lon="3.07976">
        <ele>191</ele>
        <time>2025-12-29T12:59:13.875Z</time>
      </trkpt>
      <trkpt lat="43.14845" lon="3.07974">
        <ele>191</ele>
        <time>2025-12-29T12:59:14.875Z</time>
      </trkpt>
      <trkpt lat="43.14845" lon="3.07973">
        <ele>191</ele>
        <time>2025-12-29T12:59:15.875Z</time>
      </trkpt>
      <trkpt lat="43.14845" lon="3.07971">
        <ele>191</ele>
        <time>2025-12-29T12:59:16.875Z</time>
      </trkpt>
      <trkpt lat="43.14844" lon="3.0797">
        <ele>191</ele>
        <time>2025-12-29T12:59:17.875Z</time>
      </trkpt>
      <trkpt lat="43.14844" lon="3.07968">
        <ele>191</ele>
        <time>2025-12-29T12:59:18.875Z</time>
      </trkpt>
      <trkpt lat="43.14844" lon="3.07967">
        <ele>191</ele>
        <time>2025-12-29T12:59:19.875Z</time>
      </trkpt>
      <trkpt lat="43.14844" lon="3.07965">
        <ele>191</ele>
        <time>2025-12-29T12:59:20.875Z</time>
      </trkpt>
      <trkpt lat="43.14844" lon="3.07964">
        <ele>191</ele>
        <time>2025-12-29T12:59:21.875Z</time>
      </trkpt>
      <trkpt lat="43.14844" lon="3.07962">
        <ele>190</ele>
        <time>2025-12-29T12:59:22.875Z</time>
      </trkpt>
      <trkpt lat="43.14844" lon="3.0796">
        <ele>190</ele>
        <time>2025-12-29T12:59:23.875Z</time>
      </trkpt>
      <trkpt lat="43.14844" lon="3.07958">
        <ele>190</ele>
        <time>2025-12-29T12:59:24.875Z</time>
      </trkpt>
      <trkpt lat="43.14844" lon="3.07956">
        <ele>190</ele>
        <time>2025-12-29T12:59:25.875Z</time>
      </trkpt>
      <trkpt lat="43.14843" lon="3.07954">
        <ele>190</ele>
        <time>2025-12-29T12:59:26.875Z</time>
      </trkpt>
      <trkpt lat="43.14843" lon="3.07952">
        <ele>190</ele>
        <time>2025-12-29T12:59:27.875Z</time>
      </trkpt>
      <trkpt lat="43.14843" lon="3.0795">
        <ele>190</ele>
        <time>2025-12-29T12:59:28.875Z</time>
      </trkpt>
      <trkpt lat="43.14843" lon="3.07948">
        <ele>190</ele>
        <time>2025-12-29T12:59:29.875Z</time>
      </trkpt>
      <trkpt lat="43.14842" lon="3.07947">
        <ele>190</ele>
        <time>2025-12-29T12:59:30.875Z</time>
      </trkpt>
      <trkpt lat="43.14842" lon="3.07945">
        <ele>190</ele>
        <time>2025-12-29T12:59:31.875Z</time>
      </trkpt>
      <trkpt lat="43.14842" lon="3.07943">
        <ele>190</ele>
        <time>2025-12-29T12:59:32.875Z</time>
      </trkpt>
      <trkpt lat="43.14842" lon="3.07942">
        <ele>190</ele>
        <time>2025-12-29T12:59:33.875Z</time>
      </trkpt>
      <trkpt lat="43.14842" lon="3.0794">
        <ele>190</ele>
        <time>2025-12-29T12:59:34.875Z</time>
      </trkpt>
      <trkpt lat="43.14842" lon="3.07938">
        <ele>190</ele>
        <time>2025-12-29T12:59:35.875Z</time>
      </trkpt>
      <trkpt lat="43.14842" lon="3.07936">
        <ele>190</ele>
        <time>2025-12-29T12:59:36.875Z</time>
      </trkpt>
      <trkpt lat="43.14841" lon="3.07935">
        <ele>190</ele>
        <time>2025-12-29T12:59:37.875Z</time>
      </trkpt>
      <trkpt lat="43.14841" lon="3.07933">
        <ele>191</ele>
        <time>2025-12-29T12:59:38.875Z</time>
      </trkpt>
      <trkpt lat="43.1484" lon="3.07931">
        <ele>191</ele>
        <time>2025-12-29T12:59:39.875Z</time>
      </trkpt>
      <trkpt lat="43.1484" lon="3.07929">
        <ele>192</ele>
        <time>2025-12-29T12:59:40.875Z</time>
      </trkpt>
      <trkpt lat="43.14839" lon="3.07928">
        <ele>192</ele>
        <time>2025-12-29T12:59:41.875Z</time>
      </trkpt>
      <trkpt lat="43.14839" lon="3.07926">
        <ele>192</ele>
        <time>2025-12-29T12:59:42.875Z</time>
      </trkpt>
      <trkpt lat="43.14838" lon="3.07925">
        <ele>192</ele>
        <time>2025-12-29T12:59:43.875Z</time>
      </trkpt>
      <trkpt lat="43.14837" lon="3.07924">
        <ele>192</ele>
        <time>2025-12-29T12:59:44.875Z</time>
      </trkpt>
      <trkpt lat="43.14837" lon="3.07922">
        <ele>192</ele>
        <time>2025-12-29T12:59:45.875Z</time>
      </trkpt>
      <trkpt lat="43.14836" lon="3.0792">
        <ele>191</ele>
        <time>2025-12-29T12:59:46.875Z</time>
      </trkpt>
      <trkpt lat="43.14835" lon="3.07918">
        <ele>191</ele>
        <time>2025-12-29T12:59:47.875Z</time>
      </trkpt>
      <trkpt lat="43.14835" lon="3.07916">
        <ele>191</ele>
        <time>2025-12-29T12:59:48.875Z</time>
      </trkpt>
      <trkpt lat="43.14834" lon="3.07914">
        <ele>191</ele>
        <time>2025-12-29T12:59:49.875Z</time>
      </trkpt>
      <trkpt lat="43.14834" lon="3.07912">
        <ele>191</ele>
        <time>2025-12-29T12:59:50.875Z</time>
      </trkpt>
      <trkpt lat="43.14833" lon="3.07911">
        <ele>191</ele>
        <time>2025-12-29T12:59:51.875Z</time>
      </trkpt>
      <trkpt lat="43.14833" lon="3.0791">
        <ele>191</ele>
        <time>2025-12-29T12:59:52.875Z</time>
      </trkpt>
      <trkpt lat="43.14832" lon="3.07908">
        <ele>191</ele>
        <time>2025-12-29T12:59:53.875Z</time>
      </trkpt>
      <trkpt lat="43.14831" lon="3.07907">
        <ele>191</ele>
        <time>2025-12-29T12:59:54.875Z</time>
      </trkpt>
      <trkpt lat="43.14831" lon="3.07906">
        <ele>191</ele>
        <time>2025-12-29T12:59:55.875Z</time>
      </trkpt>
      <trkpt lat="43.1483" lon="3.07904">
        <ele>191</ele>
        <time>2025-12-29T12:59:56.875Z</time>
      </trkpt>
      <trkpt lat="43.1483" lon="3.07902">
        <ele>192</ele>
        <time>2025-12-29T12:59:57.875Z</time>
      </trkpt>
      <trkpt lat="43.14829" lon="3.079">
        <ele>192</ele>
        <time>2025-12-29T12:59:58.875Z</time>
      </trkpt>
      <trkpt lat="43.14828" lon="3.07898">
        <ele>192</ele>
        <time>2025-12-29T12:59:59.875Z</time>
      </trkpt>
      <trkpt lat="43.14828" lon="3.07896">
        <ele>193</ele>
        <time>2025-12-29T13:00:00.875Z</time>
      </trkpt>
      <trkpt lat="43.14827" lon="3.07895">
        <ele>194</ele>
        <time>2025-12-29T13:00:01.875Z</time>
      </trkpt>
      <trkpt lat="43.14826" lon="3.07892">
        <ele>194</ele>
        <time>2025-12-29T13:00:02.875Z</time>
      </trkpt>
      <trkpt lat="43.14825" lon="3.07891">
        <ele>194</ele>
        <time>2025-12-29T13:00:03.875Z</time>
      </trkpt>
      <trkpt lat="43.14824" lon="3.0789">
        <ele>194</ele>
        <time>2025-12-29T13:00:04.875Z</time>
      </trkpt>
      <trkpt lat="43.14823" lon="3.07889">
        <ele>194</ele>
        <time>2025-12-29T13:00:05.875Z</time>
      </trkpt>
      <trkpt lat="43.14822" lon="3.07887">
        <ele>194</ele>
        <time>2025-12-29T13:00:06.875Z</time>
      </trkpt>
      <trkpt lat="43.14822" lon="3.07886">
        <ele>195</ele>
        <time>2025-12-29T13:00:07.875Z</time>
      </trkpt>
      <trkpt lat="43.14822" lon="3.07884">
        <ele>195</ele>
        <time>2025-12-29T13:00:08.875Z</time>
      </trkpt>
      <trkpt lat="43.14821" lon="3.07883">
        <ele>195</ele>
        <time>2025-12-29T13:00:09.875Z</time>
      </trkpt>
      <trkpt lat="43.1482" lon="3.07881">
        <ele>195</ele>
        <time>2025-12-29T13:00:10.875Z</time>
      </trkpt>
      <trkpt lat="43.1482" lon="3.0788">
        <ele>194</ele>
        <time>2025-12-29T13:00:11.875Z</time>
      </trkpt>
      <trkpt lat="43.14819" lon="3.07878">
        <ele>194</ele>
        <time>2025-12-29T13:00:12.875Z</time>
      </trkpt>
      <trkpt lat="43.14819" lon="3.07876">
        <ele>194</ele>
        <time>2025-12-29T13:00:13.875Z</time>
      </trkpt>
      <trkpt lat="43.14818" lon="3.07874">
        <ele>194</ele>
        <time>2025-12-29T13:00:14.875Z</time>
      </trkpt>
      <trkpt lat="43.14817" lon="3.07872">
        <ele>193</ele>
        <time>2025-12-29T13:00:15.875Z</time>
      </trkpt>
      <trkpt lat="43.14816" lon="3.0787">
        <ele>193</ele>
        <time>2025-12-29T13:00:16.875Z</time>
      </trkpt>
      <trkpt lat="43.14815" lon="3.07869">
        <ele>194</ele>
        <time>2025-12-29T13:00:17.875Z</time>
      </trkpt>
      <trkpt lat="43.14814" lon="3.07868">
        <ele>194</ele>
        <time>2025-12-29T13:00:18.875Z</time>
      </trkpt>
      <trkpt lat="43.14813" lon="3.07867">
        <ele>194</ele>
        <time>2025-12-29T13:00:19.875Z</time>
      </trkpt>
      <trkpt lat="43.14812" lon="3.07866">
        <ele>195</ele>
        <time>2025-12-29T13:00:20.875Z</time>
      </trkpt>
      <trkpt lat="43.14812" lon="3.07866">
        <ele>195</ele>
        <time>2025-12-29T13:00:21.875Z</time>
      </trkpt>
      <trkpt lat="43.14811" lon="3.07865">
        <ele>195</ele>
        <time>2025-12-29T13:00:22.875Z</time>
      </trkpt>
      <trkpt lat="43.1481" lon="3.07864">
        <ele>195</ele>
        <time>2025-12-29T13:00:23.875Z</time>
      </trkpt>
      <trkpt lat="43.14809" lon="3.07864">
        <ele>195</ele>
        <time>2025-12-29T13:00:24.875Z</time>
      </trkpt>
      <trkpt lat="43.14809" lon="3.07863">
        <ele>196</ele>
        <time>2025-12-29T13:00:25.875Z</time>
      </trkpt>
      <trkpt lat="43.14808" lon="3.07862">
        <ele>196</ele>
        <time>2025-12-29T13:00:26.875Z</time>
      </trkpt>
      <trkpt lat="43.14807" lon="3.07861">
        <ele>196</ele>
        <time>2025-12-29T13:00:27.875Z</time>
      </trkpt>
      <trkpt lat="43.14806" lon="3.07859">
        <ele>196</ele>
        <time>2025-12-29T13:00:28.875Z</time>
      </trkpt>
      <trkpt lat="43.14805" lon="3.07858">
        <ele>196</ele>
        <time>2025-12-29T13:00:29.875Z</time>
      </trkpt>
      <trkpt lat="43.14804" lon="3.07857">
        <ele>196</ele>
        <time>2025-12-29T13:00:30.875Z</time>
      </trkpt>
      <trkpt lat="43.14803" lon="3.07856">
        <ele>195</ele>
        <time>2025-12-29T13:00:31.875Z</time>
      </trkpt>
      <trkpt lat="43.14802" lon="3.07855">
        <ele>195</ele>
        <time>2025-12-29T13:00:32.875Z</time>
      </trkpt>
      <trkpt lat="43.14801" lon="3.07854">
        <ele>195</ele>
        <time>2025-12-29T13:00:33.875Z</time>
      </trkpt>
      <trkpt lat="43.148" lon="3.07853">
        <ele>195</ele>
        <time>2025-12-29T13:00:34.875Z</time>
      </trkpt>
      <trkpt lat="43.14799" lon="3.07852">
        <ele>195</ele>
        <time>2025-12-29T13:00:35.875Z</time>
      </trkpt>
      <trkpt lat="43.14799" lon="3.07851">
        <ele>195</ele>
        <time>2025-12-29T13:00:36.875Z</time>
      </trkpt>
      <trkpt lat="43.14798" lon="3.0785">
        <ele>194</ele>
        <time>2025-12-29T13:00:37.875Z</time>
      </trkpt>
      <trkpt lat="43.14797" lon="3.07849">
        <ele>194</ele>
        <time>2025-12-29T13:00:38.875Z</time>
      </trkpt>
      <trkpt lat="43.14795" lon="3.07848">
        <ele>194</ele>
        <time>2025-12-29T13:00:39.875Z</time>
      </trkpt>
      <trkpt lat="43.14794" lon="3.07847">
        <ele>193</ele>
        <time>2025-12-29T13:00:40.875Z</time>
      </trkpt>
      <trkpt lat="43.14793" lon="3.07846">
        <ele>193</ele>
        <time>2025-12-29T13:00:41.875Z</time>
      </trkpt>
      <trkpt lat="43.14792" lon="3.07845">
        <ele>193</ele>
        <time>2025-12-29T13:00:42.875Z</time>
      </trkpt>
      <trkpt lat="43.14791" lon="3.07844">
        <ele>194</ele>
        <time>2025-12-29T13:00:43.875Z</time>
      </trkpt>
      <trkpt lat="43.1479" lon="3.07843">
        <ele>193</ele>
        <time>2025-12-29T13:00:44.875Z</time>
      </trkpt>
      <trkpt lat="43.14789" lon="3.07842">
        <ele>193</ele>
        <time>2025-12-29T13:00:45.875Z</time>
      </trkpt>
      <trkpt lat="43.14788" lon="3.07841">
        <ele>193</ele>
        <time>2025-12-29T13:00:46.875Z</time>
      </trkpt>
      <trkpt lat="43.14787" lon="3.07841">
        <ele>193</ele>
        <time>2025-12-29T13:00:47.875Z</time>
      </trkpt>
      <trkpt lat="43.14786" lon="3.07841">
        <ele>193</ele>
        <time>2025-12-29T13:00:48.875Z</time>
      </trkpt>
      <trkpt lat="43.14785" lon="3.07841">
        <ele>193</ele>
        <time>2025-12-29T13:00:49.875Z</time>
      </trkpt>
      <trkpt lat="43.14784" lon="3.0784">
        <ele>193</ele>
        <time>2025-12-29T13:00:50.875Z</time>
      </trkpt>
      <trkpt lat="43.14783" lon="3.0784">
        <ele>193</ele>
        <time>2025-12-29T13:00:51.875Z</time>
      </trkpt>
      <trkpt lat="43.14783" lon="3.0784">
        <ele>193</ele>
        <time>2025-12-29T13:00:52.875Z</time>
      </trkpt>
      <trkpt lat="43.14783" lon="3.0784">
        <ele>193</ele>
        <time>2025-12-29T13:00:53.875Z</time>
      </trkpt>
      <trkpt lat="43.14783" lon="3.0784">
        <ele>193</ele>
        <time>2025-12-29T13:00:54.875Z</time>
      </trkpt>
      <trkpt lat="43.14783" lon="3.0784">
        <ele>193</ele>
        <time>2025-12-29T13:00:55.875Z</time>
      </trkpt>
      <trkpt lat="43.14783" lon="3.0784">
        <ele>193</ele>
        <time>2025-12-29T13:00:56.875Z</time>
      </trkpt>
      <trkpt lat="43.14783" lon="3.0784">
        <ele>193</ele>
        <time>2025-12-29T13:00:57.875Z</time>
      </trkpt>
      <trkpt lat="43.14783" lon="3.0784">
        <ele>194</ele>
        <time>2025-12-29T13:00:58.875Z</time>
      </trkpt>
      <trkpt lat="43.14783" lon="3.0784">
        <ele>194</ele>
        <time>2025-12-29T13:00:59.875Z</time>
      </trkpt>
      <trkpt lat="43.14783" lon="3.0784">
        <ele>194</ele>
        <time>2025-12-29T13:01:00.875Z</time>
      </trkpt>
      <trkpt lat="43.14783" lon="3.0784">
        <ele>194</ele>
        <time>2025-12-29T13:01:01.875Z</time>
      </trkpt>
      <trkpt lat="43.14783" lon="3.0784">
        <ele>194</ele>
        <time>2025-12-29T13:01:02.875Z</time>
      </trkpt>
      <trkpt lat="43.14782" lon="3.07841">
        <ele>193</ele>
        <time>2025-12-29T13:01:03.875Z</time>
      </trkpt>
      <trkpt lat="43.14782" lon="3.07841">
        <ele>193</ele>
        <time>2025-12-29T13:01:04.875Z</time>
      </trkpt>
      <trkpt lat="43.14782" lon="3.07842">
        <ele>193</ele>
        <time>2025-12-29T13:01:05.875Z</time>
      </trkpt>
      <trkpt lat="43.14782" lon="3.07842">
        <ele>193</ele>
        <time>2025-12-29T13:01:06.875Z</time>
      </trkpt>
      <trkpt lat="43.14782" lon="3.07842">
        <ele>192</ele>
        <time>2025-12-29T13:01:07.875Z</time>
      </trkpt>
      <trkpt lat="43.14782" lon="3.07842">
        <ele>192</ele>
        <time>2025-12-29T13:01:08.875Z</time>
      </trkpt>
      <trkpt lat="43.14782" lon="3.07842">
        <ele>192</ele>
        <time>2025-12-29T13:01:09.875Z</time>
      </trkpt>
      <trkpt lat="43.14782" lon="3.07842">
        <ele>192</ele>
        <time>2025-12-29T13:01:10.875Z</time>
      </trkpt>
      <trkpt lat="43.14782" lon="3.07842">
        <ele>193</ele>
        <time>2025-12-29T13:01:11.875Z</time>
      </trkpt>
      <trkpt lat="43.14782" lon="3.07842">
        <ele>193</ele>
        <time>2025-12-29T13:01:12.875Z</time>
      </trkpt>
      <trkpt lat="43.14782" lon="3.07842">
        <ele>194</ele>
        <time>2025-12-29T13:01:13.875Z</time>
      </trkpt>
      <trkpt lat="43.14782" lon="3.07842">
        <ele>194</ele>
        <time>2025-12-29T13:01:14.875Z</time>
      </trkpt>
      <trkpt lat="43.14782" lon="3.07842">
        <ele>194</ele>
        <time>2025-12-29T13:01:15.875Z</time>
      </trkpt>
      <trkpt lat="43.14782" lon="3.07842">
        <ele>194</ele>
        <time>2025-12-29T13:01:16.875Z</time>
      </trkpt>
      <trkpt lat="43.14782" lon="3.07842">
        <ele>194</ele>
        <time>2025-12-29T13:01:17.875Z</time>
      </trkpt>
      <trkpt lat="43.14782" lon="3.07842">
        <ele>195</ele>
        <time>2025-12-29T13:01:18.875Z</time>
      </trkpt>
      <trkpt lat="43.14782" lon="3.07842">
        <ele>195</ele>
        <time>2025-12-29T13:01:19.875Z</time>
      </trkpt>
      <trkpt lat="43.14782" lon="3.07842">
        <ele>195</ele>
        <time>2025-12-29T13:01:20.875Z</time>
      </trkpt>
      <trkpt lat="43.14782" lon="3.07842">
        <ele>195</ele>
        <time>2025-12-29T13:01:21.875Z</time>
      </trkpt>
      <trkpt lat="43.14782" lon="3.07842">
        <ele>196</ele>
        <time>2025-12-29T13:01:22.875Z</time>
      </trkpt>
      <trkpt lat="43.14782" lon="3.07842">
        <ele>196</ele>
        <time>2025-12-29T13:01:23.875Z</time>
      </trkpt>
      <trkpt lat="43.14782" lon="3.07842">
        <ele>197</ele>
        <time>2025-12-29T13:01:24.875Z</time>
      </trkpt>
      <trkpt lat="43.14782" lon="3.07842">
        <ele>197</ele>
        <time>2025-12-29T13:01:25.875Z</time>
      </trkpt>
      <trkpt lat="43.14782" lon="3.07842">
        <ele>196</ele>
        <time>2025-12-29T13:01:26.875Z</time>
      </trkpt>
      <trkpt lat="43.14782" lon="3.07842">
        <ele>196</ele>
        <time>2025-12-29T13:01:27.875Z</time>
      </trkpt>
      <trkpt lat="43.14782" lon="3.07842">
        <ele>195</ele>
        <time>2025-12-29T13:01:28.875Z</time>
      </trkpt>
      <trkpt lat="43.14782" lon="3.07843">
        <ele>194</ele>
        <time>2025-12-29T13:01:29.875Z</time>
      </trkpt>
      <trkpt lat="43.14782" lon="3.07843">
        <ele>194</ele>
        <time>2025-12-29T13:01:30.875Z</time>
      </trkpt>
      <trkpt lat="43.14782" lon="3.07842">
        <ele>194</ele>
        <time>2025-12-29T13:01:31.875Z</time>
      </trkpt>
      <trkpt lat="43.14782" lon="3.07842">
        <ele>193</ele>
        <time>2025-12-29T13:01:32.875Z</time>
      </trkpt>
      <trkpt lat="43.14782" lon="3.07842">
        <ele>193</ele>
        <time>2025-12-29T13:01:33.875Z</time>
      </trkpt>
      <trkpt lat="43.14781" lon="3.07842">
        <ele>193</ele>
        <time>2025-12-29T13:01:34.875Z</time>
      </trkpt>
      <trkpt lat="43.1478" lon="3.07842">
        <ele>193</ele>
        <time>2025-12-29T13:01:35.875Z</time>
      </trkpt>
      <trkpt lat="43.14779" lon="3.07842">
        <ele>193</ele>
        <time>2025-12-29T13:01:36.875Z</time>
      </trkpt>
      <trkpt lat="43.14778" lon="3.07842">
        <ele>193</ele>
        <time>2025-12-29T13:01:37.875Z</time>
      </trkpt>
      <trkpt lat="43.14777" lon="3.07842">
        <ele>193</ele>
        <time>2025-12-29T13:01:38.875Z</time>
      </trkpt>
      <trkpt lat="43.14775" lon="3.07842">
        <ele>193</ele>
        <time>2025-12-29T13:01:39.875Z</time>
      </trkpt>
      <trkpt lat="43.14774" lon="3.07842">
        <ele>193</ele>
        <time>2025-12-29T13:01:40.875Z</time>
      </trkpt>
      <trkpt lat="43.14773" lon="3.07842">
        <ele>193</ele>
        <time>2025-12-29T13:01:41.875Z</time>
      </trkpt>
      <trkpt lat="43.14772" lon="3.07842">
        <ele>193</ele>
        <time>2025-12-29T13:01:42.875Z</time>
      </trkpt>
      <trkpt lat="43.14771" lon="3.07842">
        <ele>193</ele>
        <time>2025-12-29T13:01:43.875Z</time>
      </trkpt>
      <trkpt lat="43.14769" lon="3.07841">
        <ele>194</ele>
        <time>2025-12-29T13:01:44.875Z</time>
      </trkpt>
      <trkpt lat="43.14768" lon="3.07841">
        <ele>194</ele>
        <time>2025-12-29T13:01:45.875Z</time>
      </trkpt>
      <trkpt lat="43.14767" lon="3.0784">
        <ele>194</ele>
        <time>2025-12-29T13:01:46.875Z</time>
      </trkpt>
      <trkpt lat="43.14766" lon="3.0784">
        <ele>194</ele>
        <time>2025-12-29T13:01:47.875Z</time>
      </trkpt>
      <trkpt lat="43.14764" lon="3.07839">
        <ele>194</ele>
        <time>2025-12-29T13:01:48.875Z</time>
      </trkpt>
      <trkpt lat="43.14763" lon="3.07839">
        <ele>194</ele>
        <time>2025-12-29T13:01:49.875Z</time>
      </trkpt>
      <trkpt lat="43.14762" lon="3.07839">
        <ele>195</ele>
        <time>2025-12-29T13:01:50.875Z</time>
      </trkpt>
      <trkpt lat="43.14761" lon="3.07838">
        <ele>195</ele>
        <time>2025-12-29T13:01:51.875Z</time>
      </trkpt>
      <trkpt lat="43.1476" lon="3.07837">
        <ele>195</ele>
        <time>2025-12-29T13:01:52.875Z</time>
      </trkpt>
      <trkpt lat="43.14759" lon="3.07836">
        <ele>196</ele>
        <time>2025-12-29T13:01:53.875Z</time>
      </trkpt>
      <trkpt lat="43.14757" lon="3.07835">
        <ele>196</ele>
        <time>2025-12-29T13:01:54.875Z</time>
      </trkpt>
      <trkpt lat="43.14756" lon="3.07834">
        <ele>196</ele>
        <time>2025-12-29T13:01:55.875Z</time>
      </trkpt>
      <trkpt lat="43.14755" lon="3.07833">
        <ele>197</ele>
        <time>2025-12-29T13:01:56.875Z</time>
      </trkpt>
      <trkpt lat="43.14754" lon="3.07832">
        <ele>197</ele>
        <time>2025-12-29T13:01:57.875Z</time>
      </trkpt>
      <trkpt lat="43.14753" lon="3.07831">
        <ele>197</ele>
        <time>2025-12-29T13:01:58.875Z</time>
      </trkpt>
      <trkpt lat="43.14752" lon="3.07831">
        <ele>197</ele>
        <time>2025-12-29T13:01:59.875Z</time>
      </trkpt>
      <trkpt lat="43.1475" lon="3.0783">
        <ele>197</ele>
        <time>2025-12-29T13:02:00.875Z</time>
      </trkpt>
      <trkpt lat="43.14749" lon="3.07829">
        <ele>197</ele>
        <time>2025-12-29T13:02:01.875Z</time>
      </trkpt>
      <trkpt lat="43.14748" lon="3.07829">
        <ele>197</ele>
        <time>2025-12-29T13:02:02.875Z</time>
      </trkpt>
      <trkpt lat="43.14747" lon="3.07828">
        <ele>197</ele>
        <time>2025-12-29T13:02:03.875Z</time>
      </trkpt>
      <trkpt lat="43.14746" lon="3.07827">
        <ele>197</ele>
        <time>2025-12-29T13:02:04.875Z</time>
      </trkpt>
      <trkpt lat="43.14744" lon="3.07826">
        <ele>197</ele>
        <time>2025-12-29T13:02:05.875Z</time>
      </trkpt>
      <trkpt lat="43.14743" lon="3.07825">
        <ele>197</ele>
        <time>2025-12-29T13:02:06.875Z</time>
      </trkpt>
      <trkpt lat="43.14742" lon="3.07824">
        <ele>197</ele>
        <time>2025-12-29T13:02:07.875Z</time>
      </trkpt>
      <trkpt lat="43.14741" lon="3.07823">
        <ele>198</ele>
        <time>2025-12-29T13:02:08.875Z</time>
      </trkpt>
      <trkpt lat="43.14739" lon="3.07822">
        <ele>197</ele>
        <time>2025-12-29T13:02:09.875Z</time>
      </trkpt>
      <trkpt lat="43.14738" lon="3.07821">
        <ele>197</ele>
        <time>2025-12-29T13:02:10.875Z</time>
      </trkpt>
      <trkpt lat="43.14737" lon="3.0782">
        <ele>197</ele>
        <time>2025-12-29T13:02:11.875Z</time>
      </trkpt>
      <trkpt lat="43.14735" lon="3.0782">
        <ele>197</ele>
        <time>2025-12-29T13:02:12.875Z</time>
      </trkpt>
      <trkpt lat="43.14734" lon="3.07819">
        <ele>196</ele>
        <time>2025-12-29T13:02:13.875Z</time>
      </trkpt>
      <trkpt lat="43.14733" lon="3.07819">
        <ele>196</ele>
        <time>2025-12-29T13:02:14.875Z</time>
      </trkpt>
      <trkpt lat="43.14732" lon="3.0782">
        <ele>196</ele>
        <time>2025-12-29T13:02:15.875Z</time>
      </trkpt>
      <trkpt lat="43.14731" lon="3.0782">
        <ele>196</ele>
        <time>2025-12-29T13:02:16.875Z</time>
      </trkpt>
      <trkpt lat="43.1473" lon="3.0782">
        <ele>196</ele>
        <time>2025-12-29T13:02:17.875Z</time>
      </trkpt>
      <trkpt lat="43.14729" lon="3.0782">
        <ele>196</ele>
        <time>2025-12-29T13:02:18.875Z</time>
      </trkpt>
      <trkpt lat="43.14729" lon="3.0782">
        <ele>195</ele>
        <time>2025-12-29T13:02:19.875Z</time>
      </trkpt>
      <trkpt lat="43.14729" lon="3.0782">
        <ele>195</ele>
        <time>2025-12-29T13:02:20.875Z</time>
      </trkpt>
      <trkpt lat="43.14729" lon="3.0782">
        <ele>194</ele>
        <time>2025-12-29T13:02:21.875Z</time>
      </trkpt>
      <trkpt lat="43.14729" lon="3.0782">
        <ele>194</ele>
        <time>2025-12-29T13:02:22.875Z</time>
      </trkpt>
      <trkpt lat="43.14729" lon="3.0782">
        <ele>193</ele>
        <time>2025-12-29T13:02:23.875Z</time>
      </trkpt>
      <trkpt lat="43.14729" lon="3.0782">
        <ele>193</ele>
        <time>2025-12-29T13:02:24.875Z</time>
      </trkpt>
      <trkpt lat="43.14729" lon="3.0782">
        <ele>193</ele>
        <time>2025-12-29T13:02:25.875Z</time>
      </trkpt>
      <trkpt lat="43.14729" lon="3.0782">
        <ele>193</ele>
        <time>2025-12-29T13:02:26.875Z</time>
      </trkpt>
      <trkpt lat="43.14729" lon="3.0782">
        <ele>193</ele>
        <time>2025-12-29T13:02:27.875Z</time>
      </trkpt>
      <trkpt lat="43.14729" lon="3.0782">
        <ele>193</ele>
        <time>2025-12-29T13:02:28.875Z</time>
      </trkpt>
      <trkpt lat="43.14729" lon="3.0782">
        <ele>193</ele>
        <time>2025-12-29T13:02:29.875Z</time>
      </trkpt>
      <trkpt lat="43.14729" lon="3.0782">
        <ele>193</ele>
        <time>2025-12-29T13:02:30.875Z</time>
      </trkpt>
      <trkpt lat="43.14728" lon="3.0782">
        <ele>194</ele>
        <time>2025-12-29T13:02:31.875Z</time>
      </trkpt>
      <trkpt lat="43.14727" lon="3.0782">
        <ele>194</ele>
        <time>2025-12-29T13:02:32.875Z</time>
      </trkpt>
      <trkpt lat="43.14726" lon="3.07821">
        <ele>194</ele>
        <time>2025-12-29T13:02:33.875Z</time>
      </trkpt>
      <trkpt lat="43.14725" lon="3.07821">
        <ele>194</ele>
        <time>2025-12-29T13:02:34.875Z</time>
      </trkpt>
      <trkpt lat="43.14724" lon="3.0782">
        <ele>193</ele>
        <time>2025-12-29T13:02:35.875Z</time>
      </trkpt>
      <trkpt lat="43.14723" lon="3.0782">
        <ele>193</ele>
        <time>2025-12-29T13:02:36.875Z</time>
      </trkpt>
      <trkpt lat="43.14722" lon="3.0782">
        <ele>193</ele>
        <time>2025-12-29T13:02:37.875Z</time>
      </trkpt>
      <trkpt lat="43.1472" lon="3.0782">
        <ele>193</ele>
        <time>2025-12-29T13:02:38.875Z</time>
      </trkpt>
      <trkpt lat="43.14719" lon="3.0782">
        <ele>193</ele>
        <time>2025-12-29T13:02:39.875Z</time>
      </trkpt>
      <trkpt lat="43.14719" lon="3.0782">
        <ele>193</ele>
        <time>2025-12-29T13:02:40.875Z</time>
      </trkpt>
      <trkpt lat="43.14718" lon="3.0782">
        <ele>193</ele>
        <time>2025-12-29T13:02:41.875Z</time>
      </trkpt>
      <trkpt lat="43.14718" lon="3.0782">
        <ele>194</ele>
        <time>2025-12-29T13:02:42.875Z</time>
      </trkpt>
      <trkpt lat="43.14718" lon="3.0782">
        <ele>194</ele>
        <time>2025-12-29T13:02:43.875Z</time>
      </trkpt>
      <trkpt lat="43.14718" lon="3.0782">
        <ele>194</ele>
        <time>2025-12-29T13:02:44.875Z</time>
      </trkpt>
      <trkpt lat="43.14718" lon="3.0782">
        <ele>194</ele>
        <time>2025-12-29T13:02:45.875Z</time>
      </trkpt>
      <trkpt lat="43.14718" lon="3.07819">
        <ele>194</ele>
        <time>2025-12-29T13:02:46.875Z</time>
      </trkpt>
      <trkpt lat="43.14718" lon="3.07819">
        <ele>195</ele>
        <time>2025-12-29T13:02:47.875Z</time>
      </trkpt>
      <trkpt lat="43.14718" lon="3.07819">
        <ele>195</ele>
        <time>2025-12-29T13:02:48.875Z</time>
      </trkpt>
      <trkpt lat="43.14718" lon="3.07819">
        <ele>195</ele>
        <time>2025-12-29T13:02:49.875Z</time>
      </trkpt>
      <trkpt lat="43.14718" lon="3.0782">
        <ele>195</ele>
        <time>2025-12-29T13:02:50.875Z</time>
      </trkpt>
      <trkpt lat="43.14718" lon="3.07819">
        <ele>195</ele>
        <time>2025-12-29T13:02:51.875Z</time>
      </trkpt>
      <trkpt lat="43.14719" lon="3.0782">
        <ele>194</ele>
        <time>2025-12-29T13:02:52.875Z</time>
      </trkpt>
      <trkpt lat="43.1472" lon="3.0782">
        <ele>194</ele>
        <time>2025-12-29T13:02:53.875Z</time>
      </trkpt>
      <trkpt lat="43.14721" lon="3.0782">
        <ele>194</ele>
        <time>2025-12-29T13:02:54.875Z</time>
      </trkpt>
      <trkpt lat="43.14722" lon="3.0782">
        <ele>194</ele>
        <time>2025-12-29T13:02:55.875Z</time>
      </trkpt>
      <trkpt lat="43.14723" lon="3.0782">
        <ele>194</ele>
        <time>2025-12-29T13:02:56.875Z</time>
      </trkpt>
      <trkpt lat="43.14724" lon="3.0782">
        <ele>194</ele>
        <time>2025-12-29T13:02:57.875Z</time>
      </trkpt>
      <trkpt lat="43.14726" lon="3.0782">
        <ele>194</ele>
        <time>2025-12-29T13:02:58.875Z</time>
      </trkpt>
      <trkpt lat="43.14727" lon="3.0782">
        <ele>194</ele>
        <time>2025-12-29T13:02:59.875Z</time>
      </trkpt>
      <trkpt lat="43.14728" lon="3.07819">
        <ele>194</ele>
        <time>2025-12-29T13:03:00.875Z</time>
      </trkpt>
      <trkpt lat="43.14729" lon="3.07818">
        <ele>193</ele>
        <time>2025-12-29T13:03:01.875Z</time>
      </trkpt>
      <trkpt lat="43.14729" lon="3.07817">
        <ele>194</ele>
        <time>2025-12-29T13:03:02.875Z</time>
      </trkpt>
      <trkpt lat="43.14729" lon="3.07816">
        <ele>194</ele>
        <time>2025-12-29T13:03:03.875Z</time>
      </trkpt>
      <trkpt lat="43.14729" lon="3.07814">
        <ele>194</ele>
        <time>2025-12-29T13:03:04.875Z</time>
      </trkpt>
      <trkpt lat="43.1473" lon="3.07812">
        <ele>195</ele>
        <time>2025-12-29T13:03:05.875Z</time>
      </trkpt>
      <trkpt lat="43.1473" lon="3.07811">
        <ele>195</ele>
        <time>2025-12-29T13:03:06.875Z</time>
      </trkpt>
      <trkpt lat="43.1473" lon="3.0781">
        <ele>195</ele>
        <time>2025-12-29T13:03:07.875Z</time>
      </trkpt>
      <trkpt lat="43.1473" lon="3.0781">
        <ele>195</ele>
        <time>2025-12-29T13:03:08.875Z</time>
      </trkpt>
      <trkpt lat="43.1473" lon="3.07809">
        <ele>196</ele>
        <time>2025-12-29T13:03:09.875Z</time>
      </trkpt>
      <trkpt lat="43.14731" lon="3.07808">
        <ele>196</ele>
        <time>2025-12-29T13:03:10.875Z</time>
      </trkpt>
      <trkpt lat="43.14732" lon="3.07808">
        <ele>196</ele>
        <time>2025-12-29T13:03:11.875Z</time>
      </trkpt>
      <trkpt lat="43.14732" lon="3.07807">
        <ele>196</ele>
        <time>2025-12-29T13:03:12.875Z</time>
      </trkpt>
      <trkpt lat="43.14733" lon="3.07806">
        <ele>196</ele>
        <time>2025-12-29T13:03:13.875Z</time>
      </trkpt>
      <trkpt lat="43.14734" lon="3.07805">
        <ele>196</ele>
        <time>2025-12-29T13:03:14.875Z</time>
      </trkpt>
      <trkpt lat="43.14735" lon="3.07804">
        <ele>196</ele>
        <time>2025-12-29T13:03:15.875Z</time>
      </trkpt>
      <trkpt lat="43.14735" lon="3.07803">
        <ele>196</ele>
        <time>2025-12-29T13:03:16.875Z</time>
      </trkpt>
      <trkpt lat="43.14736" lon="3.07802">
        <ele>196</ele>
        <time>2025-12-29T13:03:17.875Z</time>
      </trkpt>
      <trkpt lat="43.14737" lon="3.07801">
        <ele>196</ele>
        <time>2025-12-29T13:03:18.875Z</time>
      </trkpt>
      <trkpt lat="43.14737" lon="3.078">
        <ele>196</ele>
        <time>2025-12-29T13:03:19.875Z</time>
      </trkpt>
      <trkpt lat="43.14738" lon="3.07798">
        <ele>196</ele>
        <time>2025-12-29T13:03:20.875Z</time>
      </trkpt>
      <trkpt lat="43.14739" lon="3.07797">
        <ele>196</ele>
        <time>2025-12-29T13:03:21.875Z</time>
      </trkpt>
      <trkpt lat="43.14739" lon="3.07796">
        <ele>197</ele>
        <time>2025-12-29T13:03:22.875Z</time>
      </trkpt>
      <trkpt lat="43.1474" lon="3.07796">
        <ele>197</ele>
        <time>2025-12-29T13:03:23.875Z</time>
      </trkpt>
      <trkpt lat="43.14741" lon="3.07795">
        <ele>197</ele>
        <time>2025-12-29T13:03:24.875Z</time>
      </trkpt>
      <trkpt lat="43.14742" lon="3.07795">
        <ele>197</ele>
        <time>2025-12-29T13:03:25.875Z</time>
      </trkpt>
      <trkpt lat="43.14743" lon="3.07796">
        <ele>196</ele>
        <time>2025-12-29T13:03:26.875Z</time>
      </trkpt>
      <trkpt lat="43.14744" lon="3.07796">
        <ele>196</ele>
        <time>2025-12-29T13:03:27.875Z</time>
      </trkpt>
      <trkpt lat="43.14745" lon="3.07796">
        <ele>196</ele>
        <time>2025-12-29T13:03:28.875Z</time>
      </trkpt>
      <trkpt lat="43.14745" lon="3.07797">
        <ele>196</ele>
        <time>2025-12-29T13:03:29.875Z</time>
      </trkpt>
      <trkpt lat="43.14746" lon="3.07797">
        <ele>196</ele>
        <time>2025-12-29T13:03:30.875Z</time>
      </trkpt>
      <trkpt lat="43.14747" lon="3.07797">
        <ele>196</ele>
        <time>2025-12-29T13:03:31.875Z</time>
      </trkpt>
      <trkpt lat="43.14748" lon="3.07797">
        <ele>197</ele>
        <time>2025-12-29T13:03:32.875Z</time>
      </trkpt>
      <trkpt lat="43.14748" lon="3.07796">
        <ele>197</ele>
        <time>2025-12-29T13:03:33.875Z</time>
      </trkpt>
      <trkpt lat="43.14749" lon="3.07796">
        <ele>197</ele>
        <time>2025-12-29T13:03:34.875Z</time>
      </trkpt>
      <trkpt lat="43.14749" lon="3.07795">
        <ele>197</ele>
        <time>2025-12-29T13:03:35.875Z</time>
      </trkpt>
      <trkpt lat="43.14749" lon="3.07795">
        <ele>197</ele>
        <time>2025-12-29T13:03:36.875Z</time>
      </trkpt>
      <trkpt lat="43.14748" lon="3.07794">
        <ele>197</ele>
        <time>2025-12-29T13:03:37.875Z</time>
      </trkpt>
      <trkpt lat="43.14748" lon="3.07793">
        <ele>197</ele>
        <time>2025-12-29T13:03:38.875Z</time>
      </trkpt>
      <trkpt lat="43.14747" lon="3.07792">
        <ele>198</ele>
        <time>2025-12-29T13:03:39.875Z</time>
      </trkpt>
      <trkpt lat="43.14746" lon="3.07791">
        <ele>198</ele>
        <time>2025-12-29T13:03:40.875Z</time>
      </trkpt>
      <trkpt lat="43.14745" lon="3.0779">
        <ele>198</ele>
        <time>2025-12-29T13:03:41.875Z</time>
      </trkpt>
      <trkpt lat="43.14744" lon="3.07789">
        <ele>198</ele>
        <time>2025-12-29T13:03:42.875Z</time>
      </trkpt>
      <trkpt lat="43.14743" lon="3.07788">
        <ele>198</ele>
        <time>2025-12-29T13:03:43.875Z</time>
      </trkpt>
      <trkpt lat="43.14742" lon="3.07787">
        <ele>198</ele>
        <time>2025-12-29T13:03:44.875Z</time>
      </trkpt>
      <trkpt lat="43.14742" lon="3.07786">
        <ele>198</ele>
        <time>2025-12-29T13:03:45.875Z</time>
      </trkpt>
      <trkpt lat="43.14741" lon="3.07785">
        <ele>198</ele>
        <time>2025-12-29T13:03:46.875Z</time>
      </trkpt>
      <trkpt lat="43.1474" lon="3.07783">
        <ele>198</ele>
        <time>2025-12-29T13:03:47.875Z</time>
      </trkpt>
      <trkpt lat="43.14739" lon="3.07782">
        <ele>198</ele>
        <time>2025-12-29T13:03:48.875Z</time>
      </trkpt>
      <trkpt lat="43.14739" lon="3.07781">
        <ele>198</ele>
        <time>2025-12-29T13:03:49.875Z</time>
      </trkpt>
      <trkpt lat="43.14738" lon="3.07779">
        <ele>198</ele>
        <time>2025-12-29T13:03:50.875Z</time>
      </trkpt>
      <trkpt lat="43.14737" lon="3.07777">
        <ele>198</ele>
        <time>2025-12-29T13:03:51.875Z</time>
      </trkpt>
      <trkpt lat="43.14736" lon="3.07776">
        <ele>198</ele>
        <time>2025-12-29T13:03:52.875Z</time>
      </trkpt>
      <trkpt lat="43.14735" lon="3.07774">
        <ele>198</ele>
        <time>2025-12-29T13:03:53.875Z</time>
      </trkpt>
      <trkpt lat="43.14735" lon="3.07773">
        <ele>198</ele>
        <time>2025-12-29T13:03:54.875Z</time>
      </trkpt>
      <trkpt lat="43.14734" lon="3.07772">
        <ele>198</ele>
        <time>2025-12-29T13:03:55.875Z</time>
      </trkpt>
      <trkpt lat="43.14734" lon="3.07771">
        <ele>198</ele>
        <time>2025-12-29T13:03:56.875Z</time>
      </trkpt>
      <trkpt lat="43.14733" lon="3.0777">
        <ele>197</ele>
        <time>2025-12-29T13:03:57.875Z</time>
      </trkpt>
      <trkpt lat="43.14732" lon="3.07769">
        <ele>197</ele>
        <time>2025-12-29T13:03:58.875Z</time>
      </trkpt>
      <trkpt lat="43.14732" lon="3.07767">
        <ele>197</ele>
        <time>2025-12-29T13:03:59.875Z</time>
      </trkpt>
      <trkpt lat="43.14732" lon="3.07766">
        <ele>197</ele>
        <time>2025-12-29T13:04:00.875Z</time>
      </trkpt>
      <trkpt lat="43.14731" lon="3.07765">
        <ele>197</ele>
        <time>2025-12-29T13:04:01.875Z</time>
      </trkpt>
      <trkpt lat="43.14731" lon="3.07764">
        <ele>196</ele>
        <time>2025-12-29T13:04:02.875Z</time>
      </trkpt>
      <trkpt lat="43.1473" lon="3.07762">
        <ele>196</ele>
        <time>2025-12-29T13:04:03.875Z</time>
      </trkpt>
      <trkpt lat="43.1473" lon="3.07761">
        <ele>196</ele>
        <time>2025-12-29T13:04:04.875Z</time>
      </trkpt>
      <trkpt lat="43.1473" lon="3.07759">
        <ele>196</ele>
        <time>2025-12-29T13:04:05.875Z</time>
      </trkpt>
      <trkpt lat="43.1473" lon="3.07758">
        <ele>196</ele>
        <time>2025-12-29T13:04:06.875Z</time>
      </trkpt>
      <trkpt lat="43.14729" lon="3.07756">
        <ele>196</ele>
        <time>2025-12-29T13:04:07.875Z</time>
      </trkpt>
      <trkpt lat="43.14729" lon="3.07755">
        <ele>196</ele>
        <time>2025-12-29T13:04:08.875Z</time>
      </trkpt>
      <trkpt lat="43.14729" lon="3.07754">
        <ele>196</ele>
        <time>2025-12-29T13:04:09.875Z</time>
      </trkpt>
      <trkpt lat="43.14728" lon="3.07753">
        <ele>196</ele>
        <time>2025-12-29T13:04:10.875Z</time>
      </trkpt>
      <trkpt lat="43.14728" lon="3.07752">
        <ele>195</ele>
        <time>2025-12-29T13:04:11.875Z</time>
      </trkpt>
      <trkpt lat="43.14727" lon="3.07751">
        <ele>195</ele>
        <time>2025-12-29T13:04:12.875Z</time>
      </trkpt>
      <trkpt lat="43.14727" lon="3.0775">
        <ele>195</ele>
        <time>2025-12-29T13:04:13.875Z</time>
      </trkpt>
      <trkpt lat="43.14726" lon="3.07748">
        <ele>195</ele>
        <time>2025-12-29T13:04:14.875Z</time>
      </trkpt>
      <trkpt lat="43.14725" lon="3.07746">
        <ele>195</ele>
        <time>2025-12-29T13:04:15.875Z</time>
      </trkpt>
      <trkpt lat="43.14724" lon="3.07745">
        <ele>195</ele>
        <time>2025-12-29T13:04:16.875Z</time>
      </trkpt>
      <trkpt lat="43.14724" lon="3.07744">
        <ele>195</ele>
        <time>2025-12-29T13:04:17.875Z</time>
      </trkpt>
      <trkpt lat="43.14723" lon="3.07743">
        <ele>195</ele>
        <time>2025-12-29T13:04:18.875Z</time>
      </trkpt>
      <trkpt lat="43.14722" lon="3.07742">
        <ele>195</ele>
        <time>2025-12-29T13:04:19.875Z</time>
      </trkpt>
      <trkpt lat="43.14721" lon="3.07741">
        <ele>195</ele>
        <time>2025-12-29T13:04:20.875Z</time>
      </trkpt>
      <trkpt lat="43.1472" lon="3.0774">
        <ele>195</ele>
        <time>2025-12-29T13:04:21.875Z</time>
      </trkpt>
      <trkpt lat="43.14719" lon="3.07739">
        <ele>195</ele>
        <time>2025-12-29T13:04:22.875Z</time>
      </trkpt>
      <trkpt lat="43.14718" lon="3.07738">
        <ele>195</ele>
        <time>2025-12-29T13:04:23.875Z</time>
      </trkpt>
      <trkpt lat="43.14717" lon="3.07736">
        <ele>195</ele>
        <time>2025-12-29T13:04:24.875Z</time>
      </trkpt>
      <trkpt lat="43.14717" lon="3.07735">
        <ele>195</ele>
        <time>2025-12-29T13:04:25.875Z</time>
      </trkpt>
      <trkpt lat="43.14716" lon="3.07734">
        <ele>195</ele>
        <time>2025-12-29T13:04:26.875Z</time>
      </trkpt>
      <trkpt lat="43.14716" lon="3.07733">
        <ele>195</ele>
        <time>2025-12-29T13:04:27.875Z</time>
      </trkpt>
      <trkpt lat="43.14716" lon="3.07731">
        <ele>195</ele>
        <time>2025-12-29T13:04:28.875Z</time>
      </trkpt>
      <trkpt lat="43.14716" lon="3.0773">
        <ele>195</ele>
        <time>2025-12-29T13:04:29.875Z</time>
      </trkpt>
      <trkpt lat="43.14716" lon="3.07728">
        <ele>195</ele>
        <time>2025-12-29T13:04:30.875Z</time>
      </trkpt>
      <trkpt lat="43.14715" lon="3.07727">
        <ele>195</ele>
        <time>2025-12-29T13:04:31.875Z</time>
      </trkpt>
      <trkpt lat="43.14715" lon="3.07725">
        <ele>195</ele>
        <time>2025-12-29T13:04:32.875Z</time>
      </trkpt>
      <trkpt lat="43.14715" lon="3.07724">
        <ele>195</ele>
        <time>2025-12-29T13:04:33.875Z</time>
      </trkpt>
      <trkpt lat="43.14715" lon="3.07723">
        <ele>195</ele>
        <time>2025-12-29T13:04:34.875Z</time>
      </trkpt>
      <trkpt lat="43.14714" lon="3.07721">
        <ele>195</ele>
        <time>2025-12-29T13:04:35.875Z</time>
      </trkpt>
      <trkpt lat="43.14714" lon="3.0772">
        <ele>195</ele>
        <time>2025-12-29T13:04:36.875Z</time>
      </trkpt>
      <trkpt lat="43.14713" lon="3.07719">
        <ele>195</ele>
        <time>2025-12-29T13:04:37.875Z</time>
      </trkpt>
      <trkpt lat="43.14713" lon="3.07717">
        <ele>195</ele>
        <time>2025-12-29T13:04:38.875Z</time>
      </trkpt>
      <trkpt lat="43.14713" lon="3.07715">
        <ele>195</ele>
        <time>2025-12-29T13:04:39.875Z</time>
      </trkpt>
      <trkpt lat="43.14712" lon="3.07713">
        <ele>195</ele>
        <time>2025-12-29T13:04:40.875Z</time>
      </trkpt>
      <trkpt lat="43.14712" lon="3.07711">
        <ele>196</ele>
        <time>2025-12-29T13:04:41.875Z</time>
      </trkpt>
      <trkpt lat="43.14712" lon="3.0771">
        <ele>196</ele>
        <time>2025-12-29T13:04:42.875Z</time>
      </trkpt>
      <trkpt lat="43.14711" lon="3.07708">
        <ele>196</ele>
        <time>2025-12-29T13:04:43.875Z</time>
      </trkpt>
      <trkpt lat="43.1471" lon="3.07707">
        <ele>197</ele>
        <time>2025-12-29T13:04:44.875Z</time>
      </trkpt>
      <trkpt lat="43.14709" lon="3.07705">
        <ele>197</ele>
        <time>2025-12-29T13:04:45.875Z</time>
      </trkpt>
      <trkpt lat="43.14708" lon="3.07704">
        <ele>197</ele>
        <time>2025-12-29T13:04:46.875Z</time>
      </trkpt>
      <trkpt lat="43.14707" lon="3.07703">
        <ele>198</ele>
        <time>2025-12-29T13:04:47.875Z</time>
      </trkpt>
      <trkpt lat="43.14707" lon="3.07702">
        <ele>198</ele>
        <time>2025-12-29T13:04:48.875Z</time>
      </trkpt>
      <trkpt lat="43.14706" lon="3.07701">
        <ele>198</ele>
        <time>2025-12-29T13:04:49.875Z</time>
      </trkpt>
      <trkpt lat="43.14705" lon="3.077">
        <ele>197</ele>
        <time>2025-12-29T13:04:50.875Z</time>
      </trkpt>
      <trkpt lat="43.14704" lon="3.07699">
        <ele>197</ele>
        <time>2025-12-29T13:04:51.875Z</time>
      </trkpt>
      <trkpt lat="43.14702" lon="3.07698">
        <ele>196</ele>
        <time>2025-12-29T13:04:52.875Z</time>
      </trkpt>
      <trkpt lat="43.14701" lon="3.07696">
        <ele>196</ele>
        <time>2025-12-29T13:04:53.875Z</time>
      </trkpt>
      <trkpt lat="43.147" lon="3.07695">
        <ele>196</ele>
        <time>2025-12-29T13:04:54.875Z</time>
      </trkpt>
      <trkpt lat="43.14699" lon="3.07694">
        <ele>196</ele>
        <time>2025-12-29T13:04:55.875Z</time>
      </trkpt>
      <trkpt lat="43.14698" lon="3.07694">
        <ele>196</ele>
        <time>2025-12-29T13:04:56.875Z</time>
      </trkpt>
      <trkpt lat="43.14697" lon="3.07693">
        <ele>196</ele>
        <time>2025-12-29T13:04:57.875Z</time>
      </trkpt>
      <trkpt lat="43.14696" lon="3.07693">
        <ele>196</ele>
        <time>2025-12-29T13:04:58.875Z</time>
      </trkpt>
      <trkpt lat="43.14696" lon="3.07692">
        <ele>196</ele>
        <time>2025-12-29T13:04:59.875Z</time>
      </trkpt>
      <trkpt lat="43.14695" lon="3.07691">
        <ele>196</ele>
        <time>2025-12-29T13:05:00.875Z</time>
      </trkpt>
      <trkpt lat="43.14695" lon="3.0769">
        <ele>196</ele>
        <time>2025-12-29T13:05:01.875Z</time>
      </trkpt>
      <trkpt lat="43.14694" lon="3.07689">
        <ele>196</ele>
        <time>2025-12-29T13:05:02.875Z</time>
      </trkpt>
      <trkpt lat="43.14694" lon="3.07689">
        <ele>196</ele>
        <time>2025-12-29T13:05:03.875Z</time>
      </trkpt>
      <trkpt lat="43.14693" lon="3.07688">
        <ele>196</ele>
        <time>2025-12-29T13:05:04.875Z</time>
      </trkpt>
      <trkpt lat="43.14693" lon="3.07687">
        <ele>196</ele>
        <time>2025-12-29T13:05:05.875Z</time>
      </trkpt>
      <trkpt lat="43.14693" lon="3.07686">
        <ele>196</ele>
        <time>2025-12-29T13:05:06.875Z</time>
      </trkpt>
      <trkpt lat="43.14693" lon="3.07685">
        <ele>196</ele>
        <time>2025-12-29T13:05:07.875Z</time>
      </trkpt>
      <trkpt lat="43.14693" lon="3.07684">
        <ele>196</ele>
        <time>2025-12-29T13:05:08.875Z</time>
      </trkpt>
      <trkpt lat="43.14694" lon="3.07683">
        <ele>196</ele>
        <time>2025-12-29T13:05:09.875Z</time>
      </trkpt>
      <trkpt lat="43.14693" lon="3.07682">
        <ele>195</ele>
        <time>2025-12-29T13:05:10.875Z</time>
      </trkpt>
      <trkpt lat="43.14693" lon="3.07681">
        <ele>195</ele>
        <time>2025-12-29T13:05:11.875Z</time>
      </trkpt>
      <trkpt lat="43.14692" lon="3.07681">
        <ele>195</ele>
        <time>2025-12-29T13:05:12.875Z</time>
      </trkpt>
      <trkpt lat="43.14692" lon="3.07681">
        <ele>195</ele>
        <time>2025-12-29T13:05:13.875Z</time>
      </trkpt>
      <trkpt lat="43.14692" lon="3.0768">
        <ele>194</ele>
        <time>2025-12-29T13:05:14.875Z</time>
      </trkpt>
      <trkpt lat="43.14692" lon="3.0768">
        <ele>194</ele>
        <time>2025-12-29T13:05:15.875Z</time>
      </trkpt>
      <trkpt lat="43.14691" lon="3.0768">
        <ele>194</ele>
        <time>2025-12-29T13:05:16.875Z</time>
      </trkpt>
      <trkpt lat="43.14691" lon="3.0768">
        <ele>193</ele>
        <time>2025-12-29T13:05:17.875Z</time>
      </trkpt>
      <trkpt lat="43.14691" lon="3.0768">
        <ele>193</ele>
        <time>2025-12-29T13:05:18.875Z</time>
      </trkpt>
      <trkpt lat="43.14691" lon="3.0768">
        <ele>193</ele>
        <time>2025-12-29T13:05:19.875Z</time>
      </trkpt>
      <trkpt lat="43.14691" lon="3.0768">
        <ele>192</ele>
        <time>2025-12-29T13:05:20.875Z</time>
      </trkpt>
      <trkpt lat="43.14691" lon="3.0768">
        <ele>192</ele>
        <time>2025-12-29T13:05:21.875Z</time>
      </trkpt>
      <trkpt lat="43.14691" lon="3.0768">
        <ele>192</ele>
        <time>2025-12-29T13:05:22.875Z</time>
      </trkpt>
      <trkpt lat="43.14691" lon="3.07679">
        <ele>192</ele>
        <time>2025-12-29T13:05:23.875Z</time>
      </trkpt>
      <trkpt lat="43.14691" lon="3.07679">
        <ele>193</ele>
        <time>2025-12-29T13:05:24.875Z</time>
      </trkpt>
      <trkpt lat="43.14691" lon="3.07679">
        <ele>193</ele>
        <time>2025-12-29T13:05:25.875Z</time>
      </trkpt>
      <trkpt lat="43.14691" lon="3.07679">
        <ele>193</ele>
        <time>2025-12-29T13:05:26.875Z</time>
      </trkpt>
      <trkpt lat="43.14691" lon="3.07679">
        <ele>192</ele>
        <time>2025-12-29T13:05:27.875Z</time>
      </trkpt>
      <trkpt lat="43.14691" lon="3.07678">
        <ele>192</ele>
        <time>2025-12-29T13:05:28.875Z</time>
      </trkpt>
      <trkpt lat="43.14691" lon="3.07678">
        <ele>192</ele>
        <time>2025-12-29T13:05:29.875Z</time>
      </trkpt>
      <trkpt lat="43.14692" lon="3.07678">
        <ele>192</ele>
        <time>2025-12-29T13:05:30.875Z</time>
      </trkpt>
      <trkpt lat="43.14692" lon="3.07677">
        <ele>192</ele>
        <time>2025-12-29T13:05:31.875Z</time>
      </trkpt>
      <trkpt lat="43.14692" lon="3.07677">
        <ele>192</ele>
        <time>2025-12-29T13:05:32.875Z</time>
      </trkpt>
      <trkpt lat="43.14692" lon="3.07677">
        <ele>192</ele>
        <time>2025-12-29T13:05:33.875Z</time>
      </trkpt>
      <trkpt lat="43.14692" lon="3.07676">
        <ele>192</ele>
        <time>2025-12-29T13:05:34.875Z</time>
      </trkpt>
      <trkpt lat="43.14692" lon="3.07676">
        <ele>192</ele>
        <time>2025-12-29T13:05:35.875Z</time>
      </trkpt>
      <trkpt lat="43.14692" lon="3.07676">
        <ele>191</ele>
        <time>2025-12-29T13:05:36.875Z</time>
      </trkpt>
      <trkpt lat="43.14692" lon="3.07675">
        <ele>191</ele>
        <time>2025-12-29T13:05:37.875Z</time>
      </trkpt>
      <trkpt lat="43.14692" lon="3.07675">
        <ele>191</ele>
        <time>2025-12-29T13:05:38.875Z</time>
      </trkpt>
      <trkpt lat="43.14692" lon="3.07675">
        <ele>191</ele>
        <time>2025-12-29T13:05:39.875Z</time>
      </trkpt>
      <trkpt lat="43.14692" lon="3.07675">
        <ele>191</ele>
        <time>2025-12-29T13:05:40.875Z</time>
      </trkpt>
      <trkpt lat="43.14692" lon="3.07675">
        <ele>191</ele>
        <time>2025-12-29T13:05:41.875Z</time>
      </trkpt>
      <trkpt lat="43.14692" lon="3.07675">
        <ele>191</ele>
        <time>2025-12-29T13:05:42.875Z</time>
      </trkpt>
      <trkpt lat="43.14692" lon="3.07675">
        <ele>191</ele>
        <time>2025-12-29T13:05:43.875Z</time>
      </trkpt>
      <trkpt lat="43.14692" lon="3.07675">
        <ele>191</ele>
        <time>2025-12-29T13:05:44.875Z</time>
      </trkpt>
      <trkpt lat="43.14692" lon="3.07675">
        <ele>191</ele>
        <time>2025-12-29T13:05:45.875Z</time>
      </trkpt>
      <trkpt lat="43.14692" lon="3.07675">
        <ele>191</ele>
        <time>2025-12-29T13:05:46.875Z</time>
      </trkpt>
      <trkpt lat="43.14692" lon="3.07675">
        <ele>191</ele>
        <time>2025-12-29T13:05:47.875Z</time>
      </trkpt>
      <trkpt lat="43.14692" lon="3.07675">
        <ele>191</ele>
        <time>2025-12-29T13:05:48.875Z</time>
      </trkpt>
      <trkpt lat="43.14692" lon="3.07675">
        <ele>191</ele>
        <time>2025-12-29T13:05:49.875Z</time>
      </trkpt>
      <trkpt lat="43.14692" lon="3.07674">
        <ele>191</ele>
        <time>2025-12-29T13:05:50.875Z</time>
      </trkpt>
      <trkpt lat="43.14692" lon="3.07674">
        <ele>190</ele>
        <time>2025-12-29T13:05:51.875Z</time>
      </trkpt>
      <trkpt lat="43.14692" lon="3.07674">
        <ele>191</ele>
        <time>2025-12-29T13:05:52.875Z</time>
      </trkpt>
      <trkpt lat="43.14692" lon="3.07674">
        <ele>191</ele>
        <time>2025-12-29T13:05:53.875Z</time>
      </trkpt>
      <trkpt lat="43.14692" lon="3.07673">
        <ele>191</ele>
        <time>2025-12-29T13:05:54.875Z</time>
      </trkpt>
      <trkpt lat="43.14692" lon="3.07673">
        <ele>190</ele>
        <time>2025-12-29T13:05:55.875Z</time>
      </trkpt>
      <trkpt lat="43.14692" lon="3.07673">
        <ele>190</ele>
        <time>2025-12-29T13:05:56.875Z</time>
      </trkpt>
      <trkpt lat="43.14693" lon="3.07673">
        <ele>190</ele>
        <time>2025-12-29T13:05:57.875Z</time>
      </trkpt>
      <trkpt lat="43.14693" lon="3.07673">
        <ele>190</ele>
        <time>2025-12-29T13:05:58.875Z</time>
      </trkpt>
      <trkpt lat="43.14693" lon="3.07673">
        <ele>190</ele>
        <time>2025-12-29T13:05:59.875Z</time>
      </trkpt>
      <trkpt lat="43.14693" lon="3.07673">
        <ele>190</ele>
        <time>2025-12-29T13:06:00.875Z</time>
      </trkpt>
      <trkpt lat="43.14693" lon="3.07673">
        <ele>190</ele>
        <time>2025-12-29T13:06:01.875Z</time>
      </trkpt>
      <trkpt lat="43.14693" lon="3.07673">
        <ele>190</ele>
        <time>2025-12-29T13:06:02.875Z</time>
      </trkpt>
      <trkpt lat="43.1469" lon="3.0767">
        <ele>194</ele>
        <time>2025-12-29T13:50:44.802Z</time>
      </trkpt>
      <trkpt lat="43.1469" lon="3.0767">
        <ele>194</ele>
        <time>2025-12-29T13:50:45.802Z</time>
      </trkpt>
      <trkpt lat="43.1469" lon="3.0767">
        <ele>194</ele>
        <time>2025-12-29T13:50:46.802Z</time>
      </trkpt>
      <trkpt lat="43.1469" lon="3.0767">
        <ele>194</ele>
        <time>2025-12-29T13:50:47.802Z</time>
      </trkpt>
      <trkpt lat="43.1469" lon="3.0767">
        <ele>193</ele>
        <time>2025-12-29T13:50:48.802Z</time>
      </trkpt>
      <trkpt lat="43.1469" lon="3.0767">
        <ele>193</ele>
        <time>2025-12-29T13:50:49.802Z</time>
      </trkpt>
      <trkpt lat="43.1469" lon="3.0767">
        <ele>193</ele>
        <time>2025-12-29T13:50:50.802Z</time>
      </trkpt>
      <trkpt lat="43.1469" lon="3.0767">
        <ele>193</ele>
        <time>2025-12-29T13:50:51.802Z</time>
      </trkpt>
      <trkpt lat="43.1469" lon="3.0767">
        <ele>193</ele>
        <time>2025-12-29T13:50:52.802Z</time>
      </trkpt>
      <trkpt lat="43.1469" lon="3.0767">
        <ele>193</ele>
        <time>2025-12-29T13:50:53.802Z</time>
      </trkpt>
      <trkpt lat="43.1469" lon="3.0767">
        <ele>192</ele>
        <time>2025-12-29T13:50:54.802Z</time>
      </trkpt>
      <trkpt lat="43.1469" lon="3.0767">
        <ele>192</ele>
        <time>2025-12-29T13:50:55.802Z</time>
      </trkpt>
      <trkpt lat="43.1469" lon="3.0767">
        <ele>192</ele>
        <time>2025-12-29T13:50:56.802Z</time>
      </trkpt>
      <trkpt lat="43.1469" lon="3.0767">
        <ele>192</ele>
        <time>2025-12-29T13:50:57.802Z</time>
      </trkpt>
      <trkpt lat="43.1469" lon="3.0767">
        <ele>192</ele>
        <time>2025-12-29T13:50:58.802Z</time>
      </trkpt>
      <trkpt lat="43.1469" lon="3.0767">
        <ele>192</ele>
        <time>2025-12-29T13:50:59.802Z</time>
      </trkpt>
      <trkpt lat="43.1469" lon="3.0767">
        <ele>192</ele>
        <time>2025-12-29T13:51:00.802Z</time>
      </trkpt>
      <trkpt lat="43.1469" lon="3.0767">
        <ele>192</ele>
        <time>2025-12-29T13:51:01.802Z</time>
      </trkpt>
      <trkpt lat="43.1469" lon="3.0767">
        <ele>193</ele>
        <time>2025-12-29T13:51:02.802Z</time>
      </trkpt>
      <trkpt lat="43.14691" lon="3.07669">
        <ele>193</ele>
        <time>2025-12-29T13:51:03.802Z</time>
      </trkpt>
      <trkpt lat="43.14691" lon="3.0767">
        <ele>193</ele>
        <time>2025-12-29T13:51:04.802Z</time>
      </trkpt>
      <trkpt lat="43.14691" lon="3.0767">
        <ele>193</ele>
        <time>2025-12-29T13:51:05.802Z</time>
      </trkpt>
      <trkpt lat="43.14691" lon="3.0767">
        <ele>194</ele>
        <time>2025-12-29T13:51:06.802Z</time>
      </trkpt>
      <trkpt lat="43.14691" lon="3.0767">
        <ele>194</ele>
        <time>2025-12-29T13:51:07.802Z</time>
      </trkpt>
      <trkpt lat="43.14691" lon="3.0767">
        <ele>194</ele>
        <time>2025-12-29T13:51:08.802Z</time>
      </trkpt>
      <trkpt lat="43.14691" lon="3.0767">
        <ele>194</ele>
        <time>2025-12-29T13:51:09.802Z</time>
      </trkpt>
      <trkpt lat="43.14691" lon="3.0767">
        <ele>194</ele>
        <time>2025-12-29T13:51:10.802Z</time>
      </trkpt>
      <trkpt lat="43.1469" lon="3.0767">
        <ele>194</ele>
        <time>2025-12-29T13:51:11.802Z</time>
      </trkpt>
      <trkpt lat="43.1469" lon="3.0767">
        <ele>195</ele>
        <time>2025-12-29T13:51:12.802Z</time>
      </trkpt>
      <trkpt lat="43.1469" lon="3.0767">
        <ele>195</ele>
        <time>2025-12-29T13:51:13.802Z</time>
      </trkpt>
      <trkpt lat="43.1469" lon="3.0767">
        <ele>195</ele>
        <time>2025-12-29T13:51:14.802Z</time>
      </trkpt>
      <trkpt lat="43.1469" lon="3.0767">
        <ele>195</ele>
        <time>2025-12-29T13:51:15.802Z</time>
      </trkpt>
      <trkpt lat="43.1469" lon="3.0767">
        <ele>195</ele>
        <time>2025-12-29T13:51:16.802Z</time>
      </trkpt>
      <trkpt lat="43.1469" lon="3.0767">
        <ele>195</ele>
        <time>2025-12-29T13:51:17.802Z</time>
      </trkpt>
      <trkpt lat="43.1469" lon="3.0767">
        <ele>195</ele>
        <time>2025-12-29T13:51:18.802Z</time>
      </trkpt>
      <trkpt lat="43.1469" lon="3.0767">
        <ele>195</ele>
        <time>2025-12-29T13:51:19.802Z</time>
      </trkpt>
      <trkpt lat="43.1469" lon="3.0767">
        <ele>194</ele>
        <time>2025-12-29T13:51:20.802Z</time>
      </trkpt>
      <trkpt lat="43.1469" lon="3.07671">
        <ele>194</ele>
        <time>2025-12-29T13:51:21.802Z</time>
      </trkpt>
      <trkpt lat="43.14691" lon="3.07671">
        <ele>195</ele>
        <time>2025-12-29T13:51:22.802Z</time>
      </trkpt>
      <trkpt lat="43.1469" lon="3.07672">
        <ele>195</ele>
        <time>2025-12-29T13:51:23.802Z</time>
      </trkpt>
      <trkpt lat="43.14691" lon="3.07672">
        <ele>195</ele>
        <time>2025-12-29T13:51:24.802Z</time>
      </trkpt>
      <trkpt lat="43.14691" lon="3.07673">
        <ele>195</ele>
        <time>2025-12-29T13:51:25.802Z</time>
      </trkpt>
      <trkpt lat="43.14691" lon="3.07673">
        <ele>194</ele>
        <time>2025-12-29T13:51:26.802Z</time>
      </trkpt>
      <trkpt lat="43.14691" lon="3.07674">
        <ele>194</ele>
        <time>2025-12-29T13:51:27.802Z</time>
      </trkpt>
      <trkpt lat="43.1469" lon="3.07675">
        <ele>195</ele>
        <time>2025-12-29T13:51:28.802Z</time>
      </trkpt>
      <trkpt lat="43.1469" lon="3.07676">
        <ele>195</ele>
        <time>2025-12-29T13:51:29.802Z</time>
      </trkpt>
      <trkpt lat="43.14689" lon="3.07678">
        <ele>195</ele>
        <time>2025-12-29T13:51:30.802Z</time>
      </trkpt>
      <trkpt lat="43.14689" lon="3.07679">
        <ele>195</ele>
        <time>2025-12-29T13:51:31.802Z</time>
      </trkpt>
      <trkpt lat="43.14689" lon="3.0768">
        <ele>195</ele>
        <time>2025-12-29T13:51:32.802Z</time>
      </trkpt>
      <trkpt lat="43.14689" lon="3.07681">
        <ele>194</ele>
        <time>2025-12-29T13:51:33.802Z</time>
      </trkpt>
      <trkpt lat="43.14688" lon="3.07682">
        <ele>194</ele>
        <time>2025-12-29T13:51:34.802Z</time>
      </trkpt>
      <trkpt lat="43.14688" lon="3.07683">
        <ele>194</ele>
        <time>2025-12-29T13:51:35.802Z</time>
      </trkpt>
      <trkpt lat="43.14687" lon="3.07684">
        <ele>194</ele>
        <time>2025-12-29T13:51:36.802Z</time>
      </trkpt>
      <trkpt lat="43.14687" lon="3.07685">
        <ele>194</ele>
        <time>2025-12-29T13:51:37.802Z</time>
      </trkpt>
      <trkpt lat="43.14687" lon="3.07685">
        <ele>194</ele>
        <time>2025-12-29T13:51:38.802Z</time>
      </trkpt>
      <trkpt lat="43.14687" lon="3.07685">
        <ele>193</ele>
        <time>2025-12-29T13:51:39.802Z</time>
      </trkpt>
      <trkpt lat="43.14687" lon="3.07686">
        <ele>193</ele>
        <time>2025-12-29T13:51:40.802Z</time>
      </trkpt>
      <trkpt lat="43.14687" lon="3.07686">
        <ele>193</ele>
        <time>2025-12-29T13:51:41.802Z</time>
      </trkpt>
      <trkpt lat="43.14687" lon="3.07687">
        <ele>193</ele>
        <time>2025-12-29T13:51:42.802Z</time>
      </trkpt>
      <trkpt lat="43.14687" lon="3.07688">
        <ele>193</ele>
        <time>2025-12-29T13:51:43.802Z</time>
      </trkpt>
      <trkpt lat="43.14687" lon="3.07688">
        <ele>193</ele>
        <time>2025-12-29T13:51:44.802Z</time>
      </trkpt>
      <trkpt lat="43.14688" lon="3.07689">
        <ele>193</ele>
        <time>2025-12-29T13:51:45.802Z</time>
      </trkpt>
      <trkpt lat="43.14689" lon="3.07689">
        <ele>193</ele>
        <time>2025-12-29T13:51:46.802Z</time>
      </trkpt>
      <trkpt lat="43.1469" lon="3.0769">
        <ele>193</ele>
        <time>2025-12-29T13:51:47.802Z</time>
      </trkpt>
      <trkpt lat="43.1469" lon="3.0769">
        <ele>193</ele>
        <time>2025-12-29T13:51:48.802Z</time>
      </trkpt>
      <trkpt lat="43.14691" lon="3.07691">
        <ele>193</ele>
        <time>2025-12-29T13:51:49.802Z</time>
      </trkpt>
      <trkpt lat="43.14691" lon="3.07691">
        <ele>193</ele>
        <time>2025-12-29T13:51:50.802Z</time>
      </trkpt>
      <trkpt lat="43.14692" lon="3.07691">
        <ele>193</ele>
        <time>2025-12-29T13:51:51.802Z</time>
      </trkpt>
      <trkpt lat="43.14692" lon="3.07692">
        <ele>194</ele>
        <time>2025-12-29T13:51:52.802Z</time>
      </trkpt>
      <trkpt lat="43.14692" lon="3.07692">
        <ele>194</ele>
        <time>2025-12-29T13:51:53.802Z</time>
      </trkpt>
      <trkpt lat="43.14692" lon="3.07692">
        <ele>194</ele>
        <time>2025-12-29T13:51:54.802Z</time>
      </trkpt>
      <trkpt lat="43.14693" lon="3.07692">
        <ele>195</ele>
        <time>2025-12-29T13:51:55.802Z</time>
      </trkpt>
      <trkpt lat="43.14693" lon="3.07692">
        <ele>195</ele>
        <time>2025-12-29T13:51:56.802Z</time>
      </trkpt>
      <trkpt lat="43.14694" lon="3.07693">
        <ele>195</ele>
        <time>2025-12-29T13:51:57.802Z</time>
      </trkpt>
      <trkpt lat="43.14695" lon="3.07694">
        <ele>195</ele>
        <time>2025-12-29T13:51:58.802Z</time>
      </trkpt>
      <trkpt lat="43.14696" lon="3.07695">
        <ele>195</ele>
        <time>2025-12-29T13:51:59.802Z</time>
      </trkpt>
      <trkpt lat="43.14697" lon="3.07695">
        <ele>196</ele>
        <time>2025-12-29T13:52:00.802Z</time>
      </trkpt>
      <trkpt lat="43.14697" lon="3.07696">
        <ele>196</ele>
        <time>2025-12-29T13:52:01.802Z</time>
      </trkpt>
      <trkpt lat="43.14698" lon="3.07696">
        <ele>195</ele>
        <time>2025-12-29T13:52:02.802Z</time>
      </trkpt>
      <trkpt lat="43.14698" lon="3.07696">
        <ele>195</ele>
        <time>2025-12-29T13:52:03.802Z</time>
      </trkpt>
      <trkpt lat="43.14698" lon="3.07696">
        <ele>195</ele>
        <time>2025-12-29T13:52:04.802Z</time>
      </trkpt>
      <trkpt lat="43.14698" lon="3.07696">
        <ele>195</ele>
        <time>2025-12-29T13:52:05.802Z</time>
      </trkpt>
      <trkpt lat="43.14698" lon="3.07696">
        <ele>195</ele>
        <time>2025-12-29T13:52:06.802Z</time>
      </trkpt>
      <trkpt lat="43.14698" lon="3.07696">
        <ele>195</ele>
        <time>2025-12-29T13:52:07.802Z</time>
      </trkpt>
      <trkpt lat="43.14698" lon="3.07696">
        <ele>195</ele>
        <time>2025-12-29T13:52:08.802Z</time>
      </trkpt>
      <trkpt lat="43.14698" lon="3.07696">
        <ele>195</ele>
        <time>2025-12-29T13:52:09.802Z</time>
      </trkpt>
      <trkpt lat="43.14698" lon="3.07696">
        <ele>195</ele>
        <time>2025-12-29T13:52:10.802Z</time>
      </trkpt>
      <trkpt lat="43.14698" lon="3.07696">
        <ele>195</ele>
        <time>2025-12-29T13:52:11.802Z</time>
      </trkpt>
      <trkpt lat="43.14698" lon="3.07696">
        <ele>195</ele>
        <time>2025-12-29T13:52:12.802Z</time>
      </trkpt>
      <trkpt lat="43.14698" lon="3.07696">
        <ele>195</ele>
        <time>2025-12-29T13:52:13.802Z</time>
      </trkpt>
      <trkpt lat="43.14698" lon="3.07696">
        <ele>195</ele>
        <time>2025-12-29T13:52:14.802Z</time>
      </trkpt>
      <trkpt lat="43.14698" lon="3.07696">
        <ele>194</ele>
        <time>2025-12-29T13:52:15.802Z</time>
      </trkpt>
      <trkpt lat="43.14698" lon="3.07696">
        <ele>194</ele>
        <time>2025-12-29T13:52:16.802Z</time>
      </trkpt>
      <trkpt lat="43.14698" lon="3.07696">
        <ele>194</ele>
        <time>2025-12-29T13:52:17.802Z</time>
      </trkpt>
      <trkpt lat="43.14698" lon="3.07696">
        <ele>194</ele>
        <time>2025-12-29T13:52:18.802Z</time>
      </trkpt>
      <trkpt lat="43.14698" lon="3.07695">
        <ele>194</ele>
        <time>2025-12-29T13:52:19.802Z</time>
      </trkpt>
      <trkpt lat="43.14698" lon="3.07695">
        <ele>194</ele>
        <time>2025-12-29T13:52:20.802Z</time>
      </trkpt>
      <trkpt lat="43.14698" lon="3.07695">
        <ele>194</ele>
        <time>2025-12-29T13:52:21.802Z</time>
      </trkpt>
      <trkpt lat="43.14698" lon="3.07695">
        <ele>194</ele>
        <time>2025-12-29T13:52:22.802Z</time>
      </trkpt>
      <trkpt lat="43.14698" lon="3.07695">
        <ele>193</ele>
        <time>2025-12-29T13:52:23.802Z</time>
      </trkpt>
      <trkpt lat="43.14699" lon="3.07696">
        <ele>193</ele>
        <time>2025-12-29T13:52:24.802Z</time>
      </trkpt>
      <trkpt lat="43.14699" lon="3.07696">
        <ele>193</ele>
        <time>2025-12-29T13:52:25.802Z</time>
      </trkpt>
      <trkpt lat="43.147" lon="3.07695">
        <ele>193</ele>
        <time>2025-12-29T13:52:26.802Z</time>
      </trkpt>
      <trkpt lat="43.14701" lon="3.07695">
        <ele>193</ele>
        <time>2025-12-29T13:52:27.802Z</time>
      </trkpt>
      <trkpt lat="43.14702" lon="3.07695">
        <ele>193</ele>
        <time>2025-12-29T13:52:28.802Z</time>
      </trkpt>
      <trkpt lat="43.14703" lon="3.07696">
        <ele>193</ele>
        <time>2025-12-29T13:52:29.802Z</time>
      </trkpt>
      <trkpt lat="43.14704" lon="3.07697">
        <ele>193</ele>
        <time>2025-12-29T13:52:30.802Z</time>
      </trkpt>
      <trkpt lat="43.14704" lon="3.07698">
        <ele>193</ele>
        <time>2025-12-29T13:52:31.802Z</time>
      </trkpt>
      <trkpt lat="43.14705" lon="3.077">
        <ele>193</ele>
        <time>2025-12-29T13:52:32.802Z</time>
      </trkpt>
      <trkpt lat="43.14706" lon="3.07701">
        <ele>193</ele>
        <time>2025-12-29T13:52:33.802Z</time>
      </trkpt>
      <trkpt lat="43.14707" lon="3.07702">
        <ele>194</ele>
        <time>2025-12-29T13:52:34.802Z</time>
      </trkpt>
      <trkpt lat="43.14708" lon="3.07704">
        <ele>194</ele>
        <time>2025-12-29T13:52:35.802Z</time>
      </trkpt>
      <trkpt lat="43.14709" lon="3.07705">
        <ele>194</ele>
        <time>2025-12-29T13:52:36.802Z</time>
      </trkpt>
      <trkpt lat="43.1471" lon="3.07706">
        <ele>195</ele>
        <time>2025-12-29T13:52:37.802Z</time>
      </trkpt>
      <trkpt lat="43.14712" lon="3.07707">
        <ele>195</ele>
        <time>2025-12-29T13:52:38.802Z</time>
      </trkpt>
      <trkpt lat="43.14712" lon="3.07709">
        <ele>195</ele>
        <time>2025-12-29T13:52:39.802Z</time>
      </trkpt>
      <trkpt lat="43.14713" lon="3.07711">
        <ele>195</ele>
        <time>2025-12-29T13:52:40.802Z</time>
      </trkpt>
      <trkpt lat="43.14713" lon="3.07714">
        <ele>195</ele>
        <time>2025-12-29T13:52:41.802Z</time>
      </trkpt>
      <trkpt lat="43.14713" lon="3.07715">
        <ele>195</ele>
        <time>2025-12-29T13:52:42.802Z</time>
      </trkpt>
      <trkpt lat="43.14714" lon="3.07717">
        <ele>195</ele>
        <time>2025-12-29T13:52:43.802Z</time>
      </trkpt>
      <trkpt lat="43.14714" lon="3.07719">
        <ele>196</ele>
        <time>2025-12-29T13:52:44.802Z</time>
      </trkpt>
      <trkpt lat="43.14715" lon="3.0772">
        <ele>196</ele>
        <time>2025-12-29T13:52:45.802Z</time>
      </trkpt>
      <trkpt lat="43.14716" lon="3.07722">
        <ele>196</ele>
        <time>2025-12-29T13:52:46.802Z</time>
      </trkpt>
      <trkpt lat="43.14716" lon="3.07723">
        <ele>196</ele>
        <time>2025-12-29T13:52:47.802Z</time>
      </trkpt>
      <trkpt lat="43.14716" lon="3.07725">
        <ele>195</ele>
        <time>2025-12-29T13:52:48.802Z</time>
      </trkpt>
      <trkpt lat="43.14716" lon="3.07727">
        <ele>195</ele>
        <time>2025-12-29T13:52:49.802Z</time>
      </trkpt>
      <trkpt lat="43.14716" lon="3.07728">
        <ele>195</ele>
        <time>2025-12-29T13:52:50.802Z</time>
      </trkpt>
      <trkpt lat="43.14717" lon="3.0773">
        <ele>194</ele>
        <time>2025-12-29T13:52:51.802Z</time>
      </trkpt>
      <trkpt lat="43.14717" lon="3.07731">
        <ele>194</ele>
        <time>2025-12-29T13:52:52.802Z</time>
      </trkpt>
      <trkpt lat="43.14717" lon="3.07733">
        <ele>194</ele>
        <time>2025-12-29T13:52:53.802Z</time>
      </trkpt>
      <trkpt lat="43.14717" lon="3.07734">
        <ele>194</ele>
        <time>2025-12-29T13:52:54.802Z</time>
      </trkpt>
      <trkpt lat="43.14717" lon="3.07736">
        <ele>194</ele>
        <time>2025-12-29T13:52:55.802Z</time>
      </trkpt>
      <trkpt lat="43.14717" lon="3.07737">
        <ele>193</ele>
        <time>2025-12-29T13:52:56.802Z</time>
      </trkpt>
      <trkpt lat="43.14718" lon="3.07738">
        <ele>193</ele>
        <time>2025-12-29T13:52:57.802Z</time>
      </trkpt>
      <trkpt lat="43.14719" lon="3.07739">
        <ele>193</ele>
        <time>2025-12-29T13:52:58.802Z</time>
      </trkpt>
      <trkpt lat="43.1472" lon="3.07739">
        <ele>193</ele>
        <time>2025-12-29T13:52:59.802Z</time>
      </trkpt>
      <trkpt lat="43.1472" lon="3.0774">
        <ele>193</ele>
        <time>2025-12-29T13:53:00.802Z</time>
      </trkpt>
      <trkpt lat="43.14721" lon="3.0774">
        <ele>193</ele>
        <time>2025-12-29T13:53:01.802Z</time>
      </trkpt>
      <trkpt lat="43.14722" lon="3.07741">
        <ele>193</ele>
        <time>2025-12-29T13:53:02.802Z</time>
      </trkpt>
      <trkpt lat="43.14723" lon="3.07742">
        <ele>193</ele>
        <time>2025-12-29T13:53:03.802Z</time>
      </trkpt>
      <trkpt lat="43.14723" lon="3.07742">
        <ele>193</ele>
        <time>2025-12-29T13:53:04.802Z</time>
      </trkpt>
      <trkpt lat="43.14724" lon="3.07743">
        <ele>193</ele>
        <time>2025-12-29T13:53:05.802Z</time>
      </trkpt>
      <trkpt lat="43.14725" lon="3.07745">
        <ele>194</ele>
        <time>2025-12-29T13:53:06.802Z</time>
      </trkpt>
      <trkpt lat="43.14726" lon="3.07746">
        <ele>194</ele>
        <time>2025-12-29T13:53:07.802Z</time>
      </trkpt>
      <trkpt lat="43.14727" lon="3.07747">
        <ele>194</ele>
        <time>2025-12-29T13:53:08.802Z</time>
      </trkpt>
      <trkpt lat="43.14728" lon="3.07748">
        <ele>194</ele>
        <time>2025-12-29T13:53:09.802Z</time>
      </trkpt>
      <trkpt lat="43.14729" lon="3.07749">
        <ele>194</ele>
        <time>2025-12-29T13:53:10.802Z</time>
      </trkpt>
      <trkpt lat="43.14729" lon="3.07749">
        <ele>194</ele>
        <time>2025-12-29T13:53:11.802Z</time>
      </trkpt>
      <trkpt lat="43.1473" lon="3.0775">
        <ele>194</ele>
        <time>2025-12-29T13:53:12.802Z</time>
      </trkpt>
      <trkpt lat="43.1473" lon="3.07751">
        <ele>194</ele>
        <time>2025-12-29T13:53:13.802Z</time>
      </trkpt>
      <trkpt lat="43.14731" lon="3.07753">
        <ele>194</ele>
        <time>2025-12-29T13:53:14.802Z</time>
      </trkpt>
      <trkpt lat="43.14731" lon="3.07754">
        <ele>195</ele>
        <time>2025-12-29T13:53:15.802Z</time>
      </trkpt>
      <trkpt lat="43.14731" lon="3.07756">
        <ele>195</ele>
        <time>2025-12-29T13:53:16.802Z</time>
      </trkpt>
      <trkpt lat="43.14731" lon="3.07757">
        <ele>196</ele>
        <time>2025-12-29T13:53:17.802Z</time>
      </trkpt>
      <trkpt lat="43.14731" lon="3.07759">
        <ele>196</ele>
        <time>2025-12-29T13:53:18.802Z</time>
      </trkpt>
      <trkpt lat="43.14732" lon="3.0776">
        <ele>196</ele>
        <time>2025-12-29T13:53:19.802Z</time>
      </trkpt>
      <trkpt lat="43.14732" lon="3.07762">
        <ele>197</ele>
        <time>2025-12-29T13:53:20.802Z</time>
      </trkpt>
      <trkpt lat="43.14733" lon="3.07763">
        <ele>196</ele>
        <time>2025-12-29T13:53:21.802Z</time>
      </trkpt>
      <trkpt lat="43.14733" lon="3.07764">
        <ele>197</ele>
        <time>2025-12-29T13:53:22.802Z</time>
      </trkpt>
      <trkpt lat="43.14734" lon="3.07765">
        <ele>197</ele>
        <time>2025-12-29T13:53:23.802Z</time>
      </trkpt>
      <trkpt lat="43.14734" lon="3.07767">
        <ele>197</ele>
        <time>2025-12-29T13:53:24.802Z</time>
      </trkpt>
      <trkpt lat="43.14734" lon="3.07768">
        <ele>197</ele>
        <time>2025-12-29T13:53:25.802Z</time>
      </trkpt>
      <trkpt lat="43.14734" lon="3.07769">
        <ele>197</ele>
        <time>2025-12-29T13:53:26.802Z</time>
      </trkpt>
      <trkpt lat="43.14735" lon="3.0777">
        <ele>197</ele>
        <time>2025-12-29T13:53:27.802Z</time>
      </trkpt>
      <trkpt lat="43.14735" lon="3.07771">
        <ele>197</ele>
        <time>2025-12-29T13:53:28.802Z</time>
      </trkpt>
      <trkpt lat="43.14736" lon="3.07772">
        <ele>196</ele>
        <time>2025-12-29T13:53:29.802Z</time>
      </trkpt>
      <trkpt lat="43.14737" lon="3.07773">
        <ele>196</ele>
        <time>2025-12-29T13:53:30.802Z</time>
      </trkpt>
      <trkpt lat="43.14737" lon="3.07775">
        <ele>197</ele>
        <time>2025-12-29T13:53:31.802Z</time>
      </trkpt>
      <trkpt lat="43.14738" lon="3.07776">
        <ele>197</ele>
        <time>2025-12-29T13:53:32.802Z</time>
      </trkpt>
      <trkpt lat="43.14739" lon="3.07777">
        <ele>197</ele>
        <time>2025-12-29T13:53:33.802Z</time>
      </trkpt>
      <trkpt lat="43.1474" lon="3.07778">
        <ele>197</ele>
        <time>2025-12-29T13:53:34.802Z</time>
      </trkpt>
      <trkpt lat="43.1474" lon="3.07779">
        <ele>197</ele>
        <time>2025-12-29T13:53:35.802Z</time>
      </trkpt>
      <trkpt lat="43.14741" lon="3.0778">
        <ele>196</ele>
        <time>2025-12-29T13:53:36.802Z</time>
      </trkpt>
      <trkpt lat="43.14742" lon="3.07781">
        <ele>196</ele>
        <time>2025-12-29T13:53:37.802Z</time>
      </trkpt>
      <trkpt lat="43.14742" lon="3.07782">
        <ele>196</ele>
        <time>2025-12-29T13:53:38.802Z</time>
      </trkpt>
      <trkpt lat="43.14743" lon="3.07783">
        <ele>196</ele>
        <time>2025-12-29T13:53:39.802Z</time>
      </trkpt>
      <trkpt lat="43.14744" lon="3.07784">
        <ele>196</ele>
        <time>2025-12-29T13:53:40.802Z</time>
      </trkpt>
      <trkpt lat="43.14745" lon="3.07785">
        <ele>196</ele>
        <time>2025-12-29T13:53:41.802Z</time>
      </trkpt>
      <trkpt lat="43.14745" lon="3.07786">
        <ele>196</ele>
        <time>2025-12-29T13:53:42.802Z</time>
      </trkpt>
      <trkpt lat="43.14745" lon="3.07788">
        <ele>196</ele>
        <time>2025-12-29T13:53:43.802Z</time>
      </trkpt>
      <trkpt lat="43.14746" lon="3.07789">
        <ele>196</ele>
        <time>2025-12-29T13:53:44.802Z</time>
      </trkpt>
      <trkpt lat="43.14747" lon="3.0779">
        <ele>196</ele>
        <time>2025-12-29T13:53:45.802Z</time>
      </trkpt>
      <trkpt lat="43.14748" lon="3.07791">
        <ele>196</ele>
        <time>2025-12-29T13:53:46.802Z</time>
      </trkpt>
      <trkpt lat="43.14748" lon="3.07792">
        <ele>195</ele>
        <time>2025-12-29T13:53:47.802Z</time>
      </trkpt>
      <trkpt lat="43.14749" lon="3.07793">
        <ele>195</ele>
        <time>2025-12-29T13:53:48.802Z</time>
      </trkpt>
      <trkpt lat="43.1475" lon="3.07794">
        <ele>195</ele>
        <time>2025-12-29T13:53:49.802Z</time>
      </trkpt>
      <trkpt lat="43.1475" lon="3.07795">
        <ele>195</ele>
        <time>2025-12-29T13:53:50.802Z</time>
      </trkpt>
      <trkpt lat="43.1475" lon="3.07796">
        <ele>195</ele>
        <time>2025-12-29T13:53:51.802Z</time>
      </trkpt>
      <trkpt lat="43.14751" lon="3.07796">
        <ele>196</ele>
        <time>2025-12-29T13:53:52.802Z</time>
      </trkpt>
      <trkpt lat="43.14751" lon="3.07796">
        <ele>196</ele>
        <time>2025-12-29T13:53:53.802Z</time>
      </trkpt>
      <trkpt lat="43.14751" lon="3.07796">
        <ele>197</ele>
        <time>2025-12-29T13:53:54.802Z</time>
      </trkpt>
      <trkpt lat="43.14751" lon="3.07796">
        <ele>197</ele>
        <time>2025-12-29T13:53:55.802Z</time>
      </trkpt>
      <trkpt lat="43.14751" lon="3.07796">
        <ele>197</ele>
        <time>2025-12-29T13:53:56.802Z</time>
      </trkpt>
      <trkpt lat="43.14751" lon="3.07796">
        <ele>197</ele>
        <time>2025-12-29T13:53:57.802Z</time>
      </trkpt>
      <trkpt lat="43.14751" lon="3.07796">
        <ele>198</ele>
        <time>2025-12-29T13:53:58.802Z</time>
      </trkpt>
      <trkpt lat="43.14751" lon="3.07796">
        <ele>198</ele>
        <time>2025-12-29T13:53:59.802Z</time>
      </trkpt>
      <trkpt lat="43.14751" lon="3.07796">
        <ele>198</ele>
        <time>2025-12-29T13:54:00.802Z</time>
      </trkpt>
      <trkpt lat="43.14751" lon="3.07796">
        <ele>198</ele>
        <time>2025-12-29T13:54:01.802Z</time>
      </trkpt>
      <trkpt lat="43.14751" lon="3.07796">
        <ele>198</ele>
        <time>2025-12-29T13:54:02.802Z</time>
      </trkpt>
      <trkpt lat="43.14751" lon="3.07796">
        <ele>199</ele>
        <time>2025-12-29T13:54:03.802Z</time>
      </trkpt>
      <trkpt lat="43.14751" lon="3.07796">
        <ele>199</ele>
        <time>2025-12-29T13:54:04.802Z</time>
      </trkpt>
      <trkpt lat="43.14751" lon="3.07796">
        <ele>199</ele>
        <time>2025-12-29T13:54:05.802Z</time>
      </trkpt>
      <trkpt lat="43.14751" lon="3.07796">
        <ele>199</ele>
        <time>2025-12-29T13:54:06.802Z</time>
      </trkpt>
      <trkpt lat="43.14751" lon="3.07796">
        <ele>199</ele>
        <time>2025-12-29T13:54:07.802Z</time>
      </trkpt>
      <trkpt lat="43.14751" lon="3.07796">
        <ele>199</ele>
        <time>2025-12-29T13:54:08.802Z</time>
      </trkpt>
      <trkpt lat="43.14751" lon="3.07796">
        <ele>199</ele>
        <time>2025-12-29T13:54:09.802Z</time>
      </trkpt>
      <trkpt lat="43.14751" lon="3.07796">
        <ele>199</ele>
        <time>2025-12-29T13:54:10.802Z</time>
      </trkpt>
      <trkpt lat="43.14751" lon="3.07796">
        <ele>199</ele>
        <time>2025-12-29T13:54:11.802Z</time>
      </trkpt>
      <trkpt lat="43.14751" lon="3.07796">
        <ele>199</ele>
        <time>2025-12-29T13:54:12.802Z</time>
      </trkpt>
      <trkpt lat="43.14751" lon="3.07796">
        <ele>199</ele>
        <time>2025-12-29T13:54:13.802Z</time>
      </trkpt>
      <trkpt lat="43.14751" lon="3.07796">
        <ele>199</ele>
        <time>2025-12-29T13:54:14.802Z</time>
      </trkpt>
      <trkpt lat="43.14751" lon="3.07796">
        <ele>200</ele>
        <time>2025-12-29T13:54:15.802Z</time>
      </trkpt>
      <trkpt lat="43.14751" lon="3.07796">
        <ele>200</ele>
        <time>2025-12-29T13:54:16.802Z</time>
      </trkpt>
      <trkpt lat="43.14751" lon="3.07796">
        <ele>200</ele>
        <time>2025-12-29T13:54:17.802Z</time>
      </trkpt>
      <trkpt lat="43.14751" lon="3.07796">
        <ele>201</ele>
        <time>2025-12-29T13:54:18.802Z</time>
      </trkpt>
      <trkpt lat="43.14751" lon="3.07796">
        <ele>201</ele>
        <time>2025-12-29T13:54:19.802Z</time>
      </trkpt>
      <trkpt lat="43.14751" lon="3.07796">
        <ele>202</ele>
        <time>2025-12-29T13:54:20.802Z</time>
      </trkpt>
      <trkpt lat="43.14751" lon="3.07796">
        <ele>202</ele>
        <time>2025-12-29T13:54:21.802Z</time>
      </trkpt>
      <trkpt lat="43.14751" lon="3.07796">
        <ele>203</ele>
        <time>2025-12-29T13:54:22.802Z</time>
      </trkpt>
      <trkpt lat="43.14751" lon="3.07795">
        <ele>203</ele>
        <time>2025-12-29T13:54:23.802Z</time>
      </trkpt>
      <trkpt lat="43.14751" lon="3.07795">
        <ele>202</ele>
        <time>2025-12-29T13:54:24.802Z</time>
      </trkpt>
      <trkpt lat="43.14751" lon="3.07795">
        <ele>202</ele>
        <time>2025-12-29T13:54:25.802Z</time>
      </trkpt>
      <trkpt lat="43.14751" lon="3.07795">
        <ele>201</ele>
        <time>2025-12-29T13:54:26.802Z</time>
      </trkpt>
      <trkpt lat="43.14751" lon="3.07795">
        <ele>201</ele>
        <time>2025-12-29T13:54:27.802Z</time>
      </trkpt>
      <trkpt lat="43.14751" lon="3.07795">
        <ele>200</ele>
        <time>2025-12-29T13:54:28.802Z</time>
      </trkpt>
      <trkpt lat="43.14751" lon="3.07795">
        <ele>200</ele>
        <time>2025-12-29T13:54:29.802Z</time>
      </trkpt>
      <trkpt lat="43.14751" lon="3.07795">
        <ele>200</ele>
        <time>2025-12-29T13:54:30.802Z</time>
      </trkpt>
      <trkpt lat="43.14751" lon="3.07795">
        <ele>199</ele>
        <time>2025-12-29T13:54:31.802Z</time>
      </trkpt>
      <trkpt lat="43.14751" lon="3.07795">
        <ele>199</ele>
        <time>2025-12-29T13:54:32.802Z</time>
      </trkpt>
      <trkpt lat="43.14752" lon="3.07795">
        <ele>198</ele>
        <time>2025-12-29T13:54:33.802Z</time>
      </trkpt>
      <trkpt lat="43.14752" lon="3.07794">
        <ele>198</ele>
        <time>2025-12-29T13:54:34.802Z</time>
      </trkpt>
      <trkpt lat="43.14752" lon="3.07794">
        <ele>198</ele>
        <time>2025-12-29T13:54:35.802Z</time>
      </trkpt>
      <trkpt lat="43.14752" lon="3.07794">
        <ele>197</ele>
        <time>2025-12-29T13:54:36.802Z</time>
      </trkpt>
      <trkpt lat="43.14752" lon="3.07794">
        <ele>197</ele>
        <time>2025-12-29T13:54:37.802Z</time>
      </trkpt>
      <trkpt lat="43.14752" lon="3.07794">
        <ele>197</ele>
        <time>2025-12-29T13:54:38.802Z</time>
      </trkpt>
      <trkpt lat="43.14752" lon="3.07794">
        <ele>197</ele>
        <time>2025-12-29T13:54:39.802Z</time>
      </trkpt>
      <trkpt lat="43.14752" lon="3.07794">
        <ele>197</ele>
        <time>2025-12-29T13:54:40.802Z</time>
      </trkpt>
      <trkpt lat="43.14752" lon="3.07794">
        <ele>197</ele>
        <time>2025-12-29T13:54:41.802Z</time>
      </trkpt>
      <trkpt lat="43.14752" lon="3.07794">
        <ele>197</ele>
        <time>2025-12-29T13:54:42.802Z</time>
      </trkpt>
      <trkpt lat="43.14752" lon="3.07794">
        <ele>197</ele>
        <time>2025-12-29T13:54:43.802Z</time>
      </trkpt>
      <trkpt lat="43.14752" lon="3.07794">
        <ele>197</ele>
        <time>2025-12-29T13:54:44.802Z</time>
      </trkpt>
      <trkpt lat="43.14752" lon="3.07794">
        <ele>197</ele>
        <time>2025-12-29T13:54:45.802Z</time>
      </trkpt>
      <trkpt lat="43.14752" lon="3.07794">
        <ele>197</ele>
        <time>2025-12-29T13:54:46.802Z</time>
      </trkpt>
      <trkpt lat="43.14752" lon="3.07794">
        <ele>197</ele>
        <time>2025-12-29T13:54:47.802Z</time>
      </trkpt>
      <trkpt lat="43.14752" lon="3.07794">
        <ele>196</ele>
        <time>2025-12-29T13:54:48.802Z</time>
      </trkpt>
      <trkpt lat="43.14752" lon="3.07794">
        <ele>196</ele>
        <time>2025-12-29T13:54:49.802Z</time>
      </trkpt>
      <trkpt lat="43.14752" lon="3.07794">
        <ele>196</ele>
        <time>2025-12-29T13:54:50.802Z</time>
      </trkpt>
      <trkpt lat="43.14752" lon="3.07794">
        <ele>196</ele>
        <time>2025-12-29T13:54:51.802Z</time>
      </trkpt>
      <trkpt lat="43.14752" lon="3.07794">
        <ele>196</ele>
        <time>2025-12-29T13:54:52.802Z</time>
      </trkpt>
      <trkpt lat="43.14752" lon="3.07794">
        <ele>196</ele>
        <time>2025-12-29T13:54:53.802Z</time>
      </trkpt>
      <trkpt lat="43.14752" lon="3.07794">
        <ele>197</ele>
        <time>2025-12-29T13:54:54.802Z</time>
      </trkpt>
      <trkpt lat="43.14753" lon="3.07794">
        <ele>197</ele>
        <time>2025-12-29T13:54:55.802Z</time>
      </trkpt>
      <trkpt lat="43.14753" lon="3.07795">
        <ele>197</ele>
        <time>2025-12-29T13:54:56.802Z</time>
      </trkpt>
      <trkpt lat="43.14754" lon="3.07795">
        <ele>197</ele>
        <time>2025-12-29T13:54:57.802Z</time>
      </trkpt>
      <trkpt lat="43.14754" lon="3.07796">
        <ele>197</ele>
        <time>2025-12-29T13:54:58.802Z</time>
      </trkpt>
      <trkpt lat="43.14755" lon="3.07797">
        <ele>197</ele>
        <time>2025-12-29T13:54:59.802Z</time>
      </trkpt>
      <trkpt lat="43.14755" lon="3.07797">
        <ele>197</ele>
        <time>2025-12-29T13:55:00.802Z</time>
      </trkpt>
      <trkpt lat="43.14755" lon="3.07798">
        <ele>197</ele>
        <time>2025-12-29T13:55:01.802Z</time>
      </trkpt>
      <trkpt lat="43.14756" lon="3.07798">
        <ele>197</ele>
        <time>2025-12-29T13:55:02.802Z</time>
      </trkpt>
      <trkpt lat="43.14756" lon="3.07799">
        <ele>198</ele>
        <time>2025-12-29T13:55:03.802Z</time>
      </trkpt>
      <trkpt lat="43.14756" lon="3.07799">
        <ele>198</ele>
        <time>2025-12-29T13:55:04.802Z</time>
      </trkpt>
      <trkpt lat="43.14756" lon="3.07799">
        <ele>198</ele>
        <time>2025-12-29T13:55:05.802Z</time>
      </trkpt>
      <trkpt lat="43.14756" lon="3.07798">
        <ele>198</ele>
        <time>2025-12-29T13:55:06.802Z</time>
      </trkpt>
      <trkpt lat="43.14756" lon="3.07798">
        <ele>199</ele>
        <time>2025-12-29T13:55:07.802Z</time>
      </trkpt>
      <trkpt lat="43.14756" lon="3.07798">
        <ele>199</ele>
        <time>2025-12-29T13:55:08.802Z</time>
      </trkpt>
      <trkpt lat="43.14756" lon="3.07798">
        <ele>199</ele>
        <time>2025-12-29T13:55:09.802Z</time>
      </trkpt>
      <trkpt lat="43.14756" lon="3.07798">
        <ele>199</ele>
        <time>2025-12-29T13:55:10.802Z</time>
      </trkpt>
      <trkpt lat="43.14756" lon="3.07798">
        <ele>199</ele>
        <time>2025-12-29T13:55:11.802Z</time>
      </trkpt>
      <trkpt lat="43.14756" lon="3.07798">
        <ele>199</ele>
        <time>2025-12-29T13:55:12.802Z</time>
      </trkpt>
      <trkpt lat="43.14756" lon="3.07798">
        <ele>199</ele>
        <time>2025-12-29T13:55:13.802Z</time>
      </trkpt>
      <trkpt lat="43.14757" lon="3.07798">
        <ele>200</ele>
        <time>2025-12-29T13:55:14.802Z</time>
      </trkpt>
      <trkpt lat="43.14757" lon="3.07798">
        <ele>200</ele>
        <time>2025-12-29T13:55:15.802Z</time>
      </trkpt>
      <trkpt lat="43.14757" lon="3.07798">
        <ele>200</ele>
        <time>2025-12-29T13:55:16.802Z</time>
      </trkpt>
      <trkpt lat="43.14757" lon="3.07797">
        <ele>200</ele>
        <time>2025-12-29T13:55:17.802Z</time>
      </trkpt>
      <trkpt lat="43.14757" lon="3.07797">
        <ele>199</ele>
        <time>2025-12-29T13:55:18.802Z</time>
      </trkpt>
      <trkpt lat="43.14757" lon="3.07797">
        <ele>199</ele>
        <time>2025-12-29T13:55:19.802Z</time>
      </trkpt>
      <trkpt lat="43.14757" lon="3.07797">
        <ele>199</ele>
        <time>2025-12-29T13:55:20.802Z</time>
      </trkpt>
      <trkpt lat="43.14757" lon="3.07797">
        <ele>199</ele>
        <time>2025-12-29T13:55:21.802Z</time>
      </trkpt>
      <trkpt lat="43.14757" lon="3.07797">
        <ele>199</ele>
        <time>2025-12-29T13:55:22.802Z</time>
      </trkpt>
      <trkpt lat="43.14757" lon="3.07797">
        <ele>198</ele>
        <time>2025-12-29T13:55:23.802Z</time>
      </trkpt>
      <trkpt lat="43.14757" lon="3.07797">
        <ele>198</ele>
        <time>2025-12-29T13:55:24.802Z</time>
      </trkpt>
      <trkpt lat="43.14757" lon="3.07797">
        <ele>198</ele>
        <time>2025-12-29T13:55:25.802Z</time>
      </trkpt>
      <trkpt lat="43.14757" lon="3.07797">
        <ele>198</ele>
        <time>2025-12-29T13:55:26.802Z</time>
      </trkpt>
      <trkpt lat="43.14757" lon="3.07797">
        <ele>198</ele>
        <time>2025-12-29T13:55:27.802Z</time>
      </trkpt>
      <trkpt lat="43.14757" lon="3.07797">
        <ele>198</ele>
        <time>2025-12-29T13:55:28.802Z</time>
      </trkpt>
      <trkpt lat="43.14757" lon="3.07797">
        <ele>197</ele>
        <time>2025-12-29T13:55:29.802Z</time>
      </trkpt>
      <trkpt lat="43.14757" lon="3.07797">
        <ele>197</ele>
        <time>2025-12-29T13:55:30.802Z</time>
      </trkpt>
      <trkpt lat="43.14757" lon="3.07797">
        <ele>197</ele>
        <time>2025-12-29T13:55:31.802Z</time>
      </trkpt>
      <trkpt lat="43.14757" lon="3.07797">
        <ele>197</ele>
        <time>2025-12-29T13:55:32.802Z</time>
      </trkpt>
      <trkpt lat="43.14757" lon="3.07797">
        <ele>196</ele>
        <time>2025-12-29T13:55:33.802Z</time>
      </trkpt>
      <trkpt lat="43.14757" lon="3.07796">
        <ele>196</ele>
        <time>2025-12-29T13:55:34.802Z</time>
      </trkpt>
      <trkpt lat="43.14757" lon="3.07796">
        <ele>196</ele>
        <time>2025-12-29T13:55:35.802Z</time>
      </trkpt>
      <trkpt lat="43.14757" lon="3.07796">
        <ele>197</ele>
        <time>2025-12-29T13:55:36.802Z</time>
      </trkpt>
      <trkpt lat="43.14757" lon="3.07796">
        <ele>197</ele>
        <time>2025-12-29T13:55:37.802Z</time>
      </trkpt>
      <trkpt lat="43.14757" lon="3.07796">
        <ele>197</ele>
        <time>2025-12-29T13:55:38.802Z</time>
      </trkpt>
      <trkpt lat="43.14757" lon="3.07796">
        <ele>197</ele>
        <time>2025-12-29T13:55:39.802Z</time>
      </trkpt>
      <trkpt lat="43.14757" lon="3.07796">
        <ele>197</ele>
        <time>2025-12-29T13:55:40.802Z</time>
      </trkpt>
      <trkpt lat="43.14757" lon="3.07796">
        <ele>196</ele>
        <time>2025-12-29T13:55:41.802Z</time>
      </trkpt>
      <trkpt lat="43.14757" lon="3.07796">
        <ele>196</ele>
        <time>2025-12-29T13:55:42.802Z</time>
      </trkpt>
      <trkpt lat="43.14757" lon="3.07796">
        <ele>197</ele>
        <time>2025-12-29T13:55:43.802Z</time>
      </trkpt>
      <trkpt lat="43.14757" lon="3.07796">
        <ele>197</ele>
        <time>2025-12-29T13:55:44.802Z</time>
      </trkpt>
      <trkpt lat="43.14757" lon="3.07796">
        <ele>197</ele>
        <time>2025-12-29T13:55:45.802Z</time>
      </trkpt>
      <trkpt lat="43.14757" lon="3.07796">
        <ele>197</ele>
        <time>2025-12-29T13:55:46.802Z</time>
      </trkpt>
      <trkpt lat="43.14757" lon="3.07796">
        <ele>196</ele>
        <time>2025-12-29T13:55:47.802Z</time>
      </trkpt>
      <trkpt lat="43.14757" lon="3.07795">
        <ele>195</ele>
        <time>2025-12-29T13:55:48.802Z</time>
      </trkpt>
      <trkpt lat="43.14757" lon="3.07795">
        <ele>195</ele>
        <time>2025-12-29T13:55:49.802Z</time>
      </trkpt>
      <trkpt lat="43.14757" lon="3.07795">
        <ele>194</ele>
        <time>2025-12-29T13:55:50.802Z</time>
      </trkpt>
      <trkpt lat="43.14757" lon="3.07795">
        <ele>194</ele>
        <time>2025-12-29T13:55:51.802Z</time>
      </trkpt>
      <trkpt lat="43.14757" lon="3.07795">
        <ele>194</ele>
        <time>2025-12-29T13:55:52.802Z</time>
      </trkpt>
      <trkpt lat="43.14757" lon="3.07795">
        <ele>194</ele>
        <time>2025-12-29T13:55:53.802Z</time>
      </trkpt>
      <trkpt lat="43.14757" lon="3.07794">
        <ele>194</ele>
        <time>2025-12-29T13:55:54.802Z</time>
      </trkpt>
      <trkpt lat="43.14757" lon="3.07794">
        <ele>194</ele>
        <time>2025-12-29T13:55:55.802Z</time>
      </trkpt>
      <trkpt lat="43.14757" lon="3.07794">
        <ele>195</ele>
        <time>2025-12-29T13:55:56.802Z</time>
      </trkpt>
      <trkpt lat="43.14757" lon="3.07794">
        <ele>195</ele>
        <time>2025-12-29T13:55:57.802Z</time>
      </trkpt>
      <trkpt lat="43.14757" lon="3.07794">
        <ele>195</ele>
        <time>2025-12-29T13:55:58.802Z</time>
      </trkpt>
      <trkpt lat="43.14757" lon="3.07793">
        <ele>195</ele>
        <time>2025-12-29T13:55:59.802Z</time>
      </trkpt>
      <trkpt lat="43.14757" lon="3.07793">
        <ele>194</ele>
        <time>2025-12-29T13:56:00.802Z</time>
      </trkpt>
      <trkpt lat="43.14757" lon="3.07793">
        <ele>194</ele>
        <time>2025-12-29T13:56:01.802Z</time>
      </trkpt>
      <trkpt lat="43.14757" lon="3.07793">
        <ele>194</ele>
        <time>2025-12-29T13:56:02.802Z</time>
      </trkpt>
      <trkpt lat="43.14757" lon="3.07793">
        <ele>194</ele>
        <time>2025-12-29T13:56:03.802Z</time>
      </trkpt>
      <trkpt lat="43.14757" lon="3.07793">
        <ele>195</ele>
        <time>2025-12-29T13:56:04.802Z</time>
      </trkpt>
      <trkpt lat="43.14757" lon="3.07793">
        <ele>195</ele>
        <time>2025-12-29T13:56:05.802Z</time>
      </trkpt>
      <trkpt lat="43.14756" lon="3.07794">
        <ele>195</ele>
        <time>2025-12-29T13:56:06.802Z</time>
      </trkpt>
      <trkpt lat="43.14756" lon="3.07794">
        <ele>195</ele>
        <time>2025-12-29T13:56:07.802Z</time>
      </trkpt>
      <trkpt lat="43.14756" lon="3.07795">
        <ele>195</ele>
        <time>2025-12-29T13:56:08.802Z</time>
      </trkpt>
      <trkpt lat="43.14756" lon="3.07795">
        <ele>195</ele>
        <time>2025-12-29T13:56:09.802Z</time>
      </trkpt>
      <trkpt lat="43.14756" lon="3.07796">
        <ele>195</ele>
        <time>2025-12-29T13:56:10.802Z</time>
      </trkpt>
      <trkpt lat="43.14756" lon="3.07796">
        <ele>194</ele>
        <time>2025-12-29T13:56:11.802Z</time>
      </trkpt>
      <trkpt lat="43.14756" lon="3.07796">
        <ele>194</ele>
        <time>2025-12-29T13:56:12.802Z</time>
      </trkpt>
      <trkpt lat="43.14757" lon="3.07796">
        <ele>194</ele>
        <time>2025-12-29T13:56:13.802Z</time>
      </trkpt>
      <trkpt lat="43.14757" lon="3.07796">
        <ele>194</ele>
        <time>2025-12-29T13:56:14.802Z</time>
      </trkpt>
      <trkpt lat="43.14757" lon="3.07796">
        <ele>194</ele>
        <time>2025-12-29T13:56:15.802Z</time>
      </trkpt>
      <trkpt lat="43.14757" lon="3.07796">
        <ele>194</ele>
        <time>2025-12-29T13:56:16.802Z</time>
      </trkpt>
      <trkpt lat="43.14757" lon="3.07796">
        <ele>194</ele>
        <time>2025-12-29T13:56:17.802Z</time>
      </trkpt>
      <trkpt lat="43.14757" lon="3.07796">
        <ele>194</ele>
        <time>2025-12-29T13:56:18.802Z</time>
      </trkpt>
      <trkpt lat="43.14757" lon="3.07796">
        <ele>194</ele>
        <time>2025-12-29T13:56:19.802Z</time>
      </trkpt>
      <trkpt lat="43.14757" lon="3.07796">
        <ele>194</ele>
        <time>2025-12-29T13:56:20.802Z</time>
      </trkpt>
      <trkpt lat="43.14757" lon="3.07796">
        <ele>194</ele>
        <time>2025-12-29T13:56:21.802Z</time>
      </trkpt>
      <trkpt lat="43.14757" lon="3.07796">
        <ele>194</ele>
        <time>2025-12-29T13:56:22.802Z</time>
      </trkpt>
      <trkpt lat="43.14757" lon="3.07796">
        <ele>194</ele>
        <time>2025-12-29T13:56:23.802Z</time>
      </trkpt>
      <trkpt lat="43.14757" lon="3.07796">
        <ele>193</ele>
        <time>2025-12-29T13:56:24.802Z</time>
      </trkpt>
      <trkpt lat="43.14757" lon="3.07796">
        <ele>193</ele>
        <time>2025-12-29T13:56:25.802Z</time>
      </trkpt>
      <trkpt lat="43.14757" lon="3.07796">
        <ele>193</ele>
        <time>2025-12-29T13:56:26.802Z</time>
      </trkpt>
      <trkpt lat="43.14757" lon="3.07796">
        <ele>193</ele>
        <time>2025-12-29T13:56:27.802Z</time>
      </trkpt>
      <trkpt lat="43.14757" lon="3.07796">
        <ele>193</ele>
        <time>2025-12-29T13:56:28.802Z</time>
      </trkpt>
      <trkpt lat="43.14757" lon="3.07796">
        <ele>193</ele>
        <time>2025-12-29T13:56:29.802Z</time>
      </trkpt>
      <trkpt lat="43.14757" lon="3.07796">
        <ele>193</ele>
        <time>2025-12-29T13:56:30.802Z</time>
      </trkpt>
      <trkpt lat="43.14757" lon="3.07796">
        <ele>193</ele>
        <time>2025-12-29T13:56:31.802Z</time>
      </trkpt>
      <trkpt lat="43.14756" lon="3.07796">
        <ele>193</ele>
        <time>2025-12-29T13:56:32.802Z</time>
      </trkpt>
      <trkpt lat="43.14756" lon="3.07796">
        <ele>193</ele>
        <time>2025-12-29T13:56:33.802Z</time>
      </trkpt>
      <trkpt lat="43.14756" lon="3.07796">
        <ele>194</ele>
        <time>2025-12-29T13:56:34.802Z</time>
      </trkpt>
      <trkpt lat="43.14756" lon="3.07795">
        <ele>194</ele>
        <time>2025-12-29T13:56:35.802Z</time>
      </trkpt>
      <trkpt lat="43.14756" lon="3.07795">
        <ele>194</ele>
        <time>2025-12-29T13:56:36.802Z</time>
      </trkpt>
      <trkpt lat="43.14756" lon="3.07795">
        <ele>194</ele>
        <time>2025-12-29T13:56:37.802Z</time>
      </trkpt>
      <trkpt lat="43.14756" lon="3.07795">
        <ele>194</ele>
        <time>2025-12-29T13:56:38.802Z</time>
      </trkpt>
      <trkpt lat="43.14756" lon="3.07795">
        <ele>194</ele>
        <time>2025-12-29T13:56:39.802Z</time>
      </trkpt>
      <trkpt lat="43.14756" lon="3.07795">
        <ele>194</ele>
        <time>2025-12-29T13:56:40.802Z</time>
      </trkpt>
      <trkpt lat="43.14756" lon="3.07795">
        <ele>194</ele>
        <time>2025-12-29T13:56:41.802Z</time>
      </trkpt>
      <trkpt lat="43.14756" lon="3.07795">
        <ele>194</ele>
        <time>2025-12-29T13:56:42.802Z</time>
      </trkpt>
      <trkpt lat="43.14756" lon="3.07795">
        <ele>194</ele>
        <time>2025-12-29T13:56:43.802Z</time>
      </trkpt>
      <trkpt lat="43.14756" lon="3.07795">
        <ele>193</ele>
        <time>2025-12-29T13:56:44.802Z</time>
      </trkpt>
      <trkpt lat="43.14756" lon="3.07795">
        <ele>193</ele>
        <time>2025-12-29T13:56:45.802Z</time>
      </trkpt>
      <trkpt lat="43.14757" lon="3.07795">
        <ele>193</ele>
        <time>2025-12-29T13:56:46.802Z</time>
      </trkpt>
      <trkpt lat="43.14757" lon="3.07795">
        <ele>193</ele>
        <time>2025-12-29T13:56:47.802Z</time>
      </trkpt>
      <trkpt lat="43.14757" lon="3.07795">
        <ele>193</ele>
        <time>2025-12-29T13:56:48.802Z</time>
      </trkpt>
      <trkpt lat="43.14757" lon="3.07795">
        <ele>193</ele>
        <time>2025-12-29T13:56:49.802Z</time>
      </trkpt>
      <trkpt lat="43.14757" lon="3.07795">
        <ele>194</ele>
        <time>2025-12-29T13:56:50.802Z</time>
      </trkpt>
      <trkpt lat="43.14757" lon="3.07795">
        <ele>194</ele>
        <time>2025-12-29T13:56:51.802Z</time>
      </trkpt>
      <trkpt lat="43.14757" lon="3.07795">
        <ele>194</ele>
        <time>2025-12-29T13:56:52.802Z</time>
      </trkpt>
      <trkpt lat="43.14757" lon="3.07795">
        <ele>194</ele>
        <time>2025-12-29T13:56:53.802Z</time>
      </trkpt>
      <trkpt lat="43.14757" lon="3.07795">
        <ele>194</ele>
        <time>2025-12-29T13:56:54.802Z</time>
      </trkpt>
      <trkpt lat="43.14757" lon="3.07795">
        <ele>194</ele>
        <time>2025-12-29T13:56:55.802Z</time>
      </trkpt>
      <trkpt lat="43.14756" lon="3.07795">
        <ele>194</ele>
        <time>2025-12-29T13:56:56.802Z</time>
      </trkpt>
      <trkpt lat="43.14756" lon="3.07795">
        <ele>194</ele>
        <time>2025-12-29T13:56:57.802Z</time>
      </trkpt>
      <trkpt lat="43.14756" lon="3.07795">
        <ele>194</ele>
        <time>2025-12-29T13:56:58.802Z</time>
      </trkpt>
      <trkpt lat="43.14756" lon="3.07795">
        <ele>194</ele>
        <time>2025-12-29T13:56:59.802Z</time>
      </trkpt>
      <trkpt lat="43.14756" lon="3.07795">
        <ele>194</ele>
        <time>2025-12-29T13:57:00.802Z</time>
      </trkpt>
      <trkpt lat="43.14756" lon="3.07795">
        <ele>194</ele>
        <time>2025-12-29T13:57:01.802Z</time>
      </trkpt>
      <trkpt lat="43.14756" lon="3.07795">
        <ele>194</ele>
        <time>2025-12-29T13:57:02.802Z</time>
      </trkpt>
      <trkpt lat="43.14756" lon="3.07795">
        <ele>194</ele>
        <time>2025-12-29T13:57:03.802Z</time>
      </trkpt>
      <trkpt lat="43.14756" lon="3.07795">
        <ele>194</ele>
        <time>2025-12-29T13:57:04.802Z</time>
      </trkpt>
      <trkpt lat="43.14756" lon="3.07795">
        <ele>194</ele>
        <time>2025-12-29T13:57:05.802Z</time>
      </trkpt>
      <trkpt lat="43.14756" lon="3.07795">
        <ele>194</ele>
        <time>2025-12-29T13:57:06.802Z</time>
      </trkpt>
      <trkpt lat="43.14756" lon="3.07795">
        <ele>194</ele>
        <time>2025-12-29T13:57:07.802Z</time>
      </trkpt>
      <trkpt lat="43.14756" lon="3.07795">
        <ele>194</ele>
        <time>2025-12-29T13:57:08.802Z</time>
      </trkpt>
      <trkpt lat="43.14756" lon="3.07795">
        <ele>194</ele>
        <time>2025-12-29T13:57:09.802Z</time>
      </trkpt>
      <trkpt lat="43.14756" lon="3.07795">
        <ele>194</ele>
        <time>2025-12-29T13:57:10.802Z</time>
      </trkpt>
      <trkpt lat="43.14756" lon="3.07794">
        <ele>194</ele>
        <time>2025-12-29T13:57:11.802Z</time>
      </trkpt>
      <trkpt lat="43.14756" lon="3.07794">
        <ele>194</ele>
        <time>2025-12-29T13:57:12.802Z</time>
      </trkpt>
      <trkpt lat="43.14756" lon="3.07794">
        <ele>194</ele>
        <time>2025-12-29T13:57:13.802Z</time>
      </trkpt>
      <trkpt lat="43.14756" lon="3.07794">
        <ele>194</ele>
        <time>2025-12-29T13:57:14.802Z</time>
      </trkpt>
      <trkpt lat="43.14756" lon="3.07794">
        <ele>194</ele>
        <time>2025-12-29T13:57:15.802Z</time>
      </trkpt>
      <trkpt lat="43.14756" lon="3.07794">
        <ele>194</ele>
        <time>2025-12-29T13:57:16.802Z</time>
      </trkpt>
      <trkpt lat="43.14756" lon="3.07794">
        <ele>194</ele>
        <time>2025-12-29T13:57:17.802Z</time>
      </trkpt>
      <trkpt lat="43.14756" lon="3.07794">
        <ele>193</ele>
        <time>2025-12-29T13:57:18.802Z</time>
      </trkpt>
      <trkpt lat="43.14756" lon="3.07795">
        <ele>193</ele>
        <time>2025-12-29T13:57:19.802Z</time>
      </trkpt>
      <trkpt lat="43.14756" lon="3.07795">
        <ele>193</ele>
        <time>2025-12-29T13:57:20.802Z</time>
      </trkpt>
      <trkpt lat="43.14756" lon="3.07795">
        <ele>193</ele>
        <time>2025-12-29T13:57:21.802Z</time>
      </trkpt>
      <trkpt lat="43.14756" lon="3.07795">
        <ele>194</ele>
        <time>2025-12-29T13:57:22.802Z</time>
      </trkpt>
      <trkpt lat="43.14757" lon="3.07795">
        <ele>194</ele>
        <time>2025-12-29T13:57:23.802Z</time>
      </trkpt>
      <trkpt lat="43.14757" lon="3.07795">
        <ele>195</ele>
        <time>2025-12-29T13:57:24.802Z</time>
      </trkpt>
      <trkpt lat="43.14757" lon="3.07795">
        <ele>195</ele>
        <time>2025-12-29T13:57:25.802Z</time>
      </trkpt>
      <trkpt lat="43.14757" lon="3.07795">
        <ele>195</ele>
        <time>2025-12-29T13:57:26.802Z</time>
      </trkpt>
      <trkpt lat="43.14757" lon="3.07795">
        <ele>196</ele>
        <time>2025-12-29T13:57:27.802Z</time>
      </trkpt>
      <trkpt lat="43.14757" lon="3.07795">
        <ele>196</ele>
        <time>2025-12-29T13:57:28.802Z</time>
      </trkpt>
      <trkpt lat="43.14757" lon="3.07795">
        <ele>196</ele>
        <time>2025-12-29T13:57:29.802Z</time>
      </trkpt>
      <trkpt lat="43.14757" lon="3.07795">
        <ele>196</ele>
        <time>2025-12-29T13:57:30.802Z</time>
      </trkpt>
      <trkpt lat="43.14757" lon="3.07795">
        <ele>196</ele>
        <time>2025-12-29T13:57:31.802Z</time>
      </trkpt>
      <trkpt lat="43.14757" lon="3.07795">
        <ele>196</ele>
        <time>2025-12-29T13:57:32.802Z</time>
      </trkpt>
      <trkpt lat="43.14757" lon="3.07795">
        <ele>196</ele>
        <time>2025-12-29T13:57:33.802Z</time>
      </trkpt>
      <trkpt lat="43.14757" lon="3.07795">
        <ele>196</ele>
        <time>2025-12-29T13:57:34.802Z</time>
      </trkpt>
      <trkpt lat="43.14757" lon="3.07795">
        <ele>196</ele>
        <time>2025-12-29T13:57:35.802Z</time>
      </trkpt>
      <trkpt lat="43.14757" lon="3.07795">
        <ele>196</ele>
        <time>2025-12-29T13:57:36.802Z</time>
      </trkpt>
      <trkpt lat="43.14757" lon="3.07795">
        <ele>196</ele>
        <time>2025-12-29T13:57:37.802Z</time>
      </trkpt>
      <trkpt lat="43.14757" lon="3.07795">
        <ele>196</ele>
        <time>2025-12-29T13:57:38.802Z</time>
      </trkpt>
      <trkpt lat="43.14757" lon="3.07795">
        <ele>195</ele>
        <time>2025-12-29T13:57:39.802Z</time>
      </trkpt>
      <trkpt lat="43.14757" lon="3.07795">
        <ele>195</ele>
        <time>2025-12-29T13:57:40.802Z</time>
      </trkpt>
      <trkpt lat="43.14757" lon="3.07795">
        <ele>195</ele>
        <time>2025-12-29T13:57:41.802Z</time>
      </trkpt>
      <trkpt lat="43.14756" lon="3.07795">
        <ele>195</ele>
        <time>2025-12-29T13:57:42.802Z</time>
      </trkpt>
      <trkpt lat="43.14756" lon="3.07795">
        <ele>195</ele>
        <time>2025-12-29T13:57:43.802Z</time>
      </trkpt>
      <trkpt lat="43.14756" lon="3.07795">
        <ele>195</ele>
        <time>2025-12-29T13:57:44.802Z</time>
      </trkpt>
      <trkpt lat="43.14756" lon="3.07795">
        <ele>195</ele>
        <time>2025-12-29T13:57:45.802Z</time>
      </trkpt>
      <trkpt lat="43.14757" lon="3.07795">
        <ele>194</ele>
        <time>2025-12-29T13:57:46.802Z</time>
      </trkpt>
      <trkpt lat="43.14757" lon="3.07795">
        <ele>194</ele>
        <time>2025-12-29T13:57:47.802Z</time>
      </trkpt>
      <trkpt lat="43.14757" lon="3.07795">
        <ele>195</ele>
        <time>2025-12-29T13:57:48.802Z</time>
      </trkpt>
      <trkpt lat="43.14757" lon="3.07795">
        <ele>195</ele>
        <time>2025-12-29T13:57:49.802Z</time>
      </trkpt>
      <trkpt lat="43.14757" lon="3.07795">
        <ele>195</ele>
        <time>2025-12-29T13:57:50.802Z</time>
      </trkpt>
      <trkpt lat="43.14757" lon="3.07795">
        <ele>195</ele>
        <time>2025-12-29T13:57:51.802Z</time>
      </trkpt>
      <trkpt lat="43.14757" lon="3.07795">
        <ele>195</ele>
        <time>2025-12-29T13:57:52.802Z</time>
      </trkpt>
      <trkpt lat="43.14757" lon="3.07795">
        <ele>196</ele>
        <time>2025-12-29T13:57:53.802Z</time>
      </trkpt>
      <trkpt lat="43.14757" lon="3.07795">
        <ele>196</ele>
        <time>2025-12-29T13:57:54.802Z</time>
      </trkpt>
      <trkpt lat="43.14757" lon="3.07795">
        <ele>196</ele>
        <time>2025-12-29T13:57:55.802Z</time>
      </trkpt>
      <trkpt lat="43.14757" lon="3.07795">
        <ele>197</ele>
        <time>2025-12-29T13:57:56.802Z</time>
      </trkpt>
      <trkpt lat="43.14757" lon="3.07795">
        <ele>197</ele>
        <time>2025-12-29T13:57:57.802Z</time>
      </trkpt>
      <trkpt lat="43.14757" lon="3.07796">
        <ele>198</ele>
        <time>2025-12-29T13:57:58.802Z</time>
      </trkpt>
      <trkpt lat="43.14756" lon="3.07796">
        <ele>198</ele>
        <time>2025-12-29T13:57:59.802Z</time>
      </trkpt>
      <trkpt lat="43.14756" lon="3.07796">
        <ele>199</ele>
        <time>2025-12-29T13:58:00.802Z</time>
      </trkpt>
      <trkpt lat="43.14757" lon="3.07796">
        <ele>199</ele>
        <time>2025-12-29T13:58:01.802Z</time>
      </trkpt>
      <trkpt lat="43.14757" lon="3.07796">
        <ele>199</ele>
        <time>2025-12-29T13:58:02.802Z</time>
      </trkpt>
      <trkpt lat="43.14757" lon="3.07796">
        <ele>199</ele>
        <time>2025-12-29T13:58:03.802Z</time>
      </trkpt>
      <trkpt lat="43.14757" lon="3.07796">
        <ele>199</ele>
        <time>2025-12-29T13:58:04.802Z</time>
      </trkpt>
      <trkpt lat="43.14758" lon="3.07796">
        <ele>199</ele>
        <time>2025-12-29T13:58:05.802Z</time>
      </trkpt>
      <trkpt lat="43.14758" lon="3.07796">
        <ele>199</ele>
        <time>2025-12-29T13:58:06.802Z</time>
      </trkpt>
      <trkpt lat="43.14758" lon="3.07796">
        <ele>199</ele>
        <time>2025-12-29T13:58:07.802Z</time>
      </trkpt>
      <trkpt lat="43.14758" lon="3.07796">
        <ele>199</ele>
        <time>2025-12-29T13:58:08.802Z</time>
      </trkpt>
      <trkpt lat="43.14758" lon="3.07796">
        <ele>199</ele>
        <time>2025-12-29T13:58:09.802Z</time>
      </trkpt>
      <trkpt lat="43.14758" lon="3.07796">
        <ele>199</ele>
        <time>2025-12-29T13:58:10.802Z</time>
      </trkpt>
      <trkpt lat="43.14758" lon="3.07796">
        <ele>199</ele>
        <time>2025-12-29T13:58:11.802Z</time>
      </trkpt>
      <trkpt lat="43.14758" lon="3.07796">
        <ele>199</ele>
        <time>2025-12-29T13:58:12.802Z</time>
      </trkpt>
      <trkpt lat="43.14758" lon="3.07796">
        <ele>199</ele>
        <time>2025-12-29T13:58:13.802Z</time>
      </trkpt>
      <trkpt lat="43.14758" lon="3.07796">
        <ele>199</ele>
        <time>2025-12-29T13:58:14.802Z</time>
      </trkpt>
      <trkpt lat="43.14758" lon="3.07796">
        <ele>198</ele>
        <time>2025-12-29T13:58:15.802Z</time>
      </trkpt>
      <trkpt lat="43.14758" lon="3.07796">
        <ele>198</ele>
        <time>2025-12-29T13:58:16.802Z</time>
      </trkpt>
      <trkpt lat="43.14758" lon="3.07796">
        <ele>198</ele>
        <time>2025-12-29T13:58:17.802Z</time>
      </trkpt>
      <trkpt lat="43.14758" lon="3.07796">
        <ele>197</ele>
        <time>2025-12-29T13:58:18.802Z</time>
      </trkpt>
      <trkpt lat="43.14758" lon="3.07796">
        <ele>197</ele>
        <time>2025-12-29T13:58:19.802Z</time>
      </trkpt>
      <trkpt lat="43.14758" lon="3.07796">
        <ele>197</ele>
        <time>2025-12-29T13:58:20.802Z</time>
      </trkpt>
      <trkpt lat="43.14758" lon="3.07796">
        <ele>196</ele>
        <time>2025-12-29T13:58:21.802Z</time>
      </trkpt>
      <trkpt lat="43.14759" lon="3.07796">
        <ele>196</ele>
        <time>2025-12-29T13:58:22.802Z</time>
      </trkpt>
      <trkpt lat="43.14759" lon="3.07796">
        <ele>196</ele>
        <time>2025-12-29T13:58:23.802Z</time>
      </trkpt>
      <trkpt lat="43.14759" lon="3.07796">
        <ele>195</ele>
        <time>2025-12-29T13:58:24.802Z</time>
      </trkpt>
      <trkpt lat="43.14759" lon="3.07796">
        <ele>195</ele>
        <time>2025-12-29T13:58:25.802Z</time>
      </trkpt>
      <trkpt lat="43.14759" lon="3.07796">
        <ele>195</ele>
        <time>2025-12-29T13:58:26.802Z</time>
      </trkpt>
      <trkpt lat="43.14759" lon="3.07796">
        <ele>194</ele>
        <time>2025-12-29T13:58:27.802Z</time>
      </trkpt>
      <trkpt lat="43.14759" lon="3.07796">
        <ele>194</ele>
        <time>2025-12-29T13:58:28.802Z</time>
      </trkpt>
      <trkpt lat="43.14759" lon="3.07796">
        <ele>194</ele>
        <time>2025-12-29T13:58:29.802Z</time>
      </trkpt>
      <trkpt lat="43.14759" lon="3.07796">
        <ele>194</ele>
        <time>2025-12-29T13:58:30.802Z</time>
      </trkpt>
      <trkpt lat="43.14759" lon="3.07796">
        <ele>194</ele>
        <time>2025-12-29T13:58:31.802Z</time>
      </trkpt>
      <trkpt lat="43.14759" lon="3.07797">
        <ele>194</ele>
        <time>2025-12-29T13:58:32.802Z</time>
      </trkpt>
      <trkpt lat="43.14759" lon="3.07797">
        <ele>193</ele>
        <time>2025-12-29T13:58:33.802Z</time>
      </trkpt>
      <trkpt lat="43.14759" lon="3.07797">
        <ele>193</ele>
        <time>2025-12-29T13:58:34.802Z</time>
      </trkpt>
      <trkpt lat="43.14758" lon="3.07797">
        <ele>193</ele>
        <time>2025-12-29T13:58:35.802Z</time>
      </trkpt>
      <trkpt lat="43.14757" lon="3.07798">
        <ele>194</ele>
        <time>2025-12-29T13:58:36.802Z</time>
      </trkpt>
      <trkpt lat="43.14757" lon="3.07798">
        <ele>194</ele>
        <time>2025-12-29T13:58:37.802Z</time>
      </trkpt>
      <trkpt lat="43.14756" lon="3.07798">
        <ele>194</ele>
        <time>2025-12-29T13:58:38.802Z</time>
      </trkpt>
      <trkpt lat="43.14756" lon="3.07798">
        <ele>194</ele>
        <time>2025-12-29T13:58:39.802Z</time>
      </trkpt>
      <trkpt lat="43.14756" lon="3.07798">
        <ele>194</ele>
        <time>2025-12-29T13:58:40.802Z</time>
      </trkpt>
      <trkpt lat="43.14756" lon="3.07798">
        <ele>193</ele>
        <time>2025-12-29T13:58:41.802Z</time>
      </trkpt>
      <trkpt lat="43.14756" lon="3.07798">
        <ele>193</ele>
        <time>2025-12-29T13:58:42.802Z</time>
      </trkpt>
      <trkpt lat="43.14756" lon="3.07798">
        <ele>193</ele>
        <time>2025-12-29T13:58:43.802Z</time>
      </trkpt>
      <trkpt lat="43.14756" lon="3.07798">
        <ele>193</ele>
        <time>2025-12-29T13:58:44.802Z</time>
      </trkpt>
      <trkpt lat="43.14756" lon="3.07798">
        <ele>193</ele>
        <time>2025-12-29T13:58:45.802Z</time>
      </trkpt>
      <trkpt lat="43.14756" lon="3.07798">
        <ele>193</ele>
        <time>2025-12-29T13:58:46.802Z</time>
      </trkpt>
      <trkpt lat="43.14756" lon="3.07798">
        <ele>193</ele>
        <time>2025-12-29T13:58:47.802Z</time>
      </trkpt>
      <trkpt lat="43.14756" lon="3.07798">
        <ele>193</ele>
        <time>2025-12-29T13:58:48.802Z</time>
      </trkpt>
      <trkpt lat="43.14757" lon="3.07798">
        <ele>193</ele>
        <time>2025-12-29T13:58:49.802Z</time>
      </trkpt>
      <trkpt lat="43.14757" lon="3.07798">
        <ele>194</ele>
        <time>2025-12-29T13:58:50.802Z</time>
      </trkpt>
      <trkpt lat="43.14757" lon="3.07797">
        <ele>194</ele>
        <time>2025-12-29T13:58:51.802Z</time>
      </trkpt>
      <trkpt lat="43.14757" lon="3.07797">
        <ele>194</ele>
        <time>2025-12-29T13:58:52.802Z</time>
      </trkpt>
      <trkpt lat="43.14757" lon="3.07798">
        <ele>194</ele>
        <time>2025-12-29T13:58:53.802Z</time>
      </trkpt>
      <trkpt lat="43.14757" lon="3.07797">
        <ele>195</ele>
        <time>2025-12-29T13:58:54.802Z</time>
      </trkpt>
      <trkpt lat="43.14757" lon="3.07797">
        <ele>195</ele>
        <time>2025-12-29T13:58:55.802Z</time>
      </trkpt>
      <trkpt lat="43.14757" lon="3.07798">
        <ele>195</ele>
        <time>2025-12-29T13:58:56.802Z</time>
      </trkpt>
      <trkpt lat="43.14757" lon="3.07798">
        <ele>195</ele>
        <time>2025-12-29T13:58:57.802Z</time>
      </trkpt>
      <trkpt lat="43.14757" lon="3.07798">
        <ele>195</ele>
        <time>2025-12-29T13:58:58.802Z</time>
      </trkpt>
      <trkpt lat="43.14757" lon="3.07798">
        <ele>195</ele>
        <time>2025-12-29T13:58:59.802Z</time>
      </trkpt>
      <trkpt lat="43.14757" lon="3.07798">
        <ele>196</ele>
        <time>2025-12-29T13:59:00.802Z</time>
      </trkpt>
      <trkpt lat="43.14757" lon="3.07798">
        <ele>196</ele>
        <time>2025-12-29T13:59:01.802Z</time>
      </trkpt>
      <trkpt lat="43.14757" lon="3.07798">
        <ele>195</ele>
        <time>2025-12-29T13:59:02.802Z</time>
      </trkpt>
      <trkpt lat="43.14757" lon="3.07798">
        <ele>195</ele>
        <time>2025-12-29T13:59:03.802Z</time>
      </trkpt>
      <trkpt lat="43.14757" lon="3.07798">
        <ele>196</ele>
        <time>2025-12-29T13:59:04.802Z</time>
      </trkpt>
      <trkpt lat="43.14758" lon="3.07798">
        <ele>196</ele>
        <time>2025-12-29T13:59:05.802Z</time>
      </trkpt>
      <trkpt lat="43.14758" lon="3.07798">
        <ele>196</ele>
        <time>2025-12-29T13:59:06.802Z</time>
      </trkpt>
      <trkpt lat="43.14758" lon="3.07799">
        <ele>196</ele>
        <time>2025-12-29T13:59:07.802Z</time>
      </trkpt>
      <trkpt lat="43.14758" lon="3.07799">
        <ele>196</ele>
        <time>2025-12-29T13:59:08.802Z</time>
      </trkpt>
      <trkpt lat="43.14758" lon="3.07799">
        <ele>196</ele>
        <time>2025-12-29T13:59:09.802Z</time>
      </trkpt>
      <trkpt lat="43.14758" lon="3.07799">
        <ele>196</ele>
        <time>2025-12-29T13:59:10.802Z</time>
      </trkpt>
      <trkpt lat="43.14758" lon="3.07799">
        <ele>196</ele>
        <time>2025-12-29T13:59:11.802Z</time>
      </trkpt>
      <trkpt lat="43.14758" lon="3.07799">
        <ele>196</ele>
        <time>2025-12-29T13:59:12.802Z</time>
      </trkpt>
      <trkpt lat="43.14758" lon="3.07799">
        <ele>196</ele>
        <time>2025-12-29T13:59:13.802Z</time>
      </trkpt>
      <trkpt lat="43.14758" lon="3.07799">
        <ele>196</ele>
        <time>2025-12-29T13:59:14.802Z</time>
      </trkpt>
      <trkpt lat="43.14758" lon="3.07799">
        <ele>196</ele>
        <time>2025-12-29T13:59:15.802Z</time>
      </trkpt>
      <trkpt lat="43.14758" lon="3.07799">
        <ele>196</ele>
        <time>2025-12-29T13:59:16.802Z</time>
      </trkpt>
      <trkpt lat="43.14758" lon="3.07799">
        <ele>196</ele>
        <time>2025-12-29T13:59:17.802Z</time>
      </trkpt>
      <trkpt lat="43.14758" lon="3.07799">
        <ele>196</ele>
        <time>2025-12-29T13:59:18.802Z</time>
      </trkpt>
      <trkpt lat="43.14758" lon="3.07799">
        <ele>196</ele>
        <time>2025-12-29T13:59:19.802Z</time>
      </trkpt>
      <trkpt lat="43.14758" lon="3.07799">
        <ele>196</ele>
        <time>2025-12-29T13:59:20.802Z</time>
      </trkpt>
      <trkpt lat="43.14758" lon="3.07799">
        <ele>196</ele>
        <time>2025-12-29T13:59:21.802Z</time>
      </trkpt>
      <trkpt lat="43.14758" lon="3.07799">
        <ele>196</ele>
        <time>2025-12-29T13:59:22.802Z</time>
      </trkpt>
      <trkpt lat="43.14759" lon="3.07799">
        <ele>196</ele>
        <time>2025-12-29T13:59:23.802Z</time>
      </trkpt>
      <trkpt lat="43.14759" lon="3.07799">
        <ele>196</ele>
        <time>2025-12-29T13:59:24.802Z</time>
      </trkpt>
      <trkpt lat="43.14759" lon="3.07798">
        <ele>196</ele>
        <time>2025-12-29T13:59:25.802Z</time>
      </trkpt>
      <trkpt lat="43.14759" lon="3.07798">
        <ele>196</ele>
        <time>2025-12-29T13:59:26.802Z</time>
      </trkpt>
      <trkpt lat="43.14759" lon="3.07798">
        <ele>196</ele>
        <time>2025-12-29T13:59:27.802Z</time>
      </trkpt>
      <trkpt lat="43.14759" lon="3.07798">
        <ele>196</ele>
        <time>2025-12-29T13:59:28.802Z</time>
      </trkpt>
      <trkpt lat="43.14759" lon="3.07798">
        <ele>196</ele>
        <time>2025-12-29T13:59:29.802Z</time>
      </trkpt>
      <trkpt lat="43.14759" lon="3.07798">
        <ele>196</ele>
        <time>2025-12-29T13:59:30.802Z</time>
      </trkpt>
      <trkpt lat="43.14759" lon="3.07798">
        <ele>196</ele>
        <time>2025-12-29T13:59:31.802Z</time>
      </trkpt>
      <trkpt lat="43.14759" lon="3.07798">
        <ele>196</ele>
        <time>2025-12-29T13:59:32.802Z</time>
      </trkpt>
      <trkpt lat="43.14759" lon="3.07798">
        <ele>196</ele>
        <time>2025-12-29T13:59:33.802Z</time>
      </trkpt>
      <trkpt lat="43.14759" lon="3.07798">
        <ele>196</ele>
        <time>2025-12-29T13:59:34.802Z</time>
      </trkpt>
      <trkpt lat="43.14759" lon="3.07799">
        <ele>196</ele>
        <time>2025-12-29T13:59:35.802Z</time>
      </trkpt>
      <trkpt lat="43.14759" lon="3.07799">
        <ele>196</ele>
        <time>2025-12-29T13:59:36.802Z</time>
      </trkpt>
      <trkpt lat="43.14759" lon="3.07799">
        <ele>196</ele>
        <time>2025-12-29T13:59:37.802Z</time>
      </trkpt>
      <trkpt lat="43.14759" lon="3.07799">
        <ele>196</ele>
        <time>2025-12-29T13:59:38.802Z</time>
      </trkpt>
      <trkpt lat="43.14759" lon="3.07799">
        <ele>196</ele>
        <time>2025-12-29T13:59:39.802Z</time>
      </trkpt>
      <trkpt lat="43.1476" lon="3.07799">
        <ele>196</ele>
        <time>2025-12-29T13:59:40.802Z</time>
      </trkpt>
      <trkpt lat="43.1476" lon="3.07799">
        <ele>196</ele>
        <time>2025-12-29T13:59:41.802Z</time>
      </trkpt>
      <trkpt lat="43.1476" lon="3.07799">
        <ele>196</ele>
        <time>2025-12-29T13:59:42.802Z</time>
      </trkpt>
      <trkpt lat="43.1476" lon="3.07799">
        <ele>196</ele>
        <time>2025-12-29T13:59:43.802Z</time>
      </trkpt>
      <trkpt lat="43.1476" lon="3.07799">
        <ele>196</ele>
        <time>2025-12-29T13:59:44.802Z</time>
      </trkpt>
      <trkpt lat="43.1476" lon="3.07799">
        <ele>196</ele>
        <time>2025-12-29T13:59:45.802Z</time>
      </trkpt>
      <trkpt lat="43.1476" lon="3.07799">
        <ele>196</ele>
        <time>2025-12-29T13:59:46.802Z</time>
      </trkpt>
      <trkpt lat="43.1476" lon="3.07799">
        <ele>196</ele>
        <time>2025-12-29T13:59:47.802Z</time>
      </trkpt>
      <trkpt lat="43.1476" lon="3.07799">
        <ele>197</ele>
        <time>2025-12-29T13:59:48.802Z</time>
      </trkpt>
      <trkpt lat="43.1476" lon="3.07799">
        <ele>197</ele>
        <time>2025-12-29T13:59:49.802Z</time>
      </trkpt>
      <trkpt lat="43.1476" lon="3.07799">
        <ele>197</ele>
        <time>2025-12-29T13:59:50.802Z</time>
      </trkpt>
      <trkpt lat="43.1476" lon="3.07799">
        <ele>197</ele>
        <time>2025-12-29T13:59:51.802Z</time>
      </trkpt>
      <trkpt lat="43.1476" lon="3.07799">
        <ele>197</ele>
        <time>2025-12-29T13:59:52.802Z</time>
      </trkpt>
      <trkpt lat="43.1476" lon="3.07799">
        <ele>198</ele>
        <time>2025-12-29T13:59:53.802Z</time>
      </trkpt>
      <trkpt lat="43.1476" lon="3.07799">
        <ele>198</ele>
        <time>2025-12-29T13:59:54.802Z</time>
      </trkpt>
      <trkpt lat="43.14761" lon="3.07799">
        <ele>199</ele>
        <time>2025-12-29T13:59:55.802Z</time>
      </trkpt>
      <trkpt lat="43.14761" lon="3.07799">
        <ele>199</ele>
        <time>2025-12-29T13:59:56.802Z</time>
      </trkpt>
      <trkpt lat="43.14761" lon="3.07799">
        <ele>199</ele>
        <time>2025-12-29T13:59:57.802Z</time>
      </trkpt>
      <trkpt lat="43.14761" lon="3.07799">
        <ele>199</ele>
        <time>2025-12-29T13:59:58.802Z</time>
      </trkpt>
      <trkpt lat="43.14761" lon="3.07799">
        <ele>199</ele>
        <time>2025-12-29T13:59:59.802Z</time>
      </trkpt>
      <trkpt lat="43.14761" lon="3.07799">
        <ele>199</ele>
        <time>2025-12-29T14:00:00.802Z</time>
      </trkpt>
      <trkpt lat="43.14761" lon="3.07799">
        <ele>199</ele>
        <time>2025-12-29T14:00:01.802Z</time>
      </trkpt>
      <trkpt lat="43.14761" lon="3.07799">
        <ele>199</ele>
        <time>2025-12-29T14:00:02.802Z</time>
      </trkpt>
      <trkpt lat="43.14761" lon="3.07799">
        <ele>199</ele>
        <time>2025-12-29T14:00:03.802Z</time>
      </trkpt>
      <trkpt lat="43.14761" lon="3.07799">
        <ele>198</ele>
        <time>2025-12-29T14:00:04.802Z</time>
      </trkpt>
      <trkpt lat="43.14761" lon="3.078">
        <ele>198</ele>
        <time>2025-12-29T14:00:05.802Z</time>
      </trkpt>
      <trkpt lat="43.14761" lon="3.078">
        <ele>197</ele>
        <time>2025-12-29T14:00:06.802Z</time>
      </trkpt>
      <trkpt lat="43.14762" lon="3.078">
        <ele>197</ele>
        <time>2025-12-29T14:00:07.802Z</time>
      </trkpt>
      <trkpt lat="43.14762" lon="3.078">
        <ele>196</ele>
        <time>2025-12-29T14:00:08.802Z</time>
      </trkpt>
      <trkpt lat="43.14762" lon="3.078">
        <ele>195</ele>
        <time>2025-12-29T14:00:09.802Z</time>
      </trkpt>
      <trkpt lat="43.14762" lon="3.078">
        <ele>195</ele>
        <time>2025-12-29T14:00:10.802Z</time>
      </trkpt>
      <trkpt lat="43.14762" lon="3.078">
        <ele>195</ele>
        <time>2025-12-29T14:00:11.802Z</time>
      </trkpt>
      <trkpt lat="43.14762" lon="3.078">
        <ele>194</ele>
        <time>2025-12-29T14:00:12.802Z</time>
      </trkpt>
      <trkpt lat="43.14762" lon="3.078">
        <ele>194</ele>
        <time>2025-12-29T14:00:13.802Z</time>
      </trkpt>
      <trkpt lat="43.14762" lon="3.078">
        <ele>194</ele>
        <time>2025-12-29T14:00:14.802Z</time>
      </trkpt>
      <trkpt lat="43.14762" lon="3.078">
        <ele>194</ele>
        <time>2025-12-29T14:00:15.802Z</time>
      </trkpt>
      <trkpt lat="43.14762" lon="3.078">
        <ele>194</ele>
        <time>2025-12-29T14:00:16.802Z</time>
      </trkpt>
      <trkpt lat="43.14762" lon="3.078">
        <ele>195</ele>
        <time>2025-12-29T14:00:17.802Z</time>
      </trkpt>
      <trkpt lat="43.14762" lon="3.078">
        <ele>195</ele>
        <time>2025-12-29T14:00:18.802Z</time>
      </trkpt>
      <trkpt lat="43.14762" lon="3.078">
        <ele>195</ele>
        <time>2025-12-29T14:00:19.802Z</time>
      </trkpt>
      <trkpt lat="43.14762" lon="3.07799">
        <ele>195</ele>
        <time>2025-12-29T14:00:20.802Z</time>
      </trkpt>
      <trkpt lat="43.14762" lon="3.078">
        <ele>195</ele>
        <time>2025-12-29T14:00:21.802Z</time>
      </trkpt>
      <trkpt lat="43.14763" lon="3.078">
        <ele>195</ele>
        <time>2025-12-29T14:00:22.802Z</time>
      </trkpt>
      <trkpt lat="43.14763" lon="3.078">
        <ele>195</ele>
        <time>2025-12-29T14:00:23.802Z</time>
      </trkpt>
      <trkpt lat="43.14763" lon="3.078">
        <ele>195</ele>
        <time>2025-12-29T14:00:24.802Z</time>
      </trkpt>
      <trkpt lat="43.14763" lon="3.078">
        <ele>194</ele>
        <time>2025-12-29T14:00:25.802Z</time>
      </trkpt>
      <trkpt lat="43.14763" lon="3.078">
        <ele>195</ele>
        <time>2025-12-29T14:00:26.802Z</time>
      </trkpt>
      <trkpt lat="43.14763" lon="3.078">
        <ele>195</ele>
        <time>2025-12-29T14:00:27.802Z</time>
      </trkpt>
      <trkpt lat="43.14763" lon="3.078">
        <ele>195</ele>
        <time>2025-12-29T14:00:28.802Z</time>
      </trkpt>
      <trkpt lat="43.14763" lon="3.078">
        <ele>195</ele>
        <time>2025-12-29T14:00:29.802Z</time>
      </trkpt>
      <trkpt lat="43.14763" lon="3.07799">
        <ele>196</ele>
        <time>2025-12-29T14:00:30.802Z</time>
      </trkpt>
      <trkpt lat="43.14763" lon="3.07799">
        <ele>196</ele>
        <time>2025-12-29T14:00:31.802Z</time>
      </trkpt>
      <trkpt lat="43.14763" lon="3.07799">
        <ele>196</ele>
        <time>2025-12-29T14:00:32.802Z</time>
      </trkpt>
      <trkpt lat="43.14763" lon="3.078">
        <ele>196</ele>
        <time>2025-12-29T14:00:33.802Z</time>
      </trkpt>
      <trkpt lat="43.14764" lon="3.078">
        <ele>197</ele>
        <time>2025-12-29T14:00:34.802Z</time>
      </trkpt>
      <trkpt lat="43.14764" lon="3.078">
        <ele>197</ele>
        <time>2025-12-29T14:00:35.802Z</time>
      </trkpt>
      <trkpt lat="43.14764" lon="3.078">
        <ele>197</ele>
        <time>2025-12-29T14:00:36.802Z</time>
      </trkpt>
      <trkpt lat="43.14764" lon="3.078">
        <ele>197</ele>
        <time>2025-12-29T14:00:37.802Z</time>
      </trkpt>
      <trkpt lat="43.14764" lon="3.078">
        <ele>197</ele>
        <time>2025-12-29T14:00:38.802Z</time>
      </trkpt>
      <trkpt lat="43.14764" lon="3.078">
        <ele>197</ele>
        <time>2025-12-29T14:00:39.802Z</time>
      </trkpt>
      <trkpt lat="43.14764" lon="3.078">
        <ele>197</ele>
        <time>2025-12-29T14:00:40.802Z</time>
      </trkpt>
      <trkpt lat="43.14764" lon="3.078">
        <ele>197</ele>
        <time>2025-12-29T14:00:41.802Z</time>
      </trkpt>
      <trkpt lat="43.14764" lon="3.078">
        <ele>197</ele>
        <time>2025-12-29T14:00:42.802Z</time>
      </trkpt>
      <trkpt lat="43.14764" lon="3.078">
        <ele>197</ele>
        <time>2025-12-29T14:00:43.802Z</time>
      </trkpt>
      <trkpt lat="43.14764" lon="3.078">
        <ele>197</ele>
        <time>2025-12-29T14:00:44.803Z</time>
      </trkpt>
      <trkpt lat="43.14764" lon="3.078">
        <ele>196</ele>
        <time>2025-12-29T14:00:45.802Z</time>
      </trkpt>
      <trkpt lat="43.14764" lon="3.078">
        <ele>196</ele>
        <time>2025-12-29T14:00:46.802Z</time>
      </trkpt>
      <trkpt lat="43.14764" lon="3.078">
        <ele>196</ele>
        <time>2025-12-29T14:00:47.802Z</time>
      </trkpt>
      <trkpt lat="43.14764" lon="3.078">
        <ele>195</ele>
        <time>2025-12-29T14:00:48.802Z</time>
      </trkpt>
      <trkpt lat="43.14764" lon="3.078">
        <ele>195</ele>
        <time>2025-12-29T14:00:49.802Z</time>
      </trkpt>
      <trkpt lat="43.14764" lon="3.078">
        <ele>195</ele>
        <time>2025-12-29T14:00:50.802Z</time>
      </trkpt>
      <trkpt lat="43.14764" lon="3.078">
        <ele>194</ele>
        <time>2025-12-29T14:00:51.802Z</time>
      </trkpt>
      <trkpt lat="43.14764" lon="3.078">
        <ele>194</ele>
        <time>2025-12-29T14:00:52.802Z</time>
      </trkpt>
      <trkpt lat="43.14764" lon="3.078">
        <ele>193</ele>
        <time>2025-12-29T14:00:53.802Z</time>
      </trkpt>
      <trkpt lat="43.14764" lon="3.078">
        <ele>193</ele>
        <time>2025-12-29T14:00:54.802Z</time>
      </trkpt>
      <trkpt lat="43.14764" lon="3.078">
        <ele>193</ele>
        <time>2025-12-29T14:00:55.802Z</time>
      </trkpt>
      <trkpt lat="43.14764" lon="3.078">
        <ele>193</ele>
        <time>2025-12-29T14:00:56.802Z</time>
      </trkpt>
      <trkpt lat="43.14764" lon="3.078">
        <ele>193</ele>
        <time>2025-12-29T14:00:57.802Z</time>
      </trkpt>
      <trkpt lat="43.14764" lon="3.07801">
        <ele>193</ele>
        <time>2025-12-29T14:00:58.802Z</time>
      </trkpt>
      <trkpt lat="43.14765" lon="3.07801">
        <ele>193</ele>
        <time>2025-12-29T14:00:59.802Z</time>
      </trkpt>
      <trkpt lat="43.14765" lon="3.07801">
        <ele>193</ele>
        <time>2025-12-29T14:01:00.802Z</time>
      </trkpt>
      <trkpt lat="43.14765" lon="3.07801">
        <ele>193</ele>
        <time>2025-12-29T14:01:01.802Z</time>
      </trkpt>
      <trkpt lat="43.14765" lon="3.07801">
        <ele>193</ele>
        <time>2025-12-29T14:01:02.802Z</time>
      </trkpt>
      <trkpt lat="43.14765" lon="3.07801">
        <ele>193</ele>
        <time>2025-12-29T14:01:03.802Z</time>
      </trkpt>
      <trkpt lat="43.14765" lon="3.07801">
        <ele>193</ele>
        <time>2025-12-29T14:01:04.802Z</time>
      </trkpt>
      <trkpt lat="43.14765" lon="3.07801">
        <ele>194</ele>
        <time>2025-12-29T14:01:05.802Z</time>
      </trkpt>
      <trkpt lat="43.14765" lon="3.07801">
        <ele>194</ele>
        <time>2025-12-29T14:01:06.802Z</time>
      </trkpt>
      <trkpt lat="43.14765" lon="3.07801">
        <ele>194</ele>
        <time>2025-12-29T14:01:07.802Z</time>
      </trkpt>
      <trkpt lat="43.14765" lon="3.07801">
        <ele>194</ele>
        <time>2025-12-29T14:01:08.802Z</time>
      </trkpt>
      <trkpt lat="43.14766" lon="3.07801">
        <ele>195</ele>
        <time>2025-12-29T14:01:09.802Z</time>
      </trkpt>
      <trkpt lat="43.14766" lon="3.07801">
        <ele>195</ele>
        <time>2025-12-29T14:01:10.802Z</time>
      </trkpt>
      <trkpt lat="43.14766" lon="3.07801">
        <ele>196</ele>
        <time>2025-12-29T14:01:11.802Z</time>
      </trkpt>
      <trkpt lat="43.14766" lon="3.07801">
        <ele>196</ele>
        <time>2025-12-29T14:01:12.802Z</time>
      </trkpt>
      <trkpt lat="43.14766" lon="3.07802">
        <ele>196</ele>
        <time>2025-12-29T14:01:13.802Z</time>
      </trkpt>
      <trkpt lat="43.14766" lon="3.07802">
        <ele>196</ele>
        <time>2025-12-29T14:01:14.802Z</time>
      </trkpt>
      <trkpt lat="43.14766" lon="3.07802">
        <ele>196</ele>
        <time>2025-12-29T14:01:15.802Z</time>
      </trkpt>
      <trkpt lat="43.14766" lon="3.07802">
        <ele>196</ele>
        <time>2025-12-29T14:01:16.802Z</time>
      </trkpt>
      <trkpt lat="43.14766" lon="3.07802">
        <ele>196</ele>
        <time>2025-12-29T14:01:17.802Z</time>
      </trkpt>
      <trkpt lat="43.14767" lon="3.07802">
        <ele>196</ele>
        <time>2025-12-29T14:01:18.802Z</time>
      </trkpt>
      <trkpt lat="43.14767" lon="3.07802">
        <ele>196</ele>
        <time>2025-12-29T14:01:19.802Z</time>
      </trkpt>
      <trkpt lat="43.14767" lon="3.07802">
        <ele>197</ele>
        <time>2025-12-29T14:01:20.802Z</time>
      </trkpt>
      <trkpt lat="43.14766" lon="3.07802">
        <ele>197</ele>
        <time>2025-12-29T14:01:21.802Z</time>
      </trkpt>
      <trkpt lat="43.14766" lon="3.07802">
        <ele>197</ele>
        <time>2025-12-29T14:01:22.802Z</time>
      </trkpt>
      <trkpt lat="43.14766" lon="3.07802">
        <ele>197</ele>
        <time>2025-12-29T14:01:23.802Z</time>
      </trkpt>
      <trkpt lat="43.14766" lon="3.07802">
        <ele>197</ele>
        <time>2025-12-29T14:01:24.802Z</time>
      </trkpt>
      <trkpt lat="43.14766" lon="3.07802">
        <ele>197</ele>
        <time>2025-12-29T14:01:25.802Z</time>
      </trkpt>
      <trkpt lat="43.14766" lon="3.07802">
        <ele>196</ele>
        <time>2025-12-29T14:01:26.802Z</time>
      </trkpt>
      <trkpt lat="43.14766" lon="3.07802">
        <ele>196</ele>
        <time>2025-12-29T14:01:27.802Z</time>
      </trkpt>
      <trkpt lat="43.14766" lon="3.07802">
        <ele>196</ele>
        <time>2025-12-29T14:01:28.802Z</time>
      </trkpt>
      <trkpt lat="43.14767" lon="3.07802">
        <ele>196</ele>
        <time>2025-12-29T14:01:29.802Z</time>
      </trkpt>
      <trkpt lat="43.14767" lon="3.07802">
        <ele>195</ele>
        <time>2025-12-29T14:01:30.802Z</time>
      </trkpt>
      <trkpt lat="43.14767" lon="3.07802">
        <ele>195</ele>
        <time>2025-12-29T14:01:31.802Z</time>
      </trkpt>
      <trkpt lat="43.14767" lon="3.07802">
        <ele>195</ele>
        <time>2025-12-29T14:01:32.802Z</time>
      </trkpt>
      <trkpt lat="43.14767" lon="3.07803">
        <ele>195</ele>
        <time>2025-12-29T14:01:33.802Z</time>
      </trkpt>
      <trkpt lat="43.14767" lon="3.07803">
        <ele>195</ele>
        <time>2025-12-29T14:01:34.802Z</time>
      </trkpt>
      <trkpt lat="43.14767" lon="3.07803">
        <ele>195</ele>
        <time>2025-12-29T14:01:35.802Z</time>
      </trkpt>
      <trkpt lat="43.14768" lon="3.07803">
        <ele>195</ele>
        <time>2025-12-29T14:01:36.802Z</time>
      </trkpt>
      <trkpt lat="43.14768" lon="3.07803">
        <ele>195</ele>
        <time>2025-12-29T14:01:37.802Z</time>
      </trkpt>
      <trkpt lat="43.14768" lon="3.07803">
        <ele>195</ele>
        <time>2025-12-29T14:01:38.802Z</time>
      </trkpt>
      <trkpt lat="43.14768" lon="3.07803">
        <ele>195</ele>
        <time>2025-12-29T14:01:39.802Z</time>
      </trkpt>
      <trkpt lat="43.14768" lon="3.07804">
        <ele>195</ele>
        <time>2025-12-29T14:01:40.802Z</time>
      </trkpt>
      <trkpt lat="43.14768" lon="3.07804">
        <ele>195</ele>
        <time>2025-12-29T14:01:41.802Z</time>
      </trkpt>
      <trkpt lat="43.14768" lon="3.07804">
        <ele>195</ele>
        <time>2025-12-29T14:01:42.802Z</time>
      </trkpt>
      <trkpt lat="43.14768" lon="3.07803">
        <ele>194</ele>
        <time>2025-12-29T14:01:43.802Z</time>
      </trkpt>
      <trkpt lat="43.14768" lon="3.07803">
        <ele>194</ele>
        <time>2025-12-29T14:01:44.802Z</time>
      </trkpt>
      <trkpt lat="43.14769" lon="3.07803">
        <ele>194</ele>
        <time>2025-12-29T14:01:45.802Z</time>
      </trkpt>
      <trkpt lat="43.14769" lon="3.07803">
        <ele>194</ele>
        <time>2025-12-29T14:01:46.802Z</time>
      </trkpt>
      <trkpt lat="43.14769" lon="3.07803">
        <ele>194</ele>
        <time>2025-12-29T14:01:47.802Z</time>
      </trkpt>
      <trkpt lat="43.14769" lon="3.07803">
        <ele>194</ele>
        <time>2025-12-29T14:01:48.802Z</time>
      </trkpt>
      <trkpt lat="43.14769" lon="3.07803">
        <ele>195</ele>
        <time>2025-12-29T14:01:49.802Z</time>
      </trkpt>
      <trkpt lat="43.14769" lon="3.07803">
        <ele>195</ele>
        <time>2025-12-29T14:01:50.802Z</time>
      </trkpt>
      <trkpt lat="43.14769" lon="3.07803">
        <ele>195</ele>
        <time>2025-12-29T14:01:51.802Z</time>
      </trkpt>
      <trkpt lat="43.14769" lon="3.07803">
        <ele>196</ele>
        <time>2025-12-29T14:01:52.802Z</time>
      </trkpt>
      <trkpt lat="43.14769" lon="3.07803">
        <ele>196</ele>
        <time>2025-12-29T14:01:53.802Z</time>
      </trkpt>
      <trkpt lat="43.14769" lon="3.07803">
        <ele>196</ele>
        <time>2025-12-29T14:01:54.802Z</time>
      </trkpt>
      <trkpt lat="43.14769" lon="3.07803">
        <ele>196</ele>
        <time>2025-12-29T14:01:55.802Z</time>
      </trkpt>
      <trkpt lat="43.14769" lon="3.07803">
        <ele>196</ele>
        <time>2025-12-29T14:01:56.802Z</time>
      </trkpt>
      <trkpt lat="43.14769" lon="3.07803">
        <ele>196</ele>
        <time>2025-12-29T14:01:57.802Z</time>
      </trkpt>
      <trkpt lat="43.14769" lon="3.07803">
        <ele>196</ele>
        <time>2025-12-29T14:01:58.802Z</time>
      </trkpt>
      <trkpt lat="43.14769" lon="3.07803">
        <ele>197</ele>
        <time>2025-12-29T14:01:59.802Z</time>
      </trkpt>
      <trkpt lat="43.14769" lon="3.07803">
        <ele>197</ele>
        <time>2025-12-29T14:02:00.802Z</time>
      </trkpt>
      <trkpt lat="43.14769" lon="3.07802">
        <ele>197</ele>
        <time>2025-12-29T14:02:01.802Z</time>
      </trkpt>
      <trkpt lat="43.14769" lon="3.07802">
        <ele>197</ele>
        <time>2025-12-29T14:02:02.802Z</time>
      </trkpt>
      <trkpt lat="43.14769" lon="3.07802">
        <ele>197</ele>
        <time>2025-12-29T14:02:03.802Z</time>
      </trkpt>
      <trkpt lat="43.14769" lon="3.07802">
        <ele>197</ele>
        <time>2025-12-29T14:02:04.802Z</time>
      </trkpt>
      <trkpt lat="43.14769" lon="3.07802">
        <ele>197</ele>
        <time>2025-12-29T14:02:05.802Z</time>
      </trkpt>
      <trkpt lat="43.1477" lon="3.07802">
        <ele>197</ele>
        <time>2025-12-29T14:02:06.802Z</time>
      </trkpt>
      <trkpt lat="43.1477" lon="3.07802">
        <ele>197</ele>
        <time>2025-12-29T14:02:07.802Z</time>
      </trkpt>
      <trkpt lat="43.1477" lon="3.07802">
        <ele>198</ele>
        <time>2025-12-29T14:02:08.802Z</time>
      </trkpt>
      <trkpt lat="43.1477" lon="3.07802">
        <ele>198</ele>
        <time>2025-12-29T14:02:09.802Z</time>
      </trkpt>
      <trkpt lat="43.1477" lon="3.07802">
        <ele>198</ele>
        <time>2025-12-29T14:02:10.802Z</time>
      </trkpt>
      <trkpt lat="43.1477" lon="3.07802">
        <ele>198</ele>
        <time>2025-12-29T14:02:11.802Z</time>
      </trkpt>
      <trkpt lat="43.14769" lon="3.07802">
        <ele>198</ele>
        <time>2025-12-29T14:02:12.802Z</time>
      </trkpt>
      <trkpt lat="43.14769" lon="3.07802">
        <ele>198</ele>
        <time>2025-12-29T14:02:13.802Z</time>
      </trkpt>
      <trkpt lat="43.14769" lon="3.07802">
        <ele>198</ele>
        <time>2025-12-29T14:02:14.802Z</time>
      </trkpt>
      <trkpt lat="43.14769" lon="3.07802">
        <ele>198</ele>
        <time>2025-12-29T14:02:15.802Z</time>
      </trkpt>
      <trkpt lat="43.14768" lon="3.07802">
        <ele>198</ele>
        <time>2025-12-29T14:02:16.802Z</time>
      </trkpt>
      <trkpt lat="43.14767" lon="3.07802">
        <ele>198</ele>
        <time>2025-12-29T14:02:17.802Z</time>
      </trkpt>
      <trkpt lat="43.14767" lon="3.07802">
        <ele>198</ele>
        <time>2025-12-29T14:02:18.802Z</time>
      </trkpt>
      <trkpt lat="43.14767" lon="3.07802">
        <ele>198</ele>
        <time>2025-12-29T14:02:19.802Z</time>
      </trkpt>
      <trkpt lat="43.14767" lon="3.07802">
        <ele>197</ele>
        <time>2025-12-29T14:02:20.802Z</time>
      </trkpt>
      <trkpt lat="43.14767" lon="3.07802">
        <ele>197</ele>
        <time>2025-12-29T14:02:21.802Z</time>
      </trkpt>
      <trkpt lat="43.14767" lon="3.07802">
        <ele>197</ele>
        <time>2025-12-29T14:02:22.802Z</time>
      </trkpt>
      <trkpt lat="43.14766" lon="3.07802">
        <ele>196</ele>
        <time>2025-12-29T14:02:23.802Z</time>
      </trkpt>
      <trkpt lat="43.14766" lon="3.07802">
        <ele>196</ele>
        <time>2025-12-29T14:02:24.802Z</time>
      </trkpt>
      <trkpt lat="43.14766" lon="3.07801">
        <ele>195</ele>
        <time>2025-12-29T14:02:25.802Z</time>
      </trkpt>
      <trkpt lat="43.14766" lon="3.07801">
        <ele>195</ele>
        <time>2025-12-29T14:02:26.802Z</time>
      </trkpt>
      <trkpt lat="43.14766" lon="3.07801">
        <ele>195</ele>
        <time>2025-12-29T14:02:27.802Z</time>
      </trkpt>
      <trkpt lat="43.14766" lon="3.07801">
        <ele>195</ele>
        <time>2025-12-29T14:02:28.802Z</time>
      </trkpt>
      <trkpt lat="43.14767" lon="3.07801">
        <ele>194</ele>
        <time>2025-12-29T14:02:29.802Z</time>
      </trkpt>
      <trkpt lat="43.14767" lon="3.07801">
        <ele>194</ele>
        <time>2025-12-29T14:02:30.802Z</time>
      </trkpt>
      <trkpt lat="43.14767" lon="3.07801">
        <ele>194</ele>
        <time>2025-12-29T14:02:31.802Z</time>
      </trkpt>
      <trkpt lat="43.14767" lon="3.07801">
        <ele>194</ele>
        <time>2025-12-29T14:02:32.802Z</time>
      </trkpt>
      <trkpt lat="43.14767" lon="3.07801">
        <ele>194</ele>
        <time>2025-12-29T14:02:33.802Z</time>
      </trkpt>
      <trkpt lat="43.14767" lon="3.07802">
        <ele>194</ele>
        <time>2025-12-29T14:02:34.802Z</time>
      </trkpt>
      <trkpt lat="43.14767" lon="3.07802">
        <ele>194</ele>
        <time>2025-12-29T14:02:35.802Z</time>
      </trkpt>
      <trkpt lat="43.14767" lon="3.07802">
        <ele>194</ele>
        <time>2025-12-29T14:02:36.802Z</time>
      </trkpt>
      <trkpt lat="43.14766" lon="3.07801">
        <ele>194</ele>
        <time>2025-12-29T14:02:37.802Z</time>
      </trkpt>
      <trkpt lat="43.14766" lon="3.07801">
        <ele>194</ele>
        <time>2025-12-29T14:02:38.802Z</time>
      </trkpt>
      <trkpt lat="43.14766" lon="3.07801">
        <ele>194</ele>
        <time>2025-12-29T14:02:39.802Z</time>
      </trkpt>
      <trkpt lat="43.14766" lon="3.07801">
        <ele>194</ele>
        <time>2025-12-29T14:02:40.802Z</time>
      </trkpt>
      <trkpt lat="43.14766" lon="3.078">
        <ele>194</ele>
        <time>2025-12-29T14:02:41.802Z</time>
      </trkpt>
      <trkpt lat="43.14766" lon="3.078">
        <ele>195</ele>
        <time>2025-12-29T14:02:42.802Z</time>
      </trkpt>
      <trkpt lat="43.14766" lon="3.078">
        <ele>195</ele>
        <time>2025-12-29T14:02:43.802Z</time>
      </trkpt>
      <trkpt lat="43.14765" lon="3.078">
        <ele>195</ele>
        <time>2025-12-29T14:02:44.802Z</time>
      </trkpt>
      <trkpt lat="43.14765" lon="3.078">
        <ele>196</ele>
        <time>2025-12-29T14:02:45.802Z</time>
      </trkpt>
      <trkpt lat="43.14765" lon="3.078">
        <ele>195</ele>
        <time>2025-12-29T14:02:46.802Z</time>
      </trkpt>
      <trkpt lat="43.14765" lon="3.078">
        <ele>196</ele>
        <time>2025-12-29T14:02:47.802Z</time>
      </trkpt>
      <trkpt lat="43.14765" lon="3.078">
        <ele>196</ele>
        <time>2025-12-29T14:02:48.802Z</time>
      </trkpt>
      <trkpt lat="43.14765" lon="3.078">
        <ele>196</ele>
        <time>2025-12-29T14:02:49.802Z</time>
      </trkpt>
      <trkpt lat="43.14765" lon="3.078">
        <ele>196</ele>
        <time>2025-12-29T14:02:50.802Z</time>
      </trkpt>
      <trkpt lat="43.14765" lon="3.078">
        <ele>196</ele>
        <time>2025-12-29T14:02:51.802Z</time>
      </trkpt>
      <trkpt lat="43.14764" lon="3.078">
        <ele>196</ele>
        <time>2025-12-29T14:02:52.802Z</time>
      </trkpt>
      <trkpt lat="43.14764" lon="3.078">
        <ele>196</ele>
        <time>2025-12-29T14:02:53.802Z</time>
      </trkpt>
      <trkpt lat="43.14764" lon="3.078">
        <ele>196</ele>
        <time>2025-12-29T14:02:54.802Z</time>
      </trkpt>
      <trkpt lat="43.14765" lon="3.07801">
        <ele>196</ele>
        <time>2025-12-29T14:02:55.802Z</time>
      </trkpt>
      <trkpt lat="43.14765" lon="3.07801">
        <ele>196</ele>
        <time>2025-12-29T14:02:56.802Z</time>
      </trkpt>
      <trkpt lat="43.14765" lon="3.07801">
        <ele>196</ele>
        <time>2025-12-29T14:02:57.802Z</time>
      </trkpt>
      <trkpt lat="43.14765" lon="3.07801">
        <ele>196</ele>
        <time>2025-12-29T14:02:58.802Z</time>
      </trkpt>
      <trkpt lat="43.14764" lon="3.07802">
        <ele>196</ele>
        <time>2025-12-29T14:02:59.802Z</time>
      </trkpt>
      <trkpt lat="43.14764" lon="3.07802">
        <ele>196</ele>
        <time>2025-12-29T14:03:00.802Z</time>
      </trkpt>
      <trkpt lat="43.14764" lon="3.07802">
        <ele>197</ele>
        <time>2025-12-29T14:03:01.802Z</time>
      </trkpt>
      <trkpt lat="43.14765" lon="3.07803">
        <ele>197</ele>
        <time>2025-12-29T14:03:02.802Z</time>
      </trkpt>
      <trkpt lat="43.14765" lon="3.07803">
        <ele>197</ele>
        <time>2025-12-29T14:03:03.802Z</time>
      </trkpt>
      <trkpt lat="43.14765" lon="3.07803">
        <ele>198</ele>
        <time>2025-12-29T14:03:04.802Z</time>
      </trkpt>
      <trkpt lat="43.14765" lon="3.07803">
        <ele>198</ele>
        <time>2025-12-29T14:03:05.802Z</time>
      </trkpt>
      <trkpt lat="43.14765" lon="3.07803">
        <ele>197</ele>
        <time>2025-12-29T14:03:06.802Z</time>
      </trkpt>
      <trkpt lat="43.14764" lon="3.07803">
        <ele>197</ele>
        <time>2025-12-29T14:03:07.802Z</time>
      </trkpt>
      <trkpt lat="43.14765" lon="3.07803">
        <ele>197</ele>
        <time>2025-12-29T14:03:08.802Z</time>
      </trkpt>
      <trkpt lat="43.14764" lon="3.07803">
        <ele>196</ele>
        <time>2025-12-29T14:03:09.802Z</time>
      </trkpt>
      <trkpt lat="43.14764" lon="3.07803">
        <ele>196</ele>
        <time>2025-12-29T14:03:10.802Z</time>
      </trkpt>
      <trkpt lat="43.14764" lon="3.07803">
        <ele>196</ele>
        <time>2025-12-29T14:03:11.802Z</time>
      </trkpt>
      <trkpt lat="43.14764" lon="3.07803">
        <ele>195</ele>
        <time>2025-12-29T14:03:12.802Z</time>
      </trkpt>
      <trkpt lat="43.14764" lon="3.07803">
        <ele>195</ele>
        <time>2025-12-29T14:03:13.802Z</time>
      </trkpt>
      <trkpt lat="43.14764" lon="3.07803">
        <ele>196</ele>
        <time>2025-12-29T14:03:14.802Z</time>
      </trkpt>
      <trkpt lat="43.14764" lon="3.07803">
        <ele>196</ele>
        <time>2025-12-29T14:03:15.802Z</time>
      </trkpt>
      <trkpt lat="43.14764" lon="3.07803">
        <ele>196</ele>
        <time>2025-12-29T14:03:16.802Z</time>
      </trkpt>
      <trkpt lat="43.14764" lon="3.07803">
        <ele>196</ele>
        <time>2025-12-29T14:03:17.802Z</time>
      </trkpt>
      <trkpt lat="43.14764" lon="3.07802">
        <ele>196</ele>
        <time>2025-12-29T14:03:18.802Z</time>
      </trkpt>
      <trkpt lat="43.14763" lon="3.07803">
        <ele>196</ele>
        <time>2025-12-29T14:03:19.802Z</time>
      </trkpt>
      <trkpt lat="43.14762" lon="3.07804">
        <ele>196</ele>
        <time>2025-12-29T14:03:20.802Z</time>
      </trkpt>
      <trkpt lat="43.14762" lon="3.07804">
        <ele>196</ele>
        <time>2025-12-29T14:03:21.802Z</time>
      </trkpt>
      <trkpt lat="43.14762" lon="3.07804">
        <ele>196</ele>
        <time>2025-12-29T14:03:22.802Z</time>
      </trkpt>
      <trkpt lat="43.14761" lon="3.07805">
        <ele>196</ele>
        <time>2025-12-29T14:03:23.802Z</time>
      </trkpt>
      <trkpt lat="43.14761" lon="3.07805">
        <ele>195</ele>
        <time>2025-12-29T14:03:24.802Z</time>
      </trkpt>
      <trkpt lat="43.1476" lon="3.07806">
        <ele>195</ele>
        <time>2025-12-29T14:03:25.802Z</time>
      </trkpt>
      <trkpt lat="43.14759" lon="3.07807">
        <ele>195</ele>
        <time>2025-12-29T14:03:26.802Z</time>
      </trkpt>
      <trkpt lat="43.14758" lon="3.07808">
        <ele>195</ele>
        <time>2025-12-29T14:03:27.802Z</time>
      </trkpt>
      <trkpt lat="43.14757" lon="3.07808">
        <ele>196</ele>
        <time>2025-12-29T14:03:28.802Z</time>
      </trkpt>
      <trkpt lat="43.14755" lon="3.07809">
        <ele>196</ele>
        <time>2025-12-29T14:03:29.802Z</time>
      </trkpt>
      <trkpt lat="43.14754" lon="3.0781">
        <ele>196</ele>
        <time>2025-12-29T14:03:30.802Z</time>
      </trkpt>
      <trkpt lat="43.14752" lon="3.07811">
        <ele>197</ele>
        <time>2025-12-29T14:03:31.802Z</time>
      </trkpt>
      <trkpt lat="43.14752" lon="3.07812">
        <ele>197</ele>
        <time>2025-12-29T14:03:32.802Z</time>
      </trkpt>
      <trkpt lat="43.14751" lon="3.07813">
        <ele>197</ele>
        <time>2025-12-29T14:03:33.802Z</time>
      </trkpt>
      <trkpt lat="43.14751" lon="3.07814">
        <ele>197</ele>
        <time>2025-12-29T14:03:34.802Z</time>
      </trkpt>
      <trkpt lat="43.1475" lon="3.07816">
        <ele>197</ele>
        <time>2025-12-29T14:03:35.802Z</time>
      </trkpt>
      <trkpt lat="43.14749" lon="3.07817">
        <ele>197</ele>
        <time>2025-12-29T14:03:36.802Z</time>
      </trkpt>
      <trkpt lat="43.14749" lon="3.07818">
        <ele>197</ele>
        <time>2025-12-29T14:03:37.802Z</time>
      </trkpt>
      <trkpt lat="43.14748" lon="3.07818">
        <ele>197</ele>
        <time>2025-12-29T14:03:38.802Z</time>
      </trkpt>
      <trkpt lat="43.14747" lon="3.07819">
        <ele>197</ele>
        <time>2025-12-29T14:03:39.802Z</time>
      </trkpt>
      <trkpt lat="43.14746" lon="3.07819">
        <ele>197</ele>
        <time>2025-12-29T14:03:40.802Z</time>
      </trkpt>
      <trkpt lat="43.14745" lon="3.07819">
        <ele>196</ele>
        <time>2025-12-29T14:03:41.802Z</time>
      </trkpt>
      <trkpt lat="43.14743" lon="3.07818">
        <ele>196</ele>
        <time>2025-12-29T14:03:42.802Z</time>
      </trkpt>
      <trkpt lat="43.14742" lon="3.07818">
        <ele>196</ele>
        <time>2025-12-29T14:03:43.802Z</time>
      </trkpt>
      <trkpt lat="43.1474" lon="3.07817">
        <ele>196</ele>
        <time>2025-12-29T14:03:44.802Z</time>
      </trkpt>
      <trkpt lat="43.14739" lon="3.07817">
        <ele>196</ele>
        <time>2025-12-29T14:03:45.802Z</time>
      </trkpt>
      <trkpt lat="43.14738" lon="3.07816">
        <ele>196</ele>
        <time>2025-12-29T14:03:46.802Z</time>
      </trkpt>
      <trkpt lat="43.14736" lon="3.07817">
        <ele>196</ele>
        <time>2025-12-29T14:03:47.802Z</time>
      </trkpt>
      <trkpt lat="43.14735" lon="3.07817">
        <ele>196</ele>
        <time>2025-12-29T14:03:48.802Z</time>
      </trkpt>
      <trkpt lat="43.14734" lon="3.07817">
        <ele>197</ele>
        <time>2025-12-29T14:03:49.802Z</time>
      </trkpt>
      <trkpt lat="43.14733" lon="3.07817">
        <ele>197</ele>
        <time>2025-12-29T14:03:50.802Z</time>
      </trkpt>
      <trkpt lat="43.14731" lon="3.07817">
        <ele>197</ele>
        <time>2025-12-29T14:03:51.802Z</time>
      </trkpt>
      <trkpt lat="43.1473" lon="3.07817">
        <ele>197</ele>
        <time>2025-12-29T14:03:52.802Z</time>
      </trkpt>
      <trkpt lat="43.14729" lon="3.07816">
        <ele>196</ele>
        <time>2025-12-29T14:03:53.802Z</time>
      </trkpt>
      <trkpt lat="43.14727" lon="3.07816">
        <ele>196</ele>
        <time>2025-12-29T14:03:54.802Z</time>
      </trkpt>
      <trkpt lat="43.14725" lon="3.07816">
        <ele>196</ele>
        <time>2025-12-29T14:03:55.802Z</time>
      </trkpt>
      <trkpt lat="43.14724" lon="3.07816">
        <ele>196</ele>
        <time>2025-12-29T14:03:56.802Z</time>
      </trkpt>
      <trkpt lat="43.14723" lon="3.07816">
        <ele>196</ele>
        <time>2025-12-29T14:03:57.802Z</time>
      </trkpt>
      <trkpt lat="43.14721" lon="3.07816">
        <ele>196</ele>
        <time>2025-12-29T14:03:58.802Z</time>
      </trkpt>
      <trkpt lat="43.1472" lon="3.07816">
        <ele>196</ele>
        <time>2025-12-29T14:03:59.802Z</time>
      </trkpt>
      <trkpt lat="43.14718" lon="3.07817">
        <ele>196</ele>
        <time>2025-12-29T14:04:00.802Z</time>
      </trkpt>
      <trkpt lat="43.14717" lon="3.07817">
        <ele>196</ele>
        <time>2025-12-29T14:04:01.802Z</time>
      </trkpt>
      <trkpt lat="43.14715" lon="3.07817">
        <ele>196</ele>
        <time>2025-12-29T14:04:02.802Z</time>
      </trkpt>
      <trkpt lat="43.14714" lon="3.07818">
        <ele>195</ele>
        <time>2025-12-29T14:04:03.802Z</time>
      </trkpt>
      <trkpt lat="43.14713" lon="3.07818">
        <ele>195</ele>
        <time>2025-12-29T14:04:04.802Z</time>
      </trkpt>
      <trkpt lat="43.14712" lon="3.07818">
        <ele>195</ele>
        <time>2025-12-29T14:04:05.802Z</time>
      </trkpt>
      <trkpt lat="43.1471" lon="3.07817">
        <ele>195</ele>
        <time>2025-12-29T14:04:06.802Z</time>
      </trkpt>
      <trkpt lat="43.14709" lon="3.07817">
        <ele>195</ele>
        <time>2025-12-29T14:04:07.802Z</time>
      </trkpt>
      <trkpt lat="43.14707" lon="3.07817">
        <ele>195</ele>
        <time>2025-12-29T14:04:08.802Z</time>
      </trkpt>
      <trkpt lat="43.14706" lon="3.07816">
        <ele>195</ele>
        <time>2025-12-29T14:04:09.802Z</time>
      </trkpt>
      <trkpt lat="43.14705" lon="3.07816">
        <ele>196</ele>
        <time>2025-12-29T14:04:10.802Z</time>
      </trkpt>
      <trkpt lat="43.14703" lon="3.07816">
        <ele>196</ele>
        <time>2025-12-29T14:04:11.802Z</time>
      </trkpt>
      <trkpt lat="43.14702" lon="3.07816">
        <ele>196</ele>
        <time>2025-12-29T14:04:12.802Z</time>
      </trkpt>
      <trkpt lat="43.147" lon="3.07816">
        <ele>196</ele>
        <time>2025-12-29T14:04:13.802Z</time>
      </trkpt>
      <trkpt lat="43.14699" lon="3.07816">
        <ele>196</ele>
        <time>2025-12-29T14:04:14.802Z</time>
      </trkpt>
      <trkpt lat="43.14698" lon="3.07816">
        <ele>197</ele>
        <time>2025-12-29T14:04:15.802Z</time>
      </trkpt>
      <trkpt lat="43.14697" lon="3.07816">
        <ele>197</ele>
        <time>2025-12-29T14:04:16.802Z</time>
      </trkpt>
      <trkpt lat="43.14696" lon="3.07816">
        <ele>197</ele>
        <time>2025-12-29T14:04:17.802Z</time>
      </trkpt>
      <trkpt lat="43.14695" lon="3.07815">
        <ele>197</ele>
        <time>2025-12-29T14:04:18.802Z</time>
      </trkpt>
      <trkpt lat="43.14694" lon="3.07815">
        <ele>197</ele>
        <time>2025-12-29T14:04:19.802Z</time>
      </trkpt>
      <trkpt lat="43.14693" lon="3.07815">
        <ele>197</ele>
        <time>2025-12-29T14:04:20.802Z</time>
      </trkpt>
      <trkpt lat="43.14691" lon="3.07816">
        <ele>197</ele>
        <time>2025-12-29T14:04:21.802Z</time>
      </trkpt>
      <trkpt lat="43.1469" lon="3.07817">
        <ele>197</ele>
        <time>2025-12-29T14:04:22.802Z</time>
      </trkpt>
      <trkpt lat="43.14689" lon="3.07817">
        <ele>196</ele>
        <time>2025-12-29T14:04:23.802Z</time>
      </trkpt>
      <trkpt lat="43.14687" lon="3.07818">
        <ele>196</ele>
        <time>2025-12-29T14:04:24.802Z</time>
      </trkpt>
      <trkpt lat="43.14686" lon="3.07818">
        <ele>196</ele>
        <time>2025-12-29T14:04:25.802Z</time>
      </trkpt>
      <trkpt lat="43.14685" lon="3.07818">
        <ele>195</ele>
        <time>2025-12-29T14:04:26.802Z</time>
      </trkpt>
      <trkpt lat="43.14683" lon="3.07818">
        <ele>195</ele>
        <time>2025-12-29T14:04:27.802Z</time>
      </trkpt>
      <trkpt lat="43.14682" lon="3.07818">
        <ele>195</ele>
        <time>2025-12-29T14:04:28.802Z</time>
      </trkpt>
      <trkpt lat="43.14681" lon="3.07817">
        <ele>195</ele>
        <time>2025-12-29T14:04:29.802Z</time>
      </trkpt>
      <trkpt lat="43.1468" lon="3.07817">
        <ele>194</ele>
        <time>2025-12-29T14:04:30.803Z</time>
      </trkpt>
      <trkpt lat="43.14679" lon="3.07817">
        <ele>194</ele>
        <time>2025-12-29T14:04:31.802Z</time>
      </trkpt>
      <trkpt lat="43.14677" lon="3.07817">
        <ele>194</ele>
        <time>2025-12-29T14:04:32.802Z</time>
      </trkpt>
      <trkpt lat="43.14676" lon="3.07817">
        <ele>193</ele>
        <time>2025-12-29T14:04:33.802Z</time>
      </trkpt>
      <trkpt lat="43.14676" lon="3.07818">
        <ele>193</ele>
        <time>2025-12-29T14:04:34.802Z</time>
      </trkpt>
      <trkpt lat="43.14675" lon="3.07819">
        <ele>194</ele>
        <time>2025-12-29T14:04:35.802Z</time>
      </trkpt>
      <trkpt lat="43.14673" lon="3.0782">
        <ele>194</ele>
        <time>2025-12-29T14:04:36.802Z</time>
      </trkpt>
      <trkpt lat="43.14672" lon="3.0782">
        <ele>194</ele>
        <time>2025-12-29T14:04:37.802Z</time>
      </trkpt>
      <trkpt lat="43.14671" lon="3.07821">
        <ele>194</ele>
        <time>2025-12-29T14:04:38.802Z</time>
      </trkpt>
      <trkpt lat="43.1467" lon="3.07821">
        <ele>194</ele>
        <time>2025-12-29T14:04:39.802Z</time>
      </trkpt>
      <trkpt lat="43.14669" lon="3.07821">
        <ele>194</ele>
        <time>2025-12-29T14:04:40.802Z</time>
      </trkpt>
      <trkpt lat="43.14668" lon="3.07821">
        <ele>194</ele>
        <time>2025-12-29T14:04:41.802Z</time>
      </trkpt>
      <trkpt lat="43.14666" lon="3.07821">
        <ele>194</ele>
        <time>2025-12-29T14:04:42.802Z</time>
      </trkpt>
      <trkpt lat="43.14665" lon="3.07822">
        <ele>193</ele>
        <time>2025-12-29T14:04:43.802Z</time>
      </trkpt>
      <trkpt lat="43.14663" lon="3.07822">
        <ele>193</ele>
        <time>2025-12-29T14:04:44.802Z</time>
      </trkpt>
      <trkpt lat="43.14662" lon="3.07822">
        <ele>193</ele>
        <time>2025-12-29T14:04:45.802Z</time>
      </trkpt>
      <trkpt lat="43.14661" lon="3.07823">
        <ele>192</ele>
        <time>2025-12-29T14:04:46.802Z</time>
      </trkpt>
      <trkpt lat="43.14659" lon="3.07823">
        <ele>192</ele>
        <time>2025-12-29T14:04:47.802Z</time>
      </trkpt>
      <trkpt lat="43.14658" lon="3.07823">
        <ele>192</ele>
        <time>2025-12-29T14:04:48.802Z</time>
      </trkpt>
      <trkpt lat="43.14656" lon="3.07823">
        <ele>192</ele>
        <time>2025-12-29T14:04:49.802Z</time>
      </trkpt>
      <trkpt lat="43.14655" lon="3.07824">
        <ele>191</ele>
        <time>2025-12-29T14:04:50.802Z</time>
      </trkpt>
      <trkpt lat="43.14654" lon="3.07824">
        <ele>191</ele>
        <time>2025-12-29T14:04:51.802Z</time>
      </trkpt>
      <trkpt lat="43.14652" lon="3.07823">
        <ele>191</ele>
        <time>2025-12-29T14:04:52.802Z</time>
      </trkpt>
      <trkpt lat="43.14651" lon="3.07823">
        <ele>191</ele>
        <time>2025-12-29T14:04:53.802Z</time>
      </trkpt>
      <trkpt lat="43.1465" lon="3.07823">
        <ele>191</ele>
        <time>2025-12-29T14:04:54.802Z</time>
      </trkpt>
      <trkpt lat="43.14648" lon="3.07823">
        <ele>191</ele>
        <time>2025-12-29T14:04:55.802Z</time>
      </trkpt>
      <trkpt lat="43.14647" lon="3.07823">
        <ele>191</ele>
        <time>2025-12-29T14:04:56.802Z</time>
      </trkpt>
      <trkpt lat="43.14645" lon="3.07823">
        <ele>191</ele>
        <time>2025-12-29T14:04:57.802Z</time>
      </trkpt>
      <trkpt lat="43.14644" lon="3.07823">
        <ele>191</ele>
        <time>2025-12-29T14:04:58.802Z</time>
      </trkpt>
      <trkpt lat="43.14643" lon="3.07823">
        <ele>191</ele>
        <time>2025-12-29T14:04:59.802Z</time>
      </trkpt>
      <trkpt lat="43.14641" lon="3.07824">
        <ele>191</ele>
        <time>2025-12-29T14:05:00.802Z</time>
      </trkpt>
      <trkpt lat="43.1464" lon="3.07824">
        <ele>191</ele>
        <time>2025-12-29T14:05:01.802Z</time>
      </trkpt>
      <trkpt lat="43.14638" lon="3.07824">
        <ele>192</ele>
        <time>2025-12-29T14:05:02.802Z</time>
      </trkpt>
      <trkpt lat="43.14637" lon="3.07825">
        <ele>192</ele>
        <time>2025-12-29T14:05:03.802Z</time>
      </trkpt>
      <trkpt lat="43.14636" lon="3.07825">
        <ele>192</ele>
        <time>2025-12-29T14:05:04.802Z</time>
      </trkpt>
      <trkpt lat="43.14634" lon="3.07825">
        <ele>192</ele>
        <time>2025-12-29T14:05:05.802Z</time>
      </trkpt>
      <trkpt lat="43.14633" lon="3.07826">
        <ele>192</ele>
        <time>2025-12-29T14:05:06.802Z</time>
      </trkpt>
      <trkpt lat="43.14631" lon="3.07826">
        <ele>192</ele>
        <time>2025-12-29T14:05:07.802Z</time>
      </trkpt>
      <trkpt lat="43.1463" lon="3.07826">
        <ele>192</ele>
        <time>2025-12-29T14:05:08.802Z</time>
      </trkpt>
      <trkpt lat="43.14629" lon="3.07827">
        <ele>192</ele>
        <time>2025-12-29T14:05:09.802Z</time>
      </trkpt>
      <trkpt lat="43.14628" lon="3.07827">
        <ele>192</ele>
        <time>2025-12-29T14:05:10.802Z</time>
      </trkpt>
      <trkpt lat="43.14626" lon="3.07827">
        <ele>192</ele>
        <time>2025-12-29T14:05:11.802Z</time>
      </trkpt>
      <trkpt lat="43.14625" lon="3.07826">
        <ele>191</ele>
        <time>2025-12-29T14:05:12.802Z</time>
      </trkpt>
      <trkpt lat="43.14624" lon="3.07826">
        <ele>191</ele>
        <time>2025-12-29T14:05:13.802Z</time>
      </trkpt>
      <trkpt lat="43.14622" lon="3.07825">
        <ele>191</ele>
        <time>2025-12-29T14:05:14.802Z</time>
      </trkpt>
      <trkpt lat="43.14621" lon="3.07825">
        <ele>191</ele>
        <time>2025-12-29T14:05:15.802Z</time>
      </trkpt>
      <trkpt lat="43.1462" lon="3.07824">
        <ele>191</ele>
        <time>2025-12-29T14:05:16.802Z</time>
      </trkpt>
      <trkpt lat="43.14619" lon="3.07823">
        <ele>191</ele>
        <time>2025-12-29T14:05:17.802Z</time>
      </trkpt>
      <trkpt lat="43.14618" lon="3.07822">
        <ele>190</ele>
        <time>2025-12-29T14:05:18.802Z</time>
      </trkpt>
      <trkpt lat="43.14616" lon="3.07821">
        <ele>190</ele>
        <time>2025-12-29T14:05:19.802Z</time>
      </trkpt>
      <trkpt lat="43.14615" lon="3.0782">
        <ele>191</ele>
        <time>2025-12-29T14:05:20.802Z</time>
      </trkpt>
      <trkpt lat="43.14614" lon="3.07819">
        <ele>191</ele>
        <time>2025-12-29T14:05:21.802Z</time>
      </trkpt>
      <trkpt lat="43.14612" lon="3.07818">
        <ele>191</ele>
        <time>2025-12-29T14:05:22.802Z</time>
      </trkpt>
      <trkpt lat="43.14611" lon="3.07817">
        <ele>191</ele>
        <time>2025-12-29T14:05:23.802Z</time>
      </trkpt>
      <trkpt lat="43.1461" lon="3.07817">
        <ele>191</ele>
        <time>2025-12-29T14:05:24.802Z</time>
      </trkpt>
      <trkpt lat="43.14609" lon="3.07817">
        <ele>191</ele>
        <time>2025-12-29T14:05:25.802Z</time>
      </trkpt>
      <trkpt lat="43.14608" lon="3.07816">
        <ele>191</ele>
        <time>2025-12-29T14:05:26.802Z</time>
      </trkpt>
      <trkpt lat="43.14607" lon="3.07815">
        <ele>191</ele>
        <time>2025-12-29T14:05:27.802Z</time>
      </trkpt>
      <trkpt lat="43.14606" lon="3.07815">
        <ele>191</ele>
        <time>2025-12-29T14:05:28.802Z</time>
      </trkpt>
      <trkpt lat="43.14605" lon="3.07814">
        <ele>191</ele>
        <time>2025-12-29T14:05:29.802Z</time>
      </trkpt>
      <trkpt lat="43.14603" lon="3.07814">
        <ele>191</ele>
        <time>2025-12-29T14:05:30.802Z</time>
      </trkpt>
      <trkpt lat="43.14602" lon="3.07814">
        <ele>191</ele>
        <time>2025-12-29T14:05:31.802Z</time>
      </trkpt>
      <trkpt lat="43.14601" lon="3.07814">
        <ele>191</ele>
        <time>2025-12-29T14:05:32.802Z</time>
      </trkpt>
      <trkpt lat="43.146" lon="3.07813">
        <ele>191</ele>
        <time>2025-12-29T14:05:33.802Z</time>
      </trkpt>
      <trkpt lat="43.14599" lon="3.07813">
        <ele>191</ele>
        <time>2025-12-29T14:05:34.802Z</time>
      </trkpt>
      <trkpt lat="43.14597" lon="3.07812">
        <ele>190</ele>
        <time>2025-12-29T14:05:35.802Z</time>
      </trkpt>
      <trkpt lat="43.14596" lon="3.07812">
        <ele>190</ele>
        <time>2025-12-29T14:05:36.802Z</time>
      </trkpt>
      <trkpt lat="43.14595" lon="3.07813">
        <ele>190</ele>
        <time>2025-12-29T14:05:37.802Z</time>
      </trkpt>
      <trkpt lat="43.14594" lon="3.07812">
        <ele>190</ele>
        <time>2025-12-29T14:05:38.802Z</time>
      </trkpt>
      <trkpt lat="43.14593" lon="3.07812">
        <ele>190</ele>
        <time>2025-12-29T14:05:39.802Z</time>
      </trkpt>
      <trkpt lat="43.14592" lon="3.07812">
        <ele>190</ele>
        <time>2025-12-29T14:05:40.802Z</time>
      </trkpt>
      <trkpt lat="43.1459" lon="3.07812">
        <ele>190</ele>
        <time>2025-12-29T14:05:41.802Z</time>
      </trkpt>
      <trkpt lat="43.14589" lon="3.07812">
        <ele>189</ele>
        <time>2025-12-29T14:05:42.802Z</time>
      </trkpt>
      <trkpt lat="43.14588" lon="3.07811">
        <ele>189</ele>
        <time>2025-12-29T14:05:43.802Z</time>
      </trkpt>
      <trkpt lat="43.14586" lon="3.07811">
        <ele>189</ele>
        <time>2025-12-29T14:05:44.802Z</time>
      </trkpt>
      <trkpt lat="43.14585" lon="3.07811">
        <ele>190</ele>
        <time>2025-12-29T14:05:45.802Z</time>
      </trkpt>
      <trkpt lat="43.14583" lon="3.07811">
        <ele>190</ele>
        <time>2025-12-29T14:05:46.802Z</time>
      </trkpt>
      <trkpt lat="43.14582" lon="3.07811">
        <ele>190</ele>
        <time>2025-12-29T14:05:47.802Z</time>
      </trkpt>
      <trkpt lat="43.1458" lon="3.07811">
        <ele>190</ele>
        <time>2025-12-29T14:05:48.802Z</time>
      </trkpt>
      <trkpt lat="43.14579" lon="3.07811">
        <ele>190</ele>
        <time>2025-12-29T14:05:49.802Z</time>
      </trkpt>
      <trkpt lat="43.14578" lon="3.07811">
        <ele>190</ele>
        <time>2025-12-29T14:05:50.802Z</time>
      </trkpt>
      <trkpt lat="43.14576" lon="3.07811">
        <ele>191</ele>
        <time>2025-12-29T14:05:51.802Z</time>
      </trkpt>
      <trkpt lat="43.14575" lon="3.07811">
        <ele>191</ele>
        <time>2025-12-29T14:05:52.802Z</time>
      </trkpt>
      <trkpt lat="43.14574" lon="3.07811">
        <ele>191</ele>
        <time>2025-12-29T14:05:53.802Z</time>
      </trkpt>
      <trkpt lat="43.14573" lon="3.0781">
        <ele>192</ele>
        <time>2025-12-29T14:05:54.802Z</time>
      </trkpt>
      <trkpt lat="43.14572" lon="3.07811">
        <ele>192</ele>
        <time>2025-12-29T14:05:55.802Z</time>
      </trkpt>
      <trkpt lat="43.14571" lon="3.0781">
        <ele>191</ele>
        <time>2025-12-29T14:05:56.802Z</time>
      </trkpt>
      <trkpt lat="43.1457" lon="3.0781">
        <ele>191</ele>
        <time>2025-12-29T14:05:57.802Z</time>
      </trkpt>
      <trkpt lat="43.14569" lon="3.07809">
        <ele>191</ele>
        <time>2025-12-29T14:05:58.802Z</time>
      </trkpt>
      <trkpt lat="43.14568" lon="3.07808">
        <ele>191</ele>
        <time>2025-12-29T14:05:59.802Z</time>
      </trkpt>
      <trkpt lat="43.14566" lon="3.07807">
        <ele>190</ele>
        <time>2025-12-29T14:06:00.802Z</time>
      </trkpt>
      <trkpt lat="43.14565" lon="3.07807">
        <ele>190</ele>
        <time>2025-12-29T14:06:01.802Z</time>
      </trkpt>
      <trkpt lat="43.14563" lon="3.07806">
        <ele>190</ele>
        <time>2025-12-29T14:06:02.802Z</time>
      </trkpt>
      <trkpt lat="43.14562" lon="3.07805">
        <ele>190</ele>
        <time>2025-12-29T14:06:03.802Z</time>
      </trkpt>
      <trkpt lat="43.14561" lon="3.07805">
        <ele>190</ele>
        <time>2025-12-29T14:06:04.802Z</time>
      </trkpt>
      <trkpt lat="43.14559" lon="3.07804">
        <ele>190</ele>
        <time>2025-12-29T14:06:05.802Z</time>
      </trkpt>
      <trkpt lat="43.14558" lon="3.07803">
        <ele>190</ele>
        <time>2025-12-29T14:06:06.802Z</time>
      </trkpt>
      <trkpt lat="43.14556" lon="3.07803">
        <ele>190</ele>
        <time>2025-12-29T14:06:07.802Z</time>
      </trkpt>
      <trkpt lat="43.14555" lon="3.07803">
        <ele>190</ele>
        <time>2025-12-29T14:06:08.802Z</time>
      </trkpt>
      <trkpt lat="43.14553" lon="3.07803">
        <ele>190</ele>
        <time>2025-12-29T14:06:09.802Z</time>
      </trkpt>
      <trkpt lat="43.14552" lon="3.07803">
        <ele>190</ele>
        <time>2025-12-29T14:06:10.802Z</time>
      </trkpt>
      <trkpt lat="43.1455" lon="3.07803">
        <ele>191</ele>
        <time>2025-12-29T14:06:11.802Z</time>
      </trkpt>
      <trkpt lat="43.14548" lon="3.07803">
        <ele>191</ele>
        <time>2025-12-29T14:06:12.802Z</time>
      </trkpt>
      <trkpt lat="43.14547" lon="3.07803">
        <ele>191</ele>
        <time>2025-12-29T14:06:13.802Z</time>
      </trkpt>
      <trkpt lat="43.14545" lon="3.07803">
        <ele>191</ele>
        <time>2025-12-29T14:06:14.802Z</time>
      </trkpt>
      <trkpt lat="43.14543" lon="3.07802">
        <ele>191</ele>
        <time>2025-12-29T14:06:15.802Z</time>
      </trkpt>
      <trkpt lat="43.14542" lon="3.07802">
        <ele>191</ele>
        <time>2025-12-29T14:06:16.802Z</time>
      </trkpt>
      <trkpt lat="43.14541" lon="3.07802">
        <ele>191</ele>
        <time>2025-12-29T14:06:17.802Z</time>
      </trkpt>
      <trkpt lat="43.14539" lon="3.07802">
        <ele>191</ele>
        <time>2025-12-29T14:06:18.802Z</time>
      </trkpt>
      <trkpt lat="43.14538" lon="3.07802">
        <ele>191</ele>
        <time>2025-12-29T14:06:19.802Z</time>
      </trkpt>
      <trkpt lat="43.14536" lon="3.07802">
        <ele>191</ele>
        <time>2025-12-29T14:06:20.802Z</time>
      </trkpt>
      <trkpt lat="43.14535" lon="3.07802">
        <ele>191</ele>
        <time>2025-12-29T14:06:21.802Z</time>
      </trkpt>
      <trkpt lat="43.14534" lon="3.07802">
        <ele>191</ele>
        <time>2025-12-29T14:06:22.802Z</time>
      </trkpt>
      <trkpt lat="43.14533" lon="3.07801">
        <ele>191</ele>
        <time>2025-12-29T14:06:23.802Z</time>
      </trkpt>
      <trkpt lat="43.14532" lon="3.07801">
        <ele>191</ele>
        <time>2025-12-29T14:06:24.802Z</time>
      </trkpt>
      <trkpt lat="43.14531" lon="3.078">
        <ele>191</ele>
        <time>2025-12-29T14:06:25.802Z</time>
      </trkpt>
      <trkpt lat="43.14529" lon="3.078">
        <ele>191</ele>
        <time>2025-12-29T14:06:26.802Z</time>
      </trkpt>
      <trkpt lat="43.14528" lon="3.078">
        <ele>190</ele>
        <time>2025-12-29T14:06:27.802Z</time>
      </trkpt>
      <trkpt lat="43.14527" lon="3.07799">
        <ele>190</ele>
        <time>2025-12-29T14:06:28.802Z</time>
      </trkpt>
      <trkpt lat="43.14526" lon="3.07799">
        <ele>190</ele>
        <time>2025-12-29T14:06:29.802Z</time>
      </trkpt>
      <trkpt lat="43.14525" lon="3.07798">
        <ele>190</ele>
        <time>2025-12-29T14:06:30.802Z</time>
      </trkpt>
      <trkpt lat="43.14523" lon="3.07797">
        <ele>190</ele>
        <time>2025-12-29T14:06:31.802Z</time>
      </trkpt>
      <trkpt lat="43.14522" lon="3.07797">
        <ele>190</ele>
        <time>2025-12-29T14:06:32.802Z</time>
      </trkpt>
      <trkpt lat="43.14521" lon="3.07797">
        <ele>190</ele>
        <time>2025-12-29T14:06:33.802Z</time>
      </trkpt>
      <trkpt lat="43.14519" lon="3.07797">
        <ele>190</ele>
        <time>2025-12-29T14:06:34.802Z</time>
      </trkpt>
      <trkpt lat="43.14518" lon="3.07797">
        <ele>190</ele>
        <time>2025-12-29T14:06:35.802Z</time>
      </trkpt>
      <trkpt lat="43.14517" lon="3.07797">
        <ele>191</ele>
        <time>2025-12-29T14:06:36.802Z</time>
      </trkpt>
      <trkpt lat="43.14516" lon="3.07797">
        <ele>191</ele>
        <time>2025-12-29T14:06:37.802Z</time>
      </trkpt>
      <trkpt lat="43.14515" lon="3.07797">
        <ele>191</ele>
        <time>2025-12-29T14:06:38.802Z</time>
      </trkpt>
      <trkpt lat="43.14514" lon="3.07796">
        <ele>191</ele>
        <time>2025-12-29T14:06:39.802Z</time>
      </trkpt>
      <trkpt lat="43.14513" lon="3.07796">
        <ele>191</ele>
        <time>2025-12-29T14:06:40.802Z</time>
      </trkpt>
      <trkpt lat="43.14512" lon="3.07796">
        <ele>191</ele>
        <time>2025-12-29T14:06:41.802Z</time>
      </trkpt>
      <trkpt lat="43.14511" lon="3.07795">
        <ele>191</ele>
        <time>2025-12-29T14:06:42.802Z</time>
      </trkpt>
      <trkpt lat="43.14509" lon="3.07795">
        <ele>191</ele>
        <time>2025-12-29T14:06:43.802Z</time>
      </trkpt>
      <trkpt lat="43.14508" lon="3.07795">
        <ele>191</ele>
        <time>2025-12-29T14:06:44.802Z</time>
      </trkpt>
      <trkpt lat="43.14507" lon="3.07795">
        <ele>191</ele>
        <time>2025-12-29T14:06:45.802Z</time>
      </trkpt>
      <trkpt lat="43.14505" lon="3.07794">
        <ele>192</ele>
        <time>2025-12-29T14:06:46.802Z</time>
      </trkpt>
      <trkpt lat="43.14505" lon="3.07794">
        <ele>192</ele>
        <time>2025-12-29T14:06:47.802Z</time>
      </trkpt>
      <trkpt lat="43.14504" lon="3.07794">
        <ele>192</ele>
        <time>2025-12-29T14:06:48.802Z</time>
      </trkpt>
      <trkpt lat="43.14503" lon="3.07793">
        <ele>192</ele>
        <time>2025-12-29T14:06:49.802Z</time>
      </trkpt>
      <trkpt lat="43.14502" lon="3.07793">
        <ele>192</ele>
        <time>2025-12-29T14:06:50.802Z</time>
      </trkpt>
      <trkpt lat="43.14501" lon="3.07793">
        <ele>192</ele>
        <time>2025-12-29T14:06:51.802Z</time>
      </trkpt>
      <trkpt lat="43.14501" lon="3.07792">
        <ele>192</ele>
        <time>2025-12-29T14:06:52.802Z</time>
      </trkpt>
      <trkpt lat="43.14501" lon="3.07792">
        <ele>192</ele>
        <time>2025-12-29T14:06:53.802Z</time>
      </trkpt>
      <trkpt lat="43.14499" lon="3.07793">
        <ele>192</ele>
        <time>2025-12-29T14:06:54.802Z</time>
      </trkpt>
      <trkpt lat="43.14499" lon="3.07793">
        <ele>192</ele>
        <time>2025-12-29T14:06:55.802Z</time>
      </trkpt>
      <trkpt lat="43.14497" lon="3.07794">
        <ele>192</ele>
        <time>2025-12-29T14:06:56.802Z</time>
      </trkpt>
      <trkpt lat="43.14496" lon="3.07794">
        <ele>192</ele>
        <time>2025-12-29T14:06:57.802Z</time>
      </trkpt>
      <trkpt lat="43.14494" lon="3.07794">
        <ele>193</ele>
        <time>2025-12-29T14:06:58.802Z</time>
      </trkpt>
      <trkpt lat="43.14493" lon="3.07794">
        <ele>193</ele>
        <time>2025-12-29T14:06:59.802Z</time>
      </trkpt>
      <trkpt lat="43.14492" lon="3.07794">
        <ele>193</ele>
        <time>2025-12-29T14:07:00.802Z</time>
      </trkpt>
      <trkpt lat="43.1449" lon="3.07795">
        <ele>192</ele>
        <time>2025-12-29T14:07:01.802Z</time>
      </trkpt>
      <trkpt lat="43.14489" lon="3.07795">
        <ele>192</ele>
        <time>2025-12-29T14:07:02.802Z</time>
      </trkpt>
      <trkpt lat="43.14488" lon="3.07795">
        <ele>192</ele>
        <time>2025-12-29T14:07:03.802Z</time>
      </trkpt>
      <trkpt lat="43.14487" lon="3.07795">
        <ele>192</ele>
        <time>2025-12-29T14:07:04.802Z</time>
      </trkpt>
      <trkpt lat="43.14485" lon="3.07795">
        <ele>191</ele>
        <time>2025-12-29T14:07:05.802Z</time>
      </trkpt>
      <trkpt lat="43.14484" lon="3.07796">
        <ele>191</ele>
        <time>2025-12-29T14:07:06.802Z</time>
      </trkpt>
      <trkpt lat="43.14483" lon="3.07796">
        <ele>191</ele>
        <time>2025-12-29T14:07:07.802Z</time>
      </trkpt>
      <trkpt lat="43.14482" lon="3.07796">
        <ele>190</ele>
        <time>2025-12-29T14:07:08.802Z</time>
      </trkpt>
      <trkpt lat="43.14481" lon="3.07796">
        <ele>190</ele>
        <time>2025-12-29T14:07:09.802Z</time>
      </trkpt>
      <trkpt lat="43.14479" lon="3.07796">
        <ele>190</ele>
        <time>2025-12-29T14:07:10.802Z</time>
      </trkpt>
      <trkpt lat="43.14478" lon="3.07796">
        <ele>190</ele>
        <time>2025-12-29T14:07:11.802Z</time>
      </trkpt>
      <trkpt lat="43.14477" lon="3.07796">
        <ele>190</ele>
        <time>2025-12-29T14:07:12.802Z</time>
      </trkpt>
      <trkpt lat="43.14475" lon="3.07797">
        <ele>190</ele>
        <time>2025-12-29T14:07:13.802Z</time>
      </trkpt>
      <trkpt lat="43.14474" lon="3.07797">
        <ele>190</ele>
        <time>2025-12-29T14:07:14.802Z</time>
      </trkpt>
      <trkpt lat="43.14473" lon="3.07797">
        <ele>190</ele>
        <time>2025-12-29T14:07:15.802Z</time>
      </trkpt>
      <trkpt lat="43.14472" lon="3.07797">
        <ele>190</ele>
        <time>2025-12-29T14:07:16.802Z</time>
      </trkpt>
      <trkpt lat="43.14471" lon="3.07797">
        <ele>190</ele>
        <time>2025-12-29T14:07:17.802Z</time>
      </trkpt>
      <trkpt lat="43.14469" lon="3.07797">
        <ele>190</ele>
        <time>2025-12-29T14:07:18.802Z</time>
      </trkpt>
      <trkpt lat="43.14468" lon="3.07797">
        <ele>190</ele>
        <time>2025-12-29T14:07:19.802Z</time>
      </trkpt>
      <trkpt lat="43.14467" lon="3.07797">
        <ele>190</ele>
        <time>2025-12-29T14:07:20.802Z</time>
      </trkpt>
      <trkpt lat="43.14467" lon="3.07797">
        <ele>190</ele>
        <time>2025-12-29T14:07:21.802Z</time>
      </trkpt>
      <trkpt lat="43.14466" lon="3.07797">
        <ele>189</ele>
        <time>2025-12-29T14:07:22.802Z</time>
      </trkpt>
      <trkpt lat="43.14464" lon="3.07797">
        <ele>189</ele>
        <time>2025-12-29T14:07:23.802Z</time>
      </trkpt>
      <trkpt lat="43.14463" lon="3.07797">
        <ele>189</ele>
        <time>2025-12-29T14:07:24.802Z</time>
      </trkpt>
      <trkpt lat="43.14462" lon="3.07796">
        <ele>188</ele>
        <time>2025-12-29T14:07:25.802Z</time>
      </trkpt>
      <trkpt lat="43.14461" lon="3.07795">
        <ele>188</ele>
        <time>2025-12-29T14:07:26.802Z</time>
      </trkpt>
      <trkpt lat="43.1446" lon="3.07794">
        <ele>188</ele>
        <time>2025-12-29T14:07:27.802Z</time>
      </trkpt>
      <trkpt lat="43.14459" lon="3.07794">
        <ele>188</ele>
        <time>2025-12-29T14:07:28.802Z</time>
      </trkpt>
      <trkpt lat="43.14457" lon="3.07794">
        <ele>188</ele>
        <time>2025-12-29T14:07:29.802Z</time>
      </trkpt>
      <trkpt lat="43.14456" lon="3.07793">
        <ele>188</ele>
        <time>2025-12-29T14:07:30.802Z</time>
      </trkpt>
      <trkpt lat="43.14456" lon="3.07792">
        <ele>188</ele>
        <time>2025-12-29T14:07:31.802Z</time>
      </trkpt>
      <trkpt lat="43.14455" lon="3.07791">
        <ele>188</ele>
        <time>2025-12-29T14:07:32.802Z</time>
      </trkpt>
      <trkpt lat="43.14454" lon="3.0779">
        <ele>188</ele>
        <time>2025-12-29T14:07:33.802Z</time>
      </trkpt>
      <trkpt lat="43.14453" lon="3.07789">
        <ele>188</ele>
        <time>2025-12-29T14:07:34.802Z</time>
      </trkpt>
      <trkpt lat="43.14452" lon="3.07788">
        <ele>188</ele>
        <time>2025-12-29T14:07:35.802Z</time>
      </trkpt>
      <trkpt lat="43.14451" lon="3.07787">
        <ele>187</ele>
        <time>2025-12-29T14:07:36.802Z</time>
      </trkpt>
      <trkpt lat="43.14449" lon="3.07786">
        <ele>187</ele>
        <time>2025-12-29T14:07:37.802Z</time>
      </trkpt>
      <trkpt lat="43.14448" lon="3.07785">
        <ele>187</ele>
        <time>2025-12-29T14:07:38.802Z</time>
      </trkpt>
      <trkpt lat="43.14447" lon="3.07784">
        <ele>187</ele>
        <time>2025-12-29T14:07:39.802Z</time>
      </trkpt>
      <trkpt lat="43.14446" lon="3.07782">
        <ele>187</ele>
        <time>2025-12-29T14:07:40.802Z</time>
      </trkpt>
      <trkpt lat="43.14445" lon="3.07781">
        <ele>188</ele>
        <time>2025-12-29T14:07:41.802Z</time>
      </trkpt>
      <trkpt lat="43.14444" lon="3.0778">
        <ele>188</ele>
        <time>2025-12-29T14:07:42.802Z</time>
      </trkpt>
      <trkpt lat="43.14443" lon="3.0778">
        <ele>188</ele>
        <time>2025-12-29T14:07:43.802Z</time>
      </trkpt>
      <trkpt lat="43.14442" lon="3.07779">
        <ele>188</ele>
        <time>2025-12-29T14:07:44.802Z</time>
      </trkpt>
      <trkpt lat="43.1444" lon="3.07778">
        <ele>188</ele>
        <time>2025-12-29T14:07:45.802Z</time>
      </trkpt>
      <trkpt lat="43.14439" lon="3.07776">
        <ele>188</ele>
        <time>2025-12-29T14:07:46.802Z</time>
      </trkpt>
      <trkpt lat="43.14438" lon="3.07775">
        <ele>188</ele>
        <time>2025-12-29T14:07:47.802Z</time>
      </trkpt>
      <trkpt lat="43.14437" lon="3.07775">
        <ele>188</ele>
        <time>2025-12-29T14:07:48.802Z</time>
      </trkpt>
      <trkpt lat="43.14436" lon="3.07774">
        <ele>188</ele>
        <time>2025-12-29T14:07:49.802Z</time>
      </trkpt>
      <trkpt lat="43.14434" lon="3.07773">
        <ele>187</ele>
        <time>2025-12-29T14:07:50.802Z</time>
      </trkpt>
      <trkpt lat="43.14433" lon="3.07772">
        <ele>187</ele>
        <time>2025-12-29T14:07:51.802Z</time>
      </trkpt>
      <trkpt lat="43.14432" lon="3.07771">
        <ele>187</ele>
        <time>2025-12-29T14:07:52.802Z</time>
      </trkpt>
      <trkpt lat="43.1443" lon="3.07771">
        <ele>187</ele>
        <time>2025-12-29T14:07:53.802Z</time>
      </trkpt>
      <trkpt lat="43.14428" lon="3.0777">
        <ele>187</ele>
        <time>2025-12-29T14:07:54.802Z</time>
      </trkpt>
      <trkpt lat="43.14427" lon="3.07769">
        <ele>186</ele>
        <time>2025-12-29T14:07:55.802Z</time>
      </trkpt>
      <trkpt lat="43.14427" lon="3.07769">
        <ele>186</ele>
        <time>2025-12-29T14:07:56.802Z</time>
      </trkpt>
      <trkpt lat="43.14426" lon="3.07769">
        <ele>186</ele>
        <time>2025-12-29T14:07:57.802Z</time>
      </trkpt>
      <trkpt lat="43.14426" lon="3.07768">
        <ele>186</ele>
        <time>2025-12-29T14:07:58.802Z</time>
      </trkpt>
      <trkpt lat="43.14426" lon="3.07768">
        <ele>185</ele>
        <time>2025-12-29T14:07:59.802Z</time>
      </trkpt>
      <trkpt lat="43.14425" lon="3.07767">
        <ele>185</ele>
        <time>2025-12-29T14:08:00.802Z</time>
      </trkpt>
      <trkpt lat="43.14425" lon="3.07767">
        <ele>185</ele>
        <time>2025-12-29T14:08:01.802Z</time>
      </trkpt>
      <trkpt lat="43.14423" lon="3.07767">
        <ele>185</ele>
        <time>2025-12-29T14:08:02.802Z</time>
      </trkpt>
      <trkpt lat="43.14422" lon="3.07767">
        <ele>185</ele>
        <time>2025-12-29T14:08:03.802Z</time>
      </trkpt>
      <trkpt lat="43.14421" lon="3.07767">
        <ele>186</ele>
        <time>2025-12-29T14:08:04.802Z</time>
      </trkpt>
      <trkpt lat="43.1442" lon="3.07766">
        <ele>186</ele>
        <time>2025-12-29T14:08:05.802Z</time>
      </trkpt>
      <trkpt lat="43.14419" lon="3.07765">
        <ele>186</ele>
        <time>2025-12-29T14:08:06.802Z</time>
      </trkpt>
      <trkpt lat="43.14418" lon="3.07764">
        <ele>186</ele>
        <time>2025-12-29T14:08:07.802Z</time>
      </trkpt>
      <trkpt lat="43.14417" lon="3.07763">
        <ele>187</ele>
        <time>2025-12-29T14:08:08.802Z</time>
      </trkpt>
      <trkpt lat="43.14416" lon="3.07763">
        <ele>187</ele>
        <time>2025-12-29T14:08:09.802Z</time>
      </trkpt>
      <trkpt lat="43.14415" lon="3.07762">
        <ele>187</ele>
        <time>2025-12-29T14:08:10.802Z</time>
      </trkpt>
      <trkpt lat="43.14414" lon="3.07761">
        <ele>187</ele>
        <time>2025-12-29T14:08:11.802Z</time>
      </trkpt>
      <trkpt lat="43.14413" lon="3.0776">
        <ele>187</ele>
        <time>2025-12-29T14:08:12.802Z</time>
      </trkpt>
      <trkpt lat="43.14412" lon="3.0776">
        <ele>187</ele>
        <time>2025-12-29T14:08:13.802Z</time>
      </trkpt>
      <trkpt lat="43.14411" lon="3.0776">
        <ele>187</ele>
        <time>2025-12-29T14:08:14.802Z</time>
      </trkpt>
      <trkpt lat="43.14409" lon="3.0776">
        <ele>187</ele>
        <time>2025-12-29T14:08:15.802Z</time>
      </trkpt>
      <trkpt lat="43.14408" lon="3.0776">
        <ele>187</ele>
        <time>2025-12-29T14:08:16.802Z</time>
      </trkpt>
      <trkpt lat="43.14407" lon="3.07759">
        <ele>187</ele>
        <time>2025-12-29T14:08:17.802Z</time>
      </trkpt>
      <trkpt lat="43.14405" lon="3.07758">
        <ele>187</ele>
        <time>2025-12-29T14:08:18.802Z</time>
      </trkpt>
      <trkpt lat="43.14404" lon="3.07757">
        <ele>187</ele>
        <time>2025-12-29T14:08:19.802Z</time>
      </trkpt>
      <trkpt lat="43.14403" lon="3.07756">
        <ele>187</ele>
        <time>2025-12-29T14:08:20.802Z</time>
      </trkpt>
      <trkpt lat="43.14402" lon="3.07756">
        <ele>187</ele>
        <time>2025-12-29T14:08:21.802Z</time>
      </trkpt>
      <trkpt lat="43.14401" lon="3.07756">
        <ele>187</ele>
        <time>2025-12-29T14:08:22.802Z</time>
      </trkpt>
      <trkpt lat="43.14399" lon="3.07755">
        <ele>186</ele>
        <time>2025-12-29T14:08:23.802Z</time>
      </trkpt>
      <trkpt lat="43.14398" lon="3.07754">
        <ele>187</ele>
        <time>2025-12-29T14:08:24.802Z</time>
      </trkpt>
      <trkpt lat="43.14397" lon="3.07754">
        <ele>187</ele>
        <time>2025-12-29T14:08:25.802Z</time>
      </trkpt>
      <trkpt lat="43.14395" lon="3.07753">
        <ele>187</ele>
        <time>2025-12-29T14:08:26.802Z</time>
      </trkpt>
      <trkpt lat="43.14394" lon="3.07752">
        <ele>187</ele>
        <time>2025-12-29T14:08:27.802Z</time>
      </trkpt>
      <trkpt lat="43.14392" lon="3.07751">
        <ele>187</ele>
        <time>2025-12-29T14:08:28.802Z</time>
      </trkpt>
      <trkpt lat="43.14391" lon="3.0775">
        <ele>188</ele>
        <time>2025-12-29T14:08:29.802Z</time>
      </trkpt>
      <trkpt lat="43.1439" lon="3.07748">
        <ele>188</ele>
        <time>2025-12-29T14:08:30.802Z</time>
      </trkpt>
      <trkpt lat="43.14389" lon="3.07748">
        <ele>188</ele>
        <time>2025-12-29T14:08:31.802Z</time>
      </trkpt>
      <trkpt lat="43.14388" lon="3.07746">
        <ele>188</ele>
        <time>2025-12-29T14:08:32.802Z</time>
      </trkpt>
      <trkpt lat="43.14387" lon="3.07745">
        <ele>187</ele>
        <time>2025-12-29T14:08:33.802Z</time>
      </trkpt>
      <trkpt lat="43.14386" lon="3.07744">
        <ele>187</ele>
        <time>2025-12-29T14:08:34.802Z</time>
      </trkpt>
      <trkpt lat="43.14384" lon="3.07744">
        <ele>187</ele>
        <time>2025-12-29T14:08:35.802Z</time>
      </trkpt>
      <trkpt lat="43.14383" lon="3.07743">
        <ele>187</ele>
        <time>2025-12-29T14:08:36.802Z</time>
      </trkpt>
      <trkpt lat="43.14382" lon="3.07743">
        <ele>187</ele>
        <time>2025-12-29T14:08:37.802Z</time>
      </trkpt>
      <trkpt lat="43.14381" lon="3.07743">
        <ele>187</ele>
        <time>2025-12-29T14:08:38.802Z</time>
      </trkpt>
      <trkpt lat="43.14379" lon="3.07743">
        <ele>186</ele>
        <time>2025-12-29T14:08:39.802Z</time>
      </trkpt>
      <trkpt lat="43.14378" lon="3.07742">
        <ele>186</ele>
        <time>2025-12-29T14:08:40.802Z</time>
      </trkpt>
      <trkpt lat="43.14377" lon="3.07742">
        <ele>186</ele>
        <time>2025-12-29T14:08:41.802Z</time>
      </trkpt>
      <trkpt lat="43.14376" lon="3.07741">
        <ele>185</ele>
        <time>2025-12-29T14:08:42.802Z</time>
      </trkpt>
      <trkpt lat="43.14375" lon="3.07741">
        <ele>185</ele>
        <time>2025-12-29T14:08:43.802Z</time>
      </trkpt>
      <trkpt lat="43.14374" lon="3.07741">
        <ele>185</ele>
        <time>2025-12-29T14:08:44.802Z</time>
      </trkpt>
      <trkpt lat="43.14373" lon="3.07741">
        <ele>184</ele>
        <time>2025-12-29T14:08:45.802Z</time>
      </trkpt>
      <trkpt lat="43.14372" lon="3.07741">
        <ele>184</ele>
        <time>2025-12-29T14:08:46.802Z</time>
      </trkpt>
      <trkpt lat="43.1437" lon="3.07741">
        <ele>183</ele>
        <time>2025-12-29T14:08:47.802Z</time>
      </trkpt>
      <trkpt lat="43.1437" lon="3.0774">
        <ele>183</ele>
        <time>2025-12-29T14:08:48.802Z</time>
      </trkpt>
      <trkpt lat="43.14369" lon="3.0774">
        <ele>182</ele>
        <time>2025-12-29T14:08:49.802Z</time>
      </trkpt>
      <trkpt lat="43.14368" lon="3.0774">
        <ele>182</ele>
        <time>2025-12-29T14:08:50.802Z</time>
      </trkpt>
      <trkpt lat="43.14367" lon="3.07739">
        <ele>182</ele>
        <time>2025-12-29T14:08:51.802Z</time>
      </trkpt>
      <trkpt lat="43.14366" lon="3.07737">
        <ele>181</ele>
        <time>2025-12-29T14:08:52.802Z</time>
      </trkpt>
      <trkpt lat="43.14365" lon="3.07736">
        <ele>181</ele>
        <time>2025-12-29T14:08:53.802Z</time>
      </trkpt>
      <trkpt lat="43.14364" lon="3.07735">
        <ele>181</ele>
        <time>2025-12-29T14:08:54.802Z</time>
      </trkpt>
      <trkpt lat="43.14363" lon="3.07734">
        <ele>181</ele>
        <time>2025-12-29T14:08:55.802Z</time>
      </trkpt>
      <trkpt lat="43.14361" lon="3.07732">
        <ele>180</ele>
        <time>2025-12-29T14:08:56.802Z</time>
      </trkpt>
      <trkpt lat="43.14361" lon="3.07731">
        <ele>180</ele>
        <time>2025-12-29T14:08:57.802Z</time>
      </trkpt>
      <trkpt lat="43.1436" lon="3.07731">
        <ele>180</ele>
        <time>2025-12-29T14:08:58.802Z</time>
      </trkpt>
      <trkpt lat="43.14359" lon="3.0773">
        <ele>180</ele>
        <time>2025-12-29T14:08:59.802Z</time>
      </trkpt>
      <trkpt lat="43.14358" lon="3.07729">
        <ele>180</ele>
        <time>2025-12-29T14:09:00.802Z</time>
      </trkpt>
      <trkpt lat="43.14356" lon="3.07727">
        <ele>180</ele>
        <time>2025-12-29T14:09:01.802Z</time>
      </trkpt>
      <trkpt lat="43.14355" lon="3.07726">
        <ele>180</ele>
        <time>2025-12-29T14:09:02.802Z</time>
      </trkpt>
      <trkpt lat="43.14354" lon="3.07724">
        <ele>180</ele>
        <time>2025-12-29T14:09:03.802Z</time>
      </trkpt>
      <trkpt lat="43.14354" lon="3.07723">
        <ele>181</ele>
        <time>2025-12-29T14:09:04.802Z</time>
      </trkpt>
      <trkpt lat="43.14353" lon="3.07721">
        <ele>181</ele>
        <time>2025-12-29T14:09:05.802Z</time>
      </trkpt>
      <trkpt lat="43.14353" lon="3.07719">
        <ele>181</ele>
        <time>2025-12-29T14:09:06.802Z</time>
      </trkpt>
      <trkpt lat="43.14353" lon="3.07717">
        <ele>181</ele>
        <time>2025-12-29T14:09:07.802Z</time>
      </trkpt>
      <trkpt lat="43.14353" lon="3.07716">
        <ele>180</ele>
        <time>2025-12-29T14:09:08.802Z</time>
      </trkpt>
      <trkpt lat="43.14352" lon="3.07714">
        <ele>180</ele>
        <time>2025-12-29T14:09:09.802Z</time>
      </trkpt>
      <trkpt lat="43.14352" lon="3.07712">
        <ele>180</ele>
        <time>2025-12-29T14:09:10.802Z</time>
      </trkpt>
      <trkpt lat="43.14351" lon="3.0771">
        <ele>180</ele>
        <time>2025-12-29T14:09:11.802Z</time>
      </trkpt>
      <trkpt lat="43.14351" lon="3.07709">
        <ele>180</ele>
        <time>2025-12-29T14:09:12.802Z</time>
      </trkpt>
      <trkpt lat="43.1435" lon="3.07707">
        <ele>181</ele>
        <time>2025-12-29T14:09:13.802Z</time>
      </trkpt>
      <trkpt lat="43.14349" lon="3.07705">
        <ele>180</ele>
        <time>2025-12-29T14:09:14.802Z</time>
      </trkpt>
      <trkpt lat="43.14348" lon="3.07703">
        <ele>180</ele>
        <time>2025-12-29T14:09:15.802Z</time>
      </trkpt>
      <trkpt lat="43.14347" lon="3.07701">
        <ele>180</ele>
        <time>2025-12-29T14:09:16.802Z</time>
      </trkpt>
      <trkpt lat="43.14346" lon="3.077">
        <ele>180</ele>
        <time>2025-12-29T14:09:17.802Z</time>
      </trkpt>
      <trkpt lat="43.14345" lon="3.07697">
        <ele>179</ele>
        <time>2025-12-29T14:09:18.802Z</time>
      </trkpt>
      <trkpt lat="43.14344" lon="3.07696">
        <ele>179</ele>
        <time>2025-12-29T14:09:19.802Z</time>
      </trkpt>
      <trkpt lat="43.14343" lon="3.07694">
        <ele>178</ele>
        <time>2025-12-29T14:09:20.802Z</time>
      </trkpt>
      <trkpt lat="43.14342" lon="3.07692">
        <ele>178</ele>
        <time>2025-12-29T14:09:21.802Z</time>
      </trkpt>
      <trkpt lat="43.14341" lon="3.07692">
        <ele>178</ele>
        <time>2025-12-29T14:09:22.802Z</time>
      </trkpt>
      <trkpt lat="43.1434" lon="3.07691">
        <ele>178</ele>
        <time>2025-12-29T14:09:23.802Z</time>
      </trkpt>
      <trkpt lat="43.14339" lon="3.0769">
        <ele>179</ele>
        <time>2025-12-29T14:09:24.802Z</time>
      </trkpt>
      <trkpt lat="43.14338" lon="3.0769">
        <ele>178</ele>
        <time>2025-12-29T14:09:25.802Z</time>
      </trkpt>
      <trkpt lat="43.14337" lon="3.07691">
        <ele>178</ele>
        <time>2025-12-29T14:09:26.802Z</time>
      </trkpt>
      <trkpt lat="43.14336" lon="3.07691">
        <ele>178</ele>
        <time>2025-12-29T14:09:27.802Z</time>
      </trkpt>
      <trkpt lat="43.14336" lon="3.07692">
        <ele>178</ele>
        <time>2025-12-29T14:09:28.802Z</time>
      </trkpt>
      <trkpt lat="43.14335" lon="3.07692">
        <ele>177</ele>
        <time>2025-12-29T14:09:29.802Z</time>
      </trkpt>
      <trkpt lat="43.14335" lon="3.07691">
        <ele>177</ele>
        <time>2025-12-29T14:09:30.802Z</time>
      </trkpt>
      <trkpt lat="43.14334" lon="3.07691">
        <ele>177</ele>
        <time>2025-12-29T14:09:31.802Z</time>
      </trkpt>
      <trkpt lat="43.14333" lon="3.0769">
        <ele>176</ele>
        <time>2025-12-29T14:09:32.802Z</time>
      </trkpt>
      <trkpt lat="43.14332" lon="3.0769">
        <ele>177</ele>
        <time>2025-12-29T14:09:33.802Z</time>
      </trkpt>
      <trkpt lat="43.14332" lon="3.0769">
        <ele>176</ele>
        <time>2025-12-29T14:09:34.802Z</time>
      </trkpt>
      <trkpt lat="43.14331" lon="3.0769">
        <ele>176</ele>
        <time>2025-12-29T14:09:35.802Z</time>
      </trkpt>
      <trkpt lat="43.1433" lon="3.0769">
        <ele>176</ele>
        <time>2025-12-29T14:09:36.802Z</time>
      </trkpt>
      <trkpt lat="43.14329" lon="3.0769">
        <ele>176</ele>
        <time>2025-12-29T14:09:37.802Z</time>
      </trkpt>
      <trkpt lat="43.14328" lon="3.07689">
        <ele>176</ele>
        <time>2025-12-29T14:09:38.802Z</time>
      </trkpt>
      <trkpt lat="43.14327" lon="3.07689">
        <ele>175</ele>
        <time>2025-12-29T14:09:39.802Z</time>
      </trkpt>
      <trkpt lat="43.14326" lon="3.07688">
        <ele>175</ele>
        <time>2025-12-29T14:09:40.802Z</time>
      </trkpt>
      <trkpt lat="43.14325" lon="3.07688">
        <ele>175</ele>
        <time>2025-12-29T14:09:41.802Z</time>
      </trkpt>
      <trkpt lat="43.14324" lon="3.07687">
        <ele>175</ele>
        <time>2025-12-29T14:09:42.802Z</time>
      </trkpt>
      <trkpt lat="43.14323" lon="3.07687">
        <ele>175</ele>
        <time>2025-12-29T14:09:43.802Z</time>
      </trkpt>
      <trkpt lat="43.14322" lon="3.07686">
        <ele>175</ele>
        <time>2025-12-29T14:09:44.802Z</time>
      </trkpt>
      <trkpt lat="43.14321" lon="3.07686">
        <ele>175</ele>
        <time>2025-12-29T14:09:45.802Z</time>
      </trkpt>
      <trkpt lat="43.1432" lon="3.07686">
        <ele>175</ele>
        <time>2025-12-29T14:09:46.802Z</time>
      </trkpt>
      <trkpt lat="43.14319" lon="3.07686">
        <ele>175</ele>
        <time>2025-12-29T14:09:47.802Z</time>
      </trkpt>
      <trkpt lat="43.14319" lon="3.07685">
        <ele>175</ele>
        <time>2025-12-29T14:09:48.802Z</time>
      </trkpt>
      <trkpt lat="43.14319" lon="3.07685">
        <ele>174</ele>
        <time>2025-12-29T14:09:49.802Z</time>
      </trkpt>
      <trkpt lat="43.14319" lon="3.07684">
        <ele>174</ele>
        <time>2025-12-29T14:09:50.802Z</time>
      </trkpt>
      <trkpt lat="43.14318" lon="3.07684">
        <ele>173</ele>
        <time>2025-12-29T14:09:51.802Z</time>
      </trkpt>
      <trkpt lat="43.14318" lon="3.07684">
        <ele>173</ele>
        <time>2025-12-29T14:09:52.802Z</time>
      </trkpt>
      <trkpt lat="43.14317" lon="3.07684">
        <ele>173</ele>
        <time>2025-12-29T14:09:53.802Z</time>
      </trkpt>
      <trkpt lat="43.14316" lon="3.07684">
        <ele>173</ele>
        <time>2025-12-29T14:09:54.802Z</time>
      </trkpt>
      <trkpt lat="43.14315" lon="3.07684">
        <ele>173</ele>
        <time>2025-12-29T14:09:55.802Z</time>
      </trkpt>
      <trkpt lat="43.14313" lon="3.07684">
        <ele>173</ele>
        <time>2025-12-29T14:09:56.802Z</time>
      </trkpt>
      <trkpt lat="43.14312" lon="3.07685">
        <ele>173</ele>
        <time>2025-12-29T14:09:57.802Z</time>
      </trkpt>
      <trkpt lat="43.1431" lon="3.07685">
        <ele>173</ele>
        <time>2025-12-29T14:09:58.802Z</time>
      </trkpt>
      <trkpt lat="43.14308" lon="3.07685">
        <ele>173</ele>
        <time>2025-12-29T14:09:59.802Z</time>
      </trkpt>
      <trkpt lat="43.14306" lon="3.07685">
        <ele>174</ele>
        <time>2025-12-29T14:10:00.802Z</time>
      </trkpt>
      <trkpt lat="43.14305" lon="3.07685">
        <ele>174</ele>
        <time>2025-12-29T14:10:01.802Z</time>
      </trkpt>
      <trkpt lat="43.14303" lon="3.07685">
        <ele>174</ele>
        <time>2025-12-29T14:10:02.802Z</time>
      </trkpt>
      <trkpt lat="43.14301" lon="3.07685">
        <ele>175</ele>
        <time>2025-12-29T14:10:03.803Z</time>
      </trkpt>
      <trkpt lat="43.14299" lon="3.07685">
        <ele>175</ele>
        <time>2025-12-29T14:10:04.802Z</time>
      </trkpt>
      <trkpt lat="43.14298" lon="3.07685">
        <ele>175</ele>
        <time>2025-12-29T14:10:05.802Z</time>
      </trkpt>
      <trkpt lat="43.14297" lon="3.07684">
        <ele>175</ele>
        <time>2025-12-29T14:10:06.802Z</time>
      </trkpt>
      <trkpt lat="43.14296" lon="3.07684">
        <ele>176</ele>
        <time>2025-12-29T14:10:07.802Z</time>
      </trkpt>
      <trkpt lat="43.14294" lon="3.07685">
        <ele>176</ele>
        <time>2025-12-29T14:10:08.802Z</time>
      </trkpt>
      <trkpt lat="43.14293" lon="3.07686">
        <ele>176</ele>
        <time>2025-12-29T14:10:09.802Z</time>
      </trkpt>
      <trkpt lat="43.14292" lon="3.07687">
        <ele>177</ele>
        <time>2025-12-29T14:10:10.802Z</time>
      </trkpt>
      <trkpt lat="43.14291" lon="3.07688">
        <ele>177</ele>
        <time>2025-12-29T14:10:11.802Z</time>
      </trkpt>
      <trkpt lat="43.1429" lon="3.07689">
        <ele>177</ele>
        <time>2025-12-29T14:10:12.802Z</time>
      </trkpt>
      <trkpt lat="43.14289" lon="3.07689">
        <ele>177</ele>
        <time>2025-12-29T14:10:13.802Z</time>
      </trkpt>
      <trkpt lat="43.14287" lon="3.0769">
        <ele>177</ele>
        <time>2025-12-29T14:10:14.802Z</time>
      </trkpt>
      <trkpt lat="43.14285" lon="3.07691">
        <ele>177</ele>
        <time>2025-12-29T14:10:15.802Z</time>
      </trkpt>
      <trkpt lat="43.14283" lon="3.07693">
        <ele>177</ele>
        <time>2025-12-29T14:10:16.802Z</time>
      </trkpt>
      <trkpt lat="43.14281" lon="3.07694">
        <ele>177</ele>
        <time>2025-12-29T14:10:17.802Z</time>
      </trkpt>
      <trkpt lat="43.1428" lon="3.07695">
        <ele>177</ele>
        <time>2025-12-29T14:10:18.802Z</time>
      </trkpt>
      <trkpt lat="43.14279" lon="3.07697">
        <ele>176</ele>
        <time>2025-12-29T14:10:19.802Z</time>
      </trkpt>
      <trkpt lat="43.14278" lon="3.07698">
        <ele>176</ele>
        <time>2025-12-29T14:10:20.802Z</time>
      </trkpt>
      <trkpt lat="43.14277" lon="3.077">
        <ele>175</ele>
        <time>2025-12-29T14:10:21.802Z</time>
      </trkpt>
      <trkpt lat="43.14276" lon="3.07701">
        <ele>175</ele>
        <time>2025-12-29T14:10:22.802Z</time>
      </trkpt>
      <trkpt lat="43.14276" lon="3.07703">
        <ele>175</ele>
        <time>2025-12-29T14:10:23.802Z</time>
      </trkpt>
      <trkpt lat="43.14276" lon="3.07704">
        <ele>175</ele>
        <time>2025-12-29T14:10:24.802Z</time>
      </trkpt>
      <trkpt lat="43.14276" lon="3.07705">
        <ele>175</ele>
        <time>2025-12-29T14:10:25.802Z</time>
      </trkpt>
      <trkpt lat="43.14276" lon="3.07706">
        <ele>174</ele>
        <time>2025-12-29T14:10:26.802Z</time>
      </trkpt>
      <trkpt lat="43.14276" lon="3.07707">
        <ele>174</ele>
        <time>2025-12-29T14:10:27.802Z</time>
      </trkpt>
      <trkpt lat="43.14276" lon="3.07708">
        <ele>174</ele>
        <time>2025-12-29T14:10:28.802Z</time>
      </trkpt>
      <trkpt lat="43.14275" lon="3.07709">
        <ele>173</ele>
        <time>2025-12-29T14:10:29.802Z</time>
      </trkpt>
      <trkpt lat="43.14274" lon="3.0771">
        <ele>173</ele>
        <time>2025-12-29T14:10:30.803Z</time>
      </trkpt>
      <trkpt lat="43.14273" lon="3.0771">
        <ele>173</ele>
        <time>2025-12-29T14:10:31.802Z</time>
      </trkpt>
      <trkpt lat="43.14272" lon="3.0771">
        <ele>173</ele>
        <time>2025-12-29T14:10:32.802Z</time>
      </trkpt>
      <trkpt lat="43.14271" lon="3.07711">
        <ele>173</ele>
        <time>2025-12-29T14:10:33.802Z</time>
      </trkpt>
      <trkpt lat="43.1427" lon="3.07711">
        <ele>173</ele>
        <time>2025-12-29T14:10:34.802Z</time>
      </trkpt>
      <trkpt lat="43.14268" lon="3.07711">
        <ele>173</ele>
        <time>2025-12-29T14:10:35.802Z</time>
      </trkpt>
      <trkpt lat="43.14266" lon="3.07711">
        <ele>173</ele>
        <time>2025-12-29T14:10:36.802Z</time>
      </trkpt>
      <trkpt lat="43.14265" lon="3.07712">
        <ele>172</ele>
        <time>2025-12-29T14:10:37.802Z</time>
      </trkpt>
      <trkpt lat="43.14263" lon="3.07712">
        <ele>172</ele>
        <time>2025-12-29T14:10:38.802Z</time>
      </trkpt>
      <trkpt lat="43.14261" lon="3.07711">
        <ele>172</ele>
        <time>2025-12-29T14:10:39.802Z</time>
      </trkpt>
      <trkpt lat="43.1426" lon="3.07709">
        <ele>172</ele>
        <time>2025-12-29T14:10:40.802Z</time>
      </trkpt>
      <trkpt lat="43.14259" lon="3.07707">
        <ele>173</ele>
        <time>2025-12-29T14:10:41.802Z</time>
      </trkpt>
      <trkpt lat="43.14258" lon="3.07707">
        <ele>173</ele>
        <time>2025-12-29T14:10:42.802Z</time>
      </trkpt>
      <trkpt lat="43.14256" lon="3.07706">
        <ele>173</ele>
        <time>2025-12-29T14:10:43.802Z</time>
      </trkpt>
      <trkpt lat="43.14254" lon="3.07706">
        <ele>173</ele>
        <time>2025-12-29T14:10:44.802Z</time>
      </trkpt>
      <trkpt lat="43.14253" lon="3.07706">
        <ele>173</ele>
        <time>2025-12-29T14:10:45.802Z</time>
      </trkpt>
      <trkpt lat="43.14251" lon="3.07706">
        <ele>173</ele>
        <time>2025-12-29T14:10:46.802Z</time>
      </trkpt>
      <trkpt lat="43.1425" lon="3.07707">
        <ele>173</ele>
        <time>2025-12-29T14:10:47.802Z</time>
      </trkpt>
      <trkpt lat="43.14248" lon="3.07707">
        <ele>173</ele>
        <time>2025-12-29T14:10:48.802Z</time>
      </trkpt>
      <trkpt lat="43.14247" lon="3.07707">
        <ele>173</ele>
        <time>2025-12-29T14:10:49.802Z</time>
      </trkpt>
      <trkpt lat="43.14246" lon="3.07707">
        <ele>173</ele>
        <time>2025-12-29T14:10:50.802Z</time>
      </trkpt>
      <trkpt lat="43.14244" lon="3.07707">
        <ele>172</ele>
        <time>2025-12-29T14:10:51.802Z</time>
      </trkpt>
      <trkpt lat="43.14243" lon="3.07707">
        <ele>171</ele>
        <time>2025-12-29T14:10:52.802Z</time>
      </trkpt>
      <trkpt lat="43.14242" lon="3.07707">
        <ele>171</ele>
        <time>2025-12-29T14:10:53.802Z</time>
      </trkpt>
      <trkpt lat="43.1424" lon="3.07707">
        <ele>170</ele>
        <time>2025-12-29T14:10:54.802Z</time>
      </trkpt>
      <trkpt lat="43.14239" lon="3.07706">
        <ele>170</ele>
        <time>2025-12-29T14:10:55.802Z</time>
      </trkpt>
      <trkpt lat="43.14238" lon="3.07705">
        <ele>169</ele>
        <time>2025-12-29T14:10:56.802Z</time>
      </trkpt>
      <trkpt lat="43.14237" lon="3.07704">
        <ele>169</ele>
        <time>2025-12-29T14:10:57.802Z</time>
      </trkpt>
      <trkpt lat="43.14236" lon="3.07703">
        <ele>169</ele>
        <time>2025-12-29T14:10:58.802Z</time>
      </trkpt>
      <trkpt lat="43.14235" lon="3.07702">
        <ele>169</ele>
        <time>2025-12-29T14:10:59.802Z</time>
      </trkpt>
      <trkpt lat="43.14233" lon="3.07702">
        <ele>168</ele>
        <time>2025-12-29T14:11:00.802Z</time>
      </trkpt>
      <trkpt lat="43.14232" lon="3.07701">
        <ele>168</ele>
        <time>2025-12-29T14:11:01.802Z</time>
      </trkpt>
      <trkpt lat="43.14231" lon="3.077">
        <ele>168</ele>
        <time>2025-12-29T14:11:02.802Z</time>
      </trkpt>
      <trkpt lat="43.14229" lon="3.07699">
        <ele>169</ele>
        <time>2025-12-29T14:11:03.802Z</time>
      </trkpt>
      <trkpt lat="43.14228" lon="3.07698">
        <ele>169</ele>
        <time>2025-12-29T14:11:04.802Z</time>
      </trkpt>
      <trkpt lat="43.14227" lon="3.07697">
        <ele>169</ele>
        <time>2025-12-29T14:11:05.802Z</time>
      </trkpt>
      <trkpt lat="43.14226" lon="3.07695">
        <ele>169</ele>
        <time>2025-12-29T14:11:06.802Z</time>
      </trkpt>
      <trkpt lat="43.14225" lon="3.07694">
        <ele>169</ele>
        <time>2025-12-29T14:11:07.802Z</time>
      </trkpt>
      <trkpt lat="43.14223" lon="3.07693">
        <ele>169</ele>
        <time>2025-12-29T14:11:08.802Z</time>
      </trkpt>
      <trkpt lat="43.14222" lon="3.07692">
        <ele>169</ele>
        <time>2025-12-29T14:11:09.802Z</time>
      </trkpt>
      <trkpt lat="43.14221" lon="3.07691">
        <ele>170</ele>
        <time>2025-12-29T14:11:10.802Z</time>
      </trkpt>
      <trkpt lat="43.14219" lon="3.07691">
        <ele>170</ele>
        <time>2025-12-29T14:11:11.802Z</time>
      </trkpt>
      <trkpt lat="43.14218" lon="3.07691">
        <ele>171</ele>
        <time>2025-12-29T14:11:12.802Z</time>
      </trkpt>
      <trkpt lat="43.14216" lon="3.07691">
        <ele>171</ele>
        <time>2025-12-29T14:11:13.802Z</time>
      </trkpt>
      <trkpt lat="43.14215" lon="3.07691">
        <ele>171</ele>
        <time>2025-12-29T14:11:14.802Z</time>
      </trkpt>
      <trkpt lat="43.14214" lon="3.07691">
        <ele>171</ele>
        <time>2025-12-29T14:11:15.802Z</time>
      </trkpt>
      <trkpt lat="43.14212" lon="3.07691">
        <ele>171</ele>
        <time>2025-12-29T14:11:16.802Z</time>
      </trkpt>
      <trkpt lat="43.1421" lon="3.07692">
        <ele>170</ele>
        <time>2025-12-29T14:11:17.802Z</time>
      </trkpt>
      <trkpt lat="43.14208" lon="3.07693">
        <ele>170</ele>
        <time>2025-12-29T14:11:18.802Z</time>
      </trkpt>
      <trkpt lat="43.14207" lon="3.07694">
        <ele>170</ele>
        <time>2025-12-29T14:11:19.802Z</time>
      </trkpt>
      <trkpt lat="43.14206" lon="3.07694">
        <ele>170</ele>
        <time>2025-12-29T14:11:20.802Z</time>
      </trkpt>
      <trkpt lat="43.14204" lon="3.07694">
        <ele>170</ele>
        <time>2025-12-29T14:11:21.802Z</time>
      </trkpt>
      <trkpt lat="43.14203" lon="3.07695">
        <ele>170</ele>
        <time>2025-12-29T14:11:22.802Z</time>
      </trkpt>
      <trkpt lat="43.14201" lon="3.07695">
        <ele>170</ele>
        <time>2025-12-29T14:11:23.802Z</time>
      </trkpt>
      <trkpt lat="43.142" lon="3.07695">
        <ele>170</ele>
        <time>2025-12-29T14:11:24.802Z</time>
      </trkpt>
      <trkpt lat="43.14198" lon="3.07694">
        <ele>170</ele>
        <time>2025-12-29T14:11:25.802Z</time>
      </trkpt>
      <trkpt lat="43.14197" lon="3.07694">
        <ele>170</ele>
        <time>2025-12-29T14:11:26.802Z</time>
      </trkpt>
      <trkpt lat="43.14195" lon="3.07694">
        <ele>170</ele>
        <time>2025-12-29T14:11:27.802Z</time>
      </trkpt>
      <trkpt lat="43.14194" lon="3.07694">
        <ele>170</ele>
        <time>2025-12-29T14:11:28.802Z</time>
      </trkpt>
      <trkpt lat="43.14192" lon="3.07693">
        <ele>170</ele>
        <time>2025-12-29T14:11:29.802Z</time>
      </trkpt>
      <trkpt lat="43.14191" lon="3.07693">
        <ele>169</ele>
        <time>2025-12-29T14:11:30.802Z</time>
      </trkpt>
      <trkpt lat="43.1419" lon="3.07692">
        <ele>169</ele>
        <time>2025-12-29T14:11:31.802Z</time>
      </trkpt>
      <trkpt lat="43.14189" lon="3.07691">
        <ele>169</ele>
        <time>2025-12-29T14:11:32.802Z</time>
      </trkpt>
      <trkpt lat="43.14188" lon="3.07691">
        <ele>169</ele>
        <time>2025-12-29T14:11:33.802Z</time>
      </trkpt>
      <trkpt lat="43.14187" lon="3.07691">
        <ele>169</ele>
        <time>2025-12-29T14:11:34.802Z</time>
      </trkpt>
      <trkpt lat="43.14186" lon="3.0769">
        <ele>169</ele>
        <time>2025-12-29T14:11:35.802Z</time>
      </trkpt>
      <trkpt lat="43.14185" lon="3.07689">
        <ele>169</ele>
        <time>2025-12-29T14:11:36.802Z</time>
      </trkpt>
      <trkpt lat="43.14184" lon="3.07688">
        <ele>169</ele>
        <time>2025-12-29T14:11:37.802Z</time>
      </trkpt>
      <trkpt lat="43.14182" lon="3.07687">
        <ele>168</ele>
        <time>2025-12-29T14:11:38.802Z</time>
      </trkpt>
      <trkpt lat="43.14181" lon="3.07687">
        <ele>168</ele>
        <time>2025-12-29T14:11:39.802Z</time>
      </trkpt>
      <trkpt lat="43.14179" lon="3.07687">
        <ele>168</ele>
        <time>2025-12-29T14:11:40.802Z</time>
      </trkpt>
      <trkpt lat="43.14178" lon="3.07687">
        <ele>168</ele>
        <time>2025-12-29T14:11:41.802Z</time>
      </trkpt>
      <trkpt lat="43.14176" lon="3.07686">
        <ele>168</ele>
        <time>2025-12-29T14:11:42.802Z</time>
      </trkpt>
      <trkpt lat="43.14175" lon="3.07686">
        <ele>168</ele>
        <time>2025-12-29T14:11:43.802Z</time>
      </trkpt>
      <trkpt lat="43.14174" lon="3.07686">
        <ele>168</ele>
        <time>2025-12-29T14:11:44.802Z</time>
      </trkpt>
      <trkpt lat="43.14173" lon="3.07685">
        <ele>168</ele>
        <time>2025-12-29T14:11:45.802Z</time>
      </trkpt>
      <trkpt lat="43.14171" lon="3.07685">
        <ele>168</ele>
        <time>2025-12-29T14:11:46.802Z</time>
      </trkpt>
      <trkpt lat="43.14169" lon="3.07685">
        <ele>167</ele>
        <time>2025-12-29T14:11:47.802Z</time>
      </trkpt>
      <trkpt lat="43.14168" lon="3.07684">
        <ele>167</ele>
        <time>2025-12-29T14:11:48.802Z</time>
      </trkpt>
      <trkpt lat="43.14166" lon="3.07684">
        <ele>167</ele>
        <time>2025-12-29T14:11:49.802Z</time>
      </trkpt>
      <trkpt lat="43.14165" lon="3.07683">
        <ele>167</ele>
        <time>2025-12-29T14:11:50.802Z</time>
      </trkpt>
      <trkpt lat="43.14164" lon="3.07682">
        <ele>167</ele>
        <time>2025-12-29T14:11:51.802Z</time>
      </trkpt>
      <trkpt lat="43.14163" lon="3.07681">
        <ele>167</ele>
        <time>2025-12-29T14:11:52.802Z</time>
      </trkpt>
      <trkpt lat="43.14161" lon="3.0768">
        <ele>167</ele>
        <time>2025-12-29T14:11:53.802Z</time>
      </trkpt>
      <trkpt lat="43.1416" lon="3.07679">
        <ele>167</ele>
        <time>2025-12-29T14:11:54.802Z</time>
      </trkpt>
      <trkpt lat="43.14159" lon="3.07679">
        <ele>167</ele>
        <time>2025-12-29T14:11:55.802Z</time>
      </trkpt>
      <trkpt lat="43.14157" lon="3.07678">
        <ele>167</ele>
        <time>2025-12-29T14:11:56.802Z</time>
      </trkpt>
      <trkpt lat="43.14156" lon="3.07677">
        <ele>167</ele>
        <time>2025-12-29T14:11:57.802Z</time>
      </trkpt>
      <trkpt lat="43.14155" lon="3.07676">
        <ele>167</ele>
        <time>2025-12-29T14:11:58.802Z</time>
      </trkpt>
      <trkpt lat="43.14154" lon="3.07676">
        <ele>166</ele>
        <time>2025-12-29T14:11:59.802Z</time>
      </trkpt>
      <trkpt lat="43.14152" lon="3.07675">
        <ele>166</ele>
        <time>2025-12-29T14:12:00.802Z</time>
      </trkpt>
      <trkpt lat="43.14151" lon="3.07675">
        <ele>166</ele>
        <time>2025-12-29T14:12:01.802Z</time>
      </trkpt>
      <trkpt lat="43.14151" lon="3.07674">
        <ele>166</ele>
        <time>2025-12-29T14:12:02.802Z</time>
      </trkpt>
      <trkpt lat="43.1415" lon="3.07672">
        <ele>166</ele>
        <time>2025-12-29T14:12:03.802Z</time>
      </trkpt>
      <trkpt lat="43.14149" lon="3.07671">
        <ele>166</ele>
        <time>2025-12-29T14:12:04.802Z</time>
      </trkpt>
      <trkpt lat="43.14148" lon="3.0767">
        <ele>166</ele>
        <time>2025-12-29T14:12:05.802Z</time>
      </trkpt>
      <trkpt lat="43.14147" lon="3.0767">
        <ele>166</ele>
        <time>2025-12-29T14:12:06.802Z</time>
      </trkpt>
      <trkpt lat="43.14146" lon="3.07669">
        <ele>165</ele>
        <time>2025-12-29T14:12:07.802Z</time>
      </trkpt>
      <trkpt lat="43.14144" lon="3.07669">
        <ele>165</ele>
        <time>2025-12-29T14:12:08.802Z</time>
      </trkpt>
      <trkpt lat="43.14143" lon="3.07669">
        <ele>165</ele>
        <time>2025-12-29T14:12:09.802Z</time>
      </trkpt>
      <trkpt lat="43.14141" lon="3.07669">
        <ele>165</ele>
        <time>2025-12-29T14:12:10.802Z</time>
      </trkpt>
      <trkpt lat="43.1414" lon="3.07668">
        <ele>166</ele>
        <time>2025-12-29T14:12:11.802Z</time>
      </trkpt>
      <trkpt lat="43.14138" lon="3.07668">
        <ele>166</ele>
        <time>2025-12-29T14:12:12.802Z</time>
      </trkpt>
      <trkpt lat="43.14137" lon="3.07667">
        <ele>166</ele>
        <time>2025-12-29T14:12:13.802Z</time>
      </trkpt>
      <trkpt lat="43.14136" lon="3.07666">
        <ele>166</ele>
        <time>2025-12-29T14:12:14.802Z</time>
      </trkpt>
      <trkpt lat="43.14134" lon="3.07666">
        <ele>166</ele>
        <time>2025-12-29T14:12:15.802Z</time>
      </trkpt>
      <trkpt lat="43.14133" lon="3.07666">
        <ele>166</ele>
        <time>2025-12-29T14:12:16.802Z</time>
      </trkpt>
      <trkpt lat="43.14132" lon="3.07665">
        <ele>165</ele>
        <time>2025-12-29T14:12:17.802Z</time>
      </trkpt>
      <trkpt lat="43.1413" lon="3.07665">
        <ele>165</ele>
        <time>2025-12-29T14:12:18.802Z</time>
      </trkpt>
      <trkpt lat="43.14129" lon="3.07664">
        <ele>165</ele>
        <time>2025-12-29T14:12:19.802Z</time>
      </trkpt>
      <trkpt lat="43.14128" lon="3.07664">
        <ele>164</ele>
        <time>2025-12-29T14:12:20.802Z</time>
      </trkpt>
      <trkpt lat="43.14127" lon="3.07664">
        <ele>164</ele>
        <time>2025-12-29T14:12:21.802Z</time>
      </trkpt>
      <trkpt lat="43.14125" lon="3.07664">
        <ele>164</ele>
        <time>2025-12-29T14:12:22.802Z</time>
      </trkpt>
      <trkpt lat="43.14124" lon="3.07664">
        <ele>164</ele>
        <time>2025-12-29T14:12:23.802Z</time>
      </trkpt>
      <trkpt lat="43.14122" lon="3.07663">
        <ele>164</ele>
        <time>2025-12-29T14:12:24.802Z</time>
      </trkpt>
      <trkpt lat="43.14121" lon="3.07663">
        <ele>164</ele>
        <time>2025-12-29T14:12:25.802Z</time>
      </trkpt>
      <trkpt lat="43.1412" lon="3.07662">
        <ele>165</ele>
        <time>2025-12-29T14:12:26.802Z</time>
      </trkpt>
      <trkpt lat="43.14118" lon="3.07662">
        <ele>165</ele>
        <time>2025-12-29T14:12:27.802Z</time>
      </trkpt>
      <trkpt lat="43.14117" lon="3.07662">
        <ele>165</ele>
        <time>2025-12-29T14:12:28.802Z</time>
      </trkpt>
      <trkpt lat="43.14116" lon="3.07662">
        <ele>165</ele>
        <time>2025-12-29T14:12:29.802Z</time>
      </trkpt>
      <trkpt lat="43.14115" lon="3.07662">
        <ele>165</ele>
        <time>2025-12-29T14:12:30.802Z</time>
      </trkpt>
      <trkpt lat="43.14114" lon="3.07662">
        <ele>165</ele>
        <time>2025-12-29T14:12:31.802Z</time>
      </trkpt>
      <trkpt lat="43.14113" lon="3.07662">
        <ele>165</ele>
        <time>2025-12-29T14:12:32.802Z</time>
      </trkpt>
      <trkpt lat="43.14112" lon="3.07661">
        <ele>165</ele>
        <time>2025-12-29T14:12:33.802Z</time>
      </trkpt>
      <trkpt lat="43.14111" lon="3.07661">
        <ele>165</ele>
        <time>2025-12-29T14:12:34.802Z</time>
      </trkpt>
      <trkpt lat="43.14109" lon="3.0766">
        <ele>165</ele>
        <time>2025-12-29T14:12:35.802Z</time>
      </trkpt>
      <trkpt lat="43.14108" lon="3.0766">
        <ele>165</ele>
        <time>2025-12-29T14:12:36.802Z</time>
      </trkpt>
      <trkpt lat="43.14107" lon="3.0766">
        <ele>165</ele>
        <time>2025-12-29T14:12:37.802Z</time>
      </trkpt>
      <trkpt lat="43.14105" lon="3.0766">
        <ele>165</ele>
        <time>2025-12-29T14:12:38.802Z</time>
      </trkpt>
      <trkpt lat="43.14104" lon="3.0766">
        <ele>165</ele>
        <time>2025-12-29T14:12:39.802Z</time>
      </trkpt>
      <trkpt lat="43.14103" lon="3.07661">
        <ele>165</ele>
        <time>2025-12-29T14:12:40.802Z</time>
      </trkpt>
      <trkpt lat="43.14102" lon="3.07661">
        <ele>164</ele>
        <time>2025-12-29T14:12:41.802Z</time>
      </trkpt>
      <trkpt lat="43.141" lon="3.07661">
        <ele>164</ele>
        <time>2025-12-29T14:12:42.802Z</time>
      </trkpt>
      <trkpt lat="43.14099" lon="3.07661">
        <ele>164</ele>
        <time>2025-12-29T14:12:43.802Z</time>
      </trkpt>
      <trkpt lat="43.14098" lon="3.07661">
        <ele>164</ele>
        <time>2025-12-29T14:12:44.802Z</time>
      </trkpt>
      <trkpt lat="43.14096" lon="3.07661">
        <ele>164</ele>
        <time>2025-12-29T14:12:45.802Z</time>
      </trkpt>
      <trkpt lat="43.14095" lon="3.07661">
        <ele>163</ele>
        <time>2025-12-29T14:12:46.802Z</time>
      </trkpt>
      <trkpt lat="43.14094" lon="3.07661">
        <ele>163</ele>
        <time>2025-12-29T14:12:47.802Z</time>
      </trkpt>
      <trkpt lat="43.14093" lon="3.07661">
        <ele>163</ele>
        <time>2025-12-29T14:12:48.802Z</time>
      </trkpt>
      <trkpt lat="43.14091" lon="3.07661">
        <ele>163</ele>
        <time>2025-12-29T14:12:49.802Z</time>
      </trkpt>
      <trkpt lat="43.1409" lon="3.07661">
        <ele>163</ele>
        <time>2025-12-29T14:12:50.802Z</time>
      </trkpt>
      <trkpt lat="43.14089" lon="3.07661">
        <ele>163</ele>
        <time>2025-12-29T14:12:51.802Z</time>
      </trkpt>
      <trkpt lat="43.14089" lon="3.07661">
        <ele>163</ele>
        <time>2025-12-29T14:12:52.802Z</time>
      </trkpt>
      <trkpt lat="43.14088" lon="3.0766">
        <ele>163</ele>
        <time>2025-12-29T14:12:53.802Z</time>
      </trkpt>
      <trkpt lat="43.14088" lon="3.0766">
        <ele>163</ele>
        <time>2025-12-29T14:12:54.802Z</time>
      </trkpt>
      <trkpt lat="43.14087" lon="3.0766">
        <ele>162</ele>
        <time>2025-12-29T14:12:55.802Z</time>
      </trkpt>
      <trkpt lat="43.14085" lon="3.07659">
        <ele>162</ele>
        <time>2025-12-29T14:12:56.802Z</time>
      </trkpt>
      <trkpt lat="43.14084" lon="3.07659">
        <ele>162</ele>
        <time>2025-12-29T14:12:57.802Z</time>
      </trkpt>
      <trkpt lat="43.14083" lon="3.07658">
        <ele>162</ele>
        <time>2025-12-29T14:12:58.802Z</time>
      </trkpt>
      <trkpt lat="43.14082" lon="3.07657">
        <ele>161</ele>
        <time>2025-12-29T14:12:59.802Z</time>
      </trkpt>
      <trkpt lat="43.14081" lon="3.07656">
        <ele>161</ele>
        <time>2025-12-29T14:13:00.802Z</time>
      </trkpt>
      <trkpt lat="43.1408" lon="3.07656">
        <ele>161</ele>
        <time>2025-12-29T14:13:01.802Z</time>
      </trkpt>
      <trkpt lat="43.14079" lon="3.07655">
        <ele>161</ele>
        <time>2025-12-29T14:13:02.802Z</time>
      </trkpt>
      <trkpt lat="43.14078" lon="3.07654">
        <ele>161</ele>
        <time>2025-12-29T14:13:03.802Z</time>
      </trkpt>
      <trkpt lat="43.14077" lon="3.07653">
        <ele>162</ele>
        <time>2025-12-29T14:13:04.802Z</time>
      </trkpt>
      <trkpt lat="43.14076" lon="3.07652">
        <ele>161</ele>
        <time>2025-12-29T14:13:05.802Z</time>
      </trkpt>
      <trkpt lat="43.14075" lon="3.07652">
        <ele>161</ele>
        <time>2025-12-29T14:13:06.802Z</time>
      </trkpt>
      <trkpt lat="43.14074" lon="3.07652">
        <ele>161</ele>
        <time>2025-12-29T14:13:07.802Z</time>
      </trkpt>
      <trkpt lat="43.14073" lon="3.07652">
        <ele>161</ele>
        <time>2025-12-29T14:13:08.802Z</time>
      </trkpt>
      <trkpt lat="43.14072" lon="3.07652">
        <ele>161</ele>
        <time>2025-12-29T14:13:09.802Z</time>
      </trkpt>
      <trkpt lat="43.14071" lon="3.07652">
        <ele>161</ele>
        <time>2025-12-29T14:13:10.802Z</time>
      </trkpt>
      <trkpt lat="43.14069" lon="3.07652">
        <ele>160</ele>
        <time>2025-12-29T14:13:11.802Z</time>
      </trkpt>
      <trkpt lat="43.14068" lon="3.07653">
        <ele>160</ele>
        <time>2025-12-29T14:13:12.802Z</time>
      </trkpt>
      <trkpt lat="43.14067" lon="3.07653">
        <ele>160</ele>
        <time>2025-12-29T14:13:13.802Z</time>
      </trkpt>
      <trkpt lat="43.14066" lon="3.07654">
        <ele>160</ele>
        <time>2025-12-29T14:13:14.802Z</time>
      </trkpt>
      <trkpt lat="43.14065" lon="3.07654">
        <ele>160</ele>
        <time>2025-12-29T14:13:15.802Z</time>
      </trkpt>
      <trkpt lat="43.14064" lon="3.07655">
        <ele>159</ele>
        <time>2025-12-29T14:13:16.802Z</time>
      </trkpt>
      <trkpt lat="43.14063" lon="3.07655">
        <ele>159</ele>
        <time>2025-12-29T14:13:17.802Z</time>
      </trkpt>
      <trkpt lat="43.14061" lon="3.07655">
        <ele>159</ele>
        <time>2025-12-29T14:13:18.802Z</time>
      </trkpt>
      <trkpt lat="43.1406" lon="3.07655">
        <ele>159</ele>
        <time>2025-12-29T14:13:19.802Z</time>
      </trkpt>
      <trkpt lat="43.14058" lon="3.07655">
        <ele>159</ele>
        <time>2025-12-29T14:13:20.802Z</time>
      </trkpt>
      <trkpt lat="43.14057" lon="3.07655">
        <ele>159</ele>
        <time>2025-12-29T14:13:21.802Z</time>
      </trkpt>
      <trkpt lat="43.14055" lon="3.07654">
        <ele>160</ele>
        <time>2025-12-29T14:13:22.802Z</time>
      </trkpt>
      <trkpt lat="43.14054" lon="3.07654">
        <ele>160</ele>
        <time>2025-12-29T14:13:23.802Z</time>
      </trkpt>
      <trkpt lat="43.14052" lon="3.07654">
        <ele>160</ele>
        <time>2025-12-29T14:13:24.802Z</time>
      </trkpt>
      <trkpt lat="43.14051" lon="3.07654">
        <ele>161</ele>
        <time>2025-12-29T14:13:25.802Z</time>
      </trkpt>
      <trkpt lat="43.14049" lon="3.07654">
        <ele>161</ele>
        <time>2025-12-29T14:13:26.802Z</time>
      </trkpt>
      <trkpt lat="43.14048" lon="3.07655">
        <ele>161</ele>
        <time>2025-12-29T14:13:27.802Z</time>
      </trkpt>
      <trkpt lat="43.14047" lon="3.07656">
        <ele>161</ele>
        <time>2025-12-29T14:13:28.802Z</time>
      </trkpt>
      <trkpt lat="43.14045" lon="3.07657">
        <ele>160</ele>
        <time>2025-12-29T14:13:29.802Z</time>
      </trkpt>
      <trkpt lat="43.14044" lon="3.07658">
        <ele>160</ele>
        <time>2025-12-29T14:13:30.802Z</time>
      </trkpt>
      <trkpt lat="43.14043" lon="3.07658">
        <ele>160</ele>
        <time>2025-12-29T14:13:31.802Z</time>
      </trkpt>
      <trkpt lat="43.14042" lon="3.07659">
        <ele>160</ele>
        <time>2025-12-29T14:13:32.802Z</time>
      </trkpt>
      <trkpt lat="43.1404" lon="3.0766">
        <ele>160</ele>
        <time>2025-12-29T14:13:33.802Z</time>
      </trkpt>
      <trkpt lat="43.14039" lon="3.07661">
        <ele>159</ele>
        <time>2025-12-29T14:13:34.802Z</time>
      </trkpt>
      <trkpt lat="43.14038" lon="3.07662">
        <ele>159</ele>
        <time>2025-12-29T14:13:35.802Z</time>
      </trkpt>
      <trkpt lat="43.14037" lon="3.07663">
        <ele>159</ele>
        <time>2025-12-29T14:13:36.802Z</time>
      </trkpt>
      <trkpt lat="43.14035" lon="3.07664">
        <ele>159</ele>
        <time>2025-12-29T14:13:37.802Z</time>
      </trkpt>
      <trkpt lat="43.14033" lon="3.07665">
        <ele>160</ele>
        <time>2025-12-29T14:13:38.802Z</time>
      </trkpt>
      <trkpt lat="43.14031" lon="3.07665">
        <ele>160</ele>
        <time>2025-12-29T14:13:39.802Z</time>
      </trkpt>
      <trkpt lat="43.1403" lon="3.07666">
        <ele>160</ele>
        <time>2025-12-29T14:13:40.802Z</time>
      </trkpt>
      <trkpt lat="43.14028" lon="3.07667">
        <ele>160</ele>
        <time>2025-12-29T14:13:41.802Z</time>
      </trkpt>
      <trkpt lat="43.14026" lon="3.07668">
        <ele>160</ele>
        <time>2025-12-29T14:13:42.802Z</time>
      </trkpt>
      <trkpt lat="43.14024" lon="3.07668">
        <ele>160</ele>
        <time>2025-12-29T14:13:43.802Z</time>
      </trkpt>
      <trkpt lat="43.14023" lon="3.07669">
        <ele>160</ele>
        <time>2025-12-29T14:13:44.802Z</time>
      </trkpt>
      <trkpt lat="43.14022" lon="3.0767">
        <ele>159</ele>
        <time>2025-12-29T14:13:45.802Z</time>
      </trkpt>
      <trkpt lat="43.1402" lon="3.07671">
        <ele>159</ele>
        <time>2025-12-29T14:13:46.802Z</time>
      </trkpt>
      <trkpt lat="43.14019" lon="3.07672">
        <ele>159</ele>
        <time>2025-12-29T14:13:47.802Z</time>
      </trkpt>
      <trkpt lat="43.14018" lon="3.07673">
        <ele>159</ele>
        <time>2025-12-29T14:13:48.802Z</time>
      </trkpt>
      <trkpt lat="43.14017" lon="3.07675">
        <ele>158</ele>
        <time>2025-12-29T14:13:49.802Z</time>
      </trkpt>
      <trkpt lat="43.14016" lon="3.07676">
        <ele>158</ele>
        <time>2025-12-29T14:13:50.802Z</time>
      </trkpt>
      <trkpt lat="43.14015" lon="3.07676">
        <ele>158</ele>
        <time>2025-12-29T14:13:51.802Z</time>
      </trkpt>
      <trkpt lat="43.14013" lon="3.07677">
        <ele>158</ele>
        <time>2025-12-29T14:13:52.802Z</time>
      </trkpt>
      <trkpt lat="43.14011" lon="3.07678">
        <ele>158</ele>
        <time>2025-12-29T14:13:53.802Z</time>
      </trkpt>
      <trkpt lat="43.14009" lon="3.0768">
        <ele>158</ele>
        <time>2025-12-29T14:13:54.802Z</time>
      </trkpt>
      <trkpt lat="43.14007" lon="3.07681">
        <ele>158</ele>
        <time>2025-12-29T14:13:55.802Z</time>
      </trkpt>
      <trkpt lat="43.14006" lon="3.07682">
        <ele>157</ele>
        <time>2025-12-29T14:13:56.802Z</time>
      </trkpt>
      <trkpt lat="43.14005" lon="3.07683">
        <ele>157</ele>
        <time>2025-12-29T14:13:57.802Z</time>
      </trkpt>
      <trkpt lat="43.14003" lon="3.07684">
        <ele>157</ele>
        <time>2025-12-29T14:13:58.802Z</time>
      </trkpt>
      <trkpt lat="43.14002" lon="3.07685">
        <ele>157</ele>
        <time>2025-12-29T14:13:59.802Z</time>
      </trkpt>
      <trkpt lat="43.14" lon="3.07686">
        <ele>157</ele>
        <time>2025-12-29T14:14:00.802Z</time>
      </trkpt>
      <trkpt lat="43.13999" lon="3.07687">
        <ele>157</ele>
        <time>2025-12-29T14:14:01.802Z</time>
      </trkpt>
      <trkpt lat="43.13998" lon="3.07688">
        <ele>156</ele>
        <time>2025-12-29T14:14:02.802Z</time>
      </trkpt>
      <trkpt lat="43.13997" lon="3.07689">
        <ele>156</ele>
        <time>2025-12-29T14:14:03.802Z</time>
      </trkpt>
      <trkpt lat="43.13997" lon="3.07689">
        <ele>156</ele>
        <time>2025-12-29T14:14:04.802Z</time>
      </trkpt>
      <trkpt lat="43.13996" lon="3.07689">
        <ele>155</ele>
        <time>2025-12-29T14:14:05.802Z</time>
      </trkpt>
      <trkpt lat="43.13995" lon="3.07689">
        <ele>155</ele>
        <time>2025-12-29T14:14:06.802Z</time>
      </trkpt>
      <trkpt lat="43.13993" lon="3.0769">
        <ele>155</ele>
        <time>2025-12-29T14:14:07.802Z</time>
      </trkpt>
      <trkpt lat="43.13992" lon="3.0769">
        <ele>155</ele>
        <time>2025-12-29T14:14:08.802Z</time>
      </trkpt>
      <trkpt lat="43.1399" lon="3.07691">
        <ele>155</ele>
        <time>2025-12-29T14:14:09.802Z</time>
      </trkpt>
      <trkpt lat="43.13989" lon="3.07691">
        <ele>155</ele>
        <time>2025-12-29T14:14:10.802Z</time>
      </trkpt>
      <trkpt lat="43.13987" lon="3.07692">
        <ele>155</ele>
        <time>2025-12-29T14:14:11.802Z</time>
      </trkpt>
      <trkpt lat="43.13986" lon="3.07692">
        <ele>155</ele>
        <time>2025-12-29T14:14:12.802Z</time>
      </trkpt>
      <trkpt lat="43.13984" lon="3.07692">
        <ele>155</ele>
        <time>2025-12-29T14:14:13.802Z</time>
      </trkpt>
      <trkpt lat="43.13982" lon="3.07693">
        <ele>155</ele>
        <time>2025-12-29T14:14:14.802Z</time>
      </trkpt>
      <trkpt lat="43.13981" lon="3.07694">
        <ele>155</ele>
        <time>2025-12-29T14:14:15.802Z</time>
      </trkpt>
      <trkpt lat="43.13979" lon="3.07694">
        <ele>155</ele>
        <time>2025-12-29T14:14:16.802Z</time>
      </trkpt>
      <trkpt lat="43.13978" lon="3.07695">
        <ele>155</ele>
        <time>2025-12-29T14:14:17.802Z</time>
      </trkpt>
      <trkpt lat="43.13976" lon="3.07695">
        <ele>155</ele>
        <time>2025-12-29T14:14:18.802Z</time>
      </trkpt>
      <trkpt lat="43.13975" lon="3.07696">
        <ele>156</ele>
        <time>2025-12-29T14:14:19.802Z</time>
      </trkpt>
      <trkpt lat="43.13974" lon="3.07697">
        <ele>156</ele>
        <time>2025-12-29T14:14:20.802Z</time>
      </trkpt>
      <trkpt lat="43.13973" lon="3.07697">
        <ele>156</ele>
        <time>2025-12-29T14:14:21.802Z</time>
      </trkpt>
      <trkpt lat="43.13971" lon="3.07698">
        <ele>156</ele>
        <time>2025-12-29T14:14:22.802Z</time>
      </trkpt>
      <trkpt lat="43.13969" lon="3.07698">
        <ele>156</ele>
        <time>2025-12-29T14:14:23.802Z</time>
      </trkpt>
      <trkpt lat="43.13968" lon="3.07698">
        <ele>156</ele>
        <time>2025-12-29T14:14:24.802Z</time>
      </trkpt>
      <trkpt lat="43.13967" lon="3.07699">
        <ele>155</ele>
        <time>2025-12-29T14:14:25.802Z</time>
      </trkpt>
      <trkpt lat="43.13965" lon="3.07699">
        <ele>155</ele>
        <time>2025-12-29T14:14:26.802Z</time>
      </trkpt>
      <trkpt lat="43.13963" lon="3.077">
        <ele>155</ele>
        <time>2025-12-29T14:14:27.802Z</time>
      </trkpt>
      <trkpt lat="43.13962" lon="3.07701">
        <ele>155</ele>
        <time>2025-12-29T14:14:28.802Z</time>
      </trkpt>
      <trkpt lat="43.1396" lon="3.07701">
        <ele>154</ele>
        <time>2025-12-29T14:14:29.802Z</time>
      </trkpt>
      <trkpt lat="43.13959" lon="3.07701">
        <ele>154</ele>
        <time>2025-12-29T14:14:30.802Z</time>
      </trkpt>
      <trkpt lat="43.13957" lon="3.07701">
        <ele>154</ele>
        <time>2025-12-29T14:14:31.802Z</time>
      </trkpt>
      <trkpt lat="43.13955" lon="3.07701">
        <ele>153</ele>
        <time>2025-12-29T14:14:32.802Z</time>
      </trkpt>
      <trkpt lat="43.13954" lon="3.07701">
        <ele>153</ele>
        <time>2025-12-29T14:14:33.802Z</time>
      </trkpt>
      <trkpt lat="43.13952" lon="3.07701">
        <ele>153</ele>
        <time>2025-12-29T14:14:34.802Z</time>
      </trkpt>
      <trkpt lat="43.13951" lon="3.07701">
        <ele>153</ele>
        <time>2025-12-29T14:14:35.802Z</time>
      </trkpt>
      <trkpt lat="43.13949" lon="3.07702">
        <ele>153</ele>
        <time>2025-12-29T14:14:36.802Z</time>
      </trkpt>
      <trkpt lat="43.13948" lon="3.07703">
        <ele>153</ele>
        <time>2025-12-29T14:14:37.802Z</time>
      </trkpt>
      <trkpt lat="43.13946" lon="3.07704">
        <ele>153</ele>
        <time>2025-12-29T14:14:38.802Z</time>
      </trkpt>
      <trkpt lat="43.13945" lon="3.07705">
        <ele>153</ele>
        <time>2025-12-29T14:14:39.802Z</time>
      </trkpt>
      <trkpt lat="43.13944" lon="3.07705">
        <ele>153</ele>
        <time>2025-12-29T14:14:40.802Z</time>
      </trkpt>
      <trkpt lat="43.13942" lon="3.07706">
        <ele>153</ele>
        <time>2025-12-29T14:14:41.802Z</time>
      </trkpt>
      <trkpt lat="43.13941" lon="3.07706">
        <ele>153</ele>
        <time>2025-12-29T14:14:42.802Z</time>
      </trkpt>
      <trkpt lat="43.13939" lon="3.07706">
        <ele>153</ele>
        <time>2025-12-29T14:14:43.802Z</time>
      </trkpt>
      <trkpt lat="43.13938" lon="3.07706">
        <ele>153</ele>
        <time>2025-12-29T14:14:44.802Z</time>
      </trkpt>
      <trkpt lat="43.13936" lon="3.07706">
        <ele>153</ele>
        <time>2025-12-29T14:14:45.802Z</time>
      </trkpt>
      <trkpt lat="43.13934" lon="3.07706">
        <ele>153</ele>
        <time>2025-12-29T14:14:46.802Z</time>
      </trkpt>
      <trkpt lat="43.13933" lon="3.07705">
        <ele>153</ele>
        <time>2025-12-29T14:14:47.802Z</time>
      </trkpt>
      <trkpt lat="43.13931" lon="3.07705">
        <ele>152</ele>
        <time>2025-12-29T14:14:48.802Z</time>
      </trkpt>
      <trkpt lat="43.13929" lon="3.07706">
        <ele>152</ele>
        <time>2025-12-29T14:14:49.802Z</time>
      </trkpt>
      <trkpt lat="43.13928" lon="3.07706">
        <ele>152</ele>
        <time>2025-12-29T14:14:50.803Z</time>
      </trkpt>
      <trkpt lat="43.13926" lon="3.07707">
        <ele>152</ele>
        <time>2025-12-29T14:14:51.802Z</time>
      </trkpt>
      <trkpt lat="43.13924" lon="3.07707">
        <ele>152</ele>
        <time>2025-12-29T14:14:52.802Z</time>
      </trkpt>
      <trkpt lat="43.13923" lon="3.07708">
        <ele>151</ele>
        <time>2025-12-29T14:14:53.802Z</time>
      </trkpt>
      <trkpt lat="43.13921" lon="3.07709">
        <ele>151</ele>
        <time>2025-12-29T14:14:54.802Z</time>
      </trkpt>
      <trkpt lat="43.1392" lon="3.0771">
        <ele>151</ele>
        <time>2025-12-29T14:14:55.802Z</time>
      </trkpt>
      <trkpt lat="43.13918" lon="3.0771">
        <ele>151</ele>
        <time>2025-12-29T14:14:56.802Z</time>
      </trkpt>
      <trkpt lat="43.13917" lon="3.07711">
        <ele>150</ele>
        <time>2025-12-29T14:14:57.802Z</time>
      </trkpt>
      <trkpt lat="43.13915" lon="3.07712">
        <ele>150</ele>
        <time>2025-12-29T14:14:58.802Z</time>
      </trkpt>
      <trkpt lat="43.13914" lon="3.07712">
        <ele>150</ele>
        <time>2025-12-29T14:14:59.802Z</time>
      </trkpt>
      <trkpt lat="43.13912" lon="3.07713">
        <ele>151</ele>
        <time>2025-12-29T14:15:00.802Z</time>
      </trkpt>
      <trkpt lat="43.1391" lon="3.07714">
        <ele>151</ele>
        <time>2025-12-29T14:15:01.802Z</time>
      </trkpt>
      <trkpt lat="43.13908" lon="3.07715">
        <ele>151</ele>
        <time>2025-12-29T14:15:02.802Z</time>
      </trkpt>
      <trkpt lat="43.13906" lon="3.07716">
        <ele>151</ele>
        <time>2025-12-29T14:15:03.802Z</time>
      </trkpt>
      <trkpt lat="43.13905" lon="3.07717">
        <ele>152</ele>
        <time>2025-12-29T14:15:04.802Z</time>
      </trkpt>
      <trkpt lat="43.13903" lon="3.07718">
        <ele>151</ele>
        <time>2025-12-29T14:15:05.802Z</time>
      </trkpt>
      <trkpt lat="43.13902" lon="3.0772">
        <ele>151</ele>
        <time>2025-12-29T14:15:06.802Z</time>
      </trkpt>
      <trkpt lat="43.139" lon="3.07721">
        <ele>151</ele>
        <time>2025-12-29T14:15:07.802Z</time>
      </trkpt>
      <trkpt lat="43.13899" lon="3.07722">
        <ele>151</ele>
        <time>2025-12-29T14:15:08.802Z</time>
      </trkpt>
      <trkpt lat="43.13897" lon="3.07723">
        <ele>150</ele>
        <time>2025-12-29T14:15:09.802Z</time>
      </trkpt>
      <trkpt lat="43.13896" lon="3.07724">
        <ele>149</ele>
        <time>2025-12-29T14:15:10.802Z</time>
      </trkpt>
      <trkpt lat="43.13894" lon="3.07725">
        <ele>149</ele>
        <time>2025-12-29T14:15:11.802Z</time>
      </trkpt>
      <trkpt lat="43.13893" lon="3.07726">
        <ele>149</ele>
        <time>2025-12-29T14:15:12.802Z</time>
      </trkpt>
      <trkpt lat="43.13892" lon="3.07727">
        <ele>149</ele>
        <time>2025-12-29T14:15:13.802Z</time>
      </trkpt>
      <trkpt lat="43.1389" lon="3.07728">
        <ele>149</ele>
        <time>2025-12-29T14:15:14.802Z</time>
      </trkpt>
      <trkpt lat="43.13889" lon="3.07729">
        <ele>149</ele>
        <time>2025-12-29T14:15:15.802Z</time>
      </trkpt>
      <trkpt lat="43.13888" lon="3.0773">
        <ele>149</ele>
        <time>2025-12-29T14:15:16.802Z</time>
      </trkpt>
      <trkpt lat="43.13887" lon="3.07731">
        <ele>150</ele>
        <time>2025-12-29T14:15:17.802Z</time>
      </trkpt>
      <trkpt lat="43.13886" lon="3.07732">
        <ele>150</ele>
        <time>2025-12-29T14:15:18.802Z</time>
      </trkpt>
      <trkpt lat="43.13884" lon="3.07733">
        <ele>150</ele>
        <time>2025-12-29T14:15:19.802Z</time>
      </trkpt>
      <trkpt lat="43.13883" lon="3.07734">
        <ele>150</ele>
        <time>2025-12-29T14:15:20.802Z</time>
      </trkpt>
      <trkpt lat="43.13882" lon="3.07735">
        <ele>150</ele>
        <time>2025-12-29T14:15:21.802Z</time>
      </trkpt>
      <trkpt lat="43.1388" lon="3.07737">
        <ele>150</ele>
        <time>2025-12-29T14:15:22.802Z</time>
      </trkpt>
      <trkpt lat="43.13879" lon="3.07738">
        <ele>150</ele>
        <time>2025-12-29T14:15:23.802Z</time>
      </trkpt>
      <trkpt lat="43.13878" lon="3.07739">
        <ele>150</ele>
        <time>2025-12-29T14:15:24.802Z</time>
      </trkpt>
      <trkpt lat="43.13876" lon="3.0774">
        <ele>150</ele>
        <time>2025-12-29T14:15:25.802Z</time>
      </trkpt>
      <trkpt lat="43.13875" lon="3.0774">
        <ele>151</ele>
        <time>2025-12-29T14:15:26.802Z</time>
      </trkpt>
      <trkpt lat="43.13874" lon="3.07741">
        <ele>151</ele>
        <time>2025-12-29T14:15:27.802Z</time>
      </trkpt>
      <trkpt lat="43.13873" lon="3.07742">
        <ele>151</ele>
        <time>2025-12-29T14:15:28.802Z</time>
      </trkpt>
      <trkpt lat="43.13871" lon="3.07743">
        <ele>151</ele>
        <time>2025-12-29T14:15:29.802Z</time>
      </trkpt>
      <trkpt lat="43.1387" lon="3.07745">
        <ele>152</ele>
        <time>2025-12-29T14:15:30.802Z</time>
      </trkpt>
      <trkpt lat="43.13868" lon="3.07746">
        <ele>152</ele>
        <time>2025-12-29T14:15:31.802Z</time>
      </trkpt>
      <trkpt lat="43.13867" lon="3.07747">
        <ele>153</ele>
        <time>2025-12-29T14:15:32.802Z</time>
      </trkpt>
      <trkpt lat="43.13866" lon="3.07748">
        <ele>153</ele>
        <time>2025-12-29T14:15:33.802Z</time>
      </trkpt>
      <trkpt lat="43.13865" lon="3.0775">
        <ele>154</ele>
        <time>2025-12-29T14:15:34.802Z</time>
      </trkpt>
      <trkpt lat="43.13864" lon="3.07751">
        <ele>155</ele>
        <time>2025-12-29T14:15:35.802Z</time>
      </trkpt>
      <trkpt lat="43.13864" lon="3.07752">
        <ele>155</ele>
        <time>2025-12-29T14:15:36.802Z</time>
      </trkpt>
      <trkpt lat="43.13863" lon="3.07753">
        <ele>156</ele>
        <time>2025-12-29T14:15:37.802Z</time>
      </trkpt>
      <trkpt lat="43.13862" lon="3.07754">
        <ele>156</ele>
        <time>2025-12-29T14:15:38.802Z</time>
      </trkpt>
      <trkpt lat="43.13861" lon="3.07755">
        <ele>156</ele>
        <time>2025-12-29T14:15:39.802Z</time>
      </trkpt>
      <trkpt lat="43.1386" lon="3.07757">
        <ele>156</ele>
        <time>2025-12-29T14:15:40.802Z</time>
      </trkpt>
      <trkpt lat="43.13858" lon="3.07758">
        <ele>156</ele>
        <time>2025-12-29T14:15:41.802Z</time>
      </trkpt>
      <trkpt lat="43.13857" lon="3.0776">
        <ele>155</ele>
        <time>2025-12-29T14:15:42.802Z</time>
      </trkpt>
      <trkpt lat="43.13856" lon="3.07762">
        <ele>155</ele>
        <time>2025-12-29T14:15:43.802Z</time>
      </trkpt>
      <trkpt lat="43.13855" lon="3.07763">
        <ele>155</ele>
        <time>2025-12-29T14:15:44.802Z</time>
      </trkpt>
      <trkpt lat="43.13854" lon="3.07765">
        <ele>156</ele>
        <time>2025-12-29T14:15:45.802Z</time>
      </trkpt>
      <trkpt lat="43.13853" lon="3.07767">
        <ele>156</ele>
        <time>2025-12-29T14:15:46.802Z</time>
      </trkpt>
      <trkpt lat="43.13852" lon="3.07768">
        <ele>156</ele>
        <time>2025-12-29T14:15:47.802Z</time>
      </trkpt>
      <trkpt lat="43.13851" lon="3.07768">
        <ele>156</ele>
        <time>2025-12-29T14:15:48.802Z</time>
      </trkpt>
      <trkpt lat="43.1385" lon="3.07769">
        <ele>156</ele>
        <time>2025-12-29T14:15:49.802Z</time>
      </trkpt>
      <trkpt lat="43.13849" lon="3.07771">
        <ele>155</ele>
        <time>2025-12-29T14:15:50.802Z</time>
      </trkpt>
      <trkpt lat="43.13849" lon="3.07773">
        <ele>155</ele>
        <time>2025-12-29T14:15:51.802Z</time>
      </trkpt>
      <trkpt lat="43.13848" lon="3.07775">
        <ele>154</ele>
        <time>2025-12-29T14:15:52.802Z</time>
      </trkpt>
      <trkpt lat="43.13847" lon="3.07777">
        <ele>154</ele>
        <time>2025-12-29T14:15:53.802Z</time>
      </trkpt>
      <trkpt lat="43.13847" lon="3.07779">
        <ele>154</ele>
        <time>2025-12-29T14:15:54.802Z</time>
      </trkpt>
      <trkpt lat="43.13846" lon="3.07781">
        <ele>153</ele>
        <time>2025-12-29T14:15:55.802Z</time>
      </trkpt>
      <trkpt lat="43.13846" lon="3.07783">
        <ele>153</ele>
        <time>2025-12-29T14:15:56.802Z</time>
      </trkpt>
      <trkpt lat="43.13845" lon="3.07785">
        <ele>153</ele>
        <time>2025-12-29T14:15:57.802Z</time>
      </trkpt>
      <trkpt lat="43.13845" lon="3.07787">
        <ele>152</ele>
        <time>2025-12-29T14:15:58.802Z</time>
      </trkpt>
      <trkpt lat="43.13845" lon="3.0779">
        <ele>152</ele>
        <time>2025-12-29T14:15:59.802Z</time>
      </trkpt>
      <trkpt lat="43.13844" lon="3.07792">
        <ele>152</ele>
        <time>2025-12-29T14:16:00.802Z</time>
      </trkpt>
      <trkpt lat="43.13844" lon="3.07794">
        <ele>152</ele>
        <time>2025-12-29T14:16:01.802Z</time>
      </trkpt>
      <trkpt lat="43.13843" lon="3.07796">
        <ele>152</ele>
        <time>2025-12-29T14:16:02.802Z</time>
      </trkpt>
      <trkpt lat="43.13842" lon="3.07798">
        <ele>152</ele>
        <time>2025-12-29T14:16:03.802Z</time>
      </trkpt>
      <trkpt lat="43.13841" lon="3.078">
        <ele>152</ele>
        <time>2025-12-29T14:16:04.802Z</time>
      </trkpt>
      <trkpt lat="43.13841" lon="3.07802">
        <ele>152</ele>
        <time>2025-12-29T14:16:05.802Z</time>
      </trkpt>
      <trkpt lat="43.1384" lon="3.07804">
        <ele>152</ele>
        <time>2025-12-29T14:16:06.802Z</time>
      </trkpt>
      <trkpt lat="43.13839" lon="3.07806">
        <ele>152</ele>
        <time>2025-12-29T14:16:07.802Z</time>
      </trkpt>
      <trkpt lat="43.13839" lon="3.07809">
        <ele>152</ele>
        <time>2025-12-29T14:16:08.802Z</time>
      </trkpt>
      <trkpt lat="43.13838" lon="3.07811">
        <ele>152</ele>
        <time>2025-12-29T14:16:09.802Z</time>
      </trkpt>
      <trkpt lat="43.13838" lon="3.07813">
        <ele>152</ele>
        <time>2025-12-29T14:16:10.802Z</time>
      </trkpt>
      <trkpt lat="43.13837" lon="3.07815">
        <ele>152</ele>
        <time>2025-12-29T14:16:11.802Z</time>
      </trkpt>
      <trkpt lat="43.13837" lon="3.07817">
        <ele>151</ele>
        <time>2025-12-29T14:16:12.802Z</time>
      </trkpt>
      <trkpt lat="43.13836" lon="3.07819">
        <ele>151</ele>
        <time>2025-12-29T14:16:13.802Z</time>
      </trkpt>
      <trkpt lat="43.13835" lon="3.07821">
        <ele>150</ele>
        <time>2025-12-29T14:16:14.802Z</time>
      </trkpt>
      <trkpt lat="43.13834" lon="3.07823">
        <ele>150</ele>
        <time>2025-12-29T14:16:15.802Z</time>
      </trkpt>
      <trkpt lat="43.13834" lon="3.07825">
        <ele>150</ele>
        <time>2025-12-29T14:16:16.802Z</time>
      </trkpt>
      <trkpt lat="43.13833" lon="3.07827">
        <ele>150</ele>
        <time>2025-12-29T14:16:17.802Z</time>
      </trkpt>
      <trkpt lat="43.13832" lon="3.07829">
        <ele>150</ele>
        <time>2025-12-29T14:16:18.802Z</time>
      </trkpt>
      <trkpt lat="43.13831" lon="3.07831">
        <ele>150</ele>
        <time>2025-12-29T14:16:19.802Z</time>
      </trkpt>
      <trkpt lat="43.13831" lon="3.07832">
        <ele>150</ele>
        <time>2025-12-29T14:16:20.802Z</time>
      </trkpt>
      <trkpt lat="43.13831" lon="3.07834">
        <ele>150</ele>
        <time>2025-12-29T14:16:21.802Z</time>
      </trkpt>
      <trkpt lat="43.13831" lon="3.07836">
        <ele>150</ele>
        <time>2025-12-29T14:16:22.802Z</time>
      </trkpt>
      <trkpt lat="43.13831" lon="3.07838">
        <ele>150</ele>
        <time>2025-12-29T14:16:23.802Z</time>
      </trkpt>
      <trkpt lat="43.13831" lon="3.0784">
        <ele>150</ele>
        <time>2025-12-29T14:16:24.802Z</time>
      </trkpt>
      <trkpt lat="43.1383" lon="3.07842">
        <ele>150</ele>
        <time>2025-12-29T14:16:25.802Z</time>
      </trkpt>
      <trkpt lat="43.1383" lon="3.07844">
        <ele>150</ele>
        <time>2025-12-29T14:16:26.802Z</time>
      </trkpt>
      <trkpt lat="43.1383" lon="3.07845">
        <ele>150</ele>
        <time>2025-12-29T14:16:27.802Z</time>
      </trkpt>
      <trkpt lat="43.1383" lon="3.07847">
        <ele>151</ele>
        <time>2025-12-29T14:16:28.802Z</time>
      </trkpt>
      <trkpt lat="43.13829" lon="3.07849">
        <ele>151</ele>
        <time>2025-12-29T14:16:29.802Z</time>
      </trkpt>
      <trkpt lat="43.13828" lon="3.07852">
        <ele>151</ele>
        <time>2025-12-29T14:16:30.802Z</time>
      </trkpt>
      <trkpt lat="43.13827" lon="3.07854">
        <ele>150</ele>
        <time>2025-12-29T14:16:31.802Z</time>
      </trkpt>
      <trkpt lat="43.13827" lon="3.07856">
        <ele>150</ele>
        <time>2025-12-29T14:16:32.802Z</time>
      </trkpt>
      <trkpt lat="43.13827" lon="3.07857">
        <ele>150</ele>
        <time>2025-12-29T14:16:33.802Z</time>
      </trkpt>
      <trkpt lat="43.13826" lon="3.0786">
        <ele>150</ele>
        <time>2025-12-29T14:16:34.802Z</time>
      </trkpt>
      <trkpt lat="43.13826" lon="3.07861">
        <ele>150</ele>
        <time>2025-12-29T14:16:35.802Z</time>
      </trkpt>
      <trkpt lat="43.13825" lon="3.07863">
        <ele>150</ele>
        <time>2025-12-29T14:16:36.802Z</time>
      </trkpt>
      <trkpt lat="43.13824" lon="3.07864">
        <ele>150</ele>
        <time>2025-12-29T14:16:37.802Z</time>
      </trkpt>
      <trkpt lat="43.13823" lon="3.07865">
        <ele>150</ele>
        <time>2025-12-29T14:16:38.802Z</time>
      </trkpt>
      <trkpt lat="43.13822" lon="3.07866">
        <ele>150</ele>
        <time>2025-12-29T14:16:39.802Z</time>
      </trkpt>
      <trkpt lat="43.13821" lon="3.07867">
        <ele>150</ele>
        <time>2025-12-29T14:16:40.802Z</time>
      </trkpt>
      <trkpt lat="43.13819" lon="3.07869">
        <ele>150</ele>
        <time>2025-12-29T14:16:41.802Z</time>
      </trkpt>
      <trkpt lat="43.13818" lon="3.0787">
        <ele>149</ele>
        <time>2025-12-29T14:16:42.802Z</time>
      </trkpt>
      <trkpt lat="43.13817" lon="3.07871">
        <ele>149</ele>
        <time>2025-12-29T14:16:43.802Z</time>
      </trkpt>
      <trkpt lat="43.13816" lon="3.07872">
        <ele>149</ele>
        <time>2025-12-29T14:16:44.802Z</time>
      </trkpt>
      <trkpt lat="43.13814" lon="3.07873">
        <ele>149</ele>
        <time>2025-12-29T14:16:45.802Z</time>
      </trkpt>
      <trkpt lat="43.13814" lon="3.07874">
        <ele>150</ele>
        <time>2025-12-29T14:16:46.802Z</time>
      </trkpt>
      <trkpt lat="43.13812" lon="3.07875">
        <ele>150</ele>
        <time>2025-12-29T14:16:47.802Z</time>
      </trkpt>
      <trkpt lat="43.13811" lon="3.07876">
        <ele>151</ele>
        <time>2025-12-29T14:16:48.802Z</time>
      </trkpt>
      <trkpt lat="43.13809" lon="3.07877">
        <ele>151</ele>
        <time>2025-12-29T14:16:49.802Z</time>
      </trkpt>
      <trkpt lat="43.13808" lon="3.07878">
        <ele>151</ele>
        <time>2025-12-29T14:16:50.802Z</time>
      </trkpt>
      <trkpt lat="43.13807" lon="3.07878">
        <ele>151</ele>
        <time>2025-12-29T14:16:51.802Z</time>
      </trkpt>
      <trkpt lat="43.13805" lon="3.07879">
        <ele>152</ele>
        <time>2025-12-29T14:16:52.802Z</time>
      </trkpt>
      <trkpt lat="43.13804" lon="3.07879">
        <ele>152</ele>
        <time>2025-12-29T14:16:53.802Z</time>
      </trkpt>
      <trkpt lat="43.13803" lon="3.07879">
        <ele>152</ele>
        <time>2025-12-29T14:16:54.802Z</time>
      </trkpt>
      <trkpt lat="43.13802" lon="3.07879">
        <ele>152</ele>
        <time>2025-12-29T14:16:55.802Z</time>
      </trkpt>
      <trkpt lat="43.138" lon="3.07879">
        <ele>153</ele>
        <time>2025-12-29T14:16:56.802Z</time>
      </trkpt>
      <trkpt lat="43.13799" lon="3.0788">
        <ele>153</ele>
        <time>2025-12-29T14:16:57.802Z</time>
      </trkpt>
      <trkpt lat="43.13798" lon="3.0788">
        <ele>153</ele>
        <time>2025-12-29T14:16:58.802Z</time>
      </trkpt>
      <trkpt lat="43.13797" lon="3.0788">
        <ele>153</ele>
        <time>2025-12-29T14:16:59.802Z</time>
      </trkpt>
      <trkpt lat="43.13796" lon="3.0788">
        <ele>154</ele>
        <time>2025-12-29T14:17:00.802Z</time>
      </trkpt>
      <trkpt lat="43.13795" lon="3.0788">
        <ele>154</ele>
        <time>2025-12-29T14:17:01.802Z</time>
      </trkpt>
      <trkpt lat="43.13794" lon="3.0788">
        <ele>154</ele>
        <time>2025-12-29T14:17:02.802Z</time>
      </trkpt>
      <trkpt lat="43.13794" lon="3.0788">
        <ele>154</ele>
        <time>2025-12-29T14:17:03.802Z</time>
      </trkpt>
      <trkpt lat="43.13794" lon="3.0788">
        <ele>154</ele>
        <time>2025-12-29T14:17:04.802Z</time>
      </trkpt>
      <trkpt lat="43.13794" lon="3.0788">
        <ele>154</ele>
        <time>2025-12-29T14:17:05.802Z</time>
      </trkpt>
      <trkpt lat="43.13792" lon="3.07879">
        <ele>154</ele>
        <time>2025-12-29T14:17:06.802Z</time>
      </trkpt>
      <trkpt lat="43.13792" lon="3.07879">
        <ele>155</ele>
        <time>2025-12-29T14:17:07.802Z</time>
      </trkpt>
      <trkpt lat="43.1379" lon="3.07878">
        <ele>155</ele>
        <time>2025-12-29T14:17:08.802Z</time>
      </trkpt>
      <trkpt lat="43.13788" lon="3.07878">
        <ele>155</ele>
        <time>2025-12-29T14:17:09.802Z</time>
      </trkpt>
      <trkpt lat="43.13786" lon="3.07878">
        <ele>155</ele>
        <time>2025-12-29T14:17:10.802Z</time>
      </trkpt>
      <trkpt lat="43.13784" lon="3.07879">
        <ele>156</ele>
        <time>2025-12-29T14:17:11.802Z</time>
      </trkpt>
      <trkpt lat="43.13784" lon="3.07879">
        <ele>156</ele>
        <time>2025-12-29T14:17:12.802Z</time>
      </trkpt>
      <trkpt lat="43.13783" lon="3.07879">
        <ele>156</ele>
        <time>2025-12-29T14:17:13.802Z</time>
      </trkpt>
      <trkpt lat="43.13782" lon="3.0788">
        <ele>156</ele>
        <time>2025-12-29T14:17:14.802Z</time>
      </trkpt>
      <trkpt lat="43.13781" lon="3.07881">
        <ele>156</ele>
        <time>2025-12-29T14:17:15.802Z</time>
      </trkpt>
      <trkpt lat="43.1378" lon="3.07881">
        <ele>156</ele>
        <time>2025-12-29T14:17:16.802Z</time>
      </trkpt>
      <trkpt lat="43.13778" lon="3.07882">
        <ele>156</ele>
        <time>2025-12-29T14:17:17.802Z</time>
      </trkpt>
      <trkpt lat="43.13777" lon="3.07883">
        <ele>156</ele>
        <time>2025-12-29T14:17:18.802Z</time>
      </trkpt>
      <trkpt lat="43.13775" lon="3.07883">
        <ele>156</ele>
        <time>2025-12-29T14:17:19.802Z</time>
      </trkpt>
      <trkpt lat="43.13774" lon="3.07884">
        <ele>156</ele>
        <time>2025-12-29T14:17:20.802Z</time>
      </trkpt>
      <trkpt lat="43.13772" lon="3.07884">
        <ele>156</ele>
        <time>2025-12-29T14:17:21.802Z</time>
      </trkpt>
      <trkpt lat="43.13771" lon="3.07885">
        <ele>156</ele>
        <time>2025-12-29T14:17:22.802Z</time>
      </trkpt>
      <trkpt lat="43.13771" lon="3.07885">
        <ele>156</ele>
        <time>2025-12-29T14:17:23.802Z</time>
      </trkpt>
      <trkpt lat="43.1377" lon="3.07886">
        <ele>156</ele>
        <time>2025-12-29T14:17:24.802Z</time>
      </trkpt>
      <trkpt lat="43.13769" lon="3.07886">
        <ele>156</ele>
        <time>2025-12-29T14:17:25.802Z</time>
      </trkpt>
      <trkpt lat="43.13767" lon="3.07886">
        <ele>156</ele>
        <time>2025-12-29T14:17:26.802Z</time>
      </trkpt>
      <trkpt lat="43.13765" lon="3.07887">
        <ele>156</ele>
        <time>2025-12-29T14:17:27.802Z</time>
      </trkpt>
      <trkpt lat="43.13764" lon="3.07887">
        <ele>156</ele>
        <time>2025-12-29T14:17:28.802Z</time>
      </trkpt>
      <trkpt lat="43.13762" lon="3.07887">
        <ele>156</ele>
        <time>2025-12-29T14:17:29.802Z</time>
      </trkpt>
      <trkpt lat="43.13761" lon="3.07886">
        <ele>157</ele>
        <time>2025-12-29T14:17:30.803Z</time>
      </trkpt>
      <trkpt lat="43.13759" lon="3.07886">
        <ele>157</ele>
        <time>2025-12-29T14:17:31.802Z</time>
      </trkpt>
      <trkpt lat="43.13757" lon="3.07887">
        <ele>157</ele>
        <time>2025-12-29T14:17:32.802Z</time>
      </trkpt>
      <trkpt lat="43.13755" lon="3.07887">
        <ele>157</ele>
        <time>2025-12-29T14:17:33.802Z</time>
      </trkpt>
      <trkpt lat="43.13754" lon="3.07888">
        <ele>157</ele>
        <time>2025-12-29T14:17:34.802Z</time>
      </trkpt>
      <trkpt lat="43.13752" lon="3.07887">
        <ele>158</ele>
        <time>2025-12-29T14:17:35.802Z</time>
      </trkpt>
      <trkpt lat="43.1375" lon="3.07887">
        <ele>158</ele>
        <time>2025-12-29T14:17:36.802Z</time>
      </trkpt>
      <trkpt lat="43.13749" lon="3.07887">
        <ele>158</ele>
        <time>2025-12-29T14:17:37.802Z</time>
      </trkpt>
      <trkpt lat="43.13748" lon="3.07886">
        <ele>158</ele>
        <time>2025-12-29T14:17:38.802Z</time>
      </trkpt>
      <trkpt lat="43.13747" lon="3.07886">
        <ele>158</ele>
        <time>2025-12-29T14:17:39.802Z</time>
      </trkpt>
      <trkpt lat="43.13746" lon="3.07886">
        <ele>158</ele>
        <time>2025-12-29T14:17:40.802Z</time>
      </trkpt>
      <trkpt lat="43.13744" lon="3.07886">
        <ele>158</ele>
        <time>2025-12-29T14:17:41.802Z</time>
      </trkpt>
      <trkpt lat="43.13743" lon="3.07886">
        <ele>158</ele>
        <time>2025-12-29T14:17:42.802Z</time>
      </trkpt>
      <trkpt lat="43.13742" lon="3.07886">
        <ele>158</ele>
        <time>2025-12-29T14:17:43.802Z</time>
      </trkpt>
      <trkpt lat="43.13741" lon="3.07886">
        <ele>158</ele>
        <time>2025-12-29T14:17:44.802Z</time>
      </trkpt>
      <trkpt lat="43.13739" lon="3.07886">
        <ele>159</ele>
        <time>2025-12-29T14:17:45.802Z</time>
      </trkpt>
      <trkpt lat="43.13738" lon="3.07886">
        <ele>159</ele>
        <time>2025-12-29T14:17:46.802Z</time>
      </trkpt>
      <trkpt lat="43.13737" lon="3.07885">
        <ele>159</ele>
        <time>2025-12-29T14:17:47.802Z</time>
      </trkpt>
      <trkpt lat="43.13735" lon="3.07885">
        <ele>159</ele>
        <time>2025-12-29T14:17:48.802Z</time>
      </trkpt>
      <trkpt lat="43.13733" lon="3.07885">
        <ele>160</ele>
        <time>2025-12-29T14:17:49.802Z</time>
      </trkpt>
      <trkpt lat="43.13732" lon="3.07885">
        <ele>160</ele>
        <time>2025-12-29T14:17:50.802Z</time>
      </trkpt>
      <trkpt lat="43.1373" lon="3.07885">
        <ele>160</ele>
        <time>2025-12-29T14:17:51.802Z</time>
      </trkpt>
      <trkpt lat="43.13729" lon="3.07886">
        <ele>160</ele>
        <time>2025-12-29T14:17:52.802Z</time>
      </trkpt>
      <trkpt lat="43.13727" lon="3.07887">
        <ele>160</ele>
        <time>2025-12-29T14:17:53.802Z</time>
      </trkpt>
      <trkpt lat="43.13725" lon="3.07887">
        <ele>160</ele>
        <time>2025-12-29T14:17:54.802Z</time>
      </trkpt>
      <trkpt lat="43.13724" lon="3.07888">
        <ele>161</ele>
        <time>2025-12-29T14:17:55.802Z</time>
      </trkpt>
      <trkpt lat="43.13722" lon="3.07888">
        <ele>161</ele>
        <time>2025-12-29T14:17:56.802Z</time>
      </trkpt>
      <trkpt lat="43.1372" lon="3.07887">
        <ele>161</ele>
        <time>2025-12-29T14:17:57.802Z</time>
      </trkpt>
      <trkpt lat="43.13718" lon="3.07887">
        <ele>161</ele>
        <time>2025-12-29T14:17:58.802Z</time>
      </trkpt>
      <trkpt lat="43.13716" lon="3.07887">
        <ele>162</ele>
        <time>2025-12-29T14:17:59.802Z</time>
      </trkpt>
      <trkpt lat="43.13714" lon="3.07886">
        <ele>162</ele>
        <time>2025-12-29T14:18:00.802Z</time>
      </trkpt>
      <trkpt lat="43.13713" lon="3.07886">
        <ele>162</ele>
        <time>2025-12-29T14:18:01.802Z</time>
      </trkpt>
      <trkpt lat="43.13711" lon="3.07885">
        <ele>162</ele>
        <time>2025-12-29T14:18:02.802Z</time>
      </trkpt>
      <trkpt lat="43.1371" lon="3.07884">
        <ele>162</ele>
        <time>2025-12-29T14:18:03.802Z</time>
      </trkpt>
      <trkpt lat="43.13709" lon="3.07884">
        <ele>162</ele>
        <time>2025-12-29T14:18:04.802Z</time>
      </trkpt>
      <trkpt lat="43.13708" lon="3.07884">
        <ele>161</ele>
        <time>2025-12-29T14:18:05.802Z</time>
      </trkpt>
      <trkpt lat="43.13706" lon="3.07883">
        <ele>161</ele>
        <time>2025-12-29T14:18:06.802Z</time>
      </trkpt>
      <trkpt lat="43.13705" lon="3.07883">
        <ele>160</ele>
        <time>2025-12-29T14:18:07.802Z</time>
      </trkpt>
      <trkpt lat="43.13704" lon="3.07882">
        <ele>160</ele>
        <time>2025-12-29T14:18:08.802Z</time>
      </trkpt>
      <trkpt lat="43.13702" lon="3.07882">
        <ele>159</ele>
        <time>2025-12-29T14:18:09.802Z</time>
      </trkpt>
      <trkpt lat="43.137" lon="3.07882">
        <ele>159</ele>
        <time>2025-12-29T14:18:10.802Z</time>
      </trkpt>
      <trkpt lat="43.13698" lon="3.07882">
        <ele>159</ele>
        <time>2025-12-29T14:18:11.802Z</time>
      </trkpt>
      <trkpt lat="43.13697" lon="3.07882">
        <ele>159</ele>
        <time>2025-12-29T14:18:12.802Z</time>
      </trkpt>
      <trkpt lat="43.13695" lon="3.07882">
        <ele>159</ele>
        <time>2025-12-29T14:18:13.802Z</time>
      </trkpt>
      <trkpt lat="43.13694" lon="3.07882">
        <ele>158</ele>
        <time>2025-12-29T14:18:14.802Z</time>
      </trkpt>
      <trkpt lat="43.13692" lon="3.07882">
        <ele>158</ele>
        <time>2025-12-29T14:18:15.802Z</time>
      </trkpt>
      <trkpt lat="43.1369" lon="3.07881">
        <ele>158</ele>
        <time>2025-12-29T14:18:16.802Z</time>
      </trkpt>
      <trkpt lat="43.13689" lon="3.07881">
        <ele>158</ele>
        <time>2025-12-29T14:18:17.802Z</time>
      </trkpt>
      <trkpt lat="43.13687" lon="3.07881">
        <ele>158</ele>
        <time>2025-12-29T14:18:18.802Z</time>
      </trkpt>
      <trkpt lat="43.13685" lon="3.07881">
        <ele>158</ele>
        <time>2025-12-29T14:18:19.802Z</time>
      </trkpt>
      <trkpt lat="43.13683" lon="3.0788">
        <ele>158</ele>
        <time>2025-12-29T14:18:20.802Z</time>
      </trkpt>
      <trkpt lat="43.13682" lon="3.0788">
        <ele>158</ele>
        <time>2025-12-29T14:18:21.802Z</time>
      </trkpt>
      <trkpt lat="43.1368" lon="3.07879">
        <ele>158</ele>
        <time>2025-12-29T14:18:22.802Z</time>
      </trkpt>
      <trkpt lat="43.13678" lon="3.07879">
        <ele>158</ele>
        <time>2025-12-29T14:18:23.802Z</time>
      </trkpt>
      <trkpt lat="43.13677" lon="3.07878">
        <ele>158</ele>
        <time>2025-12-29T14:18:24.802Z</time>
      </trkpt>
      <trkpt lat="43.13675" lon="3.07878">
        <ele>158</ele>
        <time>2025-12-29T14:18:25.802Z</time>
      </trkpt>
      <trkpt lat="43.13674" lon="3.07877">
        <ele>158</ele>
        <time>2025-12-29T14:18:26.802Z</time>
      </trkpt>
      <trkpt lat="43.13673" lon="3.07877">
        <ele>158</ele>
        <time>2025-12-29T14:18:27.802Z</time>
      </trkpt>
      <trkpt lat="43.13671" lon="3.07877">
        <ele>159</ele>
        <time>2025-12-29T14:18:28.802Z</time>
      </trkpt>
      <trkpt lat="43.13669" lon="3.07877">
        <ele>159</ele>
        <time>2025-12-29T14:18:29.802Z</time>
      </trkpt>
      <trkpt lat="43.13667" lon="3.07877">
        <ele>159</ele>
        <time>2025-12-29T14:18:30.802Z</time>
      </trkpt>
      <trkpt lat="43.13664" lon="3.07877">
        <ele>159</ele>
        <time>2025-12-29T14:18:31.802Z</time>
      </trkpt>
      <trkpt lat="43.13661" lon="3.07877">
        <ele>159</ele>
        <time>2025-12-29T14:18:32.802Z</time>
      </trkpt>
      <trkpt lat="43.1366" lon="3.07876">
        <ele>159</ele>
        <time>2025-12-29T14:18:33.802Z</time>
      </trkpt>
      <trkpt lat="43.13658" lon="3.07875">
        <ele>159</ele>
        <time>2025-12-29T14:18:34.802Z</time>
      </trkpt>
      <trkpt lat="43.13657" lon="3.07874">
        <ele>158</ele>
        <time>2025-12-29T14:18:35.802Z</time>
      </trkpt>
      <trkpt lat="43.13655" lon="3.07873">
        <ele>158</ele>
        <time>2025-12-29T14:18:36.802Z</time>
      </trkpt>
      <trkpt lat="43.13654" lon="3.07872">
        <ele>158</ele>
        <time>2025-12-29T14:18:37.802Z</time>
      </trkpt>
      <trkpt lat="43.13652" lon="3.07872">
        <ele>158</ele>
        <time>2025-12-29T14:18:38.802Z</time>
      </trkpt>
      <trkpt lat="43.1365" lon="3.07873">
        <ele>157</ele>
        <time>2025-12-29T14:18:39.802Z</time>
      </trkpt>
      <trkpt lat="43.13648" lon="3.07873">
        <ele>157</ele>
        <time>2025-12-29T14:18:40.802Z</time>
      </trkpt>
      <trkpt lat="43.13647" lon="3.07873">
        <ele>157</ele>
        <time>2025-12-29T14:18:41.802Z</time>
      </trkpt>
      <trkpt lat="43.13646" lon="3.07874">
        <ele>157</ele>
        <time>2025-12-29T14:18:42.802Z</time>
      </trkpt>
      <trkpt lat="43.13644" lon="3.07875">
        <ele>157</ele>
        <time>2025-12-29T14:18:43.802Z</time>
      </trkpt>
      <trkpt lat="43.13643" lon="3.07876">
        <ele>157</ele>
        <time>2025-12-29T14:18:44.802Z</time>
      </trkpt>
      <trkpt lat="43.13641" lon="3.07877">
        <ele>157</ele>
        <time>2025-12-29T14:18:45.802Z</time>
      </trkpt>
      <trkpt lat="43.1364" lon="3.07877">
        <ele>157</ele>
        <time>2025-12-29T14:18:46.802Z</time>
      </trkpt>
      <trkpt lat="43.13638" lon="3.07878">
        <ele>157</ele>
        <time>2025-12-29T14:18:47.802Z</time>
      </trkpt>
      <trkpt lat="43.13637" lon="3.07878">
        <ele>157</ele>
        <time>2025-12-29T14:18:48.802Z</time>
      </trkpt>
      <trkpt lat="43.13636" lon="3.07878">
        <ele>157</ele>
        <time>2025-12-29T14:18:49.802Z</time>
      </trkpt>
      <trkpt lat="43.13636" lon="3.07878">
        <ele>157</ele>
        <time>2025-12-29T14:18:50.802Z</time>
      </trkpt>
      <trkpt lat="43.13634" lon="3.07878">
        <ele>157</ele>
        <time>2025-12-29T14:18:51.802Z</time>
      </trkpt>
      <trkpt lat="43.13633" lon="3.07878">
        <ele>157</ele>
        <time>2025-12-29T14:18:52.802Z</time>
      </trkpt>
      <trkpt lat="43.13632" lon="3.07877">
        <ele>158</ele>
        <time>2025-12-29T14:18:53.802Z</time>
      </trkpt>
      <trkpt lat="43.1363" lon="3.07876">
        <ele>158</ele>
        <time>2025-12-29T14:18:54.802Z</time>
      </trkpt>
      <trkpt lat="43.13629" lon="3.07875">
        <ele>158</ele>
        <time>2025-12-29T14:18:55.802Z</time>
      </trkpt>
      <trkpt lat="43.13627" lon="3.07874">
        <ele>158</ele>
        <time>2025-12-29T14:18:56.802Z</time>
      </trkpt>
      <trkpt lat="43.13626" lon="3.07873">
        <ele>158</ele>
        <time>2025-12-29T14:18:57.802Z</time>
      </trkpt>
      <trkpt lat="43.13625" lon="3.07871">
        <ele>159</ele>
        <time>2025-12-29T14:18:58.802Z</time>
      </trkpt>
      <trkpt lat="43.13624" lon="3.07871">
        <ele>159</ele>
        <time>2025-12-29T14:18:59.802Z</time>
      </trkpt>
      <trkpt lat="43.13622" lon="3.07871">
        <ele>159</ele>
        <time>2025-12-29T14:19:00.802Z</time>
      </trkpt>
      <trkpt lat="43.13621" lon="3.07871">
        <ele>159</ele>
        <time>2025-12-29T14:19:01.802Z</time>
      </trkpt>
      <trkpt lat="43.1362" lon="3.07872">
        <ele>159</ele>
        <time>2025-12-29T14:19:02.802Z</time>
      </trkpt>
      <trkpt lat="43.13618" lon="3.07872">
        <ele>160</ele>
        <time>2025-12-29T14:19:03.802Z</time>
      </trkpt>
      <trkpt lat="43.13617" lon="3.07873">
        <ele>160</ele>
        <time>2025-12-29T14:19:04.802Z</time>
      </trkpt>
      <trkpt lat="43.13616" lon="3.07873">
        <ele>160</ele>
        <time>2025-12-29T14:19:05.802Z</time>
      </trkpt>
      <trkpt lat="43.13614" lon="3.07873">
        <ele>161</ele>
        <time>2025-12-29T14:19:06.802Z</time>
      </trkpt>
      <trkpt lat="43.13613" lon="3.07873">
        <ele>161</ele>
        <time>2025-12-29T14:19:07.802Z</time>
      </trkpt>
      <trkpt lat="43.13611" lon="3.07873">
        <ele>161</ele>
        <time>2025-12-29T14:19:08.802Z</time>
      </trkpt>
      <trkpt lat="43.1361" lon="3.07873">
        <ele>162</ele>
        <time>2025-12-29T14:19:09.802Z</time>
      </trkpt>
      <trkpt lat="43.13608" lon="3.07874">
        <ele>162</ele>
        <time>2025-12-29T14:19:10.802Z</time>
      </trkpt>
      <trkpt lat="43.13606" lon="3.07874">
        <ele>162</ele>
        <time>2025-12-29T14:19:11.802Z</time>
      </trkpt>
      <trkpt lat="43.13605" lon="3.07874">
        <ele>162</ele>
        <time>2025-12-29T14:19:12.802Z</time>
      </trkpt>
      <trkpt lat="43.13603" lon="3.07875">
        <ele>162</ele>
        <time>2025-12-29T14:19:13.802Z</time>
      </trkpt>
      <trkpt lat="43.13602" lon="3.07876">
        <ele>162</ele>
        <time>2025-12-29T14:19:14.802Z</time>
      </trkpt>
      <trkpt lat="43.136" lon="3.07876">
        <ele>161</ele>
        <time>2025-12-29T14:19:15.802Z</time>
      </trkpt>
      <trkpt lat="43.13599" lon="3.07876">
        <ele>161</ele>
        <time>2025-12-29T14:19:16.802Z</time>
      </trkpt>
      <trkpt lat="43.13597" lon="3.07876">
        <ele>161</ele>
        <time>2025-12-29T14:19:17.802Z</time>
      </trkpt>
      <trkpt lat="43.13596" lon="3.07876">
        <ele>160</ele>
        <time>2025-12-29T14:19:18.802Z</time>
      </trkpt>
      <trkpt lat="43.13595" lon="3.07875">
        <ele>160</ele>
        <time>2025-12-29T14:19:19.802Z</time>
      </trkpt>
      <trkpt lat="43.13593" lon="3.07874">
        <ele>160</ele>
        <time>2025-12-29T14:19:20.802Z</time>
      </trkpt>
      <trkpt lat="43.13592" lon="3.07874">
        <ele>160</ele>
        <time>2025-12-29T14:19:21.802Z</time>
      </trkpt>
      <trkpt lat="43.13591" lon="3.07874">
        <ele>160</ele>
        <time>2025-12-29T14:19:22.802Z</time>
      </trkpt>
      <trkpt lat="43.1359" lon="3.07873">
        <ele>160</ele>
        <time>2025-12-29T14:19:23.802Z</time>
      </trkpt>
      <trkpt lat="43.13589" lon="3.07872">
        <ele>160</ele>
        <time>2025-12-29T14:19:24.802Z</time>
      </trkpt>
      <trkpt lat="43.13588" lon="3.07871">
        <ele>160</ele>
        <time>2025-12-29T14:19:25.802Z</time>
      </trkpt>
      <trkpt lat="43.13586" lon="3.0787">
        <ele>161</ele>
        <time>2025-12-29T14:19:26.802Z</time>
      </trkpt>
      <trkpt lat="43.13585" lon="3.0787">
        <ele>161</ele>
        <time>2025-12-29T14:19:27.802Z</time>
      </trkpt>
      <trkpt lat="43.13583" lon="3.07869">
        <ele>161</ele>
        <time>2025-12-29T14:19:28.802Z</time>
      </trkpt>
      <trkpt lat="43.13582" lon="3.07868">
        <ele>161</ele>
        <time>2025-12-29T14:19:29.802Z</time>
      </trkpt>
      <trkpt lat="43.13581" lon="3.07868">
        <ele>161</ele>
        <time>2025-12-29T14:19:30.802Z</time>
      </trkpt>
      <trkpt lat="43.13579" lon="3.07867">
        <ele>160</ele>
        <time>2025-12-29T14:19:31.802Z</time>
      </trkpt>
      <trkpt lat="43.13578" lon="3.07866">
        <ele>160</ele>
        <time>2025-12-29T14:19:32.802Z</time>
      </trkpt>
      <trkpt lat="43.13577" lon="3.07865">
        <ele>160</ele>
        <time>2025-12-29T14:19:33.802Z</time>
      </trkpt>
      <trkpt lat="43.13576" lon="3.07864">
        <ele>160</ele>
        <time>2025-12-29T14:19:34.802Z</time>
      </trkpt>
      <trkpt lat="43.13575" lon="3.07863">
        <ele>161</ele>
        <time>2025-12-29T14:19:35.802Z</time>
      </trkpt>
      <trkpt lat="43.13573" lon="3.07862">
        <ele>161</ele>
        <time>2025-12-29T14:19:36.802Z</time>
      </trkpt>
      <trkpt lat="43.13572" lon="3.07861">
        <ele>161</ele>
        <time>2025-12-29T14:19:37.802Z</time>
      </trkpt>
      <trkpt lat="43.1357" lon="3.0786">
        <ele>161</ele>
        <time>2025-12-29T14:19:38.802Z</time>
      </trkpt>
      <trkpt lat="43.13569" lon="3.07859">
        <ele>161</ele>
        <time>2025-12-29T14:19:39.802Z</time>
      </trkpt>
      <trkpt lat="43.13568" lon="3.07858">
        <ele>161</ele>
        <time>2025-12-29T14:19:40.802Z</time>
      </trkpt>
      <trkpt lat="43.13567" lon="3.07857">
        <ele>162</ele>
        <time>2025-12-29T14:19:41.802Z</time>
      </trkpt>
      <trkpt lat="43.13565" lon="3.07855">
        <ele>162</ele>
        <time>2025-12-29T14:19:42.802Z</time>
      </trkpt>
      <trkpt lat="43.13563" lon="3.07853">
        <ele>162</ele>
        <time>2025-12-29T14:19:43.802Z</time>
      </trkpt>
      <trkpt lat="43.13562" lon="3.07852">
        <ele>163</ele>
        <time>2025-12-29T14:19:44.802Z</time>
      </trkpt>
      <trkpt lat="43.13561" lon="3.07852">
        <ele>163</ele>
        <time>2025-12-29T14:19:45.802Z</time>
      </trkpt>
      <trkpt lat="43.1356" lon="3.07852">
        <ele>163</ele>
        <time>2025-12-29T14:19:46.802Z</time>
      </trkpt>
      <trkpt lat="43.13559" lon="3.07852">
        <ele>163</ele>
        <time>2025-12-29T14:19:47.802Z</time>
      </trkpt>
      <trkpt lat="43.13558" lon="3.07851">
        <ele>163</ele>
        <time>2025-12-29T14:19:48.802Z</time>
      </trkpt>
      <trkpt lat="43.13557" lon="3.07849">
        <ele>163</ele>
        <time>2025-12-29T14:19:49.802Z</time>
      </trkpt>
      <trkpt lat="43.13556" lon="3.07848">
        <ele>163</ele>
        <time>2025-12-29T14:19:50.802Z</time>
      </trkpt>
      <trkpt lat="43.13555" lon="3.07847">
        <ele>163</ele>
        <time>2025-12-29T14:19:51.802Z</time>
      </trkpt>
      <trkpt lat="43.13555" lon="3.07846">
        <ele>163</ele>
        <time>2025-12-29T14:19:52.802Z</time>
      </trkpt>
      <trkpt lat="43.13553" lon="3.07845">
        <ele>163</ele>
        <time>2025-12-29T14:19:53.802Z</time>
      </trkpt>
      <trkpt lat="43.13552" lon="3.07844">
        <ele>163</ele>
        <time>2025-12-29T14:19:54.802Z</time>
      </trkpt>
      <trkpt lat="43.1355" lon="3.07844">
        <ele>163</ele>
        <time>2025-12-29T14:19:55.802Z</time>
      </trkpt>
      <trkpt lat="43.13549" lon="3.07844">
        <ele>163</ele>
        <time>2025-12-29T14:19:56.802Z</time>
      </trkpt>
      <trkpt lat="43.13547" lon="3.07844">
        <ele>163</ele>
        <time>2025-12-29T14:19:57.802Z</time>
      </trkpt>
      <trkpt lat="43.13546" lon="3.07844">
        <ele>163</ele>
        <time>2025-12-29T14:19:58.802Z</time>
      </trkpt>
      <trkpt lat="43.13545" lon="3.07844">
        <ele>163</ele>
        <time>2025-12-29T14:19:59.802Z</time>
      </trkpt>
      <trkpt lat="43.13544" lon="3.07843">
        <ele>163</ele>
        <time>2025-12-29T14:20:00.802Z</time>
      </trkpt>
      <trkpt lat="43.13542" lon="3.07843">
        <ele>163</ele>
        <time>2025-12-29T14:20:01.802Z</time>
      </trkpt>
      <trkpt lat="43.13541" lon="3.07842">
        <ele>163</ele>
        <time>2025-12-29T14:20:02.802Z</time>
      </trkpt>
      <trkpt lat="43.1354" lon="3.07841">
        <ele>163</ele>
        <time>2025-12-29T14:20:03.802Z</time>
      </trkpt>
      <trkpt lat="43.13539" lon="3.07841">
        <ele>162</ele>
        <time>2025-12-29T14:20:04.802Z</time>
      </trkpt>
      <trkpt lat="43.13538" lon="3.07841">
        <ele>162</ele>
        <time>2025-12-29T14:20:05.802Z</time>
      </trkpt>
      <trkpt lat="43.13537" lon="3.0784">
        <ele>162</ele>
        <time>2025-12-29T14:20:06.802Z</time>
      </trkpt>
      <trkpt lat="43.13536" lon="3.07839">
        <ele>162</ele>
        <time>2025-12-29T14:20:07.802Z</time>
      </trkpt>
      <trkpt lat="43.13535" lon="3.07839">
        <ele>163</ele>
        <time>2025-12-29T14:20:08.802Z</time>
      </trkpt>
      <trkpt lat="43.13534" lon="3.07839">
        <ele>163</ele>
        <time>2025-12-29T14:20:09.802Z</time>
      </trkpt>
      <trkpt lat="43.13532" lon="3.07839">
        <ele>163</ele>
        <time>2025-12-29T14:20:10.802Z</time>
      </trkpt>
      <trkpt lat="43.13531" lon="3.07839">
        <ele>163</ele>
        <time>2025-12-29T14:20:11.802Z</time>
      </trkpt>
      <trkpt lat="43.1353" lon="3.07839">
        <ele>163</ele>
        <time>2025-12-29T14:20:12.802Z</time>
      </trkpt>
      <trkpt lat="43.13528" lon="3.07839">
        <ele>164</ele>
        <time>2025-12-29T14:20:13.802Z</time>
      </trkpt>
      <trkpt lat="43.13527" lon="3.07839">
        <ele>164</ele>
        <time>2025-12-29T14:20:14.802Z</time>
      </trkpt>
      <trkpt lat="43.13526" lon="3.07838">
        <ele>164</ele>
        <time>2025-12-29T14:20:15.802Z</time>
      </trkpt>
      <trkpt lat="43.13525" lon="3.07838">
        <ele>164</ele>
        <time>2025-12-29T14:20:16.802Z</time>
      </trkpt>
      <trkpt lat="43.13524" lon="3.07838">
        <ele>165</ele>
        <time>2025-12-29T14:20:17.802Z</time>
      </trkpt>
      <trkpt lat="43.13521" lon="3.07837">
        <ele>165</ele>
        <time>2025-12-29T14:20:18.802Z</time>
      </trkpt>
      <trkpt lat="43.13519" lon="3.07837">
        <ele>165</ele>
        <time>2025-12-29T14:20:19.802Z</time>
      </trkpt>
      <trkpt lat="43.13518" lon="3.07837">
        <ele>165</ele>
        <time>2025-12-29T14:20:20.802Z</time>
      </trkpt>
      <trkpt lat="43.13517" lon="3.07837">
        <ele>165</ele>
        <time>2025-12-29T14:20:21.802Z</time>
      </trkpt>
      <trkpt lat="43.13515" lon="3.07838">
        <ele>165</ele>
        <time>2025-12-29T14:20:22.802Z</time>
      </trkpt>
      <trkpt lat="43.13514" lon="3.07838">
        <ele>164</ele>
        <time>2025-12-29T14:20:23.802Z</time>
      </trkpt>
      <trkpt lat="43.13512" lon="3.07838">
        <ele>164</ele>
        <time>2025-12-29T14:20:24.802Z</time>
      </trkpt>
      <trkpt lat="43.13511" lon="3.07837">
        <ele>164</ele>
        <time>2025-12-29T14:20:25.802Z</time>
      </trkpt>
      <trkpt lat="43.1351" lon="3.07837">
        <ele>164</ele>
        <time>2025-12-29T14:20:26.802Z</time>
      </trkpt>
      <trkpt lat="43.13509" lon="3.07835">
        <ele>164</ele>
        <time>2025-12-29T14:20:27.802Z</time>
      </trkpt>
      <trkpt lat="43.13508" lon="3.07834">
        <ele>165</ele>
        <time>2025-12-29T14:20:28.802Z</time>
      </trkpt>
      <trkpt lat="43.13506" lon="3.07834">
        <ele>165</ele>
        <time>2025-12-29T14:20:29.802Z</time>
      </trkpt>
      <trkpt lat="43.13505" lon="3.07833">
        <ele>165</ele>
        <time>2025-12-29T14:20:30.802Z</time>
      </trkpt>
      <trkpt lat="43.13504" lon="3.07833">
        <ele>165</ele>
        <time>2025-12-29T14:20:31.802Z</time>
      </trkpt>
      <trkpt lat="43.13502" lon="3.07833">
        <ele>165</ele>
        <time>2025-12-29T14:20:32.802Z</time>
      </trkpt>
      <trkpt lat="43.13501" lon="3.07832">
        <ele>165</ele>
        <time>2025-12-29T14:20:33.802Z</time>
      </trkpt>
      <trkpt lat="43.135" lon="3.07832">
        <ele>165</ele>
        <time>2025-12-29T14:20:34.802Z</time>
      </trkpt>
      <trkpt lat="43.13499" lon="3.07833">
        <ele>166</ele>
        <time>2025-12-29T14:20:35.802Z</time>
      </trkpt>
      <trkpt lat="43.13496" lon="3.07834">
        <ele>166</ele>
        <time>2025-12-29T14:20:36.802Z</time>
      </trkpt>
      <trkpt lat="43.13495" lon="3.07835">
        <ele>166</ele>
        <time>2025-12-29T14:20:37.802Z</time>
      </trkpt>
      <trkpt lat="43.13493" lon="3.07835">
        <ele>166</ele>
        <time>2025-12-29T14:20:38.802Z</time>
      </trkpt>
      <trkpt lat="43.13492" lon="3.07836">
        <ele>166</ele>
        <time>2025-12-29T14:20:39.802Z</time>
      </trkpt>
      <trkpt lat="43.13491" lon="3.07836">
        <ele>166</ele>
        <time>2025-12-29T14:20:40.802Z</time>
      </trkpt>
      <trkpt lat="43.1349" lon="3.07837">
        <ele>166</ele>
        <time>2025-12-29T14:20:41.802Z</time>
      </trkpt>
      <trkpt lat="43.13489" lon="3.07838">
        <ele>166</ele>
        <time>2025-12-29T14:20:42.802Z</time>
      </trkpt>
      <trkpt lat="43.13488" lon="3.07838">
        <ele>166</ele>
        <time>2025-12-29T14:20:43.802Z</time>
      </trkpt>
      <trkpt lat="43.13487" lon="3.07839">
        <ele>166</ele>
        <time>2025-12-29T14:20:44.802Z</time>
      </trkpt>
      <trkpt lat="43.13485" lon="3.07839">
        <ele>166</ele>
        <time>2025-12-29T14:20:45.802Z</time>
      </trkpt>
      <trkpt lat="43.13484" lon="3.0784">
        <ele>166</ele>
        <time>2025-12-29T14:20:46.802Z</time>
      </trkpt>
      <trkpt lat="43.13483" lon="3.0784">
        <ele>165</ele>
        <time>2025-12-29T14:20:47.802Z</time>
      </trkpt>
      <trkpt lat="43.13482" lon="3.07841">
        <ele>165</ele>
        <time>2025-12-29T14:20:48.802Z</time>
      </trkpt>
      <trkpt lat="43.13482" lon="3.07841">
        <ele>165</ele>
        <time>2025-12-29T14:20:49.802Z</time>
      </trkpt>
      <trkpt lat="43.13481" lon="3.07841">
        <ele>165</ele>
        <time>2025-12-29T14:20:50.802Z</time>
      </trkpt>
      <trkpt lat="43.1348" lon="3.07841">
        <ele>164</ele>
        <time>2025-12-29T14:20:51.802Z</time>
      </trkpt>
      <trkpt lat="43.1348" lon="3.07841">
        <ele>164</ele>
        <time>2025-12-29T14:20:52.802Z</time>
      </trkpt>
      <trkpt lat="43.13479" lon="3.0784">
        <ele>164</ele>
        <time>2025-12-29T14:20:53.802Z</time>
      </trkpt>
      <trkpt lat="43.13478" lon="3.0784">
        <ele>164</ele>
        <time>2025-12-29T14:20:54.802Z</time>
      </trkpt>
      <trkpt lat="43.13476" lon="3.07839">
        <ele>164</ele>
        <time>2025-12-29T14:20:55.802Z</time>
      </trkpt>
      <trkpt lat="43.13474" lon="3.07838">
        <ele>164</ele>
        <time>2025-12-29T14:20:56.802Z</time>
      </trkpt>
      <trkpt lat="43.13473" lon="3.07838">
        <ele>164</ele>
        <time>2025-12-29T14:20:57.802Z</time>
      </trkpt>
      <trkpt lat="43.13471" lon="3.07838">
        <ele>165</ele>
        <time>2025-12-29T14:20:58.802Z</time>
      </trkpt>
      <trkpt lat="43.13469" lon="3.07839">
        <ele>165</ele>
        <time>2025-12-29T14:20:59.802Z</time>
      </trkpt>
      <trkpt lat="43.13468" lon="3.07839">
        <ele>165</ele>
        <time>2025-12-29T14:21:00.802Z</time>
      </trkpt>
      <trkpt lat="43.13466" lon="3.07839">
        <ele>165</ele>
        <time>2025-12-29T14:21:01.802Z</time>
      </trkpt>
      <trkpt lat="43.13465" lon="3.07839">
        <ele>165</ele>
        <time>2025-12-29T14:21:02.802Z</time>
      </trkpt>
      <trkpt lat="43.13463" lon="3.07838">
        <ele>166</ele>
        <time>2025-12-29T14:21:03.802Z</time>
      </trkpt>
      <trkpt lat="43.13462" lon="3.07838">
        <ele>166</ele>
        <time>2025-12-29T14:21:04.802Z</time>
      </trkpt>
      <trkpt lat="43.13461" lon="3.07838">
        <ele>166</ele>
        <time>2025-12-29T14:21:05.802Z</time>
      </trkpt>
      <trkpt lat="43.13459" lon="3.07837">
        <ele>166</ele>
        <time>2025-12-29T14:21:06.802Z</time>
      </trkpt>
      <trkpt lat="43.13457" lon="3.07836">
        <ele>166</ele>
        <time>2025-12-29T14:21:07.802Z</time>
      </trkpt>
      <trkpt lat="43.13457" lon="3.07835">
        <ele>167</ele>
        <time>2025-12-29T14:21:08.802Z</time>
      </trkpt>
      <trkpt lat="43.13456" lon="3.07834">
        <ele>167</ele>
        <time>2025-12-29T14:21:09.802Z</time>
      </trkpt>
      <trkpt lat="43.13455" lon="3.07833">
        <ele>167</ele>
        <time>2025-12-29T14:21:10.802Z</time>
      </trkpt>
      <trkpt lat="43.13453" lon="3.07832">
        <ele>167</ele>
        <time>2025-12-29T14:21:11.802Z</time>
      </trkpt>
      <trkpt lat="43.13452" lon="3.07831">
        <ele>167</ele>
        <time>2025-12-29T14:21:12.802Z</time>
      </trkpt>
      <trkpt lat="43.13451" lon="3.07829">
        <ele>167</ele>
        <time>2025-12-29T14:21:13.802Z</time>
      </trkpt>
      <trkpt lat="43.13449" lon="3.07828">
        <ele>167</ele>
        <time>2025-12-29T14:21:14.802Z</time>
      </trkpt>
      <trkpt lat="43.13448" lon="3.07827">
        <ele>168</ele>
        <time>2025-12-29T14:21:15.802Z</time>
      </trkpt>
      <trkpt lat="43.13446" lon="3.07826">
        <ele>168</ele>
        <time>2025-12-29T14:21:16.802Z</time>
      </trkpt>
      <trkpt lat="43.13444" lon="3.07825">
        <ele>168</ele>
        <time>2025-12-29T14:21:17.802Z</time>
      </trkpt>
      <trkpt lat="43.13443" lon="3.07825">
        <ele>168</ele>
        <time>2025-12-29T14:21:18.802Z</time>
      </trkpt>
      <trkpt lat="43.13441" lon="3.07825">
        <ele>168</ele>
        <time>2025-12-29T14:21:19.802Z</time>
      </trkpt>
      <trkpt lat="43.13439" lon="3.07825">
        <ele>168</ele>
        <time>2025-12-29T14:21:20.802Z</time>
      </trkpt>
      <trkpt lat="43.13437" lon="3.07825">
        <ele>169</ele>
        <time>2025-12-29T14:21:21.802Z</time>
      </trkpt>
      <trkpt lat="43.13435" lon="3.07826">
        <ele>169</ele>
        <time>2025-12-29T14:21:22.802Z</time>
      </trkpt>
      <trkpt lat="43.13434" lon="3.07826">
        <ele>169</ele>
        <time>2025-12-29T14:21:23.802Z</time>
      </trkpt>
      <trkpt lat="43.13433" lon="3.07826">
        <ele>168</ele>
        <time>2025-12-29T14:21:24.802Z</time>
      </trkpt>
      <trkpt lat="43.13431" lon="3.07827">
        <ele>168</ele>
        <time>2025-12-29T14:21:25.802Z</time>
      </trkpt>
      <trkpt lat="43.1343" lon="3.07828">
        <ele>168</ele>
        <time>2025-12-29T14:21:26.802Z</time>
      </trkpt>
      <trkpt lat="43.13429" lon="3.07829">
        <ele>168</ele>
        <time>2025-12-29T14:21:27.802Z</time>
      </trkpt>
      <trkpt lat="43.13428" lon="3.07831">
        <ele>167</ele>
        <time>2025-12-29T14:21:28.802Z</time>
      </trkpt>
      <trkpt lat="43.13427" lon="3.07833">
        <ele>167</ele>
        <time>2025-12-29T14:21:29.802Z</time>
      </trkpt>
      <trkpt lat="43.13426" lon="3.07835">
        <ele>167</ele>
        <time>2025-12-29T14:21:30.802Z</time>
      </trkpt>
      <trkpt lat="43.13425" lon="3.07836">
        <ele>166</ele>
        <time>2025-12-29T14:21:31.802Z</time>
      </trkpt>
      <trkpt lat="43.13424" lon="3.07838">
        <ele>166</ele>
        <time>2025-12-29T14:21:32.802Z</time>
      </trkpt>
      <trkpt lat="43.13423" lon="3.0784">
        <ele>166</ele>
        <time>2025-12-29T14:21:33.802Z</time>
      </trkpt>
      <trkpt lat="43.13423" lon="3.07842">
        <ele>166</ele>
        <time>2025-12-29T14:21:34.802Z</time>
      </trkpt>
      <trkpt lat="43.13422" lon="3.07844">
        <ele>166</ele>
        <time>2025-12-29T14:21:35.802Z</time>
      </trkpt>
      <trkpt lat="43.13422" lon="3.07846">
        <ele>166</ele>
        <time>2025-12-29T14:21:36.802Z</time>
      </trkpt>
      <trkpt lat="43.13421" lon="3.07847">
        <ele>165</ele>
        <time>2025-12-29T14:21:37.802Z</time>
      </trkpt>
      <trkpt lat="43.1342" lon="3.07849">
        <ele>165</ele>
        <time>2025-12-29T14:21:38.802Z</time>
      </trkpt>
      <trkpt lat="43.1342" lon="3.0785">
        <ele>164</ele>
        <time>2025-12-29T14:21:39.802Z</time>
      </trkpt>
      <trkpt lat="43.13419" lon="3.07851">
        <ele>164</ele>
        <time>2025-12-29T14:21:40.802Z</time>
      </trkpt>
      <trkpt lat="43.13419" lon="3.07852">
        <ele>164</ele>
        <time>2025-12-29T14:21:41.802Z</time>
      </trkpt>
      <trkpt lat="43.13418" lon="3.07853">
        <ele>164</ele>
        <time>2025-12-29T14:21:42.802Z</time>
      </trkpt>
      <trkpt lat="43.13417" lon="3.07854">
        <ele>164</ele>
        <time>2025-12-29T14:21:43.802Z</time>
      </trkpt>
      <trkpt lat="43.13417" lon="3.07855">
        <ele>164</ele>
        <time>2025-12-29T14:21:44.802Z</time>
      </trkpt>
      <trkpt lat="43.13416" lon="3.07855">
        <ele>164</ele>
        <time>2025-12-29T14:21:45.802Z</time>
      </trkpt>
      <trkpt lat="43.13415" lon="3.07856">
        <ele>164</ele>
        <time>2025-12-29T14:21:46.802Z</time>
      </trkpt>
      <trkpt lat="43.13413" lon="3.07856">
        <ele>164</ele>
        <time>2025-12-29T14:21:47.802Z</time>
      </trkpt>
      <trkpt lat="43.13412" lon="3.07856">
        <ele>164</ele>
        <time>2025-12-29T14:21:48.802Z</time>
      </trkpt>
      <trkpt lat="43.13411" lon="3.07856">
        <ele>164</ele>
        <time>2025-12-29T14:21:49.802Z</time>
      </trkpt>
      <trkpt lat="43.13409" lon="3.07857">
        <ele>164</ele>
        <time>2025-12-29T14:21:50.802Z</time>
      </trkpt>
      <trkpt lat="43.13408" lon="3.07857">
        <ele>164</ele>
        <time>2025-12-29T14:21:51.802Z</time>
      </trkpt>
      <trkpt lat="43.13407" lon="3.07857">
        <ele>165</ele>
        <time>2025-12-29T14:21:52.802Z</time>
      </trkpt>
      <trkpt lat="43.13406" lon="3.07857">
        <ele>165</ele>
        <time>2025-12-29T14:21:53.802Z</time>
      </trkpt>
      <trkpt lat="43.13405" lon="3.07858">
        <ele>165</ele>
        <time>2025-12-29T14:21:54.802Z</time>
      </trkpt>
      <trkpt lat="43.13404" lon="3.07857">
        <ele>166</ele>
        <time>2025-12-29T14:21:55.802Z</time>
      </trkpt>
      <trkpt lat="43.13403" lon="3.07858">
        <ele>166</ele>
        <time>2025-12-29T14:21:56.802Z</time>
      </trkpt>
      <trkpt lat="43.13402" lon="3.07858">
        <ele>166</ele>
        <time>2025-12-29T14:21:57.802Z</time>
      </trkpt>
      <trkpt lat="43.134" lon="3.07858">
        <ele>166</ele>
        <time>2025-12-29T14:21:58.802Z</time>
      </trkpt>
      <trkpt lat="43.13397" lon="3.07859">
        <ele>166</ele>
        <time>2025-12-29T14:21:59.802Z</time>
      </trkpt>
      <trkpt lat="43.13395" lon="3.0786">
        <ele>166</ele>
        <time>2025-12-29T14:22:00.802Z</time>
      </trkpt>
      <trkpt lat="43.13394" lon="3.0786">
        <ele>166</ele>
        <time>2025-12-29T14:22:01.802Z</time>
      </trkpt>
      <trkpt lat="43.13392" lon="3.0786">
        <ele>167</ele>
        <time>2025-12-29T14:22:02.802Z</time>
      </trkpt>
      <trkpt lat="43.1339" lon="3.0786">
        <ele>167</ele>
        <time>2025-12-29T14:22:03.802Z</time>
      </trkpt>
      <trkpt lat="43.13389" lon="3.07859">
        <ele>167</ele>
        <time>2025-12-29T14:22:04.802Z</time>
      </trkpt>
      <trkpt lat="43.13387" lon="3.07858">
        <ele>167</ele>
        <time>2025-12-29T14:22:05.802Z</time>
      </trkpt>
      <trkpt lat="43.13386" lon="3.07858">
        <ele>167</ele>
        <time>2025-12-29T14:22:06.802Z</time>
      </trkpt>
      <trkpt lat="43.13384" lon="3.07858">
        <ele>167</ele>
        <time>2025-12-29T14:22:07.802Z</time>
      </trkpt>
      <trkpt lat="43.13383" lon="3.07858">
        <ele>166</ele>
        <time>2025-12-29T14:22:08.802Z</time>
      </trkpt>
      <trkpt lat="43.13381" lon="3.07857">
        <ele>166</ele>
        <time>2025-12-29T14:22:09.802Z</time>
      </trkpt>
      <trkpt lat="43.1338" lon="3.07857">
        <ele>166</ele>
        <time>2025-12-29T14:22:10.802Z</time>
      </trkpt>
      <trkpt lat="43.13379" lon="3.07857">
        <ele>166</ele>
        <time>2025-12-29T14:22:11.802Z</time>
      </trkpt>
      <trkpt lat="43.13378" lon="3.07857">
        <ele>166</ele>
        <time>2025-12-29T14:22:12.802Z</time>
      </trkpt>
      <trkpt lat="43.13376" lon="3.07857">
        <ele>165</ele>
        <time>2025-12-29T14:22:13.802Z</time>
      </trkpt>
      <trkpt lat="43.13375" lon="3.07857">
        <ele>165</ele>
        <time>2025-12-29T14:22:14.802Z</time>
      </trkpt>
      <trkpt lat="43.13374" lon="3.07857">
        <ele>165</ele>
        <time>2025-12-29T14:22:15.802Z</time>
      </trkpt>
      <trkpt lat="43.13372" lon="3.07857">
        <ele>165</ele>
        <time>2025-12-29T14:22:16.802Z</time>
      </trkpt>
      <trkpt lat="43.13371" lon="3.07857">
        <ele>165</ele>
        <time>2025-12-29T14:22:17.802Z</time>
      </trkpt>
      <trkpt lat="43.13369" lon="3.07857">
        <ele>165</ele>
        <time>2025-12-29T14:22:18.802Z</time>
      </trkpt>
      <trkpt lat="43.13367" lon="3.07857">
        <ele>165</ele>
        <time>2025-12-29T14:22:19.802Z</time>
      </trkpt>
      <trkpt lat="43.13366" lon="3.07857">
        <ele>165</ele>
        <time>2025-12-29T14:22:20.802Z</time>
      </trkpt>
      <trkpt lat="43.13364" lon="3.07856">
        <ele>165</ele>
        <time>2025-12-29T14:22:21.802Z</time>
      </trkpt>
      <trkpt lat="43.13362" lon="3.07856">
        <ele>165</ele>
        <time>2025-12-29T14:22:22.802Z</time>
      </trkpt>
      <trkpt lat="43.13361" lon="3.07856">
        <ele>165</ele>
        <time>2025-12-29T14:22:23.802Z</time>
      </trkpt>
      <trkpt lat="43.13359" lon="3.07855">
        <ele>165</ele>
        <time>2025-12-29T14:22:24.802Z</time>
      </trkpt>
      <trkpt lat="43.13357" lon="3.07855">
        <ele>165</ele>
        <time>2025-12-29T14:22:25.802Z</time>
      </trkpt>
      <trkpt lat="43.13355" lon="3.07855">
        <ele>166</ele>
        <time>2025-12-29T14:22:26.802Z</time>
      </trkpt>
      <trkpt lat="43.13354" lon="3.07855">
        <ele>166</ele>
        <time>2025-12-29T14:22:27.802Z</time>
      </trkpt>
      <trkpt lat="43.13353" lon="3.07854">
        <ele>166</ele>
        <time>2025-12-29T14:22:28.802Z</time>
      </trkpt>
      <trkpt lat="43.13351" lon="3.07854">
        <ele>166</ele>
        <time>2025-12-29T14:22:29.802Z</time>
      </trkpt>
      <trkpt lat="43.1335" lon="3.07853">
        <ele>166</ele>
        <time>2025-12-29T14:22:30.802Z</time>
      </trkpt>
      <trkpt lat="43.13349" lon="3.07852">
        <ele>166</ele>
        <time>2025-12-29T14:22:31.802Z</time>
      </trkpt>
      <trkpt lat="43.13347" lon="3.07852">
        <ele>166</ele>
        <time>2025-12-29T14:22:32.802Z</time>
      </trkpt>
      <trkpt lat="43.13346" lon="3.07852">
        <ele>166</ele>
        <time>2025-12-29T14:22:33.802Z</time>
      </trkpt>
      <trkpt lat="43.13345" lon="3.07852">
        <ele>166</ele>
        <time>2025-12-29T14:22:34.802Z</time>
      </trkpt>
      <trkpt lat="43.13344" lon="3.07853">
        <ele>166</ele>
        <time>2025-12-29T14:22:35.802Z</time>
      </trkpt>
      <trkpt lat="43.13343" lon="3.07853">
        <ele>166</ele>
        <time>2025-12-29T14:22:36.802Z</time>
      </trkpt>
      <trkpt lat="43.13343" lon="3.07853">
        <ele>165</ele>
        <time>2025-12-29T14:22:37.802Z</time>
      </trkpt>
      <trkpt lat="43.13341" lon="3.07853">
        <ele>165</ele>
        <time>2025-12-29T14:22:38.802Z</time>
      </trkpt>
      <trkpt lat="43.13339" lon="3.07851">
        <ele>165</ele>
        <time>2025-12-29T14:22:39.802Z</time>
      </trkpt>
      <trkpt lat="43.13338" lon="3.0785">
        <ele>165</ele>
        <time>2025-12-29T14:22:40.802Z</time>
      </trkpt>
      <trkpt lat="43.13336" lon="3.07849">
        <ele>164</ele>
        <time>2025-12-29T14:22:41.802Z</time>
      </trkpt>
      <trkpt lat="43.13334" lon="3.07848">
        <ele>164</ele>
        <time>2025-12-29T14:22:42.802Z</time>
      </trkpt>
      <trkpt lat="43.13333" lon="3.07847">
        <ele>163</ele>
        <time>2025-12-29T14:22:43.802Z</time>
      </trkpt>
      <trkpt lat="43.13332" lon="3.07846">
        <ele>163</ele>
        <time>2025-12-29T14:22:44.802Z</time>
      </trkpt>
      <trkpt lat="43.1333" lon="3.07846">
        <ele>163</ele>
        <time>2025-12-29T14:22:45.802Z</time>
      </trkpt>
      <trkpt lat="43.13329" lon="3.07846">
        <ele>163</ele>
        <time>2025-12-29T14:22:46.802Z</time>
      </trkpt>
      <trkpt lat="43.13327" lon="3.07846">
        <ele>163</ele>
        <time>2025-12-29T14:22:47.802Z</time>
      </trkpt>
      <trkpt lat="43.13326" lon="3.07847">
        <ele>163</ele>
        <time>2025-12-29T14:22:48.802Z</time>
      </trkpt>
      <trkpt lat="43.13325" lon="3.07848">
        <ele>162</ele>
        <time>2025-12-29T14:22:49.802Z</time>
      </trkpt>
      <trkpt lat="43.13323" lon="3.07849">
        <ele>162</ele>
        <time>2025-12-29T14:22:50.802Z</time>
      </trkpt>
      <trkpt lat="43.13322" lon="3.0785">
        <ele>162</ele>
        <time>2025-12-29T14:22:51.802Z</time>
      </trkpt>
      <trkpt lat="43.1332" lon="3.0785">
        <ele>162</ele>
        <time>2025-12-29T14:22:52.802Z</time>
      </trkpt>
      <trkpt lat="43.13318" lon="3.07851">
        <ele>162</ele>
        <time>2025-12-29T14:22:53.802Z</time>
      </trkpt>
      <trkpt lat="43.13314" lon="3.07853">
        <ele>161</ele>
        <time>2025-12-29T14:22:54.802Z</time>
      </trkpt>
      <trkpt lat="43.13312" lon="3.07854">
        <ele>161</ele>
        <time>2025-12-29T14:22:55.802Z</time>
      </trkpt>
      <trkpt lat="43.1331" lon="3.07854">
        <ele>161</ele>
        <time>2025-12-29T14:22:56.802Z</time>
      </trkpt>
      <trkpt lat="43.13309" lon="3.07854">
        <ele>160</ele>
        <time>2025-12-29T14:22:57.802Z</time>
      </trkpt>
      <trkpt lat="43.13307" lon="3.07852">
        <ele>160</ele>
        <time>2025-12-29T14:22:58.802Z</time>
      </trkpt>
      <trkpt lat="43.13305" lon="3.07851">
        <ele>160</ele>
        <time>2025-12-29T14:22:59.802Z</time>
      </trkpt>
      <trkpt lat="43.13304" lon="3.07847">
        <ele>160</ele>
        <time>2025-12-29T14:23:00.802Z</time>
      </trkpt>
      <trkpt lat="43.13303" lon="3.07846">
        <ele>159</ele>
        <time>2025-12-29T14:23:01.802Z</time>
      </trkpt>
      <trkpt lat="43.13301" lon="3.07844">
        <ele>159</ele>
        <time>2025-12-29T14:23:02.802Z</time>
      </trkpt>
      <trkpt lat="43.13302" lon="3.07842">
        <ele>159</ele>
        <time>2025-12-29T14:23:03.802Z</time>
      </trkpt>
      <trkpt lat="43.13301" lon="3.0784">
        <ele>159</ele>
        <time>2025-12-29T14:23:04.802Z</time>
      </trkpt>
      <trkpt lat="43.133" lon="3.07838">
        <ele>159</ele>
        <time>2025-12-29T14:23:05.802Z</time>
      </trkpt>
      <trkpt lat="43.13298" lon="3.07837">
        <ele>159</ele>
        <time>2025-12-29T14:23:06.802Z</time>
      </trkpt>
      <trkpt lat="43.13296" lon="3.07836">
        <ele>159</ele>
        <time>2025-12-29T14:23:07.802Z</time>
      </trkpt>
      <trkpt lat="43.13293" lon="3.07835">
        <ele>159</ele>
        <time>2025-12-29T14:23:08.802Z</time>
      </trkpt>
      <trkpt lat="43.1329" lon="3.07835">
        <ele>160</ele>
        <time>2025-12-29T14:23:09.802Z</time>
      </trkpt>
      <trkpt lat="43.13288" lon="3.07835">
        <ele>160</ele>
        <time>2025-12-29T14:23:10.802Z</time>
      </trkpt>
      <trkpt lat="43.13286" lon="3.07836">
        <ele>161</ele>
        <time>2025-12-29T14:23:11.802Z</time>
      </trkpt>
      <trkpt lat="43.13284" lon="3.07835">
        <ele>161</ele>
        <time>2025-12-29T14:23:12.802Z</time>
      </trkpt>
      <trkpt lat="43.13283" lon="3.07834">
        <ele>161</ele>
        <time>2025-12-29T14:23:13.802Z</time>
      </trkpt>
      <trkpt lat="43.13282" lon="3.07834">
        <ele>161</ele>
        <time>2025-12-29T14:23:14.802Z</time>
      </trkpt>
      <trkpt lat="43.13281" lon="3.07833">
        <ele>161</ele>
        <time>2025-12-29T14:23:15.802Z</time>
      </trkpt>
      <trkpt lat="43.1328" lon="3.07834">
        <ele>161</ele>
        <time>2025-12-29T14:23:16.802Z</time>
      </trkpt>
      <trkpt lat="43.1328" lon="3.07837">
        <ele>161</ele>
        <time>2025-12-29T14:23:17.802Z</time>
      </trkpt>
      <trkpt lat="43.13279" lon="3.07837">
        <ele>161</ele>
        <time>2025-12-29T14:23:18.802Z</time>
      </trkpt>
      <trkpt lat="43.13276" lon="3.07839">
        <ele>161</ele>
        <time>2025-12-29T14:23:19.802Z</time>
      </trkpt>
      <trkpt lat="43.13275" lon="3.0784">
        <ele>161</ele>
        <time>2025-12-29T14:23:20.802Z</time>
      </trkpt>
      <trkpt lat="43.13273" lon="3.0784">
        <ele>161</ele>
        <time>2025-12-29T14:23:21.802Z</time>
      </trkpt>
      <trkpt lat="43.13272" lon="3.0784">
        <ele>161</ele>
        <time>2025-12-29T14:23:22.802Z</time>
      </trkpt>
      <trkpt lat="43.13272" lon="3.0784">
        <ele>160</ele>
        <time>2025-12-29T14:23:23.802Z</time>
      </trkpt>
      <trkpt lat="43.13271" lon="3.07841">
        <ele>160</ele>
        <time>2025-12-29T14:23:24.802Z</time>
      </trkpt>
      <trkpt lat="43.1327" lon="3.07842">
        <ele>159</ele>
        <time>2025-12-29T14:23:25.802Z</time>
      </trkpt>
      <trkpt lat="43.13269" lon="3.07841">
        <ele>159</ele>
        <time>2025-12-29T14:23:26.802Z</time>
      </trkpt>
      <trkpt lat="43.13267" lon="3.07841">
        <ele>158</ele>
        <time>2025-12-29T14:23:27.802Z</time>
      </trkpt>
      <trkpt lat="43.13266" lon="3.0784">
        <ele>158</ele>
        <time>2025-12-29T14:23:28.802Z</time>
      </trkpt>
      <trkpt lat="43.13265" lon="3.07839">
        <ele>158</ele>
        <time>2025-12-29T14:23:29.802Z</time>
      </trkpt>
      <trkpt lat="43.13264" lon="3.07839">
        <ele>158</ele>
        <time>2025-12-29T14:23:30.802Z</time>
      </trkpt>
      <trkpt lat="43.13263" lon="3.07839">
        <ele>158</ele>
        <time>2025-12-29T14:23:31.802Z</time>
      </trkpt>
      <trkpt lat="43.13262" lon="3.07839">
        <ele>158</ele>
        <time>2025-12-29T14:23:32.802Z</time>
      </trkpt>
      <trkpt lat="43.13261" lon="3.07839">
        <ele>158</ele>
        <time>2025-12-29T14:23:33.802Z</time>
      </trkpt>
      <trkpt lat="43.1326" lon="3.07839">
        <ele>158</ele>
        <time>2025-12-29T14:23:34.802Z</time>
      </trkpt>
      <trkpt lat="43.13258" lon="3.07839">
        <ele>157</ele>
        <time>2025-12-29T14:23:35.802Z</time>
      </trkpt>
      <trkpt lat="43.13257" lon="3.07838">
        <ele>157</ele>
        <time>2025-12-29T14:23:36.802Z</time>
      </trkpt>
      <trkpt lat="43.13256" lon="3.07838">
        <ele>157</ele>
        <time>2025-12-29T14:23:37.802Z</time>
      </trkpt>
      <trkpt lat="43.13256" lon="3.07837">
        <ele>157</ele>
        <time>2025-12-29T14:23:38.802Z</time>
      </trkpt>
      <trkpt lat="43.13256" lon="3.07837">
        <ele>157</ele>
        <time>2025-12-29T14:23:39.802Z</time>
      </trkpt>
      <trkpt lat="43.13255" lon="3.07836">
        <ele>157</ele>
        <time>2025-12-29T14:23:40.802Z</time>
      </trkpt>
      <trkpt lat="43.13254" lon="3.07836">
        <ele>158</ele>
        <time>2025-12-29T14:23:41.802Z</time>
      </trkpt>
      <trkpt lat="43.13254" lon="3.07835">
        <ele>158</ele>
        <time>2025-12-29T14:23:42.802Z</time>
      </trkpt>
      <trkpt lat="43.13254" lon="3.07835">
        <ele>157</ele>
        <time>2025-12-29T14:23:43.802Z</time>
      </trkpt>
      <trkpt lat="43.13253" lon="3.07835">
        <ele>157</ele>
        <time>2025-12-29T14:23:44.802Z</time>
      </trkpt>
      <trkpt lat="43.13253" lon="3.07834">
        <ele>156</ele>
        <time>2025-12-29T14:23:45.802Z</time>
      </trkpt>
      <trkpt lat="43.13252" lon="3.07833">
        <ele>156</ele>
        <time>2025-12-29T14:23:46.802Z</time>
      </trkpt>
      <trkpt lat="43.13251" lon="3.07831">
        <ele>156</ele>
        <time>2025-12-29T14:23:47.802Z</time>
      </trkpt>
      <trkpt lat="43.1325" lon="3.07829">
        <ele>156</ele>
        <time>2025-12-29T14:23:48.802Z</time>
      </trkpt>
      <trkpt lat="43.13249" lon="3.07828">
        <ele>156</ele>
        <time>2025-12-29T14:23:49.802Z</time>
      </trkpt>
      <trkpt lat="43.13248" lon="3.07827">
        <ele>156</ele>
        <time>2025-12-29T14:23:50.802Z</time>
      </trkpt>
      <trkpt lat="43.13247" lon="3.07826">
        <ele>156</ele>
        <time>2025-12-29T14:23:51.802Z</time>
      </trkpt>
      <trkpt lat="43.13246" lon="3.07825">
        <ele>156</ele>
        <time>2025-12-29T14:23:52.802Z</time>
      </trkpt>
      <trkpt lat="43.13245" lon="3.07825">
        <ele>156</ele>
        <time>2025-12-29T14:23:53.802Z</time>
      </trkpt>
      <trkpt lat="43.13244" lon="3.07824">
        <ele>156</ele>
        <time>2025-12-29T14:23:54.802Z</time>
      </trkpt>
      <trkpt lat="43.13243" lon="3.07823">
        <ele>156</ele>
        <time>2025-12-29T14:23:55.802Z</time>
      </trkpt>
      <trkpt lat="43.13242" lon="3.07823">
        <ele>156</ele>
        <time>2025-12-29T14:23:56.802Z</time>
      </trkpt>
      <trkpt lat="43.13241" lon="3.07822">
        <ele>156</ele>
        <time>2025-12-29T14:23:57.802Z</time>
      </trkpt>
      <trkpt lat="43.1324" lon="3.07821">
        <ele>156</ele>
        <time>2025-12-29T14:23:58.802Z</time>
      </trkpt>
      <trkpt lat="43.13239" lon="3.07819">
        <ele>156</ele>
        <time>2025-12-29T14:23:59.802Z</time>
      </trkpt>
      <trkpt lat="43.13239" lon="3.07817">
        <ele>156</ele>
        <time>2025-12-29T14:24:00.802Z</time>
      </trkpt>
      <trkpt lat="43.13238" lon="3.07815">
        <ele>156</ele>
        <time>2025-12-29T14:24:01.802Z</time>
      </trkpt>
      <trkpt lat="43.13238" lon="3.07814">
        <ele>156</ele>
        <time>2025-12-29T14:24:02.802Z</time>
      </trkpt>
      <trkpt lat="43.13238" lon="3.07812">
        <ele>156</ele>
        <time>2025-12-29T14:24:03.802Z</time>
      </trkpt>
      <trkpt lat="43.13238" lon="3.07811">
        <ele>155</ele>
        <time>2025-12-29T14:24:04.802Z</time>
      </trkpt>
      <trkpt lat="43.13238" lon="3.0781">
        <ele>155</ele>
        <time>2025-12-29T14:24:05.802Z</time>
      </trkpt>
      <trkpt lat="43.13237" lon="3.07808">
        <ele>155</ele>
        <time>2025-12-29T14:24:06.802Z</time>
      </trkpt>
      <trkpt lat="43.13237" lon="3.07806">
        <ele>155</ele>
        <time>2025-12-29T14:24:07.802Z</time>
      </trkpt>
      <trkpt lat="43.13236" lon="3.07804">
        <ele>154</ele>
        <time>2025-12-29T14:24:08.802Z</time>
      </trkpt>
      <trkpt lat="43.13236" lon="3.07802">
        <ele>154</ele>
        <time>2025-12-29T14:24:09.802Z</time>
      </trkpt>
      <trkpt lat="43.13236" lon="3.078">
        <ele>154</ele>
        <time>2025-12-29T14:24:10.802Z</time>
      </trkpt>
      <trkpt lat="43.13235" lon="3.07798">
        <ele>153</ele>
        <time>2025-12-29T14:24:11.802Z</time>
      </trkpt>
      <trkpt lat="43.13234" lon="3.07797">
        <ele>153</ele>
        <time>2025-12-29T14:24:12.802Z</time>
      </trkpt>
      <trkpt lat="43.13234" lon="3.07794">
        <ele>153</ele>
        <time>2025-12-29T14:24:13.802Z</time>
      </trkpt>
      <trkpt lat="43.13234" lon="3.07793">
        <ele>153</ele>
        <time>2025-12-29T14:24:14.802Z</time>
      </trkpt>
      <trkpt lat="43.13233" lon="3.07792">
        <ele>152</ele>
        <time>2025-12-29T14:24:15.802Z</time>
      </trkpt>
      <trkpt lat="43.13233" lon="3.0779">
        <ele>152</ele>
        <time>2025-12-29T14:24:16.802Z</time>
      </trkpt>
      <trkpt lat="43.13232" lon="3.07788">
        <ele>152</ele>
        <time>2025-12-29T14:24:17.802Z</time>
      </trkpt>
      <trkpt lat="43.13231" lon="3.07786">
        <ele>152</ele>
        <time>2025-12-29T14:24:18.802Z</time>
      </trkpt>
      <trkpt lat="43.13231" lon="3.07785">
        <ele>152</ele>
        <time>2025-12-29T14:24:19.802Z</time>
      </trkpt>
      <trkpt lat="43.13231" lon="3.07783">
        <ele>152</ele>
        <time>2025-12-29T14:24:20.802Z</time>
      </trkpt>
      <trkpt lat="43.1323" lon="3.07781">
        <ele>152</ele>
        <time>2025-12-29T14:24:21.802Z</time>
      </trkpt>
      <trkpt lat="43.13229" lon="3.07779">
        <ele>153</ele>
        <time>2025-12-29T14:24:22.802Z</time>
      </trkpt>
      <trkpt lat="43.13229" lon="3.07777">
        <ele>153</ele>
        <time>2025-12-29T14:24:23.802Z</time>
      </trkpt>
      <trkpt lat="43.13228" lon="3.07776">
        <ele>153</ele>
        <time>2025-12-29T14:24:24.802Z</time>
      </trkpt>
      <trkpt lat="43.13228" lon="3.07774">
        <ele>153</ele>
        <time>2025-12-29T14:24:25.802Z</time>
      </trkpt>
      <trkpt lat="43.13228" lon="3.07772">
        <ele>153</ele>
        <time>2025-12-29T14:24:26.802Z</time>
      </trkpt>
      <trkpt lat="43.13228" lon="3.07771">
        <ele>153</ele>
        <time>2025-12-29T14:24:27.802Z</time>
      </trkpt>
      <trkpt lat="43.13227" lon="3.07769">
        <ele>153</ele>
        <time>2025-12-29T14:24:28.802Z</time>
      </trkpt>
      <trkpt lat="43.13228" lon="3.07767">
        <ele>153</ele>
        <time>2025-12-29T14:24:29.802Z</time>
      </trkpt>
      <trkpt lat="43.13228" lon="3.07766">
        <ele>153</ele>
        <time>2025-12-29T14:24:30.802Z</time>
      </trkpt>
      <trkpt lat="43.13229" lon="3.07765">
        <ele>153</ele>
        <time>2025-12-29T14:24:31.802Z</time>
      </trkpt>
      <trkpt lat="43.13229" lon="3.07764">
        <ele>153</ele>
        <time>2025-12-29T14:24:32.802Z</time>
      </trkpt>
      <trkpt lat="43.13229" lon="3.07762">
        <ele>152</ele>
        <time>2025-12-29T14:24:33.802Z</time>
      </trkpt>
      <trkpt lat="43.13229" lon="3.07762">
        <ele>152</ele>
        <time>2025-12-29T14:24:34.802Z</time>
      </trkpt>
      <trkpt lat="43.13229" lon="3.07761">
        <ele>152</ele>
        <time>2025-12-29T14:24:35.802Z</time>
      </trkpt>
      <trkpt lat="43.13229" lon="3.0776">
        <ele>152</ele>
        <time>2025-12-29T14:24:36.802Z</time>
      </trkpt>
      <trkpt lat="43.1323" lon="3.07759">
        <ele>152</ele>
        <time>2025-12-29T14:24:37.802Z</time>
      </trkpt>
      <trkpt lat="43.1323" lon="3.07758">
        <ele>152</ele>
        <time>2025-12-29T14:24:38.802Z</time>
      </trkpt>
      <trkpt lat="43.1323" lon="3.07758">
        <ele>152</ele>
        <time>2025-12-29T14:24:39.802Z</time>
      </trkpt>
      <trkpt lat="43.1323" lon="3.07757">
        <ele>152</ele>
        <time>2025-12-29T14:24:40.802Z</time>
      </trkpt>
      <trkpt lat="43.1323" lon="3.07757">
        <ele>152</ele>
        <time>2025-12-29T14:24:41.802Z</time>
      </trkpt>
      <trkpt lat="43.1323" lon="3.07756">
        <ele>153</ele>
        <time>2025-12-29T14:24:42.802Z</time>
      </trkpt>
      <trkpt lat="43.13231" lon="3.07755">
        <ele>153</ele>
        <time>2025-12-29T14:24:43.802Z</time>
      </trkpt>
      <trkpt lat="43.13231" lon="3.07754">
        <ele>154</ele>
        <time>2025-12-29T14:24:44.802Z</time>
      </trkpt>
      <trkpt lat="43.13231" lon="3.07754">
        <ele>154</ele>
        <time>2025-12-29T14:24:45.802Z</time>
      </trkpt>
      <trkpt lat="43.13231" lon="3.07753">
        <ele>154</ele>
        <time>2025-12-29T14:24:46.802Z</time>
      </trkpt>
      <trkpt lat="43.13231" lon="3.07752">
        <ele>155</ele>
        <time>2025-12-29T14:24:47.802Z</time>
      </trkpt>
      <trkpt lat="43.13231" lon="3.07752">
        <ele>155</ele>
        <time>2025-12-29T14:24:48.802Z</time>
      </trkpt>
      <trkpt lat="43.13231" lon="3.07751">
        <ele>155</ele>
        <time>2025-12-29T14:24:49.802Z</time>
      </trkpt>
      <trkpt lat="43.13231" lon="3.0775">
        <ele>154</ele>
        <time>2025-12-29T14:24:50.802Z</time>
      </trkpt>
      <trkpt lat="43.13231" lon="3.07749">
        <ele>154</ele>
        <time>2025-12-29T14:24:51.802Z</time>
      </trkpt>
      <trkpt lat="43.13232" lon="3.07748">
        <ele>154</ele>
        <time>2025-12-29T14:24:52.802Z</time>
      </trkpt>
      <trkpt lat="43.13232" lon="3.07748">
        <ele>154</ele>
        <time>2025-12-29T14:24:53.802Z</time>
      </trkpt>
      <trkpt lat="43.13232" lon="3.07748">
        <ele>154</ele>
        <time>2025-12-29T14:24:54.802Z</time>
      </trkpt>
      <trkpt lat="43.13232" lon="3.07747">
        <ele>154</ele>
        <time>2025-12-29T14:24:55.802Z</time>
      </trkpt>
      <trkpt lat="43.13232" lon="3.07747">
        <ele>154</ele>
        <time>2025-12-29T14:24:56.802Z</time>
      </trkpt>
      <trkpt lat="43.13232" lon="3.07747">
        <ele>154</ele>
        <time>2025-12-29T14:24:57.802Z</time>
      </trkpt>
      <trkpt lat="43.13231" lon="3.07746">
        <ele>153</ele>
        <time>2025-12-29T14:24:58.802Z</time>
      </trkpt>
      <trkpt lat="43.13231" lon="3.07746">
        <ele>153</ele>
        <time>2025-12-29T14:24:59.802Z</time>
      </trkpt>
      <trkpt lat="43.13231" lon="3.07745">
        <ele>153</ele>
        <time>2025-12-29T14:25:00.802Z</time>
      </trkpt>
      <trkpt lat="43.13231" lon="3.07745">
        <ele>153</ele>
        <time>2025-12-29T14:25:01.802Z</time>
      </trkpt>
      <trkpt lat="43.13231" lon="3.07745">
        <ele>153</ele>
        <time>2025-12-29T14:25:02.802Z</time>
      </trkpt>
      <trkpt lat="43.13231" lon="3.07744">
        <ele>153</ele>
        <time>2025-12-29T14:25:03.802Z</time>
      </trkpt>
      <trkpt lat="43.13231" lon="3.07743">
        <ele>153</ele>
        <time>2025-12-29T14:25:04.802Z</time>
      </trkpt>
      <trkpt lat="43.13231" lon="3.07743">
        <ele>153</ele>
        <time>2025-12-29T14:25:05.802Z</time>
      </trkpt>
      <trkpt lat="43.13231" lon="3.07743">
        <ele>153</ele>
        <time>2025-12-29T14:25:06.802Z</time>
      </trkpt>
      <trkpt lat="43.13231" lon="3.07742">
        <ele>153</ele>
        <time>2025-12-29T14:25:07.802Z</time>
      </trkpt>
      <trkpt lat="43.1323" lon="3.07742">
        <ele>153</ele>
        <time>2025-12-29T14:25:08.802Z</time>
      </trkpt>
      <trkpt lat="43.1323" lon="3.07741">
        <ele>154</ele>
        <time>2025-12-29T14:25:09.802Z</time>
      </trkpt>
      <trkpt lat="43.1323" lon="3.07741">
        <ele>154</ele>
        <time>2025-12-29T14:25:10.802Z</time>
      </trkpt>
      <trkpt lat="43.13229" lon="3.07741">
        <ele>154</ele>
        <time>2025-12-29T14:25:11.802Z</time>
      </trkpt>
      <trkpt lat="43.13229" lon="3.07742">
        <ele>154</ele>
        <time>2025-12-29T14:25:12.802Z</time>
      </trkpt>
      <trkpt lat="43.13229" lon="3.07742">
        <ele>155</ele>
        <time>2025-12-29T14:25:13.802Z</time>
      </trkpt>
      <trkpt lat="43.13229" lon="3.07741">
        <ele>155</ele>
        <time>2025-12-29T14:25:14.802Z</time>
      </trkpt>
      <trkpt lat="43.13228" lon="3.07741">
        <ele>155</ele>
        <time>2025-12-29T14:25:15.802Z</time>
      </trkpt>
      <trkpt lat="43.13228" lon="3.0774">
        <ele>155</ele>
        <time>2025-12-29T14:25:16.802Z</time>
      </trkpt>
      <trkpt lat="43.13228" lon="3.07739">
        <ele>155</ele>
        <time>2025-12-29T14:25:17.802Z</time>
      </trkpt>
      <trkpt lat="43.13229" lon="3.07738">
        <ele>154</ele>
        <time>2025-12-29T14:25:18.802Z</time>
      </trkpt>
      <trkpt lat="43.13229" lon="3.07738">
        <ele>154</ele>
        <time>2025-12-29T14:25:19.802Z</time>
      </trkpt>
      <trkpt lat="43.13229" lon="3.07738">
        <ele>153</ele>
        <time>2025-12-29T14:25:20.802Z</time>
      </trkpt>
      <trkpt lat="43.13229" lon="3.07738">
        <ele>153</ele>
        <time>2025-12-29T14:25:21.802Z</time>
      </trkpt>
      <trkpt lat="43.13229" lon="3.07738">
        <ele>152</ele>
        <time>2025-12-29T14:25:22.802Z</time>
      </trkpt>
      <trkpt lat="43.13229" lon="3.07737">
        <ele>151</ele>
        <time>2025-12-29T14:25:23.802Z</time>
      </trkpt>
      <trkpt lat="43.13229" lon="3.07737">
        <ele>150</ele>
        <time>2025-12-29T14:25:24.802Z</time>
      </trkpt>
      <trkpt lat="43.13229" lon="3.07737">
        <ele>149</ele>
        <time>2025-12-29T14:25:25.802Z</time>
      </trkpt>
      <trkpt lat="43.13229" lon="3.07737">
        <ele>149</ele>
        <time>2025-12-29T14:25:26.802Z</time>
      </trkpt>
      <trkpt lat="43.13229" lon="3.07737">
        <ele>149</ele>
        <time>2025-12-29T14:25:27.802Z</time>
      </trkpt>
      <trkpt lat="43.13229" lon="3.07736">
        <ele>148</ele>
        <time>2025-12-29T14:25:28.802Z</time>
      </trkpt>
      <trkpt lat="43.13229" lon="3.07736">
        <ele>148</ele>
        <time>2025-12-29T14:25:29.802Z</time>
      </trkpt>
      <trkpt lat="43.13229" lon="3.07736">
        <ele>148</ele>
        <time>2025-12-29T14:25:30.802Z</time>
      </trkpt>
      <trkpt lat="43.13229" lon="3.07735">
        <ele>148</ele>
        <time>2025-12-29T14:25:31.802Z</time>
      </trkpt>
      <trkpt lat="43.13229" lon="3.07734">
        <ele>148</ele>
        <time>2025-12-29T14:25:32.802Z</time>
      </trkpt>
      <trkpt lat="43.13229" lon="3.07733">
        <ele>148</ele>
        <time>2025-12-29T14:25:33.802Z</time>
      </trkpt>
      <trkpt lat="43.13229" lon="3.07733">
        <ele>148</ele>
        <time>2025-12-29T14:25:34.802Z</time>
      </trkpt>
      <trkpt lat="43.13229" lon="3.07732">
        <ele>148</ele>
        <time>2025-12-29T14:25:35.802Z</time>
      </trkpt>
      <trkpt lat="43.13229" lon="3.07732">
        <ele>148</ele>
        <time>2025-12-29T14:25:36.802Z</time>
      </trkpt>
      <trkpt lat="43.13229" lon="3.07732">
        <ele>147</ele>
        <time>2025-12-29T14:25:37.802Z</time>
      </trkpt>
      <trkpt lat="43.13229" lon="3.07731">
        <ele>147</ele>
        <time>2025-12-29T14:25:38.802Z</time>
      </trkpt>
      <trkpt lat="43.13229" lon="3.07731">
        <ele>146</ele>
        <time>2025-12-29T14:25:39.802Z</time>
      </trkpt>
      <trkpt lat="43.13229" lon="3.07731">
        <ele>146</ele>
        <time>2025-12-29T14:25:40.802Z</time>
      </trkpt>
      <trkpt lat="43.13229" lon="3.07731">
        <ele>146</ele>
        <time>2025-12-29T14:25:41.802Z</time>
      </trkpt>
      <trkpt lat="43.13229" lon="3.07731">
        <ele>146</ele>
        <time>2025-12-29T14:25:42.802Z</time>
      </trkpt>
      <trkpt lat="43.13228" lon="3.0773">
        <ele>146</ele>
        <time>2025-12-29T14:25:43.802Z</time>
      </trkpt>
      <trkpt lat="43.13228" lon="3.07729">
        <ele>146</ele>
        <time>2025-12-29T14:25:44.802Z</time>
      </trkpt>
      <trkpt lat="43.13228" lon="3.07729">
        <ele>147</ele>
        <time>2025-12-29T14:25:45.802Z</time>
      </trkpt>
      <trkpt lat="43.13227" lon="3.07729">
        <ele>147</ele>
        <time>2025-12-29T14:25:46.802Z</time>
      </trkpt>
      <trkpt lat="43.13226" lon="3.07729">
        <ele>147</ele>
        <time>2025-12-29T14:25:47.802Z</time>
      </trkpt>
      <trkpt lat="43.13226" lon="3.07729">
        <ele>148</ele>
        <time>2025-12-29T14:25:48.802Z</time>
      </trkpt>
      <trkpt lat="43.13225" lon="3.07728">
        <ele>148</ele>
        <time>2025-12-29T14:25:49.802Z</time>
      </trkpt>
      <trkpt lat="43.13224" lon="3.07728">
        <ele>148</ele>
        <time>2025-12-29T14:25:50.802Z</time>
      </trkpt>
      <trkpt lat="43.13224" lon="3.07728">
        <ele>148</ele>
        <time>2025-12-29T14:25:51.802Z</time>
      </trkpt>
      <trkpt lat="43.13223" lon="3.07728">
        <ele>149</ele>
        <time>2025-12-29T14:25:52.802Z</time>
      </trkpt>
      <trkpt lat="43.13223" lon="3.07727">
        <ele>149</ele>
        <time>2025-12-29T14:25:53.802Z</time>
      </trkpt>
      <trkpt lat="43.13222" lon="3.07727">
        <ele>149</ele>
        <time>2025-12-29T14:25:54.802Z</time>
      </trkpt>
      <trkpt lat="43.13222" lon="3.07726">
        <ele>149</ele>
        <time>2025-12-29T14:25:55.802Z</time>
      </trkpt>
      <trkpt lat="43.13221" lon="3.07726">
        <ele>148</ele>
        <time>2025-12-29T14:25:56.802Z</time>
      </trkpt>
      <trkpt lat="43.13221" lon="3.07726">
        <ele>148</ele>
        <time>2025-12-29T14:25:57.802Z</time>
      </trkpt>
      <trkpt lat="43.1322" lon="3.07726">
        <ele>148</ele>
        <time>2025-12-29T14:25:58.802Z</time>
      </trkpt>
      <trkpt lat="43.1322" lon="3.07725">
        <ele>148</ele>
        <time>2025-12-29T14:25:59.802Z</time>
      </trkpt>
      <trkpt lat="43.1322" lon="3.07725">
        <ele>148</ele>
        <time>2025-12-29T14:26:00.802Z</time>
      </trkpt>
      <trkpt lat="43.1322" lon="3.07724">
        <ele>148</ele>
        <time>2025-12-29T14:26:01.802Z</time>
      </trkpt>
      <trkpt lat="43.1322" lon="3.07724">
        <ele>148</ele>
        <time>2025-12-29T14:26:02.802Z</time>
      </trkpt>
      <trkpt lat="43.1322" lon="3.07724">
        <ele>148</ele>
        <time>2025-12-29T14:26:03.802Z</time>
      </trkpt>
      <trkpt lat="43.1322" lon="3.07723">
        <ele>148</ele>
        <time>2025-12-29T14:26:04.802Z</time>
      </trkpt>
      <trkpt lat="43.1322" lon="3.07723">
        <ele>148</ele>
        <time>2025-12-29T14:26:05.802Z</time>
      </trkpt>
      <trkpt lat="43.1322" lon="3.07723">
        <ele>148</ele>
        <time>2025-12-29T14:26:06.802Z</time>
      </trkpt>
      <trkpt lat="43.1322" lon="3.07723">
        <ele>147</ele>
        <time>2025-12-29T14:26:07.802Z</time>
      </trkpt>
      <trkpt lat="43.1322" lon="3.07723">
        <ele>147</ele>
        <time>2025-12-29T14:26:08.802Z</time>
      </trkpt>
      <trkpt lat="43.1322" lon="3.07723">
        <ele>147</ele>
        <time>2025-12-29T14:26:09.802Z</time>
      </trkpt>
      <trkpt lat="43.13219" lon="3.07723">
        <ele>147</ele>
        <time>2025-12-29T14:26:10.802Z</time>
      </trkpt>
      <trkpt lat="43.13219" lon="3.07724">
        <ele>148</ele>
        <time>2025-12-29T14:26:11.802Z</time>
      </trkpt>
      <trkpt lat="43.13219" lon="3.07724">
        <ele>148</ele>
        <time>2025-12-29T14:26:12.802Z</time>
      </trkpt>
      <trkpt lat="43.13218" lon="3.07726">
        <ele>148</ele>
        <time>2025-12-29T14:26:13.802Z</time>
      </trkpt>
      <trkpt lat="43.13218" lon="3.07727">
        <ele>149</ele>
        <time>2025-12-29T14:26:14.802Z</time>
      </trkpt>
      <trkpt lat="43.13218" lon="3.07727">
        <ele>150</ele>
        <time>2025-12-29T14:26:15.802Z</time>
      </trkpt>
      <trkpt lat="43.13218" lon="3.07728">
        <ele>150</ele>
        <time>2025-12-29T14:26:16.802Z</time>
      </trkpt>
      <trkpt lat="43.13218" lon="3.07727">
        <ele>151</ele>
        <time>2025-12-29T14:26:17.802Z</time>
      </trkpt>
      <trkpt lat="43.13218" lon="3.07728">
        <ele>152</ele>
        <time>2025-12-29T14:26:18.802Z</time>
      </trkpt>
      <trkpt lat="43.13218" lon="3.07726">
        <ele>152</ele>
        <time>2025-12-29T14:26:19.802Z</time>
      </trkpt>
      <trkpt lat="43.13218" lon="3.07726">
        <ele>153</ele>
        <time>2025-12-29T14:26:20.802Z</time>
      </trkpt>
      <trkpt lat="43.13219" lon="3.07726">
        <ele>153</ele>
        <time>2025-12-29T14:26:21.802Z</time>
      </trkpt>
      <trkpt lat="43.13219" lon="3.07725">
        <ele>153</ele>
        <time>2025-12-29T14:26:22.802Z</time>
      </trkpt>
      <trkpt lat="43.13219" lon="3.07725">
        <ele>153</ele>
        <time>2025-12-29T14:26:23.802Z</time>
      </trkpt>
      <trkpt lat="43.13218" lon="3.07725">
        <ele>153</ele>
        <time>2025-12-29T14:26:24.802Z</time>
      </trkpt>
      <trkpt lat="43.13218" lon="3.07725">
        <ele>153</ele>
        <time>2025-12-29T14:26:25.802Z</time>
      </trkpt>
      <trkpt lat="43.13218" lon="3.07726">
        <ele>153</ele>
        <time>2025-12-29T14:26:26.802Z</time>
      </trkpt>
      <trkpt lat="43.13218" lon="3.07725">
        <ele>152</ele>
        <time>2025-12-29T14:26:27.802Z</time>
      </trkpt>
      <trkpt lat="43.13218" lon="3.07724">
        <ele>152</ele>
        <time>2025-12-29T14:26:28.802Z</time>
      </trkpt>
      <trkpt lat="43.13218" lon="3.07724">
        <ele>152</ele>
        <time>2025-12-29T14:26:29.802Z</time>
      </trkpt>
      <trkpt lat="43.13218" lon="3.07723">
        <ele>151</ele>
        <time>2025-12-29T14:26:30.802Z</time>
      </trkpt>
      <trkpt lat="43.13218" lon="3.07723">
        <ele>151</ele>
        <time>2025-12-29T14:26:31.802Z</time>
      </trkpt>
      <trkpt lat="43.13218" lon="3.07722">
        <ele>150</ele>
        <time>2025-12-29T14:26:32.802Z</time>
      </trkpt>
      <trkpt lat="43.13217" lon="3.07722">
        <ele>150</ele>
        <time>2025-12-29T14:26:33.802Z</time>
      </trkpt>
      <trkpt lat="43.13217" lon="3.07722">
        <ele>150</ele>
        <time>2025-12-29T14:26:34.802Z</time>
      </trkpt>
      <trkpt lat="43.13218" lon="3.07722">
        <ele>149</ele>
        <time>2025-12-29T14:26:35.802Z</time>
      </trkpt>
      <trkpt lat="43.13218" lon="3.07722">
        <ele>149</ele>
        <time>2025-12-29T14:26:36.802Z</time>
      </trkpt>
      <trkpt lat="43.13218" lon="3.07722">
        <ele>149</ele>
        <time>2025-12-29T14:26:37.802Z</time>
      </trkpt>
      <trkpt lat="43.13218" lon="3.07722">
        <ele>149</ele>
        <time>2025-12-29T14:26:38.802Z</time>
      </trkpt>
      <trkpt lat="43.13218" lon="3.07723">
        <ele>149</ele>
        <time>2025-12-29T14:26:39.802Z</time>
      </trkpt>
      <trkpt lat="43.13218" lon="3.07723">
        <ele>148</ele>
        <time>2025-12-29T14:26:40.802Z</time>
      </trkpt>
      <trkpt lat="43.13218" lon="3.07722">
        <ele>148</ele>
        <time>2025-12-29T14:26:41.802Z</time>
      </trkpt>
      <trkpt lat="43.13218" lon="3.07722">
        <ele>148</ele>
        <time>2025-12-29T14:26:42.802Z</time>
      </trkpt>
      <trkpt lat="43.13218" lon="3.07722">
        <ele>148</ele>
        <time>2025-12-29T14:26:43.802Z</time>
      </trkpt>
      <trkpt lat="43.13218" lon="3.07721">
        <ele>148</ele>
        <time>2025-12-29T14:26:44.802Z</time>
      </trkpt>
      <trkpt lat="43.13218" lon="3.0772">
        <ele>148</ele>
        <time>2025-12-29T14:26:45.802Z</time>
      </trkpt>
      <trkpt lat="43.13218" lon="3.07719">
        <ele>148</ele>
        <time>2025-12-29T14:26:46.802Z</time>
      </trkpt>
      <trkpt lat="43.13219" lon="3.07718">
        <ele>147</ele>
        <time>2025-12-29T14:26:47.802Z</time>
      </trkpt>
      <trkpt lat="43.13219" lon="3.07718">
        <ele>147</ele>
        <time>2025-12-29T14:26:48.802Z</time>
      </trkpt>
      <trkpt lat="43.13221" lon="3.07718">
        <ele>147</ele>
        <time>2025-12-29T14:26:49.802Z</time>
      </trkpt>
      <trkpt lat="43.13221" lon="3.07717">
        <ele>147</ele>
        <time>2025-12-29T14:26:50.802Z</time>
      </trkpt>
      <trkpt lat="43.13222" lon="3.07716">
        <ele>147</ele>
        <time>2025-12-29T14:26:51.802Z</time>
      </trkpt>
      <trkpt lat="43.13223" lon="3.07715">
        <ele>147</ele>
        <time>2025-12-29T14:26:52.802Z</time>
      </trkpt>
      <trkpt lat="43.13223" lon="3.07714">
        <ele>146</ele>
        <time>2025-12-29T14:26:53.802Z</time>
      </trkpt>
      <trkpt lat="43.13223" lon="3.07713">
        <ele>146</ele>
        <time>2025-12-29T14:26:54.802Z</time>
      </trkpt>
      <trkpt lat="43.13224" lon="3.07712">
        <ele>146</ele>
        <time>2025-12-29T14:26:55.802Z</time>
      </trkpt>
      <trkpt lat="43.13224" lon="3.07711">
        <ele>146</ele>
        <time>2025-12-29T14:26:56.802Z</time>
      </trkpt>
      <trkpt lat="43.13224" lon="3.0771">
        <ele>146</ele>
        <time>2025-12-29T14:26:57.802Z</time>
      </trkpt>
      <trkpt lat="43.13224" lon="3.0771">
        <ele>146</ele>
        <time>2025-12-29T14:26:58.802Z</time>
      </trkpt>
      <trkpt lat="43.13224" lon="3.07709">
        <ele>146</ele>
        <time>2025-12-29T14:26:59.802Z</time>
      </trkpt>
      <trkpt lat="43.13224" lon="3.07709">
        <ele>146</ele>
        <time>2025-12-29T14:27:00.802Z</time>
      </trkpt>
      <trkpt lat="43.13224" lon="3.07709">
        <ele>146</ele>
        <time>2025-12-29T14:27:01.802Z</time>
      </trkpt>
      <trkpt lat="43.13224" lon="3.0771">
        <ele>146</ele>
        <time>2025-12-29T14:27:02.802Z</time>
      </trkpt>
      <trkpt lat="43.13224" lon="3.0771">
        <ele>145</ele>
        <time>2025-12-29T14:27:03.802Z</time>
      </trkpt>
      <trkpt lat="43.13224" lon="3.0771">
        <ele>145</ele>
        <time>2025-12-29T14:27:04.802Z</time>
      </trkpt>
      <trkpt lat="43.13224" lon="3.0771">
        <ele>145</ele>
        <time>2025-12-29T14:27:05.802Z</time>
      </trkpt>
      <trkpt lat="43.13224" lon="3.0771">
        <ele>144</ele>
        <time>2025-12-29T14:27:06.802Z</time>
      </trkpt>
      <trkpt lat="43.13224" lon="3.07711">
        <ele>144</ele>
        <time>2025-12-29T14:27:07.802Z</time>
      </trkpt>
      <trkpt lat="43.13224" lon="3.0771">
        <ele>144</ele>
        <time>2025-12-29T14:27:08.802Z</time>
      </trkpt>
      <trkpt lat="43.13224" lon="3.0771">
        <ele>144</ele>
        <time>2025-12-29T14:27:09.802Z</time>
      </trkpt>
      <trkpt lat="43.13224" lon="3.07709">
        <ele>144</ele>
        <time>2025-12-29T14:27:10.802Z</time>
      </trkpt>
      <trkpt lat="43.13224" lon="3.07708">
        <ele>144</ele>
        <time>2025-12-29T14:27:11.802Z</time>
      </trkpt>
      <trkpt lat="43.13224" lon="3.07708">
        <ele>144</ele>
        <time>2025-12-29T14:27:12.802Z</time>
      </trkpt>
      <trkpt lat="43.13223" lon="3.07708">
        <ele>143</ele>
        <time>2025-12-29T14:27:13.802Z</time>
      </trkpt>
      <trkpt lat="43.13223" lon="3.07708">
        <ele>143</ele>
        <time>2025-12-29T14:27:14.802Z</time>
      </trkpt>
      <trkpt lat="43.13223" lon="3.07708">
        <ele>143</ele>
        <time>2025-12-29T14:27:15.802Z</time>
      </trkpt>
      <trkpt lat="43.13223" lon="3.07707">
        <ele>143</ele>
        <time>2025-12-29T14:27:16.802Z</time>
      </trkpt>
      <trkpt lat="43.13223" lon="3.07706">
        <ele>143</ele>
        <time>2025-12-29T14:27:17.802Z</time>
      </trkpt>
      <trkpt lat="43.13223" lon="3.07705">
        <ele>143</ele>
        <time>2025-12-29T14:27:18.802Z</time>
      </trkpt>
      <trkpt lat="43.13223" lon="3.07705">
        <ele>143</ele>
        <time>2025-12-29T14:27:19.802Z</time>
      </trkpt>
      <trkpt lat="43.13223" lon="3.07703">
        <ele>143</ele>
        <time>2025-12-29T14:27:20.802Z</time>
      </trkpt>
      <trkpt lat="43.13224" lon="3.07702">
        <ele>143</ele>
        <time>2025-12-29T14:27:21.802Z</time>
      </trkpt>
      <trkpt lat="43.13225" lon="3.07701">
        <ele>144</ele>
        <time>2025-12-29T14:27:22.802Z</time>
      </trkpt>
      <trkpt lat="43.13225" lon="3.07701">
        <ele>144</ele>
        <time>2025-12-29T14:27:23.802Z</time>
      </trkpt>
      <trkpt lat="43.13226" lon="3.07699">
        <ele>144</ele>
        <time>2025-12-29T14:27:24.802Z</time>
      </trkpt>
      <trkpt lat="43.13226" lon="3.07699">
        <ele>144</ele>
        <time>2025-12-29T14:27:25.802Z</time>
      </trkpt>
      <trkpt lat="43.13226" lon="3.07698">
        <ele>144</ele>
        <time>2025-12-29T14:27:26.802Z</time>
      </trkpt>
      <trkpt lat="43.13227" lon="3.07697">
        <ele>144</ele>
        <time>2025-12-29T14:27:27.802Z</time>
      </trkpt>
      <trkpt lat="43.13227" lon="3.07696">
        <ele>145</ele>
        <time>2025-12-29T14:27:28.802Z</time>
      </trkpt>
      <trkpt lat="43.13228" lon="3.07694">
        <ele>145</ele>
        <time>2025-12-29T14:27:29.802Z</time>
      </trkpt>
      <trkpt lat="43.13228" lon="3.07694">
        <ele>145</ele>
        <time>2025-12-29T14:27:30.802Z</time>
      </trkpt>
      <trkpt lat="43.13229" lon="3.07692">
        <ele>145</ele>
        <time>2025-12-29T14:27:31.802Z</time>
      </trkpt>
      <trkpt lat="43.13229" lon="3.07691">
        <ele>146</ele>
        <time>2025-12-29T14:27:32.802Z</time>
      </trkpt>
      <trkpt lat="43.13228" lon="3.0769">
        <ele>146</ele>
        <time>2025-12-29T14:27:33.802Z</time>
      </trkpt>
      <trkpt lat="43.13228" lon="3.07689">
        <ele>146</ele>
        <time>2025-12-29T14:27:34.802Z</time>
      </trkpt>
      <trkpt lat="43.13228" lon="3.07687">
        <ele>146</ele>
        <time>2025-12-29T14:27:35.802Z</time>
      </trkpt>
      <trkpt lat="43.13228" lon="3.07687">
        <ele>147</ele>
        <time>2025-12-29T14:27:36.802Z</time>
      </trkpt>
      <trkpt lat="43.13228" lon="3.07687">
        <ele>147</ele>
        <time>2025-12-29T14:27:37.802Z</time>
      </trkpt>
      <trkpt lat="43.13228" lon="3.07686">
        <ele>147</ele>
        <time>2025-12-29T14:27:38.802Z</time>
      </trkpt>
      <trkpt lat="43.13228" lon="3.07686">
        <ele>147</ele>
        <time>2025-12-29T14:27:39.802Z</time>
      </trkpt>
      <trkpt lat="43.13228" lon="3.07686">
        <ele>148</ele>
        <time>2025-12-29T14:27:40.802Z</time>
      </trkpt>
      <trkpt lat="43.13228" lon="3.07685">
        <ele>148</ele>
        <time>2025-12-29T14:27:41.802Z</time>
      </trkpt>
      <trkpt lat="43.13228" lon="3.07685">
        <ele>148</ele>
        <time>2025-12-29T14:27:42.802Z</time>
      </trkpt>
      <trkpt lat="43.13228" lon="3.07685">
        <ele>148</ele>
        <time>2025-12-29T14:27:43.802Z</time>
      </trkpt>
      <trkpt lat="43.13228" lon="3.07685">
        <ele>148</ele>
        <time>2025-12-29T14:27:44.802Z</time>
      </trkpt>
      <trkpt lat="43.13228" lon="3.07685">
        <ele>148</ele>
        <time>2025-12-29T14:27:45.802Z</time>
      </trkpt>
      <trkpt lat="43.13228" lon="3.07686">
        <ele>148</ele>
        <time>2025-12-29T14:27:46.802Z</time>
      </trkpt>
      <trkpt lat="43.13228" lon="3.07686">
        <ele>149</ele>
        <time>2025-12-29T14:27:47.802Z</time>
      </trkpt>
      <trkpt lat="43.13228" lon="3.07687">
        <ele>149</ele>
        <time>2025-12-29T14:27:48.802Z</time>
      </trkpt>
      <trkpt lat="43.13227" lon="3.07687">
        <ele>149</ele>
        <time>2025-12-29T14:27:49.802Z</time>
      </trkpt>
      <trkpt lat="43.13227" lon="3.07687">
        <ele>149</ele>
        <time>2025-12-29T14:27:50.802Z</time>
      </trkpt>
      <trkpt lat="43.13227" lon="3.07687">
        <ele>149</ele>
        <time>2025-12-29T14:27:51.802Z</time>
      </trkpt>
      <trkpt lat="43.13227" lon="3.07687">
        <ele>150</ele>
        <time>2025-12-29T14:27:52.802Z</time>
      </trkpt>
      <trkpt lat="43.13227" lon="3.07687">
        <ele>150</ele>
        <time>2025-12-29T14:27:53.802Z</time>
      </trkpt>
      <trkpt lat="43.13227" lon="3.07688">
        <ele>150</ele>
        <time>2025-12-29T14:27:54.802Z</time>
      </trkpt>
      <trkpt lat="43.13228" lon="3.07689">
        <ele>150</ele>
        <time>2025-12-29T14:27:55.802Z</time>
      </trkpt>
      <trkpt lat="43.13228" lon="3.07689">
        <ele>151</ele>
        <time>2025-12-29T14:27:56.802Z</time>
      </trkpt>
      <trkpt lat="43.13228" lon="3.07689">
        <ele>151</ele>
        <time>2025-12-29T14:27:57.802Z</time>
      </trkpt>
      <trkpt lat="43.13228" lon="3.07688">
        <ele>151</ele>
        <time>2025-12-29T14:27:58.802Z</time>
      </trkpt>
      <trkpt lat="43.13228" lon="3.07688">
        <ele>152</ele>
        <time>2025-12-29T14:27:59.802Z</time>
      </trkpt>
      <trkpt lat="43.13228" lon="3.07688">
        <ele>152</ele>
        <time>2025-12-29T14:28:00.802Z</time>
      </trkpt>
      <trkpt lat="43.13228" lon="3.07687">
        <ele>152</ele>
        <time>2025-12-29T14:28:01.802Z</time>
      </trkpt>
      <trkpt lat="43.13228" lon="3.07687">
        <ele>153</ele>
        <time>2025-12-29T14:28:02.802Z</time>
      </trkpt>
      <trkpt lat="43.13229" lon="3.07686">
        <ele>153</ele>
        <time>2025-12-29T14:28:03.802Z</time>
      </trkpt>
      <trkpt lat="43.13229" lon="3.07685">
        <ele>153</ele>
        <time>2025-12-29T14:28:04.802Z</time>
      </trkpt>
      <trkpt lat="43.13229" lon="3.07685">
        <ele>153</ele>
        <time>2025-12-29T14:28:05.802Z</time>
      </trkpt>
      <trkpt lat="43.13229" lon="3.07685">
        <ele>154</ele>
        <time>2025-12-29T14:28:06.802Z</time>
      </trkpt>
      <trkpt lat="43.13229" lon="3.07685">
        <ele>154</ele>
        <time>2025-12-29T14:28:07.802Z</time>
      </trkpt>
      <trkpt lat="43.13229" lon="3.07684">
        <ele>154</ele>
        <time>2025-12-29T14:28:08.802Z</time>
      </trkpt>
      <trkpt lat="43.13229" lon="3.07684">
        <ele>155</ele>
        <time>2025-12-29T14:28:09.802Z</time>
      </trkpt>
      <trkpt lat="43.13228" lon="3.07683">
        <ele>155</ele>
        <time>2025-12-29T14:28:10.802Z</time>
      </trkpt>
      <trkpt lat="43.13228" lon="3.07682">
        <ele>155</ele>
        <time>2025-12-29T14:28:11.802Z</time>
      </trkpt>
      <trkpt lat="43.13228" lon="3.07682">
        <ele>155</ele>
        <time>2025-12-29T14:28:12.802Z</time>
      </trkpt>
      <trkpt lat="43.13228" lon="3.07681">
        <ele>155</ele>
        <time>2025-12-29T14:28:13.802Z</time>
      </trkpt>
      <trkpt lat="43.13229" lon="3.07681">
        <ele>155</ele>
        <time>2025-12-29T14:28:14.802Z</time>
      </trkpt>
      <trkpt lat="43.13229" lon="3.07681">
        <ele>155</ele>
        <time>2025-12-29T14:28:15.802Z</time>
      </trkpt>
      <trkpt lat="43.13229" lon="3.0768">
        <ele>155</ele>
        <time>2025-12-29T14:28:16.802Z</time>
      </trkpt>
      <trkpt lat="43.13229" lon="3.07681">
        <ele>155</ele>
        <time>2025-12-29T14:28:17.802Z</time>
      </trkpt>
      <trkpt lat="43.13229" lon="3.0768">
        <ele>155</ele>
        <time>2025-12-29T14:28:18.802Z</time>
      </trkpt>
      <trkpt lat="43.13228" lon="3.0768">
        <ele>155</ele>
        <time>2025-12-29T14:28:19.802Z</time>
      </trkpt>
      <trkpt lat="43.13228" lon="3.07679">
        <ele>155</ele>
        <time>2025-12-29T14:28:20.802Z</time>
      </trkpt>
      <trkpt lat="43.13228" lon="3.07679">
        <ele>155</ele>
        <time>2025-12-29T14:28:21.802Z</time>
      </trkpt>
      <trkpt lat="43.13228" lon="3.07678">
        <ele>155</ele>
        <time>2025-12-29T14:28:22.802Z</time>
      </trkpt>
      <trkpt lat="43.13229" lon="3.07678">
        <ele>155</ele>
        <time>2025-12-29T14:28:23.802Z</time>
      </trkpt>
      <trkpt lat="43.1323" lon="3.07678">
        <ele>155</ele>
        <time>2025-12-29T14:28:24.802Z</time>
      </trkpt>
      <trkpt lat="43.1323" lon="3.07677">
        <ele>154</ele>
        <time>2025-12-29T14:28:25.802Z</time>
      </trkpt>
      <trkpt lat="43.13231" lon="3.07676">
        <ele>154</ele>
        <time>2025-12-29T14:28:26.802Z</time>
      </trkpt>
      <trkpt lat="43.13231" lon="3.07675">
        <ele>154</ele>
        <time>2025-12-29T14:28:27.802Z</time>
      </trkpt>
      <trkpt lat="43.13232" lon="3.07675">
        <ele>153</ele>
        <time>2025-12-29T14:28:28.802Z</time>
      </trkpt>
      <trkpt lat="43.13232" lon="3.07674">
        <ele>153</ele>
        <time>2025-12-29T14:28:29.802Z</time>
      </trkpt>
      <trkpt lat="43.13232" lon="3.07673">
        <ele>153</ele>
        <time>2025-12-29T14:28:30.802Z</time>
      </trkpt>
      <trkpt lat="43.13232" lon="3.07672">
        <ele>152</ele>
        <time>2025-12-29T14:28:31.802Z</time>
      </trkpt>
      <trkpt lat="43.13232" lon="3.07671">
        <ele>152</ele>
        <time>2025-12-29T14:28:32.802Z</time>
      </trkpt>
      <trkpt lat="43.13233" lon="3.07671">
        <ele>152</ele>
        <time>2025-12-29T14:28:33.802Z</time>
      </trkpt>
      <trkpt lat="43.13233" lon="3.0767">
        <ele>152</ele>
        <time>2025-12-29T14:28:34.802Z</time>
      </trkpt>
      <trkpt lat="43.13233" lon="3.0767">
        <ele>152</ele>
        <time>2025-12-29T14:28:35.802Z</time>
      </trkpt>
      <trkpt lat="43.13234" lon="3.0767">
        <ele>152</ele>
        <time>2025-12-29T14:28:36.802Z</time>
      </trkpt>
      <trkpt lat="43.13234" lon="3.07669">
        <ele>152</ele>
        <time>2025-12-29T14:28:37.802Z</time>
      </trkpt>
      <trkpt lat="43.13234" lon="3.07669">
        <ele>152</ele>
        <time>2025-12-29T14:28:38.802Z</time>
      </trkpt>
      <trkpt lat="43.13235" lon="3.0767">
        <ele>152</ele>
        <time>2025-12-29T14:28:39.802Z</time>
      </trkpt>
      <trkpt lat="43.13235" lon="3.07669">
        <ele>152</ele>
        <time>2025-12-29T14:28:40.802Z</time>
      </trkpt>
      <trkpt lat="43.13236" lon="3.07669">
        <ele>152</ele>
        <time>2025-12-29T14:28:41.802Z</time>
      </trkpt>
      <trkpt lat="43.13236" lon="3.07669">
        <ele>152</ele>
        <time>2025-12-29T14:28:42.802Z</time>
      </trkpt>
      <trkpt lat="43.13236" lon="3.07669">
        <ele>152</ele>
        <time>2025-12-29T14:28:43.802Z</time>
      </trkpt>
      <trkpt lat="43.13236" lon="3.07669">
        <ele>152</ele>
        <time>2025-12-29T14:28:44.802Z</time>
      </trkpt>
      <trkpt lat="43.13237" lon="3.0767">
        <ele>152</ele>
        <time>2025-12-29T14:28:45.802Z</time>
      </trkpt>
      <trkpt lat="43.13237" lon="3.0767">
        <ele>152</ele>
        <time>2025-12-29T14:28:46.802Z</time>
      </trkpt>
      <trkpt lat="43.13237" lon="3.0767">
        <ele>152</ele>
        <time>2025-12-29T14:28:47.802Z</time>
      </trkpt>
      <trkpt lat="43.13237" lon="3.0767">
        <ele>153</ele>
        <time>2025-12-29T14:28:48.802Z</time>
      </trkpt>
      <trkpt lat="43.13238" lon="3.0767">
        <ele>153</ele>
        <time>2025-12-29T14:28:49.802Z</time>
      </trkpt>
      <trkpt lat="43.13238" lon="3.0767">
        <ele>153</ele>
        <time>2025-12-29T14:28:50.802Z</time>
      </trkpt>
      <trkpt lat="43.13238" lon="3.0767">
        <ele>153</ele>
        <time>2025-12-29T14:28:51.802Z</time>
      </trkpt>
      <trkpt lat="43.13237" lon="3.0767">
        <ele>153</ele>
        <time>2025-12-29T14:28:52.802Z</time>
      </trkpt>
      <trkpt lat="43.13237" lon="3.07671">
        <ele>153</ele>
        <time>2025-12-29T14:28:53.802Z</time>
      </trkpt>
      <trkpt lat="43.13237" lon="3.07671">
        <ele>153</ele>
        <time>2025-12-29T14:28:54.802Z</time>
      </trkpt>
      <trkpt lat="43.13237" lon="3.0767">
        <ele>153</ele>
        <time>2025-12-29T14:28:55.802Z</time>
      </trkpt>
      <trkpt lat="43.13237" lon="3.0767">
        <ele>153</ele>
        <time>2025-12-29T14:28:56.802Z</time>
      </trkpt>
      <trkpt lat="43.13237" lon="3.0767">
        <ele>153</ele>
        <time>2025-12-29T14:28:57.802Z</time>
      </trkpt>
      <trkpt lat="43.13237" lon="3.07669">
        <ele>154</ele>
        <time>2025-12-29T14:28:58.802Z</time>
      </trkpt>
      <trkpt lat="43.13237" lon="3.07669">
        <ele>154</ele>
        <time>2025-12-29T14:28:59.802Z</time>
      </trkpt>
      <trkpt lat="43.13237" lon="3.07669">
        <ele>154</ele>
        <time>2025-12-29T14:29:00.802Z</time>
      </trkpt>
      <trkpt lat="43.13237" lon="3.07668">
        <ele>154</ele>
        <time>2025-12-29T14:29:01.802Z</time>
      </trkpt>
      <trkpt lat="43.13238" lon="3.07668">
        <ele>154</ele>
        <time>2025-12-29T14:29:02.802Z</time>
      </trkpt>
      <trkpt lat="43.13239" lon="3.07668">
        <ele>154</ele>
        <time>2025-12-29T14:29:03.802Z</time>
      </trkpt>
      <trkpt lat="43.13239" lon="3.07668">
        <ele>154</ele>
        <time>2025-12-29T14:29:04.802Z</time>
      </trkpt>
      <trkpt lat="43.13239" lon="3.07667">
        <ele>154</ele>
        <time>2025-12-29T14:29:05.802Z</time>
      </trkpt>
      <trkpt lat="43.13238" lon="3.07664">
        <ele>154</ele>
        <time>2025-12-29T14:29:06.802Z</time>
      </trkpt>
      <trkpt lat="43.13237" lon="3.07662">
        <ele>155</ele>
        <time>2025-12-29T14:29:07.802Z</time>
      </trkpt>
      <trkpt lat="43.13237" lon="3.07661">
        <ele>155</ele>
        <time>2025-12-29T14:29:08.802Z</time>
      </trkpt>
      <trkpt lat="43.13236" lon="3.07659">
        <ele>155</ele>
        <time>2025-12-29T14:29:09.802Z</time>
      </trkpt>
      <trkpt lat="43.13236" lon="3.07659">
        <ele>156</ele>
        <time>2025-12-29T14:29:10.802Z</time>
      </trkpt>
      <trkpt lat="43.13235" lon="3.07658">
        <ele>156</ele>
        <time>2025-12-29T14:29:11.802Z</time>
      </trkpt>
      <trkpt lat="43.13235" lon="3.07659">
        <ele>156</ele>
        <time>2025-12-29T14:29:12.802Z</time>
      </trkpt>
      <trkpt lat="43.13235" lon="3.07659">
        <ele>156</ele>
        <time>2025-12-29T14:29:13.802Z</time>
      </trkpt>
      <trkpt lat="43.13235" lon="3.07659">
        <ele>157</ele>
        <time>2025-12-29T14:29:14.802Z</time>
      </trkpt>
      <trkpt lat="43.13235" lon="3.07659">
        <ele>157</ele>
        <time>2025-12-29T14:29:15.802Z</time>
      </trkpt>
      <trkpt lat="43.13235" lon="3.07659">
        <ele>157</ele>
        <time>2025-12-29T14:29:16.802Z</time>
      </trkpt>
      <trkpt lat="43.13235" lon="3.07659">
        <ele>157</ele>
        <time>2025-12-29T14:29:17.802Z</time>
      </trkpt>
      <trkpt lat="43.13235" lon="3.07659">
        <ele>158</ele>
        <time>2025-12-29T14:29:18.802Z</time>
      </trkpt>
      <trkpt lat="43.13236" lon="3.07659">
        <ele>158</ele>
        <time>2025-12-29T14:29:21.802Z</time>
      </trkpt>
      <trkpt lat="43.13239" lon="3.07658">
        <ele>158</ele>
        <time>2025-12-29T14:29:26.802Z</time>
      </trkpt>
      <trkpt lat="43.13239" lon="3.07657">
        <ele>158</ele>
        <time>2025-12-29T14:29:28.802Z</time>
      </trkpt>
      <trkpt lat="43.1324" lon="3.07655">
        <ele>158</ele>
        <time>2025-12-29T14:29:29.802Z</time>
      </trkpt>
      <trkpt lat="43.13241" lon="3.07653">
        <ele>159</ele>
        <time>2025-12-29T14:29:30.802Z</time>
      </trkpt>
      <trkpt lat="43.13241" lon="3.0765">
        <ele>159</ele>
        <time>2025-12-29T14:29:31.802Z</time>
      </trkpt>
      <trkpt lat="43.1324" lon="3.07649">
        <ele>159</ele>
        <time>2025-12-29T14:29:32.802Z</time>
      </trkpt>
      <trkpt lat="43.13239" lon="3.07646">
        <ele>159</ele>
        <time>2025-12-29T14:29:33.802Z</time>
      </trkpt>
      <trkpt lat="43.13239" lon="3.07642">
        <ele>159</ele>
        <time>2025-12-29T14:29:36.802Z</time>
      </trkpt>
      <trkpt lat="43.13239" lon="3.0764">
        <ele>159</ele>
        <time>2025-12-29T14:29:38.802Z</time>
      </trkpt>
      <trkpt lat="43.13239" lon="3.07641">
        <ele>159</ele>
        <time>2025-12-29T14:29:39.802Z</time>
      </trkpt>
      <trkpt lat="43.13238" lon="3.0764">
        <ele>159</ele>
        <time>2025-12-29T14:29:40.802Z</time>
      </trkpt>
      <trkpt lat="43.13237" lon="3.07638">
        <ele>160</ele>
        <time>2025-12-29T14:29:41.802Z</time>
      </trkpt>
      <trkpt lat="43.13237" lon="3.07635">
        <ele>160</ele>
        <time>2025-12-29T14:29:42.802Z</time>
      </trkpt>
      <trkpt lat="43.13237" lon="3.07632">
        <ele>160</ele>
        <time>2025-12-29T14:29:43.802Z</time>
      </trkpt>
      <trkpt lat="43.13237" lon="3.0763">
        <ele>160</ele>
        <time>2025-12-29T14:29:44.802Z</time>
      </trkpt>
      <trkpt lat="43.13236" lon="3.07629">
        <ele>160</ele>
        <time>2025-12-29T14:29:45.802Z</time>
      </trkpt>
      <trkpt lat="43.13233" lon="3.07629">
        <ele>160</ele>
        <time>2025-12-29T14:29:47.802Z</time>
      </trkpt>
      <trkpt lat="43.1323" lon="3.07628">
        <ele>160</ele>
        <time>2025-12-29T14:29:48.802Z</time>
      </trkpt>
      <trkpt lat="43.13229" lon="3.07627">
        <ele>160</ele>
        <time>2025-12-29T14:29:49.802Z</time>
      </trkpt>
      <trkpt lat="43.13229" lon="3.07626">
        <ele>160</ele>
        <time>2025-12-29T14:29:50.802Z</time>
      </trkpt>
      <trkpt lat="43.13228" lon="3.07625">
        <ele>160</ele>
        <time>2025-12-29T14:29:51.802Z</time>
      </trkpt>
      <trkpt lat="43.13228" lon="3.07624">
        <ele>160</ele>
        <time>2025-12-29T14:29:52.802Z</time>
      </trkpt>
      <trkpt lat="43.13228" lon="3.07623">
        <ele>160</ele>
        <time>2025-12-29T14:29:53.802Z</time>
      </trkpt>
      <trkpt lat="43.13227" lon="3.07623">
        <ele>160</ele>
        <time>2025-12-29T14:29:54.802Z</time>
      </trkpt>
      <trkpt lat="43.13227" lon="3.07623">
        <ele>160</ele>
        <time>2025-12-29T14:29:55.802Z</time>
      </trkpt>
      <trkpt lat="43.13227" lon="3.07622">
        <ele>160</ele>
        <time>2025-12-29T14:29:56.802Z</time>
      </trkpt>
      <trkpt lat="43.13227" lon="3.07624">
        <ele>161</ele>
        <time>2025-12-29T14:29:57.802Z</time>
      </trkpt>
      <trkpt lat="43.13227" lon="3.07625">
        <ele>161</ele>
        <time>2025-12-29T14:29:58.802Z</time>
      </trkpt>
      <trkpt lat="43.13227" lon="3.07624">
        <ele>161</ele>
        <time>2025-12-29T14:30:00.802Z</time>
      </trkpt>
      <trkpt lat="43.13226" lon="3.07623">
        <ele>161</ele>
        <time>2025-12-29T14:30:01.802Z</time>
      </trkpt>
      <trkpt lat="43.13226" lon="3.07622">
        <ele>161</ele>
        <time>2025-12-29T14:30:02.802Z</time>
      </trkpt>
      <trkpt lat="43.13226" lon="3.07621">
        <ele>162</ele>
        <time>2025-12-29T14:30:03.802Z</time>
      </trkpt>
      <trkpt lat="43.13226" lon="3.07621">
        <ele>162</ele>
        <time>2025-12-29T14:30:04.802Z</time>
      </trkpt>
      <trkpt lat="43.13226" lon="3.0762">
        <ele>162</ele>
        <time>2025-12-29T14:30:05.802Z</time>
      </trkpt>
      <trkpt lat="43.13227" lon="3.0762">
        <ele>162</ele>
        <time>2025-12-29T14:30:06.802Z</time>
      </trkpt>
      <trkpt lat="43.13227" lon="3.07619">
        <ele>163</ele>
        <time>2025-12-29T14:30:07.802Z</time>
      </trkpt>
      <trkpt lat="43.13227" lon="3.07617">
        <ele>163</ele>
        <time>2025-12-29T14:30:08.802Z</time>
      </trkpt>
      <trkpt lat="43.13227" lon="3.07617">
        <ele>163</ele>
        <time>2025-12-29T14:30:09.802Z</time>
      </trkpt>
      <trkpt lat="43.13226" lon="3.07616">
        <ele>163</ele>
        <time>2025-12-29T14:30:10.802Z</time>
      </trkpt>
      <trkpt lat="43.13226" lon="3.07616">
        <ele>164</ele>
        <time>2025-12-29T14:30:11.802Z</time>
      </trkpt>
      <trkpt lat="43.13226" lon="3.07616">
        <ele>164</ele>
        <time>2025-12-29T14:30:12.802Z</time>
      </trkpt>
      <trkpt lat="43.13226" lon="3.07615">
        <ele>164</ele>
        <time>2025-12-29T14:30:13.802Z</time>
      </trkpt>
      <trkpt lat="43.13226" lon="3.07615">
        <ele>165</ele>
        <time>2025-12-29T14:30:14.802Z</time>
      </trkpt>
      <trkpt lat="43.13226" lon="3.07615">
        <ele>165</ele>
        <time>2025-12-29T14:30:15.802Z</time>
      </trkpt>
      <trkpt lat="43.13226" lon="3.07615">
        <ele>165</ele>
        <time>2025-12-29T14:30:16.802Z</time>
      </trkpt>
      <trkpt lat="43.13226" lon="3.07616">
        <ele>165</ele>
        <time>2025-12-29T14:30:17.802Z</time>
      </trkpt>
      <trkpt lat="43.13226" lon="3.07618">
        <ele>165</ele>
        <time>2025-12-29T14:30:18.802Z</time>
      </trkpt>
      <trkpt lat="43.13225" lon="3.07619">
        <ele>166</ele>
        <time>2025-12-29T14:30:19.802Z</time>
      </trkpt>
      <trkpt lat="43.13225" lon="3.07618">
        <ele>166</ele>
        <time>2025-12-29T14:30:20.802Z</time>
      </trkpt>
      <trkpt lat="43.13225" lon="3.07618">
        <ele>166</ele>
        <time>2025-12-29T14:30:21.802Z</time>
      </trkpt>
      <trkpt lat="43.13226" lon="3.07618">
        <ele>166</ele>
        <time>2025-12-29T14:30:22.802Z</time>
      </trkpt>
      <trkpt lat="43.13226" lon="3.07617">
        <ele>166</ele>
        <time>2025-12-29T14:30:23.802Z</time>
      </trkpt>
      <trkpt lat="43.13226" lon="3.07617">
        <ele>166</ele>
        <time>2025-12-29T14:30:24.802Z</time>
      </trkpt>
      <trkpt lat="43.13226" lon="3.07616">
        <ele>165</ele>
        <time>2025-12-29T14:30:25.802Z</time>
      </trkpt>
      <trkpt lat="43.13225" lon="3.07615">
        <ele>165</ele>
        <time>2025-12-29T14:30:26.802Z</time>
      </trkpt>
      <trkpt lat="43.13225" lon="3.07615">
        <ele>165</ele>
        <time>2025-12-29T14:30:27.802Z</time>
      </trkpt>
      <trkpt lat="43.13225" lon="3.07615">
        <ele>164</ele>
        <time>2025-12-29T14:30:28.802Z</time>
      </trkpt>
      <trkpt lat="43.13225" lon="3.07614">
        <ele>164</ele>
        <time>2025-12-29T14:30:29.802Z</time>
      </trkpt>
      <trkpt lat="43.13226" lon="3.07614">
        <ele>164</ele>
        <time>2025-12-29T14:30:30.802Z</time>
      </trkpt>
      <trkpt lat="43.13226" lon="3.07613">
        <ele>164</ele>
        <time>2025-12-29T14:30:31.802Z</time>
      </trkpt>
      <trkpt lat="43.13226" lon="3.07612">
        <ele>163</ele>
        <time>2025-12-29T14:30:32.802Z</time>
      </trkpt>
      <trkpt lat="43.13226" lon="3.07612">
        <ele>163</ele>
        <time>2025-12-29T14:30:33.802Z</time>
      </trkpt>
      <trkpt lat="43.13226" lon="3.07611">
        <ele>162</ele>
        <time>2025-12-29T14:30:34.802Z</time>
      </trkpt>
      <trkpt lat="43.13226" lon="3.07611">
        <ele>162</ele>
        <time>2025-12-29T14:30:35.802Z</time>
      </trkpt>
      <trkpt lat="43.13226" lon="3.07611">
        <ele>162</ele>
        <time>2025-12-29T14:30:36.802Z</time>
      </trkpt>
      <trkpt lat="43.13226" lon="3.07611">
        <ele>161</ele>
        <time>2025-12-29T14:30:37.802Z</time>
      </trkpt>
      <trkpt lat="43.13225" lon="3.07611">
        <ele>161</ele>
        <time>2025-12-29T14:30:38.802Z</time>
      </trkpt>
      <trkpt lat="43.13226" lon="3.07611">
        <ele>161</ele>
        <time>2025-12-29T14:30:39.802Z</time>
      </trkpt>
      <trkpt lat="43.13226" lon="3.07612">
        <ele>160</ele>
        <time>2025-12-29T14:30:40.802Z</time>
      </trkpt>
      <trkpt lat="43.13225" lon="3.07611">
        <ele>160</ele>
        <time>2025-12-29T14:30:41.802Z</time>
      </trkpt>
      <trkpt lat="43.13225" lon="3.07611">
        <ele>160</ele>
        <time>2025-12-29T14:30:42.802Z</time>
      </trkpt>
      <trkpt lat="43.13225" lon="3.07611">
        <ele>160</ele>
        <time>2025-12-29T14:30:43.802Z</time>
      </trkpt>
      <trkpt lat="43.13225" lon="3.07611">
        <ele>160</ele>
        <time>2025-12-29T14:30:44.802Z</time>
      </trkpt>
      <trkpt lat="43.13225" lon="3.07612">
        <ele>160</ele>
        <time>2025-12-29T14:30:45.802Z</time>
      </trkpt>
      <trkpt lat="43.13224" lon="3.07612">
        <ele>160</ele>
        <time>2025-12-29T14:30:46.802Z</time>
      </trkpt>
      <trkpt lat="43.13224" lon="3.07612">
        <ele>160</ele>
        <time>2025-12-29T14:30:47.802Z</time>
      </trkpt>
      <trkpt lat="43.13224" lon="3.07612">
        <ele>160</ele>
        <time>2025-12-29T14:30:48.802Z</time>
      </trkpt>
      <trkpt lat="43.13224" lon="3.07612">
        <ele>160</ele>
        <time>2025-12-29T14:30:49.802Z</time>
      </trkpt>
      <trkpt lat="43.13224" lon="3.07613">
        <ele>159</ele>
        <time>2025-12-29T14:30:50.802Z</time>
      </trkpt>
      <trkpt lat="43.13224" lon="3.07613">
        <ele>159</ele>
        <time>2025-12-29T14:30:51.802Z</time>
      </trkpt>
      <trkpt lat="43.13225" lon="3.07613">
        <ele>159</ele>
        <time>2025-12-29T14:30:52.802Z</time>
      </trkpt>
      <trkpt lat="43.13225" lon="3.07613">
        <ele>158</ele>
        <time>2025-12-29T14:30:53.802Z</time>
      </trkpt>
      <trkpt lat="43.13226" lon="3.07613">
        <ele>158</ele>
        <time>2025-12-29T14:30:54.802Z</time>
      </trkpt>
      <trkpt lat="43.13227" lon="3.07612">
        <ele>158</ele>
        <time>2025-12-29T14:30:55.802Z</time>
      </trkpt>
      <trkpt lat="43.13228" lon="3.07612">
        <ele>157</ele>
        <time>2025-12-29T14:30:56.802Z</time>
      </trkpt>
      <trkpt lat="43.13228" lon="3.07613">
        <ele>157</ele>
        <time>2025-12-29T14:30:57.802Z</time>
      </trkpt>
      <trkpt lat="43.13229" lon="3.07614">
        <ele>157</ele>
        <time>2025-12-29T14:30:58.802Z</time>
      </trkpt>
      <trkpt lat="43.13229" lon="3.07614">
        <ele>156</ele>
        <time>2025-12-29T14:30:59.802Z</time>
      </trkpt>
      <trkpt lat="43.13229" lon="3.07615">
        <ele>156</ele>
        <time>2025-12-29T14:31:00.802Z</time>
      </trkpt>
      <trkpt lat="43.1323" lon="3.07615">
        <ele>155</ele>
        <time>2025-12-29T14:31:01.802Z</time>
      </trkpt>
      <trkpt lat="43.13232" lon="3.07614">
        <ele>155</ele>
        <time>2025-12-29T14:31:02.802Z</time>
      </trkpt>
      <trkpt lat="43.13233" lon="3.07613">
        <ele>154</ele>
        <time>2025-12-29T14:31:03.802Z</time>
      </trkpt>
      <trkpt lat="43.13235" lon="3.07613">
        <ele>154</ele>
        <time>2025-12-29T14:31:04.802Z</time>
      </trkpt>
      <trkpt lat="43.13236" lon="3.07613">
        <ele>153</ele>
        <time>2025-12-29T14:31:05.802Z</time>
      </trkpt>
      <trkpt lat="43.13237" lon="3.07613">
        <ele>153</ele>
        <time>2025-12-29T14:31:06.802Z</time>
      </trkpt>
      <trkpt lat="43.13238" lon="3.07613">
        <ele>153</ele>
        <time>2025-12-29T14:31:07.802Z</time>
      </trkpt>
      <trkpt lat="43.13239" lon="3.07613">
        <ele>152</ele>
        <time>2025-12-29T14:31:08.802Z</time>
      </trkpt>
      <trkpt lat="43.13239" lon="3.07613">
        <ele>152</ele>
        <time>2025-12-29T14:31:09.802Z</time>
      </trkpt>
      <trkpt lat="43.13239" lon="3.07613">
        <ele>152</ele>
        <time>2025-12-29T14:31:10.802Z</time>
      </trkpt>
      <trkpt lat="43.13239" lon="3.07614">
        <ele>152</ele>
        <time>2025-12-29T14:31:11.802Z</time>
      </trkpt>
      <trkpt lat="43.1324" lon="3.07615">
        <ele>152</ele>
        <time>2025-12-29T14:31:12.802Z</time>
      </trkpt>
      <trkpt lat="43.1324" lon="3.07614">
        <ele>152</ele>
        <time>2025-12-29T14:31:13.802Z</time>
      </trkpt>
      <trkpt lat="43.13241" lon="3.07614">
        <ele>151</ele>
        <time>2025-12-29T14:31:14.802Z</time>
      </trkpt>
      <trkpt lat="43.13241" lon="3.07614">
        <ele>151</ele>
        <time>2025-12-29T14:31:15.802Z</time>
      </trkpt>
      <trkpt lat="43.13241" lon="3.07614">
        <ele>151</ele>
        <time>2025-12-29T14:31:16.802Z</time>
      </trkpt>
      <trkpt lat="43.13241" lon="3.07614">
        <ele>151</ele>
        <time>2025-12-29T14:31:17.802Z</time>
      </trkpt>
      <trkpt lat="43.13241" lon="3.07614">
        <ele>151</ele>
        <time>2025-12-29T14:31:18.802Z</time>
      </trkpt>
      <trkpt lat="43.13241" lon="3.07614">
        <ele>151</ele>
        <time>2025-12-29T14:31:19.802Z</time>
      </trkpt>
      <trkpt lat="43.13241" lon="3.07614">
        <ele>151</ele>
        <time>2025-12-29T14:31:20.802Z</time>
      </trkpt>
      <trkpt lat="43.13242" lon="3.07614">
        <ele>150</ele>
        <time>2025-12-29T14:31:21.802Z</time>
      </trkpt>
      <trkpt lat="43.13242" lon="3.07614">
        <ele>150</ele>
        <time>2025-12-29T14:31:22.802Z</time>
      </trkpt>
      <trkpt lat="43.13242" lon="3.07615">
        <ele>150</ele>
        <time>2025-12-29T14:31:23.802Z</time>
      </trkpt>
      <trkpt lat="43.13242" lon="3.07615">
        <ele>150</ele>
        <time>2025-12-29T14:31:24.802Z</time>
      </trkpt>
      <trkpt lat="43.13243" lon="3.07615">
        <ele>150</ele>
        <time>2025-12-29T14:31:25.802Z</time>
      </trkpt>
      <trkpt lat="43.13243" lon="3.07614">
        <ele>150</ele>
        <time>2025-12-29T14:31:26.802Z</time>
      </trkpt>
      <trkpt lat="43.13243" lon="3.07615">
        <ele>150</ele>
        <time>2025-12-29T14:31:27.802Z</time>
      </trkpt>
      <trkpt lat="43.13244" lon="3.07616">
        <ele>150</ele>
        <time>2025-12-29T14:31:28.802Z</time>
      </trkpt>
      <trkpt lat="43.13244" lon="3.07617">
        <ele>150</ele>
        <time>2025-12-29T14:31:29.802Z</time>
      </trkpt>
      <trkpt lat="43.13244" lon="3.07618">
        <ele>150</ele>
        <time>2025-12-29T14:31:30.802Z</time>
      </trkpt>
      <trkpt lat="43.13244" lon="3.07618">
        <ele>150</ele>
        <time>2025-12-29T14:31:31.802Z</time>
      </trkpt>
      <trkpt lat="43.13245" lon="3.07617">
        <ele>150</ele>
        <time>2025-12-29T14:31:32.802Z</time>
      </trkpt>
      <trkpt lat="43.13245" lon="3.07617">
        <ele>150</ele>
        <time>2025-12-29T14:31:33.802Z</time>
      </trkpt>
      <trkpt lat="43.13245" lon="3.07616">
        <ele>149</ele>
        <time>2025-12-29T14:31:34.802Z</time>
      </trkpt>
      <trkpt lat="43.13244" lon="3.07615">
        <ele>149</ele>
        <time>2025-12-29T14:31:35.802Z</time>
      </trkpt>
      <trkpt lat="43.13244" lon="3.07614">
        <ele>148</ele>
        <time>2025-12-29T14:31:36.802Z</time>
      </trkpt>
      <trkpt lat="43.13244" lon="3.07614">
        <ele>148</ele>
        <time>2025-12-29T14:31:37.802Z</time>
      </trkpt>
      <trkpt lat="43.13243" lon="3.07614">
        <ele>147</ele>
        <time>2025-12-29T14:31:38.802Z</time>
      </trkpt>
      <trkpt lat="43.13243" lon="3.07614">
        <ele>147</ele>
        <time>2025-12-29T14:31:39.802Z</time>
      </trkpt>
      <trkpt lat="43.13243" lon="3.07614">
        <ele>146</ele>
        <time>2025-12-29T14:31:40.802Z</time>
      </trkpt>
      <trkpt lat="43.13244" lon="3.07614">
        <ele>145</ele>
        <time>2025-12-29T14:31:41.802Z</time>
      </trkpt>
      <trkpt lat="43.13244" lon="3.07613">
        <ele>145</ele>
        <time>2025-12-29T14:31:42.802Z</time>
      </trkpt>
      <trkpt lat="43.13244" lon="3.07613">
        <ele>144</ele>
        <time>2025-12-29T14:31:43.802Z</time>
      </trkpt>
      <trkpt lat="43.13244" lon="3.07613">
        <ele>144</ele>
        <time>2025-12-29T14:31:44.802Z</time>
      </trkpt>
      <trkpt lat="43.13244" lon="3.07613">
        <ele>143</ele>
        <time>2025-12-29T14:31:45.802Z</time>
      </trkpt>
      <trkpt lat="43.13244" lon="3.07612">
        <ele>142</ele>
        <time>2025-12-29T14:31:46.802Z</time>
      </trkpt>
      <trkpt lat="43.13244" lon="3.07612">
        <ele>142</ele>
        <time>2025-12-29T14:31:47.802Z</time>
      </trkpt>
      <trkpt lat="43.13245" lon="3.07611">
        <ele>142</ele>
        <time>2025-12-29T14:31:48.802Z</time>
      </trkpt>
      <trkpt lat="43.13245" lon="3.07611">
        <ele>141</ele>
        <time>2025-12-29T14:31:49.802Z</time>
      </trkpt>
      <trkpt lat="43.13246" lon="3.07611">
        <ele>141</ele>
        <time>2025-12-29T14:31:50.802Z</time>
      </trkpt>
      <trkpt lat="43.13246" lon="3.07611">
        <ele>141</ele>
        <time>2025-12-29T14:31:51.802Z</time>
      </trkpt>
      <trkpt lat="43.13246" lon="3.07611">
        <ele>141</ele>
        <time>2025-12-29T14:31:52.802Z</time>
      </trkpt>
      <trkpt lat="43.13247" lon="3.07611">
        <ele>140</ele>
        <time>2025-12-29T14:31:54.802Z</time>
      </trkpt>
      <trkpt lat="43.13247" lon="3.07611">
        <ele>140</ele>
        <time>2025-12-29T14:31:55.802Z</time>
      </trkpt>
      <trkpt lat="43.13247" lon="3.07612">
        <ele>139</ele>
        <time>2025-12-29T14:31:56.802Z</time>
      </trkpt>
      <trkpt lat="43.13247" lon="3.07612">
        <ele>139</ele>
        <time>2025-12-29T14:31:57.802Z</time>
      </trkpt>
      <trkpt lat="43.13247" lon="3.07612">
        <ele>138</ele>
        <time>2025-12-29T14:31:58.802Z</time>
      </trkpt>
      <trkpt lat="43.13247" lon="3.07612">
        <ele>138</ele>
        <time>2025-12-29T14:31:59.802Z</time>
      </trkpt>
      <trkpt lat="43.13248" lon="3.07612">
        <ele>137</ele>
        <time>2025-12-29T14:32:00.802Z</time>
      </trkpt>
      <trkpt lat="43.13248" lon="3.07612">
        <ele>137</ele>
        <time>2025-12-29T14:32:02.802Z</time>
      </trkpt>
      <trkpt lat="43.13248" lon="3.07612">
        <ele>136</ele>
        <time>2025-12-29T14:32:03.802Z</time>
      </trkpt>
      <trkpt lat="43.13249" lon="3.07611">
        <ele>136</ele>
        <time>2025-12-29T14:32:04.802Z</time>
      </trkpt>
      <trkpt lat="43.13249" lon="3.07612">
        <ele>136</ele>
        <time>2025-12-29T14:32:05.802Z</time>
      </trkpt>
      <trkpt lat="43.13249" lon="3.07612">
        <ele>135</ele>
        <time>2025-12-29T14:32:06.802Z</time>
      </trkpt>
      <trkpt lat="43.13249" lon="3.07612">
        <ele>135</ele>
        <time>2025-12-29T14:32:07.802Z</time>
      </trkpt>
      <trkpt lat="43.13249" lon="3.07612">
        <ele>135</ele>
        <time>2025-12-29T14:32:08.802Z</time>
      </trkpt>
      <trkpt lat="43.1325" lon="3.07612">
        <ele>135</ele>
        <time>2025-12-29T14:32:09.802Z</time>
      </trkpt>
      <trkpt lat="43.1325" lon="3.07612">
        <ele>134</ele>
        <time>2025-12-29T14:32:10.802Z</time>
      </trkpt>
      <trkpt lat="43.1325" lon="3.07612">
        <ele>134</ele>
        <time>2025-12-29T14:32:11.802Z</time>
      </trkpt>
      <trkpt lat="43.1325" lon="3.07612">
        <ele>134</ele>
        <time>2025-12-29T14:32:12.802Z</time>
      </trkpt>
      <trkpt lat="43.1325" lon="3.07612">
        <ele>134</ele>
        <time>2025-12-29T14:32:13.802Z</time>
      </trkpt>
      <trkpt lat="43.1325" lon="3.07611">
        <ele>134</ele>
        <time>2025-12-29T14:32:14.802Z</time>
      </trkpt>
      <trkpt lat="43.1325" lon="3.07612">
        <ele>134</ele>
        <time>2025-12-29T14:32:15.802Z</time>
      </trkpt>
      <trkpt lat="43.1325" lon="3.07612">
        <ele>134</ele>
        <time>2025-12-29T14:32:16.802Z</time>
      </trkpt>
      <trkpt lat="43.13249" lon="3.07612">
        <ele>135</ele>
        <time>2025-12-29T14:32:17.802Z</time>
      </trkpt>
      <trkpt lat="43.13249" lon="3.07613">
        <ele>135</ele>
        <time>2025-12-29T14:32:18.802Z</time>
      </trkpt>
      <trkpt lat="43.13249" lon="3.07613">
        <ele>135</ele>
        <time>2025-12-29T14:32:19.802Z</time>
      </trkpt>
      <trkpt lat="43.13249" lon="3.07614">
        <ele>135</ele>
        <time>2025-12-29T14:32:20.802Z</time>
      </trkpt>
      <trkpt lat="43.13249" lon="3.07614">
        <ele>135</ele>
        <time>2025-12-29T14:32:21.802Z</time>
      </trkpt>
      <trkpt lat="43.13249" lon="3.07614">
        <ele>135</ele>
        <time>2025-12-29T14:32:22.802Z</time>
      </trkpt>
      <trkpt lat="43.13248" lon="3.07614">
        <ele>135</ele>
        <time>2025-12-29T14:32:23.802Z</time>
      </trkpt>
      <trkpt lat="43.13248" lon="3.07614">
        <ele>135</ele>
        <time>2025-12-29T14:32:24.802Z</time>
      </trkpt>
      <trkpt lat="43.13247" lon="3.07615">
        <ele>135</ele>
        <time>2025-12-29T14:32:25.802Z</time>
      </trkpt>
      <trkpt lat="43.13247" lon="3.07615">
        <ele>135</ele>
        <time>2025-12-29T14:32:26.802Z</time>
      </trkpt>
      <trkpt lat="43.13247" lon="3.07614">
        <ele>135</ele>
        <time>2025-12-29T14:32:27.802Z</time>
      </trkpt>
      <trkpt lat="43.13246" lon="3.07613">
        <ele>135</ele>
        <time>2025-12-29T14:32:28.802Z</time>
      </trkpt>
      <trkpt lat="43.13246" lon="3.07613">
        <ele>135</ele>
        <time>2025-12-29T14:32:29.802Z</time>
      </trkpt>
      <trkpt lat="43.13245" lon="3.07613">
        <ele>135</ele>
        <time>2025-12-29T14:32:30.802Z</time>
      </trkpt>
      <trkpt lat="43.13245" lon="3.07613">
        <ele>135</ele>
        <time>2025-12-29T14:32:31.802Z</time>
      </trkpt>
      <trkpt lat="43.13244" lon="3.07613">
        <ele>135</ele>
        <time>2025-12-29T14:32:32.802Z</time>
      </trkpt>
      <trkpt lat="43.13244" lon="3.07612">
        <ele>135</ele>
        <time>2025-12-29T14:32:33.802Z</time>
      </trkpt>
      <trkpt lat="43.13243" lon="3.07612">
        <ele>135</ele>
        <time>2025-12-29T14:32:34.802Z</time>
      </trkpt>
      <trkpt lat="43.13243" lon="3.07612">
        <ele>135</ele>
        <time>2025-12-29T14:32:35.802Z</time>
      </trkpt>
      <trkpt lat="43.13243" lon="3.07612">
        <ele>135</ele>
        <time>2025-12-29T14:32:36.802Z</time>
      </trkpt>
      <trkpt lat="43.13243" lon="3.07612">
        <ele>134</ele>
        <time>2025-12-29T14:32:37.802Z</time>
      </trkpt>
      <trkpt lat="43.13244" lon="3.07612">
        <ele>134</ele>
        <time>2025-12-29T14:32:38.802Z</time>
      </trkpt>
      <trkpt lat="43.13244" lon="3.07612">
        <ele>134</ele>
        <time>2025-12-29T14:32:39.802Z</time>
      </trkpt>
      <trkpt lat="43.13245" lon="3.07612">
        <ele>133</ele>
        <time>2025-12-29T14:32:40.802Z</time>
      </trkpt>
      <trkpt lat="43.13245" lon="3.07612">
        <ele>133</ele>
        <time>2025-12-29T14:32:41.802Z</time>
      </trkpt>
      <trkpt lat="43.13245" lon="3.07612">
        <ele>132</ele>
        <time>2025-12-29T14:32:42.802Z</time>
      </trkpt>
      <trkpt lat="43.13245" lon="3.07612">
        <ele>132</ele>
        <time>2025-12-29T14:32:43.802Z</time>
      </trkpt>
      <trkpt lat="43.13245" lon="3.07612">
        <ele>131</ele>
        <time>2025-12-29T14:32:44.802Z</time>
      </trkpt>
      <trkpt lat="43.13245" lon="3.07611">
        <ele>131</ele>
        <time>2025-12-29T14:32:45.802Z</time>
      </trkpt>
      <trkpt lat="43.13245" lon="3.07611">
        <ele>130</ele>
        <time>2025-12-29T14:32:46.802Z</time>
      </trkpt>
      <trkpt lat="43.13245" lon="3.0761">
        <ele>130</ele>
        <time>2025-12-29T14:32:47.802Z</time>
      </trkpt>
      <trkpt lat="43.13246" lon="3.0761">
        <ele>129</ele>
        <time>2025-12-29T14:32:48.802Z</time>
      </trkpt>
      <trkpt lat="43.13246" lon="3.0761">
        <ele>129</ele>
        <time>2025-12-29T14:32:49.802Z</time>
      </trkpt>
      <trkpt lat="43.13246" lon="3.0761">
        <ele>129</ele>
        <time>2025-12-29T14:32:50.802Z</time>
      </trkpt>
      <trkpt lat="43.13246" lon="3.07609">
        <ele>128</ele>
        <time>2025-12-29T14:32:51.802Z</time>
      </trkpt>
      <trkpt lat="43.13246" lon="3.07609">
        <ele>128</ele>
        <time>2025-12-29T14:32:52.802Z</time>
      </trkpt>
      <trkpt lat="43.13245" lon="3.07609">
        <ele>128</ele>
        <time>2025-12-29T14:32:53.802Z</time>
      </trkpt>
      <trkpt lat="43.13245" lon="3.07609">
        <ele>128</ele>
        <time>2025-12-29T14:32:54.802Z</time>
      </trkpt>
      <trkpt lat="43.13245" lon="3.07609">
        <ele>128</ele>
        <time>2025-12-29T14:32:55.802Z</time>
      </trkpt>
      <trkpt lat="43.13245" lon="3.07609">
        <ele>128</ele>
        <time>2025-12-29T14:32:56.802Z</time>
      </trkpt>
      <trkpt lat="43.13245" lon="3.07609">
        <ele>128</ele>
        <time>2025-12-29T14:32:57.802Z</time>
      </trkpt>
      <trkpt lat="43.13246" lon="3.07609">
        <ele>127</ele>
        <time>2025-12-29T14:32:58.802Z</time>
      </trkpt>
      <trkpt lat="43.13247" lon="3.07609">
        <ele>127</ele>
        <time>2025-12-29T14:32:59.802Z</time>
      </trkpt>
      <trkpt lat="43.13247" lon="3.07609">
        <ele>126</ele>
        <time>2025-12-29T14:33:00.802Z</time>
      </trkpt>
      <trkpt lat="43.13247" lon="3.07609">
        <ele>126</ele>
        <time>2025-12-29T14:33:01.802Z</time>
      </trkpt>
      <trkpt lat="43.13247" lon="3.07609">
        <ele>125</ele>
        <time>2025-12-29T14:33:02.802Z</time>
      </trkpt>
      <trkpt lat="43.13247" lon="3.07609">
        <ele>125</ele>
        <time>2025-12-29T14:33:03.802Z</time>
      </trkpt>
      <trkpt lat="43.13247" lon="3.07609">
        <ele>124</ele>
        <time>2025-12-29T14:33:04.802Z</time>
      </trkpt>
      <trkpt lat="43.13247" lon="3.07609">
        <ele>124</ele>
        <time>2025-12-29T14:33:05.802Z</time>
      </trkpt>
      <trkpt lat="43.13247" lon="3.07609">
        <ele>123</ele>
        <time>2025-12-29T14:33:06.802Z</time>
      </trkpt>
      <trkpt lat="43.13248" lon="3.07609">
        <ele>123</ele>
        <time>2025-12-29T14:33:07.802Z</time>
      </trkpt>
      <trkpt lat="43.13248" lon="3.07609">
        <ele>123</ele>
        <time>2025-12-29T14:33:08.802Z</time>
      </trkpt>
      <trkpt lat="43.13248" lon="3.07609">
        <ele>122</ele>
        <time>2025-12-29T14:33:09.802Z</time>
      </trkpt>
      <trkpt lat="43.13248" lon="3.07608">
        <ele>122</ele>
        <time>2025-12-29T14:33:10.802Z</time>
      </trkpt>
      <trkpt lat="43.13248" lon="3.07608">
        <ele>122</ele>
        <time>2025-12-29T14:33:11.802Z</time>
      </trkpt>
      <trkpt lat="43.13248" lon="3.07608">
        <ele>122</ele>
        <time>2025-12-29T14:33:12.802Z</time>
      </trkpt>
      <trkpt lat="43.13248" lon="3.07608">
        <ele>122</ele>
        <time>2025-12-29T14:33:13.802Z</time>
      </trkpt>
      <trkpt lat="43.13248" lon="3.07608">
        <ele>121</ele>
        <time>2025-12-29T14:33:14.802Z</time>
      </trkpt>
      <trkpt lat="43.13249" lon="3.07607">
        <ele>121</ele>
        <time>2025-12-29T14:33:15.802Z</time>
      </trkpt>
      <trkpt lat="43.13249" lon="3.07607">
        <ele>121</ele>
        <time>2025-12-29T14:33:16.802Z</time>
      </trkpt>
      <trkpt lat="43.13249" lon="3.07607">
        <ele>121</ele>
        <time>2025-12-29T14:33:17.802Z</time>
      </trkpt>
      <trkpt lat="43.13249" lon="3.07607">
        <ele>121</ele>
        <time>2025-12-29T14:33:18.802Z</time>
      </trkpt>
      <trkpt lat="43.13249" lon="3.07607">
        <ele>122</ele>
        <time>2025-12-29T14:33:19.802Z</time>
      </trkpt>
      <trkpt lat="43.13248" lon="3.07607">
        <ele>122</ele>
        <time>2025-12-29T14:33:20.802Z</time>
      </trkpt>
      <trkpt lat="43.13248" lon="3.07607">
        <ele>123</ele>
        <time>2025-12-29T14:33:21.802Z</time>
      </trkpt>
      <trkpt lat="43.13247" lon="3.07606">
        <ele>123</ele>
        <time>2025-12-29T14:33:22.802Z</time>
      </trkpt>
      <trkpt lat="43.13247" lon="3.07606">
        <ele>123</ele>
        <time>2025-12-29T14:33:23.802Z</time>
      </trkpt>
      <trkpt lat="43.13246" lon="3.07606">
        <ele>123</ele>
        <time>2025-12-29T14:33:24.802Z</time>
      </trkpt>
      <trkpt lat="43.13245" lon="3.07606">
        <ele>123</ele>
        <time>2025-12-29T14:33:25.802Z</time>
      </trkpt>
      <trkpt lat="43.13245" lon="3.07605">
        <ele>123</ele>
        <time>2025-12-29T14:33:26.802Z</time>
      </trkpt>
      <trkpt lat="43.13245" lon="3.07605">
        <ele>123</ele>
        <time>2025-12-29T14:33:27.802Z</time>
      </trkpt>
      <trkpt lat="43.13244" lon="3.07605">
        <ele>123</ele>
        <time>2025-12-29T14:33:28.802Z</time>
      </trkpt>
      <trkpt lat="43.13244" lon="3.07605">
        <ele>123</ele>
        <time>2025-12-29T14:33:29.802Z</time>
      </trkpt>
      <trkpt lat="43.13244" lon="3.07604">
        <ele>122</ele>
        <time>2025-12-29T14:33:30.802Z</time>
      </trkpt>
      <trkpt lat="43.13243" lon="3.07604">
        <ele>122</ele>
        <time>2025-12-29T14:33:31.802Z</time>
      </trkpt>
      <trkpt lat="43.13243" lon="3.07604">
        <ele>122</ele>
        <time>2025-12-29T14:33:32.802Z</time>
      </trkpt>
      <trkpt lat="43.13243" lon="3.07602">
        <ele>122</ele>
        <time>2025-12-29T14:33:33.802Z</time>
      </trkpt>
      <trkpt lat="43.13243" lon="3.07602">
        <ele>121</ele>
        <time>2025-12-29T14:33:34.802Z</time>
      </trkpt>
      <trkpt lat="43.13243" lon="3.07601">
        <ele>121</ele>
        <time>2025-12-29T14:33:35.802Z</time>
      </trkpt>
      <trkpt lat="43.13243" lon="3.07601">
        <ele>120</ele>
        <time>2025-12-29T14:33:36.802Z</time>
      </trkpt>
      <trkpt lat="43.13243" lon="3.076">
        <ele>119</ele>
        <time>2025-12-29T14:33:37.802Z</time>
      </trkpt>
      <trkpt lat="43.13242" lon="3.076">
        <ele>119</ele>
        <time>2025-12-29T14:33:38.802Z</time>
      </trkpt>
      <trkpt lat="43.13243" lon="3.076">
        <ele>118</ele>
        <time>2025-12-29T14:33:39.802Z</time>
      </trkpt>
      <trkpt lat="43.13243" lon="3.076">
        <ele>117</ele>
        <time>2025-12-29T14:33:40.802Z</time>
      </trkpt>
      <trkpt lat="43.13243" lon="3.076">
        <ele>117</ele>
        <time>2025-12-29T14:33:41.802Z</time>
      </trkpt>
      <trkpt lat="43.13243" lon="3.076">
        <ele>117</ele>
        <time>2025-12-29T14:33:42.802Z</time>
      </trkpt>
      <trkpt lat="43.13242" lon="3.076">
        <ele>117</ele>
        <time>2025-12-29T14:33:43.802Z</time>
      </trkpt>
      <trkpt lat="43.13242" lon="3.076">
        <ele>117</ele>
        <time>2025-12-29T14:33:44.802Z</time>
      </trkpt>
      <trkpt lat="43.13241" lon="3.07601">
        <ele>117</ele>
        <time>2025-12-29T14:33:45.802Z</time>
      </trkpt>
      <trkpt lat="43.13242" lon="3.07601">
        <ele>117</ele>
        <time>2025-12-29T14:33:46.802Z</time>
      </trkpt>
      <trkpt lat="43.13241" lon="3.07601">
        <ele>117</ele>
        <time>2025-12-29T14:33:47.802Z</time>
      </trkpt>
      <trkpt lat="43.13241" lon="3.076">
        <ele>117</ele>
        <time>2025-12-29T14:33:48.802Z</time>
      </trkpt>
      <trkpt lat="43.1324" lon="3.076">
        <ele>117</ele>
        <time>2025-12-29T14:33:49.802Z</time>
      </trkpt>
      <trkpt lat="43.1324" lon="3.076">
        <ele>116</ele>
        <time>2025-12-29T14:33:50.802Z</time>
      </trkpt>
      <trkpt lat="43.1324" lon="3.076">
        <ele>116</ele>
        <time>2025-12-29T14:33:51.802Z</time>
      </trkpt>
      <trkpt lat="43.13239" lon="3.07599">
        <ele>115</ele>
        <time>2025-12-29T14:33:52.802Z</time>
      </trkpt>
      <trkpt lat="43.13239" lon="3.07599">
        <ele>115</ele>
        <time>2025-12-29T14:33:53.802Z</time>
      </trkpt>
      <trkpt lat="43.13239" lon="3.07599">
        <ele>115</ele>
        <time>2025-12-29T14:33:54.802Z</time>
      </trkpt>
      <trkpt lat="43.13238" lon="3.07599">
        <ele>114</ele>
        <time>2025-12-29T14:33:55.802Z</time>
      </trkpt>
      <trkpt lat="43.13237" lon="3.07599">
        <ele>114</ele>
        <time>2025-12-29T14:33:56.802Z</time>
      </trkpt>
      <trkpt lat="43.13237" lon="3.07599">
        <ele>114</ele>
        <time>2025-12-29T14:33:57.802Z</time>
      </trkpt>
      <trkpt lat="43.13236" lon="3.076">
        <ele>114</ele>
        <time>2025-12-29T14:33:58.802Z</time>
      </trkpt>
      <trkpt lat="43.13236" lon="3.07599">
        <ele>114</ele>
        <time>2025-12-29T14:33:59.802Z</time>
      </trkpt>
      <trkpt lat="43.13235" lon="3.07599">
        <ele>114</ele>
        <time>2025-12-29T14:34:00.802Z</time>
      </trkpt>
      <trkpt lat="43.13234" lon="3.07598">
        <ele>114</ele>
        <time>2025-12-29T14:34:01.802Z</time>
      </trkpt>
      <trkpt lat="43.13234" lon="3.07598">
        <ele>114</ele>
        <time>2025-12-29T14:34:02.802Z</time>
      </trkpt>
      <trkpt lat="43.13233" lon="3.07598">
        <ele>114</ele>
        <time>2025-12-29T14:34:03.802Z</time>
      </trkpt>
      <trkpt lat="43.13232" lon="3.07598">
        <ele>114</ele>
        <time>2025-12-29T14:34:04.802Z</time>
      </trkpt>
      <trkpt lat="43.13232" lon="3.07597">
        <ele>114</ele>
        <time>2025-12-29T14:34:05.802Z</time>
      </trkpt>
      <trkpt lat="43.13231" lon="3.07597">
        <ele>114</ele>
        <time>2025-12-29T14:34:06.802Z</time>
      </trkpt>
      <trkpt lat="43.1323" lon="3.07596">
        <ele>113</ele>
        <time>2025-12-29T14:34:07.802Z</time>
      </trkpt>
      <trkpt lat="43.13229" lon="3.07595">
        <ele>113</ele>
        <time>2025-12-29T14:34:08.802Z</time>
      </trkpt>
      <trkpt lat="43.13229" lon="3.07595">
        <ele>113</ele>
        <time>2025-12-29T14:34:09.802Z</time>
      </trkpt>
      <trkpt lat="43.13229" lon="3.07593">
        <ele>113</ele>
        <time>2025-12-29T14:34:10.802Z</time>
      </trkpt>
      <trkpt lat="43.13228" lon="3.07593">
        <ele>113</ele>
        <time>2025-12-29T14:34:11.802Z</time>
      </trkpt>
      <trkpt lat="43.13227" lon="3.07592">
        <ele>113</ele>
        <time>2025-12-29T14:34:12.802Z</time>
      </trkpt>
      <trkpt lat="43.13227" lon="3.07592">
        <ele>113</ele>
        <time>2025-12-29T14:34:13.802Z</time>
      </trkpt>
      <trkpt lat="43.13226" lon="3.07592">
        <ele>113</ele>
        <time>2025-12-29T14:34:14.802Z</time>
      </trkpt>
      <trkpt lat="43.13226" lon="3.07592">
        <ele>113</ele>
        <time>2025-12-29T14:34:15.802Z</time>
      </trkpt>
      <trkpt lat="43.13225" lon="3.07592">
        <ele>113</ele>
        <time>2025-12-29T14:34:16.802Z</time>
      </trkpt>
      <trkpt lat="43.13225" lon="3.07591">
        <ele>114</ele>
        <time>2025-12-29T14:34:17.802Z</time>
      </trkpt>
      <trkpt lat="43.13225" lon="3.07591">
        <ele>114</ele>
        <time>2025-12-29T14:34:18.802Z</time>
      </trkpt>
      <trkpt lat="43.13224" lon="3.07591">
        <ele>114</ele>
        <time>2025-12-29T14:34:19.802Z</time>
      </trkpt>
      <trkpt lat="43.13224" lon="3.07592">
        <ele>114</ele>
        <time>2025-12-29T14:34:20.802Z</time>
      </trkpt>
      <trkpt lat="43.13224" lon="3.07592">
        <ele>113</ele>
        <time>2025-12-29T14:34:21.802Z</time>
      </trkpt>
      <trkpt lat="43.13223" lon="3.07592">
        <ele>113</ele>
        <time>2025-12-29T14:34:22.802Z</time>
      </trkpt>
      <trkpt lat="43.13223" lon="3.07592">
        <ele>112</ele>
        <time>2025-12-29T14:34:23.802Z</time>
      </trkpt>
      <trkpt lat="43.13223" lon="3.07592">
        <ele>111</ele>
        <time>2025-12-29T14:34:24.802Z</time>
      </trkpt>
      <trkpt lat="43.13223" lon="3.07592">
        <ele>111</ele>
        <time>2025-12-29T14:34:25.802Z</time>
      </trkpt>
      <trkpt lat="43.13223" lon="3.07592">
        <ele>110</ele>
        <time>2025-12-29T14:34:26.802Z</time>
      </trkpt>
      <trkpt lat="43.13223" lon="3.07592">
        <ele>110</ele>
        <time>2025-12-29T14:34:27.802Z</time>
      </trkpt>
      <trkpt lat="43.13223" lon="3.07593">
        <ele>110</ele>
        <time>2025-12-29T14:34:28.802Z</time>
      </trkpt>
      <trkpt lat="43.13223" lon="3.07593">
        <ele>110</ele>
        <time>2025-12-29T14:34:29.802Z</time>
      </trkpt>
      <trkpt lat="43.13222" lon="3.07593">
        <ele>110</ele>
        <time>2025-12-29T14:34:30.802Z</time>
      </trkpt>
      <trkpt lat="43.13221" lon="3.07594">
        <ele>110</ele>
        <time>2025-12-29T14:34:31.802Z</time>
      </trkpt>
      <trkpt lat="43.1322" lon="3.07593">
        <ele>110</ele>
        <time>2025-12-29T14:34:32.802Z</time>
      </trkpt>
      <trkpt lat="43.1322" lon="3.07593">
        <ele>111</ele>
        <time>2025-12-29T14:34:33.802Z</time>
      </trkpt>
      <trkpt lat="43.1322" lon="3.07593">
        <ele>111</ele>
        <time>2025-12-29T14:34:34.802Z</time>
      </trkpt>
      <trkpt lat="43.13219" lon="3.07593">
        <ele>112</ele>
        <time>2025-12-29T14:34:35.802Z</time>
      </trkpt>
      <trkpt lat="43.13219" lon="3.07594">
        <ele>112</ele>
        <time>2025-12-29T14:34:36.802Z</time>
      </trkpt>
      <trkpt lat="43.13218" lon="3.07594">
        <ele>112</ele>
        <time>2025-12-29T14:34:37.802Z</time>
      </trkpt>
      <trkpt lat="43.13218" lon="3.07594">
        <ele>112</ele>
        <time>2025-12-29T14:34:38.802Z</time>
      </trkpt>
      <trkpt lat="43.13218" lon="3.07594">
        <ele>112</ele>
        <time>2025-12-29T14:34:39.802Z</time>
      </trkpt>
      <trkpt lat="43.13218" lon="3.07594">
        <ele>112</ele>
        <time>2025-12-29T14:34:40.802Z</time>
      </trkpt>
      <trkpt lat="43.13217" lon="3.07594">
        <ele>112</ele>
        <time>2025-12-29T14:34:41.802Z</time>
      </trkpt>
      <trkpt lat="43.13217" lon="3.07594">
        <ele>112</ele>
        <time>2025-12-29T14:34:42.802Z</time>
      </trkpt>
      <trkpt lat="43.13217" lon="3.07594">
        <ele>112</ele>
        <time>2025-12-29T14:34:43.802Z</time>
      </trkpt>
      <trkpt lat="43.13217" lon="3.07594">
        <ele>112</ele>
        <time>2025-12-29T14:34:44.802Z</time>
      </trkpt>
      <trkpt lat="43.13217" lon="3.07594">
        <ele>111</ele>
        <time>2025-12-29T14:34:45.802Z</time>
      </trkpt>
      <trkpt lat="43.13217" lon="3.07594">
        <ele>111</ele>
        <time>2025-12-29T14:34:46.802Z</time>
      </trkpt>
      <trkpt lat="43.13217" lon="3.07594">
        <ele>111</ele>
        <time>2025-12-29T14:34:47.802Z</time>
      </trkpt>
      <trkpt lat="43.13217" lon="3.07594">
        <ele>110</ele>
        <time>2025-12-29T14:34:48.802Z</time>
      </trkpt>
      <trkpt lat="43.13217" lon="3.07594">
        <ele>110</ele>
        <time>2025-12-29T14:34:49.802Z</time>
      </trkpt>
      <trkpt lat="43.13217" lon="3.07594">
        <ele>110</ele>
        <time>2025-12-29T14:34:50.802Z</time>
      </trkpt>
      <trkpt lat="43.13217" lon="3.07594">
        <ele>110</ele>
        <time>2025-12-29T14:34:51.802Z</time>
      </trkpt>
      <trkpt lat="43.13217" lon="3.07594">
        <ele>109</ele>
        <time>2025-12-29T14:34:52.802Z</time>
      </trkpt>
      <trkpt lat="43.13217" lon="3.07593">
        <ele>109</ele>
        <time>2025-12-29T14:34:53.802Z</time>
      </trkpt>
      <trkpt lat="43.13217" lon="3.07593">
        <ele>109</ele>
        <time>2025-12-29T14:34:54.802Z</time>
      </trkpt>
      <trkpt lat="43.13218" lon="3.07594">
        <ele>109</ele>
        <time>2025-12-29T14:34:55.802Z</time>
      </trkpt>
      <trkpt lat="43.13218" lon="3.07594">
        <ele>109</ele>
        <time>2025-12-29T14:34:56.802Z</time>
      </trkpt>
      <trkpt lat="43.13218" lon="3.07594">
        <ele>109</ele>
        <time>2025-12-29T14:34:57.802Z</time>
      </trkpt>
      <trkpt lat="43.13218" lon="3.07594">
        <ele>109</ele>
        <time>2025-12-29T14:34:58.802Z</time>
      </trkpt>
      <trkpt lat="43.13218" lon="3.07593">
        <ele>109</ele>
        <time>2025-12-29T14:34:59.802Z</time>
      </trkpt>
      <trkpt lat="43.13218" lon="3.07593">
        <ele>109</ele>
        <time>2025-12-29T14:35:00.802Z</time>
      </trkpt>
      <trkpt lat="43.13218" lon="3.07593">
        <ele>109</ele>
        <time>2025-12-29T14:35:01.802Z</time>
      </trkpt>
      <trkpt lat="43.13218" lon="3.07593">
        <ele>108</ele>
        <time>2025-12-29T14:35:02.802Z</time>
      </trkpt>
      <trkpt lat="43.13218" lon="3.07593">
        <ele>108</ele>
        <time>2025-12-29T14:35:03.802Z</time>
      </trkpt>
      <trkpt lat="43.13218" lon="3.07593">
        <ele>108</ele>
        <time>2025-12-29T14:35:04.802Z</time>
      </trkpt>
      <trkpt lat="43.13217" lon="3.07593">
        <ele>108</ele>
        <time>2025-12-29T14:35:05.802Z</time>
      </trkpt>
      <trkpt lat="43.13217" lon="3.07593">
        <ele>108</ele>
        <time>2025-12-29T14:35:06.802Z</time>
      </trkpt>
      <trkpt lat="43.13217" lon="3.07593">
        <ele>108</ele>
        <time>2025-12-29T14:35:07.802Z</time>
      </trkpt>
      <trkpt lat="43.13217" lon="3.07593">
        <ele>108</ele>
        <time>2025-12-29T14:35:08.802Z</time>
      </trkpt>
      <trkpt lat="43.13217" lon="3.07593">
        <ele>108</ele>
        <time>2025-12-29T14:35:09.802Z</time>
      </trkpt>
      <trkpt lat="43.13217" lon="3.07593">
        <ele>108</ele>
        <time>2025-12-29T14:35:10.802Z</time>
      </trkpt>
      <trkpt lat="43.13217" lon="3.07593">
        <ele>108</ele>
        <time>2025-12-29T14:35:11.802Z</time>
      </trkpt>
      <trkpt lat="43.13217" lon="3.07593">
        <ele>109</ele>
        <time>2025-12-29T14:35:12.802Z</time>
      </trkpt>
      <trkpt lat="43.13217" lon="3.07593">
        <ele>109</ele>
        <time>2025-12-29T14:35:13.802Z</time>
      </trkpt>
      <trkpt lat="43.13217" lon="3.07593">
        <ele>109</ele>
        <time>2025-12-29T14:35:14.802Z</time>
      </trkpt>
      <trkpt lat="43.13217" lon="3.07593">
        <ele>109</ele>
        <time>2025-12-29T14:35:15.802Z</time>
      </trkpt>
      <trkpt lat="43.13217" lon="3.07593">
        <ele>109</ele>
        <time>2025-12-29T14:35:16.802Z</time>
      </trkpt>
      <trkpt lat="43.13217" lon="3.07593">
        <ele>109</ele>
        <time>2025-12-29T14:35:17.802Z</time>
      </trkpt>
      <trkpt lat="43.13217" lon="3.07593">
        <ele>109</ele>
        <time>2025-12-29T14:35:18.802Z</time>
      </trkpt>
      <trkpt lat="43.13217" lon="3.07593">
        <ele>109</ele>
        <time>2025-12-29T14:35:19.802Z</time>
      </trkpt>
      <trkpt lat="43.13217" lon="3.07593">
        <ele>109</ele>
        <time>2025-12-29T14:35:20.802Z</time>
      </trkpt>
      <trkpt lat="43.13217" lon="3.07593">
        <ele>109</ele>
        <time>2025-12-29T14:35:21.802Z</time>
      </trkpt>
      <trkpt lat="43.13217" lon="3.07592">
        <ele>110</ele>
        <time>2025-12-29T14:35:22.802Z</time>
      </trkpt>
      <trkpt lat="43.13217" lon="3.07592">
        <ele>110</ele>
        <time>2025-12-29T14:35:23.802Z</time>
      </trkpt>
      <trkpt lat="43.13217" lon="3.07592">
        <ele>111</ele>
        <time>2025-12-29T14:35:24.802Z</time>
      </trkpt>
      <trkpt lat="43.13217" lon="3.07593">
        <ele>111</ele>
        <time>2025-12-29T14:35:25.802Z</time>
      </trkpt>
      <trkpt lat="43.13217" lon="3.07593">
        <ele>112</ele>
        <time>2025-12-29T14:35:26.802Z</time>
      </trkpt>
      <trkpt lat="43.13217" lon="3.07593">
        <ele>113</ele>
        <time>2025-12-29T14:35:27.802Z</time>
      </trkpt>
      <trkpt lat="43.13217" lon="3.07593">
        <ele>113</ele>
        <time>2025-12-29T14:35:28.802Z</time>
      </trkpt>
      <trkpt lat="43.13217" lon="3.07592">
        <ele>114</ele>
        <time>2025-12-29T14:35:29.802Z</time>
      </trkpt>
      <trkpt lat="43.13217" lon="3.07592">
        <ele>114</ele>
        <time>2025-12-29T14:35:30.802Z</time>
      </trkpt>
      <trkpt lat="43.13217" lon="3.07592">
        <ele>115</ele>
        <time>2025-12-29T14:35:31.802Z</time>
      </trkpt>
      <trkpt lat="43.13217" lon="3.07592">
        <ele>115</ele>
        <time>2025-12-29T14:35:32.802Z</time>
      </trkpt>
      <trkpt lat="43.13217" lon="3.07592">
        <ele>116</ele>
        <time>2025-12-29T14:35:33.802Z</time>
      </trkpt>
      <trkpt lat="43.13217" lon="3.07592">
        <ele>117</ele>
        <time>2025-12-29T14:35:34.802Z</time>
      </trkpt>
      <trkpt lat="43.13217" lon="3.07592">
        <ele>117</ele>
        <time>2025-12-29T14:35:35.802Z</time>
      </trkpt>
      <trkpt lat="43.13217" lon="3.07592">
        <ele>118</ele>
        <time>2025-12-29T14:35:36.802Z</time>
      </trkpt>
      <trkpt lat="43.13217" lon="3.07593">
        <ele>119</ele>
        <time>2025-12-29T14:35:37.802Z</time>
      </trkpt>
      <trkpt lat="43.13217" lon="3.07593">
        <ele>119</ele>
        <time>2025-12-29T14:35:38.802Z</time>
      </trkpt>
      <trkpt lat="43.13218" lon="3.07593">
        <ele>119</ele>
        <time>2025-12-29T14:35:39.802Z</time>
      </trkpt>
      <trkpt lat="43.13218" lon="3.07593">
        <ele>120</ele>
        <time>2025-12-29T14:35:40.802Z</time>
      </trkpt>
      <trkpt lat="43.13218" lon="3.07593">
        <ele>120</ele>
        <time>2025-12-29T14:35:41.802Z</time>
      </trkpt>
      <trkpt lat="43.13218" lon="3.07593">
        <ele>120</ele>
        <time>2025-12-29T14:35:42.802Z</time>
      </trkpt>
      <trkpt lat="43.13218" lon="3.07593">
        <ele>121</ele>
        <time>2025-12-29T14:35:43.802Z</time>
      </trkpt>
      <trkpt lat="43.13218" lon="3.07593">
        <ele>121</ele>
        <time>2025-12-29T14:35:44.802Z</time>
      </trkpt>
      <trkpt lat="43.13218" lon="3.07593">
        <ele>121</ele>
        <time>2025-12-29T14:35:45.802Z</time>
      </trkpt>
      <trkpt lat="43.13218" lon="3.07593">
        <ele>121</ele>
        <time>2025-12-29T14:35:46.802Z</time>
      </trkpt>
      <trkpt lat="43.13218" lon="3.07593">
        <ele>121</ele>
        <time>2025-12-29T14:35:47.802Z</time>
      </trkpt>
      <trkpt lat="43.13218" lon="3.07593">
        <ele>122</ele>
        <time>2025-12-29T14:35:48.802Z</time>
      </trkpt>
      <trkpt lat="43.13218" lon="3.07593">
        <ele>122</ele>
        <time>2025-12-29T14:35:49.802Z</time>
      </trkpt>
      <trkpt lat="43.13217" lon="3.07593">
        <ele>122</ele>
        <time>2025-12-29T14:35:50.802Z</time>
      </trkpt>
      <trkpt lat="43.13217" lon="3.07593">
        <ele>123</ele>
        <time>2025-12-29T14:35:51.802Z</time>
      </trkpt>
      <trkpt lat="43.13217" lon="3.07593">
        <ele>123</ele>
        <time>2025-12-29T14:35:52.802Z</time>
      </trkpt>
      <trkpt lat="43.13217" lon="3.07593">
        <ele>123</ele>
        <time>2025-12-29T14:35:53.802Z</time>
      </trkpt>
      <trkpt lat="43.13217" lon="3.07593">
        <ele>123</ele>
        <time>2025-12-29T14:35:54.802Z</time>
      </trkpt>
      <trkpt lat="43.13218" lon="3.07593">
        <ele>122</ele>
        <time>2025-12-29T14:35:55.802Z</time>
      </trkpt>
      <trkpt lat="43.13218" lon="3.07592">
        <ele>122</ele>
        <time>2025-12-29T14:35:56.802Z</time>
      </trkpt>
      <trkpt lat="43.13218" lon="3.07592">
        <ele>121</ele>
        <time>2025-12-29T14:35:57.802Z</time>
      </trkpt>
      <trkpt lat="43.13218" lon="3.07593">
        <ele>121</ele>
        <time>2025-12-29T14:35:58.802Z</time>
      </trkpt>
      <trkpt lat="43.13219" lon="3.07593">
        <ele>120</ele>
        <time>2025-12-29T14:35:59.802Z</time>
      </trkpt>
      <trkpt lat="43.13219" lon="3.07592">
        <ele>120</ele>
        <time>2025-12-29T14:36:00.802Z</time>
      </trkpt>
      <trkpt lat="43.13219" lon="3.07592">
        <ele>119</ele>
        <time>2025-12-29T14:36:01.802Z</time>
      </trkpt>
      <trkpt lat="43.13219" lon="3.07592">
        <ele>119</ele>
        <time>2025-12-29T14:36:02.802Z</time>
      </trkpt>
      <trkpt lat="43.13219" lon="3.07592">
        <ele>118</ele>
        <time>2025-12-29T14:36:03.802Z</time>
      </trkpt>
      <trkpt lat="43.13219" lon="3.07592">
        <ele>118</ele>
        <time>2025-12-29T14:36:04.802Z</time>
      </trkpt>
      <trkpt lat="43.13219" lon="3.07592">
        <ele>117</ele>
        <time>2025-12-29T14:36:05.802Z</time>
      </trkpt>
      <trkpt lat="43.1322" lon="3.07592">
        <ele>117</ele>
        <time>2025-12-29T14:36:06.802Z</time>
      </trkpt>
      <trkpt lat="43.1322" lon="3.07593">
        <ele>116</ele>
        <time>2025-12-29T14:36:07.802Z</time>
      </trkpt>
      <trkpt lat="43.13221" lon="3.07593">
        <ele>116</ele>
        <time>2025-12-29T14:36:08.802Z</time>
      </trkpt>
      <trkpt lat="43.13221" lon="3.07593">
        <ele>115</ele>
        <time>2025-12-29T14:36:09.802Z</time>
      </trkpt>
      <trkpt lat="43.13221" lon="3.07593">
        <ele>115</ele>
        <time>2025-12-29T14:36:10.802Z</time>
      </trkpt>
      <trkpt lat="43.13222" lon="3.07593">
        <ele>114</ele>
        <time>2025-12-29T14:36:11.802Z</time>
      </trkpt>
      <trkpt lat="43.13222" lon="3.07593">
        <ele>114</ele>
        <time>2025-12-29T14:36:12.802Z</time>
      </trkpt>
      <trkpt lat="43.13222" lon="3.07594">
        <ele>114</ele>
        <time>2025-12-29T14:36:13.802Z</time>
      </trkpt>
      <trkpt lat="43.13223" lon="3.07594">
        <ele>114</ele>
        <time>2025-12-29T14:36:14.802Z</time>
      </trkpt>
      <trkpt lat="43.13223" lon="3.07594">
        <ele>114</ele>
        <time>2025-12-29T14:36:15.802Z</time>
      </trkpt>
      <trkpt lat="43.13223" lon="3.07594">
        <ele>114</ele>
        <time>2025-12-29T14:36:16.802Z</time>
      </trkpt>
      <trkpt lat="43.13223" lon="3.07594">
        <ele>114</ele>
        <time>2025-12-29T14:36:17.802Z</time>
      </trkpt>
      <trkpt lat="43.13223" lon="3.07594">
        <ele>114</ele>
        <time>2025-12-29T14:36:18.802Z</time>
      </trkpt>
      <trkpt lat="43.13223" lon="3.07594">
        <ele>114</ele>
        <time>2025-12-29T14:36:19.802Z</time>
      </trkpt>
      <trkpt lat="43.13223" lon="3.07593">
        <ele>114</ele>
        <time>2025-12-29T14:36:20.802Z</time>
      </trkpt>
      <trkpt lat="43.13222" lon="3.07592">
        <ele>114</ele>
        <time>2025-12-29T14:36:21.802Z</time>
      </trkpt>
      <trkpt lat="43.13222" lon="3.07592">
        <ele>114</ele>
        <time>2025-12-29T14:36:22.802Z</time>
      </trkpt>
      <trkpt lat="43.13222" lon="3.07592">
        <ele>114</ele>
        <time>2025-12-29T14:36:23.802Z</time>
      </trkpt>
      <trkpt lat="43.13221" lon="3.07592">
        <ele>114</ele>
        <time>2025-12-29T14:36:24.802Z</time>
      </trkpt>
      <trkpt lat="43.13221" lon="3.07591">
        <ele>114</ele>
        <time>2025-12-29T14:36:25.802Z</time>
      </trkpt>
      <trkpt lat="43.13221" lon="3.0759">
        <ele>114</ele>
        <time>2025-12-29T14:36:26.802Z</time>
      </trkpt>
      <trkpt lat="43.1322" lon="3.0759">
        <ele>114</ele>
        <time>2025-12-29T14:36:27.802Z</time>
      </trkpt>
      <trkpt lat="43.13219" lon="3.0759">
        <ele>115</ele>
        <time>2025-12-29T14:36:28.802Z</time>
      </trkpt>
      <trkpt lat="43.13219" lon="3.07589">
        <ele>115</ele>
        <time>2025-12-29T14:36:29.802Z</time>
      </trkpt>
      <trkpt lat="43.13219" lon="3.07589">
        <ele>114</ele>
        <time>2025-12-29T14:36:30.802Z</time>
      </trkpt>
      <trkpt lat="43.13219" lon="3.07588">
        <ele>114</ele>
        <time>2025-12-29T14:36:31.802Z</time>
      </trkpt>
      <trkpt lat="43.13219" lon="3.07587">
        <ele>114</ele>
        <time>2025-12-29T14:36:32.802Z</time>
      </trkpt>
      <trkpt lat="43.13218" lon="3.07586">
        <ele>114</ele>
        <time>2025-12-29T14:36:33.802Z</time>
      </trkpt>
      <trkpt lat="43.13217" lon="3.07585">
        <ele>114</ele>
        <time>2025-12-29T14:36:34.802Z</time>
      </trkpt>
      <trkpt lat="43.13215" lon="3.07583">
        <ele>114</ele>
        <time>2025-12-29T14:36:35.802Z</time>
      </trkpt>
      <trkpt lat="43.13214" lon="3.07581">
        <ele>114</ele>
        <time>2025-12-29T14:36:36.802Z</time>
      </trkpt>
      <trkpt lat="43.13213" lon="3.0758">
        <ele>113</ele>
        <time>2025-12-29T14:36:37.802Z</time>
      </trkpt>
      <trkpt lat="43.13213" lon="3.0758">
        <ele>113</ele>
        <time>2025-12-29T14:36:38.802Z</time>
      </trkpt>
      <trkpt lat="43.13213" lon="3.0758">
        <ele>113</ele>
        <time>2025-12-29T14:36:39.802Z</time>
      </trkpt>
      <trkpt lat="43.13213" lon="3.07579">
        <ele>113</ele>
        <time>2025-12-29T14:36:40.802Z</time>
      </trkpt>
      <trkpt lat="43.13213" lon="3.07578">
        <ele>112</ele>
        <time>2025-12-29T14:36:41.802Z</time>
      </trkpt>
      <trkpt lat="43.13212" lon="3.07577">
        <ele>112</ele>
        <time>2025-12-29T14:36:42.802Z</time>
      </trkpt>
      <trkpt lat="43.13212" lon="3.07575">
        <ele>112</ele>
        <time>2025-12-29T14:36:43.802Z</time>
      </trkpt>
      <trkpt lat="43.13211" lon="3.07574">
        <ele>112</ele>
        <time>2025-12-29T14:36:44.802Z</time>
      </trkpt>
      <trkpt lat="43.1321" lon="3.07573">
        <ele>112</ele>
        <time>2025-12-29T14:36:45.802Z</time>
      </trkpt>
      <trkpt lat="43.13209" lon="3.07573">
        <ele>111</ele>
        <time>2025-12-29T14:36:46.802Z</time>
      </trkpt>
      <trkpt lat="43.13207" lon="3.07572">
        <ele>111</ele>
        <time>2025-12-29T14:36:47.802Z</time>
      </trkpt>
      <trkpt lat="43.13207" lon="3.07572">
        <ele>111</ele>
        <time>2025-12-29T14:36:48.802Z</time>
      </trkpt>
      <trkpt lat="43.13207" lon="3.07572">
        <ele>110</ele>
        <time>2025-12-29T14:36:49.802Z</time>
      </trkpt>
      <trkpt lat="43.13207" lon="3.07571">
        <ele>110</ele>
        <time>2025-12-29T14:36:50.802Z</time>
      </trkpt>
      <trkpt lat="43.13208" lon="3.0757">
        <ele>110</ele>
        <time>2025-12-29T14:36:51.802Z</time>
      </trkpt>
      <trkpt lat="43.13208" lon="3.07569">
        <ele>110</ele>
        <time>2025-12-29T14:36:52.802Z</time>
      </trkpt>
      <trkpt lat="43.13208" lon="3.07568">
        <ele>110</ele>
        <time>2025-12-29T14:36:53.802Z</time>
      </trkpt>
      <trkpt lat="43.13208" lon="3.07566">
        <ele>109</ele>
        <time>2025-12-29T14:36:54.802Z</time>
      </trkpt>
      <trkpt lat="43.13208" lon="3.07565">
        <ele>109</ele>
        <time>2025-12-29T14:36:55.802Z</time>
      </trkpt>
      <trkpt lat="43.13208" lon="3.07565">
        <ele>109</ele>
        <time>2025-12-29T14:36:56.802Z</time>
      </trkpt>
      <trkpt lat="43.13208" lon="3.07565">
        <ele>109</ele>
        <time>2025-12-29T14:36:57.802Z</time>
      </trkpt>
      <trkpt lat="43.13207" lon="3.07564">
        <ele>109</ele>
        <time>2025-12-29T14:36:58.802Z</time>
      </trkpt>
      <trkpt lat="43.13207" lon="3.07563">
        <ele>109</ele>
        <time>2025-12-29T14:36:59.802Z</time>
      </trkpt>
      <trkpt lat="43.13207" lon="3.07563">
        <ele>109</ele>
        <time>2025-12-29T14:37:00.802Z</time>
      </trkpt>
      <trkpt lat="43.13207" lon="3.07562">
        <ele>109</ele>
        <time>2025-12-29T14:37:01.802Z</time>
      </trkpt>
      <trkpt lat="43.13206" lon="3.07562">
        <ele>109</ele>
        <time>2025-12-29T14:37:02.802Z</time>
      </trkpt>
      <trkpt lat="43.13206" lon="3.07563">
        <ele>108</ele>
        <time>2025-12-29T14:37:03.802Z</time>
      </trkpt>
      <trkpt lat="43.13206" lon="3.07563">
        <ele>108</ele>
        <time>2025-12-29T14:37:04.802Z</time>
      </trkpt>
      <trkpt lat="43.13206" lon="3.07563">
        <ele>108</ele>
        <time>2025-12-29T14:37:05.802Z</time>
      </trkpt>
      <trkpt lat="43.13206" lon="3.07563">
        <ele>108</ele>
        <time>2025-12-29T14:37:06.802Z</time>
      </trkpt>
      <trkpt lat="43.13206" lon="3.07562">
        <ele>107</ele>
        <time>2025-12-29T14:37:07.802Z</time>
      </trkpt>
      <trkpt lat="43.13206" lon="3.07562">
        <ele>107</ele>
        <time>2025-12-29T14:37:08.802Z</time>
      </trkpt>
      <trkpt lat="43.13205" lon="3.07561">
        <ele>107</ele>
        <time>2025-12-29T14:37:09.802Z</time>
      </trkpt>
      <trkpt lat="43.13205" lon="3.07561">
        <ele>107</ele>
        <time>2025-12-29T14:37:10.802Z</time>
      </trkpt>
      <trkpt lat="43.13205" lon="3.07561">
        <ele>107</ele>
        <time>2025-12-29T14:37:11.802Z</time>
      </trkpt>
      <trkpt lat="43.13204" lon="3.07561">
        <ele>107</ele>
        <time>2025-12-29T14:37:12.802Z</time>
      </trkpt>
      <trkpt lat="43.13204" lon="3.0756">
        <ele>106</ele>
        <time>2025-12-29T14:37:13.802Z</time>
      </trkpt>
      <trkpt lat="43.13203" lon="3.07559">
        <ele>106</ele>
        <time>2025-12-29T14:37:14.802Z</time>
      </trkpt>
      <trkpt lat="43.13202" lon="3.07558">
        <ele>106</ele>
        <time>2025-12-29T14:37:15.802Z</time>
      </trkpt>
      <trkpt lat="43.13201" lon="3.07558">
        <ele>105</ele>
        <time>2025-12-29T14:37:16.802Z</time>
      </trkpt>
      <trkpt lat="43.132" lon="3.07558">
        <ele>105</ele>
        <time>2025-12-29T14:37:17.802Z</time>
      </trkpt>
      <trkpt lat="43.132" lon="3.07557">
        <ele>105</ele>
        <time>2025-12-29T14:37:18.802Z</time>
      </trkpt>
      <trkpt lat="43.13199" lon="3.07557">
        <ele>104</ele>
        <time>2025-12-29T14:37:19.802Z</time>
      </trkpt>
      <trkpt lat="43.13198" lon="3.07557">
        <ele>104</ele>
        <time>2025-12-29T14:37:20.802Z</time>
      </trkpt>
      <trkpt lat="43.13197" lon="3.07556">
        <ele>104</ele>
        <time>2025-12-29T14:37:21.802Z</time>
      </trkpt>
      <trkpt lat="43.13196" lon="3.07556">
        <ele>104</ele>
        <time>2025-12-29T14:37:22.802Z</time>
      </trkpt>
      <trkpt lat="43.13195" lon="3.07554">
        <ele>104</ele>
        <time>2025-12-29T14:37:23.802Z</time>
      </trkpt>
      <trkpt lat="43.13193" lon="3.07554">
        <ele>103</ele>
        <time>2025-12-29T14:37:24.802Z</time>
      </trkpt>
      <trkpt lat="43.13193" lon="3.07554">
        <ele>102</ele>
        <time>2025-12-29T14:37:25.802Z</time>
      </trkpt>
      <trkpt lat="43.13192" lon="3.07554">
        <ele>102</ele>
        <time>2025-12-29T14:37:26.802Z</time>
      </trkpt>
      <trkpt lat="43.1319" lon="3.07554">
        <ele>101</ele>
        <time>2025-12-29T14:37:27.802Z</time>
      </trkpt>
      <trkpt lat="43.1319" lon="3.07554">
        <ele>101</ele>
        <time>2025-12-29T14:37:28.802Z</time>
      </trkpt>
      <trkpt lat="43.13189" lon="3.07553">
        <ele>100</ele>
        <time>2025-12-29T14:37:29.802Z</time>
      </trkpt>
      <trkpt lat="43.13187" lon="3.07552">
        <ele>100</ele>
        <time>2025-12-29T14:37:30.802Z</time>
      </trkpt>
      <trkpt lat="43.13186" lon="3.07552">
        <ele>100</ele>
        <time>2025-12-29T14:37:31.802Z</time>
      </trkpt>
      <trkpt lat="43.13185" lon="3.07551">
        <ele>100</ele>
        <time>2025-12-29T14:37:32.802Z</time>
      </trkpt>
      <trkpt lat="43.13184" lon="3.0755">
        <ele>99</ele>
        <time>2025-12-29T14:37:33.802Z</time>
      </trkpt>
      <trkpt lat="43.13183" lon="3.0755">
        <ele>99</ele>
        <time>2025-12-29T14:37:34.802Z</time>
      </trkpt>
      <trkpt lat="43.13182" lon="3.07549">
        <ele>99</ele>
        <time>2025-12-29T14:37:35.802Z</time>
      </trkpt>
      <trkpt lat="43.1318" lon="3.07549">
        <ele>99</ele>
        <time>2025-12-29T14:37:36.802Z</time>
      </trkpt>
      <trkpt lat="43.13179" lon="3.07549">
        <ele>99</ele>
        <time>2025-12-29T14:37:37.802Z</time>
      </trkpt>
      <trkpt lat="43.13178" lon="3.07548">
        <ele>99</ele>
        <time>2025-12-29T14:37:38.802Z</time>
      </trkpt>
      <trkpt lat="43.13176" lon="3.07548">
        <ele>98</ele>
        <time>2025-12-29T14:37:39.802Z</time>
      </trkpt>
      <trkpt lat="43.13175" lon="3.07548">
        <ele>98</ele>
        <time>2025-12-29T14:37:40.802Z</time>
      </trkpt>
      <trkpt lat="43.13174" lon="3.07549">
        <ele>98</ele>
        <time>2025-12-29T14:37:41.802Z</time>
      </trkpt>
      <trkpt lat="43.13174" lon="3.07548">
        <ele>98</ele>
        <time>2025-12-29T14:37:42.802Z</time>
      </trkpt>
      <trkpt lat="43.13173" lon="3.07548">
        <ele>98</ele>
        <time>2025-12-29T14:37:43.802Z</time>
      </trkpt>
      <trkpt lat="43.13173" lon="3.07547">
        <ele>97</ele>
        <time>2025-12-29T14:37:44.802Z</time>
      </trkpt>
      <trkpt lat="43.13173" lon="3.07547">
        <ele>97</ele>
        <time>2025-12-29T14:37:45.802Z</time>
      </trkpt>
      <trkpt lat="43.13173" lon="3.07547">
        <ele>97</ele>
        <time>2025-12-29T14:37:46.802Z</time>
      </trkpt>
      <trkpt lat="43.13172" lon="3.07546">
        <ele>97</ele>
        <time>2025-12-29T14:37:47.802Z</time>
      </trkpt>
      <trkpt lat="43.13172" lon="3.07546">
        <ele>96</ele>
        <time>2025-12-29T14:37:48.802Z</time>
      </trkpt>
      <trkpt lat="43.13171" lon="3.07545">
        <ele>96</ele>
        <time>2025-12-29T14:37:49.802Z</time>
      </trkpt>
      <trkpt lat="43.13171" lon="3.07544">
        <ele>96</ele>
        <time>2025-12-29T14:37:50.802Z</time>
      </trkpt>
      <trkpt lat="43.1317" lon="3.07543">
        <ele>97</ele>
        <time>2025-12-29T14:37:51.802Z</time>
      </trkpt>
      <trkpt lat="43.13169" lon="3.07542">
        <ele>97</ele>
        <time>2025-12-29T14:37:52.802Z</time>
      </trkpt>
      <trkpt lat="43.13168" lon="3.07541">
        <ele>97</ele>
        <time>2025-12-29T14:37:53.802Z</time>
      </trkpt>
      <trkpt lat="43.13166" lon="3.0754">
        <ele>97</ele>
        <time>2025-12-29T14:37:54.802Z</time>
      </trkpt>
      <trkpt lat="43.13165" lon="3.07539">
        <ele>97</ele>
        <time>2025-12-29T14:37:55.802Z</time>
      </trkpt>
      <trkpt lat="43.13164" lon="3.07538">
        <ele>96</ele>
        <time>2025-12-29T14:37:56.802Z</time>
      </trkpt>
      <trkpt lat="43.13163" lon="3.07538">
        <ele>96</ele>
        <time>2025-12-29T14:37:57.802Z</time>
      </trkpt>
      <trkpt lat="43.13162" lon="3.07537">
        <ele>96</ele>
        <time>2025-12-29T14:37:58.802Z</time>
      </trkpt>
      <trkpt lat="43.13161" lon="3.07537">
        <ele>95</ele>
        <time>2025-12-29T14:37:59.802Z</time>
      </trkpt>
      <trkpt lat="43.1316" lon="3.07537">
        <ele>95</ele>
        <time>2025-12-29T14:38:00.802Z</time>
      </trkpt>
      <trkpt lat="43.13159" lon="3.07537">
        <ele>94</ele>
        <time>2025-12-29T14:38:01.802Z</time>
      </trkpt>
      <trkpt lat="43.13158" lon="3.07536">
        <ele>94</ele>
        <time>2025-12-29T14:38:02.802Z</time>
      </trkpt>
      <trkpt lat="43.13157" lon="3.07536">
        <ele>94</ele>
        <time>2025-12-29T14:38:03.802Z</time>
      </trkpt>
      <trkpt lat="43.13155" lon="3.07535">
        <ele>93</ele>
        <time>2025-12-29T14:38:04.802Z</time>
      </trkpt>
      <trkpt lat="43.13154" lon="3.07535">
        <ele>93</ele>
        <time>2025-12-29T14:38:05.802Z</time>
      </trkpt>
      <trkpt lat="43.13153" lon="3.07535">
        <ele>93</ele>
        <time>2025-12-29T14:38:06.802Z</time>
      </trkpt>
      <trkpt lat="43.13152" lon="3.07535">
        <ele>93</ele>
        <time>2025-12-29T14:38:07.802Z</time>
      </trkpt>
      <trkpt lat="43.1315" lon="3.07534">
        <ele>92</ele>
        <time>2025-12-29T14:38:08.802Z</time>
      </trkpt>
      <trkpt lat="43.13149" lon="3.07534">
        <ele>92</ele>
        <time>2025-12-29T14:38:09.802Z</time>
      </trkpt>
      <trkpt lat="43.13148" lon="3.07533">
        <ele>92</ele>
        <time>2025-12-29T14:38:10.802Z</time>
      </trkpt>
      <trkpt lat="43.13146" lon="3.07533">
        <ele>92</ele>
        <time>2025-12-29T14:38:11.802Z</time>
      </trkpt>
      <trkpt lat="43.13145" lon="3.07533">
        <ele>92</ele>
        <time>2025-12-29T14:38:12.802Z</time>
      </trkpt>
      <trkpt lat="43.13144" lon="3.07533">
        <ele>91</ele>
        <time>2025-12-29T14:38:13.802Z</time>
      </trkpt>
      <trkpt lat="43.13143" lon="3.07533">
        <ele>91</ele>
        <time>2025-12-29T14:38:14.802Z</time>
      </trkpt>
      <trkpt lat="43.13142" lon="3.07533">
        <ele>90</ele>
        <time>2025-12-29T14:38:15.802Z</time>
      </trkpt>
      <trkpt lat="43.13141" lon="3.07533">
        <ele>90</ele>
        <time>2025-12-29T14:38:16.802Z</time>
      </trkpt>
      <trkpt lat="43.1314" lon="3.07532">
        <ele>89</ele>
        <time>2025-12-29T14:38:17.802Z</time>
      </trkpt>
      <trkpt lat="43.13138" lon="3.07531">
        <ele>88</ele>
        <time>2025-12-29T14:38:18.802Z</time>
      </trkpt>
      <trkpt lat="43.13136" lon="3.0753">
        <ele>88</ele>
        <time>2025-12-29T14:38:19.802Z</time>
      </trkpt>
      <trkpt lat="43.13135" lon="3.07529">
        <ele>87</ele>
        <time>2025-12-29T14:38:20.802Z</time>
      </trkpt>
      <trkpt lat="43.13133" lon="3.07529">
        <ele>87</ele>
        <time>2025-12-29T14:38:21.802Z</time>
      </trkpt>
      <trkpt lat="43.13132" lon="3.07528">
        <ele>87</ele>
        <time>2025-12-29T14:38:22.802Z</time>
      </trkpt>
      <trkpt lat="43.13131" lon="3.07527">
        <ele>87</ele>
        <time>2025-12-29T14:38:23.802Z</time>
      </trkpt>
      <trkpt lat="43.13129" lon="3.07527">
        <ele>87</ele>
        <time>2025-12-29T14:38:24.802Z</time>
      </trkpt>
      <trkpt lat="43.13127" lon="3.07526">
        <ele>87</ele>
        <time>2025-12-29T14:38:25.802Z</time>
      </trkpt>
      <trkpt lat="43.13126" lon="3.07525">
        <ele>87</ele>
        <time>2025-12-29T14:38:26.802Z</time>
      </trkpt>
      <trkpt lat="43.13124" lon="3.07525">
        <ele>87</ele>
        <time>2025-12-29T14:38:27.802Z</time>
      </trkpt>
      <trkpt lat="43.13123" lon="3.07524">
        <ele>87</ele>
        <time>2025-12-29T14:38:28.802Z</time>
      </trkpt>
      <trkpt lat="43.13122" lon="3.07523">
        <ele>87</ele>
        <time>2025-12-29T14:38:29.802Z</time>
      </trkpt>
      <trkpt lat="43.1312" lon="3.07522">
        <ele>87</ele>
        <time>2025-12-29T14:38:30.802Z</time>
      </trkpt>
      <trkpt lat="43.13118" lon="3.07521">
        <ele>87</ele>
        <time>2025-12-29T14:38:31.802Z</time>
      </trkpt>
      <trkpt lat="43.13117" lon="3.0752">
        <ele>87</ele>
        <time>2025-12-29T14:38:32.802Z</time>
      </trkpt>
      <trkpt lat="43.13115" lon="3.07519">
        <ele>86</ele>
        <time>2025-12-29T14:38:33.802Z</time>
      </trkpt>
      <trkpt lat="43.13113" lon="3.07518">
        <ele>87</ele>
        <time>2025-12-29T14:38:34.802Z</time>
      </trkpt>
      <trkpt lat="43.13112" lon="3.07517">
        <ele>87</ele>
        <time>2025-12-29T14:38:35.802Z</time>
      </trkpt>
      <trkpt lat="43.1311" lon="3.07516">
        <ele>87</ele>
        <time>2025-12-29T14:38:36.802Z</time>
      </trkpt>
      <trkpt lat="43.13109" lon="3.07516">
        <ele>87</ele>
        <time>2025-12-29T14:38:37.802Z</time>
      </trkpt>
      <trkpt lat="43.13107" lon="3.07515">
        <ele>87</ele>
        <time>2025-12-29T14:38:38.802Z</time>
      </trkpt>
      <trkpt lat="43.13106" lon="3.07515">
        <ele>86</ele>
        <time>2025-12-29T14:38:39.802Z</time>
      </trkpt>
      <trkpt lat="43.13104" lon="3.07514">
        <ele>86</ele>
        <time>2025-12-29T14:38:40.802Z</time>
      </trkpt>
      <trkpt lat="43.13103" lon="3.07514">
        <ele>86</ele>
        <time>2025-12-29T14:38:41.802Z</time>
      </trkpt>
      <trkpt lat="43.13102" lon="3.07514">
        <ele>85</ele>
        <time>2025-12-29T14:38:42.802Z</time>
      </trkpt>
      <trkpt lat="43.13101" lon="3.07514">
        <ele>85</ele>
        <time>2025-12-29T14:38:43.802Z</time>
      </trkpt>
      <trkpt lat="43.131" lon="3.07514">
        <ele>84</ele>
        <time>2025-12-29T14:38:44.802Z</time>
      </trkpt>
      <trkpt lat="43.13099" lon="3.07514">
        <ele>83</ele>
        <time>2025-12-29T14:38:45.802Z</time>
      </trkpt>
      <trkpt lat="43.13098" lon="3.07513">
        <ele>82</ele>
        <time>2025-12-29T14:38:46.802Z</time>
      </trkpt>
      <trkpt lat="43.13097" lon="3.07512">
        <ele>82</ele>
        <time>2025-12-29T14:38:47.802Z</time>
      </trkpt>
      <trkpt lat="43.13095" lon="3.07512">
        <ele>82</ele>
        <time>2025-12-29T14:38:48.802Z</time>
      </trkpt>
      <trkpt lat="43.13094" lon="3.07511">
        <ele>81</ele>
        <time>2025-12-29T14:38:49.802Z</time>
      </trkpt>
      <trkpt lat="43.13093" lon="3.07512">
        <ele>81</ele>
        <time>2025-12-29T14:38:50.802Z</time>
      </trkpt>
      <trkpt lat="43.13092" lon="3.07512">
        <ele>81</ele>
        <time>2025-12-29T14:38:51.802Z</time>
      </trkpt>
      <trkpt lat="43.13091" lon="3.07512">
        <ele>81</ele>
        <time>2025-12-29T14:38:52.802Z</time>
      </trkpt>
      <trkpt lat="43.13089" lon="3.07511">
        <ele>82</ele>
        <time>2025-12-29T14:38:53.802Z</time>
      </trkpt>
      <trkpt lat="43.13088" lon="3.07511">
        <ele>82</ele>
        <time>2025-12-29T14:38:54.802Z</time>
      </trkpt>
      <trkpt lat="43.13087" lon="3.0751">
        <ele>82</ele>
        <time>2025-12-29T14:38:55.802Z</time>
      </trkpt>
      <trkpt lat="43.13086" lon="3.0751">
        <ele>82</ele>
        <time>2025-12-29T14:38:56.802Z</time>
      </trkpt>
      <trkpt lat="43.13085" lon="3.0751">
        <ele>82</ele>
        <time>2025-12-29T14:38:57.802Z</time>
      </trkpt>
      <trkpt lat="43.13083" lon="3.07509">
        <ele>82</ele>
        <time>2025-12-29T14:38:58.802Z</time>
      </trkpt>
      <trkpt lat="43.13082" lon="3.07509">
        <ele>82</ele>
        <time>2025-12-29T14:38:59.802Z</time>
      </trkpt>
      <trkpt lat="43.13081" lon="3.07508">
        <ele>82</ele>
        <time>2025-12-29T14:39:00.802Z</time>
      </trkpt>
      <trkpt lat="43.1308" lon="3.07508">
        <ele>82</ele>
        <time>2025-12-29T14:39:01.802Z</time>
      </trkpt>
      <trkpt lat="43.13078" lon="3.07507">
        <ele>81</ele>
        <time>2025-12-29T14:39:02.802Z</time>
      </trkpt>
      <trkpt lat="43.13077" lon="3.07507">
        <ele>81</ele>
        <time>2025-12-29T14:39:03.802Z</time>
      </trkpt>
      <trkpt lat="43.13076" lon="3.07506">
        <ele>81</ele>
        <time>2025-12-29T14:39:04.802Z</time>
      </trkpt>
      <trkpt lat="43.13075" lon="3.07505">
        <ele>81</ele>
        <time>2025-12-29T14:39:05.802Z</time>
      </trkpt>
      <trkpt lat="43.13073" lon="3.07505">
        <ele>81</ele>
        <time>2025-12-29T14:39:06.802Z</time>
      </trkpt>
      <trkpt lat="43.13073" lon="3.07504">
        <ele>81</ele>
        <time>2025-12-29T14:39:07.802Z</time>
      </trkpt>
      <trkpt lat="43.13071" lon="3.07504">
        <ele>80</ele>
        <time>2025-12-29T14:39:08.802Z</time>
      </trkpt>
      <trkpt lat="43.1307" lon="3.07503">
        <ele>80</ele>
        <time>2025-12-29T14:39:09.802Z</time>
      </trkpt>
      <trkpt lat="43.13069" lon="3.07503">
        <ele>80</ele>
        <time>2025-12-29T14:39:10.802Z</time>
      </trkpt>
      <trkpt lat="43.13068" lon="3.07502">
        <ele>80</ele>
        <time>2025-12-29T14:39:11.802Z</time>
      </trkpt>
      <trkpt lat="43.13067" lon="3.07502">
        <ele>80</ele>
        <time>2025-12-29T14:39:12.802Z</time>
      </trkpt>
      <trkpt lat="43.13066" lon="3.07501">
        <ele>80</ele>
        <time>2025-12-29T14:39:13.802Z</time>
      </trkpt>
      <trkpt lat="43.13065" lon="3.07501">
        <ele>80</ele>
        <time>2025-12-29T14:39:14.802Z</time>
      </trkpt>
      <trkpt lat="43.13064" lon="3.075">
        <ele>80</ele>
        <time>2025-12-29T14:39:15.802Z</time>
      </trkpt>
      <trkpt lat="43.13062" lon="3.075">
        <ele>79</ele>
        <time>2025-12-29T14:39:16.802Z</time>
      </trkpt>
      <trkpt lat="43.13061" lon="3.07499">
        <ele>79</ele>
        <time>2025-12-29T14:39:17.802Z</time>
      </trkpt>
      <trkpt lat="43.1306" lon="3.07499">
        <ele>79</ele>
        <time>2025-12-29T14:39:18.802Z</time>
      </trkpt>
      <trkpt lat="43.13059" lon="3.07498">
        <ele>79</ele>
        <time>2025-12-29T14:39:19.802Z</time>
      </trkpt>
      <trkpt lat="43.13057" lon="3.07498">
        <ele>79</ele>
        <time>2025-12-29T14:39:20.802Z</time>
      </trkpt>
      <trkpt lat="43.13056" lon="3.07497">
        <ele>79</ele>
        <time>2025-12-29T14:39:21.802Z</time>
      </trkpt>
      <trkpt lat="43.13054" lon="3.07497">
        <ele>79</ele>
        <time>2025-12-29T14:39:22.802Z</time>
      </trkpt>
      <trkpt lat="43.13053" lon="3.07496">
        <ele>79</ele>
        <time>2025-12-29T14:39:23.802Z</time>
      </trkpt>
      <trkpt lat="43.13052" lon="3.07496">
        <ele>79</ele>
        <time>2025-12-29T14:39:24.802Z</time>
      </trkpt>
      <trkpt lat="43.13051" lon="3.07496">
        <ele>79</ele>
        <time>2025-12-29T14:39:25.802Z</time>
      </trkpt>
      <trkpt lat="43.13049" lon="3.07497">
        <ele>79</ele>
        <time>2025-12-29T14:39:26.802Z</time>
      </trkpt>
      <trkpt lat="43.13048" lon="3.07497">
        <ele>79</ele>
        <time>2025-12-29T14:39:27.802Z</time>
      </trkpt>
      <trkpt lat="43.13047" lon="3.07498">
        <ele>79</ele>
        <time>2025-12-29T14:39:28.802Z</time>
      </trkpt>
      <trkpt lat="43.13045" lon="3.07499">
        <ele>79</ele>
        <time>2025-12-29T14:39:29.802Z</time>
      </trkpt>
      <trkpt lat="43.13044" lon="3.07499">
        <ele>79</ele>
        <time>2025-12-29T14:39:30.802Z</time>
      </trkpt>
      <trkpt lat="43.13042" lon="3.07499">
        <ele>79</ele>
        <time>2025-12-29T14:39:31.802Z</time>
      </trkpt>
      <trkpt lat="43.13041" lon="3.07499">
        <ele>79</ele>
        <time>2025-12-29T14:39:32.802Z</time>
      </trkpt>
      <trkpt lat="43.1304" lon="3.07499">
        <ele>79</ele>
        <time>2025-12-29T14:39:33.802Z</time>
      </trkpt>
      <trkpt lat="43.13038" lon="3.07499">
        <ele>79</ele>
        <time>2025-12-29T14:39:34.802Z</time>
      </trkpt>
      <trkpt lat="43.13037" lon="3.07499">
        <ele>79</ele>
        <time>2025-12-29T14:39:35.802Z</time>
      </trkpt>
      <trkpt lat="43.13036" lon="3.075">
        <ele>79</ele>
        <time>2025-12-29T14:39:36.802Z</time>
      </trkpt>
      <trkpt lat="43.13035" lon="3.075">
        <ele>79</ele>
        <time>2025-12-29T14:39:37.802Z</time>
      </trkpt>
      <trkpt lat="43.13034" lon="3.07501">
        <ele>79</ele>
        <time>2025-12-29T14:39:38.802Z</time>
      </trkpt>
      <trkpt lat="43.13032" lon="3.07501">
        <ele>79</ele>
        <time>2025-12-29T14:39:39.802Z</time>
      </trkpt>
      <trkpt lat="43.13031" lon="3.07502">
        <ele>79</ele>
        <time>2025-12-29T14:39:40.802Z</time>
      </trkpt>
      <trkpt lat="43.1303" lon="3.07502">
        <ele>79</ele>
        <time>2025-12-29T14:39:41.802Z</time>
      </trkpt>
      <trkpt lat="43.1303" lon="3.07502">
        <ele>78</ele>
        <time>2025-12-29T14:39:42.802Z</time>
      </trkpt>
      <trkpt lat="43.13029" lon="3.07502">
        <ele>78</ele>
        <time>2025-12-29T14:39:43.802Z</time>
      </trkpt>
      <trkpt lat="43.13029" lon="3.07501">
        <ele>78</ele>
        <time>2025-12-29T14:39:44.802Z</time>
      </trkpt>
      <trkpt lat="43.13028" lon="3.075">
        <ele>78</ele>
        <time>2025-12-29T14:39:45.802Z</time>
      </trkpt>
      <trkpt lat="43.13027" lon="3.075">
        <ele>77</ele>
        <time>2025-12-29T14:39:46.802Z</time>
      </trkpt>
      <trkpt lat="43.13027" lon="3.07499">
        <ele>77</ele>
        <time>2025-12-29T14:39:47.802Z</time>
      </trkpt>
      <trkpt lat="43.13025" lon="3.07499">
        <ele>77</ele>
        <time>2025-12-29T14:39:48.802Z</time>
      </trkpt>
      <trkpt lat="43.13024" lon="3.07498">
        <ele>77</ele>
        <time>2025-12-29T14:39:49.802Z</time>
      </trkpt>
      <trkpt lat="43.13023" lon="3.07498">
        <ele>76</ele>
        <time>2025-12-29T14:39:50.802Z</time>
      </trkpt>
      <trkpt lat="43.13022" lon="3.07498">
        <ele>76</ele>
        <time>2025-12-29T14:39:51.802Z</time>
      </trkpt>
      <trkpt lat="43.13021" lon="3.07498">
        <ele>75</ele>
        <time>2025-12-29T14:39:52.802Z</time>
      </trkpt>
      <trkpt lat="43.13019" lon="3.07498">
        <ele>75</ele>
        <time>2025-12-29T14:39:53.802Z</time>
      </trkpt>
      <trkpt lat="43.13018" lon="3.07498">
        <ele>75</ele>
        <time>2025-12-29T14:39:54.802Z</time>
      </trkpt>
      <trkpt lat="43.13017" lon="3.07499">
        <ele>74</ele>
        <time>2025-12-29T14:39:55.802Z</time>
      </trkpt>
      <trkpt lat="43.13016" lon="3.07499">
        <ele>74</ele>
        <time>2025-12-29T14:39:56.802Z</time>
      </trkpt>
      <trkpt lat="43.13015" lon="3.075">
        <ele>74</ele>
        <time>2025-12-29T14:39:57.802Z</time>
      </trkpt>
      <trkpt lat="43.13014" lon="3.07499">
        <ele>74</ele>
        <time>2025-12-29T14:39:58.802Z</time>
      </trkpt>
      <trkpt lat="43.13013" lon="3.07498">
        <ele>73</ele>
        <time>2025-12-29T14:39:59.802Z</time>
      </trkpt>
      <trkpt lat="43.13012" lon="3.07497">
        <ele>73</ele>
        <time>2025-12-29T14:40:00.802Z</time>
      </trkpt>
      <trkpt lat="43.1301" lon="3.07497">
        <ele>73</ele>
        <time>2025-12-29T14:40:01.802Z</time>
      </trkpt>
      <trkpt lat="43.13009" lon="3.07498">
        <ele>73</ele>
        <time>2025-12-29T14:40:02.802Z</time>
      </trkpt>
      <trkpt lat="43.13007" lon="3.07499">
        <ele>73</ele>
        <time>2025-12-29T14:40:03.802Z</time>
      </trkpt>
      <trkpt lat="43.13006" lon="3.075">
        <ele>73</ele>
        <time>2025-12-29T14:40:04.802Z</time>
      </trkpt>
      <trkpt lat="43.13005" lon="3.07501">
        <ele>74</ele>
        <time>2025-12-29T14:40:05.802Z</time>
      </trkpt>
      <trkpt lat="43.13004" lon="3.07502">
        <ele>74</ele>
        <time>2025-12-29T14:40:06.802Z</time>
      </trkpt>
      <trkpt lat="43.13002" lon="3.07503">
        <ele>74</ele>
        <time>2025-12-29T14:40:07.802Z</time>
      </trkpt>
      <trkpt lat="43.13001" lon="3.07503">
        <ele>74</ele>
        <time>2025-12-29T14:40:08.802Z</time>
      </trkpt>
      <trkpt lat="43.12999" lon="3.07504">
        <ele>75</ele>
        <time>2025-12-29T14:40:09.802Z</time>
      </trkpt>
      <trkpt lat="43.12998" lon="3.07505">
        <ele>75</ele>
        <time>2025-12-29T14:40:10.802Z</time>
      </trkpt>
      <trkpt lat="43.12996" lon="3.07505">
        <ele>75</ele>
        <time>2025-12-29T14:40:11.802Z</time>
      </trkpt>
      <trkpt lat="43.12994" lon="3.07506">
        <ele>76</ele>
        <time>2025-12-29T14:40:12.802Z</time>
      </trkpt>
      <trkpt lat="43.12992" lon="3.07507">
        <ele>76</ele>
        <time>2025-12-29T14:40:13.802Z</time>
      </trkpt>
      <trkpt lat="43.12991" lon="3.07507">
        <ele>76</ele>
        <time>2025-12-29T14:40:14.802Z</time>
      </trkpt>
      <trkpt lat="43.1299" lon="3.07508">
        <ele>76</ele>
        <time>2025-12-29T14:40:15.802Z</time>
      </trkpt>
      <trkpt lat="43.12989" lon="3.07508">
        <ele>77</ele>
        <time>2025-12-29T14:40:16.802Z</time>
      </trkpt>
      <trkpt lat="43.12988" lon="3.07509">
        <ele>77</ele>
        <time>2025-12-29T14:40:17.802Z</time>
      </trkpt>
      <trkpt lat="43.12987" lon="3.0751">
        <ele>77</ele>
        <time>2025-12-29T14:40:18.802Z</time>
      </trkpt>
      <trkpt lat="43.12987" lon="3.07511">
        <ele>77</ele>
        <time>2025-12-29T14:40:19.802Z</time>
      </trkpt>
      <trkpt lat="43.12986" lon="3.07511">
        <ele>77</ele>
        <time>2025-12-29T14:40:20.802Z</time>
      </trkpt>
      <trkpt lat="43.12986" lon="3.07512">
        <ele>77</ele>
        <time>2025-12-29T14:40:21.802Z</time>
      </trkpt>
      <trkpt lat="43.12985" lon="3.07513">
        <ele>77</ele>
        <time>2025-12-29T14:40:22.802Z</time>
      </trkpt>
      <trkpt lat="43.12985" lon="3.07514">
        <ele>77</ele>
        <time>2025-12-29T14:40:23.802Z</time>
      </trkpt>
      <trkpt lat="43.12984" lon="3.07515">
        <ele>77</ele>
        <time>2025-12-29T14:40:24.802Z</time>
      </trkpt>
      <trkpt lat="43.12983" lon="3.07516">
        <ele>77</ele>
        <time>2025-12-29T14:40:25.802Z</time>
      </trkpt>
      <trkpt lat="43.12982" lon="3.07516">
        <ele>78</ele>
        <time>2025-12-29T14:40:26.802Z</time>
      </trkpt>
      <trkpt lat="43.12982" lon="3.07517">
        <ele>78</ele>
        <time>2025-12-29T14:40:27.802Z</time>
      </trkpt>
      <trkpt lat="43.12981" lon="3.07517">
        <ele>78</ele>
        <time>2025-12-29T14:40:28.802Z</time>
      </trkpt>
      <trkpt lat="43.1298" lon="3.07517">
        <ele>78</ele>
        <time>2025-12-29T14:40:29.802Z</time>
      </trkpt>
      <trkpt lat="43.12979" lon="3.07517">
        <ele>78</ele>
        <time>2025-12-29T14:40:30.802Z</time>
      </trkpt>
      <trkpt lat="43.12978" lon="3.07518">
        <ele>78</ele>
        <time>2025-12-29T14:40:31.802Z</time>
      </trkpt>
      <trkpt lat="43.12978" lon="3.07519">
        <ele>77</ele>
        <time>2025-12-29T14:40:32.802Z</time>
      </trkpt>
      <trkpt lat="43.12977" lon="3.07519">
        <ele>77</ele>
        <time>2025-12-29T14:40:33.802Z</time>
      </trkpt>
      <trkpt lat="43.12976" lon="3.0752">
        <ele>77</ele>
        <time>2025-12-29T14:40:34.802Z</time>
      </trkpt>
      <trkpt lat="43.12975" lon="3.0752">
        <ele>76</ele>
        <time>2025-12-29T14:40:35.802Z</time>
      </trkpt>
      <trkpt lat="43.12974" lon="3.0752">
        <ele>76</ele>
        <time>2025-12-29T14:40:36.802Z</time>
      </trkpt>
      <trkpt lat="43.12973" lon="3.0752">
        <ele>76</ele>
        <time>2025-12-29T14:40:37.802Z</time>
      </trkpt>
      <trkpt lat="43.12972" lon="3.0752">
        <ele>76</ele>
        <time>2025-12-29T14:40:38.802Z</time>
      </trkpt>
      <trkpt lat="43.12971" lon="3.07519">
        <ele>76</ele>
        <time>2025-12-29T14:40:39.802Z</time>
      </trkpt>
      <trkpt lat="43.1297" lon="3.07519">
        <ele>76</ele>
        <time>2025-12-29T14:40:40.802Z</time>
      </trkpt>
      <trkpt lat="43.12968" lon="3.07518">
        <ele>76</ele>
        <time>2025-12-29T14:40:41.802Z</time>
      </trkpt>
      <trkpt lat="43.12967" lon="3.07518">
        <ele>76</ele>
        <time>2025-12-29T14:40:42.802Z</time>
      </trkpt>
      <trkpt lat="43.12966" lon="3.07518">
        <ele>76</ele>
        <time>2025-12-29T14:40:43.802Z</time>
      </trkpt>
      <trkpt lat="43.12965" lon="3.07519">
        <ele>75</ele>
        <time>2025-12-29T14:40:44.802Z</time>
      </trkpt>
      <trkpt lat="43.12963" lon="3.07519">
        <ele>75</ele>
        <time>2025-12-29T14:40:45.802Z</time>
      </trkpt>
      <trkpt lat="43.12961" lon="3.0752">
        <ele>74</ele>
        <time>2025-12-29T14:40:46.802Z</time>
      </trkpt>
      <trkpt lat="43.1296" lon="3.07521">
        <ele>74</ele>
        <time>2025-12-29T14:40:47.802Z</time>
      </trkpt>
      <trkpt lat="43.12959" lon="3.07523">
        <ele>73</ele>
        <time>2025-12-29T14:40:48.802Z</time>
      </trkpt>
      <trkpt lat="43.12959" lon="3.07525">
        <ele>73</ele>
        <time>2025-12-29T14:40:49.802Z</time>
      </trkpt>
      <trkpt lat="43.12958" lon="3.07527">
        <ele>72</ele>
        <time>2025-12-29T14:40:50.802Z</time>
      </trkpt>
      <trkpt lat="43.12957" lon="3.07528">
        <ele>72</ele>
        <time>2025-12-29T14:40:51.802Z</time>
      </trkpt>
      <trkpt lat="43.12957" lon="3.0753">
        <ele>71</ele>
        <time>2025-12-29T14:40:52.802Z</time>
      </trkpt>
      <trkpt lat="43.12958" lon="3.07531">
        <ele>71</ele>
        <time>2025-12-29T14:40:53.802Z</time>
      </trkpt>
      <trkpt lat="43.12958" lon="3.07533">
        <ele>71</ele>
        <time>2025-12-29T14:40:54.802Z</time>
      </trkpt>
      <trkpt lat="43.12958" lon="3.07535">
        <ele>70</ele>
        <time>2025-12-29T14:40:55.802Z</time>
      </trkpt>
      <trkpt lat="43.12958" lon="3.07537">
        <ele>70</ele>
        <time>2025-12-29T14:40:56.802Z</time>
      </trkpt>
      <trkpt lat="43.12957" lon="3.07539">
        <ele>70</ele>
        <time>2025-12-29T14:40:57.802Z</time>
      </trkpt>
      <trkpt lat="43.12956" lon="3.07542">
        <ele>70</ele>
        <time>2025-12-29T14:40:58.802Z</time>
      </trkpt>
      <trkpt lat="43.12956" lon="3.07544">
        <ele>70</ele>
        <time>2025-12-29T14:40:59.802Z</time>
      </trkpt>
      <trkpt lat="43.12956" lon="3.07545">
        <ele>70</ele>
        <time>2025-12-29T14:41:00.802Z</time>
      </trkpt>
      <trkpt lat="43.12956" lon="3.07547">
        <ele>70</ele>
        <time>2025-12-29T14:41:01.802Z</time>
      </trkpt>
      <trkpt lat="43.12956" lon="3.07549">
        <ele>70</ele>
        <time>2025-12-29T14:41:02.802Z</time>
      </trkpt>
      <trkpt lat="43.12955" lon="3.07551">
        <ele>70</ele>
        <time>2025-12-29T14:41:03.802Z</time>
      </trkpt>
      <trkpt lat="43.12955" lon="3.07552">
        <ele>69</ele>
        <time>2025-12-29T14:41:04.802Z</time>
      </trkpt>
      <trkpt lat="43.12954" lon="3.07553">
        <ele>69</ele>
        <time>2025-12-29T14:41:05.802Z</time>
      </trkpt>
      <trkpt lat="43.12953" lon="3.07555">
        <ele>69</ele>
        <time>2025-12-29T14:41:06.802Z</time>
      </trkpt>
      <trkpt lat="43.12953" lon="3.07556">
        <ele>69</ele>
        <time>2025-12-29T14:41:07.802Z</time>
      </trkpt>
      <trkpt lat="43.12953" lon="3.07558">
        <ele>69</ele>
        <time>2025-12-29T14:41:08.802Z</time>
      </trkpt>
      <trkpt lat="43.12952" lon="3.07559">
        <ele>69</ele>
        <time>2025-12-29T14:41:09.802Z</time>
      </trkpt>
      <trkpt lat="43.12951" lon="3.07561">
        <ele>69</ele>
        <time>2025-12-29T14:41:10.802Z</time>
      </trkpt>
      <trkpt lat="43.1295" lon="3.07563">
        <ele>69</ele>
        <time>2025-12-29T14:41:11.802Z</time>
      </trkpt>
      <trkpt lat="43.1295" lon="3.07565">
        <ele>68</ele>
        <time>2025-12-29T14:41:12.802Z</time>
      </trkpt>
      <trkpt lat="43.1295" lon="3.07567">
        <ele>68</ele>
        <time>2025-12-29T14:41:13.802Z</time>
      </trkpt>
      <trkpt lat="43.12951" lon="3.07569">
        <ele>68</ele>
        <time>2025-12-29T14:41:14.802Z</time>
      </trkpt>
      <trkpt lat="43.12952" lon="3.0757">
        <ele>67</ele>
        <time>2025-12-29T14:41:15.802Z</time>
      </trkpt>
      <trkpt lat="43.12952" lon="3.07572">
        <ele>67</ele>
        <time>2025-12-29T14:41:16.802Z</time>
      </trkpt>
      <trkpt lat="43.12953" lon="3.07574">
        <ele>66</ele>
        <time>2025-12-29T14:41:17.802Z</time>
      </trkpt>
      <trkpt lat="43.12953" lon="3.07576">
        <ele>66</ele>
        <time>2025-12-29T14:41:18.802Z</time>
      </trkpt>
      <trkpt lat="43.12954" lon="3.07578">
        <ele>66</ele>
        <time>2025-12-29T14:41:19.802Z</time>
      </trkpt>
      <trkpt lat="43.12954" lon="3.07579">
        <ele>65</ele>
        <time>2025-12-29T14:41:20.802Z</time>
      </trkpt>
      <trkpt lat="43.12953" lon="3.07581">
        <ele>65</ele>
        <time>2025-12-29T14:41:21.802Z</time>
      </trkpt>
      <trkpt lat="43.12953" lon="3.07582">
        <ele>66</ele>
        <time>2025-12-29T14:41:22.802Z</time>
      </trkpt>
      <trkpt lat="43.12953" lon="3.07583">
        <ele>66</ele>
        <time>2025-12-29T14:41:23.802Z</time>
      </trkpt>
      <trkpt lat="43.12952" lon="3.07584">
        <ele>66</ele>
        <time>2025-12-29T14:41:24.802Z</time>
      </trkpt>
      <trkpt lat="43.12952" lon="3.07586">
        <ele>67</ele>
        <time>2025-12-29T14:41:25.802Z</time>
      </trkpt>
      <trkpt lat="43.12951" lon="3.07588">
        <ele>67</ele>
        <time>2025-12-29T14:41:26.802Z</time>
      </trkpt>
      <trkpt lat="43.1295" lon="3.07591">
        <ele>67</ele>
        <time>2025-12-29T14:41:27.802Z</time>
      </trkpt>
      <trkpt lat="43.1295" lon="3.07593">
        <ele>68</ele>
        <time>2025-12-29T14:41:28.802Z</time>
      </trkpt>
      <trkpt lat="43.12949" lon="3.07595">
        <ele>68</ele>
        <time>2025-12-29T14:41:29.802Z</time>
      </trkpt>
      <trkpt lat="43.12949" lon="3.07597">
        <ele>68</ele>
        <time>2025-12-29T14:41:30.802Z</time>
      </trkpt>
      <trkpt lat="43.12949" lon="3.076">
        <ele>68</ele>
        <time>2025-12-29T14:41:31.802Z</time>
      </trkpt>
      <trkpt lat="43.12948" lon="3.07603">
        <ele>68</ele>
        <time>2025-12-29T14:41:32.802Z</time>
      </trkpt>
      <trkpt lat="43.12948" lon="3.07606">
        <ele>68</ele>
        <time>2025-12-29T14:41:33.802Z</time>
      </trkpt>
      <trkpt lat="43.12948" lon="3.07607">
        <ele>68</ele>
        <time>2025-12-29T14:41:34.802Z</time>
      </trkpt>
      <trkpt lat="43.12948" lon="3.07607">
        <ele>68</ele>
        <time>2025-12-29T14:41:35.802Z</time>
      </trkpt>
      <trkpt lat="43.12948" lon="3.07608">
        <ele>68</ele>
        <time>2025-12-29T14:41:36.802Z</time>
      </trkpt>
      <trkpt lat="43.12949" lon="3.0761">
        <ele>68</ele>
        <time>2025-12-29T14:41:37.802Z</time>
      </trkpt>
      <trkpt lat="43.12949" lon="3.07612">
        <ele>68</ele>
        <time>2025-12-29T14:41:38.802Z</time>
      </trkpt>
      <trkpt lat="43.12949" lon="3.07613">
        <ele>68</ele>
        <time>2025-12-29T14:41:39.802Z</time>
      </trkpt>
      <trkpt lat="43.12948" lon="3.07616">
        <ele>68</ele>
        <time>2025-12-29T14:41:40.802Z</time>
      </trkpt>
      <trkpt lat="43.12948" lon="3.07618">
        <ele>68</ele>
        <time>2025-12-29T14:41:41.802Z</time>
      </trkpt>
      <trkpt lat="43.12948" lon="3.0762">
        <ele>68</ele>
        <time>2025-12-29T14:41:42.802Z</time>
      </trkpt>
      <trkpt lat="43.12948" lon="3.07621">
        <ele>68</ele>
        <time>2025-12-29T14:41:43.802Z</time>
      </trkpt>
      <trkpt lat="43.12949" lon="3.07623">
        <ele>68</ele>
        <time>2025-12-29T14:41:44.802Z</time>
      </trkpt>
      <trkpt lat="43.12949" lon="3.07624">
        <ele>67</ele>
        <time>2025-12-29T14:41:45.802Z</time>
      </trkpt>
      <trkpt lat="43.12949" lon="3.07626">
        <ele>67</ele>
        <time>2025-12-29T14:41:46.802Z</time>
      </trkpt>
      <trkpt lat="43.1295" lon="3.07628">
        <ele>67</ele>
        <time>2025-12-29T14:41:47.802Z</time>
      </trkpt>
      <trkpt lat="43.1295" lon="3.07629">
        <ele>67</ele>
        <time>2025-12-29T14:41:48.802Z</time>
      </trkpt>
      <trkpt lat="43.1295" lon="3.07631">
        <ele>67</ele>
        <time>2025-12-29T14:41:49.802Z</time>
      </trkpt>
      <trkpt lat="43.1295" lon="3.07633">
        <ele>67</ele>
        <time>2025-12-29T14:41:50.802Z</time>
      </trkpt>
      <trkpt lat="43.1295" lon="3.07634">
        <ele>67</ele>
        <time>2025-12-29T14:41:51.802Z</time>
      </trkpt>
      <trkpt lat="43.1295" lon="3.07636">
        <ele>67</ele>
        <time>2025-12-29T14:41:52.802Z</time>
      </trkpt>
      <trkpt lat="43.1295" lon="3.07637">
        <ele>68</ele>
        <time>2025-12-29T14:41:53.802Z</time>
      </trkpt>
      <trkpt lat="43.1295" lon="3.07638">
        <ele>68</ele>
        <time>2025-12-29T14:41:54.802Z</time>
      </trkpt>
      <trkpt lat="43.12951" lon="3.0764">
        <ele>67</ele>
        <time>2025-12-29T14:41:55.802Z</time>
      </trkpt>
      <trkpt lat="43.12951" lon="3.07641">
        <ele>67</ele>
        <time>2025-12-29T14:41:56.802Z</time>
      </trkpt>
      <trkpt lat="43.12951" lon="3.07643">
        <ele>67</ele>
        <time>2025-12-29T14:41:57.802Z</time>
      </trkpt>
      <trkpt lat="43.12951" lon="3.07644">
        <ele>67</ele>
        <time>2025-12-29T14:41:58.802Z</time>
      </trkpt>
      <trkpt lat="43.1295" lon="3.07646">
        <ele>67</ele>
        <time>2025-12-29T14:41:59.802Z</time>
      </trkpt>
      <trkpt lat="43.1295" lon="3.07648">
        <ele>67</ele>
        <time>2025-12-29T14:42:00.802Z</time>
      </trkpt>
      <trkpt lat="43.12949" lon="3.0765">
        <ele>67</ele>
        <time>2025-12-29T14:42:01.802Z</time>
      </trkpt>
      <trkpt lat="43.12949" lon="3.07652">
        <ele>67</ele>
        <time>2025-12-29T14:42:02.802Z</time>
      </trkpt>
      <trkpt lat="43.12948" lon="3.07654">
        <ele>67</ele>
        <time>2025-12-29T14:42:03.802Z</time>
      </trkpt>
      <trkpt lat="43.12948" lon="3.07656">
        <ele>67</ele>
        <time>2025-12-29T14:42:04.802Z</time>
      </trkpt>
      <trkpt lat="43.12949" lon="3.07657">
        <ele>68</ele>
        <time>2025-12-29T14:42:05.802Z</time>
      </trkpt>
      <trkpt lat="43.1295" lon="3.07658">
        <ele>68</ele>
        <time>2025-12-29T14:42:06.802Z</time>
      </trkpt>
      <trkpt lat="43.1295" lon="3.07659">
        <ele>68</ele>
        <time>2025-12-29T14:42:07.802Z</time>
      </trkpt>
      <trkpt lat="43.12951" lon="3.07661">
        <ele>68</ele>
        <time>2025-12-29T14:42:08.802Z</time>
      </trkpt>
      <trkpt lat="43.12951" lon="3.07662">
        <ele>68</ele>
        <time>2025-12-29T14:42:09.802Z</time>
      </trkpt>
      <trkpt lat="43.12951" lon="3.07663">
        <ele>67</ele>
        <time>2025-12-29T14:42:10.802Z</time>
      </trkpt>
      <trkpt lat="43.1295" lon="3.07665">
        <ele>67</ele>
        <time>2025-12-29T14:42:11.802Z</time>
      </trkpt>
      <trkpt lat="43.12949" lon="3.07666">
        <ele>67</ele>
        <time>2025-12-29T14:42:12.802Z</time>
      </trkpt>
      <trkpt lat="43.12949" lon="3.07668">
        <ele>67</ele>
        <time>2025-12-29T14:42:13.802Z</time>
      </trkpt>
      <trkpt lat="43.12948" lon="3.07671">
        <ele>67</ele>
        <time>2025-12-29T14:42:14.802Z</time>
      </trkpt>
      <trkpt lat="43.12947" lon="3.07672">
        <ele>66</ele>
        <time>2025-12-29T14:42:15.802Z</time>
      </trkpt>
      <trkpt lat="43.12946" lon="3.07673">
        <ele>66</ele>
        <time>2025-12-29T14:42:16.802Z</time>
      </trkpt>
      <trkpt lat="43.12946" lon="3.07675">
        <ele>66</ele>
        <time>2025-12-29T14:42:17.802Z</time>
      </trkpt>
      <trkpt lat="43.12946" lon="3.07677">
        <ele>66</ele>
        <time>2025-12-29T14:42:18.802Z</time>
      </trkpt>
      <trkpt lat="43.12946" lon="3.07679">
        <ele>66</ele>
        <time>2025-12-29T14:42:19.802Z</time>
      </trkpt>
      <trkpt lat="43.12946" lon="3.07681">
        <ele>66</ele>
        <time>2025-12-29T14:42:20.802Z</time>
      </trkpt>
      <trkpt lat="43.12946" lon="3.07683">
        <ele>67</ele>
        <time>2025-12-29T14:42:21.802Z</time>
      </trkpt>
      <trkpt lat="43.12945" lon="3.07685">
        <ele>67</ele>
        <time>2025-12-29T14:42:22.802Z</time>
      </trkpt>
      <trkpt lat="43.12945" lon="3.07687">
        <ele>67</ele>
        <time>2025-12-29T14:42:23.802Z</time>
      </trkpt>
      <trkpt lat="43.12945" lon="3.07688">
        <ele>67</ele>
        <time>2025-12-29T14:42:24.802Z</time>
      </trkpt>
      <trkpt lat="43.12946" lon="3.0769">
        <ele>67</ele>
        <time>2025-12-29T14:42:25.802Z</time>
      </trkpt>
      <trkpt lat="43.12947" lon="3.07693">
        <ele>67</ele>
        <time>2025-12-29T14:42:26.802Z</time>
      </trkpt>
      <trkpt lat="43.12948" lon="3.07695">
        <ele>67</ele>
        <time>2025-12-29T14:42:27.802Z</time>
      </trkpt>
      <trkpt lat="43.12949" lon="3.07696">
        <ele>67</ele>
        <time>2025-12-29T14:42:28.802Z</time>
      </trkpt>
      <trkpt lat="43.12949" lon="3.07697">
        <ele>67</ele>
        <time>2025-12-29T14:42:29.803Z</time>
      </trkpt>
      <trkpt lat="43.12949" lon="3.07698">
        <ele>68</ele>
        <time>2025-12-29T14:42:30.802Z</time>
      </trkpt>
      <trkpt lat="43.12949" lon="3.077">
        <ele>68</ele>
        <time>2025-12-29T14:42:31.802Z</time>
      </trkpt>
      <trkpt lat="43.12949" lon="3.07701">
        <ele>68</ele>
        <time>2025-12-29T14:42:32.802Z</time>
      </trkpt>
      <trkpt lat="43.12948" lon="3.07702">
        <ele>69</ele>
        <time>2025-12-29T14:42:33.802Z</time>
      </trkpt>
      <trkpt lat="43.12948" lon="3.07704">
        <ele>69</ele>
        <time>2025-12-29T14:42:34.802Z</time>
      </trkpt>
      <trkpt lat="43.12947" lon="3.07709">
        <ele>69</ele>
        <time>2025-12-29T14:42:35.802Z</time>
      </trkpt>
      <trkpt lat="43.12947" lon="3.07711">
        <ele>69</ele>
        <time>2025-12-29T14:42:36.802Z</time>
      </trkpt>
      <trkpt lat="43.12947" lon="3.07712">
        <ele>69</ele>
        <time>2025-12-29T14:42:37.802Z</time>
      </trkpt>
      <trkpt lat="43.12947" lon="3.07712">
        <ele>69</ele>
        <time>2025-12-29T14:42:38.802Z</time>
      </trkpt>
      <trkpt lat="43.12946" lon="3.07711">
        <ele>70</ele>
        <time>2025-12-29T14:42:39.802Z</time>
      </trkpt>
      <trkpt lat="43.12946" lon="3.07711">
        <ele>70</ele>
        <time>2025-12-29T14:42:40.802Z</time>
      </trkpt>
      <trkpt lat="43.12945" lon="3.07711">
        <ele>70</ele>
        <time>2025-12-29T14:42:41.802Z</time>
      </trkpt>
      <trkpt lat="43.12944" lon="3.07711">
        <ele>70</ele>
        <time>2025-12-29T14:42:42.802Z</time>
      </trkpt>
      <trkpt lat="43.12944" lon="3.0771">
        <ele>70</ele>
        <time>2025-12-29T14:42:43.802Z</time>
      </trkpt>
      <trkpt lat="43.12943" lon="3.07709">
        <ele>70</ele>
        <time>2025-12-29T14:42:44.802Z</time>
      </trkpt>
      <trkpt lat="43.12942" lon="3.07707">
        <ele>70</ele>
        <time>2025-12-29T14:42:45.802Z</time>
      </trkpt>
      <trkpt lat="43.12941" lon="3.07706">
        <ele>71</ele>
        <time>2025-12-29T14:42:46.802Z</time>
      </trkpt>
      <trkpt lat="43.1294" lon="3.07704">
        <ele>71</ele>
        <time>2025-12-29T14:42:47.802Z</time>
      </trkpt>
      <trkpt lat="43.12939" lon="3.07704">
        <ele>70</ele>
        <time>2025-12-29T14:42:48.802Z</time>
      </trkpt>
      <trkpt lat="43.12938" lon="3.07704">
        <ele>70</ele>
        <time>2025-12-29T14:42:49.802Z</time>
      </trkpt>
      <trkpt lat="43.12937" lon="3.07703">
        <ele>70</ele>
        <time>2025-12-29T14:42:50.802Z</time>
      </trkpt>
      <trkpt lat="43.12936" lon="3.07701">
        <ele>70</ele>
        <time>2025-12-29T14:42:51.802Z</time>
      </trkpt>
      <trkpt lat="43.12935" lon="3.07701">
        <ele>70</ele>
        <time>2025-12-29T14:42:52.802Z</time>
      </trkpt>
      <trkpt lat="43.12934" lon="3.07701">
        <ele>70</ele>
        <time>2025-12-29T14:42:53.802Z</time>
      </trkpt>
      <trkpt lat="43.12933" lon="3.07701">
        <ele>71</ele>
        <time>2025-12-29T14:42:54.802Z</time>
      </trkpt>
      <trkpt lat="43.12931" lon="3.077">
        <ele>71</ele>
        <time>2025-12-29T14:42:55.802Z</time>
      </trkpt>
      <trkpt lat="43.1293" lon="3.077">
        <ele>71</ele>
        <time>2025-12-29T14:42:56.802Z</time>
      </trkpt>
      <trkpt lat="43.1293" lon="3.07699">
        <ele>71</ele>
        <time>2025-12-29T14:42:57.802Z</time>
      </trkpt>
      <trkpt lat="43.12929" lon="3.07699">
        <ele>71</ele>
        <time>2025-12-29T14:42:58.802Z</time>
      </trkpt>
      <trkpt lat="43.12928" lon="3.07699">
        <ele>72</ele>
        <time>2025-12-29T14:42:59.802Z</time>
      </trkpt>
      <trkpt lat="43.12926" lon="3.07699">
        <ele>72</ele>
        <time>2025-12-29T14:43:00.802Z</time>
      </trkpt>
      <trkpt lat="43.12925" lon="3.07698">
        <ele>72</ele>
        <time>2025-12-29T14:43:01.802Z</time>
      </trkpt>
      <trkpt lat="43.12924" lon="3.07698">
        <ele>73</ele>
        <time>2025-12-29T14:43:02.802Z</time>
      </trkpt>
      <trkpt lat="43.12923" lon="3.07698">
        <ele>73</ele>
        <time>2025-12-29T14:43:03.802Z</time>
      </trkpt>
      <trkpt lat="43.12922" lon="3.07698">
        <ele>73</ele>
        <time>2025-12-29T14:43:04.802Z</time>
      </trkpt>
      <trkpt lat="43.1292" lon="3.07697">
        <ele>74</ele>
        <time>2025-12-29T14:43:05.802Z</time>
      </trkpt>
      <trkpt lat="43.12918" lon="3.07696">
        <ele>74</ele>
        <time>2025-12-29T14:43:06.802Z</time>
      </trkpt>
      <trkpt lat="43.12917" lon="3.07695">
        <ele>74</ele>
        <time>2025-12-29T14:43:07.802Z</time>
      </trkpt>
      <trkpt lat="43.12916" lon="3.07694">
        <ele>75</ele>
        <time>2025-12-29T14:43:08.802Z</time>
      </trkpt>
      <trkpt lat="43.12914" lon="3.07693">
        <ele>75</ele>
        <time>2025-12-29T14:43:09.802Z</time>
      </trkpt>
      <trkpt lat="43.12913" lon="3.07692">
        <ele>75</ele>
        <time>2025-12-29T14:43:10.802Z</time>
      </trkpt>
      <trkpt lat="43.12911" lon="3.07691">
        <ele>75</ele>
        <time>2025-12-29T14:43:11.802Z</time>
      </trkpt>
      <trkpt lat="43.1291" lon="3.07691">
        <ele>76</ele>
        <time>2025-12-29T14:43:12.802Z</time>
      </trkpt>
      <trkpt lat="43.12909" lon="3.07691">
        <ele>76</ele>
        <time>2025-12-29T14:43:13.802Z</time>
      </trkpt>
      <trkpt lat="43.12907" lon="3.07691">
        <ele>76</ele>
        <time>2025-12-29T14:43:14.802Z</time>
      </trkpt>
      <trkpt lat="43.12906" lon="3.07692">
        <ele>76</ele>
        <time>2025-12-29T14:43:15.802Z</time>
      </trkpt>
      <trkpt lat="43.12905" lon="3.07693">
        <ele>76</ele>
        <time>2025-12-29T14:43:16.802Z</time>
      </trkpt>
      <trkpt lat="43.12904" lon="3.07694">
        <ele>76</ele>
        <time>2025-12-29T14:43:17.802Z</time>
      </trkpt>
      <trkpt lat="43.12903" lon="3.07695">
        <ele>76</ele>
        <time>2025-12-29T14:43:18.802Z</time>
      </trkpt>
      <trkpt lat="43.12902" lon="3.07696">
        <ele>76</ele>
        <time>2025-12-29T14:43:19.802Z</time>
      </trkpt>
      <trkpt lat="43.12902" lon="3.07698">
        <ele>76</ele>
        <time>2025-12-29T14:43:20.802Z</time>
      </trkpt>
      <trkpt lat="43.12902" lon="3.07701">
        <ele>76</ele>
        <time>2025-12-29T14:43:21.802Z</time>
      </trkpt>
      <trkpt lat="43.12902" lon="3.07703">
        <ele>76</ele>
        <time>2025-12-29T14:43:22.802Z</time>
      </trkpt>
      <trkpt lat="43.12902" lon="3.07706">
        <ele>76</ele>
        <time>2025-12-29T14:43:23.802Z</time>
      </trkpt>
      <trkpt lat="43.12902" lon="3.07708">
        <ele>76</ele>
        <time>2025-12-29T14:43:24.802Z</time>
      </trkpt>
      <trkpt lat="43.12901" lon="3.0771">
        <ele>76</ele>
        <time>2025-12-29T14:43:25.802Z</time>
      </trkpt>
      <trkpt lat="43.12901" lon="3.07711">
        <ele>76</ele>
        <time>2025-12-29T14:43:26.802Z</time>
      </trkpt>
      <trkpt lat="43.129" lon="3.07712">
        <ele>76</ele>
        <time>2025-12-29T14:43:27.802Z</time>
      </trkpt>
      <trkpt lat="43.129" lon="3.07714">
        <ele>76</ele>
        <time>2025-12-29T14:43:28.802Z</time>
      </trkpt>
      <trkpt lat="43.129" lon="3.07716">
        <ele>76</ele>
        <time>2025-12-29T14:43:29.802Z</time>
      </trkpt>
      <trkpt lat="43.129" lon="3.07717">
        <ele>76</ele>
        <time>2025-12-29T14:43:30.802Z</time>
      </trkpt>
      <trkpt lat="43.129" lon="3.07718">
        <ele>76</ele>
        <time>2025-12-29T14:43:31.802Z</time>
      </trkpt>
      <trkpt lat="43.129" lon="3.0772">
        <ele>76</ele>
        <time>2025-12-29T14:43:32.802Z</time>
      </trkpt>
      <trkpt lat="43.129" lon="3.07722">
        <ele>76</ele>
        <time>2025-12-29T14:43:33.802Z</time>
      </trkpt>
      <trkpt lat="43.129" lon="3.07724">
        <ele>76</ele>
        <time>2025-12-29T14:43:34.802Z</time>
      </trkpt>
      <trkpt lat="43.129" lon="3.07726">
        <ele>77</ele>
        <time>2025-12-29T14:43:35.802Z</time>
      </trkpt>
      <trkpt lat="43.129" lon="3.07727">
        <ele>77</ele>
        <time>2025-12-29T14:43:36.802Z</time>
      </trkpt>
      <trkpt lat="43.129" lon="3.07729">
        <ele>77</ele>
        <time>2025-12-29T14:43:37.802Z</time>
      </trkpt>
      <trkpt lat="43.129" lon="3.0773">
        <ele>77</ele>
        <time>2025-12-29T14:43:38.802Z</time>
      </trkpt>
      <trkpt lat="43.12901" lon="3.07732">
        <ele>77</ele>
        <time>2025-12-29T14:43:39.802Z</time>
      </trkpt>
      <trkpt lat="43.12901" lon="3.07733">
        <ele>77</ele>
        <time>2025-12-29T14:43:40.802Z</time>
      </trkpt>
      <trkpt lat="43.12902" lon="3.07735">
        <ele>77</ele>
        <time>2025-12-29T14:43:41.802Z</time>
      </trkpt>
      <trkpt lat="43.12902" lon="3.07736">
        <ele>77</ele>
        <time>2025-12-29T14:43:42.802Z</time>
      </trkpt>
      <trkpt lat="43.12902" lon="3.07737">
        <ele>77</ele>
        <time>2025-12-29T14:43:43.802Z</time>
      </trkpt>
      <trkpt lat="43.12903" lon="3.07738">
        <ele>77</ele>
        <time>2025-12-29T14:43:44.802Z</time>
      </trkpt>
      <trkpt lat="43.12903" lon="3.07739">
        <ele>78</ele>
        <time>2025-12-29T14:43:45.802Z</time>
      </trkpt>
      <trkpt lat="43.12903" lon="3.07741">
        <ele>78</ele>
        <time>2025-12-29T14:43:46.802Z</time>
      </trkpt>
      <trkpt lat="43.12903" lon="3.07742">
        <ele>79</ele>
        <time>2025-12-29T14:43:47.802Z</time>
      </trkpt>
      <trkpt lat="43.12903" lon="3.07744">
        <ele>79</ele>
        <time>2025-12-29T14:43:48.802Z</time>
      </trkpt>
      <trkpt lat="43.12903" lon="3.07745">
        <ele>79</ele>
        <time>2025-12-29T14:43:49.802Z</time>
      </trkpt>
      <trkpt lat="43.12903" lon="3.07747">
        <ele>79</ele>
        <time>2025-12-29T14:43:50.802Z</time>
      </trkpt>
      <trkpt lat="43.12903" lon="3.07749">
        <ele>80</ele>
        <time>2025-12-29T14:43:51.802Z</time>
      </trkpt>
      <trkpt lat="43.12903" lon="3.07751">
        <ele>80</ele>
        <time>2025-12-29T14:43:52.802Z</time>
      </trkpt>
      <trkpt lat="43.12903" lon="3.07752">
        <ele>80</ele>
        <time>2025-12-29T14:43:53.802Z</time>
      </trkpt>
      <trkpt lat="43.12903" lon="3.07753">
        <ele>80</ele>
        <time>2025-12-29T14:43:54.802Z</time>
      </trkpt>
      <trkpt lat="43.12904" lon="3.07753">
        <ele>80</ele>
        <time>2025-12-29T14:43:55.802Z</time>
      </trkpt>
      <trkpt lat="43.12903" lon="3.07754">
        <ele>81</ele>
        <time>2025-12-29T14:43:56.802Z</time>
      </trkpt>
      <trkpt lat="43.12904" lon="3.07756">
        <ele>81</ele>
        <time>2025-12-29T14:43:57.802Z</time>
      </trkpt>
      <trkpt lat="43.12904" lon="3.07758">
        <ele>81</ele>
        <time>2025-12-29T14:43:58.802Z</time>
      </trkpt>
      <trkpt lat="43.12904" lon="3.07759">
        <ele>81</ele>
        <time>2025-12-29T14:43:59.802Z</time>
      </trkpt>
      <trkpt lat="43.12904" lon="3.07762">
        <ele>82</ele>
        <time>2025-12-29T14:44:00.802Z</time>
      </trkpt>
      <trkpt lat="43.12905" lon="3.07764">
        <ele>82</ele>
        <time>2025-12-29T14:44:01.802Z</time>
      </trkpt>
      <trkpt lat="43.12904" lon="3.0777">
        <ele>82</ele>
        <time>2025-12-29T14:44:02.802Z</time>
      </trkpt>
      <trkpt lat="43.12904" lon="3.07772">
        <ele>82</ele>
        <time>2025-12-29T14:44:03.802Z</time>
      </trkpt>
      <trkpt lat="43.12904" lon="3.07775">
        <ele>83</ele>
        <time>2025-12-29T14:44:04.802Z</time>
      </trkpt>
      <trkpt lat="43.12904" lon="3.07777">
        <ele>83</ele>
        <time>2025-12-29T14:44:05.802Z</time>
      </trkpt>
      <trkpt lat="43.12906" lon="3.0778">
        <ele>83</ele>
        <time>2025-12-29T14:44:06.802Z</time>
      </trkpt>
      <trkpt lat="43.12908" lon="3.07783">
        <ele>83</ele>
        <time>2025-12-29T14:44:07.802Z</time>
      </trkpt>
      <trkpt lat="43.12909" lon="3.07787">
        <ele>83</ele>
        <time>2025-12-29T14:44:08.802Z</time>
      </trkpt>
      <trkpt lat="43.1291" lon="3.07789">
        <ele>83</ele>
        <time>2025-12-29T14:44:09.802Z</time>
      </trkpt>
      <trkpt lat="43.1291" lon="3.07791">
        <ele>83</ele>
        <time>2025-12-29T14:44:10.802Z</time>
      </trkpt>
      <trkpt lat="43.1291" lon="3.07792">
        <ele>84</ele>
        <time>2025-12-29T14:44:11.802Z</time>
      </trkpt>
      <trkpt lat="43.12911" lon="3.07792">
        <ele>84</ele>
        <time>2025-12-29T14:44:12.802Z</time>
      </trkpt>
      <trkpt lat="43.12911" lon="3.07792">
        <ele>84</ele>
        <time>2025-12-29T14:44:13.802Z</time>
      </trkpt>
      <trkpt lat="43.1291" lon="3.07793">
        <ele>84</ele>
        <time>2025-12-29T14:44:14.802Z</time>
      </trkpt>
      <trkpt lat="43.1291" lon="3.07793">
        <ele>84</ele>
        <time>2025-12-29T14:44:15.802Z</time>
      </trkpt>
      <trkpt lat="43.1291" lon="3.07793">
        <ele>84</ele>
        <time>2025-12-29T14:44:16.802Z</time>
      </trkpt>
      <trkpt lat="43.1291" lon="3.07794">
        <ele>84</ele>
        <time>2025-12-29T14:44:17.802Z</time>
      </trkpt>
      <trkpt lat="43.1291" lon="3.07795">
        <ele>84</ele>
        <time>2025-12-29T14:44:18.802Z</time>
      </trkpt>
      <trkpt lat="43.1291" lon="3.07796">
        <ele>83</ele>
        <time>2025-12-29T14:44:19.802Z</time>
      </trkpt>
      <trkpt lat="43.12911" lon="3.07798">
        <ele>84</ele>
        <time>2025-12-29T14:44:20.802Z</time>
      </trkpt>
      <trkpt lat="43.12911" lon="3.07799">
        <ele>84</ele>
        <time>2025-12-29T14:44:21.802Z</time>
      </trkpt>
      <trkpt lat="43.12912" lon="3.07801">
        <ele>83</ele>
        <time>2025-12-29T14:44:22.802Z</time>
      </trkpt>
      <trkpt lat="43.12912" lon="3.07803">
        <ele>83</ele>
        <time>2025-12-29T14:44:23.802Z</time>
      </trkpt>
      <trkpt lat="43.12912" lon="3.07805">
        <ele>83</ele>
        <time>2025-12-29T14:44:24.802Z</time>
      </trkpt>
      <trkpt lat="43.12913" lon="3.07807">
        <ele>83</ele>
        <time>2025-12-29T14:44:25.802Z</time>
      </trkpt>
      <trkpt lat="43.12913" lon="3.07808">
        <ele>83</ele>
        <time>2025-12-29T14:44:26.802Z</time>
      </trkpt>
      <trkpt lat="43.12914" lon="3.07809">
        <ele>83</ele>
        <time>2025-12-29T14:44:27.802Z</time>
      </trkpt>
      <trkpt lat="43.12914" lon="3.0781">
        <ele>83</ele>
        <time>2025-12-29T14:44:28.802Z</time>
      </trkpt>
      <trkpt lat="43.12914" lon="3.07812">
        <ele>83</ele>
        <time>2025-12-29T14:44:29.802Z</time>
      </trkpt>
      <trkpt lat="43.12914" lon="3.07813">
        <ele>83</ele>
        <time>2025-12-29T14:44:30.802Z</time>
      </trkpt>
      <trkpt lat="43.12915" lon="3.07814">
        <ele>83</ele>
        <time>2025-12-29T14:44:31.802Z</time>
      </trkpt>
      <trkpt lat="43.12915" lon="3.07815">
        <ele>83</ele>
        <time>2025-12-29T14:44:32.802Z</time>
      </trkpt>
      <trkpt lat="43.12916" lon="3.07816">
        <ele>83</ele>
        <time>2025-12-29T14:44:33.802Z</time>
      </trkpt>
      <trkpt lat="43.12916" lon="3.07817">
        <ele>84</ele>
        <time>2025-12-29T14:44:34.802Z</time>
      </trkpt>
      <trkpt lat="43.12916" lon="3.07818">
        <ele>84</ele>
        <time>2025-12-29T14:44:35.802Z</time>
      </trkpt>
      <trkpt lat="43.12916" lon="3.07819">
        <ele>84</ele>
        <time>2025-12-29T14:44:36.802Z</time>
      </trkpt>
      <trkpt lat="43.12915" lon="3.0782">
        <ele>84</ele>
        <time>2025-12-29T14:44:37.802Z</time>
      </trkpt>
      <trkpt lat="43.12915" lon="3.07821">
        <ele>84</ele>
        <time>2025-12-29T14:44:38.802Z</time>
      </trkpt>
      <trkpt lat="43.12914" lon="3.07822">
        <ele>85</ele>
        <time>2025-12-29T14:44:39.802Z</time>
      </trkpt>
      <trkpt lat="43.12914" lon="3.07824">
        <ele>85</ele>
        <time>2025-12-29T14:44:40.802Z</time>
      </trkpt>
      <trkpt lat="43.12914" lon="3.07825">
        <ele>86</ele>
        <time>2025-12-29T14:44:41.802Z</time>
      </trkpt>
      <trkpt lat="43.12913" lon="3.07826">
        <ele>86</ele>
        <time>2025-12-29T14:44:42.802Z</time>
      </trkpt>
      <trkpt lat="43.12913" lon="3.07827">
        <ele>87</ele>
        <time>2025-12-29T14:44:43.802Z</time>
      </trkpt>
      <trkpt lat="43.12913" lon="3.07828">
        <ele>87</ele>
        <time>2025-12-29T14:44:44.802Z</time>
      </trkpt>
      <trkpt lat="43.12913" lon="3.0783">
        <ele>88</ele>
        <time>2025-12-29T14:44:45.802Z</time>
      </trkpt>
      <trkpt lat="43.12914" lon="3.07831">
        <ele>88</ele>
        <time>2025-12-29T14:44:46.802Z</time>
      </trkpt>
      <trkpt lat="43.12915" lon="3.07832">
        <ele>88</ele>
        <time>2025-12-29T14:44:47.802Z</time>
      </trkpt>
      <trkpt lat="43.12916" lon="3.07833">
        <ele>89</ele>
        <time>2025-12-29T14:44:48.802Z</time>
      </trkpt>
      <trkpt lat="43.12916" lon="3.07834">
        <ele>89</ele>
        <time>2025-12-29T14:44:49.802Z</time>
      </trkpt>
      <trkpt lat="43.12916" lon="3.07835">
        <ele>89</ele>
        <time>2025-12-29T14:44:50.802Z</time>
      </trkpt>
      <trkpt lat="43.12916" lon="3.07836">
        <ele>89</ele>
        <time>2025-12-29T14:44:51.802Z</time>
      </trkpt>
      <trkpt lat="43.12916" lon="3.07837">
        <ele>90</ele>
        <time>2025-12-29T14:44:52.802Z</time>
      </trkpt>
      <trkpt lat="43.12915" lon="3.07839">
        <ele>90</ele>
        <time>2025-12-29T14:44:53.802Z</time>
      </trkpt>
      <trkpt lat="43.12915" lon="3.07841">
        <ele>90</ele>
        <time>2025-12-29T14:44:54.802Z</time>
      </trkpt>
      <trkpt lat="43.12915" lon="3.07842">
        <ele>90</ele>
        <time>2025-12-29T14:44:55.802Z</time>
      </trkpt>
      <trkpt lat="43.12914" lon="3.07843">
        <ele>91</ele>
        <time>2025-12-29T14:44:56.802Z</time>
      </trkpt>
      <trkpt lat="43.12914" lon="3.07846">
        <ele>91</ele>
        <time>2025-12-29T14:44:57.802Z</time>
      </trkpt>
      <trkpt lat="43.12914" lon="3.07848">
        <ele>92</ele>
        <time>2025-12-29T14:44:58.802Z</time>
      </trkpt>
      <trkpt lat="43.12914" lon="3.07849">
        <ele>92</ele>
        <time>2025-12-29T14:44:59.802Z</time>
      </trkpt>
      <trkpt lat="43.12915" lon="3.07851">
        <ele>92</ele>
        <time>2025-12-29T14:45:00.802Z</time>
      </trkpt>
      <trkpt lat="43.12915" lon="3.07852">
        <ele>92</ele>
        <time>2025-12-29T14:45:01.802Z</time>
      </trkpt>
      <trkpt lat="43.12915" lon="3.07854">
        <ele>93</ele>
        <time>2025-12-29T14:45:02.802Z</time>
      </trkpt>
      <trkpt lat="43.12916" lon="3.07855">
        <ele>93</ele>
        <time>2025-12-29T14:45:03.802Z</time>
      </trkpt>
      <trkpt lat="43.12916" lon="3.07856">
        <ele>93</ele>
        <time>2025-12-29T14:45:04.802Z</time>
      </trkpt>
      <trkpt lat="43.12916" lon="3.07858">
        <ele>93</ele>
        <time>2025-12-29T14:45:05.802Z</time>
      </trkpt>
      <trkpt lat="43.12915" lon="3.07859">
        <ele>93</ele>
        <time>2025-12-29T14:45:06.802Z</time>
      </trkpt>
      <trkpt lat="43.12915" lon="3.07861">
        <ele>93</ele>
        <time>2025-12-29T14:45:07.802Z</time>
      </trkpt>
      <trkpt lat="43.12915" lon="3.07864">
        <ele>93</ele>
        <time>2025-12-29T14:45:08.802Z</time>
      </trkpt>
      <trkpt lat="43.12915" lon="3.07866">
        <ele>93</ele>
        <time>2025-12-29T14:45:09.802Z</time>
      </trkpt>
      <trkpt lat="43.12915" lon="3.07868">
        <ele>94</ele>
        <time>2025-12-29T14:45:10.802Z</time>
      </trkpt>
      <trkpt lat="43.12915" lon="3.07869">
        <ele>94</ele>
        <time>2025-12-29T14:45:11.802Z</time>
      </trkpt>
      <trkpt lat="43.12915" lon="3.07871">
        <ele>94</ele>
        <time>2025-12-29T14:45:12.802Z</time>
      </trkpt>
      <trkpt lat="43.12915" lon="3.07872">
        <ele>94</ele>
        <time>2025-12-29T14:45:13.802Z</time>
      </trkpt>
      <trkpt lat="43.12916" lon="3.07874">
        <ele>94</ele>
        <time>2025-12-29T14:45:14.802Z</time>
      </trkpt>
      <trkpt lat="43.12916" lon="3.07876">
        <ele>94</ele>
        <time>2025-12-29T14:45:15.802Z</time>
      </trkpt>
      <trkpt lat="43.12916" lon="3.07878">
        <ele>94</ele>
        <time>2025-12-29T14:45:16.802Z</time>
      </trkpt>
      <trkpt lat="43.12916" lon="3.0788">
        <ele>94</ele>
        <time>2025-12-29T14:45:17.802Z</time>
      </trkpt>
      <trkpt lat="43.12917" lon="3.07881">
        <ele>95</ele>
        <time>2025-12-29T14:45:18.802Z</time>
      </trkpt>
      <trkpt lat="43.12917" lon="3.07882">
        <ele>95</ele>
        <time>2025-12-29T14:45:19.802Z</time>
      </trkpt>
      <trkpt lat="43.12917" lon="3.07883">
        <ele>95</ele>
        <time>2025-12-29T14:45:20.802Z</time>
      </trkpt>
      <trkpt lat="43.12917" lon="3.07884">
        <ele>95</ele>
        <time>2025-12-29T14:45:21.802Z</time>
      </trkpt>
      <trkpt lat="43.12918" lon="3.07885">
        <ele>95</ele>
        <time>2025-12-29T14:45:22.802Z</time>
      </trkpt>
      <trkpt lat="43.12918" lon="3.07888">
        <ele>95</ele>
        <time>2025-12-29T14:45:23.802Z</time>
      </trkpt>
      <trkpt lat="43.12918" lon="3.07889">
        <ele>94</ele>
        <time>2025-12-29T14:45:24.802Z</time>
      </trkpt>
      <trkpt lat="43.12918" lon="3.0789">
        <ele>94</ele>
        <time>2025-12-29T14:45:25.802Z</time>
      </trkpt>
      <trkpt lat="43.12919" lon="3.07892">
        <ele>94</ele>
        <time>2025-12-29T14:45:26.802Z</time>
      </trkpt>
      <trkpt lat="43.12918" lon="3.07894">
        <ele>95</ele>
        <time>2025-12-29T14:45:27.802Z</time>
      </trkpt>
      <trkpt lat="43.12917" lon="3.07897">
        <ele>95</ele>
        <time>2025-12-29T14:45:28.802Z</time>
      </trkpt>
      <trkpt lat="43.12915" lon="3.07901">
        <ele>95</ele>
        <time>2025-12-29T14:45:29.802Z</time>
      </trkpt>
      <trkpt lat="43.12914" lon="3.07904">
        <ele>95</ele>
        <time>2025-12-29T14:45:30.802Z</time>
      </trkpt>
      <trkpt lat="43.12912" lon="3.07907">
        <ele>96</ele>
        <time>2025-12-29T14:45:31.802Z</time>
      </trkpt>
      <trkpt lat="43.12912" lon="3.0791">
        <ele>96</ele>
        <time>2025-12-29T14:45:32.802Z</time>
      </trkpt>
      <trkpt lat="43.12911" lon="3.07913">
        <ele>97</ele>
        <time>2025-12-29T14:45:33.802Z</time>
      </trkpt>
      <trkpt lat="43.1291" lon="3.07918">
        <ele>97</ele>
        <time>2025-12-29T14:45:34.802Z</time>
      </trkpt>
      <trkpt lat="43.1291" lon="3.07922">
        <ele>97</ele>
        <time>2025-12-29T14:45:35.802Z</time>
      </trkpt>
      <trkpt lat="43.1291" lon="3.07924">
        <ele>98</ele>
        <time>2025-12-29T14:45:36.802Z</time>
      </trkpt>
      <trkpt lat="43.12908" lon="3.07927">
        <ele>98</ele>
        <time>2025-12-29T14:45:37.802Z</time>
      </trkpt>
      <trkpt lat="43.12907" lon="3.07931">
        <ele>98</ele>
        <time>2025-12-29T14:45:38.802Z</time>
      </trkpt>
      <trkpt lat="43.12906" lon="3.07934">
        <ele>99</ele>
        <time>2025-12-29T14:45:39.802Z</time>
      </trkpt>
      <trkpt lat="43.12907" lon="3.07936">
        <ele>99</ele>
        <time>2025-12-29T14:45:40.802Z</time>
      </trkpt>
      <trkpt lat="43.12908" lon="3.07936">
        <ele>99</ele>
        <time>2025-12-29T14:45:41.802Z</time>
      </trkpt>
      <trkpt lat="43.12908" lon="3.07937">
        <ele>99</ele>
        <time>2025-12-29T14:45:42.802Z</time>
      </trkpt>
      <trkpt lat="43.12909" lon="3.07938">
        <ele>100</ele>
        <time>2025-12-29T14:45:43.802Z</time>
      </trkpt>
      <trkpt lat="43.12909" lon="3.07939">
        <ele>100</ele>
        <time>2025-12-29T14:45:44.802Z</time>
      </trkpt>
      <trkpt lat="43.12909" lon="3.0794">
        <ele>100</ele>
        <time>2025-12-29T14:45:45.802Z</time>
      </trkpt>
      <trkpt lat="43.1291" lon="3.07942">
        <ele>100</ele>
        <time>2025-12-29T14:45:46.802Z</time>
      </trkpt>
      <trkpt lat="43.1291" lon="3.07943">
        <ele>99</ele>
        <time>2025-12-29T14:45:47.802Z</time>
      </trkpt>
      <trkpt lat="43.1291" lon="3.07944">
        <ele>99</ele>
        <time>2025-12-29T14:45:48.802Z</time>
      </trkpt>
      <trkpt lat="43.12911" lon="3.07944">
        <ele>99</ele>
        <time>2025-12-29T14:45:49.802Z</time>
      </trkpt>
      <trkpt lat="43.12911" lon="3.07945">
        <ele>100</ele>
        <time>2025-12-29T14:45:50.802Z</time>
      </trkpt>
      <trkpt lat="43.12911" lon="3.07946">
        <ele>100</ele>
        <time>2025-12-29T14:45:51.802Z</time>
      </trkpt>
      <trkpt lat="43.1291" lon="3.07946">
        <ele>100</ele>
        <time>2025-12-29T14:45:52.802Z</time>
      </trkpt>
      <trkpt lat="43.12909" lon="3.07947">
        <ele>100</ele>
        <time>2025-12-29T14:45:53.802Z</time>
      </trkpt>
      <trkpt lat="43.12908" lon="3.07948">
        <ele>100</ele>
        <time>2025-12-29T14:45:54.802Z</time>
      </trkpt>
      <trkpt lat="43.12908" lon="3.07948">
        <ele>100</ele>
        <time>2025-12-29T14:45:55.802Z</time>
      </trkpt>
      <trkpt lat="43.12907" lon="3.07949">
        <ele>100</ele>
        <time>2025-12-29T14:45:56.802Z</time>
      </trkpt>
      <trkpt lat="43.12906" lon="3.07949">
        <ele>100</ele>
        <time>2025-12-29T14:45:57.802Z</time>
      </trkpt>
      <trkpt lat="43.12904" lon="3.0795">
        <ele>100</ele>
        <time>2025-12-29T14:45:58.802Z</time>
      </trkpt>
      <trkpt lat="43.12903" lon="3.07952">
        <ele>100</ele>
        <time>2025-12-29T14:45:59.802Z</time>
      </trkpt>
      <trkpt lat="43.12902" lon="3.07954">
        <ele>100</ele>
        <time>2025-12-29T14:46:00.802Z</time>
      </trkpt>
      <trkpt lat="43.12901" lon="3.07956">
        <ele>99</ele>
        <time>2025-12-29T14:46:01.802Z</time>
      </trkpt>
      <trkpt lat="43.12901" lon="3.07959">
        <ele>99</ele>
        <time>2025-12-29T14:46:02.802Z</time>
      </trkpt>
      <trkpt lat="43.12901" lon="3.07961">
        <ele>99</ele>
        <time>2025-12-29T14:46:03.802Z</time>
      </trkpt>
      <trkpt lat="43.129" lon="3.07963">
        <ele>99</ele>
        <time>2025-12-29T14:46:04.802Z</time>
      </trkpt>
      <trkpt lat="43.12901" lon="3.07965">
        <ele>99</ele>
        <time>2025-12-29T14:46:05.802Z</time>
      </trkpt>
      <trkpt lat="43.12901" lon="3.07967">
        <ele>99</ele>
        <time>2025-12-29T14:46:06.802Z</time>
      </trkpt>
      <trkpt lat="43.12901" lon="3.07969">
        <ele>99</ele>
        <time>2025-12-29T14:46:07.802Z</time>
      </trkpt>
      <trkpt lat="43.12901" lon="3.07971">
        <ele>98</ele>
        <time>2025-12-29T14:46:08.802Z</time>
      </trkpt>
      <trkpt lat="43.12902" lon="3.07974">
        <ele>98</ele>
        <time>2025-12-29T14:46:09.802Z</time>
      </trkpt>
      <trkpt lat="43.12903" lon="3.07977">
        <ele>98</ele>
        <time>2025-12-29T14:46:10.802Z</time>
      </trkpt>
      <trkpt lat="43.12904" lon="3.07978">
        <ele>98</ele>
        <time>2025-12-29T14:46:11.802Z</time>
      </trkpt>
      <trkpt lat="43.12904" lon="3.0798">
        <ele>97</ele>
        <time>2025-12-29T14:46:12.802Z</time>
      </trkpt>
      <trkpt lat="43.12905" lon="3.07982">
        <ele>97</ele>
        <time>2025-12-29T14:46:13.802Z</time>
      </trkpt>
      <trkpt lat="43.12906" lon="3.07984">
        <ele>97</ele>
        <time>2025-12-29T14:46:14.802Z</time>
      </trkpt>
      <trkpt lat="43.12906" lon="3.07986">
        <ele>96</ele>
        <time>2025-12-29T14:46:15.802Z</time>
      </trkpt>
      <trkpt lat="43.12907" lon="3.07987">
        <ele>96</ele>
        <time>2025-12-29T14:46:16.802Z</time>
      </trkpt>
      <trkpt lat="43.12907" lon="3.07989">
        <ele>96</ele>
        <time>2025-12-29T14:46:17.802Z</time>
      </trkpt>
      <trkpt lat="43.12907" lon="3.0799">
        <ele>96</ele>
        <time>2025-12-29T14:46:18.802Z</time>
      </trkpt>
      <trkpt lat="43.12906" lon="3.07992">
        <ele>96</ele>
        <time>2025-12-29T14:46:19.802Z</time>
      </trkpt>
      <trkpt lat="43.12906" lon="3.07994">
        <ele>96</ele>
        <time>2025-12-29T14:46:20.802Z</time>
      </trkpt>
      <trkpt lat="43.12906" lon="3.07997">
        <ele>96</ele>
        <time>2025-12-29T14:46:21.802Z</time>
      </trkpt>
      <trkpt lat="43.12906" lon="3.07999">
        <ele>96</ele>
        <time>2025-12-29T14:46:22.802Z</time>
      </trkpt>
      <trkpt lat="43.12907" lon="3.08001">
        <ele>96</ele>
        <time>2025-12-29T14:46:23.802Z</time>
      </trkpt>
      <trkpt lat="43.12907" lon="3.08003">
        <ele>97</ele>
        <time>2025-12-29T14:46:24.802Z</time>
      </trkpt>
      <trkpt lat="43.12907" lon="3.08004">
        <ele>97</ele>
        <time>2025-12-29T14:46:25.802Z</time>
      </trkpt>
      <trkpt lat="43.12907" lon="3.08006">
        <ele>97</ele>
        <time>2025-12-29T14:46:26.802Z</time>
      </trkpt>
      <trkpt lat="43.12908" lon="3.08008">
        <ele>96</ele>
        <time>2025-12-29T14:46:27.802Z</time>
      </trkpt>
      <trkpt lat="43.12908" lon="3.0801">
        <ele>96</ele>
        <time>2025-12-29T14:46:28.802Z</time>
      </trkpt>
      <trkpt lat="43.12907" lon="3.08012">
        <ele>96</ele>
        <time>2025-12-29T14:46:29.802Z</time>
      </trkpt>
      <trkpt lat="43.12907" lon="3.08014">
        <ele>97</ele>
        <time>2025-12-29T14:46:30.802Z</time>
      </trkpt>
      <trkpt lat="43.12906" lon="3.08016">
        <ele>97</ele>
        <time>2025-12-29T14:46:31.802Z</time>
      </trkpt>
      <trkpt lat="43.12905" lon="3.08018">
        <ele>97</ele>
        <time>2025-12-29T14:46:32.802Z</time>
      </trkpt>
      <trkpt lat="43.12905" lon="3.08021">
        <ele>97</ele>
        <time>2025-12-29T14:46:33.802Z</time>
      </trkpt>
      <trkpt lat="43.12904" lon="3.08024">
        <ele>97</ele>
        <time>2025-12-29T14:46:34.802Z</time>
      </trkpt>
      <trkpt lat="43.12904" lon="3.08026">
        <ele>97</ele>
        <time>2025-12-29T14:46:35.802Z</time>
      </trkpt>
      <trkpt lat="43.12905" lon="3.08027">
        <ele>97</ele>
        <time>2025-12-29T14:46:36.802Z</time>
      </trkpt>
      <trkpt lat="43.12905" lon="3.08029">
        <ele>97</ele>
        <time>2025-12-29T14:46:37.802Z</time>
      </trkpt>
      <trkpt lat="43.12906" lon="3.0803">
        <ele>97</ele>
        <time>2025-12-29T14:46:38.802Z</time>
      </trkpt>
      <trkpt lat="43.12906" lon="3.08032">
        <ele>97</ele>
        <time>2025-12-29T14:46:39.802Z</time>
      </trkpt>
      <trkpt lat="43.12907" lon="3.08033">
        <ele>97</ele>
        <time>2025-12-29T14:46:40.802Z</time>
      </trkpt>
      <trkpt lat="43.12907" lon="3.08036">
        <ele>96</ele>
        <time>2025-12-29T14:46:41.802Z</time>
      </trkpt>
      <trkpt lat="43.12908" lon="3.08038">
        <ele>96</ele>
        <time>2025-12-29T14:46:42.802Z</time>
      </trkpt>
      <trkpt lat="43.12908" lon="3.0804">
        <ele>96</ele>
        <time>2025-12-29T14:46:43.802Z</time>
      </trkpt>
      <trkpt lat="43.12908" lon="3.08042">
        <ele>96</ele>
        <time>2025-12-29T14:46:44.802Z</time>
      </trkpt>
      <trkpt lat="43.12908" lon="3.08044">
        <ele>96</ele>
        <time>2025-12-29T14:46:45.802Z</time>
      </trkpt>
      <trkpt lat="43.12908" lon="3.08047">
        <ele>96</ele>
        <time>2025-12-29T14:46:46.802Z</time>
      </trkpt>
      <trkpt lat="43.1291" lon="3.08056">
        <ele>96</ele>
        <time>2025-12-29T14:46:47.802Z</time>
      </trkpt>
      <trkpt lat="43.1291" lon="3.08059">
        <ele>96</ele>
        <time>2025-12-29T14:46:48.802Z</time>
      </trkpt>
      <trkpt lat="43.1291" lon="3.08063">
        <ele>96</ele>
        <time>2025-12-29T14:46:49.802Z</time>
      </trkpt>
      <trkpt lat="43.12911" lon="3.08066">
        <ele>96</ele>
        <time>2025-12-29T14:46:50.802Z</time>
      </trkpt>
      <trkpt lat="43.12911" lon="3.08068">
        <ele>96</ele>
        <time>2025-12-29T14:46:51.802Z</time>
      </trkpt>
      <trkpt lat="43.1291" lon="3.08072">
        <ele>96</ele>
        <time>2025-12-29T14:46:52.802Z</time>
      </trkpt>
      <trkpt lat="43.12908" lon="3.08074">
        <ele>96</ele>
        <time>2025-12-29T14:46:53.802Z</time>
      </trkpt>
      <trkpt lat="43.1291" lon="3.08079">
        <ele>95</ele>
        <time>2025-12-29T14:46:54.802Z</time>
      </trkpt>
      <trkpt lat="43.1291" lon="3.0808">
        <ele>95</ele>
        <time>2025-12-29T14:46:55.802Z</time>
      </trkpt>
      <trkpt lat="43.12909" lon="3.08083">
        <ele>95</ele>
        <time>2025-12-29T14:46:56.802Z</time>
      </trkpt>
      <trkpt lat="43.12909" lon="3.08086">
        <ele>94</ele>
        <time>2025-12-29T14:46:57.802Z</time>
      </trkpt>
      <trkpt lat="43.12909" lon="3.08091">
        <ele>94</ele>
        <time>2025-12-29T14:46:58.802Z</time>
      </trkpt>
      <trkpt lat="43.1291" lon="3.08093">
        <ele>94</ele>
        <time>2025-12-29T14:46:59.802Z</time>
      </trkpt>
      <trkpt lat="43.12912" lon="3.08095">
        <ele>94</ele>
        <time>2025-12-29T14:47:00.802Z</time>
      </trkpt>
      <trkpt lat="43.12914" lon="3.08096">
        <ele>94</ele>
        <time>2025-12-29T14:47:01.802Z</time>
      </trkpt>
      <trkpt lat="43.12915" lon="3.08097">
        <ele>94</ele>
        <time>2025-12-29T14:47:02.802Z</time>
      </trkpt>
      <trkpt lat="43.12915" lon="3.08098">
        <ele>94</ele>
        <time>2025-12-29T14:47:03.802Z</time>
      </trkpt>
      <trkpt lat="43.12915" lon="3.08099">
        <ele>94</ele>
        <time>2025-12-29T14:47:04.802Z</time>
      </trkpt>
      <trkpt lat="43.12915" lon="3.08099">
        <ele>94</ele>
        <time>2025-12-29T14:47:05.802Z</time>
      </trkpt>
      <trkpt lat="43.12915" lon="3.08101">
        <ele>94</ele>
        <time>2025-12-29T14:47:06.802Z</time>
      </trkpt>
      <trkpt lat="43.12916" lon="3.08102">
        <ele>94</ele>
        <time>2025-12-29T14:47:07.802Z</time>
      </trkpt>
      <trkpt lat="43.12916" lon="3.08103">
        <ele>94</ele>
        <time>2025-12-29T14:47:08.802Z</time>
      </trkpt>
      <trkpt lat="43.12916" lon="3.08104">
        <ele>94</ele>
        <time>2025-12-29T14:47:09.802Z</time>
      </trkpt>
      <trkpt lat="43.12917" lon="3.08104">
        <ele>93</ele>
        <time>2025-12-29T14:47:10.802Z</time>
      </trkpt>
      <trkpt lat="43.12918" lon="3.08105">
        <ele>93</ele>
        <time>2025-12-29T14:47:11.802Z</time>
      </trkpt>
      <trkpt lat="43.12918" lon="3.08107">
        <ele>93</ele>
        <time>2025-12-29T14:47:12.802Z</time>
      </trkpt>
      <trkpt lat="43.12919" lon="3.08109">
        <ele>92</ele>
        <time>2025-12-29T14:47:13.802Z</time>
      </trkpt>
      <trkpt lat="43.1292" lon="3.08109">
        <ele>92</ele>
        <time>2025-12-29T14:47:14.802Z</time>
      </trkpt>
      <trkpt lat="43.1292" lon="3.08111">
        <ele>92</ele>
        <time>2025-12-29T14:47:15.802Z</time>
      </trkpt>
      <trkpt lat="43.12921" lon="3.08113">
        <ele>92</ele>
        <time>2025-12-29T14:47:16.802Z</time>
      </trkpt>
      <trkpt lat="43.12922" lon="3.08114">
        <ele>92</ele>
        <time>2025-12-29T14:47:17.802Z</time>
      </trkpt>
      <trkpt lat="43.12923" lon="3.08116">
        <ele>91</ele>
        <time>2025-12-29T14:47:18.802Z</time>
      </trkpt>
      <trkpt lat="43.12923" lon="3.08118">
        <ele>91</ele>
        <time>2025-12-29T14:47:19.802Z</time>
      </trkpt>
      <trkpt lat="43.12924" lon="3.08119">
        <ele>91</ele>
        <time>2025-12-29T14:47:20.802Z</time>
      </trkpt>
      <trkpt lat="43.12924" lon="3.08121">
        <ele>91</ele>
        <time>2025-12-29T14:47:21.802Z</time>
      </trkpt>
      <trkpt lat="43.12925" lon="3.08123">
        <ele>91</ele>
        <time>2025-12-29T14:47:22.802Z</time>
      </trkpt>
      <trkpt lat="43.12925" lon="3.08124">
        <ele>90</ele>
        <time>2025-12-29T14:47:23.802Z</time>
      </trkpt>
      <trkpt lat="43.12925" lon="3.08126">
        <ele>90</ele>
        <time>2025-12-29T14:47:24.802Z</time>
      </trkpt>
      <trkpt lat="43.12925" lon="3.08129">
        <ele>90</ele>
        <time>2025-12-29T14:47:25.802Z</time>
      </trkpt>
      <trkpt lat="43.12925" lon="3.08131">
        <ele>90</ele>
        <time>2025-12-29T14:47:26.802Z</time>
      </trkpt>
      <trkpt lat="43.12926" lon="3.08133">
        <ele>90</ele>
        <time>2025-12-29T14:47:27.802Z</time>
      </trkpt>
      <trkpt lat="43.12926" lon="3.08136">
        <ele>90</ele>
        <time>2025-12-29T14:47:28.802Z</time>
      </trkpt>
      <trkpt lat="43.12926" lon="3.08138">
        <ele>90</ele>
        <time>2025-12-29T14:47:29.802Z</time>
      </trkpt>
      <trkpt lat="43.12926" lon="3.0814">
        <ele>90</ele>
        <time>2025-12-29T14:47:30.802Z</time>
      </trkpt>
      <trkpt lat="43.12926" lon="3.08143">
        <ele>89</ele>
        <time>2025-12-29T14:47:31.802Z</time>
      </trkpt>
      <trkpt lat="43.12927" lon="3.08145">
        <ele>89</ele>
        <time>2025-12-29T14:47:32.802Z</time>
      </trkpt>
      <trkpt lat="43.12928" lon="3.08146">
        <ele>89</ele>
        <time>2025-12-29T14:47:33.802Z</time>
      </trkpt>
      <trkpt lat="43.12928" lon="3.08148">
        <ele>89</ele>
        <time>2025-12-29T14:47:34.802Z</time>
      </trkpt>
      <trkpt lat="43.12928" lon="3.0815">
        <ele>89</ele>
        <time>2025-12-29T14:47:35.802Z</time>
      </trkpt>
      <trkpt lat="43.12928" lon="3.08152">
        <ele>89</ele>
        <time>2025-12-29T14:47:36.802Z</time>
      </trkpt>
      <trkpt lat="43.12929" lon="3.08153">
        <ele>89</ele>
        <time>2025-12-29T14:47:37.802Z</time>
      </trkpt>
      <trkpt lat="43.12929" lon="3.08155">
        <ele>89</ele>
        <time>2025-12-29T14:47:38.802Z</time>
      </trkpt>
      <trkpt lat="43.1293" lon="3.08156">
        <ele>89</ele>
        <time>2025-12-29T14:47:39.802Z</time>
      </trkpt>
      <trkpt lat="43.1293" lon="3.08158">
        <ele>88</ele>
        <time>2025-12-29T14:47:40.802Z</time>
      </trkpt>
      <trkpt lat="43.12931" lon="3.0816">
        <ele>88</ele>
        <time>2025-12-29T14:47:41.802Z</time>
      </trkpt>
      <trkpt lat="43.12931" lon="3.08161">
        <ele>88</ele>
        <time>2025-12-29T14:47:42.802Z</time>
      </trkpt>
      <trkpt lat="43.12931" lon="3.08163">
        <ele>88</ele>
        <time>2025-12-29T14:47:43.802Z</time>
      </trkpt>
      <trkpt lat="43.12931" lon="3.08165">
        <ele>88</ele>
        <time>2025-12-29T14:47:44.802Z</time>
      </trkpt>
      <trkpt lat="43.12932" lon="3.08167">
        <ele>88</ele>
        <time>2025-12-29T14:47:45.802Z</time>
      </trkpt>
      <trkpt lat="43.12932" lon="3.08169">
        <ele>88</ele>
        <time>2025-12-29T14:47:46.802Z</time>
      </trkpt>
      <trkpt lat="43.12932" lon="3.08171">
        <ele>88</ele>
        <time>2025-12-29T14:47:47.802Z</time>
      </trkpt>
      <trkpt lat="43.12932" lon="3.08173">
        <ele>88</ele>
        <time>2025-12-29T14:47:48.802Z</time>
      </trkpt>
      <trkpt lat="43.12933" lon="3.08175">
        <ele>88</ele>
        <time>2025-12-29T14:47:49.802Z</time>
      </trkpt>
      <trkpt lat="43.12933" lon="3.08176">
        <ele>88</ele>
        <time>2025-12-29T14:47:50.802Z</time>
      </trkpt>
      <trkpt lat="43.12933" lon="3.08178">
        <ele>88</ele>
        <time>2025-12-29T14:47:51.802Z</time>
      </trkpt>
      <trkpt lat="43.12934" lon="3.08179">
        <ele>88</ele>
        <time>2025-12-29T14:47:52.802Z</time>
      </trkpt>
      <trkpt lat="43.12934" lon="3.08181">
        <ele>88</ele>
        <time>2025-12-29T14:47:53.802Z</time>
      </trkpt>
      <trkpt lat="43.12934" lon="3.08182">
        <ele>88</ele>
        <time>2025-12-29T14:47:54.802Z</time>
      </trkpt>
      <trkpt lat="43.12935" lon="3.08183">
        <ele>88</ele>
        <time>2025-12-29T14:47:55.802Z</time>
      </trkpt>
      <trkpt lat="43.12936" lon="3.08184">
        <ele>88</ele>
        <time>2025-12-29T14:47:56.802Z</time>
      </trkpt>
      <trkpt lat="43.12937" lon="3.08186">
        <ele>88</ele>
        <time>2025-12-29T14:47:57.802Z</time>
      </trkpt>
      <trkpt lat="43.12938" lon="3.08187">
        <ele>88</ele>
        <time>2025-12-29T14:47:58.802Z</time>
      </trkpt>
      <trkpt lat="43.12939" lon="3.08189">
        <ele>88</ele>
        <time>2025-12-29T14:47:59.802Z</time>
      </trkpt>
      <trkpt lat="43.12939" lon="3.0819">
        <ele>89</ele>
        <time>2025-12-29T14:48:00.802Z</time>
      </trkpt>
      <trkpt lat="43.1294" lon="3.08191">
        <ele>89</ele>
        <time>2025-12-29T14:48:01.802Z</time>
      </trkpt>
      <trkpt lat="43.1294" lon="3.08193">
        <ele>89</ele>
        <time>2025-12-29T14:48:02.802Z</time>
      </trkpt>
      <trkpt lat="43.1294" lon="3.08194">
        <ele>89</ele>
        <time>2025-12-29T14:48:03.802Z</time>
      </trkpt>
      <trkpt lat="43.1294" lon="3.08196">
        <ele>89</ele>
        <time>2025-12-29T14:48:04.802Z</time>
      </trkpt>
      <trkpt lat="43.12941" lon="3.08197">
        <ele>89</ele>
        <time>2025-12-29T14:48:05.802Z</time>
      </trkpt>
      <trkpt lat="43.12941" lon="3.08199">
        <ele>89</ele>
        <time>2025-12-29T14:48:06.802Z</time>
      </trkpt>
      <trkpt lat="43.12941" lon="3.08201">
        <ele>89</ele>
        <time>2025-12-29T14:48:07.802Z</time>
      </trkpt>
      <trkpt lat="43.12942" lon="3.08202">
        <ele>89</ele>
        <time>2025-12-29T14:48:08.802Z</time>
      </trkpt>
      <trkpt lat="43.12943" lon="3.08204">
        <ele>89</ele>
        <time>2025-12-29T14:48:09.802Z</time>
      </trkpt>
      <trkpt lat="43.12944" lon="3.08205">
        <ele>89</ele>
        <time>2025-12-29T14:48:10.802Z</time>
      </trkpt>
      <trkpt lat="43.12945" lon="3.08206">
        <ele>89</ele>
        <time>2025-12-29T14:48:11.802Z</time>
      </trkpt>
      <trkpt lat="43.12946" lon="3.08206">
        <ele>89</ele>
        <time>2025-12-29T14:48:12.802Z</time>
      </trkpt>
      <trkpt lat="43.12948" lon="3.08207">
        <ele>89</ele>
        <time>2025-12-29T14:48:13.802Z</time>
      </trkpt>
      <trkpt lat="43.12949" lon="3.08207">
        <ele>89</ele>
        <time>2025-12-29T14:48:14.802Z</time>
      </trkpt>
      <trkpt lat="43.12951" lon="3.08207">
        <ele>89</ele>
        <time>2025-12-29T14:48:15.802Z</time>
      </trkpt>
      <trkpt lat="43.12953" lon="3.08209">
        <ele>89</ele>
        <time>2025-12-29T14:48:16.802Z</time>
      </trkpt>
      <trkpt lat="43.12954" lon="3.0821">
        <ele>89</ele>
        <time>2025-12-29T14:48:17.802Z</time>
      </trkpt>
      <trkpt lat="43.12955" lon="3.08212">
        <ele>89</ele>
        <time>2025-12-29T14:48:18.802Z</time>
      </trkpt>
      <trkpt lat="43.12956" lon="3.08213">
        <ele>89</ele>
        <time>2025-12-29T14:48:19.802Z</time>
      </trkpt>
      <trkpt lat="43.12957" lon="3.08214">
        <ele>90</ele>
        <time>2025-12-29T14:48:20.802Z</time>
      </trkpt>
      <trkpt lat="43.12958" lon="3.08215">
        <ele>90</ele>
        <time>2025-12-29T14:48:21.802Z</time>
      </trkpt>
      <trkpt lat="43.12959" lon="3.08216">
        <ele>90</ele>
        <time>2025-12-29T14:48:22.802Z</time>
      </trkpt>
      <trkpt lat="43.1296" lon="3.08217">
        <ele>90</ele>
        <time>2025-12-29T14:48:23.802Z</time>
      </trkpt>
      <trkpt lat="43.1296" lon="3.08217">
        <ele>91</ele>
        <time>2025-12-29T14:48:24.802Z</time>
      </trkpt>
      <trkpt lat="43.12961" lon="3.08218">
        <ele>91</ele>
        <time>2025-12-29T14:48:25.802Z</time>
      </trkpt>
      <trkpt lat="43.12962" lon="3.08219">
        <ele>91</ele>
        <time>2025-12-29T14:48:26.802Z</time>
      </trkpt>
      <trkpt lat="43.12963" lon="3.08221">
        <ele>91</ele>
        <time>2025-12-29T14:48:27.802Z</time>
      </trkpt>
      <trkpt lat="43.12964" lon="3.08222">
        <ele>90</ele>
        <time>2025-12-29T14:48:28.802Z</time>
      </trkpt>
      <trkpt lat="43.12965" lon="3.08223">
        <ele>90</ele>
        <time>2025-12-29T14:48:29.802Z</time>
      </trkpt>
      <trkpt lat="43.12966" lon="3.08225">
        <ele>90</ele>
        <time>2025-12-29T14:48:30.802Z</time>
      </trkpt>
      <trkpt lat="43.12967" lon="3.08226">
        <ele>91</ele>
        <time>2025-12-29T14:48:31.802Z</time>
      </trkpt>
      <trkpt lat="43.12967" lon="3.08227">
        <ele>91</ele>
        <time>2025-12-29T14:48:32.802Z</time>
      </trkpt>
      <trkpt lat="43.12967" lon="3.08226">
        <ele>91</ele>
        <time>2025-12-29T14:48:33.802Z</time>
      </trkpt>
      <trkpt lat="43.12968" lon="3.08228">
        <ele>91</ele>
        <time>2025-12-29T14:48:34.802Z</time>
      </trkpt>
      <trkpt lat="43.12968" lon="3.08229">
        <ele>91</ele>
        <time>2025-12-29T14:48:35.802Z</time>
      </trkpt>
      <trkpt lat="43.12968" lon="3.0823">
        <ele>91</ele>
        <time>2025-12-29T14:48:36.802Z</time>
      </trkpt>
      <trkpt lat="43.12968" lon="3.08232">
        <ele>91</ele>
        <time>2025-12-29T14:48:37.802Z</time>
      </trkpt>
      <trkpt lat="43.12969" lon="3.08234">
        <ele>91</ele>
        <time>2025-12-29T14:48:38.802Z</time>
      </trkpt>
      <trkpt lat="43.1297" lon="3.08235">
        <ele>91</ele>
        <time>2025-12-29T14:48:39.802Z</time>
      </trkpt>
      <trkpt lat="43.1297" lon="3.08236">
        <ele>91</ele>
        <time>2025-12-29T14:48:40.802Z</time>
      </trkpt>
      <trkpt lat="43.1297" lon="3.08236">
        <ele>91</ele>
        <time>2025-12-29T14:48:41.802Z</time>
      </trkpt>
      <trkpt lat="43.1297" lon="3.08238">
        <ele>91</ele>
        <time>2025-12-29T14:48:42.802Z</time>
      </trkpt>
      <trkpt lat="43.12971" lon="3.0824">
        <ele>91</ele>
        <time>2025-12-29T14:48:43.802Z</time>
      </trkpt>
      <trkpt lat="43.12972" lon="3.08242">
        <ele>92</ele>
        <time>2025-12-29T14:48:44.802Z</time>
      </trkpt>
      <trkpt lat="43.12974" lon="3.08243">
        <ele>92</ele>
        <time>2025-12-29T14:48:45.802Z</time>
      </trkpt>
      <trkpt lat="43.12975" lon="3.08245">
        <ele>92</ele>
        <time>2025-12-29T14:48:46.802Z</time>
      </trkpt>
      <trkpt lat="43.12977" lon="3.08246">
        <ele>92</ele>
        <time>2025-12-29T14:48:47.802Z</time>
      </trkpt>
      <trkpt lat="43.12978" lon="3.08246">
        <ele>92</ele>
        <time>2025-12-29T14:48:48.802Z</time>
      </trkpt>
      <trkpt lat="43.1298" lon="3.08247">
        <ele>91</ele>
        <time>2025-12-29T14:48:49.802Z</time>
      </trkpt>
      <trkpt lat="43.12981" lon="3.08248">
        <ele>91</ele>
        <time>2025-12-29T14:48:50.802Z</time>
      </trkpt>
      <trkpt lat="43.12983" lon="3.0825">
        <ele>91</ele>
        <time>2025-12-29T14:48:51.802Z</time>
      </trkpt>
      <trkpt lat="43.12984" lon="3.08252">
        <ele>91</ele>
        <time>2025-12-29T14:48:52.802Z</time>
      </trkpt>
      <trkpt lat="43.12985" lon="3.08255">
        <ele>91</ele>
        <time>2025-12-29T14:48:53.802Z</time>
      </trkpt>
      <trkpt lat="43.12986" lon="3.08257">
        <ele>90</ele>
        <time>2025-12-29T14:48:54.802Z</time>
      </trkpt>
      <trkpt lat="43.12988" lon="3.08258">
        <ele>90</ele>
        <time>2025-12-29T14:48:55.802Z</time>
      </trkpt>
      <trkpt lat="43.1299" lon="3.08259">
        <ele>90</ele>
        <time>2025-12-29T14:48:56.802Z</time>
      </trkpt>
      <trkpt lat="43.12991" lon="3.08259">
        <ele>90</ele>
        <time>2025-12-29T14:48:57.802Z</time>
      </trkpt>
      <trkpt lat="43.12993" lon="3.0826">
        <ele>89</ele>
        <time>2025-12-29T14:48:58.802Z</time>
      </trkpt>
      <trkpt lat="43.12995" lon="3.08261">
        <ele>89</ele>
        <time>2025-12-29T14:48:59.802Z</time>
      </trkpt>
      <trkpt lat="43.12996" lon="3.08261">
        <ele>89</ele>
        <time>2025-12-29T14:49:00.802Z</time>
      </trkpt>
      <trkpt lat="43.12998" lon="3.08261">
        <ele>89</ele>
        <time>2025-12-29T14:49:01.802Z</time>
      </trkpt>
      <trkpt lat="43.13" lon="3.08261">
        <ele>89</ele>
        <time>2025-12-29T14:49:02.802Z</time>
      </trkpt>
      <trkpt lat="43.13002" lon="3.0826">
        <ele>89</ele>
        <time>2025-12-29T14:49:03.802Z</time>
      </trkpt>
      <trkpt lat="43.13003" lon="3.0826">
        <ele>89</ele>
        <time>2025-12-29T14:49:04.802Z</time>
      </trkpt>
      <trkpt lat="43.13004" lon="3.08259">
        <ele>89</ele>
        <time>2025-12-29T14:49:05.802Z</time>
      </trkpt>
      <trkpt lat="43.13006" lon="3.08259">
        <ele>89</ele>
        <time>2025-12-29T14:49:06.802Z</time>
      </trkpt>
      <trkpt lat="43.13007" lon="3.08258">
        <ele>89</ele>
        <time>2025-12-29T14:49:07.802Z</time>
      </trkpt>
      <trkpt lat="43.13008" lon="3.08257">
        <ele>89</ele>
        <time>2025-12-29T14:49:08.802Z</time>
      </trkpt>
      <trkpt lat="43.13009" lon="3.08257">
        <ele>89</ele>
        <time>2025-12-29T14:49:09.802Z</time>
      </trkpt>
      <trkpt lat="43.1301" lon="3.08257">
        <ele>89</ele>
        <time>2025-12-29T14:49:10.802Z</time>
      </trkpt>
      <trkpt lat="43.13011" lon="3.08257">
        <ele>89</ele>
        <time>2025-12-29T14:49:11.802Z</time>
      </trkpt>
      <trkpt lat="43.13013" lon="3.08256">
        <ele>89</ele>
        <time>2025-12-29T14:49:12.802Z</time>
      </trkpt>
      <trkpt lat="43.13014" lon="3.08256">
        <ele>89</ele>
        <time>2025-12-29T14:49:13.802Z</time>
      </trkpt>
      <trkpt lat="43.13015" lon="3.08256">
        <ele>89</ele>
        <time>2025-12-29T14:49:14.802Z</time>
      </trkpt>
      <trkpt lat="43.13016" lon="3.08255">
        <ele>89</ele>
        <time>2025-12-29T14:49:15.802Z</time>
      </trkpt>
      <trkpt lat="43.13016" lon="3.08255">
        <ele>88</ele>
        <time>2025-12-29T14:49:16.802Z</time>
      </trkpt>
      <trkpt lat="43.13018" lon="3.08256">
        <ele>88</ele>
        <time>2025-12-29T14:49:17.802Z</time>
      </trkpt>
      <trkpt lat="43.13019" lon="3.08257">
        <ele>88</ele>
        <time>2025-12-29T14:49:18.802Z</time>
      </trkpt>
      <trkpt lat="43.1302" lon="3.08257">
        <ele>87</ele>
        <time>2025-12-29T14:49:19.802Z</time>
      </trkpt>
      <trkpt lat="43.13022" lon="3.08257">
        <ele>87</ele>
        <time>2025-12-29T14:49:20.802Z</time>
      </trkpt>
      <trkpt lat="43.13023" lon="3.08258">
        <ele>87</ele>
        <time>2025-12-29T14:49:21.802Z</time>
      </trkpt>
      <trkpt lat="43.13024" lon="3.08258">
        <ele>87</ele>
        <time>2025-12-29T14:49:22.802Z</time>
      </trkpt>
      <trkpt lat="43.13026" lon="3.08259">
        <ele>87</ele>
        <time>2025-12-29T14:49:23.802Z</time>
      </trkpt>
      <trkpt lat="43.13027" lon="3.0826">
        <ele>86</ele>
        <time>2025-12-29T14:49:24.802Z</time>
      </trkpt>
      <trkpt lat="43.13029" lon="3.08261">
        <ele>86</ele>
        <time>2025-12-29T14:49:25.802Z</time>
      </trkpt>
      <trkpt lat="43.1303" lon="3.08261">
        <ele>86</ele>
        <time>2025-12-29T14:49:26.802Z</time>
      </trkpt>
      <trkpt lat="43.13031" lon="3.08262">
        <ele>86</ele>
        <time>2025-12-29T14:49:27.802Z</time>
      </trkpt>
      <trkpt lat="43.13032" lon="3.08262">
        <ele>86</ele>
        <time>2025-12-29T14:49:28.802Z</time>
      </trkpt>
      <trkpt lat="43.13033" lon="3.08263">
        <ele>86</ele>
        <time>2025-12-29T14:49:29.802Z</time>
      </trkpt>
      <trkpt lat="43.13035" lon="3.08263">
        <ele>87</ele>
        <time>2025-12-29T14:49:30.802Z</time>
      </trkpt>
      <trkpt lat="43.13037" lon="3.08263">
        <ele>87</ele>
        <time>2025-12-29T14:49:31.802Z</time>
      </trkpt>
      <trkpt lat="43.13038" lon="3.08264">
        <ele>88</ele>
        <time>2025-12-29T14:49:32.802Z</time>
      </trkpt>
      <trkpt lat="43.1304" lon="3.08264">
        <ele>88</ele>
        <time>2025-12-29T14:49:33.802Z</time>
      </trkpt>
      <trkpt lat="43.1304" lon="3.08265">
        <ele>88</ele>
        <time>2025-12-29T14:49:34.802Z</time>
      </trkpt>
      <trkpt lat="43.13041" lon="3.08266">
        <ele>88</ele>
        <time>2025-12-29T14:49:35.802Z</time>
      </trkpt>
      <trkpt lat="43.13042" lon="3.08267">
        <ele>88</ele>
        <time>2025-12-29T14:49:36.802Z</time>
      </trkpt>
      <trkpt lat="43.13043" lon="3.08269">
        <ele>89</ele>
        <time>2025-12-29T14:49:37.802Z</time>
      </trkpt>
      <trkpt lat="43.13044" lon="3.0827">
        <ele>89</ele>
        <time>2025-12-29T14:49:38.802Z</time>
      </trkpt>
      <trkpt lat="43.13045" lon="3.08271">
        <ele>89</ele>
        <time>2025-12-29T14:49:39.802Z</time>
      </trkpt>
      <trkpt lat="43.13046" lon="3.08272">
        <ele>89</ele>
        <time>2025-12-29T14:49:40.802Z</time>
      </trkpt>
      <trkpt lat="43.13047" lon="3.08274">
        <ele>89</ele>
        <time>2025-12-29T14:49:41.802Z</time>
      </trkpt>
      <trkpt lat="43.13047" lon="3.08275">
        <ele>89</ele>
        <time>2025-12-29T14:49:42.802Z</time>
      </trkpt>
      <trkpt lat="43.13047" lon="3.08278">
        <ele>89</ele>
        <time>2025-12-29T14:49:43.802Z</time>
      </trkpt>
      <trkpt lat="43.13046" lon="3.08279">
        <ele>89</ele>
        <time>2025-12-29T14:49:44.802Z</time>
      </trkpt>
      <trkpt lat="43.13044" lon="3.08281">
        <ele>90</ele>
        <time>2025-12-29T14:49:45.802Z</time>
      </trkpt>
      <trkpt lat="43.13042" lon="3.08282">
        <ele>90</ele>
        <time>2025-12-29T14:49:46.802Z</time>
      </trkpt>
      <trkpt lat="43.13042" lon="3.08284">
        <ele>90</ele>
        <time>2025-12-29T14:49:47.802Z</time>
      </trkpt>
      <trkpt lat="43.13042" lon="3.08286">
        <ele>90</ele>
        <time>2025-12-29T14:49:48.802Z</time>
      </trkpt>
      <trkpt lat="43.13043" lon="3.08289">
        <ele>90</ele>
        <time>2025-12-29T14:49:49.802Z</time>
      </trkpt>
      <trkpt lat="43.13044" lon="3.08291">
        <ele>90</ele>
        <time>2025-12-29T14:49:50.802Z</time>
      </trkpt>
      <trkpt lat="43.13045" lon="3.08293">
        <ele>90</ele>
        <time>2025-12-29T14:49:51.802Z</time>
      </trkpt>
      <trkpt lat="43.13044" lon="3.08294">
        <ele>90</ele>
        <time>2025-12-29T14:49:52.802Z</time>
      </trkpt>
      <trkpt lat="43.13044" lon="3.08296">
        <ele>90</ele>
        <time>2025-12-29T14:49:53.802Z</time>
      </trkpt>
      <trkpt lat="43.13044" lon="3.08297">
        <ele>90</ele>
        <time>2025-12-29T14:49:54.802Z</time>
      </trkpt>
      <trkpt lat="43.13044" lon="3.08299">
        <ele>90</ele>
        <time>2025-12-29T14:49:55.802Z</time>
      </trkpt>
      <trkpt lat="43.13043" lon="3.083">
        <ele>90</ele>
        <time>2025-12-29T14:49:56.802Z</time>
      </trkpt>
      <trkpt lat="43.13043" lon="3.08302">
        <ele>90</ele>
        <time>2025-12-29T14:49:57.802Z</time>
      </trkpt>
      <trkpt lat="43.13043" lon="3.08304">
        <ele>90</ele>
        <time>2025-12-29T14:49:58.802Z</time>
      </trkpt>
      <trkpt lat="43.13043" lon="3.08307">
        <ele>90</ele>
        <time>2025-12-29T14:49:59.802Z</time>
      </trkpt>
      <trkpt lat="43.13043" lon="3.08308">
        <ele>90</ele>
        <time>2025-12-29T14:50:00.802Z</time>
      </trkpt>
      <trkpt lat="43.13044" lon="3.0831">
        <ele>90</ele>
        <time>2025-12-29T14:50:01.802Z</time>
      </trkpt>
      <trkpt lat="43.13044" lon="3.08312">
        <ele>90</ele>
        <time>2025-12-29T14:50:02.802Z</time>
      </trkpt>
      <trkpt lat="43.13043" lon="3.08314">
        <ele>90</ele>
        <time>2025-12-29T14:50:03.802Z</time>
      </trkpt>
      <trkpt lat="43.13044" lon="3.08316">
        <ele>90</ele>
        <time>2025-12-29T14:50:04.802Z</time>
      </trkpt>
      <trkpt lat="43.13044" lon="3.08318">
        <ele>90</ele>
        <time>2025-12-29T14:50:05.802Z</time>
      </trkpt>
      <trkpt lat="43.13045" lon="3.08319">
        <ele>90</ele>
        <time>2025-12-29T14:50:06.802Z</time>
      </trkpt>
      <trkpt lat="43.13045" lon="3.08321">
        <ele>90</ele>
        <time>2025-12-29T14:50:07.802Z</time>
      </trkpt>
      <trkpt lat="43.13045" lon="3.08323">
        <ele>90</ele>
        <time>2025-12-29T14:50:08.802Z</time>
      </trkpt>
      <trkpt lat="43.13046" lon="3.08324">
        <ele>90</ele>
        <time>2025-12-29T14:50:09.802Z</time>
      </trkpt>
      <trkpt lat="43.13046" lon="3.08326">
        <ele>91</ele>
        <time>2025-12-29T14:50:10.802Z</time>
      </trkpt>
      <trkpt lat="43.13045" lon="3.08328">
        <ele>91</ele>
        <time>2025-12-29T14:50:11.802Z</time>
      </trkpt>
      <trkpt lat="43.13044" lon="3.08329">
        <ele>91</ele>
        <time>2025-12-29T14:50:12.802Z</time>
      </trkpt>
      <trkpt lat="43.13043" lon="3.08331">
        <ele>91</ele>
        <time>2025-12-29T14:50:13.802Z</time>
      </trkpt>
      <trkpt lat="43.13042" lon="3.08332">
        <ele>92</ele>
        <time>2025-12-29T14:50:14.802Z</time>
      </trkpt>
      <trkpt lat="43.1304" lon="3.08332">
        <ele>92</ele>
        <time>2025-12-29T14:50:15.802Z</time>
      </trkpt>
      <trkpt lat="43.13039" lon="3.08333">
        <ele>92</ele>
        <time>2025-12-29T14:50:16.802Z</time>
      </trkpt>
      <trkpt lat="43.13038" lon="3.08334">
        <ele>92</ele>
        <time>2025-12-29T14:50:17.802Z</time>
      </trkpt>
      <trkpt lat="43.13037" lon="3.08336">
        <ele>92</ele>
        <time>2025-12-29T14:50:18.802Z</time>
      </trkpt>
      <trkpt lat="43.13036" lon="3.08337">
        <ele>92</ele>
        <time>2025-12-29T14:50:19.802Z</time>
      </trkpt>
      <trkpt lat="43.13035" lon="3.08338">
        <ele>91</ele>
        <time>2025-12-29T14:50:20.802Z</time>
      </trkpt>
      <trkpt lat="43.13034" lon="3.08339">
        <ele>91</ele>
        <time>2025-12-29T14:50:21.802Z</time>
      </trkpt>
      <trkpt lat="43.13033" lon="3.08341">
        <ele>90</ele>
        <time>2025-12-29T14:50:22.802Z</time>
      </trkpt>
      <trkpt lat="43.13032" lon="3.08343">
        <ele>90</ele>
        <time>2025-12-29T14:50:23.802Z</time>
      </trkpt>
      <trkpt lat="43.13032" lon="3.08345">
        <ele>90</ele>
        <time>2025-12-29T14:50:24.802Z</time>
      </trkpt>
      <trkpt lat="43.13031" lon="3.08346">
        <ele>90</ele>
        <time>2025-12-29T14:50:25.802Z</time>
      </trkpt>
      <trkpt lat="43.1303" lon="3.08347">
        <ele>90</ele>
        <time>2025-12-29T14:50:26.802Z</time>
      </trkpt>
      <trkpt lat="43.1303" lon="3.08349">
        <ele>90</ele>
        <time>2025-12-29T14:50:27.802Z</time>
      </trkpt>
      <trkpt lat="43.13028" lon="3.0835">
        <ele>90</ele>
        <time>2025-12-29T14:50:28.802Z</time>
      </trkpt>
      <trkpt lat="43.13028" lon="3.08352">
        <ele>91</ele>
        <time>2025-12-29T14:50:29.802Z</time>
      </trkpt>
      <trkpt lat="43.13027" lon="3.08353">
        <ele>91</ele>
        <time>2025-12-29T14:50:30.802Z</time>
      </trkpt>
      <trkpt lat="43.13026" lon="3.08354">
        <ele>91</ele>
        <time>2025-12-29T14:50:31.802Z</time>
      </trkpt>
      <trkpt lat="43.13026" lon="3.08356">
        <ele>91</ele>
        <time>2025-12-29T14:50:32.802Z</time>
      </trkpt>
      <trkpt lat="43.13026" lon="3.08357">
        <ele>91</ele>
        <time>2025-12-29T14:50:33.802Z</time>
      </trkpt>
      <trkpt lat="43.13025" lon="3.08359">
        <ele>91</ele>
        <time>2025-12-29T14:50:34.802Z</time>
      </trkpt>
      <trkpt lat="43.13024" lon="3.08361">
        <ele>91</ele>
        <time>2025-12-29T14:50:35.802Z</time>
      </trkpt>
      <trkpt lat="43.13024" lon="3.08363">
        <ele>91</ele>
        <time>2025-12-29T14:50:36.802Z</time>
      </trkpt>
      <trkpt lat="43.13023" lon="3.08365">
        <ele>91</ele>
        <time>2025-12-29T14:50:37.802Z</time>
      </trkpt>
      <trkpt lat="43.13022" lon="3.08366">
        <ele>90</ele>
        <time>2025-12-29T14:50:38.802Z</time>
      </trkpt>
      <trkpt lat="43.13022" lon="3.08367">
        <ele>90</ele>
        <time>2025-12-29T14:50:39.802Z</time>
      </trkpt>
      <trkpt lat="43.13021" lon="3.08369">
        <ele>90</ele>
        <time>2025-12-29T14:50:40.802Z</time>
      </trkpt>
      <trkpt lat="43.1302" lon="3.08371">
        <ele>90</ele>
        <time>2025-12-29T14:50:41.802Z</time>
      </trkpt>
      <trkpt lat="43.1302" lon="3.08372">
        <ele>90</ele>
        <time>2025-12-29T14:50:42.802Z</time>
      </trkpt>
      <trkpt lat="43.13019" lon="3.08373">
        <ele>90</ele>
        <time>2025-12-29T14:50:43.802Z</time>
      </trkpt>
      <trkpt lat="43.13018" lon="3.08375">
        <ele>90</ele>
        <time>2025-12-29T14:50:44.802Z</time>
      </trkpt>
      <trkpt lat="43.13017" lon="3.08377">
        <ele>90</ele>
        <time>2025-12-29T14:50:45.802Z</time>
      </trkpt>
      <trkpt lat="43.13016" lon="3.08378">
        <ele>90</ele>
        <time>2025-12-29T14:50:46.802Z</time>
      </trkpt>
      <trkpt lat="43.13015" lon="3.08379">
        <ele>90</ele>
        <time>2025-12-29T14:50:47.802Z</time>
      </trkpt>
      <trkpt lat="43.13014" lon="3.0838">
        <ele>90</ele>
        <time>2025-12-29T14:50:48.802Z</time>
      </trkpt>
      <trkpt lat="43.13013" lon="3.08381">
        <ele>91</ele>
        <time>2025-12-29T14:50:49.802Z</time>
      </trkpt>
      <trkpt lat="43.13013" lon="3.08381">
        <ele>91</ele>
        <time>2025-12-29T14:50:50.802Z</time>
      </trkpt>
      <trkpt lat="43.13012" lon="3.08382">
        <ele>91</ele>
        <time>2025-12-29T14:50:51.802Z</time>
      </trkpt>
      <trkpt lat="43.13012" lon="3.08383">
        <ele>92</ele>
        <time>2025-12-29T14:50:52.802Z</time>
      </trkpt>
      <trkpt lat="43.13011" lon="3.08384">
        <ele>92</ele>
        <time>2025-12-29T14:50:53.802Z</time>
      </trkpt>
      <trkpt lat="43.13011" lon="3.08386">
        <ele>92</ele>
        <time>2025-12-29T14:50:54.802Z</time>
      </trkpt>
      <trkpt lat="43.13011" lon="3.08387">
        <ele>92</ele>
        <time>2025-12-29T14:50:55.802Z</time>
      </trkpt>
      <trkpt lat="43.13011" lon="3.08389">
        <ele>92</ele>
        <time>2025-12-29T14:50:56.802Z</time>
      </trkpt>
      <trkpt lat="43.13009" lon="3.08392">
        <ele>91</ele>
        <time>2025-12-29T14:50:57.802Z</time>
      </trkpt>
      <trkpt lat="43.13008" lon="3.08395">
        <ele>91</ele>
        <time>2025-12-29T14:50:58.802Z</time>
      </trkpt>
      <trkpt lat="43.13008" lon="3.08397">
        <ele>91</ele>
        <time>2025-12-29T14:50:59.802Z</time>
      </trkpt>
      <trkpt lat="43.13006" lon="3.08398">
        <ele>92</ele>
        <time>2025-12-29T14:51:00.802Z</time>
      </trkpt>
      <trkpt lat="43.13005" lon="3.08399">
        <ele>92</ele>
        <time>2025-12-29T14:51:01.802Z</time>
      </trkpt>
      <trkpt lat="43.13005" lon="3.08401">
        <ele>92</ele>
        <time>2025-12-29T14:51:02.802Z</time>
      </trkpt>
      <trkpt lat="43.13004" lon="3.08403">
        <ele>92</ele>
        <time>2025-12-29T14:51:03.802Z</time>
      </trkpt>
      <trkpt lat="43.13003" lon="3.08405">
        <ele>93</ele>
        <time>2025-12-29T14:51:04.802Z</time>
      </trkpt>
      <trkpt lat="43.13002" lon="3.08407">
        <ele>93</ele>
        <time>2025-12-29T14:51:05.802Z</time>
      </trkpt>
      <trkpt lat="43.13001" lon="3.08409">
        <ele>94</ele>
        <time>2025-12-29T14:51:06.802Z</time>
      </trkpt>
      <trkpt lat="43.13" lon="3.08409">
        <ele>94</ele>
        <time>2025-12-29T14:51:07.802Z</time>
      </trkpt>
      <trkpt lat="43.12999" lon="3.08411">
        <ele>95</ele>
        <time>2025-12-29T14:51:08.802Z</time>
      </trkpt>
      <trkpt lat="43.12998" lon="3.08413">
        <ele>95</ele>
        <time>2025-12-29T14:51:09.802Z</time>
      </trkpt>
      <trkpt lat="43.12998" lon="3.08413">
        <ele>95</ele>
        <time>2025-12-29T14:51:10.802Z</time>
      </trkpt>
      <trkpt lat="43.12997" lon="3.08414">
        <ele>95</ele>
        <time>2025-12-29T14:51:11.802Z</time>
      </trkpt>
      <trkpt lat="43.12997" lon="3.08416">
        <ele>96</ele>
        <time>2025-12-29T14:51:12.802Z</time>
      </trkpt>
      <trkpt lat="43.12997" lon="3.08418">
        <ele>96</ele>
        <time>2025-12-29T14:51:13.802Z</time>
      </trkpt>
      <trkpt lat="43.12997" lon="3.08419">
        <ele>97</ele>
        <time>2025-12-29T14:51:14.802Z</time>
      </trkpt>
      <trkpt lat="43.12996" lon="3.08421">
        <ele>97</ele>
        <time>2025-12-29T14:51:15.802Z</time>
      </trkpt>
      <trkpt lat="43.12995" lon="3.08422">
        <ele>98</ele>
        <time>2025-12-29T14:51:16.802Z</time>
      </trkpt>
      <trkpt lat="43.12995" lon="3.08422">
        <ele>98</ele>
        <time>2025-12-29T14:51:17.802Z</time>
      </trkpt>
      <trkpt lat="43.12995" lon="3.08423">
        <ele>98</ele>
        <time>2025-12-29T14:51:18.802Z</time>
      </trkpt>
      <trkpt lat="43.12995" lon="3.08424">
        <ele>99</ele>
        <time>2025-12-29T14:51:19.802Z</time>
      </trkpt>
      <trkpt lat="43.12995" lon="3.08426">
        <ele>99</ele>
        <time>2025-12-29T14:51:20.802Z</time>
      </trkpt>
      <trkpt lat="43.12994" lon="3.08427">
        <ele>100</ele>
        <time>2025-12-29T14:51:21.802Z</time>
      </trkpt>
      <trkpt lat="43.12993" lon="3.08428">
        <ele>100</ele>
        <time>2025-12-29T14:51:22.802Z</time>
      </trkpt>
      <trkpt lat="43.12992" lon="3.08429">
        <ele>100</ele>
        <time>2025-12-29T14:51:23.802Z</time>
      </trkpt>
      <trkpt lat="43.12991" lon="3.08429">
        <ele>101</ele>
        <time>2025-12-29T14:51:24.802Z</time>
      </trkpt>
      <trkpt lat="43.1299" lon="3.0843">
        <ele>101</ele>
        <time>2025-12-29T14:51:25.802Z</time>
      </trkpt>
      <trkpt lat="43.12989" lon="3.0843">
        <ele>101</ele>
        <time>2025-12-29T14:51:26.802Z</time>
      </trkpt>
      <trkpt lat="43.12988" lon="3.0843">
        <ele>101</ele>
        <time>2025-12-29T14:51:27.802Z</time>
      </trkpt>
      <trkpt lat="43.12987" lon="3.0843">
        <ele>100</ele>
        <time>2025-12-29T14:51:28.802Z</time>
      </trkpt>
      <trkpt lat="43.12986" lon="3.08431">
        <ele>100</ele>
        <time>2025-12-29T14:51:29.802Z</time>
      </trkpt>
      <trkpt lat="43.12985" lon="3.08432">
        <ele>100</ele>
        <time>2025-12-29T14:51:30.802Z</time>
      </trkpt>
      <trkpt lat="43.12984" lon="3.08432">
        <ele>100</ele>
        <time>2025-12-29T14:51:31.802Z</time>
      </trkpt>
      <trkpt lat="43.12983" lon="3.08432">
        <ele>100</ele>
        <time>2025-12-29T14:51:32.802Z</time>
      </trkpt>
      <trkpt lat="43.12982" lon="3.08433">
        <ele>101</ele>
        <time>2025-12-29T14:51:33.802Z</time>
      </trkpt>
      <trkpt lat="43.12981" lon="3.08434">
        <ele>101</ele>
        <time>2025-12-29T14:51:34.802Z</time>
      </trkpt>
      <trkpt lat="43.1298" lon="3.08435">
        <ele>101</ele>
        <time>2025-12-29T14:51:35.802Z</time>
      </trkpt>
      <trkpt lat="43.12979" lon="3.08436">
        <ele>101</ele>
        <time>2025-12-29T14:51:36.802Z</time>
      </trkpt>
      <trkpt lat="43.12979" lon="3.08438">
        <ele>101</ele>
        <time>2025-12-29T14:51:37.802Z</time>
      </trkpt>
      <trkpt lat="43.12979" lon="3.08439">
        <ele>101</ele>
        <time>2025-12-29T14:51:38.802Z</time>
      </trkpt>
      <trkpt lat="43.12978" lon="3.08441">
        <ele>102</ele>
        <time>2025-12-29T14:51:39.802Z</time>
      </trkpt>
      <trkpt lat="43.12977" lon="3.08441">
        <ele>102</ele>
        <time>2025-12-29T14:51:40.802Z</time>
      </trkpt>
      <trkpt lat="43.12976" lon="3.08443">
        <ele>102</ele>
        <time>2025-12-29T14:51:41.802Z</time>
      </trkpt>
      <trkpt lat="43.12976" lon="3.08443">
        <ele>102</ele>
        <time>2025-12-29T14:51:42.802Z</time>
      </trkpt>
      <trkpt lat="43.12976" lon="3.08443">
        <ele>102</ele>
        <time>2025-12-29T14:51:43.802Z</time>
      </trkpt>
      <trkpt lat="43.12975" lon="3.08444">
        <ele>102</ele>
        <time>2025-12-29T14:51:44.802Z</time>
      </trkpt>
      <trkpt lat="43.12974" lon="3.08444">
        <ele>102</ele>
        <time>2025-12-29T14:51:45.802Z</time>
      </trkpt>
      <trkpt lat="43.12973" lon="3.08445">
        <ele>103</ele>
        <time>2025-12-29T14:51:46.802Z</time>
      </trkpt>
      <trkpt lat="43.12973" lon="3.08446">
        <ele>103</ele>
        <time>2025-12-29T14:51:47.802Z</time>
      </trkpt>
      <trkpt lat="43.12972" lon="3.08446">
        <ele>103</ele>
        <time>2025-12-29T14:51:48.802Z</time>
      </trkpt>
      <trkpt lat="43.12971" lon="3.08447">
        <ele>104</ele>
        <time>2025-12-29T14:51:49.802Z</time>
      </trkpt>
      <trkpt lat="43.12969" lon="3.08447">
        <ele>104</ele>
        <time>2025-12-29T14:51:50.802Z</time>
      </trkpt>
      <trkpt lat="43.12967" lon="3.08447">
        <ele>104</ele>
        <time>2025-12-29T14:51:51.802Z</time>
      </trkpt>
      <trkpt lat="43.12966" lon="3.08448">
        <ele>104</ele>
        <time>2025-12-29T14:51:52.802Z</time>
      </trkpt>
      <trkpt lat="43.12965" lon="3.08448">
        <ele>104</ele>
        <time>2025-12-29T14:51:53.802Z</time>
      </trkpt>
      <trkpt lat="43.12964" lon="3.08449">
        <ele>104</ele>
        <time>2025-12-29T14:51:54.802Z</time>
      </trkpt>
      <trkpt lat="43.12963" lon="3.0845">
        <ele>104</ele>
        <time>2025-12-29T14:51:55.802Z</time>
      </trkpt>
      <trkpt lat="43.12962" lon="3.08451">
        <ele>104</ele>
        <time>2025-12-29T14:51:56.802Z</time>
      </trkpt>
      <trkpt lat="43.12961" lon="3.08453">
        <ele>105</ele>
        <time>2025-12-29T14:51:57.802Z</time>
      </trkpt>
      <trkpt lat="43.1296" lon="3.08455">
        <ele>105</ele>
        <time>2025-12-29T14:51:58.802Z</time>
      </trkpt>
      <trkpt lat="43.12959" lon="3.08456">
        <ele>105</ele>
        <time>2025-12-29T14:51:59.802Z</time>
      </trkpt>
      <trkpt lat="43.12958" lon="3.08457">
        <ele>105</ele>
        <time>2025-12-29T14:52:00.802Z</time>
      </trkpt>
      <trkpt lat="43.12957" lon="3.08458">
        <ele>105</ele>
        <time>2025-12-29T14:52:01.802Z</time>
      </trkpt>
      <trkpt lat="43.12956" lon="3.08458">
        <ele>105</ele>
        <time>2025-12-29T14:52:02.802Z</time>
      </trkpt>
      <trkpt lat="43.12955" lon="3.0846">
        <ele>105</ele>
        <time>2025-12-29T14:52:03.802Z</time>
      </trkpt>
      <trkpt lat="43.12955" lon="3.08461">
        <ele>105</ele>
        <time>2025-12-29T14:52:04.802Z</time>
      </trkpt>
      <trkpt lat="43.12955" lon="3.08463">
        <ele>105</ele>
        <time>2025-12-29T14:52:05.802Z</time>
      </trkpt>
      <trkpt lat="43.12955" lon="3.08465">
        <ele>105</ele>
        <time>2025-12-29T14:52:06.802Z</time>
      </trkpt>
      <trkpt lat="43.12955" lon="3.08467">
        <ele>105</ele>
        <time>2025-12-29T14:52:07.802Z</time>
      </trkpt>
      <trkpt lat="43.12954" lon="3.08469">
        <ele>105</ele>
        <time>2025-12-29T14:52:08.802Z</time>
      </trkpt>
      <trkpt lat="43.12953" lon="3.0847">
        <ele>105</ele>
        <time>2025-12-29T14:52:09.802Z</time>
      </trkpt>
      <trkpt lat="43.12952" lon="3.08472">
        <ele>105</ele>
        <time>2025-12-29T14:52:10.802Z</time>
      </trkpt>
      <trkpt lat="43.12951" lon="3.08473">
        <ele>105</ele>
        <time>2025-12-29T14:52:11.802Z</time>
      </trkpt>
      <trkpt lat="43.1295" lon="3.08475">
        <ele>106</ele>
        <time>2025-12-29T14:52:12.802Z</time>
      </trkpt>
      <trkpt lat="43.12948" lon="3.08476">
        <ele>106</ele>
        <time>2025-12-29T14:52:13.802Z</time>
      </trkpt>
      <trkpt lat="43.12946" lon="3.08478">
        <ele>106</ele>
        <time>2025-12-29T14:52:14.802Z</time>
      </trkpt>
      <trkpt lat="43.12945" lon="3.08479">
        <ele>106</ele>
        <time>2025-12-29T14:52:15.802Z</time>
      </trkpt>
      <trkpt lat="43.12944" lon="3.08481">
        <ele>106</ele>
        <time>2025-12-29T14:52:16.802Z</time>
      </trkpt>
      <trkpt lat="43.12942" lon="3.08482">
        <ele>106</ele>
        <time>2025-12-29T14:52:17.802Z</time>
      </trkpt>
      <trkpt lat="43.12941" lon="3.08485">
        <ele>106</ele>
        <time>2025-12-29T14:52:18.802Z</time>
      </trkpt>
      <trkpt lat="43.1294" lon="3.08487">
        <ele>106</ele>
        <time>2025-12-29T14:52:19.802Z</time>
      </trkpt>
      <trkpt lat="43.1294" lon="3.08488">
        <ele>105</ele>
        <time>2025-12-29T14:52:20.802Z</time>
      </trkpt>
      <trkpt lat="43.12939" lon="3.08489">
        <ele>105</ele>
        <time>2025-12-29T14:52:21.802Z</time>
      </trkpt>
      <trkpt lat="43.12938" lon="3.08489">
        <ele>105</ele>
        <time>2025-12-29T14:52:22.802Z</time>
      </trkpt>
      <trkpt lat="43.12937" lon="3.0849">
        <ele>105</ele>
        <time>2025-12-29T14:52:23.802Z</time>
      </trkpt>
      <trkpt lat="43.12936" lon="3.08492">
        <ele>105</ele>
        <time>2025-12-29T14:52:24.802Z</time>
      </trkpt>
      <trkpt lat="43.12935" lon="3.08494">
        <ele>105</ele>
        <time>2025-12-29T14:52:25.802Z</time>
      </trkpt>
      <trkpt lat="43.12934" lon="3.08494">
        <ele>105</ele>
        <time>2025-12-29T14:52:26.802Z</time>
      </trkpt>
      <trkpt lat="43.12934" lon="3.08496">
        <ele>105</ele>
        <time>2025-12-29T14:52:27.802Z</time>
      </trkpt>
      <trkpt lat="43.12934" lon="3.08498">
        <ele>105</ele>
        <time>2025-12-29T14:52:28.802Z</time>
      </trkpt>
      <trkpt lat="43.12936" lon="3.08498">
        <ele>105</ele>
        <time>2025-12-29T14:52:29.802Z</time>
      </trkpt>
      <trkpt lat="43.12936" lon="3.08499">
        <ele>105</ele>
        <time>2025-12-29T14:52:30.802Z</time>
      </trkpt>
      <trkpt lat="43.12936" lon="3.085">
        <ele>105</ele>
        <time>2025-12-29T14:52:31.802Z</time>
      </trkpt>
      <trkpt lat="43.12936" lon="3.08501">
        <ele>105</ele>
        <time>2025-12-29T14:52:32.802Z</time>
      </trkpt>
      <trkpt lat="43.12936" lon="3.08503">
        <ele>105</ele>
        <time>2025-12-29T14:52:33.802Z</time>
      </trkpt>
      <trkpt lat="43.12936" lon="3.08504">
        <ele>106</ele>
        <time>2025-12-29T14:52:34.802Z</time>
      </trkpt>
      <trkpt lat="43.12935" lon="3.08505">
        <ele>106</ele>
        <time>2025-12-29T14:52:35.802Z</time>
      </trkpt>
      <trkpt lat="43.12934" lon="3.08506">
        <ele>106</ele>
        <time>2025-12-29T14:52:36.802Z</time>
      </trkpt>
      <trkpt lat="43.12933" lon="3.08508">
        <ele>106</ele>
        <time>2025-12-29T14:52:37.802Z</time>
      </trkpt>
      <trkpt lat="43.12933" lon="3.08509">
        <ele>107</ele>
        <time>2025-12-29T14:52:38.802Z</time>
      </trkpt>
      <trkpt lat="43.12933" lon="3.0851">
        <ele>107</ele>
        <time>2025-12-29T14:52:39.802Z</time>
      </trkpt>
      <trkpt lat="43.12934" lon="3.0851">
        <ele>107</ele>
        <time>2025-12-29T14:52:40.802Z</time>
      </trkpt>
      <trkpt lat="43.12934" lon="3.08511">
        <ele>107</ele>
        <time>2025-12-29T14:52:41.802Z</time>
      </trkpt>
      <trkpt lat="43.12933" lon="3.08513">
        <ele>107</ele>
        <time>2025-12-29T14:52:42.802Z</time>
      </trkpt>
      <trkpt lat="43.12933" lon="3.08514">
        <ele>107</ele>
        <time>2025-12-29T14:52:43.802Z</time>
      </trkpt>
      <trkpt lat="43.12932" lon="3.08515">
        <ele>107</ele>
        <time>2025-12-29T14:52:44.802Z</time>
      </trkpt>
      <trkpt lat="43.12932" lon="3.08517">
        <ele>107</ele>
        <time>2025-12-29T14:52:45.802Z</time>
      </trkpt>
      <trkpt lat="43.12931" lon="3.08517">
        <ele>107</ele>
        <time>2025-12-29T14:52:46.802Z</time>
      </trkpt>
      <trkpt lat="43.1293" lon="3.08518">
        <ele>107</ele>
        <time>2025-12-29T14:52:47.802Z</time>
      </trkpt>
      <trkpt lat="43.12929" lon="3.08519">
        <ele>107</ele>
        <time>2025-12-29T14:52:48.802Z</time>
      </trkpt>
      <trkpt lat="43.12928" lon="3.0852">
        <ele>107</ele>
        <time>2025-12-29T14:52:49.802Z</time>
      </trkpt>
      <trkpt lat="43.12928" lon="3.0852">
        <ele>107</ele>
        <time>2025-12-29T14:52:50.802Z</time>
      </trkpt>
      <trkpt lat="43.12926" lon="3.0852">
        <ele>107</ele>
        <time>2025-12-29T14:52:51.802Z</time>
      </trkpt>
      <trkpt lat="43.12926" lon="3.0852">
        <ele>107</ele>
        <time>2025-12-29T14:52:52.802Z</time>
      </trkpt>
      <trkpt lat="43.12925" lon="3.0852">
        <ele>107</ele>
        <time>2025-12-29T14:52:53.802Z</time>
      </trkpt>
      <trkpt lat="43.12924" lon="3.08521">
        <ele>107</ele>
        <time>2025-12-29T14:52:54.802Z</time>
      </trkpt>
      <trkpt lat="43.12923" lon="3.08521">
        <ele>107</ele>
        <time>2025-12-29T14:52:55.802Z</time>
      </trkpt>
      <trkpt lat="43.12922" lon="3.08521">
        <ele>108</ele>
        <time>2025-12-29T14:52:56.802Z</time>
      </trkpt>
      <trkpt lat="43.12921" lon="3.08521">
        <ele>108</ele>
        <time>2025-12-29T14:52:57.802Z</time>
      </trkpt>
      <trkpt lat="43.1292" lon="3.08521">
        <ele>109</ele>
        <time>2025-12-29T14:52:58.802Z</time>
      </trkpt>
      <trkpt lat="43.1292" lon="3.08521">
        <ele>109</ele>
        <time>2025-12-29T14:52:59.802Z</time>
      </trkpt>
      <trkpt lat="43.12919" lon="3.08521">
        <ele>109</ele>
        <time>2025-12-29T14:53:00.802Z</time>
      </trkpt>
      <trkpt lat="43.12919" lon="3.08521">
        <ele>109</ele>
        <time>2025-12-29T14:53:01.802Z</time>
      </trkpt>
      <trkpt lat="43.12918" lon="3.08521">
        <ele>109</ele>
        <time>2025-12-29T14:53:02.802Z</time>
      </trkpt>
      <trkpt lat="43.12918" lon="3.08521">
        <ele>108</ele>
        <time>2025-12-29T14:53:03.802Z</time>
      </trkpt>
      <trkpt lat="43.12917" lon="3.08521">
        <ele>108</ele>
        <time>2025-12-29T14:53:04.802Z</time>
      </trkpt>
      <trkpt lat="43.12916" lon="3.08521">
        <ele>108</ele>
        <time>2025-12-29T14:53:05.802Z</time>
      </trkpt>
      <trkpt lat="43.12916" lon="3.0852">
        <ele>108</ele>
        <time>2025-12-29T14:53:06.802Z</time>
      </trkpt>
      <trkpt lat="43.12915" lon="3.0852">
        <ele>108</ele>
        <time>2025-12-29T14:53:07.802Z</time>
      </trkpt>
      <trkpt lat="43.12913" lon="3.08519">
        <ele>108</ele>
        <time>2025-12-29T14:53:08.802Z</time>
      </trkpt>
      <trkpt lat="43.12913" lon="3.08519">
        <ele>108</ele>
        <time>2025-12-29T14:53:09.802Z</time>
      </trkpt>
      <trkpt lat="43.12912" lon="3.08519">
        <ele>108</ele>
        <time>2025-12-29T14:53:10.802Z</time>
      </trkpt>
      <trkpt lat="43.1291" lon="3.08518">
        <ele>109</ele>
        <time>2025-12-29T14:53:11.802Z</time>
      </trkpt>
      <trkpt lat="43.12909" lon="3.08518">
        <ele>109</ele>
        <time>2025-12-29T14:53:12.802Z</time>
      </trkpt>
      <trkpt lat="43.12908" lon="3.08519">
        <ele>109</ele>
        <time>2025-12-29T14:53:13.802Z</time>
      </trkpt>
      <trkpt lat="43.12906" lon="3.08519">
        <ele>109</ele>
        <time>2025-12-29T14:53:14.802Z</time>
      </trkpt>
      <trkpt lat="43.12905" lon="3.08519">
        <ele>109</ele>
        <time>2025-12-29T14:53:15.802Z</time>
      </trkpt>
      <trkpt lat="43.12904" lon="3.08519">
        <ele>110</ele>
        <time>2025-12-29T14:53:16.802Z</time>
      </trkpt>
      <trkpt lat="43.12903" lon="3.0852">
        <ele>110</ele>
        <time>2025-12-29T14:53:17.802Z</time>
      </trkpt>
      <trkpt lat="43.12902" lon="3.0852">
        <ele>110</ele>
        <time>2025-12-29T14:53:18.802Z</time>
      </trkpt>
      <trkpt lat="43.12901" lon="3.0852">
        <ele>110</ele>
        <time>2025-12-29T14:53:19.802Z</time>
      </trkpt>
      <trkpt lat="43.129" lon="3.08519">
        <ele>110</ele>
        <time>2025-12-29T14:53:20.802Z</time>
      </trkpt>
      <trkpt lat="43.12898" lon="3.08519">
        <ele>111</ele>
        <time>2025-12-29T14:53:21.802Z</time>
      </trkpt>
      <trkpt lat="43.12897" lon="3.0852">
        <ele>111</ele>
        <time>2025-12-29T14:53:22.802Z</time>
      </trkpt>
      <trkpt lat="43.12896" lon="3.0852">
        <ele>111</ele>
        <time>2025-12-29T14:53:23.802Z</time>
      </trkpt>
      <trkpt lat="43.12895" lon="3.08519">
        <ele>112</ele>
        <time>2025-12-29T14:53:24.802Z</time>
      </trkpt>
      <trkpt lat="43.12893" lon="3.08519">
        <ele>112</ele>
        <time>2025-12-29T14:53:25.802Z</time>
      </trkpt>
      <trkpt lat="43.12892" lon="3.08518">
        <ele>112</ele>
        <time>2025-12-29T14:53:26.802Z</time>
      </trkpt>
      <trkpt lat="43.12891" lon="3.08518">
        <ele>112</ele>
        <time>2025-12-29T14:53:27.802Z</time>
      </trkpt>
      <trkpt lat="43.1289" lon="3.08517">
        <ele>112</ele>
        <time>2025-12-29T14:53:28.802Z</time>
      </trkpt>
      <trkpt lat="43.12889" lon="3.08517">
        <ele>113</ele>
        <time>2025-12-29T14:53:29.802Z</time>
      </trkpt>
      <trkpt lat="43.12887" lon="3.08518">
        <ele>113</ele>
        <time>2025-12-29T14:53:30.802Z</time>
      </trkpt>
      <trkpt lat="43.12886" lon="3.08519">
        <ele>113</ele>
        <time>2025-12-29T14:53:31.802Z</time>
      </trkpt>
      <trkpt lat="43.12885" lon="3.0852">
        <ele>113</ele>
        <time>2025-12-29T14:53:32.802Z</time>
      </trkpt>
      <trkpt lat="43.12883" lon="3.0852">
        <ele>113</ele>
        <time>2025-12-29T14:53:33.802Z</time>
      </trkpt>
      <trkpt lat="43.12882" lon="3.0852">
        <ele>113</ele>
        <time>2025-12-29T14:53:34.802Z</time>
      </trkpt>
      <trkpt lat="43.12881" lon="3.0852">
        <ele>114</ele>
        <time>2025-12-29T14:53:35.802Z</time>
      </trkpt>
      <trkpt lat="43.12879" lon="3.0852">
        <ele>114</ele>
        <time>2025-12-29T14:53:36.802Z</time>
      </trkpt>
      <trkpt lat="43.12878" lon="3.0852">
        <ele>115</ele>
        <time>2025-12-29T14:53:37.802Z</time>
      </trkpt>
      <trkpt lat="43.12877" lon="3.0852">
        <ele>115</ele>
        <time>2025-12-29T14:53:38.802Z</time>
      </trkpt>
      <trkpt lat="43.12875" lon="3.0852">
        <ele>115</ele>
        <time>2025-12-29T14:53:39.802Z</time>
      </trkpt>
      <trkpt lat="43.12874" lon="3.0852">
        <ele>115</ele>
        <time>2025-12-29T14:53:40.802Z</time>
      </trkpt>
      <trkpt lat="43.12873" lon="3.0852">
        <ele>115</ele>
        <time>2025-12-29T14:53:41.802Z</time>
      </trkpt>
      <trkpt lat="43.12871" lon="3.0852">
        <ele>115</ele>
        <time>2025-12-29T14:53:42.802Z</time>
      </trkpt>
      <trkpt lat="43.1287" lon="3.0852">
        <ele>115</ele>
        <time>2025-12-29T14:53:43.802Z</time>
      </trkpt>
      <trkpt lat="43.12869" lon="3.0852">
        <ele>115</ele>
        <time>2025-12-29T14:53:44.802Z</time>
      </trkpt>
      <trkpt lat="43.12867" lon="3.0852">
        <ele>116</ele>
        <time>2025-12-29T14:53:45.802Z</time>
      </trkpt>
      <trkpt lat="43.12866" lon="3.0852">
        <ele>116</ele>
        <time>2025-12-29T14:53:46.802Z</time>
      </trkpt>
      <trkpt lat="43.12865" lon="3.08521">
        <ele>116</ele>
        <time>2025-12-29T14:53:47.802Z</time>
      </trkpt>
      <trkpt lat="43.12864" lon="3.08521">
        <ele>117</ele>
        <time>2025-12-29T14:53:48.802Z</time>
      </trkpt>
      <trkpt lat="43.12863" lon="3.08522">
        <ele>117</ele>
        <time>2025-12-29T14:53:49.802Z</time>
      </trkpt>
      <trkpt lat="43.12862" lon="3.08523">
        <ele>117</ele>
        <time>2025-12-29T14:53:50.802Z</time>
      </trkpt>
      <trkpt lat="43.12861" lon="3.08524">
        <ele>117</ele>
        <time>2025-12-29T14:53:51.802Z</time>
      </trkpt>
      <trkpt lat="43.1286" lon="3.08525">
        <ele>117</ele>
        <time>2025-12-29T14:53:52.802Z</time>
      </trkpt>
      <trkpt lat="43.12859" lon="3.08526">
        <ele>117</ele>
        <time>2025-12-29T14:53:53.802Z</time>
      </trkpt>
      <trkpt lat="43.12858" lon="3.08527">
        <ele>117</ele>
        <time>2025-12-29T14:53:54.802Z</time>
      </trkpt>
      <trkpt lat="43.12857" lon="3.08527">
        <ele>117</ele>
        <time>2025-12-29T14:53:55.802Z</time>
      </trkpt>
      <trkpt lat="43.12855" lon="3.08527">
        <ele>117</ele>
        <time>2025-12-29T14:53:56.802Z</time>
      </trkpt>
      <trkpt lat="43.12854" lon="3.08527">
        <ele>117</ele>
        <time>2025-12-29T14:53:57.802Z</time>
      </trkpt>
      <trkpt lat="43.12852" lon="3.08527">
        <ele>117</ele>
        <time>2025-12-29T14:53:58.802Z</time>
      </trkpt>
      <trkpt lat="43.12851" lon="3.08527">
        <ele>117</ele>
        <time>2025-12-29T14:53:59.802Z</time>
      </trkpt>
      <trkpt lat="43.12848" lon="3.08527">
        <ele>117</ele>
        <time>2025-12-29T14:54:00.802Z</time>
      </trkpt>
      <trkpt lat="43.12845" lon="3.08528">
        <ele>117</ele>
        <time>2025-12-29T14:54:01.802Z</time>
      </trkpt>
      <trkpt lat="43.12844" lon="3.08529">
        <ele>117</ele>
        <time>2025-12-29T14:54:02.802Z</time>
      </trkpt>
      <trkpt lat="43.12842" lon="3.08531">
        <ele>117</ele>
        <time>2025-12-29T14:54:03.802Z</time>
      </trkpt>
      <trkpt lat="43.12841" lon="3.08532">
        <ele>117</ele>
        <time>2025-12-29T14:54:04.802Z</time>
      </trkpt>
      <trkpt lat="43.1284" lon="3.08533">
        <ele>117</ele>
        <time>2025-12-29T14:54:05.802Z</time>
      </trkpt>
      <trkpt lat="43.1284" lon="3.08533">
        <ele>117</ele>
        <time>2025-12-29T14:54:06.802Z</time>
      </trkpt>
      <trkpt lat="43.1284" lon="3.08533">
        <ele>117</ele>
        <time>2025-12-29T14:54:07.802Z</time>
      </trkpt>
      <trkpt lat="43.1284" lon="3.08532">
        <ele>117</ele>
        <time>2025-12-29T14:54:08.802Z</time>
      </trkpt>
      <trkpt lat="43.12839" lon="3.08532">
        <ele>118</ele>
        <time>2025-12-29T14:54:09.802Z</time>
      </trkpt>
      <trkpt lat="43.12839" lon="3.08532">
        <ele>118</ele>
        <time>2025-12-29T14:54:10.802Z</time>
      </trkpt>
      <trkpt lat="43.12839" lon="3.08532">
        <ele>118</ele>
        <time>2025-12-29T14:54:11.802Z</time>
      </trkpt>
      <trkpt lat="43.12838" lon="3.08532">
        <ele>119</ele>
        <time>2025-12-29T14:54:12.802Z</time>
      </trkpt>
      <trkpt lat="43.12838" lon="3.08532">
        <ele>119</ele>
        <time>2025-12-29T14:54:13.802Z</time>
      </trkpt>
      <trkpt lat="43.12837" lon="3.08531">
        <ele>119</ele>
        <time>2025-12-29T14:54:14.802Z</time>
      </trkpt>
      <trkpt lat="43.12836" lon="3.08531">
        <ele>120</ele>
        <time>2025-12-29T14:54:15.802Z</time>
      </trkpt>
      <trkpt lat="43.12835" lon="3.08531">
        <ele>120</ele>
        <time>2025-12-29T14:54:16.802Z</time>
      </trkpt>
      <trkpt lat="43.12833" lon="3.08531">
        <ele>120</ele>
        <time>2025-12-29T14:54:17.802Z</time>
      </trkpt>
      <trkpt lat="43.12832" lon="3.08532">
        <ele>120</ele>
        <time>2025-12-29T14:54:18.802Z</time>
      </trkpt>
      <trkpt lat="43.12831" lon="3.08532">
        <ele>120</ele>
        <time>2025-12-29T14:54:19.802Z</time>
      </trkpt>
      <trkpt lat="43.1283" lon="3.08533">
        <ele>120</ele>
        <time>2025-12-29T14:54:20.802Z</time>
      </trkpt>
      <trkpt lat="43.12828" lon="3.08534">
        <ele>120</ele>
        <time>2025-12-29T14:54:21.802Z</time>
      </trkpt>
      <trkpt lat="43.12826" lon="3.08535">
        <ele>120</ele>
        <time>2025-12-29T14:54:22.802Z</time>
      </trkpt>
      <trkpt lat="43.12825" lon="3.08536">
        <ele>121</ele>
        <time>2025-12-29T14:54:23.802Z</time>
      </trkpt>
      <trkpt lat="43.12824" lon="3.08537">
        <ele>121</ele>
        <time>2025-12-29T14:54:24.802Z</time>
      </trkpt>
      <trkpt lat="43.12822" lon="3.08538">
        <ele>121</ele>
        <time>2025-12-29T14:54:25.802Z</time>
      </trkpt>
      <trkpt lat="43.12821" lon="3.08539">
        <ele>121</ele>
        <time>2025-12-29T14:54:26.802Z</time>
      </trkpt>
      <trkpt lat="43.1282" lon="3.0854">
        <ele>121</ele>
        <time>2025-12-29T14:54:27.802Z</time>
      </trkpt>
      <trkpt lat="43.12819" lon="3.0854">
        <ele>121</ele>
        <time>2025-12-29T14:54:28.802Z</time>
      </trkpt>
      <trkpt lat="43.12818" lon="3.08539">
        <ele>120</ele>
        <time>2025-12-29T14:54:29.802Z</time>
      </trkpt>
      <trkpt lat="43.12816" lon="3.08539">
        <ele>120</ele>
        <time>2025-12-29T14:54:30.802Z</time>
      </trkpt>
      <trkpt lat="43.12815" lon="3.08539">
        <ele>120</ele>
        <time>2025-12-29T14:54:31.802Z</time>
      </trkpt>
      <trkpt lat="43.12814" lon="3.08539">
        <ele>121</ele>
        <time>2025-12-29T14:54:32.802Z</time>
      </trkpt>
      <trkpt lat="43.12812" lon="3.08539">
        <ele>121</ele>
        <time>2025-12-29T14:54:33.802Z</time>
      </trkpt>
      <trkpt lat="43.12811" lon="3.08539">
        <ele>121</ele>
        <time>2025-12-29T14:54:34.802Z</time>
      </trkpt>
      <trkpt lat="43.12809" lon="3.08538">
        <ele>121</ele>
        <time>2025-12-29T14:54:35.802Z</time>
      </trkpt>
      <trkpt lat="43.12808" lon="3.08538">
        <ele>121</ele>
        <time>2025-12-29T14:54:36.802Z</time>
      </trkpt>
      <trkpt lat="43.12807" lon="3.08538">
        <ele>121</ele>
        <time>2025-12-29T14:54:37.802Z</time>
      </trkpt>
      <trkpt lat="43.12805" lon="3.08538">
        <ele>121</ele>
        <time>2025-12-29T14:54:38.802Z</time>
      </trkpt>
      <trkpt lat="43.12804" lon="3.08537">
        <ele>121</ele>
        <time>2025-12-29T14:54:39.802Z</time>
      </trkpt>
      <trkpt lat="43.12803" lon="3.08537">
        <ele>121</ele>
        <time>2025-12-29T14:54:40.802Z</time>
      </trkpt>
      <trkpt lat="43.12801" lon="3.08537">
        <ele>121</ele>
        <time>2025-12-29T14:54:41.802Z</time>
      </trkpt>
      <trkpt lat="43.128" lon="3.08537">
        <ele>121</ele>
        <time>2025-12-29T14:54:42.802Z</time>
      </trkpt>
      <trkpt lat="43.12798" lon="3.08536">
        <ele>121</ele>
        <time>2025-12-29T14:54:43.802Z</time>
      </trkpt>
      <trkpt lat="43.12797" lon="3.08536">
        <ele>121</ele>
        <time>2025-12-29T14:54:44.802Z</time>
      </trkpt>
      <trkpt lat="43.12796" lon="3.08536">
        <ele>121</ele>
        <time>2025-12-29T14:54:45.802Z</time>
      </trkpt>
      <trkpt lat="43.12794" lon="3.08535">
        <ele>121</ele>
        <time>2025-12-29T14:54:46.802Z</time>
      </trkpt>
      <trkpt lat="43.12793" lon="3.08535">
        <ele>121</ele>
        <time>2025-12-29T14:54:47.802Z</time>
      </trkpt>
      <trkpt lat="43.12791" lon="3.08535">
        <ele>121</ele>
        <time>2025-12-29T14:54:48.802Z</time>
      </trkpt>
      <trkpt lat="43.12791" lon="3.08535">
        <ele>121</ele>
        <time>2025-12-29T14:54:49.802Z</time>
      </trkpt>
      <trkpt lat="43.1279" lon="3.08534">
        <ele>120</ele>
        <time>2025-12-29T14:54:50.802Z</time>
      </trkpt>
      <trkpt lat="43.12789" lon="3.08534">
        <ele>120</ele>
        <time>2025-12-29T14:54:51.802Z</time>
      </trkpt>
      <trkpt lat="43.12788" lon="3.08534">
        <ele>120</ele>
        <time>2025-12-29T14:54:52.802Z</time>
      </trkpt>
      <trkpt lat="43.12787" lon="3.08533">
        <ele>120</ele>
        <time>2025-12-29T14:54:53.802Z</time>
      </trkpt>
      <trkpt lat="43.12786" lon="3.08533">
        <ele>120</ele>
        <time>2025-12-29T14:54:54.802Z</time>
      </trkpt>
      <trkpt lat="43.12785" lon="3.08532">
        <ele>120</ele>
        <time>2025-12-29T14:54:55.802Z</time>
      </trkpt>
      <trkpt lat="43.12784" lon="3.08532">
        <ele>120</ele>
        <time>2025-12-29T14:54:56.802Z</time>
      </trkpt>
      <trkpt lat="43.12783" lon="3.08531">
        <ele>120</ele>
        <time>2025-12-29T14:54:57.802Z</time>
      </trkpt>
      <trkpt lat="43.12782" lon="3.08531">
        <ele>120</ele>
        <time>2025-12-29T14:54:58.802Z</time>
      </trkpt>
      <trkpt lat="43.1278" lon="3.0853">
        <ele>120</ele>
        <time>2025-12-29T14:54:59.802Z</time>
      </trkpt>
      <trkpt lat="43.12779" lon="3.08529">
        <ele>120</ele>
        <time>2025-12-29T14:55:00.802Z</time>
      </trkpt>
      <trkpt lat="43.12777" lon="3.08528">
        <ele>120</ele>
        <time>2025-12-29T14:55:01.802Z</time>
      </trkpt>
      <trkpt lat="43.12776" lon="3.08527">
        <ele>120</ele>
        <time>2025-12-29T14:55:02.802Z</time>
      </trkpt>
      <trkpt lat="43.12775" lon="3.08526">
        <ele>120</ele>
        <time>2025-12-29T14:55:03.802Z</time>
      </trkpt>
      <trkpt lat="43.12774" lon="3.08525">
        <ele>120</ele>
        <time>2025-12-29T14:55:04.802Z</time>
      </trkpt>
      <trkpt lat="43.12772" lon="3.08524">
        <ele>121</ele>
        <time>2025-12-29T14:55:05.802Z</time>
      </trkpt>
      <trkpt lat="43.12772" lon="3.08524">
        <ele>121</ele>
        <time>2025-12-29T14:55:06.802Z</time>
      </trkpt>
      <trkpt lat="43.1277" lon="3.08524">
        <ele>122</ele>
        <time>2025-12-29T14:55:07.802Z</time>
      </trkpt>
      <trkpt lat="43.12769" lon="3.08524">
        <ele>122</ele>
        <time>2025-12-29T14:55:08.802Z</time>
      </trkpt>
      <trkpt lat="43.12768" lon="3.08524">
        <ele>122</ele>
        <time>2025-12-29T14:55:09.802Z</time>
      </trkpt>
      <trkpt lat="43.12767" lon="3.08524">
        <ele>122</ele>
        <time>2025-12-29T14:55:10.802Z</time>
      </trkpt>
      <trkpt lat="43.12765" lon="3.08523">
        <ele>122</ele>
        <time>2025-12-29T14:55:11.802Z</time>
      </trkpt>
      <trkpt lat="43.12765" lon="3.08523">
        <ele>122</ele>
        <time>2025-12-29T14:55:12.802Z</time>
      </trkpt>
      <trkpt lat="43.12763" lon="3.08523">
        <ele>122</ele>
        <time>2025-12-29T14:55:13.802Z</time>
      </trkpt>
      <trkpt lat="43.12762" lon="3.08522">
        <ele>122</ele>
        <time>2025-12-29T14:55:14.802Z</time>
      </trkpt>
      <trkpt lat="43.12761" lon="3.08522">
        <ele>122</ele>
        <time>2025-12-29T14:55:15.802Z</time>
      </trkpt>
      <trkpt lat="43.12759" lon="3.08521">
        <ele>122</ele>
        <time>2025-12-29T14:55:16.802Z</time>
      </trkpt>
      <trkpt lat="43.12758" lon="3.0852">
        <ele>122</ele>
        <time>2025-12-29T14:55:17.802Z</time>
      </trkpt>
      <trkpt lat="43.12756" lon="3.08519">
        <ele>123</ele>
        <time>2025-12-29T14:55:18.802Z</time>
      </trkpt>
      <trkpt lat="43.12755" lon="3.08518">
        <ele>123</ele>
        <time>2025-12-29T14:55:19.802Z</time>
      </trkpt>
      <trkpt lat="43.12754" lon="3.08517">
        <ele>123</ele>
        <time>2025-12-29T14:55:20.802Z</time>
      </trkpt>
      <trkpt lat="43.12753" lon="3.08517">
        <ele>123</ele>
        <time>2025-12-29T14:55:21.802Z</time>
      </trkpt>
      <trkpt lat="43.12751" lon="3.08517">
        <ele>123</ele>
        <time>2025-12-29T14:55:22.802Z</time>
      </trkpt>
      <trkpt lat="43.12751" lon="3.08517">
        <ele>123</ele>
        <time>2025-12-29T14:55:23.802Z</time>
      </trkpt>
      <trkpt lat="43.1275" lon="3.08517">
        <ele>122</ele>
        <time>2025-12-29T14:55:24.802Z</time>
      </trkpt>
      <trkpt lat="43.12748" lon="3.08517">
        <ele>122</ele>
        <time>2025-12-29T14:55:25.802Z</time>
      </trkpt>
      <trkpt lat="43.12747" lon="3.08517">
        <ele>122</ele>
        <time>2025-12-29T14:55:26.802Z</time>
      </trkpt>
      <trkpt lat="43.12746" lon="3.08516">
        <ele>122</ele>
        <time>2025-12-29T14:55:27.802Z</time>
      </trkpt>
      <trkpt lat="43.12745" lon="3.08516">
        <ele>122</ele>
        <time>2025-12-29T14:55:28.802Z</time>
      </trkpt>
      <trkpt lat="43.12744" lon="3.08515">
        <ele>121</ele>
        <time>2025-12-29T14:55:29.802Z</time>
      </trkpt>
      <trkpt lat="43.12743" lon="3.08515">
        <ele>121</ele>
        <time>2025-12-29T14:55:30.802Z</time>
      </trkpt>
      <trkpt lat="43.12743" lon="3.08515">
        <ele>121</ele>
        <time>2025-12-29T14:55:31.802Z</time>
      </trkpt>
      <trkpt lat="43.12743" lon="3.08515">
        <ele>121</ele>
        <time>2025-12-29T14:55:32.802Z</time>
      </trkpt>
      <trkpt lat="43.12743" lon="3.08515">
        <ele>121</ele>
        <time>2025-12-29T14:55:33.802Z</time>
      </trkpt>
      <trkpt lat="43.12742" lon="3.08515">
        <ele>121</ele>
        <time>2025-12-29T14:55:34.802Z</time>
      </trkpt>
      <trkpt lat="43.12742" lon="3.08514">
        <ele>121</ele>
        <time>2025-12-29T14:55:35.802Z</time>
      </trkpt>
      <trkpt lat="43.12741" lon="3.08514">
        <ele>121</ele>
        <time>2025-12-29T14:55:36.802Z</time>
      </trkpt>
      <trkpt lat="43.12741" lon="3.08513">
        <ele>121</ele>
        <time>2025-12-29T14:55:37.802Z</time>
      </trkpt>
      <trkpt lat="43.1274" lon="3.08513">
        <ele>121</ele>
        <time>2025-12-29T14:55:38.802Z</time>
      </trkpt>
      <trkpt lat="43.12739" lon="3.08513">
        <ele>121</ele>
        <time>2025-12-29T14:55:39.802Z</time>
      </trkpt>
      <trkpt lat="43.12739" lon="3.08512">
        <ele>121</ele>
        <time>2025-12-29T14:55:40.802Z</time>
      </trkpt>
      <trkpt lat="43.12738" lon="3.08512">
        <ele>121</ele>
        <time>2025-12-29T14:55:41.802Z</time>
      </trkpt>
      <trkpt lat="43.12738" lon="3.08511">
        <ele>121</ele>
        <time>2025-12-29T14:55:42.802Z</time>
      </trkpt>
      <trkpt lat="43.12737" lon="3.0851">
        <ele>122</ele>
        <time>2025-12-29T14:55:43.802Z</time>
      </trkpt>
      <trkpt lat="43.12736" lon="3.08509">
        <ele>122</ele>
        <time>2025-12-29T14:55:44.802Z</time>
      </trkpt>
      <trkpt lat="43.12735" lon="3.08509">
        <ele>122</ele>
        <time>2025-12-29T14:55:45.802Z</time>
      </trkpt>
      <trkpt lat="43.12734" lon="3.08509">
        <ele>122</ele>
        <time>2025-12-29T14:55:46.802Z</time>
      </trkpt>
      <trkpt lat="43.12734" lon="3.08508">
        <ele>122</ele>
        <time>2025-12-29T14:55:47.802Z</time>
      </trkpt>
      <trkpt lat="43.12734" lon="3.08508">
        <ele>122</ele>
        <time>2025-12-29T14:55:48.802Z</time>
      </trkpt>
      <trkpt lat="43.12734" lon="3.08508">
        <ele>122</ele>
        <time>2025-12-29T14:55:49.802Z</time>
      </trkpt>
      <trkpt lat="43.12734" lon="3.08508">
        <ele>121</ele>
        <time>2025-12-29T14:55:50.802Z</time>
      </trkpt>
      <trkpt lat="43.12734" lon="3.08509">
        <ele>121</ele>
        <time>2025-12-29T14:55:51.802Z</time>
      </trkpt>
      <trkpt lat="43.12733" lon="3.08509">
        <ele>121</ele>
        <time>2025-12-29T14:55:52.802Z</time>
      </trkpt>
      <trkpt lat="43.12733" lon="3.08509">
        <ele>121</ele>
        <time>2025-12-29T14:55:53.802Z</time>
      </trkpt>
      <trkpt lat="43.12732" lon="3.08509">
        <ele>121</ele>
        <time>2025-12-29T14:55:54.802Z</time>
      </trkpt>
      <trkpt lat="43.12732" lon="3.08509">
        <ele>121</ele>
        <time>2025-12-29T14:55:55.802Z</time>
      </trkpt>
      <trkpt lat="43.12732" lon="3.08509">
        <ele>121</ele>
        <time>2025-12-29T14:55:56.802Z</time>
      </trkpt>
      <trkpt lat="43.12732" lon="3.08509">
        <ele>120</ele>
        <time>2025-12-29T14:55:57.802Z</time>
      </trkpt>
      <trkpt lat="43.12732" lon="3.08509">
        <ele>120</ele>
        <time>2025-12-29T14:55:58.802Z</time>
      </trkpt>
      <trkpt lat="43.12732" lon="3.08509">
        <ele>120</ele>
        <time>2025-12-29T14:55:59.802Z</time>
      </trkpt>
      <trkpt lat="43.12732" lon="3.0851">
        <ele>119</ele>
        <time>2025-12-29T14:56:00.802Z</time>
      </trkpt>
      <trkpt lat="43.12731" lon="3.0851">
        <ele>119</ele>
        <time>2025-12-29T14:56:01.802Z</time>
      </trkpt>
      <trkpt lat="43.12731" lon="3.08511">
        <ele>119</ele>
        <time>2025-12-29T14:56:02.802Z</time>
      </trkpt>
      <trkpt lat="43.12731" lon="3.08511">
        <ele>119</ele>
        <time>2025-12-29T14:56:03.802Z</time>
      </trkpt>
      <trkpt lat="43.12731" lon="3.08511">
        <ele>120</ele>
        <time>2025-12-29T14:56:04.802Z</time>
      </trkpt>
      <trkpt lat="43.12731" lon="3.08511">
        <ele>120</ele>
        <time>2025-12-29T14:56:05.802Z</time>
      </trkpt>
      <trkpt lat="43.12731" lon="3.08511">
        <ele>120</ele>
        <time>2025-12-29T14:56:06.802Z</time>
      </trkpt>
      <trkpt lat="43.12731" lon="3.08511">
        <ele>120</ele>
        <time>2025-12-29T14:56:07.802Z</time>
      </trkpt>
      <trkpt lat="43.12731" lon="3.08511">
        <ele>120</ele>
        <time>2025-12-29T14:56:08.802Z</time>
      </trkpt>
      <trkpt lat="43.12731" lon="3.08511">
        <ele>120</ele>
        <time>2025-12-29T14:56:09.802Z</time>
      </trkpt>
      <trkpt lat="43.12731" lon="3.08511">
        <ele>120</ele>
        <time>2025-12-29T14:56:10.802Z</time>
      </trkpt>
      <trkpt lat="43.12731" lon="3.08511">
        <ele>120</ele>
        <time>2025-12-29T14:56:11.802Z</time>
      </trkpt>
      <trkpt lat="43.12731" lon="3.08511">
        <ele>120</ele>
        <time>2025-12-29T14:56:12.802Z</time>
      </trkpt>
      <trkpt lat="43.12731" lon="3.08511">
        <ele>119</ele>
        <time>2025-12-29T14:56:13.802Z</time>
      </trkpt>
      <trkpt lat="43.12731" lon="3.08511">
        <ele>119</ele>
        <time>2025-12-29T14:56:14.802Z</time>
      </trkpt>
      <trkpt lat="43.12731" lon="3.08511">
        <ele>119</ele>
        <time>2025-12-29T14:56:15.802Z</time>
      </trkpt>
      <trkpt lat="43.12731" lon="3.08511">
        <ele>119</ele>
        <time>2025-12-29T14:56:16.802Z</time>
      </trkpt>
      <trkpt lat="43.12731" lon="3.08511">
        <ele>118</ele>
        <time>2025-12-29T14:56:17.802Z</time>
      </trkpt>
      <trkpt lat="43.12731" lon="3.08511">
        <ele>118</ele>
        <time>2025-12-29T14:56:18.802Z</time>
      </trkpt>
      <trkpt lat="43.12731" lon="3.08511">
        <ele>118</ele>
        <time>2025-12-29T14:56:19.802Z</time>
      </trkpt>
      <trkpt lat="43.12731" lon="3.0851">
        <ele>118</ele>
        <time>2025-12-29T14:56:20.802Z</time>
      </trkpt>
      <trkpt lat="43.12731" lon="3.0851">
        <ele>118</ele>
        <time>2025-12-29T14:56:21.802Z</time>
      </trkpt>
      <trkpt lat="43.12731" lon="3.0851">
        <ele>118</ele>
        <time>2025-12-29T14:56:22.802Z</time>
      </trkpt>
      <trkpt lat="43.12731" lon="3.0851">
        <ele>117</ele>
        <time>2025-12-29T14:56:23.802Z</time>
      </trkpt>
      <trkpt lat="43.12731" lon="3.0851">
        <ele>117</ele>
        <time>2025-12-29T14:56:24.802Z</time>
      </trkpt>
      <trkpt lat="43.12732" lon="3.0851">
        <ele>116</ele>
        <time>2025-12-29T14:56:25.802Z</time>
      </trkpt>
      <trkpt lat="43.12732" lon="3.0851">
        <ele>116</ele>
        <time>2025-12-29T14:56:26.802Z</time>
      </trkpt>
      <trkpt lat="43.12732" lon="3.0851">
        <ele>115</ele>
        <time>2025-12-29T14:56:27.802Z</time>
      </trkpt>
      <trkpt lat="43.12732" lon="3.0851">
        <ele>115</ele>
        <time>2025-12-29T14:56:28.802Z</time>
      </trkpt>
      <trkpt lat="43.12732" lon="3.0851">
        <ele>115</ele>
        <time>2025-12-29T14:56:29.802Z</time>
      </trkpt>
      <trkpt lat="43.12732" lon="3.0851">
        <ele>114</ele>
        <time>2025-12-29T14:56:30.802Z</time>
      </trkpt>
      <trkpt lat="43.12732" lon="3.0851">
        <ele>114</ele>
        <time>2025-12-29T14:56:31.802Z</time>
      </trkpt>
      <trkpt lat="43.12732" lon="3.0851">
        <ele>114</ele>
        <time>2025-12-29T14:56:32.802Z</time>
      </trkpt>
      <trkpt lat="43.12732" lon="3.0851">
        <ele>114</ele>
        <time>2025-12-29T14:56:33.802Z</time>
      </trkpt>
      <trkpt lat="43.12732" lon="3.0851">
        <ele>115</ele>
        <time>2025-12-29T14:56:37.802Z</time>
      </trkpt>
      <trkpt lat="43.12732" lon="3.08509">
        <ele>115</ele>
        <time>2025-12-29T14:56:38.802Z</time>
      </trkpt>
      <trkpt lat="43.12732" lon="3.08509">
        <ele>115</ele>
        <time>2025-12-29T14:56:39.802Z</time>
      </trkpt>
      <trkpt lat="43.12732" lon="3.08509">
        <ele>116</ele>
        <time>2025-12-29T14:56:40.802Z</time>
      </trkpt>
      <trkpt lat="43.12732" lon="3.08509">
        <ele>116</ele>
        <time>2025-12-29T14:56:41.802Z</time>
      </trkpt>
      <trkpt lat="43.12732" lon="3.08509">
        <ele>116</ele>
        <time>2025-12-29T14:56:42.802Z</time>
      </trkpt>
      <trkpt lat="43.12732" lon="3.08509">
        <ele>116</ele>
        <time>2025-12-29T14:56:43.802Z</time>
      </trkpt>
      <trkpt lat="43.12732" lon="3.08509">
        <ele>117</ele>
        <time>2025-12-29T14:56:44.802Z</time>
      </trkpt>
      <trkpt lat="43.12732" lon="3.08509">
        <ele>117</ele>
        <time>2025-12-29T14:56:45.802Z</time>
      </trkpt>
      <trkpt lat="43.12732" lon="3.08508">
        <ele>117</ele>
        <time>2025-12-29T14:56:46.802Z</time>
      </trkpt>
      <trkpt lat="43.12732" lon="3.08508">
        <ele>117</ele>
        <time>2025-12-29T14:56:47.802Z</time>
      </trkpt>
      <trkpt lat="43.12732" lon="3.08508">
        <ele>117</ele>
        <time>2025-12-29T14:56:48.802Z</time>
      </trkpt>
      <trkpt lat="43.12732" lon="3.08508">
        <ele>117</ele>
        <time>2025-12-29T14:56:49.802Z</time>
      </trkpt>
      <trkpt lat="43.12732" lon="3.08508">
        <ele>117</ele>
        <time>2025-12-29T14:56:50.802Z</time>
      </trkpt>
      <trkpt lat="43.12732" lon="3.08508">
        <ele>117</ele>
        <time>2025-12-29T14:56:51.802Z</time>
      </trkpt>
      <trkpt lat="43.12732" lon="3.08508">
        <ele>117</ele>
        <time>2025-12-29T14:56:52.802Z</time>
      </trkpt>
      <trkpt lat="43.12732" lon="3.08508">
        <ele>117</ele>
        <time>2025-12-29T14:56:53.802Z</time>
      </trkpt>
      <trkpt lat="43.12732" lon="3.08508">
        <ele>117</ele>
        <time>2025-12-29T14:56:54.802Z</time>
      </trkpt>
      <trkpt lat="43.12732" lon="3.08508">
        <ele>116</ele>
        <time>2025-12-29T14:56:55.802Z</time>
      </trkpt>
      <trkpt lat="43.12732" lon="3.08508">
        <ele>116</ele>
        <time>2025-12-29T14:56:56.802Z</time>
      </trkpt>
      <trkpt lat="43.12732" lon="3.08508">
        <ele>116</ele>
        <time>2025-12-29T14:56:57.802Z</time>
      </trkpt>
      <trkpt lat="43.12732" lon="3.08508">
        <ele>117</ele>
        <time>2025-12-29T14:56:58.802Z</time>
      </trkpt>
      <trkpt lat="43.12732" lon="3.08508">
        <ele>117</ele>
        <time>2025-12-29T14:56:59.802Z</time>
      </trkpt>
      <trkpt lat="43.12732" lon="3.08509">
        <ele>118</ele>
        <time>2025-12-29T14:57:00.802Z</time>
      </trkpt>
      <trkpt lat="43.12732" lon="3.08509">
        <ele>118</ele>
        <time>2025-12-29T14:57:01.802Z</time>
      </trkpt>
      <trkpt lat="43.12732" lon="3.08509">
        <ele>119</ele>
        <time>2025-12-29T14:57:02.802Z</time>
      </trkpt>
      <trkpt lat="43.12732" lon="3.08509">
        <ele>119</ele>
        <time>2025-12-29T14:57:03.802Z</time>
      </trkpt>
      <trkpt lat="43.12732" lon="3.08509">
        <ele>119</ele>
        <time>2025-12-29T14:57:04.802Z</time>
      </trkpt>
      <trkpt lat="43.12732" lon="3.08509">
        <ele>119</ele>
        <time>2025-12-29T14:57:05.802Z</time>
      </trkpt>
      <trkpt lat="43.12732" lon="3.08509">
        <ele>120</ele>
        <time>2025-12-29T14:57:06.802Z</time>
      </trkpt>
      <trkpt lat="43.12732" lon="3.08509">
        <ele>120</ele>
        <time>2025-12-29T14:57:07.802Z</time>
      </trkpt>
      <trkpt lat="43.12732" lon="3.0851">
        <ele>120</ele>
        <time>2025-12-29T14:57:08.802Z</time>
      </trkpt>
      <trkpt lat="43.12732" lon="3.0851">
        <ele>121</ele>
        <time>2025-12-29T14:57:09.802Z</time>
      </trkpt>
      <trkpt lat="43.12732" lon="3.0851">
        <ele>121</ele>
        <time>2025-12-29T14:57:10.802Z</time>
      </trkpt>
      <trkpt lat="43.12732" lon="3.0851">
        <ele>122</ele>
        <time>2025-12-29T14:57:11.802Z</time>
      </trkpt>
      <trkpt lat="43.12732" lon="3.0851">
        <ele>122</ele>
        <time>2025-12-29T14:57:12.802Z</time>
      </trkpt>
      <trkpt lat="43.12732" lon="3.08511">
        <ele>122</ele>
        <time>2025-12-29T14:57:13.802Z</time>
      </trkpt>
      <trkpt lat="43.12732" lon="3.08511">
        <ele>122</ele>
        <time>2025-12-29T14:57:14.802Z</time>
      </trkpt>
      <trkpt lat="43.12732" lon="3.08511">
        <ele>122</ele>
        <time>2025-12-29T14:57:15.802Z</time>
      </trkpt>
      <trkpt lat="43.12732" lon="3.08511">
        <ele>122</ele>
        <time>2025-12-29T14:57:16.802Z</time>
      </trkpt>
      <trkpt lat="43.12732" lon="3.08511">
        <ele>122</ele>
        <time>2025-12-29T14:57:17.802Z</time>
      </trkpt>
      <trkpt lat="43.12732" lon="3.08511">
        <ele>122</ele>
        <time>2025-12-29T14:57:18.802Z</time>
      </trkpt>
      <trkpt lat="43.12732" lon="3.08511">
        <ele>122</ele>
        <time>2025-12-29T14:57:19.802Z</time>
      </trkpt>
      <trkpt lat="43.12732" lon="3.08511">
        <ele>122</ele>
        <time>2025-12-29T14:57:20.802Z</time>
      </trkpt>
      <trkpt lat="43.12732" lon="3.08511">
        <ele>122</ele>
        <time>2025-12-29T14:57:21.802Z</time>
      </trkpt>
      <trkpt lat="43.12732" lon="3.08511">
        <ele>122</ele>
        <time>2025-12-29T14:57:22.802Z</time>
      </trkpt>
      <trkpt lat="43.12732" lon="3.08511">
        <ele>122</ele>
        <time>2025-12-29T14:57:23.802Z</time>
      </trkpt>
      <trkpt lat="43.12732" lon="3.08511">
        <ele>122</ele>
        <time>2025-12-29T14:57:24.802Z</time>
      </trkpt>
      <trkpt lat="43.12732" lon="3.08511">
        <ele>122</ele>
        <time>2025-12-29T14:57:25.802Z</time>
      </trkpt>
      <trkpt lat="43.12732" lon="3.08511">
        <ele>122</ele>
        <time>2025-12-29T14:57:26.802Z</time>
      </trkpt>
      <trkpt lat="43.12732" lon="3.08511">
        <ele>122</ele>
        <time>2025-12-29T14:57:27.802Z</time>
      </trkpt>
      <trkpt lat="43.12732" lon="3.08511">
        <ele>122</ele>
        <time>2025-12-29T14:57:28.802Z</time>
      </trkpt>
      <trkpt lat="43.12732" lon="3.08511">
        <ele>122</ele>
        <time>2025-12-29T14:57:29.802Z</time>
      </trkpt>
      <trkpt lat="43.12733" lon="3.08511">
        <ele>122</ele>
        <time>2025-12-29T14:57:30.802Z</time>
      </trkpt>
      <trkpt lat="43.12733" lon="3.08511">
        <ele>122</ele>
        <time>2025-12-29T14:57:31.802Z</time>
      </trkpt>
      <trkpt lat="43.12733" lon="3.08511">
        <ele>122</ele>
        <time>2025-12-29T14:57:32.802Z</time>
      </trkpt>
      <trkpt lat="43.12733" lon="3.08511">
        <ele>122</ele>
        <time>2025-12-29T14:57:33.802Z</time>
      </trkpt>
      <trkpt lat="43.12733" lon="3.08512">
        <ele>122</ele>
        <time>2025-12-29T14:57:34.802Z</time>
      </trkpt>
      <trkpt lat="43.12733" lon="3.08511">
        <ele>122</ele>
        <time>2025-12-29T14:57:35.802Z</time>
      </trkpt>
      <trkpt lat="43.12733" lon="3.08511">
        <ele>122</ele>
        <time>2025-12-29T14:57:36.802Z</time>
      </trkpt>
      <trkpt lat="43.12733" lon="3.08511">
        <ele>122</ele>
        <time>2025-12-29T14:57:37.802Z</time>
      </trkpt>
      <trkpt lat="43.12733" lon="3.0851">
        <ele>122</ele>
        <time>2025-12-29T14:57:38.802Z</time>
      </trkpt>
      <trkpt lat="43.12733" lon="3.08511">
        <ele>121</ele>
        <time>2025-12-29T14:57:39.802Z</time>
      </trkpt>
      <trkpt lat="43.12733" lon="3.08511">
        <ele>121</ele>
        <time>2025-12-29T14:57:40.802Z</time>
      </trkpt>
      <trkpt lat="43.12733" lon="3.08511">
        <ele>121</ele>
        <time>2025-12-29T14:57:41.802Z</time>
      </trkpt>
      <trkpt lat="43.12733" lon="3.08511">
        <ele>121</ele>
        <time>2025-12-29T14:57:42.802Z</time>
      </trkpt>
      <trkpt lat="43.12733" lon="3.08511">
        <ele>122</ele>
        <time>2025-12-29T14:57:43.802Z</time>
      </trkpt>
      <trkpt lat="43.12733" lon="3.08511">
        <ele>122</ele>
        <time>2025-12-29T14:57:44.802Z</time>
      </trkpt>
      <trkpt lat="43.12733" lon="3.08511">
        <ele>122</ele>
        <time>2025-12-29T14:57:45.802Z</time>
      </trkpt>
      <trkpt lat="43.12734" lon="3.08511">
        <ele>123</ele>
        <time>2025-12-29T14:57:46.802Z</time>
      </trkpt>
      <trkpt lat="43.12733" lon="3.08511">
        <ele>123</ele>
        <time>2025-12-29T14:57:47.802Z</time>
      </trkpt>
      <trkpt lat="43.12734" lon="3.08511">
        <ele>123</ele>
        <time>2025-12-29T14:57:48.802Z</time>
      </trkpt>
      <trkpt lat="43.12734" lon="3.08512">
        <ele>122</ele>
        <time>2025-12-29T14:57:49.802Z</time>
      </trkpt>
      <trkpt lat="43.12734" lon="3.08512">
        <ele>122</ele>
        <time>2025-12-29T14:57:50.802Z</time>
      </trkpt>
      <trkpt lat="43.12734" lon="3.08512">
        <ele>122</ele>
        <time>2025-12-29T14:57:51.802Z</time>
      </trkpt>
      <trkpt lat="43.12734" lon="3.08512">
        <ele>122</ele>
        <time>2025-12-29T14:57:52.802Z</time>
      </trkpt>
      <trkpt lat="43.12734" lon="3.08512">
        <ele>122</ele>
        <time>2025-12-29T14:57:53.802Z</time>
      </trkpt>
      <trkpt lat="43.12733" lon="3.08512">
        <ele>122</ele>
        <time>2025-12-29T14:57:54.802Z</time>
      </trkpt>
      <trkpt lat="43.12733" lon="3.08512">
        <ele>122</ele>
        <time>2025-12-29T14:57:55.802Z</time>
      </trkpt>
      <trkpt lat="43.12733" lon="3.08513">
        <ele>122</ele>
        <time>2025-12-29T14:57:56.802Z</time>
      </trkpt>
      <trkpt lat="43.12733" lon="3.08513">
        <ele>121</ele>
        <time>2025-12-29T14:57:57.802Z</time>
      </trkpt>
      <trkpt lat="43.12733" lon="3.08512">
        <ele>121</ele>
        <time>2025-12-29T14:57:58.802Z</time>
      </trkpt>
      <trkpt lat="43.12733" lon="3.08512">
        <ele>120</ele>
        <time>2025-12-29T14:57:59.802Z</time>
      </trkpt>
      <trkpt lat="43.12733" lon="3.08512">
        <ele>119</ele>
        <time>2025-12-29T14:58:00.802Z</time>
      </trkpt>
      <trkpt lat="43.12733" lon="3.08512">
        <ele>119</ele>
        <time>2025-12-29T14:58:01.802Z</time>
      </trkpt>
      <trkpt lat="43.12733" lon="3.08512">
        <ele>118</ele>
        <time>2025-12-29T14:58:02.802Z</time>
      </trkpt>
      <trkpt lat="43.12733" lon="3.08512">
        <ele>118</ele>
        <time>2025-12-29T14:58:03.802Z</time>
      </trkpt>
      <trkpt lat="43.12734" lon="3.08512">
        <ele>118</ele>
        <time>2025-12-29T14:58:04.802Z</time>
      </trkpt>
      <trkpt lat="43.12734" lon="3.08512">
        <ele>117</ele>
        <time>2025-12-29T14:58:05.802Z</time>
      </trkpt>
      <trkpt lat="43.12734" lon="3.08513">
        <ele>117</ele>
        <time>2025-12-29T14:58:06.802Z</time>
      </trkpt>
      <trkpt lat="43.12734" lon="3.08513">
        <ele>117</ele>
        <time>2025-12-29T14:58:07.802Z</time>
      </trkpt>
      <trkpt lat="43.12733" lon="3.08512">
        <ele>118</ele>
        <time>2025-12-29T14:58:08.802Z</time>
      </trkpt>
      <trkpt lat="43.12734" lon="3.08512">
        <ele>118</ele>
        <time>2025-12-29T14:58:09.802Z</time>
      </trkpt>
      <trkpt lat="43.12734" lon="3.08512">
        <ele>117</ele>
        <time>2025-12-29T14:58:10.802Z</time>
      </trkpt>
      <trkpt lat="43.12735" lon="3.08512">
        <ele>117</ele>
        <time>2025-12-29T14:58:11.802Z</time>
      </trkpt>
      <trkpt lat="43.12735" lon="3.08511">
        <ele>117</ele>
        <time>2025-12-29T14:58:12.802Z</time>
      </trkpt>
      <trkpt lat="43.12735" lon="3.0851">
        <ele>117</ele>
        <time>2025-12-29T14:58:13.802Z</time>
      </trkpt>
      <trkpt lat="43.12735" lon="3.08509">
        <ele>117</ele>
        <time>2025-12-29T14:58:14.802Z</time>
      </trkpt>
      <trkpt lat="43.12735" lon="3.08508">
        <ele>117</ele>
        <time>2025-12-29T14:58:15.802Z</time>
      </trkpt>
      <trkpt lat="43.12735" lon="3.08507">
        <ele>118</ele>
        <time>2025-12-29T14:58:16.802Z</time>
      </trkpt>
      <trkpt lat="43.12735" lon="3.08505">
        <ele>118</ele>
        <time>2025-12-29T14:58:17.802Z</time>
      </trkpt>
      <trkpt lat="43.12735" lon="3.08504">
        <ele>118</ele>
        <time>2025-12-29T14:58:18.802Z</time>
      </trkpt>
      <trkpt lat="43.12735" lon="3.08502">
        <ele>118</ele>
        <time>2025-12-29T14:58:19.802Z</time>
      </trkpt>
      <trkpt lat="43.12735" lon="3.08501">
        <ele>119</ele>
        <time>2025-12-29T14:58:20.802Z</time>
      </trkpt>
      <trkpt lat="43.12734" lon="3.08501">
        <ele>119</ele>
        <time>2025-12-29T14:58:21.802Z</time>
      </trkpt>
      <trkpt lat="43.12733" lon="3.08499">
        <ele>119</ele>
        <time>2025-12-29T14:58:22.802Z</time>
      </trkpt>
      <trkpt lat="43.12732" lon="3.08499">
        <ele>119</ele>
        <time>2025-12-29T14:58:23.802Z</time>
      </trkpt>
      <trkpt lat="43.12731" lon="3.08497">
        <ele>120</ele>
        <time>2025-12-29T14:58:24.802Z</time>
      </trkpt>
      <trkpt lat="43.12731" lon="3.08496">
        <ele>120</ele>
        <time>2025-12-29T14:58:25.802Z</time>
      </trkpt>
      <trkpt lat="43.1273" lon="3.08494">
        <ele>120</ele>
        <time>2025-12-29T14:58:26.802Z</time>
      </trkpt>
      <trkpt lat="43.1273" lon="3.08493">
        <ele>120</ele>
        <time>2025-12-29T14:58:27.803Z</time>
      </trkpt>
      <trkpt lat="43.12728" lon="3.08492">
        <ele>120</ele>
        <time>2025-12-29T14:58:28.802Z</time>
      </trkpt>
      <trkpt lat="43.12728" lon="3.0849">
        <ele>120</ele>
        <time>2025-12-29T14:58:29.802Z</time>
      </trkpt>
      <trkpt lat="43.12727" lon="3.08489">
        <ele>121</ele>
        <time>2025-12-29T14:58:30.802Z</time>
      </trkpt>
      <trkpt lat="43.12726" lon="3.08487">
        <ele>121</ele>
        <time>2025-12-29T14:58:31.802Z</time>
      </trkpt>
      <trkpt lat="43.12725" lon="3.08486">
        <ele>121</ele>
        <time>2025-12-29T14:58:32.802Z</time>
      </trkpt>
      <trkpt lat="43.12725" lon="3.08485">
        <ele>121</ele>
        <time>2025-12-29T14:58:33.802Z</time>
      </trkpt>
      <trkpt lat="43.12724" lon="3.08483">
        <ele>121</ele>
        <time>2025-12-29T14:58:34.802Z</time>
      </trkpt>
      <trkpt lat="43.12723" lon="3.08482">
        <ele>121</ele>
        <time>2025-12-29T14:58:35.802Z</time>
      </trkpt>
      <trkpt lat="43.12723" lon="3.08481">
        <ele>121</ele>
        <time>2025-12-29T14:58:36.802Z</time>
      </trkpt>
      <trkpt lat="43.12723" lon="3.0848">
        <ele>121</ele>
        <time>2025-12-29T14:58:37.802Z</time>
      </trkpt>
      <trkpt lat="43.12722" lon="3.08479">
        <ele>121</ele>
        <time>2025-12-29T14:58:38.802Z</time>
      </trkpt>
      <trkpt lat="43.12723" lon="3.08478">
        <ele>121</ele>
        <time>2025-12-29T14:58:39.802Z</time>
      </trkpt>
      <trkpt lat="43.12723" lon="3.08478">
        <ele>121</ele>
        <time>2025-12-29T14:58:40.802Z</time>
      </trkpt>
      <trkpt lat="43.12723" lon="3.08477">
        <ele>121</ele>
        <time>2025-12-29T14:58:41.802Z</time>
      </trkpt>
      <trkpt lat="43.12722" lon="3.08476">
        <ele>121</ele>
        <time>2025-12-29T14:58:42.802Z</time>
      </trkpt>
      <trkpt lat="43.12721" lon="3.08475">
        <ele>120</ele>
        <time>2025-12-29T14:58:43.802Z</time>
      </trkpt>
      <trkpt lat="43.1272" lon="3.08474">
        <ele>120</ele>
        <time>2025-12-29T14:58:44.802Z</time>
      </trkpt>
      <trkpt lat="43.1272" lon="3.08473">
        <ele>120</ele>
        <time>2025-12-29T14:58:45.802Z</time>
      </trkpt>
      <trkpt lat="43.12719" lon="3.08471">
        <ele>119</ele>
        <time>2025-12-29T14:58:46.802Z</time>
      </trkpt>
      <trkpt lat="43.12718" lon="3.0847">
        <ele>119</ele>
        <time>2025-12-29T14:58:47.802Z</time>
      </trkpt>
      <trkpt lat="43.12717" lon="3.08469">
        <ele>119</ele>
        <time>2025-12-29T14:58:48.802Z</time>
      </trkpt>
      <trkpt lat="43.12716" lon="3.08467">
        <ele>119</ele>
        <time>2025-12-29T14:58:49.802Z</time>
      </trkpt>
      <trkpt lat="43.12715" lon="3.08466">
        <ele>119</ele>
        <time>2025-12-29T14:58:50.802Z</time>
      </trkpt>
      <trkpt lat="43.12715" lon="3.08465">
        <ele>119</ele>
        <time>2025-12-29T14:58:51.802Z</time>
      </trkpt>
      <trkpt lat="43.12714" lon="3.08465">
        <ele>119</ele>
        <time>2025-12-29T14:58:52.802Z</time>
      </trkpt>
      <trkpt lat="43.12714" lon="3.08465">
        <ele>119</ele>
        <time>2025-12-29T14:58:53.802Z</time>
      </trkpt>
      <trkpt lat="43.12713" lon="3.08464">
        <ele>119</ele>
        <time>2025-12-29T14:58:54.802Z</time>
      </trkpt>
      <trkpt lat="43.12713" lon="3.08464">
        <ele>119</ele>
        <time>2025-12-29T14:58:55.802Z</time>
      </trkpt>
      <trkpt lat="43.12712" lon="3.08464">
        <ele>119</ele>
        <time>2025-12-29T14:58:56.802Z</time>
      </trkpt>
      <trkpt lat="43.12711" lon="3.08464">
        <ele>119</ele>
        <time>2025-12-29T14:58:57.802Z</time>
      </trkpt>
      <trkpt lat="43.1271" lon="3.08463">
        <ele>119</ele>
        <time>2025-12-29T14:58:58.802Z</time>
      </trkpt>
      <trkpt lat="43.12709" lon="3.08462">
        <ele>119</ele>
        <time>2025-12-29T14:58:59.802Z</time>
      </trkpt>
      <trkpt lat="43.12709" lon="3.08461">
        <ele>120</ele>
        <time>2025-12-29T14:59:00.802Z</time>
      </trkpt>
      <trkpt lat="43.12709" lon="3.08461">
        <ele>120</ele>
        <time>2025-12-29T14:59:01.802Z</time>
      </trkpt>
      <trkpt lat="43.12708" lon="3.08461">
        <ele>120</ele>
        <time>2025-12-29T14:59:02.802Z</time>
      </trkpt>
      <trkpt lat="43.12708" lon="3.08461">
        <ele>120</ele>
        <time>2025-12-29T14:59:03.802Z</time>
      </trkpt>
      <trkpt lat="43.12707" lon="3.0846">
        <ele>119</ele>
        <time>2025-12-29T14:59:04.802Z</time>
      </trkpt>
      <trkpt lat="43.12707" lon="3.0846">
        <ele>119</ele>
        <time>2025-12-29T14:59:05.802Z</time>
      </trkpt>
      <trkpt lat="43.12707" lon="3.0846">
        <ele>119</ele>
        <time>2025-12-29T14:59:06.802Z</time>
      </trkpt>
      <trkpt lat="43.12707" lon="3.08459">
        <ele>119</ele>
        <time>2025-12-29T14:59:07.802Z</time>
      </trkpt>
      <trkpt lat="43.12707" lon="3.08457">
        <ele>119</ele>
        <time>2025-12-29T14:59:08.802Z</time>
      </trkpt>
      <trkpt lat="43.12707" lon="3.08457">
        <ele>119</ele>
        <time>2025-12-29T14:59:09.802Z</time>
      </trkpt>
      <trkpt lat="43.12706" lon="3.08456">
        <ele>119</ele>
        <time>2025-12-29T14:59:10.802Z</time>
      </trkpt>
      <trkpt lat="43.12706" lon="3.08456">
        <ele>119</ele>
        <time>2025-12-29T14:59:11.802Z</time>
      </trkpt>
      <trkpt lat="43.12706" lon="3.08456">
        <ele>119</ele>
        <time>2025-12-29T14:59:12.802Z</time>
      </trkpt>
      <trkpt lat="43.12707" lon="3.08456">
        <ele>119</ele>
        <time>2025-12-29T14:59:13.802Z</time>
      </trkpt>
      <trkpt lat="43.12707" lon="3.08456">
        <ele>119</ele>
        <time>2025-12-29T14:59:14.802Z</time>
      </trkpt>
      <trkpt lat="43.12707" lon="3.08456">
        <ele>119</ele>
        <time>2025-12-29T14:59:15.802Z</time>
      </trkpt>
      <trkpt lat="43.12707" lon="3.08456">
        <ele>118</ele>
        <time>2025-12-29T14:59:16.802Z</time>
      </trkpt>
      <trkpt lat="43.12707" lon="3.08456">
        <ele>118</ele>
        <time>2025-12-29T14:59:17.802Z</time>
      </trkpt>
      <trkpt lat="43.12707" lon="3.08456">
        <ele>118</ele>
        <time>2025-12-29T14:59:18.802Z</time>
      </trkpt>
      <trkpt lat="43.12707" lon="3.08456">
        <ele>118</ele>
        <time>2025-12-29T14:59:19.802Z</time>
      </trkpt>
      <trkpt lat="43.12707" lon="3.08456">
        <ele>118</ele>
        <time>2025-12-29T14:59:20.802Z</time>
      </trkpt>
      <trkpt lat="43.12707" lon="3.08456">
        <ele>118</ele>
        <time>2025-12-29T14:59:21.802Z</time>
      </trkpt>
      <trkpt lat="43.12707" lon="3.08456">
        <ele>118</ele>
        <time>2025-12-29T14:59:22.802Z</time>
      </trkpt>
      <trkpt lat="43.12706" lon="3.08455">
        <ele>117</ele>
        <time>2025-12-29T14:59:23.802Z</time>
      </trkpt>
      <trkpt lat="43.12706" lon="3.08454">
        <ele>117</ele>
        <time>2025-12-29T14:59:24.802Z</time>
      </trkpt>
      <trkpt lat="43.12706" lon="3.08454">
        <ele>117</ele>
        <time>2025-12-29T14:59:25.802Z</time>
      </trkpt>
      <trkpt lat="43.12706" lon="3.08454">
        <ele>117</ele>
        <time>2025-12-29T14:59:26.802Z</time>
      </trkpt>
      <trkpt lat="43.12706" lon="3.08454">
        <ele>117</ele>
        <time>2025-12-29T14:59:27.802Z</time>
      </trkpt>
      <trkpt lat="43.12706" lon="3.08454">
        <ele>117</ele>
        <time>2025-12-29T14:59:28.802Z</time>
      </trkpt>
      <trkpt lat="43.12707" lon="3.08455">
        <ele>117</ele>
        <time>2025-12-29T14:59:29.802Z</time>
      </trkpt>
      <trkpt lat="43.12707" lon="3.08455">
        <ele>117</ele>
        <time>2025-12-29T14:59:30.802Z</time>
      </trkpt>
      <trkpt lat="43.12707" lon="3.08455">
        <ele>117</ele>
        <time>2025-12-29T14:59:31.802Z</time>
      </trkpt>
      <trkpt lat="43.12707" lon="3.08455">
        <ele>117</ele>
        <time>2025-12-29T14:59:32.802Z</time>
      </trkpt>
      <trkpt lat="43.12707" lon="3.08455">
        <ele>118</ele>
        <time>2025-12-29T14:59:33.802Z</time>
      </trkpt>
      <trkpt lat="43.12707" lon="3.08455">
        <ele>118</ele>
        <time>2025-12-29T14:59:34.802Z</time>
      </trkpt>
      <trkpt lat="43.12706" lon="3.08455">
        <ele>118</ele>
        <time>2025-12-29T14:59:35.802Z</time>
      </trkpt>
      <trkpt lat="43.12706" lon="3.08456">
        <ele>118</ele>
        <time>2025-12-29T14:59:36.802Z</time>
      </trkpt>
      <trkpt lat="43.12706" lon="3.08456">
        <ele>118</ele>
        <time>2025-12-29T14:59:37.802Z</time>
      </trkpt>
      <trkpt lat="43.12706" lon="3.08456">
        <ele>118</ele>
        <time>2025-12-29T14:59:38.802Z</time>
      </trkpt>
      <trkpt lat="43.12705" lon="3.08457">
        <ele>118</ele>
        <time>2025-12-29T14:59:39.802Z</time>
      </trkpt>
      <trkpt lat="43.12705" lon="3.08457">
        <ele>118</ele>
        <time>2025-12-29T14:59:40.802Z</time>
      </trkpt>
      <trkpt lat="43.12705" lon="3.08457">
        <ele>118</ele>
        <time>2025-12-29T14:59:41.802Z</time>
      </trkpt>
      <trkpt lat="43.12705" lon="3.08457">
        <ele>117</ele>
        <time>2025-12-29T14:59:42.802Z</time>
      </trkpt>
      <trkpt lat="43.12705" lon="3.08457">
        <ele>117</ele>
        <time>2025-12-29T14:59:43.802Z</time>
      </trkpt>
      <trkpt lat="43.12705" lon="3.08457">
        <ele>117</ele>
        <time>2025-12-29T14:59:44.802Z</time>
      </trkpt>
      <trkpt lat="43.12705" lon="3.08457">
        <ele>118</ele>
        <time>2025-12-29T14:59:45.802Z</time>
      </trkpt>
      <trkpt lat="43.12705" lon="3.08457">
        <ele>118</ele>
        <time>2025-12-29T14:59:46.802Z</time>
      </trkpt>
      <trkpt lat="43.12705" lon="3.08456">
        <ele>118</ele>
        <time>2025-12-29T14:59:47.802Z</time>
      </trkpt>
      <trkpt lat="43.12705" lon="3.08456">
        <ele>118</ele>
        <time>2025-12-29T14:59:48.802Z</time>
      </trkpt>
      <trkpt lat="43.12705" lon="3.08456">
        <ele>118</ele>
        <time>2025-12-29T14:59:49.802Z</time>
      </trkpt>
      <trkpt lat="43.12705" lon="3.08456">
        <ele>117</ele>
        <time>2025-12-29T14:59:50.802Z</time>
      </trkpt>
      <trkpt lat="43.12705" lon="3.08456">
        <ele>117</ele>
        <time>2025-12-29T14:59:51.802Z</time>
      </trkpt>
      <trkpt lat="43.12705" lon="3.08456">
        <ele>117</ele>
        <time>2025-12-29T14:59:52.802Z</time>
      </trkpt>
      <trkpt lat="43.12705" lon="3.08456">
        <ele>117</ele>
        <time>2025-12-29T14:59:53.802Z</time>
      </trkpt>
      <trkpt lat="43.12705" lon="3.08456">
        <ele>117</ele>
        <time>2025-12-29T14:59:54.802Z</time>
      </trkpt>
      <trkpt lat="43.12705" lon="3.08456">
        <ele>117</ele>
        <time>2025-12-29T14:59:55.802Z</time>
      </trkpt>
      <trkpt lat="43.12705" lon="3.08456">
        <ele>117</ele>
        <time>2025-12-29T14:59:56.802Z</time>
      </trkpt>
      <trkpt lat="43.12705" lon="3.08456">
        <ele>117</ele>
        <time>2025-12-29T14:59:57.802Z</time>
      </trkpt>
      <trkpt lat="43.12705" lon="3.08456">
        <ele>117</ele>
        <time>2025-12-29T14:59:58.802Z</time>
      </trkpt>
      <trkpt lat="43.12705" lon="3.08456">
        <ele>118</ele>
        <time>2025-12-29T14:59:59.802Z</time>
      </trkpt>
      <trkpt lat="43.12705" lon="3.08456">
        <ele>118</ele>
        <time>2025-12-29T15:00:00.802Z</time>
      </trkpt>
      <trkpt lat="43.12705" lon="3.08456">
        <ele>118</ele>
        <time>2025-12-29T15:00:01.802Z</time>
      </trkpt>
      <trkpt lat="43.12705" lon="3.08456">
        <ele>118</ele>
        <time>2025-12-29T15:00:02.802Z</time>
      </trkpt>
      <trkpt lat="43.12705" lon="3.08456">
        <ele>118</ele>
        <time>2025-12-29T15:00:03.802Z</time>
      </trkpt>
      <trkpt lat="43.12705" lon="3.08456">
        <ele>118</ele>
        <time>2025-12-29T15:00:04.802Z</time>
      </trkpt>
      <trkpt lat="43.12705" lon="3.08456">
        <ele>119</ele>
        <time>2025-12-29T15:00:05.802Z</time>
      </trkpt>
      <trkpt lat="43.12705" lon="3.08456">
        <ele>119</ele>
        <time>2025-12-29T15:00:06.802Z</time>
      </trkpt>
      <trkpt lat="43.12705" lon="3.08456">
        <ele>119</ele>
        <time>2025-12-29T15:00:07.802Z</time>
      </trkpt>
      <trkpt lat="43.12705" lon="3.08456">
        <ele>119</ele>
        <time>2025-12-29T15:00:08.802Z</time>
      </trkpt>
      <trkpt lat="43.12704" lon="3.08457">
        <ele>119</ele>
        <time>2025-12-29T15:00:09.802Z</time>
      </trkpt>
      <trkpt lat="43.12704" lon="3.08457">
        <ele>119</ele>
        <time>2025-12-29T15:00:10.802Z</time>
      </trkpt>
      <trkpt lat="43.12704" lon="3.08457">
        <ele>119</ele>
        <time>2025-12-29T15:00:11.802Z</time>
      </trkpt>
      <trkpt lat="43.12704" lon="3.08457">
        <ele>119</ele>
        <time>2025-12-29T15:00:12.802Z</time>
      </trkpt>
      <trkpt lat="43.12704" lon="3.08457">
        <ele>119</ele>
        <time>2025-12-29T15:00:13.802Z</time>
      </trkpt>
      <trkpt lat="43.12705" lon="3.08457">
        <ele>119</ele>
        <time>2025-12-29T15:00:14.802Z</time>
      </trkpt>
      <trkpt lat="43.12705" lon="3.08457">
        <ele>119</ele>
        <time>2025-12-29T15:00:15.802Z</time>
      </trkpt>
      <trkpt lat="43.12705" lon="3.08457">
        <ele>119</ele>
        <time>2025-12-29T15:00:16.802Z</time>
      </trkpt>
      <trkpt lat="43.12705" lon="3.08457">
        <ele>119</ele>
        <time>2025-12-29T15:00:17.802Z</time>
      </trkpt>
      <trkpt lat="43.12705" lon="3.08457">
        <ele>119</ele>
        <time>2025-12-29T15:00:18.802Z</time>
      </trkpt>
      <trkpt lat="43.12705" lon="3.08456">
        <ele>119</ele>
        <time>2025-12-29T15:00:19.802Z</time>
      </trkpt>
      <trkpt lat="43.12705" lon="3.08456">
        <ele>119</ele>
        <time>2025-12-29T15:00:20.802Z</time>
      </trkpt>
      <trkpt lat="43.12705" lon="3.08456">
        <ele>119</ele>
        <time>2025-12-29T15:00:21.802Z</time>
      </trkpt>
      <trkpt lat="43.12705" lon="3.08456">
        <ele>119</ele>
        <time>2025-12-29T15:00:22.802Z</time>
      </trkpt>
      <trkpt lat="43.12705" lon="3.08456">
        <ele>119</ele>
        <time>2025-12-29T15:00:23.802Z</time>
      </trkpt>
      <trkpt lat="43.12705" lon="3.08456">
        <ele>119</ele>
        <time>2025-12-29T15:00:24.802Z</time>
      </trkpt>
      <trkpt lat="43.12705" lon="3.08456">
        <ele>120</ele>
        <time>2025-12-29T15:00:25.802Z</time>
      </trkpt>
      <trkpt lat="43.12705" lon="3.08456">
        <ele>120</ele>
        <time>2025-12-29T15:00:26.802Z</time>
      </trkpt>
      <trkpt lat="43.12705" lon="3.08456">
        <ele>120</ele>
        <time>2025-12-29T15:00:27.802Z</time>
      </trkpt>
      <trkpt lat="43.12705" lon="3.08456">
        <ele>121</ele>
        <time>2025-12-29T15:00:28.802Z</time>
      </trkpt>
      <trkpt lat="43.12705" lon="3.08456">
        <ele>121</ele>
        <time>2025-12-29T15:00:29.802Z</time>
      </trkpt>
      <trkpt lat="43.12705" lon="3.08456">
        <ele>121</ele>
        <time>2025-12-29T15:00:30.802Z</time>
      </trkpt>
      <trkpt lat="43.12705" lon="3.08456">
        <ele>121</ele>
        <time>2025-12-29T15:00:31.802Z</time>
      </trkpt>
      <trkpt lat="43.12705" lon="3.08456">
        <ele>121</ele>
        <time>2025-12-29T15:00:32.802Z</time>
      </trkpt>
      <trkpt lat="43.12705" lon="3.08456">
        <ele>121</ele>
        <time>2025-12-29T15:00:33.802Z</time>
      </trkpt>
      <trkpt lat="43.12705" lon="3.08456">
        <ele>121</ele>
        <time>2025-12-29T15:00:34.802Z</time>
      </trkpt>
      <trkpt lat="43.12705" lon="3.08456">
        <ele>121</ele>
        <time>2025-12-29T15:00:35.802Z</time>
      </trkpt>
      <trkpt lat="43.12705" lon="3.08456">
        <ele>120</ele>
        <time>2025-12-29T15:00:36.802Z</time>
      </trkpt>
      <trkpt lat="43.12705" lon="3.08456">
        <ele>120</ele>
        <time>2025-12-29T15:00:37.802Z</time>
      </trkpt>
      <trkpt lat="43.12705" lon="3.08456">
        <ele>120</ele>
        <time>2025-12-29T15:00:38.802Z</time>
      </trkpt>
      <trkpt lat="43.12705" lon="3.08456">
        <ele>120</ele>
        <time>2025-12-29T15:00:39.802Z</time>
      </trkpt>
      <trkpt lat="43.12705" lon="3.08456">
        <ele>120</ele>
        <time>2025-12-29T15:00:40.802Z</time>
      </trkpt>
      <trkpt lat="43.12705" lon="3.08456">
        <ele>120</ele>
        <time>2025-12-29T15:00:41.802Z</time>
      </trkpt>
      <trkpt lat="43.12705" lon="3.08456">
        <ele>120</ele>
        <time>2025-12-29T15:00:42.802Z</time>
      </trkpt>
      <trkpt lat="43.12705" lon="3.08456">
        <ele>119</ele>
        <time>2025-12-29T15:00:43.802Z</time>
      </trkpt>
      <trkpt lat="43.12705" lon="3.08456">
        <ele>119</ele>
        <time>2025-12-29T15:00:44.802Z</time>
      </trkpt>
      <trkpt lat="43.12705" lon="3.08456">
        <ele>119</ele>
        <time>2025-12-29T15:00:45.802Z</time>
      </trkpt>
      <trkpt lat="43.12706" lon="3.08456">
        <ele>119</ele>
        <time>2025-12-29T15:00:46.802Z</time>
      </trkpt>
      <trkpt lat="43.12706" lon="3.08456">
        <ele>118</ele>
        <time>2025-12-29T15:00:47.802Z</time>
      </trkpt>
      <trkpt lat="43.12706" lon="3.08456">
        <ele>118</ele>
        <time>2025-12-29T15:00:48.802Z</time>
      </trkpt>
      <trkpt lat="43.12706" lon="3.08456">
        <ele>118</ele>
        <time>2025-12-29T15:00:49.802Z</time>
      </trkpt>
      <trkpt lat="43.12706" lon="3.08455">
        <ele>118</ele>
        <time>2025-12-29T15:00:50.802Z</time>
      </trkpt>
      <trkpt lat="43.12706" lon="3.08455">
        <ele>118</ele>
        <time>2025-12-29T15:00:51.802Z</time>
      </trkpt>
      <trkpt lat="43.12706" lon="3.08455">
        <ele>117</ele>
        <time>2025-12-29T15:00:52.802Z</time>
      </trkpt>
      <trkpt lat="43.12706" lon="3.08455">
        <ele>117</ele>
        <time>2025-12-29T15:00:53.802Z</time>
      </trkpt>
      <trkpt lat="43.12706" lon="3.08455">
        <ele>117</ele>
        <time>2025-12-29T15:00:54.802Z</time>
      </trkpt>
      <trkpt lat="43.12706" lon="3.08455">
        <ele>117</ele>
        <time>2025-12-29T15:00:55.802Z</time>
      </trkpt>
      <trkpt lat="43.12706" lon="3.08455">
        <ele>117</ele>
        <time>2025-12-29T15:00:56.802Z</time>
      </trkpt>
      <trkpt lat="43.12706" lon="3.08455">
        <ele>117</ele>
        <time>2025-12-29T15:00:57.802Z</time>
      </trkpt>
      <trkpt lat="43.12706" lon="3.08455">
        <ele>117</ele>
        <time>2025-12-29T15:00:58.802Z</time>
      </trkpt>
      <trkpt lat="43.12706" lon="3.08455">
        <ele>117</ele>
        <time>2025-12-29T15:00:59.802Z</time>
      </trkpt>
      <trkpt lat="43.12706" lon="3.08455">
        <ele>117</ele>
        <time>2025-12-29T15:01:00.802Z</time>
      </trkpt>
      <trkpt lat="43.12706" lon="3.08455">
        <ele>117</ele>
        <time>2025-12-29T15:01:01.802Z</time>
      </trkpt>
      <trkpt lat="43.12706" lon="3.08455">
        <ele>117</ele>
        <time>2025-12-29T15:01:02.802Z</time>
      </trkpt>
      <trkpt lat="43.12706" lon="3.08455">
        <ele>117</ele>
        <time>2025-12-29T15:01:03.802Z</time>
      </trkpt>
      <trkpt lat="43.12706" lon="3.08455">
        <ele>116</ele>
        <time>2025-12-29T15:01:04.802Z</time>
      </trkpt>
      <trkpt lat="43.12706" lon="3.08454">
        <ele>116</ele>
        <time>2025-12-29T15:01:05.802Z</time>
      </trkpt>
      <trkpt lat="43.12706" lon="3.08454">
        <ele>116</ele>
        <time>2025-12-29T15:01:06.802Z</time>
      </trkpt>
      <trkpt lat="43.12706" lon="3.08454">
        <ele>116</ele>
        <time>2025-12-29T15:01:07.802Z</time>
      </trkpt>
      <trkpt lat="43.12707" lon="3.08454">
        <ele>115</ele>
        <time>2025-12-29T15:01:08.802Z</time>
      </trkpt>
      <trkpt lat="43.12707" lon="3.08455">
        <ele>116</ele>
        <time>2025-12-29T15:01:09.802Z</time>
      </trkpt>
      <trkpt lat="43.12707" lon="3.08455">
        <ele>115</ele>
        <time>2025-12-29T15:01:10.802Z</time>
      </trkpt>
      <trkpt lat="43.12707" lon="3.08455">
        <ele>115</ele>
        <time>2025-12-29T15:01:11.802Z</time>
      </trkpt>
      <trkpt lat="43.12707" lon="3.08455">
        <ele>115</ele>
        <time>2025-12-29T15:01:12.802Z</time>
      </trkpt>
      <trkpt lat="43.12707" lon="3.08455">
        <ele>115</ele>
        <time>2025-12-29T15:01:13.802Z</time>
      </trkpt>
      <trkpt lat="43.12707" lon="3.08455">
        <ele>115</ele>
        <time>2025-12-29T15:01:14.802Z</time>
      </trkpt>
      <trkpt lat="43.12707" lon="3.08455">
        <ele>116</ele>
        <time>2025-12-29T15:01:15.802Z</time>
      </trkpt>
      <trkpt lat="43.12707" lon="3.08455">
        <ele>116</ele>
        <time>2025-12-29T15:01:16.802Z</time>
      </trkpt>
      <trkpt lat="43.12707" lon="3.08455">
        <ele>116</ele>
        <time>2025-12-29T15:01:17.802Z</time>
      </trkpt>
      <trkpt lat="43.12707" lon="3.08455">
        <ele>117</ele>
        <time>2025-12-29T15:01:18.802Z</time>
      </trkpt>
      <trkpt lat="43.12707" lon="3.08455">
        <ele>117</ele>
        <time>2025-12-29T15:01:19.802Z</time>
      </trkpt>
      <trkpt lat="43.12707" lon="3.08455">
        <ele>116</ele>
        <time>2025-12-29T15:01:20.802Z</time>
      </trkpt>
      <trkpt lat="43.12707" lon="3.08455">
        <ele>116</ele>
        <time>2025-12-29T15:01:21.802Z</time>
      </trkpt>
      <trkpt lat="43.12707" lon="3.08455">
        <ele>116</ele>
        <time>2025-12-29T15:01:22.802Z</time>
      </trkpt>
      <trkpt lat="43.12707" lon="3.08455">
        <ele>116</ele>
        <time>2025-12-29T15:01:23.802Z</time>
      </trkpt>
      <trkpt lat="43.12707" lon="3.08455">
        <ele>116</ele>
        <time>2025-12-29T15:01:24.802Z</time>
      </trkpt>
      <trkpt lat="43.12707" lon="3.08455">
        <ele>117</ele>
        <time>2025-12-29T15:01:25.802Z</time>
      </trkpt>
      <trkpt lat="43.12707" lon="3.08455">
        <ele>117</ele>
        <time>2025-12-29T15:01:26.802Z</time>
      </trkpt>
      <trkpt lat="43.12707" lon="3.08455">
        <ele>117</ele>
        <time>2025-12-29T15:01:27.802Z</time>
      </trkpt>
      <trkpt lat="43.12708" lon="3.08455">
        <ele>117</ele>
        <time>2025-12-29T15:01:28.802Z</time>
      </trkpt>
      <trkpt lat="43.12708" lon="3.08455">
        <ele>117</ele>
        <time>2025-12-29T15:01:29.802Z</time>
      </trkpt>
      <trkpt lat="43.12707" lon="3.08455">
        <ele>117</ele>
        <time>2025-12-29T15:01:30.802Z</time>
      </trkpt>
      <trkpt lat="43.12707" lon="3.08455">
        <ele>117</ele>
        <time>2025-12-29T15:01:31.802Z</time>
      </trkpt>
      <trkpt lat="43.12707" lon="3.08455">
        <ele>118</ele>
        <time>2025-12-29T15:01:32.802Z</time>
      </trkpt>
      <trkpt lat="43.12707" lon="3.08455">
        <ele>118</ele>
        <time>2025-12-29T15:01:33.802Z</time>
      </trkpt>
      <trkpt lat="43.12707" lon="3.08455">
        <ele>118</ele>
        <time>2025-12-29T15:01:34.802Z</time>
      </trkpt>
      <trkpt lat="43.12707" lon="3.08455">
        <ele>118</ele>
        <time>2025-12-29T15:01:35.802Z</time>
      </trkpt>
      <trkpt lat="43.12708" lon="3.08456">
        <ele>118</ele>
        <time>2025-12-29T15:01:36.802Z</time>
      </trkpt>
      <trkpt lat="43.12708" lon="3.08456">
        <ele>117</ele>
        <time>2025-12-29T15:01:37.802Z</time>
      </trkpt>
      <trkpt lat="43.12708" lon="3.08456">
        <ele>117</ele>
        <time>2025-12-29T15:01:38.802Z</time>
      </trkpt>
      <trkpt lat="43.12708" lon="3.08456">
        <ele>117</ele>
        <time>2025-12-29T15:01:39.802Z</time>
      </trkpt>
      <trkpt lat="43.12708" lon="3.08456">
        <ele>117</ele>
        <time>2025-12-29T15:01:40.802Z</time>
      </trkpt>
      <trkpt lat="43.12708" lon="3.08456">
        <ele>117</ele>
        <time>2025-12-29T15:01:41.802Z</time>
      </trkpt>
      <trkpt lat="43.12708" lon="3.08456">
        <ele>116</ele>
        <time>2025-12-29T15:01:42.802Z</time>
      </trkpt>
      <trkpt lat="43.12708" lon="3.08456">
        <ele>116</ele>
        <time>2025-12-29T15:01:43.802Z</time>
      </trkpt>
      <trkpt lat="43.12708" lon="3.08456">
        <ele>116</ele>
        <time>2025-12-29T15:01:44.802Z</time>
      </trkpt>
      <trkpt lat="43.12708" lon="3.08456">
        <ele>116</ele>
        <time>2025-12-29T15:01:45.802Z</time>
      </trkpt>
      <trkpt lat="43.12708" lon="3.08457">
        <ele>116</ele>
        <time>2025-12-29T15:01:46.802Z</time>
      </trkpt>
      <trkpt lat="43.12707" lon="3.08456">
        <ele>116</ele>
        <time>2025-12-29T15:01:47.802Z</time>
      </trkpt>
      <trkpt lat="43.12707" lon="3.08456">
        <ele>116</ele>
        <time>2025-12-29T15:01:48.802Z</time>
      </trkpt>
      <trkpt lat="43.12707" lon="3.08456">
        <ele>116</ele>
        <time>2025-12-29T15:01:49.802Z</time>
      </trkpt>
      <trkpt lat="43.12708" lon="3.08455">
        <ele>116</ele>
        <time>2025-12-29T15:01:50.802Z</time>
      </trkpt>
      <trkpt lat="43.12708" lon="3.08455">
        <ele>117</ele>
        <time>2025-12-29T15:01:51.802Z</time>
      </trkpt>
      <trkpt lat="43.12708" lon="3.08455">
        <ele>117</ele>
        <time>2025-12-29T15:01:52.802Z</time>
      </trkpt>
      <trkpt lat="43.12707" lon="3.08455">
        <ele>117</ele>
        <time>2025-12-29T15:01:53.802Z</time>
      </trkpt>
      <trkpt lat="43.12707" lon="3.08455">
        <ele>117</ele>
        <time>2025-12-29T15:01:54.802Z</time>
      </trkpt>
      <trkpt lat="43.12707" lon="3.08456">
        <ele>117</ele>
        <time>2025-12-29T15:01:55.802Z</time>
      </trkpt>
      <trkpt lat="43.12707" lon="3.08456">
        <ele>117</ele>
        <time>2025-12-29T15:01:56.802Z</time>
      </trkpt>
      <trkpt lat="43.12708" lon="3.08456">
        <ele>117</ele>
        <time>2025-12-29T15:01:57.802Z</time>
      </trkpt>
      <trkpt lat="43.12708" lon="3.08457">
        <ele>118</ele>
        <time>2025-12-29T15:01:58.802Z</time>
      </trkpt>
      <trkpt lat="43.12708" lon="3.08458">
        <ele>118</ele>
        <time>2025-12-29T15:01:59.802Z</time>
      </trkpt>
      <trkpt lat="43.12709" lon="3.08458">
        <ele>118</ele>
        <time>2025-12-29T15:02:00.802Z</time>
      </trkpt>
      <trkpt lat="43.12709" lon="3.08458">
        <ele>118</ele>
        <time>2025-12-29T15:02:01.802Z</time>
      </trkpt>
      <trkpt lat="43.1271" lon="3.08459">
        <ele>118</ele>
        <time>2025-12-29T15:02:02.802Z</time>
      </trkpt>
      <trkpt lat="43.12711" lon="3.0846">
        <ele>118</ele>
        <time>2025-12-29T15:02:03.802Z</time>
      </trkpt>
      <trkpt lat="43.12712" lon="3.0846">
        <ele>118</ele>
        <time>2025-12-29T15:02:04.802Z</time>
      </trkpt>
      <trkpt lat="43.12713" lon="3.08461">
        <ele>118</ele>
        <time>2025-12-29T15:02:05.802Z</time>
      </trkpt>
      <trkpt lat="43.12714" lon="3.08461">
        <ele>118</ele>
        <time>2025-12-29T15:02:06.802Z</time>
      </trkpt>
      <trkpt lat="43.12714" lon="3.08462">
        <ele>118</ele>
        <time>2025-12-29T15:02:07.802Z</time>
      </trkpt>
      <trkpt lat="43.12715" lon="3.08463">
        <ele>118</ele>
        <time>2025-12-29T15:02:08.802Z</time>
      </trkpt>
      <trkpt lat="43.12716" lon="3.08465">
        <ele>118</ele>
        <time>2025-12-29T15:02:09.802Z</time>
      </trkpt>
      <trkpt lat="43.12717" lon="3.08467">
        <ele>118</ele>
        <time>2025-12-29T15:02:10.803Z</time>
      </trkpt>
      <trkpt lat="43.12718" lon="3.08468">
        <ele>118</ele>
        <time>2025-12-29T15:02:11.802Z</time>
      </trkpt>
      <trkpt lat="43.12718" lon="3.0847">
        <ele>118</ele>
        <time>2025-12-29T15:02:12.802Z</time>
      </trkpt>
      <trkpt lat="43.12719" lon="3.08471">
        <ele>118</ele>
        <time>2025-12-29T15:02:13.802Z</time>
      </trkpt>
      <trkpt lat="43.1272" lon="3.08473">
        <ele>118</ele>
        <time>2025-12-29T15:02:14.802Z</time>
      </trkpt>
      <trkpt lat="43.1272" lon="3.08476">
        <ele>118</ele>
        <time>2025-12-29T15:02:15.802Z</time>
      </trkpt>
      <trkpt lat="43.12721" lon="3.08477">
        <ele>117</ele>
        <time>2025-12-29T15:02:16.802Z</time>
      </trkpt>
      <trkpt lat="43.12721" lon="3.08478">
        <ele>117</ele>
        <time>2025-12-29T15:02:17.802Z</time>
      </trkpt>
      <trkpt lat="43.12721" lon="3.08479">
        <ele>117</ele>
        <time>2025-12-29T15:02:18.802Z</time>
      </trkpt>
      <trkpt lat="43.12722" lon="3.08481">
        <ele>117</ele>
        <time>2025-12-29T15:02:19.802Z</time>
      </trkpt>
      <trkpt lat="43.12722" lon="3.08482">
        <ele>117</ele>
        <time>2025-12-29T15:02:20.802Z</time>
      </trkpt>
      <trkpt lat="43.12723" lon="3.08483">
        <ele>116</ele>
        <time>2025-12-29T15:02:21.802Z</time>
      </trkpt>
      <trkpt lat="43.12723" lon="3.08485">
        <ele>116</ele>
        <time>2025-12-29T15:02:22.802Z</time>
      </trkpt>
      <trkpt lat="43.12724" lon="3.08486">
        <ele>116</ele>
        <time>2025-12-29T15:02:23.802Z</time>
      </trkpt>
      <trkpt lat="43.12724" lon="3.08488">
        <ele>115</ele>
        <time>2025-12-29T15:02:24.802Z</time>
      </trkpt>
      <trkpt lat="43.12725" lon="3.08489">
        <ele>115</ele>
        <time>2025-12-29T15:02:25.802Z</time>
      </trkpt>
      <trkpt lat="43.12725" lon="3.0849">
        <ele>115</ele>
        <time>2025-12-29T15:02:26.802Z</time>
      </trkpt>
      <trkpt lat="43.12726" lon="3.08491">
        <ele>115</ele>
        <time>2025-12-29T15:02:27.802Z</time>
      </trkpt>
      <trkpt lat="43.12726" lon="3.08493">
        <ele>115</ele>
        <time>2025-12-29T15:02:28.802Z</time>
      </trkpt>
      <trkpt lat="43.12727" lon="3.08494">
        <ele>115</ele>
        <time>2025-12-29T15:02:29.802Z</time>
      </trkpt>
      <trkpt lat="43.12727" lon="3.08496">
        <ele>115</ele>
        <time>2025-12-29T15:02:30.802Z</time>
      </trkpt>
      <trkpt lat="43.12728" lon="3.08497">
        <ele>115</ele>
        <time>2025-12-29T15:02:31.802Z</time>
      </trkpt>
      <trkpt lat="43.12728" lon="3.08498">
        <ele>115</ele>
        <time>2025-12-29T15:02:32.802Z</time>
      </trkpt>
      <trkpt lat="43.12729" lon="3.085">
        <ele>115</ele>
        <time>2025-12-29T15:02:33.802Z</time>
      </trkpt>
      <trkpt lat="43.12729" lon="3.08501">
        <ele>116</ele>
        <time>2025-12-29T15:02:34.802Z</time>
      </trkpt>
      <trkpt lat="43.1273" lon="3.08502">
        <ele>116</ele>
        <time>2025-12-29T15:02:35.802Z</time>
      </trkpt>
      <trkpt lat="43.1273" lon="3.08502">
        <ele>116</ele>
        <time>2025-12-29T15:02:36.802Z</time>
      </trkpt>
      <trkpt lat="43.1273" lon="3.08504">
        <ele>116</ele>
        <time>2025-12-29T15:02:37.802Z</time>
      </trkpt>
      <trkpt lat="43.1273" lon="3.08506">
        <ele>116</ele>
        <time>2025-12-29T15:02:38.802Z</time>
      </trkpt>
      <trkpt lat="43.1273" lon="3.08508">
        <ele>116</ele>
        <time>2025-12-29T15:02:39.802Z</time>
      </trkpt>
      <trkpt lat="43.1273" lon="3.08509">
        <ele>116</ele>
        <time>2025-12-29T15:02:40.802Z</time>
      </trkpt>
      <trkpt lat="43.1273" lon="3.08511">
        <ele>116</ele>
        <time>2025-12-29T15:02:41.802Z</time>
      </trkpt>
      <trkpt lat="43.12729" lon="3.08512">
        <ele>116</ele>
        <time>2025-12-29T15:02:42.802Z</time>
      </trkpt>
      <trkpt lat="43.12729" lon="3.08513">
        <ele>116</ele>
        <time>2025-12-29T15:02:43.802Z</time>
      </trkpt>
      <trkpt lat="43.12729" lon="3.08513">
        <ele>116</ele>
        <time>2025-12-29T15:02:44.802Z</time>
      </trkpt>
      <trkpt lat="43.12729" lon="3.08514">
        <ele>116</ele>
        <time>2025-12-29T15:02:45.802Z</time>
      </trkpt>
      <trkpt lat="43.12729" lon="3.08514">
        <ele>116</ele>
        <time>2025-12-29T15:02:46.802Z</time>
      </trkpt>
      <trkpt lat="43.12729" lon="3.08514">
        <ele>116</ele>
        <time>2025-12-29T15:02:47.802Z</time>
      </trkpt>
      <trkpt lat="43.12729" lon="3.08514">
        <ele>116</ele>
        <time>2025-12-29T15:02:48.802Z</time>
      </trkpt>
      <trkpt lat="43.12729" lon="3.08514">
        <ele>116</ele>
        <time>2025-12-29T15:02:49.802Z</time>
      </trkpt>
      <trkpt lat="43.12729" lon="3.08514">
        <ele>116</ele>
        <time>2025-12-29T15:02:50.802Z</time>
      </trkpt>
      <trkpt lat="43.12729" lon="3.08514">
        <ele>116</ele>
        <time>2025-12-29T15:02:51.802Z</time>
      </trkpt>
      <trkpt lat="43.12729" lon="3.08514">
        <ele>116</ele>
        <time>2025-12-29T15:02:52.802Z</time>
      </trkpt>
      <trkpt lat="43.12729" lon="3.08514">
        <ele>116</ele>
        <time>2025-12-29T15:02:53.802Z</time>
      </trkpt>
      <trkpt lat="43.12729" lon="3.08514">
        <ele>116</ele>
        <time>2025-12-29T15:02:54.802Z</time>
      </trkpt>
      <trkpt lat="43.12729" lon="3.08514">
        <ele>116</ele>
        <time>2025-12-29T15:02:55.802Z</time>
      </trkpt>
      <trkpt lat="43.12729" lon="3.08514">
        <ele>115</ele>
        <time>2025-12-29T15:02:56.802Z</time>
      </trkpt>
      <trkpt lat="43.12729" lon="3.08514">
        <ele>115</ele>
        <time>2025-12-29T15:02:57.802Z</time>
      </trkpt>
      <trkpt lat="43.12729" lon="3.08514">
        <ele>115</ele>
        <time>2025-12-29T15:02:58.802Z</time>
      </trkpt>
      <trkpt lat="43.12729" lon="3.08514">
        <ele>114</ele>
        <time>2025-12-29T15:02:59.802Z</time>
      </trkpt>
      <trkpt lat="43.12729" lon="3.08514">
        <ele>114</ele>
        <time>2025-12-29T15:03:00.802Z</time>
      </trkpt>
      <trkpt lat="43.12729" lon="3.08513">
        <ele>114</ele>
        <time>2025-12-29T15:03:01.802Z</time>
      </trkpt>
      <trkpt lat="43.12729" lon="3.08513">
        <ele>114</ele>
        <time>2025-12-29T15:03:02.802Z</time>
      </trkpt>
      <trkpt lat="43.12729" lon="3.08513">
        <ele>114</ele>
        <time>2025-12-29T15:03:03.802Z</time>
      </trkpt>
      <trkpt lat="43.12729" lon="3.08513">
        <ele>114</ele>
        <time>2025-12-29T15:03:04.802Z</time>
      </trkpt>
      <trkpt lat="43.12729" lon="3.08514">
        <ele>114</ele>
        <time>2025-12-29T15:03:05.802Z</time>
      </trkpt>
      <trkpt lat="43.12729" lon="3.08514">
        <ele>114</ele>
        <time>2025-12-29T15:03:06.802Z</time>
      </trkpt>
      <trkpt lat="43.12729" lon="3.08514">
        <ele>114</ele>
        <time>2025-12-29T15:03:07.802Z</time>
      </trkpt>
      <trkpt lat="43.12729" lon="3.08514">
        <ele>114</ele>
        <time>2025-12-29T15:03:08.802Z</time>
      </trkpt>
      <trkpt lat="43.12729" lon="3.08514">
        <ele>114</ele>
        <time>2025-12-29T15:03:09.802Z</time>
      </trkpt>
      <trkpt lat="43.12729" lon="3.08513">
        <ele>114</ele>
        <time>2025-12-29T15:03:10.802Z</time>
      </trkpt>
      <trkpt lat="43.1273" lon="3.08513">
        <ele>114</ele>
        <time>2025-12-29T15:03:11.802Z</time>
      </trkpt>
      <trkpt lat="43.1273" lon="3.08513">
        <ele>114</ele>
        <time>2025-12-29T15:03:12.802Z</time>
      </trkpt>
      <trkpt lat="43.1273" lon="3.08513">
        <ele>114</ele>
        <time>2025-12-29T15:03:13.802Z</time>
      </trkpt>
      <trkpt lat="43.1273" lon="3.08513">
        <ele>114</ele>
        <time>2025-12-29T15:03:14.802Z</time>
      </trkpt>
      <trkpt lat="43.1273" lon="3.08513">
        <ele>115</ele>
        <time>2025-12-29T15:03:15.802Z</time>
      </trkpt>
      <trkpt lat="43.1273" lon="3.08513">
        <ele>115</ele>
        <time>2025-12-29T15:03:16.802Z</time>
      </trkpt>
      <trkpt lat="43.1273" lon="3.08513">
        <ele>115</ele>
        <time>2025-12-29T15:03:17.802Z</time>
      </trkpt>
      <trkpt lat="43.1273" lon="3.08513">
        <ele>115</ele>
        <time>2025-12-29T15:03:18.802Z</time>
      </trkpt>
      <trkpt lat="43.1273" lon="3.08513">
        <ele>115</ele>
        <time>2025-12-29T15:03:19.802Z</time>
      </trkpt>
      <trkpt lat="43.1273" lon="3.08513">
        <ele>115</ele>
        <time>2025-12-29T15:03:20.802Z</time>
      </trkpt>
      <trkpt lat="43.1273" lon="3.08512">
        <ele>115</ele>
        <time>2025-12-29T15:03:21.802Z</time>
      </trkpt>
      <trkpt lat="43.1273" lon="3.08512">
        <ele>115</ele>
        <time>2025-12-29T15:03:22.802Z</time>
      </trkpt>
      <trkpt lat="43.1273" lon="3.08512">
        <ele>114</ele>
        <time>2025-12-29T15:03:23.802Z</time>
      </trkpt>
      <trkpt lat="43.1273" lon="3.08512">
        <ele>114</ele>
        <time>2025-12-29T15:03:24.802Z</time>
      </trkpt>
      <trkpt lat="43.1273" lon="3.08512">
        <ele>115</ele>
        <time>2025-12-29T15:03:25.802Z</time>
      </trkpt>
      <trkpt lat="43.1273" lon="3.08512">
        <ele>115</ele>
        <time>2025-12-29T15:03:26.802Z</time>
      </trkpt>
      <trkpt lat="43.1273" lon="3.08512">
        <ele>115</ele>
        <time>2025-12-29T15:03:27.802Z</time>
      </trkpt>
      <trkpt lat="43.1273" lon="3.08512">
        <ele>115</ele>
        <time>2025-12-29T15:03:28.802Z</time>
      </trkpt>
      <trkpt lat="43.1273" lon="3.08512">
        <ele>115</ele>
        <time>2025-12-29T15:03:29.802Z</time>
      </trkpt>
      <trkpt lat="43.1273" lon="3.08512">
        <ele>115</ele>
        <time>2025-12-29T15:03:30.802Z</time>
      </trkpt>
      <trkpt lat="43.1273" lon="3.08512">
        <ele>115</ele>
        <time>2025-12-29T15:03:31.802Z</time>
      </trkpt>
      <trkpt lat="43.1273" lon="3.08512">
        <ele>115</ele>
        <time>2025-12-29T15:03:32.802Z</time>
      </trkpt>
      <trkpt lat="43.1273" lon="3.08512">
        <ele>115</ele>
        <time>2025-12-29T15:03:33.802Z</time>
      </trkpt>
      <trkpt lat="43.1273" lon="3.08511">
        <ele>115</ele>
        <time>2025-12-29T15:03:34.802Z</time>
      </trkpt>
      <trkpt lat="43.12731" lon="3.08511">
        <ele>115</ele>
        <time>2025-12-29T15:03:35.802Z</time>
      </trkpt>
      <trkpt lat="43.12731" lon="3.08511">
        <ele>115</ele>
        <time>2025-12-29T15:03:36.802Z</time>
      </trkpt>
      <trkpt lat="43.12731" lon="3.08511">
        <ele>115</ele>
        <time>2025-12-29T15:03:37.802Z</time>
      </trkpt>
      <trkpt lat="43.12731" lon="3.08511">
        <ele>115</ele>
        <time>2025-12-29T15:03:38.802Z</time>
      </trkpt>
      <trkpt lat="43.12731" lon="3.08511">
        <ele>115</ele>
        <time>2025-12-29T15:03:39.802Z</time>
      </trkpt>
      <trkpt lat="43.12731" lon="3.08511">
        <ele>115</ele>
        <time>2025-12-29T15:03:40.802Z</time>
      </trkpt>
      <trkpt lat="43.12731" lon="3.08511">
        <ele>115</ele>
        <time>2025-12-29T15:03:41.802Z</time>
      </trkpt>
      <trkpt lat="43.12731" lon="3.08511">
        <ele>116</ele>
        <time>2025-12-29T15:03:42.802Z</time>
      </trkpt>
      <trkpt lat="43.12731" lon="3.08511">
        <ele>116</ele>
        <time>2025-12-29T15:03:43.802Z</time>
      </trkpt>
      <trkpt lat="43.12731" lon="3.08511">
        <ele>116</ele>
        <time>2025-12-29T15:03:44.802Z</time>
      </trkpt>
      <trkpt lat="43.12731" lon="3.08511">
        <ele>116</ele>
        <time>2025-12-29T15:03:45.802Z</time>
      </trkpt>
      <trkpt lat="43.12731" lon="3.08511">
        <ele>116</ele>
        <time>2025-12-29T15:03:46.802Z</time>
      </trkpt>
      <trkpt lat="43.12731" lon="3.08511">
        <ele>116</ele>
        <time>2025-12-29T15:03:47.802Z</time>
      </trkpt>
      <trkpt lat="43.12731" lon="3.08511">
        <ele>116</ele>
        <time>2025-12-29T15:03:48.802Z</time>
      </trkpt>
      <trkpt lat="43.12731" lon="3.08511">
        <ele>116</ele>
        <time>2025-12-29T15:03:49.802Z</time>
      </trkpt>
      <trkpt lat="43.12731" lon="3.08511">
        <ele>116</ele>
        <time>2025-12-29T15:03:50.802Z</time>
      </trkpt>
      <trkpt lat="43.12731" lon="3.08511">
        <ele>117</ele>
        <time>2025-12-29T15:03:51.802Z</time>
      </trkpt>
      <trkpt lat="43.12731" lon="3.08511">
        <ele>117</ele>
        <time>2025-12-29T15:03:52.802Z</time>
      </trkpt>
      <trkpt lat="43.12731" lon="3.08511">
        <ele>116</ele>
        <time>2025-12-29T15:03:53.802Z</time>
      </trkpt>
      <trkpt lat="43.12731" lon="3.08511">
        <ele>116</ele>
        <time>2025-12-29T15:03:54.802Z</time>
      </trkpt>
      <trkpt lat="43.12731" lon="3.08511">
        <ele>116</ele>
        <time>2025-12-29T15:03:55.802Z</time>
      </trkpt>
      <trkpt lat="43.12731" lon="3.08511">
        <ele>116</ele>
        <time>2025-12-29T15:03:56.802Z</time>
      </trkpt>
      <trkpt lat="43.12731" lon="3.08511">
        <ele>116</ele>
        <time>2025-12-29T15:03:57.802Z</time>
      </trkpt>
      <trkpt lat="43.12731" lon="3.08511">
        <ele>116</ele>
        <time>2025-12-29T15:03:58.802Z</time>
      </trkpt>
      <trkpt lat="43.12731" lon="3.08511">
        <ele>116</ele>
        <time>2025-12-29T15:03:59.802Z</time>
      </trkpt>
      <trkpt lat="43.12731" lon="3.08511">
        <ele>116</ele>
        <time>2025-12-29T15:04:00.802Z</time>
      </trkpt>
      <trkpt lat="43.12731" lon="3.08511">
        <ele>116</ele>
        <time>2025-12-29T15:04:01.802Z</time>
      </trkpt>
      <trkpt lat="43.12731" lon="3.08511">
        <ele>116</ele>
        <time>2025-12-29T15:04:02.802Z</time>
      </trkpt>
      <trkpt lat="43.12731" lon="3.08511">
        <ele>115</ele>
        <time>2025-12-29T15:04:03.802Z</time>
      </trkpt>
      <trkpt lat="43.12731" lon="3.08511">
        <ele>115</ele>
        <time>2025-12-29T15:04:04.802Z</time>
      </trkpt>
      <trkpt lat="43.12731" lon="3.08511">
        <ele>115</ele>
        <time>2025-12-29T15:04:05.802Z</time>
      </trkpt>
      <trkpt lat="43.12731" lon="3.08511">
        <ele>115</ele>
        <time>2025-12-29T15:04:06.802Z</time>
      </trkpt>
      <trkpt lat="43.12731" lon="3.08511">
        <ele>115</ele>
        <time>2025-12-29T15:04:07.802Z</time>
      </trkpt>
      <trkpt lat="43.12731" lon="3.08511">
        <ele>115</ele>
        <time>2025-12-29T15:04:08.802Z</time>
      </trkpt>
      <trkpt lat="43.12731" lon="3.0851">
        <ele>115</ele>
        <time>2025-12-29T15:04:09.802Z</time>
      </trkpt>
      <trkpt lat="43.12731" lon="3.0851">
        <ele>115</ele>
        <time>2025-12-29T15:04:10.802Z</time>
      </trkpt>
      <trkpt lat="43.12731" lon="3.0851">
        <ele>114</ele>
        <time>2025-12-29T15:04:11.802Z</time>
      </trkpt>
      <trkpt lat="43.12731" lon="3.0851">
        <ele>114</ele>
        <time>2025-12-29T15:04:12.802Z</time>
      </trkpt>
      <trkpt lat="43.12731" lon="3.0851">
        <ele>114</ele>
        <time>2025-12-29T15:04:13.802Z</time>
      </trkpt>
      <trkpt lat="43.12731" lon="3.0851">
        <ele>115</ele>
        <time>2025-12-29T15:04:14.802Z</time>
      </trkpt>
      <trkpt lat="43.12731" lon="3.0851">
        <ele>115</ele>
        <time>2025-12-29T15:04:15.802Z</time>
      </trkpt>
      <trkpt lat="43.12731" lon="3.0851">
        <ele>115</ele>
        <time>2025-12-29T15:04:16.802Z</time>
      </trkpt>
      <trkpt lat="43.12731" lon="3.0851">
        <ele>115</ele>
        <time>2025-12-29T15:04:17.802Z</time>
      </trkpt>
      <trkpt lat="43.12731" lon="3.0851">
        <ele>115</ele>
        <time>2025-12-29T15:04:18.802Z</time>
      </trkpt>
      <trkpt lat="43.12731" lon="3.0851">
        <ele>115</ele>
        <time>2025-12-29T15:04:19.802Z</time>
      </trkpt>
      <trkpt lat="43.12731" lon="3.0851">
        <ele>115</ele>
        <time>2025-12-29T15:04:20.802Z</time>
      </trkpt>
      <trkpt lat="43.12731" lon="3.0851">
        <ele>115</ele>
        <time>2025-12-29T15:04:21.802Z</time>
      </trkpt>
      <trkpt lat="43.12731" lon="3.0851">
        <ele>116</ele>
        <time>2025-12-29T15:04:22.802Z</time>
      </trkpt>
      <trkpt lat="43.12732" lon="3.0851">
        <ele>116</ele>
        <time>2025-12-29T15:04:23.802Z</time>
      </trkpt>
      <trkpt lat="43.12732" lon="3.0851">
        <ele>116</ele>
        <time>2025-12-29T15:04:24.802Z</time>
      </trkpt>
      <trkpt lat="43.12732" lon="3.0851">
        <ele>116</ele>
        <time>2025-12-29T15:04:25.802Z</time>
      </trkpt>
      <trkpt lat="43.12732" lon="3.0851">
        <ele>116</ele>
        <time>2025-12-29T15:04:26.802Z</time>
      </trkpt>
      <trkpt lat="43.12733" lon="3.08511">
        <ele>116</ele>
        <time>2025-12-29T15:04:27.802Z</time>
      </trkpt>
      <trkpt lat="43.12733" lon="3.08511">
        <ele>116</ele>
        <time>2025-12-29T15:04:28.802Z</time>
      </trkpt>
      <trkpt lat="43.12734" lon="3.08511">
        <ele>116</ele>
        <time>2025-12-29T15:04:29.802Z</time>
      </trkpt>
      <trkpt lat="43.12735" lon="3.08512">
        <ele>117</ele>
        <time>2025-12-29T15:04:30.802Z</time>
      </trkpt>
      <trkpt lat="43.12736" lon="3.08512">
        <ele>117</ele>
        <time>2025-12-29T15:04:31.802Z</time>
      </trkpt>
      <trkpt lat="43.12737" lon="3.08513">
        <ele>118</ele>
        <time>2025-12-29T15:04:32.802Z</time>
      </trkpt>
      <trkpt lat="43.12738" lon="3.08513">
        <ele>118</ele>
        <time>2025-12-29T15:04:33.802Z</time>
      </trkpt>
      <trkpt lat="43.1274" lon="3.08513">
        <ele>119</ele>
        <time>2025-12-29T15:04:34.802Z</time>
      </trkpt>
      <trkpt lat="43.12741" lon="3.08514">
        <ele>119</ele>
        <time>2025-12-29T15:04:35.802Z</time>
      </trkpt>
      <trkpt lat="43.12742" lon="3.08515">
        <ele>119</ele>
        <time>2025-12-29T15:04:36.802Z</time>
      </trkpt>
      <trkpt lat="43.12743" lon="3.08516">
        <ele>119</ele>
        <time>2025-12-29T15:04:37.802Z</time>
      </trkpt>
      <trkpt lat="43.12744" lon="3.08517">
        <ele>120</ele>
        <time>2025-12-29T15:04:38.802Z</time>
      </trkpt>
      <trkpt lat="43.12745" lon="3.08518">
        <ele>120</ele>
        <time>2025-12-29T15:04:39.802Z</time>
      </trkpt>
      <trkpt lat="43.12746" lon="3.08518">
        <ele>119</ele>
        <time>2025-12-29T15:04:40.802Z</time>
      </trkpt>
      <trkpt lat="43.12747" lon="3.08519">
        <ele>119</ele>
        <time>2025-12-29T15:04:41.802Z</time>
      </trkpt>
      <trkpt lat="43.12747" lon="3.0852">
        <ele>119</ele>
        <time>2025-12-29T15:04:42.802Z</time>
      </trkpt>
      <trkpt lat="43.12748" lon="3.0852">
        <ele>119</ele>
        <time>2025-12-29T15:04:43.802Z</time>
      </trkpt>
      <trkpt lat="43.12749" lon="3.08522">
        <ele>118</ele>
        <time>2025-12-29T15:04:44.802Z</time>
      </trkpt>
      <trkpt lat="43.12749" lon="3.08523">
        <ele>118</ele>
        <time>2025-12-29T15:04:45.802Z</time>
      </trkpt>
      <trkpt lat="43.1275" lon="3.08524">
        <ele>118</ele>
        <time>2025-12-29T15:04:46.802Z</time>
      </trkpt>
      <trkpt lat="43.1275" lon="3.08526">
        <ele>118</ele>
        <time>2025-12-29T15:04:47.802Z</time>
      </trkpt>
      <trkpt lat="43.12751" lon="3.08528">
        <ele>118</ele>
        <time>2025-12-29T15:04:48.802Z</time>
      </trkpt>
      <trkpt lat="43.12751" lon="3.0853">
        <ele>118</ele>
        <time>2025-12-29T15:04:49.802Z</time>
      </trkpt>
      <trkpt lat="43.12752" lon="3.08532">
        <ele>118</ele>
        <time>2025-12-29T15:04:50.802Z</time>
      </trkpt>
      <trkpt lat="43.12753" lon="3.08533">
        <ele>117</ele>
        <time>2025-12-29T15:04:51.802Z</time>
      </trkpt>
      <trkpt lat="43.12753" lon="3.08535">
        <ele>117</ele>
        <time>2025-12-29T15:04:52.802Z</time>
      </trkpt>
      <trkpt lat="43.12753" lon="3.08536">
        <ele>117</ele>
        <time>2025-12-29T15:04:53.802Z</time>
      </trkpt>
      <trkpt lat="43.12753" lon="3.08537">
        <ele>117</ele>
        <time>2025-12-29T15:04:54.802Z</time>
      </trkpt>
      <trkpt lat="43.12754" lon="3.08539">
        <ele>117</ele>
        <time>2025-12-29T15:04:55.802Z</time>
      </trkpt>
      <trkpt lat="43.12754" lon="3.0854">
        <ele>118</ele>
        <time>2025-12-29T15:04:56.802Z</time>
      </trkpt>
      <trkpt lat="43.12754" lon="3.08541">
        <ele>117</ele>
        <time>2025-12-29T15:04:57.802Z</time>
      </trkpt>
      <trkpt lat="43.12754" lon="3.08542">
        <ele>117</ele>
        <time>2025-12-29T15:04:58.802Z</time>
      </trkpt>
      <trkpt lat="43.12754" lon="3.08544">
        <ele>117</ele>
        <time>2025-12-29T15:04:59.802Z</time>
      </trkpt>
      <trkpt lat="43.12755" lon="3.08546">
        <ele>117</ele>
        <time>2025-12-29T15:05:00.802Z</time>
      </trkpt>
      <trkpt lat="43.12755" lon="3.08547">
        <ele>117</ele>
        <time>2025-12-29T15:05:01.802Z</time>
      </trkpt>
      <trkpt lat="43.12755" lon="3.08548">
        <ele>117</ele>
        <time>2025-12-29T15:05:02.802Z</time>
      </trkpt>
      <trkpt lat="43.12755" lon="3.08549">
        <ele>117</ele>
        <time>2025-12-29T15:05:03.802Z</time>
      </trkpt>
      <trkpt lat="43.12756" lon="3.0855">
        <ele>117</ele>
        <time>2025-12-29T15:05:04.802Z</time>
      </trkpt>
      <trkpt lat="43.12756" lon="3.0855">
        <ele>117</ele>
        <time>2025-12-29T15:05:05.802Z</time>
      </trkpt>
      <trkpt lat="43.12756" lon="3.08551">
        <ele>117</ele>
        <time>2025-12-29T15:05:06.802Z</time>
      </trkpt>
      <trkpt lat="43.12756" lon="3.08552">
        <ele>117</ele>
        <time>2025-12-29T15:05:07.802Z</time>
      </trkpt>
      <trkpt lat="43.12756" lon="3.08554">
        <ele>117</ele>
        <time>2025-12-29T15:05:08.802Z</time>
      </trkpt>
      <trkpt lat="43.12756" lon="3.08556">
        <ele>117</ele>
        <time>2025-12-29T15:05:09.802Z</time>
      </trkpt>
      <trkpt lat="43.12756" lon="3.08557">
        <ele>117</ele>
        <time>2025-12-29T15:05:10.802Z</time>
      </trkpt>
      <trkpt lat="43.12756" lon="3.08559">
        <ele>117</ele>
        <time>2025-12-29T15:05:11.802Z</time>
      </trkpt>
      <trkpt lat="43.12756" lon="3.0856">
        <ele>117</ele>
        <time>2025-12-29T15:05:12.802Z</time>
      </trkpt>
      <trkpt lat="43.12757" lon="3.08562">
        <ele>117</ele>
        <time>2025-12-29T15:05:13.802Z</time>
      </trkpt>
      <trkpt lat="43.12757" lon="3.08563">
        <ele>117</ele>
        <time>2025-12-29T15:05:14.802Z</time>
      </trkpt>
      <trkpt lat="43.12757" lon="3.08565">
        <ele>117</ele>
        <time>2025-12-29T15:05:15.802Z</time>
      </trkpt>
      <trkpt lat="43.12757" lon="3.08567">
        <ele>118</ele>
        <time>2025-12-29T15:05:16.802Z</time>
      </trkpt>
      <trkpt lat="43.12757" lon="3.08569">
        <ele>118</ele>
        <time>2025-12-29T15:05:17.802Z</time>
      </trkpt>
      <trkpt lat="43.12757" lon="3.08571">
        <ele>118</ele>
        <time>2025-12-29T15:05:18.802Z</time>
      </trkpt>
      <trkpt lat="43.12758" lon="3.08573">
        <ele>118</ele>
        <time>2025-12-29T15:05:19.802Z</time>
      </trkpt>
      <trkpt lat="43.12758" lon="3.08576">
        <ele>118</ele>
        <time>2025-12-29T15:05:20.802Z</time>
      </trkpt>
      <trkpt lat="43.12758" lon="3.08578">
        <ele>118</ele>
        <time>2025-12-29T15:05:21.802Z</time>
      </trkpt>
      <trkpt lat="43.12759" lon="3.08579">
        <ele>118</ele>
        <time>2025-12-29T15:05:22.802Z</time>
      </trkpt>
      <trkpt lat="43.12759" lon="3.0858">
        <ele>118</ele>
        <time>2025-12-29T15:05:23.802Z</time>
      </trkpt>
      <trkpt lat="43.1276" lon="3.08581">
        <ele>117</ele>
        <time>2025-12-29T15:05:24.802Z</time>
      </trkpt>
      <trkpt lat="43.12761" lon="3.08582">
        <ele>117</ele>
        <time>2025-12-29T15:05:25.802Z</time>
      </trkpt>
      <trkpt lat="43.12761" lon="3.08584">
        <ele>117</ele>
        <time>2025-12-29T15:05:26.802Z</time>
      </trkpt>
      <trkpt lat="43.12762" lon="3.08585">
        <ele>117</ele>
        <time>2025-12-29T15:05:27.802Z</time>
      </trkpt>
      <trkpt lat="43.12763" lon="3.08587">
        <ele>117</ele>
        <time>2025-12-29T15:05:28.802Z</time>
      </trkpt>
      <trkpt lat="43.12764" lon="3.08588">
        <ele>117</ele>
        <time>2025-12-29T15:05:29.802Z</time>
      </trkpt>
      <trkpt lat="43.12764" lon="3.08589">
        <ele>117</ele>
        <time>2025-12-29T15:05:30.802Z</time>
      </trkpt>
      <trkpt lat="43.12765" lon="3.0859">
        <ele>116</ele>
        <time>2025-12-29T15:05:31.802Z</time>
      </trkpt>
      <trkpt lat="43.12766" lon="3.08591">
        <ele>116</ele>
        <time>2025-12-29T15:05:32.802Z</time>
      </trkpt>
      <trkpt lat="43.12766" lon="3.08592">
        <ele>116</ele>
        <time>2025-12-29T15:05:33.802Z</time>
      </trkpt>
      <trkpt lat="43.12767" lon="3.08593">
        <ele>116</ele>
        <time>2025-12-29T15:05:34.802Z</time>
      </trkpt>
      <trkpt lat="43.12768" lon="3.08595">
        <ele>116</ele>
        <time>2025-12-29T15:05:35.802Z</time>
      </trkpt>
      <trkpt lat="43.12769" lon="3.08596">
        <ele>116</ele>
        <time>2025-12-29T15:05:36.802Z</time>
      </trkpt>
      <trkpt lat="43.1277" lon="3.08598">
        <ele>116</ele>
        <time>2025-12-29T15:05:37.802Z</time>
      </trkpt>
      <trkpt lat="43.1277" lon="3.08599">
        <ele>116</ele>
        <time>2025-12-29T15:05:38.802Z</time>
      </trkpt>
      <trkpt lat="43.12771" lon="3.086">
        <ele>116</ele>
        <time>2025-12-29T15:05:39.802Z</time>
      </trkpt>
      <trkpt lat="43.12772" lon="3.08602">
        <ele>115</ele>
        <time>2025-12-29T15:05:40.802Z</time>
      </trkpt>
      <trkpt lat="43.12772" lon="3.08603">
        <ele>115</ele>
        <time>2025-12-29T15:05:41.802Z</time>
      </trkpt>
      <trkpt lat="43.12773" lon="3.08605">
        <ele>115</ele>
        <time>2025-12-29T15:05:42.802Z</time>
      </trkpt>
      <trkpt lat="43.12773" lon="3.08606">
        <ele>115</ele>
        <time>2025-12-29T15:05:43.802Z</time>
      </trkpt>
      <trkpt lat="43.12774" lon="3.08607">
        <ele>114</ele>
        <time>2025-12-29T15:05:44.802Z</time>
      </trkpt>
      <trkpt lat="43.12774" lon="3.08609">
        <ele>114</ele>
        <time>2025-12-29T15:05:45.802Z</time>
      </trkpt>
      <trkpt lat="43.12774" lon="3.08611">
        <ele>115</ele>
        <time>2025-12-29T15:05:46.802Z</time>
      </trkpt>
      <trkpt lat="43.12774" lon="3.08612">
        <ele>115</ele>
        <time>2025-12-29T15:05:47.802Z</time>
      </trkpt>
      <trkpt lat="43.12775" lon="3.08613">
        <ele>115</ele>
        <time>2025-12-29T15:05:48.802Z</time>
      </trkpt>
      <trkpt lat="43.12776" lon="3.08614">
        <ele>114</ele>
        <time>2025-12-29T15:05:49.802Z</time>
      </trkpt>
      <trkpt lat="43.12777" lon="3.08615">
        <ele>114</ele>
        <time>2025-12-29T15:05:50.802Z</time>
      </trkpt>
      <trkpt lat="43.12778" lon="3.08616">
        <ele>114</ele>
        <time>2025-12-29T15:05:51.802Z</time>
      </trkpt>
      <trkpt lat="43.12779" lon="3.08618">
        <ele>114</ele>
        <time>2025-12-29T15:05:52.802Z</time>
      </trkpt>
      <trkpt lat="43.1278" lon="3.08619">
        <ele>113</ele>
        <time>2025-12-29T15:05:53.802Z</time>
      </trkpt>
      <trkpt lat="43.12781" lon="3.0862">
        <ele>113</ele>
        <time>2025-12-29T15:05:54.802Z</time>
      </trkpt>
      <trkpt lat="43.12782" lon="3.08621">
        <ele>113</ele>
        <time>2025-12-29T15:05:55.802Z</time>
      </trkpt>
      <trkpt lat="43.12784" lon="3.08622">
        <ele>113</ele>
        <time>2025-12-29T15:05:56.802Z</time>
      </trkpt>
      <trkpt lat="43.12785" lon="3.08623">
        <ele>113</ele>
        <time>2025-12-29T15:05:57.802Z</time>
      </trkpt>
      <trkpt lat="43.12785" lon="3.08624">
        <ele>113</ele>
        <time>2025-12-29T15:05:58.802Z</time>
      </trkpt>
      <trkpt lat="43.12786" lon="3.08624">
        <ele>113</ele>
        <time>2025-12-29T15:05:59.802Z</time>
      </trkpt>
      <trkpt lat="43.12786" lon="3.08624">
        <ele>113</ele>
        <time>2025-12-29T15:06:00.802Z</time>
      </trkpt>
      <trkpt lat="43.12786" lon="3.08625">
        <ele>112</ele>
        <time>2025-12-29T15:06:01.802Z</time>
      </trkpt>
      <trkpt lat="43.12786" lon="3.08625">
        <ele>112</ele>
        <time>2025-12-29T15:06:02.802Z</time>
      </trkpt>
      <trkpt lat="43.12786" lon="3.08625">
        <ele>112</ele>
        <time>2025-12-29T15:06:03.802Z</time>
      </trkpt>
      <trkpt lat="43.12786" lon="3.08625">
        <ele>112</ele>
        <time>2025-12-29T15:06:04.802Z</time>
      </trkpt>
      <trkpt lat="43.12786" lon="3.08624">
        <ele>112</ele>
        <time>2025-12-29T15:06:05.802Z</time>
      </trkpt>
      <trkpt lat="43.12786" lon="3.08624">
        <ele>113</ele>
        <time>2025-12-29T15:06:06.802Z</time>
      </trkpt>
      <trkpt lat="43.12786" lon="3.08624">
        <ele>113</ele>
        <time>2025-12-29T15:06:07.802Z</time>
      </trkpt>
      <trkpt lat="43.12786" lon="3.08624">
        <ele>114</ele>
        <time>2025-12-29T15:06:08.802Z</time>
      </trkpt>
      <trkpt lat="43.12786" lon="3.08624">
        <ele>114</ele>
        <time>2025-12-29T15:06:09.802Z</time>
      </trkpt>
      <trkpt lat="43.12786" lon="3.08624">
        <ele>114</ele>
        <time>2025-12-29T15:06:10.802Z</time>
      </trkpt>
      <trkpt lat="43.12786" lon="3.08624">
        <ele>114</ele>
        <time>2025-12-29T15:06:11.802Z</time>
      </trkpt>
      <trkpt lat="43.12786" lon="3.08624">
        <ele>114</ele>
        <time>2025-12-29T15:06:12.802Z</time>
      </trkpt>
      <trkpt lat="43.12786" lon="3.08625">
        <ele>114</ele>
        <time>2025-12-29T15:06:13.802Z</time>
      </trkpt>
      <trkpt lat="43.12787" lon="3.08625">
        <ele>114</ele>
        <time>2025-12-29T15:06:14.802Z</time>
      </trkpt>
      <trkpt lat="43.12788" lon="3.08626">
        <ele>115</ele>
        <time>2025-12-29T15:06:15.802Z</time>
      </trkpt>
      <trkpt lat="43.12789" lon="3.08626">
        <ele>115</ele>
        <time>2025-12-29T15:06:16.802Z</time>
      </trkpt>
      <trkpt lat="43.1279" lon="3.08627">
        <ele>115</ele>
        <time>2025-12-29T15:06:17.802Z</time>
      </trkpt>
      <trkpt lat="43.12791" lon="3.08628">
        <ele>114</ele>
        <time>2025-12-29T15:06:18.802Z</time>
      </trkpt>
      <trkpt lat="43.12792" lon="3.08629">
        <ele>114</ele>
        <time>2025-12-29T15:06:19.802Z</time>
      </trkpt>
      <trkpt lat="43.12793" lon="3.08629">
        <ele>114</ele>
        <time>2025-12-29T15:06:20.802Z</time>
      </trkpt>
      <trkpt lat="43.12794" lon="3.08629">
        <ele>114</ele>
        <time>2025-12-29T15:06:21.802Z</time>
      </trkpt>
      <trkpt lat="43.12795" lon="3.0863">
        <ele>114</ele>
        <time>2025-12-29T15:06:22.802Z</time>
      </trkpt>
      <trkpt lat="43.12795" lon="3.0863">
        <ele>114</ele>
        <time>2025-12-29T15:06:23.802Z</time>
      </trkpt>
      <trkpt lat="43.12796" lon="3.0863">
        <ele>114</ele>
        <time>2025-12-29T15:06:24.802Z</time>
      </trkpt>
      <trkpt lat="43.12797" lon="3.0863">
        <ele>114</ele>
        <time>2025-12-29T15:06:25.802Z</time>
      </trkpt>
      <trkpt lat="43.12799" lon="3.08631">
        <ele>114</ele>
        <time>2025-12-29T15:06:26.802Z</time>
      </trkpt>
      <trkpt lat="43.128" lon="3.08631">
        <ele>114</ele>
        <time>2025-12-29T15:06:27.802Z</time>
      </trkpt>
      <trkpt lat="43.12801" lon="3.08631">
        <ele>114</ele>
        <time>2025-12-29T15:06:28.802Z</time>
      </trkpt>
      <trkpt lat="43.12803" lon="3.08632">
        <ele>114</ele>
        <time>2025-12-29T15:06:29.802Z</time>
      </trkpt>
      <trkpt lat="43.12804" lon="3.08633">
        <ele>114</ele>
        <time>2025-12-29T15:06:30.802Z</time>
      </trkpt>
      <trkpt lat="43.12806" lon="3.08633">
        <ele>114</ele>
        <time>2025-12-29T15:06:31.802Z</time>
      </trkpt>
      <trkpt lat="43.12807" lon="3.08633">
        <ele>114</ele>
        <time>2025-12-29T15:06:32.802Z</time>
      </trkpt>
      <trkpt lat="43.12808" lon="3.08633">
        <ele>114</ele>
        <time>2025-12-29T15:06:33.802Z</time>
      </trkpt>
      <trkpt lat="43.12809" lon="3.08633">
        <ele>113</ele>
        <time>2025-12-29T15:06:34.802Z</time>
      </trkpt>
      <trkpt lat="43.1281" lon="3.08633">
        <ele>113</ele>
        <time>2025-12-29T15:06:35.802Z</time>
      </trkpt>
      <trkpt lat="43.12811" lon="3.08633">
        <ele>113</ele>
        <time>2025-12-29T15:06:36.802Z</time>
      </trkpt>
      <trkpt lat="43.12812" lon="3.08632">
        <ele>114</ele>
        <time>2025-12-29T15:06:37.802Z</time>
      </trkpt>
      <trkpt lat="43.12813" lon="3.08632">
        <ele>114</ele>
        <time>2025-12-29T15:06:38.802Z</time>
      </trkpt>
      <trkpt lat="43.12815" lon="3.08632">
        <ele>114</ele>
        <time>2025-12-29T15:06:39.802Z</time>
      </trkpt>
      <trkpt lat="43.12816" lon="3.08633">
        <ele>114</ele>
        <time>2025-12-29T15:06:40.802Z</time>
      </trkpt>
      <trkpt lat="43.12817" lon="3.08633">
        <ele>114</ele>
        <time>2025-12-29T15:06:41.802Z</time>
      </trkpt>
      <trkpt lat="43.12819" lon="3.08634">
        <ele>114</ele>
        <time>2025-12-29T15:06:42.802Z</time>
      </trkpt>
      <trkpt lat="43.1282" lon="3.08634">
        <ele>115</ele>
        <time>2025-12-29T15:06:43.802Z</time>
      </trkpt>
      <trkpt lat="43.12821" lon="3.08635">
        <ele>115</ele>
        <time>2025-12-29T15:06:44.802Z</time>
      </trkpt>
      <trkpt lat="43.12823" lon="3.08635">
        <ele>115</ele>
        <time>2025-12-29T15:06:45.802Z</time>
      </trkpt>
      <trkpt lat="43.12824" lon="3.08636">
        <ele>115</ele>
        <time>2025-12-29T15:06:46.802Z</time>
      </trkpt>
      <trkpt lat="43.12825" lon="3.08636">
        <ele>115</ele>
        <time>2025-12-29T15:06:47.802Z</time>
      </trkpt>
      <trkpt lat="43.12826" lon="3.08637">
        <ele>114</ele>
        <time>2025-12-29T15:06:48.802Z</time>
      </trkpt>
      <trkpt lat="43.12828" lon="3.08638">
        <ele>114</ele>
        <time>2025-12-29T15:06:49.802Z</time>
      </trkpt>
      <trkpt lat="43.12829" lon="3.08639">
        <ele>114</ele>
        <time>2025-12-29T15:06:50.802Z</time>
      </trkpt>
      <trkpt lat="43.1283" lon="3.0864">
        <ele>114</ele>
        <time>2025-12-29T15:06:51.802Z</time>
      </trkpt>
      <trkpt lat="43.12831" lon="3.0864">
        <ele>114</ele>
        <time>2025-12-29T15:06:52.802Z</time>
      </trkpt>
      <trkpt lat="43.12832" lon="3.08641">
        <ele>114</ele>
        <time>2025-12-29T15:06:53.802Z</time>
      </trkpt>
      <trkpt lat="43.12833" lon="3.08642">
        <ele>114</ele>
        <time>2025-12-29T15:06:54.802Z</time>
      </trkpt>
      <trkpt lat="43.12834" lon="3.08642">
        <ele>114</ele>
        <time>2025-12-29T15:06:55.802Z</time>
      </trkpt>
      <trkpt lat="43.12835" lon="3.08643">
        <ele>114</ele>
        <time>2025-12-29T15:06:56.802Z</time>
      </trkpt>
      <trkpt lat="43.12837" lon="3.08644">
        <ele>114</ele>
        <time>2025-12-29T15:06:57.802Z</time>
      </trkpt>
      <trkpt lat="43.12838" lon="3.08644">
        <ele>114</ele>
        <time>2025-12-29T15:06:58.802Z</time>
      </trkpt>
      <trkpt lat="43.1284" lon="3.08645">
        <ele>114</ele>
        <time>2025-12-29T15:06:59.802Z</time>
      </trkpt>
      <trkpt lat="43.12841" lon="3.08646">
        <ele>114</ele>
        <time>2025-12-29T15:07:00.802Z</time>
      </trkpt>
      <trkpt lat="43.12843" lon="3.08646">
        <ele>114</ele>
        <time>2025-12-29T15:07:01.802Z</time>
      </trkpt>
      <trkpt lat="43.12844" lon="3.08647">
        <ele>114</ele>
        <time>2025-12-29T15:07:02.802Z</time>
      </trkpt>
      <trkpt lat="43.12846" lon="3.08647">
        <ele>114</ele>
        <time>2025-12-29T15:07:03.802Z</time>
      </trkpt>
      <trkpt lat="43.12847" lon="3.08647">
        <ele>114</ele>
        <time>2025-12-29T15:07:04.802Z</time>
      </trkpt>
      <trkpt lat="43.12848" lon="3.08647">
        <ele>114</ele>
        <time>2025-12-29T15:07:05.802Z</time>
      </trkpt>
      <trkpt lat="43.1285" lon="3.08647">
        <ele>114</ele>
        <time>2025-12-29T15:07:06.802Z</time>
      </trkpt>
      <trkpt lat="43.12851" lon="3.08647">
        <ele>115</ele>
        <time>2025-12-29T15:07:07.802Z</time>
      </trkpt>
      <trkpt lat="43.12852" lon="3.08647">
        <ele>114</ele>
        <time>2025-12-29T15:07:08.802Z</time>
      </trkpt>
      <trkpt lat="43.12852" lon="3.08647">
        <ele>114</ele>
        <time>2025-12-29T15:07:09.802Z</time>
      </trkpt>
      <trkpt lat="43.12853" lon="3.08646">
        <ele>114</ele>
        <time>2025-12-29T15:07:10.802Z</time>
      </trkpt>
      <trkpt lat="43.12855" lon="3.08646">
        <ele>113</ele>
        <time>2025-12-29T15:07:11.802Z</time>
      </trkpt>
      <trkpt lat="43.12856" lon="3.08646">
        <ele>113</ele>
        <time>2025-12-29T15:07:12.802Z</time>
      </trkpt>
      <trkpt lat="43.12858" lon="3.08646">
        <ele>114</ele>
        <time>2025-12-29T15:07:13.802Z</time>
      </trkpt>
      <trkpt lat="43.12859" lon="3.08646">
        <ele>114</ele>
        <time>2025-12-29T15:07:14.802Z</time>
      </trkpt>
      <trkpt lat="43.1286" lon="3.08646">
        <ele>115</ele>
        <time>2025-12-29T15:07:15.802Z</time>
      </trkpt>
      <trkpt lat="43.12862" lon="3.08647">
        <ele>115</ele>
        <time>2025-12-29T15:07:16.802Z</time>
      </trkpt>
      <trkpt lat="43.12863" lon="3.08647">
        <ele>115</ele>
        <time>2025-12-29T15:07:17.802Z</time>
      </trkpt>
      <trkpt lat="43.12864" lon="3.08647">
        <ele>115</ele>
        <time>2025-12-29T15:07:18.802Z</time>
      </trkpt>
      <trkpt lat="43.12864" lon="3.08647">
        <ele>115</ele>
        <time>2025-12-29T15:07:19.802Z</time>
      </trkpt>
      <trkpt lat="43.12864" lon="3.08647">
        <ele>115</ele>
        <time>2025-12-29T15:07:20.802Z</time>
      </trkpt>
      <trkpt lat="43.12864" lon="3.08647">
        <ele>115</ele>
        <time>2025-12-29T15:07:21.802Z</time>
      </trkpt>
      <trkpt lat="43.12865" lon="3.08647">
        <ele>115</ele>
        <time>2025-12-29T15:07:22.802Z</time>
      </trkpt>
      <trkpt lat="43.12865" lon="3.08647">
        <ele>114</ele>
        <time>2025-12-29T15:07:23.802Z</time>
      </trkpt>
      <trkpt lat="43.12865" lon="3.08647">
        <ele>114</ele>
        <time>2025-12-29T15:07:24.802Z</time>
      </trkpt>
      <trkpt lat="43.12866" lon="3.08647">
        <ele>114</ele>
        <time>2025-12-29T15:07:25.802Z</time>
      </trkpt>
      <trkpt lat="43.12867" lon="3.08647">
        <ele>114</ele>
        <time>2025-12-29T15:07:26.802Z</time>
      </trkpt>
      <trkpt lat="43.12867" lon="3.08647">
        <ele>114</ele>
        <time>2025-12-29T15:07:27.802Z</time>
      </trkpt>
      <trkpt lat="43.12868" lon="3.08648">
        <ele>115</ele>
        <time>2025-12-29T15:07:28.802Z</time>
      </trkpt>
      <trkpt lat="43.12869" lon="3.08648">
        <ele>115</ele>
        <time>2025-12-29T15:07:29.802Z</time>
      </trkpt>
      <trkpt lat="43.1287" lon="3.08648">
        <ele>115</ele>
        <time>2025-12-29T15:07:30.802Z</time>
      </trkpt>
      <trkpt lat="43.12871" lon="3.08648">
        <ele>115</ele>
        <time>2025-12-29T15:07:31.802Z</time>
      </trkpt>
      <trkpt lat="43.12871" lon="3.08649">
        <ele>115</ele>
        <time>2025-12-29T15:07:32.802Z</time>
      </trkpt>
      <trkpt lat="43.12872" lon="3.08649">
        <ele>115</ele>
        <time>2025-12-29T15:07:33.802Z</time>
      </trkpt>
      <trkpt lat="43.12872" lon="3.08649">
        <ele>115</ele>
        <time>2025-12-29T15:07:34.802Z</time>
      </trkpt>
      <trkpt lat="43.12872" lon="3.08648">
        <ele>115</ele>
        <time>2025-12-29T15:07:35.802Z</time>
      </trkpt>
      <trkpt lat="43.12872" lon="3.08648">
        <ele>115</ele>
        <time>2025-12-29T15:07:36.802Z</time>
      </trkpt>
      <trkpt lat="43.12872" lon="3.08648">
        <ele>115</ele>
        <time>2025-12-29T15:07:37.802Z</time>
      </trkpt>
      <trkpt lat="43.12872" lon="3.08647">
        <ele>115</ele>
        <time>2025-12-29T15:07:38.802Z</time>
      </trkpt>
      <trkpt lat="43.12872" lon="3.08647">
        <ele>115</ele>
        <time>2025-12-29T15:07:39.802Z</time>
      </trkpt>
      <trkpt lat="43.12872" lon="3.08647">
        <ele>115</ele>
        <time>2025-12-29T15:07:40.802Z</time>
      </trkpt>
      <trkpt lat="43.12872" lon="3.08647">
        <ele>114</ele>
        <time>2025-12-29T15:07:41.802Z</time>
      </trkpt>
      <trkpt lat="43.12872" lon="3.08647">
        <ele>114</ele>
        <time>2025-12-29T15:07:42.802Z</time>
      </trkpt>
      <trkpt lat="43.12872" lon="3.08647">
        <ele>113</ele>
        <time>2025-12-29T15:07:43.802Z</time>
      </trkpt>
      <trkpt lat="43.12872" lon="3.08647">
        <ele>113</ele>
        <time>2025-12-29T15:07:44.802Z</time>
      </trkpt>
      <trkpt lat="43.12871" lon="3.08646">
        <ele>112</ele>
        <time>2025-12-29T15:07:45.802Z</time>
      </trkpt>
      <trkpt lat="43.12871" lon="3.08646">
        <ele>112</ele>
        <time>2025-12-29T15:07:46.802Z</time>
      </trkpt>
      <trkpt lat="43.12871" lon="3.08647">
        <ele>112</ele>
        <time>2025-12-29T15:07:47.802Z</time>
      </trkpt>
      <trkpt lat="43.12871" lon="3.08647">
        <ele>112</ele>
        <time>2025-12-29T15:07:48.802Z</time>
      </trkpt>
      <trkpt lat="43.12871" lon="3.08647">
        <ele>112</ele>
        <time>2025-12-29T15:07:49.802Z</time>
      </trkpt>
      <trkpt lat="43.12871" lon="3.08646">
        <ele>112</ele>
        <time>2025-12-29T15:07:50.802Z</time>
      </trkpt>
      <trkpt lat="43.1287" lon="3.08646">
        <ele>112</ele>
        <time>2025-12-29T15:07:51.802Z</time>
      </trkpt>
      <trkpt lat="43.1287" lon="3.08646">
        <ele>112</ele>
        <time>2025-12-29T15:07:52.802Z</time>
      </trkpt>
      <trkpt lat="43.12869" lon="3.08646">
        <ele>112</ele>
        <time>2025-12-29T15:07:53.802Z</time>
      </trkpt>
      <trkpt lat="43.12869" lon="3.08646">
        <ele>112</ele>
        <time>2025-12-29T15:07:54.802Z</time>
      </trkpt>
      <trkpt lat="43.12869" lon="3.08646">
        <ele>112</ele>
        <time>2025-12-29T15:07:55.802Z</time>
      </trkpt>
      <trkpt lat="43.12869" lon="3.08646">
        <ele>112</ele>
        <time>2025-12-29T15:07:56.802Z</time>
      </trkpt>
      <trkpt lat="43.1287" lon="3.08646">
        <ele>112</ele>
        <time>2025-12-29T15:07:57.802Z</time>
      </trkpt>
      <trkpt lat="43.1287" lon="3.08646">
        <ele>112</ele>
        <time>2025-12-29T15:07:58.802Z</time>
      </trkpt>
      <trkpt lat="43.12871" lon="3.08646">
        <ele>112</ele>
        <time>2025-12-29T15:07:59.802Z</time>
      </trkpt>
      <trkpt lat="43.12871" lon="3.08646">
        <ele>112</ele>
        <time>2025-12-29T15:08:00.802Z</time>
      </trkpt>
      <trkpt lat="43.12871" lon="3.08646">
        <ele>112</ele>
        <time>2025-12-29T15:08:01.802Z</time>
      </trkpt>
      <trkpt lat="43.12871" lon="3.08646">
        <ele>113</ele>
        <time>2025-12-29T15:08:02.802Z</time>
      </trkpt>
      <trkpt lat="43.12871" lon="3.08645">
        <ele>113</ele>
        <time>2025-12-29T15:08:03.802Z</time>
      </trkpt>
      <trkpt lat="43.12871" lon="3.08645">
        <ele>113</ele>
        <time>2025-12-29T15:08:04.802Z</time>
      </trkpt>
      <trkpt lat="43.12872" lon="3.08645">
        <ele>114</ele>
        <time>2025-12-29T15:08:05.802Z</time>
      </trkpt>
      <trkpt lat="43.12873" lon="3.08646">
        <ele>114</ele>
        <time>2025-12-29T15:08:06.802Z</time>
      </trkpt>
      <trkpt lat="43.12874" lon="3.08646">
        <ele>115</ele>
        <time>2025-12-29T15:08:07.802Z</time>
      </trkpt>
      <trkpt lat="43.12875" lon="3.08647">
        <ele>115</ele>
        <time>2025-12-29T15:08:08.802Z</time>
      </trkpt>
      <trkpt lat="43.12877" lon="3.08647">
        <ele>115</ele>
        <time>2025-12-29T15:08:09.802Z</time>
      </trkpt>
      <trkpt lat="43.12878" lon="3.08648">
        <ele>115</ele>
        <time>2025-12-29T15:08:10.802Z</time>
      </trkpt>
      <trkpt lat="43.12879" lon="3.08649">
        <ele>115</ele>
        <time>2025-12-29T15:08:11.802Z</time>
      </trkpt>
      <trkpt lat="43.1288" lon="3.0865">
        <ele>115</ele>
        <time>2025-12-29T15:08:12.802Z</time>
      </trkpt>
      <trkpt lat="43.12882" lon="3.0865">
        <ele>115</ele>
        <time>2025-12-29T15:08:13.802Z</time>
      </trkpt>
      <trkpt lat="43.12883" lon="3.0865">
        <ele>116</ele>
        <time>2025-12-29T15:08:14.802Z</time>
      </trkpt>
      <trkpt lat="43.12884" lon="3.08651">
        <ele>116</ele>
        <time>2025-12-29T15:08:15.802Z</time>
      </trkpt>
      <trkpt lat="43.12885" lon="3.08652">
        <ele>116</ele>
        <time>2025-12-29T15:08:16.802Z</time>
      </trkpt>
      <trkpt lat="43.12886" lon="3.08653">
        <ele>116</ele>
        <time>2025-12-29T15:08:17.802Z</time>
      </trkpt>
      <trkpt lat="43.12887" lon="3.08653">
        <ele>115</ele>
        <time>2025-12-29T15:08:18.802Z</time>
      </trkpt>
      <trkpt lat="43.12888" lon="3.08654">
        <ele>115</ele>
        <time>2025-12-29T15:08:19.802Z</time>
      </trkpt>
      <trkpt lat="43.12889" lon="3.08654">
        <ele>115</ele>
        <time>2025-12-29T15:08:20.802Z</time>
      </trkpt>
      <trkpt lat="43.1289" lon="3.08654">
        <ele>115</ele>
        <time>2025-12-29T15:08:21.802Z</time>
      </trkpt>
      <trkpt lat="43.12891" lon="3.08654">
        <ele>115</ele>
        <time>2025-12-29T15:08:22.802Z</time>
      </trkpt>
      <trkpt lat="43.12892" lon="3.08655">
        <ele>115</ele>
        <time>2025-12-29T15:08:23.802Z</time>
      </trkpt>
      <trkpt lat="43.12892" lon="3.08655">
        <ele>114</ele>
        <time>2025-12-29T15:08:24.802Z</time>
      </trkpt>
      <trkpt lat="43.12893" lon="3.08655">
        <ele>114</ele>
        <time>2025-12-29T15:08:25.802Z</time>
      </trkpt>
      <trkpt lat="43.12894" lon="3.08655">
        <ele>114</ele>
        <time>2025-12-29T15:08:26.802Z</time>
      </trkpt>
      <trkpt lat="43.12894" lon="3.08656">
        <ele>114</ele>
        <time>2025-12-29T15:08:27.802Z</time>
      </trkpt>
      <trkpt lat="43.12894" lon="3.08656">
        <ele>114</ele>
        <time>2025-12-29T15:08:28.802Z</time>
      </trkpt>
      <trkpt lat="43.12894" lon="3.08657">
        <ele>114</ele>
        <time>2025-12-29T15:08:29.802Z</time>
      </trkpt>
      <trkpt lat="43.12894" lon="3.08657">
        <ele>114</ele>
        <time>2025-12-29T15:08:30.802Z</time>
      </trkpt>
      <trkpt lat="43.12894" lon="3.08657">
        <ele>113</ele>
        <time>2025-12-29T15:08:31.802Z</time>
      </trkpt>
      <trkpt lat="43.12894" lon="3.08657">
        <ele>113</ele>
        <time>2025-12-29T15:08:32.802Z</time>
      </trkpt>
      <trkpt lat="43.12894" lon="3.08657">
        <ele>113</ele>
        <time>2025-12-29T15:08:33.802Z</time>
      </trkpt>
      <trkpt lat="43.12895" lon="3.08657">
        <ele>113</ele>
        <time>2025-12-29T15:08:34.802Z</time>
      </trkpt>
      <trkpt lat="43.12895" lon="3.08657">
        <ele>113</ele>
        <time>2025-12-29T15:08:35.802Z</time>
      </trkpt>
      <trkpt lat="43.12896" lon="3.08657">
        <ele>113</ele>
        <time>2025-12-29T15:08:36.802Z</time>
      </trkpt>
      <trkpt lat="43.12897" lon="3.08658">
        <ele>113</ele>
        <time>2025-12-29T15:08:37.802Z</time>
      </trkpt>
      <trkpt lat="43.12898" lon="3.08659">
        <ele>113</ele>
        <time>2025-12-29T15:08:38.802Z</time>
      </trkpt>
      <trkpt lat="43.12899" lon="3.08659">
        <ele>113</ele>
        <time>2025-12-29T15:08:39.802Z</time>
      </trkpt>
      <trkpt lat="43.129" lon="3.0866">
        <ele>113</ele>
        <time>2025-12-29T15:08:40.802Z</time>
      </trkpt>
      <trkpt lat="43.12901" lon="3.08661">
        <ele>113</ele>
        <time>2025-12-29T15:08:41.802Z</time>
      </trkpt>
      <trkpt lat="43.12902" lon="3.08661">
        <ele>113</ele>
        <time>2025-12-29T15:08:42.802Z</time>
      </trkpt>
      <trkpt lat="43.12903" lon="3.08661">
        <ele>112</ele>
        <time>2025-12-29T15:08:43.802Z</time>
      </trkpt>
      <trkpt lat="43.12904" lon="3.08661">
        <ele>112</ele>
        <time>2025-12-29T15:08:44.802Z</time>
      </trkpt>
      <trkpt lat="43.12905" lon="3.08662">
        <ele>111</ele>
        <time>2025-12-29T15:08:45.802Z</time>
      </trkpt>
      <trkpt lat="43.12905" lon="3.08662">
        <ele>110</ele>
        <time>2025-12-29T15:08:46.802Z</time>
      </trkpt>
      <trkpt lat="43.12905" lon="3.08662">
        <ele>110</ele>
        <time>2025-12-29T15:08:47.802Z</time>
      </trkpt>
      <trkpt lat="43.12906" lon="3.08663">
        <ele>110</ele>
        <time>2025-12-29T15:08:48.802Z</time>
      </trkpt>
      <trkpt lat="43.12906" lon="3.08663">
        <ele>110</ele>
        <time>2025-12-29T15:08:49.802Z</time>
      </trkpt>
      <trkpt lat="43.12907" lon="3.08663">
        <ele>110</ele>
        <time>2025-12-29T15:08:50.802Z</time>
      </trkpt>
      <trkpt lat="43.12908" lon="3.08664">
        <ele>110</ele>
        <time>2025-12-29T15:08:51.802Z</time>
      </trkpt>
      <trkpt lat="43.12909" lon="3.08664">
        <ele>110</ele>
        <time>2025-12-29T15:08:52.802Z</time>
      </trkpt>
      <trkpt lat="43.1291" lon="3.08664">
        <ele>110</ele>
        <time>2025-12-29T15:08:53.802Z</time>
      </trkpt>
      <trkpt lat="43.12911" lon="3.08664">
        <ele>109</ele>
        <time>2025-12-29T15:08:54.802Z</time>
      </trkpt>
      <trkpt lat="43.12912" lon="3.08665">
        <ele>109</ele>
        <time>2025-12-29T15:08:55.802Z</time>
      </trkpt>
      <trkpt lat="43.12913" lon="3.08665">
        <ele>110</ele>
        <time>2025-12-29T15:08:56.802Z</time>
      </trkpt>
      <trkpt lat="43.12914" lon="3.08665">
        <ele>110</ele>
        <time>2025-12-29T15:08:57.802Z</time>
      </trkpt>
      <trkpt lat="43.12915" lon="3.08666">
        <ele>110</ele>
        <time>2025-12-29T15:08:58.802Z</time>
      </trkpt>
      <trkpt lat="43.12916" lon="3.08666">
        <ele>110</ele>
        <time>2025-12-29T15:08:59.802Z</time>
      </trkpt>
      <trkpt lat="43.12917" lon="3.08666">
        <ele>110</ele>
        <time>2025-12-29T15:09:00.802Z</time>
      </trkpt>
      <trkpt lat="43.12918" lon="3.08666">
        <ele>110</ele>
        <time>2025-12-29T15:09:01.802Z</time>
      </trkpt>
      <trkpt lat="43.12919" lon="3.08665">
        <ele>110</ele>
        <time>2025-12-29T15:09:02.802Z</time>
      </trkpt>
      <trkpt lat="43.1292" lon="3.08665">
        <ele>110</ele>
        <time>2025-12-29T15:09:03.802Z</time>
      </trkpt>
      <trkpt lat="43.12921" lon="3.08665">
        <ele>110</ele>
        <time>2025-12-29T15:09:04.802Z</time>
      </trkpt>
      <trkpt lat="43.12922" lon="3.08664">
        <ele>110</ele>
        <time>2025-12-29T15:09:05.802Z</time>
      </trkpt>
      <trkpt lat="43.12923" lon="3.08664">
        <ele>110</ele>
        <time>2025-12-29T15:09:06.802Z</time>
      </trkpt>
      <trkpt lat="43.12924" lon="3.08664">
        <ele>110</ele>
        <time>2025-12-29T15:09:07.802Z</time>
      </trkpt>
      <trkpt lat="43.12925" lon="3.08664">
        <ele>109</ele>
        <time>2025-12-29T15:09:08.802Z</time>
      </trkpt>
      <trkpt lat="43.12926" lon="3.08664">
        <ele>109</ele>
        <time>2025-12-29T15:09:09.802Z</time>
      </trkpt>
      <trkpt lat="43.12927" lon="3.08665">
        <ele>109</ele>
        <time>2025-12-29T15:09:10.802Z</time>
      </trkpt>
      <trkpt lat="43.12928" lon="3.08665">
        <ele>110</ele>
        <time>2025-12-29T15:09:11.802Z</time>
      </trkpt>
      <trkpt lat="43.12929" lon="3.08665">
        <ele>110</ele>
        <time>2025-12-29T15:09:12.802Z</time>
      </trkpt>
      <trkpt lat="43.1293" lon="3.08666">
        <ele>109</ele>
        <time>2025-12-29T15:09:13.802Z</time>
      </trkpt>
      <trkpt lat="43.12932" lon="3.08666">
        <ele>109</ele>
        <time>2025-12-29T15:09:14.802Z</time>
      </trkpt>
      <trkpt lat="43.12933" lon="3.08666">
        <ele>109</ele>
        <time>2025-12-29T15:09:15.802Z</time>
      </trkpt>
      <trkpt lat="43.12934" lon="3.08666">
        <ele>108</ele>
        <time>2025-12-29T15:09:16.802Z</time>
      </trkpt>
      <trkpt lat="43.12935" lon="3.08666">
        <ele>108</ele>
        <time>2025-12-29T15:09:17.802Z</time>
      </trkpt>
      <trkpt lat="43.12936" lon="3.08667">
        <ele>108</ele>
        <time>2025-12-29T15:09:18.802Z</time>
      </trkpt>
      <trkpt lat="43.12937" lon="3.08667">
        <ele>107</ele>
        <time>2025-12-29T15:09:19.802Z</time>
      </trkpt>
      <trkpt lat="43.12938" lon="3.08668">
        <ele>107</ele>
        <time>2025-12-29T15:09:20.802Z</time>
      </trkpt>
      <trkpt lat="43.12939" lon="3.08668">
        <ele>107</ele>
        <time>2025-12-29T15:09:21.802Z</time>
      </trkpt>
      <trkpt lat="43.1294" lon="3.08669">
        <ele>107</ele>
        <time>2025-12-29T15:09:22.802Z</time>
      </trkpt>
      <trkpt lat="43.12941" lon="3.0867">
        <ele>107</ele>
        <time>2025-12-29T15:09:23.802Z</time>
      </trkpt>
      <trkpt lat="43.12942" lon="3.0867">
        <ele>107</ele>
        <time>2025-12-29T15:09:24.802Z</time>
      </trkpt>
      <trkpt lat="43.12943" lon="3.08671">
        <ele>107</ele>
        <time>2025-12-29T15:09:25.802Z</time>
      </trkpt>
      <trkpt lat="43.12944" lon="3.08671">
        <ele>107</ele>
        <time>2025-12-29T15:09:26.802Z</time>
      </trkpt>
      <trkpt lat="43.12945" lon="3.08672">
        <ele>107</ele>
        <time>2025-12-29T15:09:27.802Z</time>
      </trkpt>
      <trkpt lat="43.12945" lon="3.08673">
        <ele>107</ele>
        <time>2025-12-29T15:09:28.802Z</time>
      </trkpt>
      <trkpt lat="43.12946" lon="3.08673">
        <ele>106</ele>
        <time>2025-12-29T15:09:29.802Z</time>
      </trkpt>
      <trkpt lat="43.12946" lon="3.08675">
        <ele>106</ele>
        <time>2025-12-29T15:09:30.802Z</time>
      </trkpt>
      <trkpt lat="43.12947" lon="3.08676">
        <ele>105</ele>
        <time>2025-12-29T15:09:31.802Z</time>
      </trkpt>
      <trkpt lat="43.12947" lon="3.08678">
        <ele>105</ele>
        <time>2025-12-29T15:09:32.802Z</time>
      </trkpt>
      <trkpt lat="43.12948" lon="3.08679">
        <ele>105</ele>
        <time>2025-12-29T15:09:33.802Z</time>
      </trkpt>
      <trkpt lat="43.12949" lon="3.08681">
        <ele>104</ele>
        <time>2025-12-29T15:09:34.802Z</time>
      </trkpt>
      <trkpt lat="43.1295" lon="3.08682">
        <ele>104</ele>
        <time>2025-12-29T15:09:35.802Z</time>
      </trkpt>
      <trkpt lat="43.12951" lon="3.08682">
        <ele>104</ele>
        <time>2025-12-29T15:09:36.802Z</time>
      </trkpt>
      <trkpt lat="43.12952" lon="3.08683">
        <ele>103</ele>
        <time>2025-12-29T15:09:37.802Z</time>
      </trkpt>
      <trkpt lat="43.12954" lon="3.08684">
        <ele>103</ele>
        <time>2025-12-29T15:09:38.802Z</time>
      </trkpt>
      <trkpt lat="43.12955" lon="3.08684">
        <ele>103</ele>
        <time>2025-12-29T15:09:39.802Z</time>
      </trkpt>
      <trkpt lat="43.12956" lon="3.08684">
        <ele>103</ele>
        <time>2025-12-29T15:09:40.802Z</time>
      </trkpt>
      <trkpt lat="43.12957" lon="3.08684">
        <ele>103</ele>
        <time>2025-12-29T15:09:41.802Z</time>
      </trkpt>
      <trkpt lat="43.12958" lon="3.08684">
        <ele>103</ele>
        <time>2025-12-29T15:09:42.802Z</time>
      </trkpt>
      <trkpt lat="43.12959" lon="3.08684">
        <ele>103</ele>
        <time>2025-12-29T15:09:43.802Z</time>
      </trkpt>
      <trkpt lat="43.1296" lon="3.08684">
        <ele>104</ele>
        <time>2025-12-29T15:09:44.802Z</time>
      </trkpt>
      <trkpt lat="43.12962" lon="3.08684">
        <ele>104</ele>
        <time>2025-12-29T15:09:45.802Z</time>
      </trkpt>
      <trkpt lat="43.12963" lon="3.08684">
        <ele>104</ele>
        <time>2025-12-29T15:09:46.802Z</time>
      </trkpt>
      <trkpt lat="43.12964" lon="3.08684">
        <ele>104</ele>
        <time>2025-12-29T15:09:47.802Z</time>
      </trkpt>
      <trkpt lat="43.12965" lon="3.08685">
        <ele>104</ele>
        <time>2025-12-29T15:09:48.802Z</time>
      </trkpt>
      <trkpt lat="43.12966" lon="3.08686">
        <ele>103</ele>
        <time>2025-12-29T15:09:49.802Z</time>
      </trkpt>
      <trkpt lat="43.12966" lon="3.08686">
        <ele>103</ele>
        <time>2025-12-29T15:09:50.802Z</time>
      </trkpt>
      <trkpt lat="43.12967" lon="3.08687">
        <ele>103</ele>
        <time>2025-12-29T15:09:51.802Z</time>
      </trkpt>
      <trkpt lat="43.12968" lon="3.08687">
        <ele>102</ele>
        <time>2025-12-29T15:09:52.802Z</time>
      </trkpt>
      <trkpt lat="43.12969" lon="3.08687">
        <ele>102</ele>
        <time>2025-12-29T15:09:53.802Z</time>
      </trkpt>
      <trkpt lat="43.1297" lon="3.08687">
        <ele>102</ele>
        <time>2025-12-29T15:09:54.802Z</time>
      </trkpt>
      <trkpt lat="43.12971" lon="3.08687">
        <ele>102</ele>
        <time>2025-12-29T15:09:55.802Z</time>
      </trkpt>
      <trkpt lat="43.12973" lon="3.08687">
        <ele>102</ele>
        <time>2025-12-29T15:09:56.802Z</time>
      </trkpt>
      <trkpt lat="43.12973" lon="3.08686">
        <ele>102</ele>
        <time>2025-12-29T15:09:57.802Z</time>
      </trkpt>
      <trkpt lat="43.12974" lon="3.08686">
        <ele>102</ele>
        <time>2025-12-29T15:09:58.802Z</time>
      </trkpt>
      <trkpt lat="43.12975" lon="3.08686">
        <ele>102</ele>
        <time>2025-12-29T15:09:59.802Z</time>
      </trkpt>
      <trkpt lat="43.12976" lon="3.08686">
        <ele>102</ele>
        <time>2025-12-29T15:10:00.802Z</time>
      </trkpt>
      <trkpt lat="43.12978" lon="3.08687">
        <ele>101</ele>
        <time>2025-12-29T15:10:01.802Z</time>
      </trkpt>
      <trkpt lat="43.12979" lon="3.08687">
        <ele>101</ele>
        <time>2025-12-29T15:10:02.802Z</time>
      </trkpt>
      <trkpt lat="43.1298" lon="3.08688">
        <ele>100</ele>
        <time>2025-12-29T15:10:03.802Z</time>
      </trkpt>
      <trkpt lat="43.12981" lon="3.08689">
        <ele>100</ele>
        <time>2025-12-29T15:10:04.802Z</time>
      </trkpt>
      <trkpt lat="43.12981" lon="3.0869">
        <ele>100</ele>
        <time>2025-12-29T15:10:05.802Z</time>
      </trkpt>
      <trkpt lat="43.12983" lon="3.0869">
        <ele>100</ele>
        <time>2025-12-29T15:10:06.802Z</time>
      </trkpt>
      <trkpt lat="43.12984" lon="3.08691">
        <ele>100</ele>
        <time>2025-12-29T15:10:07.802Z</time>
      </trkpt>
      <trkpt lat="43.12985" lon="3.08692">
        <ele>100</ele>
        <time>2025-12-29T15:10:08.802Z</time>
      </trkpt>
      <trkpt lat="43.12986" lon="3.08692">
        <ele>100</ele>
        <time>2025-12-29T15:10:09.802Z</time>
      </trkpt>
      <trkpt lat="43.12987" lon="3.08693">
        <ele>99</ele>
        <time>2025-12-29T15:10:10.802Z</time>
      </trkpt>
      <trkpt lat="43.12988" lon="3.08693">
        <ele>99</ele>
        <time>2025-12-29T15:10:11.802Z</time>
      </trkpt>
      <trkpt lat="43.12988" lon="3.08694">
        <ele>99</ele>
        <time>2025-12-29T15:10:12.802Z</time>
      </trkpt>
      <trkpt lat="43.12989" lon="3.08695">
        <ele>98</ele>
        <time>2025-12-29T15:10:13.802Z</time>
      </trkpt>
      <trkpt lat="43.1299" lon="3.08695">
        <ele>98</ele>
        <time>2025-12-29T15:10:14.802Z</time>
      </trkpt>
      <trkpt lat="43.12991" lon="3.08696">
        <ele>98</ele>
        <time>2025-12-29T15:10:15.802Z</time>
      </trkpt>
      <trkpt lat="43.12992" lon="3.08697">
        <ele>97</ele>
        <time>2025-12-29T15:10:16.802Z</time>
      </trkpt>
      <trkpt lat="43.12993" lon="3.08698">
        <ele>97</ele>
        <time>2025-12-29T15:10:17.802Z</time>
      </trkpt>
      <trkpt lat="43.12994" lon="3.08699">
        <ele>96</ele>
        <time>2025-12-29T15:10:18.802Z</time>
      </trkpt>
      <trkpt lat="43.12995" lon="3.087">
        <ele>96</ele>
        <time>2025-12-29T15:10:19.802Z</time>
      </trkpt>
      <trkpt lat="43.12996" lon="3.08701">
        <ele>96</ele>
        <time>2025-12-29T15:10:20.802Z</time>
      </trkpt>
      <trkpt lat="43.12997" lon="3.08702">
        <ele>95</ele>
        <time>2025-12-29T15:10:21.802Z</time>
      </trkpt>
      <trkpt lat="43.12998" lon="3.08702">
        <ele>95</ele>
        <time>2025-12-29T15:10:22.802Z</time>
      </trkpt>
      <trkpt lat="43.13" lon="3.08703">
        <ele>95</ele>
        <time>2025-12-29T15:10:23.802Z</time>
      </trkpt>
      <trkpt lat="43.13001" lon="3.08704">
        <ele>95</ele>
        <time>2025-12-29T15:10:24.802Z</time>
      </trkpt>
      <trkpt lat="43.13002" lon="3.08705">
        <ele>95</ele>
        <time>2025-12-29T15:10:25.802Z</time>
      </trkpt>
      <trkpt lat="43.13003" lon="3.08707">
        <ele>96</ele>
        <time>2025-12-29T15:10:26.802Z</time>
      </trkpt>
      <trkpt lat="43.13004" lon="3.08709">
        <ele>96</ele>
        <time>2025-12-29T15:10:27.802Z</time>
      </trkpt>
      <trkpt lat="43.13005" lon="3.0871">
        <ele>96</ele>
        <time>2025-12-29T15:10:28.802Z</time>
      </trkpt>
      <trkpt lat="43.13006" lon="3.08711">
        <ele>96</ele>
        <time>2025-12-29T15:10:29.802Z</time>
      </trkpt>
      <trkpt lat="43.13007" lon="3.08713">
        <ele>96</ele>
        <time>2025-12-29T15:10:30.802Z</time>
      </trkpt>
      <trkpt lat="43.13008" lon="3.08714">
        <ele>96</ele>
        <time>2025-12-29T15:10:31.802Z</time>
      </trkpt>
      <trkpt lat="43.13009" lon="3.08716">
        <ele>96</ele>
        <time>2025-12-29T15:10:32.802Z</time>
      </trkpt>
      <trkpt lat="43.1301" lon="3.08717">
        <ele>96</ele>
        <time>2025-12-29T15:10:33.802Z</time>
      </trkpt>
      <trkpt lat="43.13011" lon="3.08719">
        <ele>96</ele>
        <time>2025-12-29T15:10:34.802Z</time>
      </trkpt>
      <trkpt lat="43.13012" lon="3.08719">
        <ele>96</ele>
        <time>2025-12-29T15:10:35.802Z</time>
      </trkpt>
      <trkpt lat="43.13013" lon="3.0872">
        <ele>95</ele>
        <time>2025-12-29T15:10:36.802Z</time>
      </trkpt>
      <trkpt lat="43.13014" lon="3.0872">
        <ele>95</ele>
        <time>2025-12-29T15:10:37.802Z</time>
      </trkpt>
      <trkpt lat="43.13015" lon="3.0872">
        <ele>95</ele>
        <time>2025-12-29T15:10:38.802Z</time>
      </trkpt>
      <trkpt lat="43.13016" lon="3.0872">
        <ele>95</ele>
        <time>2025-12-29T15:10:39.802Z</time>
      </trkpt>
      <trkpt lat="43.13017" lon="3.08719">
        <ele>95</ele>
        <time>2025-12-29T15:10:40.802Z</time>
      </trkpt>
      <trkpt lat="43.13018" lon="3.08718">
        <ele>95</ele>
        <time>2025-12-29T15:10:41.802Z</time>
      </trkpt>
      <trkpt lat="43.13019" lon="3.08717">
        <ele>95</ele>
        <time>2025-12-29T15:10:42.802Z</time>
      </trkpt>
      <trkpt lat="43.1302" lon="3.08717">
        <ele>95</ele>
        <time>2025-12-29T15:10:43.802Z</time>
      </trkpt>
      <trkpt lat="43.13021" lon="3.08717">
        <ele>95</ele>
        <time>2025-12-29T15:10:44.802Z</time>
      </trkpt>
      <trkpt lat="43.13023" lon="3.08717">
        <ele>95</ele>
        <time>2025-12-29T15:10:45.802Z</time>
      </trkpt>
      <trkpt lat="43.13024" lon="3.08718">
        <ele>95</ele>
        <time>2025-12-29T15:10:46.802Z</time>
      </trkpt>
      <trkpt lat="43.13025" lon="3.08717">
        <ele>95</ele>
        <time>2025-12-29T15:10:47.802Z</time>
      </trkpt>
      <trkpt lat="43.13026" lon="3.08716">
        <ele>96</ele>
        <time>2025-12-29T15:10:48.802Z</time>
      </trkpt>
      <trkpt lat="43.13028" lon="3.08713">
        <ele>96</ele>
        <time>2025-12-29T15:10:49.802Z</time>
      </trkpt>
      <trkpt lat="43.13028" lon="3.08711">
        <ele>95</ele>
        <time>2025-12-29T15:10:50.802Z</time>
      </trkpt>
      <trkpt lat="43.13029" lon="3.08709">
        <ele>95</ele>
        <time>2025-12-29T15:10:51.802Z</time>
      </trkpt>
      <trkpt lat="43.1303" lon="3.08708">
        <ele>95</ele>
        <time>2025-12-29T15:10:52.802Z</time>
      </trkpt>
      <trkpt lat="43.13031" lon="3.08706">
        <ele>95</ele>
        <time>2025-12-29T15:10:53.802Z</time>
      </trkpt>
      <trkpt lat="43.13031" lon="3.08704">
        <ele>95</ele>
        <time>2025-12-29T15:10:54.802Z</time>
      </trkpt>
      <trkpt lat="43.13032" lon="3.08703">
        <ele>95</ele>
        <time>2025-12-29T15:10:55.802Z</time>
      </trkpt>
      <trkpt lat="43.13033" lon="3.08701">
        <ele>94</ele>
        <time>2025-12-29T15:10:56.802Z</time>
      </trkpt>
      <trkpt lat="43.13033" lon="3.08699">
        <ele>94</ele>
        <time>2025-12-29T15:10:57.802Z</time>
      </trkpt>
      <trkpt lat="43.13034" lon="3.08698">
        <ele>94</ele>
        <time>2025-12-29T15:10:58.802Z</time>
      </trkpt>
      <trkpt lat="43.13034" lon="3.08697">
        <ele>94</ele>
        <time>2025-12-29T15:10:59.802Z</time>
      </trkpt>
      <trkpt lat="43.13034" lon="3.08696">
        <ele>94</ele>
        <time>2025-12-29T15:11:00.802Z</time>
      </trkpt>
      <trkpt lat="43.13034" lon="3.08695">
        <ele>95</ele>
        <time>2025-12-29T15:11:01.802Z</time>
      </trkpt>
      <trkpt lat="43.13035" lon="3.08694">
        <ele>95</ele>
        <time>2025-12-29T15:11:02.802Z</time>
      </trkpt>
      <trkpt lat="43.13035" lon="3.08692">
        <ele>95</ele>
        <time>2025-12-29T15:11:03.802Z</time>
      </trkpt>
      <trkpt lat="43.13036" lon="3.08691">
        <ele>95</ele>
        <time>2025-12-29T15:11:04.802Z</time>
      </trkpt>
      <trkpt lat="43.13037" lon="3.0869">
        <ele>95</ele>
        <time>2025-12-29T15:11:05.802Z</time>
      </trkpt>
      <trkpt lat="43.13037" lon="3.08689">
        <ele>95</ele>
        <time>2025-12-29T15:11:06.802Z</time>
      </trkpt>
      <trkpt lat="43.13038" lon="3.08688">
        <ele>94</ele>
        <time>2025-12-29T15:11:07.802Z</time>
      </trkpt>
      <trkpt lat="43.13039" lon="3.08687">
        <ele>94</ele>
        <time>2025-12-29T15:11:08.802Z</time>
      </trkpt>
      <trkpt lat="43.13039" lon="3.08685">
        <ele>94</ele>
        <time>2025-12-29T15:11:09.802Z</time>
      </trkpt>
      <trkpt lat="43.1304" lon="3.08684">
        <ele>94</ele>
        <time>2025-12-29T15:11:10.802Z</time>
      </trkpt>
      <trkpt lat="43.13041" lon="3.08682">
        <ele>93</ele>
        <time>2025-12-29T15:11:11.802Z</time>
      </trkpt>
      <trkpt lat="43.13041" lon="3.08681">
        <ele>93</ele>
        <time>2025-12-29T15:11:12.802Z</time>
      </trkpt>
      <trkpt lat="43.13042" lon="3.0868">
        <ele>92</ele>
        <time>2025-12-29T15:11:13.802Z</time>
      </trkpt>
      <trkpt lat="43.13044" lon="3.0868">
        <ele>92</ele>
        <time>2025-12-29T15:11:14.802Z</time>
      </trkpt>
      <trkpt lat="43.13044" lon="3.0868">
        <ele>92</ele>
        <time>2025-12-29T15:11:15.802Z</time>
      </trkpt>
      <trkpt lat="43.13045" lon="3.0868">
        <ele>92</ele>
        <time>2025-12-29T15:11:16.802Z</time>
      </trkpt>
      <trkpt lat="43.13046" lon="3.0868">
        <ele>93</ele>
        <time>2025-12-29T15:11:17.802Z</time>
      </trkpt>
      <trkpt lat="43.13048" lon="3.0868">
        <ele>93</ele>
        <time>2025-12-29T15:11:18.802Z</time>
      </trkpt>
      <trkpt lat="43.1305" lon="3.08681">
        <ele>93</ele>
        <time>2025-12-29T15:11:19.802Z</time>
      </trkpt>
      <trkpt lat="43.13052" lon="3.08681">
        <ele>94</ele>
        <time>2025-12-29T15:11:20.802Z</time>
      </trkpt>
      <trkpt lat="43.13053" lon="3.0868">
        <ele>94</ele>
        <time>2025-12-29T15:11:21.802Z</time>
      </trkpt>
      <trkpt lat="43.13055" lon="3.0868">
        <ele>94</ele>
        <time>2025-12-29T15:11:22.802Z</time>
      </trkpt>
      <trkpt lat="43.13056" lon="3.08679">
        <ele>94</ele>
        <time>2025-12-29T15:11:23.802Z</time>
      </trkpt>
      <trkpt lat="43.13057" lon="3.08679">
        <ele>94</ele>
        <time>2025-12-29T15:11:24.802Z</time>
      </trkpt>
      <trkpt lat="43.13058" lon="3.08678">
        <ele>94</ele>
        <time>2025-12-29T15:11:25.802Z</time>
      </trkpt>
      <trkpt lat="43.13059" lon="3.08677">
        <ele>94</ele>
        <time>2025-12-29T15:11:26.802Z</time>
      </trkpt>
      <trkpt lat="43.13061" lon="3.08677">
        <ele>94</ele>
        <time>2025-12-29T15:11:27.802Z</time>
      </trkpt>
      <trkpt lat="43.13061" lon="3.08677">
        <ele>94</ele>
        <time>2025-12-29T15:11:28.802Z</time>
      </trkpt>
      <trkpt lat="43.13063" lon="3.08675">
        <ele>93</ele>
        <time>2025-12-29T15:11:29.802Z</time>
      </trkpt>
      <trkpt lat="43.13064" lon="3.08675">
        <ele>93</ele>
        <time>2025-12-29T15:11:30.802Z</time>
      </trkpt>
      <trkpt lat="43.13065" lon="3.08674">
        <ele>93</ele>
        <time>2025-12-29T15:11:31.802Z</time>
      </trkpt>
      <trkpt lat="43.13066" lon="3.08674">
        <ele>92</ele>
        <time>2025-12-29T15:11:32.802Z</time>
      </trkpt>
      <trkpt lat="43.13067" lon="3.08674">
        <ele>92</ele>
        <time>2025-12-29T15:11:33.802Z</time>
      </trkpt>
      <trkpt lat="43.13068" lon="3.08674">
        <ele>92</ele>
        <time>2025-12-29T15:11:34.802Z</time>
      </trkpt>
      <trkpt lat="43.1307" lon="3.08674">
        <ele>91</ele>
        <time>2025-12-29T15:11:35.802Z</time>
      </trkpt>
      <trkpt lat="43.13072" lon="3.08675">
        <ele>91</ele>
        <time>2025-12-29T15:11:36.802Z</time>
      </trkpt>
      <trkpt lat="43.13073" lon="3.08676">
        <ele>91</ele>
        <time>2025-12-29T15:11:37.802Z</time>
      </trkpt>
      <trkpt lat="43.13074" lon="3.08676">
        <ele>91</ele>
        <time>2025-12-29T15:11:38.802Z</time>
      </trkpt>
      <trkpt lat="43.13075" lon="3.08676">
        <ele>90</ele>
        <time>2025-12-29T15:11:39.802Z</time>
      </trkpt>
      <trkpt lat="43.13077" lon="3.08676">
        <ele>90</ele>
        <time>2025-12-29T15:11:40.802Z</time>
      </trkpt>
      <trkpt lat="43.13078" lon="3.08676">
        <ele>90</ele>
        <time>2025-12-29T15:11:41.802Z</time>
      </trkpt>
      <trkpt lat="43.13079" lon="3.08676">
        <ele>90</ele>
        <time>2025-12-29T15:11:42.802Z</time>
      </trkpt>
      <trkpt lat="43.1308" lon="3.08675">
        <ele>90</ele>
        <time>2025-12-29T15:11:43.802Z</time>
      </trkpt>
      <trkpt lat="43.13082" lon="3.08675">
        <ele>90</ele>
        <time>2025-12-29T15:11:44.802Z</time>
      </trkpt>
      <trkpt lat="43.13083" lon="3.08675">
        <ele>90</ele>
        <time>2025-12-29T15:11:45.802Z</time>
      </trkpt>
      <trkpt lat="43.13085" lon="3.08675">
        <ele>90</ele>
        <time>2025-12-29T15:11:46.802Z</time>
      </trkpt>
      <trkpt lat="43.13087" lon="3.08675">
        <ele>90</ele>
        <time>2025-12-29T15:11:47.802Z</time>
      </trkpt>
      <trkpt lat="43.13089" lon="3.08676">
        <ele>91</ele>
        <time>2025-12-29T15:11:48.802Z</time>
      </trkpt>
      <trkpt lat="43.13091" lon="3.08676">
        <ele>91</ele>
        <time>2025-12-29T15:11:49.802Z</time>
      </trkpt>
      <trkpt lat="43.13092" lon="3.08676">
        <ele>91</ele>
        <time>2025-12-29T15:11:50.802Z</time>
      </trkpt>
      <trkpt lat="43.13094" lon="3.08676">
        <ele>91</ele>
        <time>2025-12-29T15:11:51.802Z</time>
      </trkpt>
      <trkpt lat="43.13095" lon="3.08676">
        <ele>91</ele>
        <time>2025-12-29T15:11:52.802Z</time>
      </trkpt>
      <trkpt lat="43.13096" lon="3.08676">
        <ele>91</ele>
        <time>2025-12-29T15:11:53.802Z</time>
      </trkpt>
      <trkpt lat="43.13096" lon="3.08677">
        <ele>91</ele>
        <time>2025-12-29T15:11:54.802Z</time>
      </trkpt>
      <trkpt lat="43.13097" lon="3.08677">
        <ele>91</ele>
        <time>2025-12-29T15:11:55.802Z</time>
      </trkpt>
      <trkpt lat="43.13099" lon="3.08678">
        <ele>91</ele>
        <time>2025-12-29T15:11:56.802Z</time>
      </trkpt>
      <trkpt lat="43.131" lon="3.08679">
        <ele>91</ele>
        <time>2025-12-29T15:11:57.802Z</time>
      </trkpt>
      <trkpt lat="43.131" lon="3.0868">
        <ele>92</ele>
        <time>2025-12-29T15:11:58.802Z</time>
      </trkpt>
      <trkpt lat="43.13101" lon="3.08681">
        <ele>92</ele>
        <time>2025-12-29T15:11:59.802Z</time>
      </trkpt>
      <trkpt lat="43.13102" lon="3.08682">
        <ele>92</ele>
        <time>2025-12-29T15:12:00.802Z</time>
      </trkpt>
      <trkpt lat="43.13104" lon="3.08682">
        <ele>92</ele>
        <time>2025-12-29T15:12:01.802Z</time>
      </trkpt>
      <trkpt lat="43.13105" lon="3.08682">
        <ele>93</ele>
        <time>2025-12-29T15:12:02.802Z</time>
      </trkpt>
      <trkpt lat="43.13106" lon="3.08683">
        <ele>93</ele>
        <time>2025-12-29T15:12:03.802Z</time>
      </trkpt>
      <trkpt lat="43.13107" lon="3.08683">
        <ele>93</ele>
        <time>2025-12-29T15:12:04.802Z</time>
      </trkpt>
      <trkpt lat="43.13108" lon="3.08684">
        <ele>93</ele>
        <time>2025-12-29T15:12:05.802Z</time>
      </trkpt>
      <trkpt lat="43.1311" lon="3.08685">
        <ele>93</ele>
        <time>2025-12-29T15:12:06.802Z</time>
      </trkpt>
      <trkpt lat="43.13111" lon="3.08686">
        <ele>93</ele>
        <time>2025-12-29T15:12:07.802Z</time>
      </trkpt>
      <trkpt lat="43.13112" lon="3.08687">
        <ele>92</ele>
        <time>2025-12-29T15:12:08.802Z</time>
      </trkpt>
      <trkpt lat="43.13113" lon="3.08688">
        <ele>92</ele>
        <time>2025-12-29T15:12:09.802Z</time>
      </trkpt>
      <trkpt lat="43.13114" lon="3.0869">
        <ele>92</ele>
        <time>2025-12-29T15:12:10.802Z</time>
      </trkpt>
      <trkpt lat="43.13114" lon="3.0869">
        <ele>92</ele>
        <time>2025-12-29T15:12:11.802Z</time>
      </trkpt>
      <trkpt lat="43.13116" lon="3.0869">
        <ele>92</ele>
        <time>2025-12-29T15:12:12.802Z</time>
      </trkpt>
      <trkpt lat="43.13117" lon="3.08691">
        <ele>92</ele>
        <time>2025-12-29T15:12:13.802Z</time>
      </trkpt>
      <trkpt lat="43.13117" lon="3.08691">
        <ele>92</ele>
        <time>2025-12-29T15:12:14.802Z</time>
      </trkpt>
      <trkpt lat="43.13118" lon="3.08692">
        <ele>91</ele>
        <time>2025-12-29T15:12:15.802Z</time>
      </trkpt>
      <trkpt lat="43.13119" lon="3.08692">
        <ele>91</ele>
        <time>2025-12-29T15:12:16.802Z</time>
      </trkpt>
      <trkpt lat="43.1312" lon="3.08693">
        <ele>91</ele>
        <time>2025-12-29T15:12:17.802Z</time>
      </trkpt>
      <trkpt lat="43.1312" lon="3.08693">
        <ele>90</ele>
        <time>2025-12-29T15:12:18.802Z</time>
      </trkpt>
      <trkpt lat="43.13122" lon="3.08693">
        <ele>90</ele>
        <time>2025-12-29T15:12:19.802Z</time>
      </trkpt>
      <trkpt lat="43.13123" lon="3.08694">
        <ele>90</ele>
        <time>2025-12-29T15:12:20.802Z</time>
      </trkpt>
      <trkpt lat="43.13124" lon="3.08695">
        <ele>89</ele>
        <time>2025-12-29T15:12:21.802Z</time>
      </trkpt>
      <trkpt lat="43.13126" lon="3.08696">
        <ele>89</ele>
        <time>2025-12-29T15:12:22.802Z</time>
      </trkpt>
      <trkpt lat="43.13127" lon="3.08697">
        <ele>89</ele>
        <time>2025-12-29T15:12:23.802Z</time>
      </trkpt>
      <trkpt lat="43.13128" lon="3.08697">
        <ele>89</ele>
        <time>2025-12-29T15:12:24.802Z</time>
      </trkpt>
      <trkpt lat="43.13128" lon="3.08698">
        <ele>88</ele>
        <time>2025-12-29T15:12:25.802Z</time>
      </trkpt>
      <trkpt lat="43.1313" lon="3.08698">
        <ele>88</ele>
        <time>2025-12-29T15:12:26.802Z</time>
      </trkpt>
      <trkpt lat="43.1313" lon="3.08698">
        <ele>88</ele>
        <time>2025-12-29T15:12:27.802Z</time>
      </trkpt>
      <trkpt lat="43.13132" lon="3.08698">
        <ele>87</ele>
        <time>2025-12-29T15:12:28.802Z</time>
      </trkpt>
      <trkpt lat="43.13132" lon="3.08698">
        <ele>87</ele>
        <time>2025-12-29T15:12:29.802Z</time>
      </trkpt>
      <trkpt lat="43.13134" lon="3.08697">
        <ele>87</ele>
        <time>2025-12-29T15:12:30.802Z</time>
      </trkpt>
      <trkpt lat="43.13135" lon="3.08696">
        <ele>86</ele>
        <time>2025-12-29T15:12:31.802Z</time>
      </trkpt>
      <trkpt lat="43.13135" lon="3.08695">
        <ele>86</ele>
        <time>2025-12-29T15:12:32.802Z</time>
      </trkpt>
      <trkpt lat="43.13136" lon="3.08694">
        <ele>85</ele>
        <time>2025-12-29T15:12:33.802Z</time>
      </trkpt>
      <trkpt lat="43.13137" lon="3.08694">
        <ele>85</ele>
        <time>2025-12-29T15:12:34.802Z</time>
      </trkpt>
      <trkpt lat="43.13138" lon="3.08694">
        <ele>85</ele>
        <time>2025-12-29T15:12:35.802Z</time>
      </trkpt>
      <trkpt lat="43.13139" lon="3.08693">
        <ele>84</ele>
        <time>2025-12-29T15:12:36.802Z</time>
      </trkpt>
      <trkpt lat="43.1314" lon="3.08693">
        <ele>84</ele>
        <time>2025-12-29T15:12:37.802Z</time>
      </trkpt>
      <trkpt lat="43.13141" lon="3.08693">
        <ele>83</ele>
        <time>2025-12-29T15:12:38.802Z</time>
      </trkpt>
      <trkpt lat="43.13142" lon="3.08693">
        <ele>83</ele>
        <time>2025-12-29T15:12:39.802Z</time>
      </trkpt>
      <trkpt lat="43.13144" lon="3.08694">
        <ele>82</ele>
        <time>2025-12-29T15:12:40.802Z</time>
      </trkpt>
      <trkpt lat="43.13145" lon="3.08694">
        <ele>82</ele>
        <time>2025-12-29T15:12:41.802Z</time>
      </trkpt>
      <trkpt lat="43.13147" lon="3.08695">
        <ele>82</ele>
        <time>2025-12-29T15:12:42.802Z</time>
      </trkpt>
      <trkpt lat="43.13149" lon="3.08696">
        <ele>82</ele>
        <time>2025-12-29T15:12:43.802Z</time>
      </trkpt>
      <trkpt lat="43.13151" lon="3.08698">
        <ele>81</ele>
        <time>2025-12-29T15:12:44.802Z</time>
      </trkpt>
      <trkpt lat="43.13152" lon="3.08698">
        <ele>81</ele>
        <time>2025-12-29T15:12:45.802Z</time>
      </trkpt>
      <trkpt lat="43.13153" lon="3.08699">
        <ele>81</ele>
        <time>2025-12-29T15:12:46.802Z</time>
      </trkpt>
      <trkpt lat="43.13154" lon="3.08699">
        <ele>81</ele>
        <time>2025-12-29T15:12:47.802Z</time>
      </trkpt>
      <trkpt lat="43.13156" lon="3.08699">
        <ele>80</ele>
        <time>2025-12-29T15:12:48.802Z</time>
      </trkpt>
      <trkpt lat="43.13158" lon="3.08699">
        <ele>80</ele>
        <time>2025-12-29T15:12:49.802Z</time>
      </trkpt>
      <trkpt lat="43.13159" lon="3.08699">
        <ele>80</ele>
        <time>2025-12-29T15:12:50.802Z</time>
      </trkpt>
      <trkpt lat="43.1316" lon="3.08699">
        <ele>80</ele>
        <time>2025-12-29T15:12:51.802Z</time>
      </trkpt>
      <trkpt lat="43.13161" lon="3.08699">
        <ele>79</ele>
        <time>2025-12-29T15:12:52.802Z</time>
      </trkpt>
      <trkpt lat="43.13162" lon="3.08699">
        <ele>79</ele>
        <time>2025-12-29T15:12:53.802Z</time>
      </trkpt>
      <trkpt lat="43.13163" lon="3.08699">
        <ele>79</ele>
        <time>2025-12-29T15:12:54.802Z</time>
      </trkpt>
      <trkpt lat="43.13163" lon="3.08699">
        <ele>79</ele>
        <time>2025-12-29T15:12:55.802Z</time>
      </trkpt>
      <trkpt lat="43.13164" lon="3.08698">
        <ele>79</ele>
        <time>2025-12-29T15:12:56.802Z</time>
      </trkpt>
      <trkpt lat="43.13166" lon="3.08698">
        <ele>79</ele>
        <time>2025-12-29T15:12:57.802Z</time>
      </trkpt>
      <trkpt lat="43.13167" lon="3.08698">
        <ele>79</ele>
        <time>2025-12-29T15:12:58.802Z</time>
      </trkpt>
      <trkpt lat="43.13169" lon="3.08698">
        <ele>80</ele>
        <time>2025-12-29T15:12:59.802Z</time>
      </trkpt>
      <trkpt lat="43.1317" lon="3.08699">
        <ele>80</ele>
        <time>2025-12-29T15:13:00.802Z</time>
      </trkpt>
      <trkpt lat="43.13171" lon="3.08699">
        <ele>80</ele>
        <time>2025-12-29T15:13:01.802Z</time>
      </trkpt>
      <trkpt lat="43.13172" lon="3.08699">
        <ele>80</ele>
        <time>2025-12-29T15:13:02.802Z</time>
      </trkpt>
      <trkpt lat="43.13173" lon="3.087">
        <ele>80</ele>
        <time>2025-12-29T15:13:03.802Z</time>
      </trkpt>
      <trkpt lat="43.13174" lon="3.08701">
        <ele>80</ele>
        <time>2025-12-29T15:13:04.802Z</time>
      </trkpt>
      <trkpt lat="43.13176" lon="3.08701">
        <ele>80</ele>
        <time>2025-12-29T15:13:05.802Z</time>
      </trkpt>
      <trkpt lat="43.13176" lon="3.08701">
        <ele>79</ele>
        <time>2025-12-29T15:13:06.802Z</time>
      </trkpt>
      <trkpt lat="43.13177" lon="3.08701">
        <ele>79</ele>
        <time>2025-12-29T15:13:07.802Z</time>
      </trkpt>
      <trkpt lat="43.13178" lon="3.08701">
        <ele>79</ele>
        <time>2025-12-29T15:13:08.802Z</time>
      </trkpt>
      <trkpt lat="43.13179" lon="3.08701">
        <ele>79</ele>
        <time>2025-12-29T15:13:09.802Z</time>
      </trkpt>
      <trkpt lat="43.1318" lon="3.08702">
        <ele>78</ele>
        <time>2025-12-29T15:13:10.802Z</time>
      </trkpt>
      <trkpt lat="43.13181" lon="3.08702">
        <ele>78</ele>
        <time>2025-12-29T15:13:11.802Z</time>
      </trkpt>
      <trkpt lat="43.13182" lon="3.08703">
        <ele>77</ele>
        <time>2025-12-29T15:13:12.802Z</time>
      </trkpt>
      <trkpt lat="43.13183" lon="3.08704">
        <ele>77</ele>
        <time>2025-12-29T15:13:13.802Z</time>
      </trkpt>
      <trkpt lat="43.13184" lon="3.08705">
        <ele>77</ele>
        <time>2025-12-29T15:13:14.802Z</time>
      </trkpt>
      <trkpt lat="43.13185" lon="3.08706">
        <ele>77</ele>
        <time>2025-12-29T15:13:15.802Z</time>
      </trkpt>
      <trkpt lat="43.13186" lon="3.08707">
        <ele>77</ele>
        <time>2025-12-29T15:13:16.802Z</time>
      </trkpt>
      <trkpt lat="43.13187" lon="3.08708">
        <ele>77</ele>
        <time>2025-12-29T15:13:17.802Z</time>
      </trkpt>
      <trkpt lat="43.13188" lon="3.08708">
        <ele>78</ele>
        <time>2025-12-29T15:13:18.802Z</time>
      </trkpt>
      <trkpt lat="43.13188" lon="3.08709">
        <ele>78</ele>
        <time>2025-12-29T15:13:19.802Z</time>
      </trkpt>
      <trkpt lat="43.13189" lon="3.0871">
        <ele>78</ele>
        <time>2025-12-29T15:13:20.802Z</time>
      </trkpt>
      <trkpt lat="43.13189" lon="3.08711">
        <ele>78</ele>
        <time>2025-12-29T15:13:21.802Z</time>
      </trkpt>
      <trkpt lat="43.13189" lon="3.08712">
        <ele>78</ele>
        <time>2025-12-29T15:13:22.802Z</time>
      </trkpt>
      <trkpt lat="43.1319" lon="3.08713">
        <ele>78</ele>
        <time>2025-12-29T15:13:23.802Z</time>
      </trkpt>
      <trkpt lat="43.13191" lon="3.08714">
        <ele>78</ele>
        <time>2025-12-29T15:13:24.802Z</time>
      </trkpt>
      <trkpt lat="43.13192" lon="3.08716">
        <ele>78</ele>
        <time>2025-12-29T15:13:25.802Z</time>
      </trkpt>
      <trkpt lat="43.13192" lon="3.08717">
        <ele>79</ele>
        <time>2025-12-29T15:13:26.802Z</time>
      </trkpt>
      <trkpt lat="43.13193" lon="3.08717">
        <ele>79</ele>
        <time>2025-12-29T15:13:27.802Z</time>
      </trkpt>
      <trkpt lat="43.13193" lon="3.08718">
        <ele>79</ele>
        <time>2025-12-29T15:13:28.802Z</time>
      </trkpt>
      <trkpt lat="43.13193" lon="3.08719">
        <ele>79</ele>
        <time>2025-12-29T15:13:29.802Z</time>
      </trkpt>
      <trkpt lat="43.13194" lon="3.08719">
        <ele>78</ele>
        <time>2025-12-29T15:13:30.802Z</time>
      </trkpt>
      <trkpt lat="43.13194" lon="3.0872">
        <ele>78</ele>
        <time>2025-12-29T15:13:31.802Z</time>
      </trkpt>
      <trkpt lat="43.13194" lon="3.08721">
        <ele>77</ele>
        <time>2025-12-29T15:13:32.802Z</time>
      </trkpt>
      <trkpt lat="43.13194" lon="3.08722">
        <ele>77</ele>
        <time>2025-12-29T15:13:33.802Z</time>
      </trkpt>
      <trkpt lat="43.13194" lon="3.08724">
        <ele>76</ele>
        <time>2025-12-29T15:13:34.802Z</time>
      </trkpt>
      <trkpt lat="43.13194" lon="3.08726">
        <ele>76</ele>
        <time>2025-12-29T15:13:35.802Z</time>
      </trkpt>
      <trkpt lat="43.13194" lon="3.08727">
        <ele>76</ele>
        <time>2025-12-29T15:13:36.802Z</time>
      </trkpt>
      <trkpt lat="43.13194" lon="3.08729">
        <ele>76</ele>
        <time>2025-12-29T15:13:37.802Z</time>
      </trkpt>
      <trkpt lat="43.13194" lon="3.0873">
        <ele>75</ele>
        <time>2025-12-29T15:13:38.802Z</time>
      </trkpt>
      <trkpt lat="43.13194" lon="3.08731">
        <ele>75</ele>
        <time>2025-12-29T15:13:39.802Z</time>
      </trkpt>
      <trkpt lat="43.13194" lon="3.08732">
        <ele>75</ele>
        <time>2025-12-29T15:13:40.802Z</time>
      </trkpt>
      <trkpt lat="43.13195" lon="3.08734">
        <ele>75</ele>
        <time>2025-12-29T15:13:41.802Z</time>
      </trkpt>
      <trkpt lat="43.13195" lon="3.08736">
        <ele>75</ele>
        <time>2025-12-29T15:13:42.802Z</time>
      </trkpt>
      <trkpt lat="43.13196" lon="3.08737">
        <ele>75</ele>
        <time>2025-12-29T15:13:43.802Z</time>
      </trkpt>
      <trkpt lat="43.13196" lon="3.08739">
        <ele>75</ele>
        <time>2025-12-29T15:13:44.802Z</time>
      </trkpt>
      <trkpt lat="43.13197" lon="3.0874">
        <ele>76</ele>
        <time>2025-12-29T15:13:45.802Z</time>
      </trkpt>
      <trkpt lat="43.13198" lon="3.08741">
        <ele>75</ele>
        <time>2025-12-29T15:13:46.802Z</time>
      </trkpt>
      <trkpt lat="43.13198" lon="3.08744">
        <ele>75</ele>
        <time>2025-12-29T15:13:47.802Z</time>
      </trkpt>
      <trkpt lat="43.13198" lon="3.08746">
        <ele>75</ele>
        <time>2025-12-29T15:13:48.802Z</time>
      </trkpt>
      <trkpt lat="43.13198" lon="3.08747">
        <ele>75</ele>
        <time>2025-12-29T15:13:49.802Z</time>
      </trkpt>
      <trkpt lat="43.13198" lon="3.08749">
        <ele>74</ele>
        <time>2025-12-29T15:13:50.802Z</time>
      </trkpt>
      <trkpt lat="43.13198" lon="3.08752">
        <ele>74</ele>
        <time>2025-12-29T15:13:51.802Z</time>
      </trkpt>
      <trkpt lat="43.13198" lon="3.08753">
        <ele>74</ele>
        <time>2025-12-29T15:13:52.802Z</time>
      </trkpt>
      <trkpt lat="43.13199" lon="3.08755">
        <ele>74</ele>
        <time>2025-12-29T15:13:53.802Z</time>
      </trkpt>
      <trkpt lat="43.13199" lon="3.08756">
        <ele>74</ele>
        <time>2025-12-29T15:13:54.802Z</time>
      </trkpt>
      <trkpt lat="43.132" lon="3.08757">
        <ele>74</ele>
        <time>2025-12-29T15:13:55.802Z</time>
      </trkpt>
      <trkpt lat="43.13201" lon="3.08758">
        <ele>74</ele>
        <time>2025-12-29T15:13:56.802Z</time>
      </trkpt>
      <trkpt lat="43.13202" lon="3.08759">
        <ele>74</ele>
        <time>2025-12-29T15:13:57.802Z</time>
      </trkpt>
      <trkpt lat="43.13203" lon="3.08759">
        <ele>74</ele>
        <time>2025-12-29T15:13:58.802Z</time>
      </trkpt>
      <trkpt lat="43.13204" lon="3.08759">
        <ele>74</ele>
        <time>2025-12-29T15:13:59.802Z</time>
      </trkpt>
      <trkpt lat="43.13205" lon="3.0876">
        <ele>75</ele>
        <time>2025-12-29T15:14:00.802Z</time>
      </trkpt>
      <trkpt lat="43.13205" lon="3.0876">
        <ele>75</ele>
        <time>2025-12-29T15:14:01.802Z</time>
      </trkpt>
      <trkpt lat="43.13206" lon="3.08761">
        <ele>75</ele>
        <time>2025-12-29T15:14:02.802Z</time>
      </trkpt>
      <trkpt lat="43.13207" lon="3.08762">
        <ele>75</ele>
        <time>2025-12-29T15:14:03.802Z</time>
      </trkpt>
      <trkpt lat="43.13207" lon="3.08763">
        <ele>75</ele>
        <time>2025-12-29T15:14:04.802Z</time>
      </trkpt>
      <trkpt lat="43.13208" lon="3.08765">
        <ele>75</ele>
        <time>2025-12-29T15:14:05.802Z</time>
      </trkpt>
      <trkpt lat="43.13207" lon="3.08767">
        <ele>75</ele>
        <time>2025-12-29T15:14:06.803Z</time>
      </trkpt>
      <trkpt lat="43.13206" lon="3.08768">
        <ele>75</ele>
        <time>2025-12-29T15:14:07.802Z</time>
      </trkpt>
      <trkpt lat="43.13206" lon="3.08771">
        <ele>74</ele>
        <time>2025-12-29T15:14:08.802Z</time>
      </trkpt>
      <trkpt lat="43.13206" lon="3.08772">
        <ele>74</ele>
        <time>2025-12-29T15:14:09.802Z</time>
      </trkpt>
      <trkpt lat="43.13205" lon="3.08773">
        <ele>73</ele>
        <time>2025-12-29T15:14:10.802Z</time>
      </trkpt>
      <trkpt lat="43.13205" lon="3.08774">
        <ele>73</ele>
        <time>2025-12-29T15:14:11.802Z</time>
      </trkpt>
      <trkpt lat="43.13205" lon="3.08776">
        <ele>74</ele>
        <time>2025-12-29T15:14:12.802Z</time>
      </trkpt>
      <trkpt lat="43.13206" lon="3.08778">
        <ele>74</ele>
        <time>2025-12-29T15:14:13.802Z</time>
      </trkpt>
      <trkpt lat="43.13206" lon="3.0878">
        <ele>74</ele>
        <time>2025-12-29T15:14:14.802Z</time>
      </trkpt>
      <trkpt lat="43.13206" lon="3.08782">
        <ele>74</ele>
        <time>2025-12-29T15:14:15.802Z</time>
      </trkpt>
      <trkpt lat="43.13206" lon="3.08784">
        <ele>74</ele>
        <time>2025-12-29T15:14:16.802Z</time>
      </trkpt>
      <trkpt lat="43.13206" lon="3.08786">
        <ele>73</ele>
        <time>2025-12-29T15:14:17.802Z</time>
      </trkpt>
      <trkpt lat="43.13207" lon="3.08787">
        <ele>74</ele>
        <time>2025-12-29T15:14:18.802Z</time>
      </trkpt>
      <trkpt lat="43.13208" lon="3.08789">
        <ele>74</ele>
        <time>2025-12-29T15:14:19.802Z</time>
      </trkpt>
      <trkpt lat="43.13208" lon="3.0879">
        <ele>74</ele>
        <time>2025-12-29T15:14:20.802Z</time>
      </trkpt>
      <trkpt lat="43.13209" lon="3.08791">
        <ele>74</ele>
        <time>2025-12-29T15:14:21.802Z</time>
      </trkpt>
      <trkpt lat="43.1321" lon="3.08792">
        <ele>75</ele>
        <time>2025-12-29T15:14:22.802Z</time>
      </trkpt>
      <trkpt lat="43.1321" lon="3.08793">
        <ele>75</ele>
        <time>2025-12-29T15:14:23.802Z</time>
      </trkpt>
      <trkpt lat="43.13211" lon="3.08794">
        <ele>75</ele>
        <time>2025-12-29T15:14:24.802Z</time>
      </trkpt>
      <trkpt lat="43.13212" lon="3.08795">
        <ele>75</ele>
        <time>2025-12-29T15:14:25.802Z</time>
      </trkpt>
      <trkpt lat="43.13213" lon="3.08796">
        <ele>76</ele>
        <time>2025-12-29T15:14:26.802Z</time>
      </trkpt>
      <trkpt lat="43.13214" lon="3.08796">
        <ele>76</ele>
        <time>2025-12-29T15:14:27.802Z</time>
      </trkpt>
      <trkpt lat="43.13214" lon="3.08797">
        <ele>76</ele>
        <time>2025-12-29T15:14:28.802Z</time>
      </trkpt>
      <trkpt lat="43.13214" lon="3.08798">
        <ele>76</ele>
        <time>2025-12-29T15:14:29.802Z</time>
      </trkpt>
      <trkpt lat="43.13214" lon="3.088">
        <ele>76</ele>
        <time>2025-12-29T15:14:30.802Z</time>
      </trkpt>
      <trkpt lat="43.13214" lon="3.08801">
        <ele>76</ele>
        <time>2025-12-29T15:14:31.802Z</time>
      </trkpt>
      <trkpt lat="43.13215" lon="3.08803">
        <ele>76</ele>
        <time>2025-12-29T15:14:32.802Z</time>
      </trkpt>
      <trkpt lat="43.13215" lon="3.08804">
        <ele>77</ele>
        <time>2025-12-29T15:14:33.802Z</time>
      </trkpt>
      <trkpt lat="43.13215" lon="3.08806">
        <ele>77</ele>
        <time>2025-12-29T15:14:34.802Z</time>
      </trkpt>
      <trkpt lat="43.13215" lon="3.08808">
        <ele>77</ele>
        <time>2025-12-29T15:14:35.802Z</time>
      </trkpt>
      <trkpt lat="43.13215" lon="3.0881">
        <ele>77</ele>
        <time>2025-12-29T15:14:36.802Z</time>
      </trkpt>
      <trkpt lat="43.13215" lon="3.08812">
        <ele>77</ele>
        <time>2025-12-29T15:14:37.802Z</time>
      </trkpt>
      <trkpt lat="43.13215" lon="3.08813">
        <ele>78</ele>
        <time>2025-12-29T15:14:38.802Z</time>
      </trkpt>
      <trkpt lat="43.13215" lon="3.08815">
        <ele>78</ele>
        <time>2025-12-29T15:14:39.802Z</time>
      </trkpt>
      <trkpt lat="43.13215" lon="3.08816">
        <ele>78</ele>
        <time>2025-12-29T15:14:40.802Z</time>
      </trkpt>
      <trkpt lat="43.13215" lon="3.08818">
        <ele>78</ele>
        <time>2025-12-29T15:14:41.802Z</time>
      </trkpt>
      <trkpt lat="43.13215" lon="3.0882">
        <ele>78</ele>
        <time>2025-12-29T15:14:42.802Z</time>
      </trkpt>
      <trkpt lat="43.13216" lon="3.08821">
        <ele>78</ele>
        <time>2025-12-29T15:14:43.802Z</time>
      </trkpt>
      <trkpt lat="43.13216" lon="3.08823">
        <ele>78</ele>
        <time>2025-12-29T15:14:44.802Z</time>
      </trkpt>
      <trkpt lat="43.13216" lon="3.08825">
        <ele>78</ele>
        <time>2025-12-29T15:14:45.802Z</time>
      </trkpt>
      <trkpt lat="43.13216" lon="3.08826">
        <ele>77</ele>
        <time>2025-12-29T15:14:46.802Z</time>
      </trkpt>
      <trkpt lat="43.13217" lon="3.08828">
        <ele>77</ele>
        <time>2025-12-29T15:14:47.802Z</time>
      </trkpt>
      <trkpt lat="43.13217" lon="3.08829">
        <ele>77</ele>
        <time>2025-12-29T15:14:48.802Z</time>
      </trkpt>
      <trkpt lat="43.13217" lon="3.08831">
        <ele>77</ele>
        <time>2025-12-29T15:14:49.802Z</time>
      </trkpt>
      <trkpt lat="43.13217" lon="3.08832">
        <ele>76</ele>
        <time>2025-12-29T15:14:50.802Z</time>
      </trkpt>
      <trkpt lat="43.13218" lon="3.08833">
        <ele>76</ele>
        <time>2025-12-29T15:14:51.802Z</time>
      </trkpt>
      <trkpt lat="43.13218" lon="3.08835">
        <ele>76</ele>
        <time>2025-12-29T15:14:52.802Z</time>
      </trkpt>
      <trkpt lat="43.13219" lon="3.08836">
        <ele>76</ele>
        <time>2025-12-29T15:14:53.802Z</time>
      </trkpt>
      <trkpt lat="43.13219" lon="3.08837">
        <ele>76</ele>
        <time>2025-12-29T15:14:54.802Z</time>
      </trkpt>
      <trkpt lat="43.13219" lon="3.08839">
        <ele>75</ele>
        <time>2025-12-29T15:14:55.802Z</time>
      </trkpt>
      <trkpt lat="43.1322" lon="3.0884">
        <ele>75</ele>
        <time>2025-12-29T15:14:56.802Z</time>
      </trkpt>
      <trkpt lat="43.1322" lon="3.08841">
        <ele>75</ele>
        <time>2025-12-29T15:14:57.802Z</time>
      </trkpt>
      <trkpt lat="43.1322" lon="3.08843">
        <ele>74</ele>
        <time>2025-12-29T15:14:58.802Z</time>
      </trkpt>
      <trkpt lat="43.13221" lon="3.08844">
        <ele>74</ele>
        <time>2025-12-29T15:14:59.802Z</time>
      </trkpt>
      <trkpt lat="43.13221" lon="3.08846">
        <ele>73</ele>
        <time>2025-12-29T15:15:00.802Z</time>
      </trkpt>
      <trkpt lat="43.13222" lon="3.08848">
        <ele>73</ele>
        <time>2025-12-29T15:15:01.802Z</time>
      </trkpt>
      <trkpt lat="43.13222" lon="3.08849">
        <ele>72</ele>
        <time>2025-12-29T15:15:02.802Z</time>
      </trkpt>
      <trkpt lat="43.13223" lon="3.08851">
        <ele>72</ele>
        <time>2025-12-29T15:15:03.802Z</time>
      </trkpt>
      <trkpt lat="43.13223" lon="3.08852">
        <ele>72</ele>
        <time>2025-12-29T15:15:04.802Z</time>
      </trkpt>
      <trkpt lat="43.13224" lon="3.08854">
        <ele>71</ele>
        <time>2025-12-29T15:15:05.802Z</time>
      </trkpt>
      <trkpt lat="43.13225" lon="3.08855">
        <ele>71</ele>
        <time>2025-12-29T15:15:06.802Z</time>
      </trkpt>
      <trkpt lat="43.13226" lon="3.08857">
        <ele>71</ele>
        <time>2025-12-29T15:15:07.802Z</time>
      </trkpt>
      <trkpt lat="43.13226" lon="3.08859">
        <ele>71</ele>
        <time>2025-12-29T15:15:08.802Z</time>
      </trkpt>
      <trkpt lat="43.13226" lon="3.0886">
        <ele>71</ele>
        <time>2025-12-29T15:15:09.802Z</time>
      </trkpt>
      <trkpt lat="43.13227" lon="3.08862">
        <ele>71</ele>
        <time>2025-12-29T15:15:10.802Z</time>
      </trkpt>
      <trkpt lat="43.13227" lon="3.08863">
        <ele>71</ele>
        <time>2025-12-29T15:15:11.802Z</time>
      </trkpt>
      <trkpt lat="43.13227" lon="3.08865">
        <ele>71</ele>
        <time>2025-12-29T15:15:12.802Z</time>
      </trkpt>
      <trkpt lat="43.13228" lon="3.08867">
        <ele>71</ele>
        <time>2025-12-29T15:15:13.802Z</time>
      </trkpt>
      <trkpt lat="43.13228" lon="3.08869">
        <ele>71</ele>
        <time>2025-12-29T15:15:14.802Z</time>
      </trkpt>
      <trkpt lat="43.13228" lon="3.08871">
        <ele>71</ele>
        <time>2025-12-29T15:15:15.802Z</time>
      </trkpt>
      <trkpt lat="43.13228" lon="3.08872">
        <ele>71</ele>
        <time>2025-12-29T15:15:16.802Z</time>
      </trkpt>
      <trkpt lat="43.13228" lon="3.08874">
        <ele>71</ele>
        <time>2025-12-29T15:15:17.802Z</time>
      </trkpt>
      <trkpt lat="43.13228" lon="3.08875">
        <ele>71</ele>
        <time>2025-12-29T15:15:18.802Z</time>
      </trkpt>
      <trkpt lat="43.13229" lon="3.08877">
        <ele>71</ele>
        <time>2025-12-29T15:15:19.802Z</time>
      </trkpt>
      <trkpt lat="43.13229" lon="3.08879">
        <ele>71</ele>
        <time>2025-12-29T15:15:20.802Z</time>
      </trkpt>
      <trkpt lat="43.13229" lon="3.08881">
        <ele>71</ele>
        <time>2025-12-29T15:15:21.802Z</time>
      </trkpt>
      <trkpt lat="43.13229" lon="3.08882">
        <ele>71</ele>
        <time>2025-12-29T15:15:22.802Z</time>
      </trkpt>
      <trkpt lat="43.13229" lon="3.08884">
        <ele>70</ele>
        <time>2025-12-29T15:15:23.802Z</time>
      </trkpt>
      <trkpt lat="43.13228" lon="3.08886">
        <ele>70</ele>
        <time>2025-12-29T15:15:24.802Z</time>
      </trkpt>
      <trkpt lat="43.13228" lon="3.08888">
        <ele>70</ele>
        <time>2025-12-29T15:15:25.802Z</time>
      </trkpt>
      <trkpt lat="43.13228" lon="3.08889">
        <ele>70</ele>
        <time>2025-12-29T15:15:26.802Z</time>
      </trkpt>
      <trkpt lat="43.13228" lon="3.08891">
        <ele>70</ele>
        <time>2025-12-29T15:15:27.802Z</time>
      </trkpt>
      <trkpt lat="43.13228" lon="3.08893">
        <ele>70</ele>
        <time>2025-12-29T15:15:28.802Z</time>
      </trkpt>
      <trkpt lat="43.13229" lon="3.08895">
        <ele>70</ele>
        <time>2025-12-29T15:15:29.802Z</time>
      </trkpt>
      <trkpt lat="43.1323" lon="3.08896">
        <ele>70</ele>
        <time>2025-12-29T15:15:30.802Z</time>
      </trkpt>
      <trkpt lat="43.13231" lon="3.08898">
        <ele>70</ele>
        <time>2025-12-29T15:15:31.802Z</time>
      </trkpt>
      <trkpt lat="43.13232" lon="3.08899">
        <ele>70</ele>
        <time>2025-12-29T15:15:32.802Z</time>
      </trkpt>
      <trkpt lat="43.13232" lon="3.08901">
        <ele>69</ele>
        <time>2025-12-29T15:15:33.802Z</time>
      </trkpt>
      <trkpt lat="43.13233" lon="3.08904">
        <ele>70</ele>
        <time>2025-12-29T15:15:34.802Z</time>
      </trkpt>
      <trkpt lat="43.13233" lon="3.08907">
        <ele>70</ele>
        <time>2025-12-29T15:15:35.802Z</time>
      </trkpt>
      <trkpt lat="43.13234" lon="3.08909">
        <ele>70</ele>
        <time>2025-12-29T15:15:36.802Z</time>
      </trkpt>
      <trkpt lat="43.13234" lon="3.08912">
        <ele>69</ele>
        <time>2025-12-29T15:15:37.802Z</time>
      </trkpt>
      <trkpt lat="43.13234" lon="3.08913">
        <ele>69</ele>
        <time>2025-12-29T15:15:38.802Z</time>
      </trkpt>
      <trkpt lat="43.13235" lon="3.08916">
        <ele>69</ele>
        <time>2025-12-29T15:15:39.802Z</time>
      </trkpt>
      <trkpt lat="43.13235" lon="3.08917">
        <ele>69</ele>
        <time>2025-12-29T15:15:40.802Z</time>
      </trkpt>
      <trkpt lat="43.13236" lon="3.08919">
        <ele>69</ele>
        <time>2025-12-29T15:15:41.802Z</time>
      </trkpt>
      <trkpt lat="43.13236" lon="3.08921">
        <ele>69</ele>
        <time>2025-12-29T15:15:42.802Z</time>
      </trkpt>
      <trkpt lat="43.13236" lon="3.08923">
        <ele>69</ele>
        <time>2025-12-29T15:15:43.802Z</time>
      </trkpt>
      <trkpt lat="43.13237" lon="3.08924">
        <ele>69</ele>
        <time>2025-12-29T15:15:44.802Z</time>
      </trkpt>
      <trkpt lat="43.13237" lon="3.08926">
        <ele>69</ele>
        <time>2025-12-29T15:15:45.802Z</time>
      </trkpt>
      <trkpt lat="43.13237" lon="3.08928">
        <ele>68</ele>
        <time>2025-12-29T15:15:46.802Z</time>
      </trkpt>
      <trkpt lat="43.13237" lon="3.08929">
        <ele>68</ele>
        <time>2025-12-29T15:15:47.802Z</time>
      </trkpt>
      <trkpt lat="43.13238" lon="3.08931">
        <ele>68</ele>
        <time>2025-12-29T15:15:48.802Z</time>
      </trkpt>
      <trkpt lat="43.13238" lon="3.08932">
        <ele>68</ele>
        <time>2025-12-29T15:15:49.802Z</time>
      </trkpt>
      <trkpt lat="43.13238" lon="3.08934">
        <ele>67</ele>
        <time>2025-12-29T15:15:50.802Z</time>
      </trkpt>
      <trkpt lat="43.13238" lon="3.08936">
        <ele>67</ele>
        <time>2025-12-29T15:15:51.802Z</time>
      </trkpt>
      <trkpt lat="43.13238" lon="3.08937">
        <ele>67</ele>
        <time>2025-12-29T15:15:52.802Z</time>
      </trkpt>
      <trkpt lat="43.13238" lon="3.08939">
        <ele>67</ele>
        <time>2025-12-29T15:15:53.802Z</time>
      </trkpt>
      <trkpt lat="43.13238" lon="3.08941">
        <ele>67</ele>
        <time>2025-12-29T15:15:54.802Z</time>
      </trkpt>
      <trkpt lat="43.13237" lon="3.08942">
        <ele>67</ele>
        <time>2025-12-29T15:15:55.802Z</time>
      </trkpt>
      <trkpt lat="43.13237" lon="3.08943">
        <ele>67</ele>
        <time>2025-12-29T15:15:56.802Z</time>
      </trkpt>
      <trkpt lat="43.13236" lon="3.08945">
        <ele>67</ele>
        <time>2025-12-29T15:15:57.802Z</time>
      </trkpt>
      <trkpt lat="43.13235" lon="3.08946">
        <ele>67</ele>
        <time>2025-12-29T15:15:58.802Z</time>
      </trkpt>
      <trkpt lat="43.13235" lon="3.08948">
        <ele>67</ele>
        <time>2025-12-29T15:15:59.802Z</time>
      </trkpt>
      <trkpt lat="43.13235" lon="3.08949">
        <ele>67</ele>
        <time>2025-12-29T15:16:00.802Z</time>
      </trkpt>
      <trkpt lat="43.13235" lon="3.08951">
        <ele>67</ele>
        <time>2025-12-29T15:16:01.802Z</time>
      </trkpt>
      <trkpt lat="43.13235" lon="3.08952">
        <ele>67</ele>
        <time>2025-12-29T15:16:02.802Z</time>
      </trkpt>
      <trkpt lat="43.13235" lon="3.08954">
        <ele>67</ele>
        <time>2025-12-29T15:16:03.802Z</time>
      </trkpt>
      <trkpt lat="43.13235" lon="3.08955">
        <ele>67</ele>
        <time>2025-12-29T15:16:04.802Z</time>
      </trkpt>
      <trkpt lat="43.13236" lon="3.08956">
        <ele>67</ele>
        <time>2025-12-29T15:16:05.802Z</time>
      </trkpt>
      <trkpt lat="43.13236" lon="3.08958">
        <ele>67</ele>
        <time>2025-12-29T15:16:06.802Z</time>
      </trkpt>
      <trkpt lat="43.13237" lon="3.08958">
        <ele>67</ele>
        <time>2025-12-29T15:16:07.802Z</time>
      </trkpt>
      <trkpt lat="43.13237" lon="3.08959">
        <ele>67</ele>
        <time>2025-12-29T15:16:08.802Z</time>
      </trkpt>
      <trkpt lat="43.13238" lon="3.0896">
        <ele>67</ele>
        <time>2025-12-29T15:16:09.802Z</time>
      </trkpt>
      <trkpt lat="43.13238" lon="3.08961">
        <ele>67</ele>
        <time>2025-12-29T15:16:10.802Z</time>
      </trkpt>
      <trkpt lat="43.13239" lon="3.08963">
        <ele>67</ele>
        <time>2025-12-29T15:16:11.802Z</time>
      </trkpt>
      <trkpt lat="43.13239" lon="3.08964">
        <ele>67</ele>
        <time>2025-12-29T15:16:12.802Z</time>
      </trkpt>
      <trkpt lat="43.1324" lon="3.08965">
        <ele>66</ele>
        <time>2025-12-29T15:16:13.802Z</time>
      </trkpt>
      <trkpt lat="43.1324" lon="3.08966">
        <ele>66</ele>
        <time>2025-12-29T15:16:14.802Z</time>
      </trkpt>
      <trkpt lat="43.13241" lon="3.08967">
        <ele>66</ele>
        <time>2025-12-29T15:16:15.802Z</time>
      </trkpt>
      <trkpt lat="43.13242" lon="3.08969">
        <ele>66</ele>
        <time>2025-12-29T15:16:16.802Z</time>
      </trkpt>
      <trkpt lat="43.13242" lon="3.0897">
        <ele>66</ele>
        <time>2025-12-29T15:16:17.802Z</time>
      </trkpt>
      <trkpt lat="43.13243" lon="3.08971">
        <ele>66</ele>
        <time>2025-12-29T15:16:18.802Z</time>
      </trkpt>
      <trkpt lat="43.13244" lon="3.08973">
        <ele>66</ele>
        <time>2025-12-29T15:16:19.802Z</time>
      </trkpt>
      <trkpt lat="43.13244" lon="3.08974">
        <ele>66</ele>
        <time>2025-12-29T15:16:20.802Z</time>
      </trkpt>
      <trkpt lat="43.13244" lon="3.08976">
        <ele>66</ele>
        <time>2025-12-29T15:16:21.802Z</time>
      </trkpt>
      <trkpt lat="43.13245" lon="3.08978">
        <ele>65</ele>
        <time>2025-12-29T15:16:22.802Z</time>
      </trkpt>
      <trkpt lat="43.13245" lon="3.08979">
        <ele>65</ele>
        <time>2025-12-29T15:16:23.802Z</time>
      </trkpt>
      <trkpt lat="43.13244" lon="3.0898">
        <ele>65</ele>
        <time>2025-12-29T15:16:24.802Z</time>
      </trkpt>
      <trkpt lat="43.13244" lon="3.08981">
        <ele>65</ele>
        <time>2025-12-29T15:16:25.802Z</time>
      </trkpt>
      <trkpt lat="43.13244" lon="3.08983">
        <ele>65</ele>
        <time>2025-12-29T15:16:26.802Z</time>
      </trkpt>
      <trkpt lat="43.13244" lon="3.08985">
        <ele>65</ele>
        <time>2025-12-29T15:16:27.802Z</time>
      </trkpt>
      <trkpt lat="43.13244" lon="3.08987">
        <ele>64</ele>
        <time>2025-12-29T15:16:28.802Z</time>
      </trkpt>
      <trkpt lat="43.13244" lon="3.08988">
        <ele>64</ele>
        <time>2025-12-29T15:16:29.802Z</time>
      </trkpt>
      <trkpt lat="43.13245" lon="3.0899">
        <ele>64</ele>
        <time>2025-12-29T15:16:30.802Z</time>
      </trkpt>
      <trkpt lat="43.13245" lon="3.08991">
        <ele>64</ele>
        <time>2025-12-29T15:16:31.802Z</time>
      </trkpt>
      <trkpt lat="43.13245" lon="3.08994">
        <ele>64</ele>
        <time>2025-12-29T15:16:32.802Z</time>
      </trkpt>
      <trkpt lat="43.13245" lon="3.08996">
        <ele>64</ele>
        <time>2025-12-29T15:16:33.802Z</time>
      </trkpt>
      <trkpt lat="43.13245" lon="3.08999">
        <ele>64</ele>
        <time>2025-12-29T15:16:34.802Z</time>
      </trkpt>
      <trkpt lat="43.13246" lon="3.09">
        <ele>64</ele>
        <time>2025-12-29T15:16:35.802Z</time>
      </trkpt>
      <trkpt lat="43.13246" lon="3.09001">
        <ele>64</ele>
        <time>2025-12-29T15:16:36.802Z</time>
      </trkpt>
      <trkpt lat="43.13247" lon="3.09002">
        <ele>64</ele>
        <time>2025-12-29T15:16:37.802Z</time>
      </trkpt>
      <trkpt lat="43.13247" lon="3.09003">
        <ele>63</ele>
        <time>2025-12-29T15:16:38.802Z</time>
      </trkpt>
      <trkpt lat="43.13248" lon="3.09004">
        <ele>63</ele>
        <time>2025-12-29T15:16:39.802Z</time>
      </trkpt>
      <trkpt lat="43.13248" lon="3.09005">
        <ele>63</ele>
        <time>2025-12-29T15:16:40.802Z</time>
      </trkpt>
      <trkpt lat="43.13248" lon="3.09006">
        <ele>62</ele>
        <time>2025-12-29T15:16:41.802Z</time>
      </trkpt>
      <trkpt lat="43.13249" lon="3.09007">
        <ele>62</ele>
        <time>2025-12-29T15:16:42.802Z</time>
      </trkpt>
      <trkpt lat="43.1325" lon="3.09008">
        <ele>62</ele>
        <time>2025-12-29T15:16:43.802Z</time>
      </trkpt>
      <trkpt lat="43.1325" lon="3.09009">
        <ele>62</ele>
        <time>2025-12-29T15:16:44.802Z</time>
      </trkpt>
      <trkpt lat="43.1325" lon="3.09011">
        <ele>62</ele>
        <time>2025-12-29T15:16:45.802Z</time>
      </trkpt>
      <trkpt lat="43.1325" lon="3.09012">
        <ele>61</ele>
        <time>2025-12-29T15:16:46.802Z</time>
      </trkpt>
      <trkpt lat="43.13251" lon="3.09014">
        <ele>61</ele>
        <time>2025-12-29T15:16:47.802Z</time>
      </trkpt>
      <trkpt lat="43.13253" lon="3.09016">
        <ele>60</ele>
        <time>2025-12-29T15:16:48.802Z</time>
      </trkpt>
      <trkpt lat="43.13253" lon="3.09017">
        <ele>60</ele>
        <time>2025-12-29T15:16:49.802Z</time>
      </trkpt>
      <trkpt lat="43.13253" lon="3.09018">
        <ele>59</ele>
        <time>2025-12-29T15:16:50.802Z</time>
      </trkpt>
      <trkpt lat="43.13254" lon="3.0902">
        <ele>59</ele>
        <time>2025-12-29T15:16:51.802Z</time>
      </trkpt>
      <trkpt lat="43.13256" lon="3.09021">
        <ele>58</ele>
        <time>2025-12-29T15:16:52.802Z</time>
      </trkpt>
      <trkpt lat="43.13255" lon="3.09023">
        <ele>57</ele>
        <time>2025-12-29T15:16:53.802Z</time>
      </trkpt>
      <trkpt lat="43.13256" lon="3.09026">
        <ele>57</ele>
        <time>2025-12-29T15:16:54.802Z</time>
      </trkpt>
      <trkpt lat="43.13257" lon="3.09031">
        <ele>56</ele>
        <time>2025-12-29T15:16:55.802Z</time>
      </trkpt>
      <trkpt lat="43.13258" lon="3.0903">
        <ele>56</ele>
        <time>2025-12-29T15:16:56.802Z</time>
      </trkpt>
      <trkpt lat="43.13258" lon="3.09031">
        <ele>55</ele>
        <time>2025-12-29T15:16:57.802Z</time>
      </trkpt>
      <trkpt lat="43.1326" lon="3.0903">
        <ele>55</ele>
        <time>2025-12-29T15:16:58.802Z</time>
      </trkpt>
      <trkpt lat="43.13259" lon="3.09028">
        <ele>55</ele>
        <time>2025-12-29T15:16:59.802Z</time>
      </trkpt>
      <trkpt lat="43.1326" lon="3.09029">
        <ele>54</ele>
        <time>2025-12-29T15:17:00.802Z</time>
      </trkpt>
      <trkpt lat="43.13261" lon="3.0903">
        <ele>54</ele>
        <time>2025-12-29T15:17:01.802Z</time>
      </trkpt>
      <trkpt lat="43.13262" lon="3.09031">
        <ele>54</ele>
        <time>2025-12-29T15:17:02.802Z</time>
      </trkpt>
      <trkpt lat="43.13263" lon="3.09033">
        <ele>54</ele>
        <time>2025-12-29T15:17:03.802Z</time>
      </trkpt>
      <trkpt lat="43.13264" lon="3.09033">
        <ele>54</ele>
        <time>2025-12-29T15:17:04.802Z</time>
      </trkpt>
      <trkpt lat="43.13265" lon="3.09034">
        <ele>54</ele>
        <time>2025-12-29T15:17:05.802Z</time>
      </trkpt>
      <trkpt lat="43.13265" lon="3.09035">
        <ele>53</ele>
        <time>2025-12-29T15:17:06.802Z</time>
      </trkpt>
      <trkpt lat="43.13266" lon="3.09037">
        <ele>53</ele>
        <time>2025-12-29T15:17:07.802Z</time>
      </trkpt>
      <trkpt lat="43.13266" lon="3.09039">
        <ele>53</ele>
        <time>2025-12-29T15:17:08.802Z</time>
      </trkpt>
      <trkpt lat="43.13266" lon="3.0904">
        <ele>53</ele>
        <time>2025-12-29T15:17:09.802Z</time>
      </trkpt>
      <trkpt lat="43.13267" lon="3.09042">
        <ele>53</ele>
        <time>2025-12-29T15:17:10.802Z</time>
      </trkpt>
      <trkpt lat="43.13267" lon="3.09045">
        <ele>52</ele>
        <time>2025-12-29T15:17:11.802Z</time>
      </trkpt>
      <trkpt lat="43.13267" lon="3.09046">
        <ele>52</ele>
        <time>2025-12-29T15:17:12.802Z</time>
      </trkpt>
      <trkpt lat="43.13268" lon="3.09048">
        <ele>52</ele>
        <time>2025-12-29T15:17:13.802Z</time>
      </trkpt>
      <trkpt lat="43.13268" lon="3.0905">
        <ele>52</ele>
        <time>2025-12-29T15:17:14.802Z</time>
      </trkpt>
      <trkpt lat="43.13268" lon="3.09052">
        <ele>52</ele>
        <time>2025-12-29T15:17:15.802Z</time>
      </trkpt>
      <trkpt lat="43.13269" lon="3.09053">
        <ele>52</ele>
        <time>2025-12-29T15:17:16.802Z</time>
      </trkpt>
      <trkpt lat="43.13269" lon="3.09055">
        <ele>52</ele>
        <time>2025-12-29T15:17:17.802Z</time>
      </trkpt>
      <trkpt lat="43.13269" lon="3.09056">
        <ele>52</ele>
        <time>2025-12-29T15:17:18.802Z</time>
      </trkpt>
      <trkpt lat="43.1327" lon="3.09058">
        <ele>52</ele>
        <time>2025-12-29T15:17:19.802Z</time>
      </trkpt>
      <trkpt lat="43.13271" lon="3.09059">
        <ele>52</ele>
        <time>2025-12-29T15:17:20.802Z</time>
      </trkpt>
      <trkpt lat="43.13272" lon="3.0906">
        <ele>52</ele>
        <time>2025-12-29T15:17:21.802Z</time>
      </trkpt>
      <trkpt lat="43.13273" lon="3.09061">
        <ele>51</ele>
        <time>2025-12-29T15:17:22.802Z</time>
      </trkpt>
      <trkpt lat="43.13274" lon="3.09062">
        <ele>51</ele>
        <time>2025-12-29T15:17:23.802Z</time>
      </trkpt>
      <trkpt lat="43.13274" lon="3.09063">
        <ele>50</ele>
        <time>2025-12-29T15:17:24.802Z</time>
      </trkpt>
      <trkpt lat="43.13275" lon="3.09064">
        <ele>50</ele>
        <time>2025-12-29T15:17:25.802Z</time>
      </trkpt>
      <trkpt lat="43.13276" lon="3.09065">
        <ele>49</ele>
        <time>2025-12-29T15:17:26.802Z</time>
      </trkpt>
      <trkpt lat="43.13276" lon="3.09066">
        <ele>49</ele>
        <time>2025-12-29T15:17:27.802Z</time>
      </trkpt>
      <trkpt lat="43.13276" lon="3.09067">
        <ele>49</ele>
        <time>2025-12-29T15:17:28.802Z</time>
      </trkpt>
      <trkpt lat="43.13275" lon="3.09068">
        <ele>49</ele>
        <time>2025-12-29T15:17:29.802Z</time>
      </trkpt>
      <trkpt lat="43.13275" lon="3.09068">
        <ele>48</ele>
        <time>2025-12-29T15:17:30.802Z</time>
      </trkpt>
      <trkpt lat="43.13274" lon="3.09068">
        <ele>48</ele>
        <time>2025-12-29T15:17:31.802Z</time>
      </trkpt>
      <trkpt lat="43.13274" lon="3.09069">
        <ele>48</ele>
        <time>2025-12-29T15:17:32.802Z</time>
      </trkpt>
      <trkpt lat="43.13274" lon="3.09069">
        <ele>48</ele>
        <time>2025-12-29T15:17:33.802Z</time>
      </trkpt>
      <trkpt lat="43.13274" lon="3.09069">
        <ele>48</ele>
        <time>2025-12-29T15:17:34.802Z</time>
      </trkpt>
      <trkpt lat="43.13274" lon="3.09069">
        <ele>48</ele>
        <time>2025-12-29T15:17:35.802Z</time>
      </trkpt>
      <trkpt lat="43.13274" lon="3.09069">
        <ele>48</ele>
        <time>2025-12-29T15:17:36.802Z</time>
      </trkpt>
      <trkpt lat="43.13274" lon="3.09069">
        <ele>48</ele>
        <time>2025-12-29T15:17:37.802Z</time>
      </trkpt>
      <trkpt lat="43.13274" lon="3.09069">
        <ele>48</ele>
        <time>2025-12-29T15:17:38.802Z</time>
      </trkpt>
      <trkpt lat="43.13274" lon="3.09069">
        <ele>48</ele>
        <time>2025-12-29T15:17:39.802Z</time>
      </trkpt>
      <trkpt lat="43.13274" lon="3.09069">
        <ele>48</ele>
        <time>2025-12-29T15:17:40.802Z</time>
      </trkpt>
      <trkpt lat="43.13274" lon="3.09069">
        <ele>48</ele>
        <time>2025-12-29T15:17:41.802Z</time>
      </trkpt>
      <trkpt lat="43.13274" lon="3.09069">
        <ele>47</ele>
        <time>2025-12-29T15:17:42.802Z</time>
      </trkpt>
      <trkpt lat="43.13274" lon="3.09069">
        <ele>47</ele>
        <time>2025-12-29T15:17:43.802Z</time>
      </trkpt>
      <trkpt lat="43.13274" lon="3.09069">
        <ele>47</ele>
        <time>2025-12-29T15:17:44.802Z</time>
      </trkpt>
      <trkpt lat="43.13274" lon="3.09069">
        <ele>47</ele>
        <time>2025-12-29T15:17:45.802Z</time>
      </trkpt>
      <trkpt lat="43.13274" lon="3.09069">
        <ele>46</ele>
        <time>2025-12-29T15:17:46.802Z</time>
      </trkpt>
      <trkpt lat="43.13274" lon="3.09069">
        <ele>46</ele>
        <time>2025-12-29T15:17:47.802Z</time>
      </trkpt>
      <trkpt lat="43.13274" lon="3.09069">
        <ele>46</ele>
        <time>2025-12-29T15:17:48.802Z</time>
      </trkpt>
      <trkpt lat="43.13274" lon="3.09069">
        <ele>46</ele>
        <time>2025-12-29T15:17:49.802Z</time>
      </trkpt>
      <trkpt lat="43.13274" lon="3.09069">
        <ele>45</ele>
        <time>2025-12-29T15:17:50.802Z</time>
      </trkpt>
      <trkpt lat="43.13274" lon="3.09069">
        <ele>45</ele>
        <time>2025-12-29T15:17:51.802Z</time>
      </trkpt>
      <trkpt lat="43.13274" lon="3.09069">
        <ele>45</ele>
        <time>2025-12-29T15:17:52.802Z</time>
      </trkpt>
      <trkpt lat="43.13274" lon="3.09069">
        <ele>44</ele>
        <time>2025-12-29T15:17:53.802Z</time>
      </trkpt>
      <trkpt lat="43.13275" lon="3.09069">
        <ele>43</ele>
        <time>2025-12-29T15:17:54.802Z</time>
      </trkpt>
      <trkpt lat="43.13275" lon="3.09069">
        <ele>42</ele>
        <time>2025-12-29T15:17:55.802Z</time>
      </trkpt>
      <trkpt lat="43.13275" lon="3.09069">
        <ele>42</ele>
        <time>2025-12-29T15:17:56.802Z</time>
      </trkpt>
      <trkpt lat="43.13275" lon="3.09069">
        <ele>41</ele>
        <time>2025-12-29T15:17:57.802Z</time>
      </trkpt>
      <trkpt lat="43.13274" lon="3.09069">
        <ele>40</ele>
        <time>2025-12-29T15:17:58.802Z</time>
      </trkpt>
      <trkpt lat="43.13274" lon="3.09069">
        <ele>40</ele>
        <time>2025-12-29T15:17:59.802Z</time>
      </trkpt>
      <trkpt lat="43.13274" lon="3.09069">
        <ele>39</ele>
        <time>2025-12-29T15:18:00.802Z</time>
      </trkpt>
      <trkpt lat="43.13274" lon="3.09069">
        <ele>39</ele>
        <time>2025-12-29T15:18:01.802Z</time>
      </trkpt>
      <trkpt lat="43.13274" lon="3.09069">
        <ele>38</ele>
        <time>2025-12-29T15:18:02.802Z</time>
      </trkpt>
      <trkpt lat="43.13274" lon="3.09069">
        <ele>38</ele>
        <time>2025-12-29T15:18:03.802Z</time>
      </trkpt>
      <trkpt lat="43.13274" lon="3.09069">
        <ele>37</ele>
        <time>2025-12-29T15:18:04.802Z</time>
      </trkpt>
      <trkpt lat="43.13274" lon="3.09069">
        <ele>37</ele>
        <time>2025-12-29T15:18:05.802Z</time>
      </trkpt>
      <trkpt lat="43.13274" lon="3.09069">
        <ele>37</ele>
        <time>2025-12-29T15:18:06.802Z</time>
      </trkpt>
      <trkpt lat="43.13274" lon="3.09069">
        <ele>37</ele>
        <time>2025-12-29T15:18:07.802Z</time>
      </trkpt>
      <trkpt lat="43.13274" lon="3.09069">
        <ele>36</ele>
        <time>2025-12-29T15:18:08.802Z</time>
      </trkpt>
      <trkpt lat="43.13274" lon="3.09069">
        <ele>36</ele>
        <time>2025-12-29T15:18:09.802Z</time>
      </trkpt>
      <trkpt lat="43.13274" lon="3.09069">
        <ele>36</ele>
        <time>2025-12-29T15:18:10.802Z</time>
      </trkpt>
      <trkpt lat="43.13275" lon="3.09069">
        <ele>36</ele>
        <time>2025-12-29T15:18:11.802Z</time>
      </trkpt>
      <trkpt lat="43.13275" lon="3.09069">
        <ele>36</ele>
        <time>2025-12-29T15:18:12.802Z</time>
      </trkpt>
      <trkpt lat="43.13275" lon="3.09069">
        <ele>37</ele>
        <time>2025-12-29T15:18:13.802Z</time>
      </trkpt>
      <trkpt lat="43.13275" lon="3.0907">
        <ele>37</ele>
        <time>2025-12-29T15:18:14.802Z</time>
      </trkpt>
      <trkpt lat="43.13275" lon="3.0907">
        <ele>37</ele>
        <time>2025-12-29T15:18:15.802Z</time>
      </trkpt>
      <trkpt lat="43.13276" lon="3.09071">
        <ele>38</ele>
        <time>2025-12-29T15:18:16.802Z</time>
      </trkpt>
      <trkpt lat="43.13276" lon="3.09071">
        <ele>38</ele>
        <time>2025-12-29T15:18:17.802Z</time>
      </trkpt>
      <trkpt lat="43.13276" lon="3.09071">
        <ele>38</ele>
        <time>2025-12-29T15:18:18.802Z</time>
      </trkpt>
      <trkpt lat="43.13277" lon="3.09071">
        <ele>39</ele>
        <time>2025-12-29T15:18:19.802Z</time>
      </trkpt>
      <trkpt lat="43.13277" lon="3.09071">
        <ele>39</ele>
        <time>2025-12-29T15:18:20.802Z</time>
      </trkpt>
      <trkpt lat="43.13277" lon="3.09071">
        <ele>40</ele>
        <time>2025-12-29T15:18:21.802Z</time>
      </trkpt>
      <trkpt lat="43.13277" lon="3.09071">
        <ele>40</ele>
        <time>2025-12-29T15:18:22.802Z</time>
      </trkpt>
      <trkpt lat="43.13277" lon="3.09071">
        <ele>40</ele>
        <time>2025-12-29T15:18:23.802Z</time>
      </trkpt>
      <trkpt lat="43.13277" lon="3.09071">
        <ele>40</ele>
        <time>2025-12-29T15:18:24.802Z</time>
      </trkpt>
      <trkpt lat="43.13277" lon="3.09071">
        <ele>41</ele>
        <time>2025-12-29T15:18:25.802Z</time>
      </trkpt>
      <trkpt lat="43.13277" lon="3.09071">
        <ele>41</ele>
        <time>2025-12-29T15:18:26.802Z</time>
      </trkpt>
      <trkpt lat="43.13277" lon="3.09071">
        <ele>42</ele>
        <time>2025-12-29T15:18:27.802Z</time>
      </trkpt>
      <trkpt lat="43.13277" lon="3.09071">
        <ele>42</ele>
        <time>2025-12-29T15:18:28.802Z</time>
      </trkpt>
      <trkpt lat="43.13277" lon="3.09071">
        <ele>43</ele>
        <time>2025-12-29T15:18:29.802Z</time>
      </trkpt>
      <trkpt lat="43.13277" lon="3.09071">
        <ele>43</ele>
        <time>2025-12-29T15:18:30.802Z</time>
      </trkpt>
      <trkpt lat="43.13277" lon="3.09071">
        <ele>43</ele>
        <time>2025-12-29T15:18:31.802Z</time>
      </trkpt>
      <trkpt lat="43.13277" lon="3.09071">
        <ele>44</ele>
        <time>2025-12-29T15:18:32.802Z</time>
      </trkpt>
      <trkpt lat="43.13277" lon="3.09071">
        <ele>44</ele>
        <time>2025-12-29T15:18:33.802Z</time>
      </trkpt>
      <trkpt lat="43.13277" lon="3.09071">
        <ele>44</ele>
        <time>2025-12-29T15:18:34.802Z</time>
      </trkpt>
      <trkpt lat="43.13277" lon="3.09071">
        <ele>44</ele>
        <time>2025-12-29T15:18:35.802Z</time>
      </trkpt>
      <trkpt lat="43.13277" lon="3.09071">
        <ele>44</ele>
        <time>2025-12-29T15:18:36.802Z</time>
      </trkpt>
      <trkpt lat="43.13277" lon="3.09071">
        <ele>44</ele>
        <time>2025-12-29T15:18:37.802Z</time>
      </trkpt>
      <trkpt lat="43.13277" lon="3.09071">
        <ele>44</ele>
        <time>2025-12-29T15:18:38.802Z</time>
      </trkpt>
      <trkpt lat="43.13277" lon="3.09071">
        <ele>44</ele>
        <time>2025-12-29T15:18:39.802Z</time>
      </trkpt>
      <trkpt lat="43.13277" lon="3.09071">
        <ele>44</ele>
        <time>2025-12-29T15:18:40.802Z</time>
      </trkpt>
      <trkpt lat="43.13277" lon="3.09072">
        <ele>44</ele>
        <time>2025-12-29T15:18:41.802Z</time>
      </trkpt>
      <trkpt lat="43.13277" lon="3.09073">
        <ele>44</ele>
        <time>2025-12-29T15:18:42.802Z</time>
      </trkpt>
      <trkpt lat="43.13277" lon="3.09074">
        <ele>44</ele>
        <time>2025-12-29T15:18:43.802Z</time>
      </trkpt>
      <trkpt lat="43.13277" lon="3.09075">
        <ele>44</ele>
        <time>2025-12-29T15:18:44.802Z</time>
      </trkpt>
      <trkpt lat="43.13277" lon="3.09076">
        <ele>44</ele>
        <time>2025-12-29T15:18:45.802Z</time>
      </trkpt>
      <trkpt lat="43.13277" lon="3.09077">
        <ele>44</ele>
        <time>2025-12-29T15:18:46.802Z</time>
      </trkpt>
      <trkpt lat="43.13276" lon="3.09078">
        <ele>44</ele>
        <time>2025-12-29T15:18:47.802Z</time>
      </trkpt>
      <trkpt lat="43.13276" lon="3.09079">
        <ele>44</ele>
        <time>2025-12-29T15:18:48.802Z</time>
      </trkpt>
      <trkpt lat="43.13275" lon="3.09081">
        <ele>45</ele>
        <time>2025-12-29T15:18:49.802Z</time>
      </trkpt>
      <trkpt lat="43.13275" lon="3.09082">
        <ele>45</ele>
        <time>2025-12-29T15:18:50.802Z</time>
      </trkpt>
      <trkpt lat="43.13275" lon="3.09084">
        <ele>45</ele>
        <time>2025-12-29T15:18:51.802Z</time>
      </trkpt>
      <trkpt lat="43.13275" lon="3.09085">
        <ele>45</ele>
        <time>2025-12-29T15:18:52.802Z</time>
      </trkpt>
      <trkpt lat="43.13275" lon="3.09087">
        <ele>46</ele>
        <time>2025-12-29T15:18:53.802Z</time>
      </trkpt>
      <trkpt lat="43.13275" lon="3.09088">
        <ele>46</ele>
        <time>2025-12-29T15:18:54.802Z</time>
      </trkpt>
      <trkpt lat="43.13275" lon="3.09089">
        <ele>46</ele>
        <time>2025-12-29T15:18:55.802Z</time>
      </trkpt>
      <trkpt lat="43.13275" lon="3.0909">
        <ele>46</ele>
        <time>2025-12-29T15:18:56.802Z</time>
      </trkpt>
      <trkpt lat="43.13276" lon="3.09092">
        <ele>46</ele>
        <time>2025-12-29T15:18:57.802Z</time>
      </trkpt>
      <trkpt lat="43.13276" lon="3.09094">
        <ele>46</ele>
        <time>2025-12-29T15:18:58.802Z</time>
      </trkpt>
      <trkpt lat="43.13276" lon="3.09095">
        <ele>47</ele>
        <time>2025-12-29T15:18:59.802Z</time>
      </trkpt>
      <trkpt lat="43.13276" lon="3.09096">
        <ele>47</ele>
        <time>2025-12-29T15:19:00.802Z</time>
      </trkpt>
      <trkpt lat="43.13276" lon="3.09098">
        <ele>47</ele>
        <time>2025-12-29T15:19:01.802Z</time>
      </trkpt>
      <trkpt lat="43.13276" lon="3.091">
        <ele>46</ele>
        <time>2025-12-29T15:19:02.802Z</time>
      </trkpt>
      <trkpt lat="43.13276" lon="3.09102">
        <ele>46</ele>
        <time>2025-12-29T15:19:03.802Z</time>
      </trkpt>
      <trkpt lat="43.13277" lon="3.09104">
        <ele>46</ele>
        <time>2025-12-29T15:19:04.802Z</time>
      </trkpt>
      <trkpt lat="43.13278" lon="3.09105">
        <ele>46</ele>
        <time>2025-12-29T15:19:05.802Z</time>
      </trkpt>
      <trkpt lat="43.13278" lon="3.09107">
        <ele>46</ele>
        <time>2025-12-29T15:19:06.802Z</time>
      </trkpt>
      <trkpt lat="43.13278" lon="3.09109">
        <ele>45</ele>
        <time>2025-12-29T15:19:07.802Z</time>
      </trkpt>
      <trkpt lat="43.13279" lon="3.09111">
        <ele>45</ele>
        <time>2025-12-29T15:19:08.802Z</time>
      </trkpt>
      <trkpt lat="43.13279" lon="3.09113">
        <ele>45</ele>
        <time>2025-12-29T15:19:09.802Z</time>
      </trkpt>
      <trkpt lat="43.13279" lon="3.09114">
        <ele>45</ele>
        <time>2025-12-29T15:19:10.802Z</time>
      </trkpt>
      <trkpt lat="43.13279" lon="3.09116">
        <ele>45</ele>
        <time>2025-12-29T15:19:11.802Z</time>
      </trkpt>
      <trkpt lat="43.13279" lon="3.09117">
        <ele>45</ele>
        <time>2025-12-29T15:19:12.802Z</time>
      </trkpt>
      <trkpt lat="43.13279" lon="3.09118">
        <ele>45</ele>
        <time>2025-12-29T15:19:13.802Z</time>
      </trkpt>
      <trkpt lat="43.13279" lon="3.0912">
        <ele>46</ele>
        <time>2025-12-29T15:19:14.802Z</time>
      </trkpt>
      <trkpt lat="43.13279" lon="3.09121">
        <ele>46</ele>
        <time>2025-12-29T15:19:15.802Z</time>
      </trkpt>
      <trkpt lat="43.13279" lon="3.09123">
        <ele>46</ele>
        <time>2025-12-29T15:19:16.802Z</time>
      </trkpt>
      <trkpt lat="43.13279" lon="3.09124">
        <ele>47</ele>
        <time>2025-12-29T15:19:17.802Z</time>
      </trkpt>
      <trkpt lat="43.13279" lon="3.09127">
        <ele>47</ele>
        <time>2025-12-29T15:19:18.802Z</time>
      </trkpt>
      <trkpt lat="43.13278" lon="3.09128">
        <ele>48</ele>
        <time>2025-12-29T15:19:19.802Z</time>
      </trkpt>
      <trkpt lat="43.13278" lon="3.0913">
        <ele>48</ele>
        <time>2025-12-29T15:19:20.802Z</time>
      </trkpt>
      <trkpt lat="43.13278" lon="3.09132">
        <ele>48</ele>
        <time>2025-12-29T15:19:21.802Z</time>
      </trkpt>
      <trkpt lat="43.13278" lon="3.09133">
        <ele>49</ele>
        <time>2025-12-29T15:19:22.802Z</time>
      </trkpt>
      <trkpt lat="43.13279" lon="3.09135">
        <ele>49</ele>
        <time>2025-12-29T15:19:23.802Z</time>
      </trkpt>
      <trkpt lat="43.13279" lon="3.09136">
        <ele>49</ele>
        <time>2025-12-29T15:19:24.802Z</time>
      </trkpt>
      <trkpt lat="43.1328" lon="3.09137">
        <ele>49</ele>
        <time>2025-12-29T15:19:25.802Z</time>
      </trkpt>
      <trkpt lat="43.1328" lon="3.09138">
        <ele>49</ele>
        <time>2025-12-29T15:19:26.802Z</time>
      </trkpt>
      <trkpt lat="43.13281" lon="3.09139">
        <ele>50</ele>
        <time>2025-12-29T15:19:27.802Z</time>
      </trkpt>
      <trkpt lat="43.13282" lon="3.0914">
        <ele>50</ele>
        <time>2025-12-29T15:19:28.802Z</time>
      </trkpt>
      <trkpt lat="43.13283" lon="3.09141">
        <ele>51</ele>
        <time>2025-12-29T15:19:29.802Z</time>
      </trkpt>
      <trkpt lat="43.13285" lon="3.09141">
        <ele>51</ele>
        <time>2025-12-29T15:19:30.802Z</time>
      </trkpt>
      <trkpt lat="43.13286" lon="3.09141">
        <ele>51</ele>
        <time>2025-12-29T15:19:31.802Z</time>
      </trkpt>
      <trkpt lat="43.13288" lon="3.09141">
        <ele>52</ele>
        <time>2025-12-29T15:19:32.802Z</time>
      </trkpt>
      <trkpt lat="43.13289" lon="3.09139">
        <ele>52</ele>
        <time>2025-12-29T15:19:33.802Z</time>
      </trkpt>
      <trkpt lat="43.1329" lon="3.09138">
        <ele>52</ele>
        <time>2025-12-29T15:19:34.802Z</time>
      </trkpt>
      <trkpt lat="43.13291" lon="3.09137">
        <ele>52</ele>
        <time>2025-12-29T15:19:35.802Z</time>
      </trkpt>
      <trkpt lat="43.13292" lon="3.09137">
        <ele>52</ele>
        <time>2025-12-29T15:19:36.802Z</time>
      </trkpt>
      <trkpt lat="43.13293" lon="3.09136">
        <ele>52</ele>
        <time>2025-12-29T15:19:37.802Z</time>
      </trkpt>
      <trkpt lat="43.13293" lon="3.09136">
        <ele>52</ele>
        <time>2025-12-29T15:19:38.802Z</time>
      </trkpt>
      <trkpt lat="43.13293" lon="3.09136">
        <ele>52</ele>
        <time>2025-12-29T15:19:39.802Z</time>
      </trkpt>
      <trkpt lat="43.13294" lon="3.09137">
        <ele>51</ele>
        <time>2025-12-29T15:19:40.802Z</time>
      </trkpt>
      <trkpt lat="43.13294" lon="3.09138">
        <ele>51</ele>
        <time>2025-12-29T15:19:41.802Z</time>
      </trkpt>
      <trkpt lat="43.13295" lon="3.09139">
        <ele>50</ele>
        <time>2025-12-29T15:19:42.802Z</time>
      </trkpt>
      <trkpt lat="43.13296" lon="3.0914">
        <ele>50</ele>
        <time>2025-12-29T15:19:43.802Z</time>
      </trkpt>
      <trkpt lat="43.13297" lon="3.09141">
        <ele>50</ele>
        <time>2025-12-29T15:19:44.802Z</time>
      </trkpt>
      <trkpt lat="43.13298" lon="3.09142">
        <ele>50</ele>
        <time>2025-12-29T15:19:45.802Z</time>
      </trkpt>
      <trkpt lat="43.13299" lon="3.09143">
        <ele>50</ele>
        <time>2025-12-29T15:19:46.802Z</time>
      </trkpt>
      <trkpt lat="43.13299" lon="3.09145">
        <ele>50</ele>
        <time>2025-12-29T15:19:47.802Z</time>
      </trkpt>
      <trkpt lat="43.133" lon="3.09146">
        <ele>50</ele>
        <time>2025-12-29T15:19:48.802Z</time>
      </trkpt>
      <trkpt lat="43.133" lon="3.09146">
        <ele>51</ele>
        <time>2025-12-29T15:19:49.802Z</time>
      </trkpt>
      <trkpt lat="43.13301" lon="3.09147">
        <ele>51</ele>
        <time>2025-12-29T15:19:50.802Z</time>
      </trkpt>
      <trkpt lat="43.13302" lon="3.09148">
        <ele>51</ele>
        <time>2025-12-29T15:19:51.802Z</time>
      </trkpt>
      <trkpt lat="43.13303" lon="3.09148">
        <ele>52</ele>
        <time>2025-12-29T15:19:52.802Z</time>
      </trkpt>
      <trkpt lat="43.13304" lon="3.09149">
        <ele>53</ele>
        <time>2025-12-29T15:19:53.802Z</time>
      </trkpt>
      <trkpt lat="43.13304" lon="3.09149">
        <ele>53</ele>
        <time>2025-12-29T15:19:54.802Z</time>
      </trkpt>
      <trkpt lat="43.13305" lon="3.0915">
        <ele>54</ele>
        <time>2025-12-29T15:19:55.802Z</time>
      </trkpt>
      <trkpt lat="43.13306" lon="3.09151">
        <ele>54</ele>
        <time>2025-12-29T15:19:56.802Z</time>
      </trkpt>
      <trkpt lat="43.13306" lon="3.09152">
        <ele>55</ele>
        <time>2025-12-29T15:19:57.802Z</time>
      </trkpt>
      <trkpt lat="43.13306" lon="3.09153">
        <ele>55</ele>
        <time>2025-12-29T15:19:58.802Z</time>
      </trkpt>
      <trkpt lat="43.13307" lon="3.09153">
        <ele>56</ele>
        <time>2025-12-29T15:19:59.802Z</time>
      </trkpt>
      <trkpt lat="43.13308" lon="3.09154">
        <ele>57</ele>
        <time>2025-12-29T15:20:00.802Z</time>
      </trkpt>
      <trkpt lat="43.13308" lon="3.09155">
        <ele>57</ele>
        <time>2025-12-29T15:20:01.802Z</time>
      </trkpt>
      <trkpt lat="43.13309" lon="3.09156">
        <ele>58</ele>
        <time>2025-12-29T15:20:02.802Z</time>
      </trkpt>
      <trkpt lat="43.13309" lon="3.09156">
        <ele>57</ele>
        <time>2025-12-29T15:20:03.802Z</time>
      </trkpt>
      <trkpt lat="43.1331" lon="3.09156">
        <ele>57</ele>
        <time>2025-12-29T15:20:04.802Z</time>
      </trkpt>
      <trkpt lat="43.1331" lon="3.09155">
        <ele>57</ele>
        <time>2025-12-29T15:20:05.802Z</time>
      </trkpt>
      <trkpt lat="43.13311" lon="3.09155">
        <ele>57</ele>
        <time>2025-12-29T15:20:06.802Z</time>
      </trkpt>
      <trkpt lat="43.13311" lon="3.09153">
        <ele>57</ele>
        <time>2025-12-29T15:20:07.802Z</time>
      </trkpt>
      <trkpt lat="43.13311" lon="3.09153">
        <ele>57</ele>
        <time>2025-12-29T15:20:08.802Z</time>
      </trkpt>
      <trkpt lat="43.13311" lon="3.09153">
        <ele>57</ele>
        <time>2025-12-29T15:20:09.802Z</time>
      </trkpt>
      <trkpt lat="43.1331" lon="3.09153">
        <ele>57</ele>
        <time>2025-12-29T15:20:10.802Z</time>
      </trkpt>
      <trkpt lat="43.1331" lon="3.09153">
        <ele>57</ele>
        <time>2025-12-29T15:20:11.802Z</time>
      </trkpt>
      <trkpt lat="43.13309" lon="3.09154">
        <ele>57</ele>
        <time>2025-12-29T15:20:12.802Z</time>
      </trkpt>
      <trkpt lat="43.13309" lon="3.09154">
        <ele>57</ele>
        <time>2025-12-29T15:20:13.802Z</time>
      </trkpt>
      <trkpt lat="43.13309" lon="3.09154">
        <ele>57</ele>
        <time>2025-12-29T15:20:14.802Z</time>
      </trkpt>
      <trkpt lat="43.13309" lon="3.09154">
        <ele>57</ele>
        <time>2025-12-29T15:20:15.802Z</time>
      </trkpt>
      <trkpt lat="43.13309" lon="3.09154">
        <ele>57</ele>
        <time>2025-12-29T15:20:16.802Z</time>
      </trkpt>
      <trkpt lat="43.13309" lon="3.09154">
        <ele>57</ele>
        <time>2025-12-29T15:20:17.802Z</time>
      </trkpt>
      <trkpt lat="43.13309" lon="3.09153">
        <ele>56</ele>
        <time>2025-12-29T15:20:18.802Z</time>
      </trkpt>
      <trkpt lat="43.13309" lon="3.09152">
        <ele>56</ele>
        <time>2025-12-29T15:20:19.802Z</time>
      </trkpt>
      <trkpt lat="43.13309" lon="3.09151">
        <ele>56</ele>
        <time>2025-12-29T15:20:20.802Z</time>
      </trkpt>
      <trkpt lat="43.1331" lon="3.09149">
        <ele>56</ele>
        <time>2025-12-29T15:20:21.802Z</time>
      </trkpt>
      <trkpt lat="43.1331" lon="3.09148">
        <ele>56</ele>
        <time>2025-12-29T15:20:22.802Z</time>
      </trkpt>
      <trkpt lat="43.1331" lon="3.09146">
        <ele>55</ele>
        <time>2025-12-29T15:20:23.802Z</time>
      </trkpt>
      <trkpt lat="43.13311" lon="3.09145">
        <ele>55</ele>
        <time>2025-12-29T15:20:24.802Z</time>
      </trkpt>
      <trkpt lat="43.13311" lon="3.09143">
        <ele>55</ele>
        <time>2025-12-29T15:20:25.802Z</time>
      </trkpt>
      <trkpt lat="43.13312" lon="3.09142">
        <ele>55</ele>
        <time>2025-12-29T15:20:26.802Z</time>
      </trkpt>
      <trkpt lat="43.13313" lon="3.0914">
        <ele>55</ele>
        <time>2025-12-29T15:20:27.802Z</time>
      </trkpt>
      <trkpt lat="43.13313" lon="3.09138">
        <ele>55</ele>
        <time>2025-12-29T15:20:28.802Z</time>
      </trkpt>
      <trkpt lat="43.13314" lon="3.09137">
        <ele>55</ele>
        <time>2025-12-29T15:20:29.802Z</time>
      </trkpt>
      <trkpt lat="43.13315" lon="3.09135">
        <ele>55</ele>
        <time>2025-12-29T15:20:30.802Z</time>
      </trkpt>
      <trkpt lat="43.13315" lon="3.09134">
        <ele>55</ele>
        <time>2025-12-29T15:20:31.802Z</time>
      </trkpt>
      <trkpt lat="43.13316" lon="3.09132">
        <ele>55</ele>
        <time>2025-12-29T15:20:32.802Z</time>
      </trkpt>
      <trkpt lat="43.13316" lon="3.0913">
        <ele>55</ele>
        <time>2025-12-29T15:20:33.802Z</time>
      </trkpt>
      <trkpt lat="43.13317" lon="3.09128">
        <ele>55</ele>
        <time>2025-12-29T15:20:34.802Z</time>
      </trkpt>
      <trkpt lat="43.13317" lon="3.09126">
        <ele>55</ele>
        <time>2025-12-29T15:20:35.802Z</time>
      </trkpt>
      <trkpt lat="43.13317" lon="3.09125">
        <ele>55</ele>
        <time>2025-12-29T15:20:36.802Z</time>
      </trkpt>
      <trkpt lat="43.13318" lon="3.09123">
        <ele>55</ele>
        <time>2025-12-29T15:20:37.802Z</time>
      </trkpt>
      <trkpt lat="43.13318" lon="3.09122">
        <ele>55</ele>
        <time>2025-12-29T15:20:38.802Z</time>
      </trkpt>
      <trkpt lat="43.13318" lon="3.09121">
        <ele>54</ele>
        <time>2025-12-29T15:20:39.802Z</time>
      </trkpt>
      <trkpt lat="43.13319" lon="3.0912">
        <ele>55</ele>
        <time>2025-12-29T15:20:40.802Z</time>
      </trkpt>
      <trkpt lat="43.1332" lon="3.09119">
        <ele>55</ele>
        <time>2025-12-29T15:20:41.802Z</time>
      </trkpt>
      <trkpt lat="43.13321" lon="3.09118">
        <ele>55</ele>
        <time>2025-12-29T15:20:42.802Z</time>
      </trkpt>
      <trkpt lat="43.13321" lon="3.09118">
        <ele>55</ele>
        <time>2025-12-29T15:20:43.802Z</time>
      </trkpt>
      <trkpt lat="43.13322" lon="3.09117">
        <ele>55</ele>
        <time>2025-12-29T15:20:44.802Z</time>
      </trkpt>
      <trkpt lat="43.13323" lon="3.09116">
        <ele>54</ele>
        <time>2025-12-29T15:20:45.802Z</time>
      </trkpt>
      <trkpt lat="43.13324" lon="3.09115">
        <ele>54</ele>
        <time>2025-12-29T15:20:46.802Z</time>
      </trkpt>
      <trkpt lat="43.13325" lon="3.09113">
        <ele>54</ele>
        <time>2025-12-29T15:20:47.802Z</time>
      </trkpt>
      <trkpt lat="43.13326" lon="3.09112">
        <ele>54</ele>
        <time>2025-12-29T15:20:48.802Z</time>
      </trkpt>
      <trkpt lat="43.13326" lon="3.0911">
        <ele>53</ele>
        <time>2025-12-29T15:20:49.802Z</time>
      </trkpt>
      <trkpt lat="43.13327" lon="3.09109">
        <ele>53</ele>
        <time>2025-12-29T15:20:50.802Z</time>
      </trkpt>
      <trkpt lat="43.13328" lon="3.09107">
        <ele>54</ele>
        <time>2025-12-29T15:20:51.802Z</time>
      </trkpt>
      <trkpt lat="43.13329" lon="3.09106">
        <ele>54</ele>
        <time>2025-12-29T15:20:52.802Z</time>
      </trkpt>
      <trkpt lat="43.13329" lon="3.09104">
        <ele>54</ele>
        <time>2025-12-29T15:20:53.802Z</time>
      </trkpt>
      <trkpt lat="43.13331" lon="3.09103">
        <ele>54</ele>
        <time>2025-12-29T15:20:54.802Z</time>
      </trkpt>
      <trkpt lat="43.13332" lon="3.09102">
        <ele>54</ele>
        <time>2025-12-29T15:20:55.802Z</time>
      </trkpt>
      <trkpt lat="43.13333" lon="3.09101">
        <ele>54</ele>
        <time>2025-12-29T15:20:56.802Z</time>
      </trkpt>
      <trkpt lat="43.13334" lon="3.09099">
        <ele>53</ele>
        <time>2025-12-29T15:20:57.802Z</time>
      </trkpt>
      <trkpt lat="43.13335" lon="3.09098">
        <ele>53</ele>
        <time>2025-12-29T15:20:58.802Z</time>
      </trkpt>
      <trkpt lat="43.13336" lon="3.09097">
        <ele>53</ele>
        <time>2025-12-29T15:20:59.802Z</time>
      </trkpt>
      <trkpt lat="43.13338" lon="3.09096">
        <ele>54</ele>
        <time>2025-12-29T15:21:00.802Z</time>
      </trkpt>
      <trkpt lat="43.13338" lon="3.09095">
        <ele>54</ele>
        <time>2025-12-29T15:21:01.802Z</time>
      </trkpt>
      <trkpt lat="43.13339" lon="3.09094">
        <ele>54</ele>
        <time>2025-12-29T15:21:02.802Z</time>
      </trkpt>
      <trkpt lat="43.13339" lon="3.09092">
        <ele>54</ele>
        <time>2025-12-29T15:21:03.802Z</time>
      </trkpt>
      <trkpt lat="43.13339" lon="3.0909">
        <ele>54</ele>
        <time>2025-12-29T15:21:04.802Z</time>
      </trkpt>
      <trkpt lat="43.1334" lon="3.09089">
        <ele>54</ele>
        <time>2025-12-29T15:21:05.802Z</time>
      </trkpt>
      <trkpt lat="43.13341" lon="3.09087">
        <ele>54</ele>
        <time>2025-12-29T15:21:06.802Z</time>
      </trkpt>
      <trkpt lat="43.13342" lon="3.09085">
        <ele>55</ele>
        <time>2025-12-29T15:21:07.802Z</time>
      </trkpt>
      <trkpt lat="43.13342" lon="3.09084">
        <ele>55</ele>
        <time>2025-12-29T15:21:08.802Z</time>
      </trkpt>
      <trkpt lat="43.13342" lon="3.09083">
        <ele>55</ele>
        <time>2025-12-29T15:21:09.802Z</time>
      </trkpt>
      <trkpt lat="43.13342" lon="3.09082">
        <ele>55</ele>
        <time>2025-12-29T15:21:10.802Z</time>
      </trkpt>
      <trkpt lat="43.13342" lon="3.09081">
        <ele>55</ele>
        <time>2025-12-29T15:21:11.802Z</time>
      </trkpt>
      <trkpt lat="43.13342" lon="3.0908">
        <ele>55</ele>
        <time>2025-12-29T15:21:12.802Z</time>
      </trkpt>
      <trkpt lat="43.13342" lon="3.09079">
        <ele>55</ele>
        <time>2025-12-29T15:21:13.802Z</time>
      </trkpt>
      <trkpt lat="43.13342" lon="3.09077">
        <ele>55</ele>
        <time>2025-12-29T15:21:14.802Z</time>
      </trkpt>
      <trkpt lat="43.13342" lon="3.09077">
        <ele>55</ele>
        <time>2025-12-29T15:21:15.802Z</time>
      </trkpt>
      <trkpt lat="43.13342" lon="3.09075">
        <ele>55</ele>
        <time>2025-12-29T15:21:16.802Z</time>
      </trkpt>
      <trkpt lat="43.13342" lon="3.09073">
        <ele>55</ele>
        <time>2025-12-29T15:21:17.802Z</time>
      </trkpt>
      <trkpt lat="43.13342" lon="3.09071">
        <ele>55</ele>
        <time>2025-12-29T15:21:18.802Z</time>
      </trkpt>
      <trkpt lat="43.13343" lon="3.09069">
        <ele>55</ele>
        <time>2025-12-29T15:21:19.802Z</time>
      </trkpt>
      <trkpt lat="43.13342" lon="3.09068">
        <ele>55</ele>
        <time>2025-12-29T15:21:20.802Z</time>
      </trkpt>
      <trkpt lat="43.13342" lon="3.09067">
        <ele>55</ele>
        <time>2025-12-29T15:21:21.802Z</time>
      </trkpt>
      <trkpt lat="43.13342" lon="3.09066">
        <ele>55</ele>
        <time>2025-12-29T15:21:22.802Z</time>
      </trkpt>
      <trkpt lat="43.13342" lon="3.09065">
        <ele>55</ele>
        <time>2025-12-29T15:21:23.802Z</time>
      </trkpt>
      <trkpt lat="43.13342" lon="3.09064">
        <ele>55</ele>
        <time>2025-12-29T15:21:24.802Z</time>
      </trkpt>
      <trkpt lat="43.13341" lon="3.09062">
        <ele>55</ele>
        <time>2025-12-29T15:21:25.802Z</time>
      </trkpt>
      <trkpt lat="43.13338" lon="3.09059">
        <ele>55</ele>
        <time>2025-12-29T15:21:26.802Z</time>
      </trkpt>
      <trkpt lat="43.13337" lon="3.09059">
        <ele>55</ele>
        <time>2025-12-29T15:21:27.802Z</time>
      </trkpt>
      <trkpt lat="43.13335" lon="3.09059">
        <ele>54</ele>
        <time>2025-12-29T15:21:28.802Z</time>
      </trkpt>
      <trkpt lat="43.13334" lon="3.09058">
        <ele>54</ele>
        <time>2025-12-29T15:21:29.802Z</time>
      </trkpt>
      <trkpt lat="43.13333" lon="3.09058">
        <ele>54</ele>
        <time>2025-12-29T15:21:30.802Z</time>
      </trkpt>
      <trkpt lat="43.13332" lon="3.09058">
        <ele>53</ele>
        <time>2025-12-29T15:21:31.802Z</time>
      </trkpt>
      <trkpt lat="43.13332" lon="3.09058">
        <ele>53</ele>
        <time>2025-12-29T15:21:32.802Z</time>
      </trkpt>
      <trkpt lat="43.13331" lon="3.09057">
        <ele>53</ele>
        <time>2025-12-29T15:21:33.802Z</time>
      </trkpt>
      <trkpt lat="43.13331" lon="3.09055">
        <ele>54</ele>
        <time>2025-12-29T15:21:34.802Z</time>
      </trkpt>
      <trkpt lat="43.1333" lon="3.09054">
        <ele>54</ele>
        <time>2025-12-29T15:21:35.802Z</time>
      </trkpt>
      <trkpt lat="43.1333" lon="3.09052">
        <ele>54</ele>
        <time>2025-12-29T15:21:36.802Z</time>
      </trkpt>
      <trkpt lat="43.1333" lon="3.0905">
        <ele>54</ele>
        <time>2025-12-29T15:21:37.802Z</time>
      </trkpt>
      <trkpt lat="43.1333" lon="3.09048">
        <ele>54</ele>
        <time>2025-12-29T15:21:38.802Z</time>
      </trkpt>
      <trkpt lat="43.1333" lon="3.09046">
        <ele>54</ele>
        <time>2025-12-29T15:21:39.802Z</time>
      </trkpt>
      <trkpt lat="43.1333" lon="3.09044">
        <ele>54</ele>
        <time>2025-12-29T15:21:40.802Z</time>
      </trkpt>
      <trkpt lat="43.1333" lon="3.09041">
        <ele>54</ele>
        <time>2025-12-29T15:21:41.802Z</time>
      </trkpt>
      <trkpt lat="43.13331" lon="3.09039">
        <ele>54</ele>
        <time>2025-12-29T15:21:42.802Z</time>
      </trkpt>
      <trkpt lat="43.13332" lon="3.09037">
        <ele>54</ele>
        <time>2025-12-29T15:21:43.802Z</time>
      </trkpt>
      <trkpt lat="43.13332" lon="3.09035">
        <ele>53</ele>
        <time>2025-12-29T15:21:44.802Z</time>
      </trkpt>
      <trkpt lat="43.13332" lon="3.09033">
        <ele>53</ele>
        <time>2025-12-29T15:21:45.802Z</time>
      </trkpt>
      <trkpt lat="43.13332" lon="3.09032">
        <ele>53</ele>
        <time>2025-12-29T15:21:46.802Z</time>
      </trkpt>
      <trkpt lat="43.13332" lon="3.09029">
        <ele>53</ele>
        <time>2025-12-29T15:21:47.802Z</time>
      </trkpt>
      <trkpt lat="43.13333" lon="3.09028">
        <ele>53</ele>
        <time>2025-12-29T15:21:48.802Z</time>
      </trkpt>
      <trkpt lat="43.13333" lon="3.09026">
        <ele>53</ele>
        <time>2025-12-29T15:21:49.802Z</time>
      </trkpt>
      <trkpt lat="43.13335" lon="3.09025">
        <ele>53</ele>
        <time>2025-12-29T15:21:50.802Z</time>
      </trkpt>
      <trkpt lat="43.13335" lon="3.09024">
        <ele>54</ele>
        <time>2025-12-29T15:21:51.802Z</time>
      </trkpt>
      <trkpt lat="43.13337" lon="3.09023">
        <ele>54</ele>
        <time>2025-12-29T15:21:52.802Z</time>
      </trkpt>
      <trkpt lat="43.13337" lon="3.09023">
        <ele>54</ele>
        <time>2025-12-29T15:21:53.802Z</time>
      </trkpt>
      <trkpt lat="43.13337" lon="3.09022">
        <ele>54</ele>
        <time>2025-12-29T15:21:54.802Z</time>
      </trkpt>
      <trkpt lat="43.13338" lon="3.09022">
        <ele>54</ele>
        <time>2025-12-29T15:21:55.802Z</time>
      </trkpt>
      <trkpt lat="43.13338" lon="3.09021">
        <ele>54</ele>
        <time>2025-12-29T15:21:56.802Z</time>
      </trkpt>
      <trkpt lat="43.13339" lon="3.0902">
        <ele>54</ele>
        <time>2025-12-29T15:21:57.802Z</time>
      </trkpt>
      <trkpt lat="43.13341" lon="3.09019">
        <ele>53</ele>
        <time>2025-12-29T15:21:58.802Z</time>
      </trkpt>
      <trkpt lat="43.13341" lon="3.09018">
        <ele>53</ele>
        <time>2025-12-29T15:21:59.802Z</time>
      </trkpt>
      <trkpt lat="43.13342" lon="3.09017">
        <ele>53</ele>
        <time>2025-12-29T15:22:00.802Z</time>
      </trkpt>
      <trkpt lat="43.13343" lon="3.09016">
        <ele>52</ele>
        <time>2025-12-29T15:22:01.802Z</time>
      </trkpt>
      <trkpt lat="43.13344" lon="3.09015">
        <ele>52</ele>
        <time>2025-12-29T15:22:02.802Z</time>
      </trkpt>
      <trkpt lat="43.13345" lon="3.09013">
        <ele>52</ele>
        <time>2025-12-29T15:22:03.802Z</time>
      </trkpt>
      <trkpt lat="43.13345" lon="3.09012">
        <ele>52</ele>
        <time>2025-12-29T15:22:04.802Z</time>
      </trkpt>
      <trkpt lat="43.13346" lon="3.09011">
        <ele>52</ele>
        <time>2025-12-29T15:22:05.802Z</time>
      </trkpt>
      <trkpt lat="43.13348" lon="3.09011">
        <ele>52</ele>
        <time>2025-12-29T15:22:06.802Z</time>
      </trkpt>
      <trkpt lat="43.13349" lon="3.0901">
        <ele>52</ele>
        <time>2025-12-29T15:22:07.802Z</time>
      </trkpt>
      <trkpt lat="43.1335" lon="3.09009">
        <ele>52</ele>
        <time>2025-12-29T15:22:08.802Z</time>
      </trkpt>
      <trkpt lat="43.13351" lon="3.09009">
        <ele>52</ele>
        <time>2025-12-29T15:22:09.802Z</time>
      </trkpt>
      <trkpt lat="43.13352" lon="3.09009">
        <ele>52</ele>
        <time>2025-12-29T15:22:10.802Z</time>
      </trkpt>
      <trkpt lat="43.13353" lon="3.0901">
        <ele>53</ele>
        <time>2025-12-29T15:22:11.802Z</time>
      </trkpt>
      <trkpt lat="43.13354" lon="3.0901">
        <ele>53</ele>
        <time>2025-12-29T15:22:12.802Z</time>
      </trkpt>
      <trkpt lat="43.13355" lon="3.0901">
        <ele>53</ele>
        <time>2025-12-29T15:22:13.802Z</time>
      </trkpt>
      <trkpt lat="43.13355" lon="3.09011">
        <ele>53</ele>
        <time>2025-12-29T15:22:14.802Z</time>
      </trkpt>
      <trkpt lat="43.13356" lon="3.09012">
        <ele>53</ele>
        <time>2025-12-29T15:22:15.802Z</time>
      </trkpt>
      <trkpt lat="43.13356" lon="3.09013">
        <ele>53</ele>
        <time>2025-12-29T15:22:16.802Z</time>
      </trkpt>
      <trkpt lat="43.13357" lon="3.09014">
        <ele>53</ele>
        <time>2025-12-29T15:22:17.802Z</time>
      </trkpt>
      <trkpt lat="43.13358" lon="3.09015">
        <ele>53</ele>
        <time>2025-12-29T15:22:18.802Z</time>
      </trkpt>
      <trkpt lat="43.13359" lon="3.09016">
        <ele>53</ele>
        <time>2025-12-29T15:22:19.802Z</time>
      </trkpt>
      <trkpt lat="43.13359" lon="3.09017">
        <ele>53</ele>
        <time>2025-12-29T15:22:20.802Z</time>
      </trkpt>
      <trkpt lat="43.13359" lon="3.09017">
        <ele>53</ele>
        <time>2025-12-29T15:22:21.802Z</time>
      </trkpt>
      <trkpt lat="43.1336" lon="3.09018">
        <ele>54</ele>
        <time>2025-12-29T15:22:22.802Z</time>
      </trkpt>
      <trkpt lat="43.1336" lon="3.0902">
        <ele>54</ele>
        <time>2025-12-29T15:22:23.802Z</time>
      </trkpt>
      <trkpt lat="43.1336" lon="3.0902">
        <ele>55</ele>
        <time>2025-12-29T15:22:24.802Z</time>
      </trkpt>
      <trkpt lat="43.13361" lon="3.09022">
        <ele>56</ele>
        <time>2025-12-29T15:22:25.802Z</time>
      </trkpt>
      <trkpt lat="43.13361" lon="3.09023">
        <ele>56</ele>
        <time>2025-12-29T15:22:26.802Z</time>
      </trkpt>
      <trkpt lat="43.13362" lon="3.09025">
        <ele>56</ele>
        <time>2025-12-29T15:22:27.802Z</time>
      </trkpt>
      <trkpt lat="43.13362" lon="3.09027">
        <ele>56</ele>
        <time>2025-12-29T15:22:28.802Z</time>
      </trkpt>
      <trkpt lat="43.13362" lon="3.09028">
        <ele>57</ele>
        <time>2025-12-29T15:22:29.802Z</time>
      </trkpt>
      <trkpt lat="43.13363" lon="3.0903">
        <ele>57</ele>
        <time>2025-12-29T15:22:30.802Z</time>
      </trkpt>
      <trkpt lat="43.13362" lon="3.09031">
        <ele>57</ele>
        <time>2025-12-29T15:22:31.802Z</time>
      </trkpt>
      <trkpt lat="43.13362" lon="3.09033">
        <ele>57</ele>
        <time>2025-12-29T15:22:32.802Z</time>
      </trkpt>
      <trkpt lat="43.13362" lon="3.09034">
        <ele>57</ele>
        <time>2025-12-29T15:22:33.802Z</time>
      </trkpt>
      <trkpt lat="43.13361" lon="3.09036">
        <ele>58</ele>
        <time>2025-12-29T15:22:34.802Z</time>
      </trkpt>
      <trkpt lat="43.13361" lon="3.09037">
        <ele>58</ele>
        <time>2025-12-29T15:22:35.802Z</time>
      </trkpt>
      <trkpt lat="43.13361" lon="3.09038">
        <ele>58</ele>
        <time>2025-12-29T15:22:36.802Z</time>
      </trkpt>
      <trkpt lat="43.1336" lon="3.09038">
        <ele>57</ele>
        <time>2025-12-29T15:22:37.802Z</time>
      </trkpt>
      <trkpt lat="43.1336" lon="3.09039">
        <ele>57</ele>
        <time>2025-12-29T15:22:38.802Z</time>
      </trkpt>
      <trkpt lat="43.1336" lon="3.0904">
        <ele>57</ele>
        <time>2025-12-29T15:22:39.802Z</time>
      </trkpt>
      <trkpt lat="43.1336" lon="3.0904">
        <ele>57</ele>
        <time>2025-12-29T15:22:40.802Z</time>
      </trkpt>
      <trkpt lat="43.1336" lon="3.09041">
        <ele>57</ele>
        <time>2025-12-29T15:22:41.802Z</time>
      </trkpt>
      <trkpt lat="43.1336" lon="3.09042">
        <ele>57</ele>
        <time>2025-12-29T15:22:42.802Z</time>
      </trkpt>
      <trkpt lat="43.1336" lon="3.09045">
        <ele>57</ele>
        <time>2025-12-29T15:22:43.802Z</time>
      </trkpt>
      <trkpt lat="43.13359" lon="3.09047">
        <ele>57</ele>
        <time>2025-12-29T15:22:44.802Z</time>
      </trkpt>
      <trkpt lat="43.1336" lon="3.09049">
        <ele>57</ele>
        <time>2025-12-29T15:22:45.802Z</time>
      </trkpt>
      <trkpt lat="43.1336" lon="3.09051">
        <ele>58</ele>
        <time>2025-12-29T15:22:46.802Z</time>
      </trkpt>
      <trkpt lat="43.1336" lon="3.09053">
        <ele>58</ele>
        <time>2025-12-29T15:22:47.802Z</time>
      </trkpt>
      <trkpt lat="43.1336" lon="3.09054">
        <ele>59</ele>
        <time>2025-12-29T15:22:48.802Z</time>
      </trkpt>
      <trkpt lat="43.1336" lon="3.09055">
        <ele>59</ele>
        <time>2025-12-29T15:22:49.802Z</time>
      </trkpt>
      <trkpt lat="43.13361" lon="3.09056">
        <ele>60</ele>
        <time>2025-12-29T15:22:50.802Z</time>
      </trkpt>
      <trkpt lat="43.13361" lon="3.09057">
        <ele>60</ele>
        <time>2025-12-29T15:22:51.802Z</time>
      </trkpt>
      <trkpt lat="43.13361" lon="3.09057">
        <ele>60</ele>
        <time>2025-12-29T15:22:52.802Z</time>
      </trkpt>
      <trkpt lat="43.13361" lon="3.09058">
        <ele>61</ele>
        <time>2025-12-29T15:22:53.802Z</time>
      </trkpt>
      <trkpt lat="43.13361" lon="3.09058">
        <ele>61</ele>
        <time>2025-12-29T15:22:54.802Z</time>
      </trkpt>
      <trkpt lat="43.13361" lon="3.09059">
        <ele>62</ele>
        <time>2025-12-29T15:22:55.802Z</time>
      </trkpt>
      <trkpt lat="43.13361" lon="3.0906">
        <ele>62</ele>
        <time>2025-12-29T15:22:56.802Z</time>
      </trkpt>
      <trkpt lat="43.13361" lon="3.0906">
        <ele>62</ele>
        <time>2025-12-29T15:22:57.802Z</time>
      </trkpt>
      <trkpt lat="43.13362" lon="3.0906">
        <ele>63</ele>
        <time>2025-12-29T15:22:58.802Z</time>
      </trkpt>
      <trkpt lat="43.13362" lon="3.09061">
        <ele>63</ele>
        <time>2025-12-29T15:22:59.802Z</time>
      </trkpt>
      <trkpt lat="43.13362" lon="3.09061">
        <ele>63</ele>
        <time>2025-12-29T15:23:00.802Z</time>
      </trkpt>
      <trkpt lat="43.13362" lon="3.09063">
        <ele>63</ele>
        <time>2025-12-29T15:23:01.802Z</time>
      </trkpt>
      <trkpt lat="43.13362" lon="3.09064">
        <ele>63</ele>
        <time>2025-12-29T15:23:02.802Z</time>
      </trkpt>
      <trkpt lat="43.13362" lon="3.09065">
        <ele>64</ele>
        <time>2025-12-29T15:23:03.802Z</time>
      </trkpt>
      <trkpt lat="43.13362" lon="3.09066">
        <ele>63</ele>
        <time>2025-12-29T15:23:04.802Z</time>
      </trkpt>
      <trkpt lat="43.13361" lon="3.09067">
        <ele>63</ele>
        <time>2025-12-29T15:23:05.802Z</time>
      </trkpt>
      <trkpt lat="43.13362" lon="3.09068">
        <ele>63</ele>
        <time>2025-12-29T15:23:06.802Z</time>
      </trkpt>
      <trkpt lat="43.13362" lon="3.09068">
        <ele>62</ele>
        <time>2025-12-29T15:23:07.802Z</time>
      </trkpt>
      <trkpt lat="43.13362" lon="3.09068">
        <ele>62</ele>
        <time>2025-12-29T15:23:08.802Z</time>
      </trkpt>
      <trkpt lat="43.13362" lon="3.0907">
        <ele>62</ele>
        <time>2025-12-29T15:23:09.802Z</time>
      </trkpt>
      <trkpt lat="43.13362" lon="3.09071">
        <ele>62</ele>
        <time>2025-12-29T15:23:10.802Z</time>
      </trkpt>
      <trkpt lat="43.13362" lon="3.09073">
        <ele>62</ele>
        <time>2025-12-29T15:23:11.802Z</time>
      </trkpt>
      <trkpt lat="43.13361" lon="3.09074">
        <ele>62</ele>
        <time>2025-12-29T15:23:12.802Z</time>
      </trkpt>
      <trkpt lat="43.13361" lon="3.09076">
        <ele>62</ele>
        <time>2025-12-29T15:23:13.802Z</time>
      </trkpt>
      <trkpt lat="43.13361" lon="3.09078">
        <ele>62</ele>
        <time>2025-12-29T15:23:14.802Z</time>
      </trkpt>
      <trkpt lat="43.13361" lon="3.09079">
        <ele>63</ele>
        <time>2025-12-29T15:23:15.802Z</time>
      </trkpt>
      <trkpt lat="43.13361" lon="3.09081">
        <ele>63</ele>
        <time>2025-12-29T15:23:16.802Z</time>
      </trkpt>
      <trkpt lat="43.1336" lon="3.09083">
        <ele>63</ele>
        <time>2025-12-29T15:23:17.802Z</time>
      </trkpt>
      <trkpt lat="43.1336" lon="3.09084">
        <ele>64</ele>
        <time>2025-12-29T15:23:18.802Z</time>
      </trkpt>
      <trkpt lat="43.1336" lon="3.09084">
        <ele>64</ele>
        <time>2025-12-29T15:23:19.802Z</time>
      </trkpt>
      <trkpt lat="43.1336" lon="3.09085">
        <ele>64</ele>
        <time>2025-12-29T15:23:20.802Z</time>
      </trkpt>
      <trkpt lat="43.13359" lon="3.09087">
        <ele>64</ele>
        <time>2025-12-29T15:23:21.802Z</time>
      </trkpt>
      <trkpt lat="43.13359" lon="3.09088">
        <ele>64</ele>
        <time>2025-12-29T15:23:22.802Z</time>
      </trkpt>
      <trkpt lat="43.13359" lon="3.0909">
        <ele>64</ele>
        <time>2025-12-29T15:23:23.802Z</time>
      </trkpt>
      <trkpt lat="43.13359" lon="3.09092">
        <ele>64</ele>
        <time>2025-12-29T15:23:24.802Z</time>
      </trkpt>
      <trkpt lat="43.13358" lon="3.09094">
        <ele>64</ele>
        <time>2025-12-29T15:23:25.802Z</time>
      </trkpt>
      <trkpt lat="43.13358" lon="3.09097">
        <ele>64</ele>
        <time>2025-12-29T15:23:26.802Z</time>
      </trkpt>
      <trkpt lat="43.13357" lon="3.09099">
        <ele>64</ele>
        <time>2025-12-29T15:23:27.802Z</time>
      </trkpt>
      <trkpt lat="43.13356" lon="3.09101">
        <ele>64</ele>
        <time>2025-12-29T15:23:28.802Z</time>
      </trkpt>
      <trkpt lat="43.13356" lon="3.09103">
        <ele>64</ele>
        <time>2025-12-29T15:23:29.802Z</time>
      </trkpt>
      <trkpt lat="43.13357" lon="3.09105">
        <ele>64</ele>
        <time>2025-12-29T15:23:30.802Z</time>
      </trkpt>
      <trkpt lat="43.13357" lon="3.09106">
        <ele>63</ele>
        <time>2025-12-29T15:23:31.802Z</time>
      </trkpt>
      <trkpt lat="43.13357" lon="3.09108">
        <ele>63</ele>
        <time>2025-12-29T15:23:32.802Z</time>
      </trkpt>
      <trkpt lat="43.13357" lon="3.0911">
        <ele>64</ele>
        <time>2025-12-29T15:23:33.802Z</time>
      </trkpt>
      <trkpt lat="43.13357" lon="3.09111">
        <ele>64</ele>
        <time>2025-12-29T15:23:34.802Z</time>
      </trkpt>
      <trkpt lat="43.13357" lon="3.09111">
        <ele>64</ele>
        <time>2025-12-29T15:23:35.802Z</time>
      </trkpt>
      <trkpt lat="43.13357" lon="3.09112">
        <ele>64</ele>
        <time>2025-12-29T15:23:36.802Z</time>
      </trkpt>
      <trkpt lat="43.13356" lon="3.09113">
        <ele>64</ele>
        <time>2025-12-29T15:23:37.802Z</time>
      </trkpt>
      <trkpt lat="43.13355" lon="3.09114">
        <ele>64</ele>
        <time>2025-12-29T15:23:38.802Z</time>
      </trkpt>
      <trkpt lat="43.13354" lon="3.09115">
        <ele>64</ele>
        <time>2025-12-29T15:23:39.802Z</time>
      </trkpt>
      <trkpt lat="43.13353" lon="3.09117">
        <ele>65</ele>
        <time>2025-12-29T15:23:40.802Z</time>
      </trkpt>
      <trkpt lat="43.13352" lon="3.09118">
        <ele>65</ele>
        <time>2025-12-29T15:23:41.802Z</time>
      </trkpt>
      <trkpt lat="43.1335" lon="3.09119">
        <ele>65</ele>
        <time>2025-12-29T15:23:42.802Z</time>
      </trkpt>
      <trkpt lat="43.13349" lon="3.0912">
        <ele>65</ele>
        <time>2025-12-29T15:23:43.802Z</time>
      </trkpt>
      <trkpt lat="43.13348" lon="3.09122">
        <ele>66</ele>
        <time>2025-12-29T15:23:44.802Z</time>
      </trkpt>
      <trkpt lat="43.13347" lon="3.09123">
        <ele>66</ele>
        <time>2025-12-29T15:23:45.802Z</time>
      </trkpt>
      <trkpt lat="43.13347" lon="3.09125">
        <ele>66</ele>
        <time>2025-12-29T15:23:46.802Z</time>
      </trkpt>
      <trkpt lat="43.13346" lon="3.09126">
        <ele>66</ele>
        <time>2025-12-29T15:23:47.802Z</time>
      </trkpt>
      <trkpt lat="43.13345" lon="3.09127">
        <ele>67</ele>
        <time>2025-12-29T15:23:48.802Z</time>
      </trkpt>
      <trkpt lat="43.13344" lon="3.09128">
        <ele>67</ele>
        <time>2025-12-29T15:23:49.802Z</time>
      </trkpt>
      <trkpt lat="43.13343" lon="3.09129">
        <ele>67</ele>
        <time>2025-12-29T15:23:50.802Z</time>
      </trkpt>
      <trkpt lat="43.13342" lon="3.09131">
        <ele>67</ele>
        <time>2025-12-29T15:23:51.802Z</time>
      </trkpt>
      <trkpt lat="43.13341" lon="3.09135">
        <ele>67</ele>
        <time>2025-12-29T15:23:52.802Z</time>
      </trkpt>
      <trkpt lat="43.13341" lon="3.09137">
        <ele>67</ele>
        <time>2025-12-29T15:23:53.802Z</time>
      </trkpt>
      <trkpt lat="43.1334" lon="3.09139">
        <ele>67</ele>
        <time>2025-12-29T15:23:54.802Z</time>
      </trkpt>
      <trkpt lat="43.1334" lon="3.09141">
        <ele>67</ele>
        <time>2025-12-29T15:23:55.802Z</time>
      </trkpt>
      <trkpt lat="43.13339" lon="3.09144">
        <ele>68</ele>
        <time>2025-12-29T15:23:56.802Z</time>
      </trkpt>
      <trkpt lat="43.13339" lon="3.09146">
        <ele>68</ele>
        <time>2025-12-29T15:23:57.802Z</time>
      </trkpt>
      <trkpt lat="43.13339" lon="3.09148">
        <ele>68</ele>
        <time>2025-12-29T15:23:58.802Z</time>
      </trkpt>
      <trkpt lat="43.13338" lon="3.0915">
        <ele>68</ele>
        <time>2025-12-29T15:23:59.802Z</time>
      </trkpt>
      <trkpt lat="43.13339" lon="3.09151">
        <ele>68</ele>
        <time>2025-12-29T15:24:00.802Z</time>
      </trkpt>
      <trkpt lat="43.13339" lon="3.09154">
        <ele>68</ele>
        <time>2025-12-29T15:24:01.802Z</time>
      </trkpt>
      <trkpt lat="43.13338" lon="3.09157">
        <ele>68</ele>
        <time>2025-12-29T15:24:02.802Z</time>
      </trkpt>
      <trkpt lat="43.13337" lon="3.09159">
        <ele>67</ele>
        <time>2025-12-29T15:24:03.802Z</time>
      </trkpt>
      <trkpt lat="43.13337" lon="3.09163">
        <ele>67</ele>
        <time>2025-12-29T15:24:04.802Z</time>
      </trkpt>
      <trkpt lat="43.13336" lon="3.09165">
        <ele>67</ele>
        <time>2025-12-29T15:24:05.802Z</time>
      </trkpt>
      <trkpt lat="43.13335" lon="3.09167">
        <ele>66</ele>
        <time>2025-12-29T15:24:06.802Z</time>
      </trkpt>
      <trkpt lat="43.13335" lon="3.0917">
        <ele>66</ele>
        <time>2025-12-29T15:24:07.802Z</time>
      </trkpt>
      <trkpt lat="43.13335" lon="3.09172">
        <ele>66</ele>
        <time>2025-12-29T15:24:08.802Z</time>
      </trkpt>
      <trkpt lat="43.13335" lon="3.09173">
        <ele>66</ele>
        <time>2025-12-29T15:24:09.802Z</time>
      </trkpt>
      <trkpt lat="43.13335" lon="3.09175">
        <ele>66</ele>
        <time>2025-12-29T15:24:10.802Z</time>
      </trkpt>
      <trkpt lat="43.13334" lon="3.09176">
        <ele>65</ele>
        <time>2025-12-29T15:24:11.802Z</time>
      </trkpt>
      <trkpt lat="43.13334" lon="3.09179">
        <ele>65</ele>
        <time>2025-12-29T15:24:12.802Z</time>
      </trkpt>
      <trkpt lat="43.13333" lon="3.0918">
        <ele>65</ele>
        <time>2025-12-29T15:24:13.802Z</time>
      </trkpt>
      <trkpt lat="43.13332" lon="3.09182">
        <ele>65</ele>
        <time>2025-12-29T15:24:14.802Z</time>
      </trkpt>
      <trkpt lat="43.13332" lon="3.09184">
        <ele>64</ele>
        <time>2025-12-29T15:24:15.802Z</time>
      </trkpt>
      <trkpt lat="43.13332" lon="3.09186">
        <ele>64</ele>
        <time>2025-12-29T15:24:16.802Z</time>
      </trkpt>
      <trkpt lat="43.13332" lon="3.09188">
        <ele>64</ele>
        <time>2025-12-29T15:24:17.802Z</time>
      </trkpt>
      <trkpt lat="43.13331" lon="3.09189">
        <ele>64</ele>
        <time>2025-12-29T15:24:18.802Z</time>
      </trkpt>
      <trkpt lat="43.13331" lon="3.09191">
        <ele>64</ele>
        <time>2025-12-29T15:24:19.802Z</time>
      </trkpt>
      <trkpt lat="43.1333" lon="3.09193">
        <ele>64</ele>
        <time>2025-12-29T15:24:20.802Z</time>
      </trkpt>
      <trkpt lat="43.1333" lon="3.09195">
        <ele>64</ele>
        <time>2025-12-29T15:24:21.802Z</time>
      </trkpt>
      <trkpt lat="43.1333" lon="3.09198">
        <ele>64</ele>
        <time>2025-12-29T15:24:22.802Z</time>
      </trkpt>
      <trkpt lat="43.13329" lon="3.092">
        <ele>64</ele>
        <time>2025-12-29T15:24:23.802Z</time>
      </trkpt>
      <trkpt lat="43.13329" lon="3.09202">
        <ele>64</ele>
        <time>2025-12-29T15:24:24.802Z</time>
      </trkpt>
      <trkpt lat="43.13329" lon="3.09203">
        <ele>65</ele>
        <time>2025-12-29T15:24:25.802Z</time>
      </trkpt>
      <trkpt lat="43.13329" lon="3.09204">
        <ele>65</ele>
        <time>2025-12-29T15:24:26.802Z</time>
      </trkpt>
      <trkpt lat="43.13329" lon="3.09206">
        <ele>65</ele>
        <time>2025-12-29T15:24:27.802Z</time>
      </trkpt>
      <trkpt lat="43.13329" lon="3.09207">
        <ele>65</ele>
        <time>2025-12-29T15:24:28.802Z</time>
      </trkpt>
      <trkpt lat="43.13329" lon="3.09209">
        <ele>66</ele>
        <time>2025-12-29T15:24:29.802Z</time>
      </trkpt>
      <trkpt lat="43.13328" lon="3.0921">
        <ele>66</ele>
        <time>2025-12-29T15:24:30.802Z</time>
      </trkpt>
      <trkpt lat="43.13328" lon="3.09212">
        <ele>66</ele>
        <time>2025-12-29T15:24:31.802Z</time>
      </trkpt>
      <trkpt lat="43.13328" lon="3.09214">
        <ele>66</ele>
        <time>2025-12-29T15:24:32.802Z</time>
      </trkpt>
      <trkpt lat="43.13328" lon="3.09216">
        <ele>66</ele>
        <time>2025-12-29T15:24:33.802Z</time>
      </trkpt>
      <trkpt lat="43.13327" lon="3.09218">
        <ele>66</ele>
        <time>2025-12-29T15:24:34.802Z</time>
      </trkpt>
      <trkpt lat="43.13327" lon="3.09221">
        <ele>66</ele>
        <time>2025-12-29T15:24:35.802Z</time>
      </trkpt>
      <trkpt lat="43.13327" lon="3.09223">
        <ele>67</ele>
        <time>2025-12-29T15:24:36.802Z</time>
      </trkpt>
      <trkpt lat="43.13327" lon="3.09225">
        <ele>67</ele>
        <time>2025-12-29T15:24:37.802Z</time>
      </trkpt>
      <trkpt lat="43.13327" lon="3.09227">
        <ele>67</ele>
        <time>2025-12-29T15:24:38.802Z</time>
      </trkpt>
      <trkpt lat="43.13327" lon="3.09229">
        <ele>67</ele>
        <time>2025-12-29T15:24:39.802Z</time>
      </trkpt>
      <trkpt lat="43.13327" lon="3.09231">
        <ele>67</ele>
        <time>2025-12-29T15:24:40.802Z</time>
      </trkpt>
      <trkpt lat="43.13327" lon="3.09233">
        <ele>68</ele>
        <time>2025-12-29T15:24:41.802Z</time>
      </trkpt>
      <trkpt lat="43.13327" lon="3.09236">
        <ele>68</ele>
        <time>2025-12-29T15:24:42.802Z</time>
      </trkpt>
      <trkpt lat="43.13327" lon="3.09237">
        <ele>68</ele>
        <time>2025-12-29T15:24:43.802Z</time>
      </trkpt>
      <trkpt lat="43.13327" lon="3.09238">
        <ele>68</ele>
        <time>2025-12-29T15:24:44.802Z</time>
      </trkpt>
      <trkpt lat="43.13327" lon="3.0924">
        <ele>68</ele>
        <time>2025-12-29T15:24:45.802Z</time>
      </trkpt>
      <trkpt lat="43.13327" lon="3.09242">
        <ele>68</ele>
        <time>2025-12-29T15:24:46.802Z</time>
      </trkpt>
      <trkpt lat="43.13327" lon="3.09244">
        <ele>68</ele>
        <time>2025-12-29T15:24:47.802Z</time>
      </trkpt>
      <trkpt lat="43.13327" lon="3.09246">
        <ele>68</ele>
        <time>2025-12-29T15:24:48.802Z</time>
      </trkpt>
      <trkpt lat="43.13327" lon="3.09248">
        <ele>67</ele>
        <time>2025-12-29T15:24:49.802Z</time>
      </trkpt>
      <trkpt lat="43.13326" lon="3.0925">
        <ele>67</ele>
        <time>2025-12-29T15:24:50.802Z</time>
      </trkpt>
      <trkpt lat="43.13326" lon="3.09251">
        <ele>67</ele>
        <time>2025-12-29T15:24:51.802Z</time>
      </trkpt>
      <trkpt lat="43.13325" lon="3.09252">
        <ele>67</ele>
        <time>2025-12-29T15:24:52.802Z</time>
      </trkpt>
      <trkpt lat="43.13324" lon="3.09253">
        <ele>67</ele>
        <time>2025-12-29T15:24:53.802Z</time>
      </trkpt>
      <trkpt lat="43.13324" lon="3.09253">
        <ele>67</ele>
        <time>2025-12-29T15:24:54.802Z</time>
      </trkpt>
      <trkpt lat="43.13323" lon="3.09253">
        <ele>66</ele>
        <time>2025-12-29T15:24:55.802Z</time>
      </trkpt>
      <trkpt lat="43.13323" lon="3.09254">
        <ele>66</ele>
        <time>2025-12-29T15:24:56.802Z</time>
      </trkpt>
      <trkpt lat="43.13323" lon="3.09254">
        <ele>65</ele>
        <time>2025-12-29T15:24:57.802Z</time>
      </trkpt>
      <trkpt lat="43.13323" lon="3.09254">
        <ele>65</ele>
        <time>2025-12-29T15:24:58.802Z</time>
      </trkpt>
      <trkpt lat="43.13323" lon="3.09254">
        <ele>65</ele>
        <time>2025-12-29T15:24:59.802Z</time>
      </trkpt>
      <trkpt lat="43.13323" lon="3.09254">
        <ele>65</ele>
        <time>2025-12-29T15:25:00.802Z</time>
      </trkpt>
      <trkpt lat="43.13324" lon="3.09254">
        <ele>65</ele>
        <time>2025-12-29T15:25:01.802Z</time>
      </trkpt>
      <trkpt lat="43.13324" lon="3.09254">
        <ele>64</ele>
        <time>2025-12-29T15:25:02.802Z</time>
      </trkpt>
      <trkpt lat="43.13324" lon="3.09254">
        <ele>64</ele>
        <time>2025-12-29T15:25:03.802Z</time>
      </trkpt>
      <trkpt lat="43.13324" lon="3.09255">
        <ele>64</ele>
        <time>2025-12-29T15:25:04.802Z</time>
      </trkpt>
      <trkpt lat="43.13324" lon="3.09255">
        <ele>64</ele>
        <time>2025-12-29T15:25:05.802Z</time>
      </trkpt>
      <trkpt lat="43.13323" lon="3.09255">
        <ele>63</ele>
        <time>2025-12-29T15:25:06.802Z</time>
      </trkpt>
      <trkpt lat="43.13323" lon="3.09255">
        <ele>63</ele>
        <time>2025-12-29T15:25:07.802Z</time>
      </trkpt>
      <trkpt lat="43.13323" lon="3.09255">
        <ele>63</ele>
        <time>2025-12-29T15:25:08.802Z</time>
      </trkpt>
      <trkpt lat="43.13323" lon="3.09255">
        <ele>63</ele>
        <time>2025-12-29T15:25:09.802Z</time>
      </trkpt>
      <trkpt lat="43.13324" lon="3.09255">
        <ele>62</ele>
        <time>2025-12-29T15:25:10.802Z</time>
      </trkpt>
      <trkpt lat="43.13324" lon="3.09255">
        <ele>62</ele>
        <time>2025-12-29T15:25:11.802Z</time>
      </trkpt>
      <trkpt lat="43.13324" lon="3.09255">
        <ele>62</ele>
        <time>2025-12-29T15:25:12.802Z</time>
      </trkpt>
      <trkpt lat="43.13324" lon="3.09255">
        <ele>61</ele>
        <time>2025-12-29T15:25:13.802Z</time>
      </trkpt>
      <trkpt lat="43.13324" lon="3.09255">
        <ele>61</ele>
        <time>2025-12-29T15:25:14.802Z</time>
      </trkpt>
      <trkpt lat="43.13324" lon="3.09255">
        <ele>61</ele>
        <time>2025-12-29T15:25:15.802Z</time>
      </trkpt>
      <trkpt lat="43.13323" lon="3.09254">
        <ele>61</ele>
        <time>2025-12-29T15:25:16.802Z</time>
      </trkpt>
      <trkpt lat="43.13323" lon="3.09254">
        <ele>60</ele>
        <time>2025-12-29T15:25:17.802Z</time>
      </trkpt>
      <trkpt lat="43.13323" lon="3.09254">
        <ele>60</ele>
        <time>2025-12-29T15:25:18.802Z</time>
      </trkpt>
      <trkpt lat="43.13323" lon="3.09254">
        <ele>60</ele>
        <time>2025-12-29T15:25:19.802Z</time>
      </trkpt>
      <trkpt lat="43.13323" lon="3.09254">
        <ele>60</ele>
        <time>2025-12-29T15:25:20.802Z</time>
      </trkpt>
      <trkpt lat="43.13323" lon="3.09254">
        <ele>60</ele>
        <time>2025-12-29T15:25:21.802Z</time>
      </trkpt>
      <trkpt lat="43.13323" lon="3.09254">
        <ele>60</ele>
        <time>2025-12-29T15:25:22.802Z</time>
      </trkpt>
      <trkpt lat="43.13323" lon="3.09254">
        <ele>60</ele>
        <time>2025-12-29T15:25:23.802Z</time>
      </trkpt>
      <trkpt lat="43.13323" lon="3.09254">
        <ele>60</ele>
        <time>2025-12-29T15:25:24.802Z</time>
      </trkpt>
      <trkpt lat="43.13323" lon="3.09253">
        <ele>61</ele>
        <time>2025-12-29T15:25:25.802Z</time>
      </trkpt>
      <trkpt lat="43.13323" lon="3.09253">
        <ele>61</ele>
        <time>2025-12-29T15:25:26.802Z</time>
      </trkpt>
      <trkpt lat="43.13323" lon="3.09253">
        <ele>61</ele>
        <time>2025-12-29T15:25:27.802Z</time>
      </trkpt>
      <trkpt lat="43.13323" lon="3.09253">
        <ele>61</ele>
        <time>2025-12-29T15:25:28.802Z</time>
      </trkpt>
      <trkpt lat="43.13323" lon="3.09253">
        <ele>61</ele>
        <time>2025-12-29T15:25:29.802Z</time>
      </trkpt>
      <trkpt lat="43.13323" lon="3.09253">
        <ele>61</ele>
        <time>2025-12-29T15:25:30.802Z</time>
      </trkpt>
      <trkpt lat="43.13323" lon="3.09253">
        <ele>61</ele>
        <time>2025-12-29T15:25:31.802Z</time>
      </trkpt>
      <trkpt lat="43.13323" lon="3.09253">
        <ele>61</ele>
        <time>2025-12-29T15:25:32.802Z</time>
      </trkpt>
      <trkpt lat="43.13322" lon="3.09252">
        <ele>61</ele>
        <time>2025-12-29T15:25:33.802Z</time>
      </trkpt>
      <trkpt lat="43.13322" lon="3.09252">
        <ele>61</ele>
        <time>2025-12-29T15:25:34.802Z</time>
      </trkpt>
      <trkpt lat="43.13322" lon="3.09252">
        <ele>61</ele>
        <time>2025-12-29T15:25:35.802Z</time>
      </trkpt>
      <trkpt lat="43.13322" lon="3.09252">
        <ele>62</ele>
        <time>2025-12-29T15:25:36.802Z</time>
      </trkpt>
      <trkpt lat="43.13322" lon="3.09252">
        <ele>62</ele>
        <time>2025-12-29T15:25:37.802Z</time>
      </trkpt>
      <trkpt lat="43.13323" lon="3.09252">
        <ele>62</ele>
        <time>2025-12-29T15:25:38.802Z</time>
      </trkpt>
      <trkpt lat="43.13322" lon="3.09252">
        <ele>62</ele>
        <time>2025-12-29T15:25:39.802Z</time>
      </trkpt>
      <trkpt lat="43.13323" lon="3.09252">
        <ele>62</ele>
        <time>2025-12-29T15:25:40.802Z</time>
      </trkpt>
      <trkpt lat="43.13322" lon="3.09253">
        <ele>62</ele>
        <time>2025-12-29T15:25:41.802Z</time>
      </trkpt>
      <trkpt lat="43.13322" lon="3.09254">
        <ele>61</ele>
        <time>2025-12-29T15:25:42.802Z</time>
      </trkpt>
      <trkpt lat="43.13323" lon="3.09256">
        <ele>61</ele>
        <time>2025-12-29T15:25:43.802Z</time>
      </trkpt>
      <trkpt lat="43.13323" lon="3.09258">
        <ele>61</ele>
        <time>2025-12-29T15:25:44.802Z</time>
      </trkpt>
      <trkpt lat="43.13323" lon="3.0926">
        <ele>61</ele>
        <time>2025-12-29T15:25:45.802Z</time>
      </trkpt>
      <trkpt lat="43.13322" lon="3.09262">
        <ele>62</ele>
        <time>2025-12-29T15:25:46.802Z</time>
      </trkpt>
      <trkpt lat="43.13322" lon="3.09264">
        <ele>62</ele>
        <time>2025-12-29T15:25:47.802Z</time>
      </trkpt>
      <trkpt lat="43.13322" lon="3.09267">
        <ele>63</ele>
        <time>2025-12-29T15:25:48.802Z</time>
      </trkpt>
      <trkpt lat="43.13322" lon="3.09269">
        <ele>63</ele>
        <time>2025-12-29T15:25:49.802Z</time>
      </trkpt>
      <trkpt lat="43.13321" lon="3.09272">
        <ele>63</ele>
        <time>2025-12-29T15:25:50.802Z</time>
      </trkpt>
      <trkpt lat="43.13321" lon="3.09275">
        <ele>64</ele>
        <time>2025-12-29T15:25:51.802Z</time>
      </trkpt>
      <trkpt lat="43.1332" lon="3.09279">
        <ele>64</ele>
        <time>2025-12-29T15:25:52.802Z</time>
      </trkpt>
      <trkpt lat="43.1332" lon="3.09282">
        <ele>65</ele>
        <time>2025-12-29T15:25:53.802Z</time>
      </trkpt>
      <trkpt lat="43.13319" lon="3.09285">
        <ele>65</ele>
        <time>2025-12-29T15:25:54.802Z</time>
      </trkpt>
      <trkpt lat="43.13319" lon="3.09288">
        <ele>65</ele>
        <time>2025-12-29T15:25:55.802Z</time>
      </trkpt>
      <trkpt lat="43.13319" lon="3.09292">
        <ele>66</ele>
        <time>2025-12-29T15:25:56.802Z</time>
      </trkpt>
      <trkpt lat="43.13319" lon="3.09294">
        <ele>66</ele>
        <time>2025-12-29T15:25:57.802Z</time>
      </trkpt>
      <trkpt lat="43.13319" lon="3.09296">
        <ele>66</ele>
        <time>2025-12-29T15:25:58.802Z</time>
      </trkpt>
      <trkpt lat="43.13319" lon="3.09298">
        <ele>67</ele>
        <time>2025-12-29T15:25:59.802Z</time>
      </trkpt>
      <trkpt lat="43.13319" lon="3.093">
        <ele>67</ele>
        <time>2025-12-29T15:26:00.802Z</time>
      </trkpt>
      <trkpt lat="43.13319" lon="3.09303">
        <ele>67</ele>
        <time>2025-12-29T15:26:01.802Z</time>
      </trkpt>
      <trkpt lat="43.1332" lon="3.09306">
        <ele>67</ele>
        <time>2025-12-29T15:26:02.802Z</time>
      </trkpt>
      <trkpt lat="43.1332" lon="3.09308">
        <ele>67</ele>
        <time>2025-12-29T15:26:03.802Z</time>
      </trkpt>
      <trkpt lat="43.1332" lon="3.09311">
        <ele>67</ele>
        <time>2025-12-29T15:26:04.802Z</time>
      </trkpt>
      <trkpt lat="43.13321" lon="3.09314">
        <ele>67</ele>
        <time>2025-12-29T15:26:05.802Z</time>
      </trkpt>
      <trkpt lat="43.13322" lon="3.09317">
        <ele>67</ele>
        <time>2025-12-29T15:26:06.802Z</time>
      </trkpt>
      <trkpt lat="43.13323" lon="3.0932">
        <ele>67</ele>
        <time>2025-12-29T15:26:07.802Z</time>
      </trkpt>
      <trkpt lat="43.13323" lon="3.09323">
        <ele>68</ele>
        <time>2025-12-29T15:26:08.802Z</time>
      </trkpt>
      <trkpt lat="43.13323" lon="3.09326">
        <ele>68</ele>
        <time>2025-12-29T15:26:09.802Z</time>
      </trkpt>
      <trkpt lat="43.13323" lon="3.09328">
        <ele>68</ele>
        <time>2025-12-29T15:26:10.802Z</time>
      </trkpt>
      <trkpt lat="43.13323" lon="3.09331">
        <ele>67</ele>
        <time>2025-12-29T15:26:11.802Z</time>
      </trkpt>
      <trkpt lat="43.13323" lon="3.09334">
        <ele>67</ele>
        <time>2025-12-29T15:26:12.802Z</time>
      </trkpt>
      <trkpt lat="43.13322" lon="3.09337">
        <ele>67</ele>
        <time>2025-12-29T15:26:13.802Z</time>
      </trkpt>
      <trkpt lat="43.13321" lon="3.09342">
        <ele>67</ele>
        <time>2025-12-29T15:26:14.802Z</time>
      </trkpt>
      <trkpt lat="43.13321" lon="3.09345">
        <ele>67</ele>
        <time>2025-12-29T15:26:15.802Z</time>
      </trkpt>
      <trkpt lat="43.1332" lon="3.09348">
        <ele>67</ele>
        <time>2025-12-29T15:26:16.802Z</time>
      </trkpt>
      <trkpt lat="43.1332" lon="3.09352">
        <ele>67</ele>
        <time>2025-12-29T15:26:17.802Z</time>
      </trkpt>
      <trkpt lat="43.13319" lon="3.09355">
        <ele>67</ele>
        <time>2025-12-29T15:26:18.802Z</time>
      </trkpt>
      <trkpt lat="43.13319" lon="3.09358">
        <ele>67</ele>
        <time>2025-12-29T15:26:19.802Z</time>
      </trkpt>
      <trkpt lat="43.13319" lon="3.09361">
        <ele>67</ele>
        <time>2025-12-29T15:26:20.802Z</time>
      </trkpt>
      <trkpt lat="43.13319" lon="3.09365">
        <ele>66</ele>
        <time>2025-12-29T15:26:21.802Z</time>
      </trkpt>
      <trkpt lat="43.13318" lon="3.09368">
        <ele>66</ele>
        <time>2025-12-29T15:26:22.802Z</time>
      </trkpt>
      <trkpt lat="43.13318" lon="3.0937">
        <ele>66</ele>
        <time>2025-12-29T15:26:23.802Z</time>
      </trkpt>
      <trkpt lat="43.13319" lon="3.09372">
        <ele>66</ele>
        <time>2025-12-29T15:26:24.802Z</time>
      </trkpt>
      <trkpt lat="43.13319" lon="3.09374">
        <ele>66</ele>
        <time>2025-12-29T15:26:25.802Z</time>
      </trkpt>
      <trkpt lat="43.13319" lon="3.09376">
        <ele>66</ele>
        <time>2025-12-29T15:26:26.802Z</time>
      </trkpt>
      <trkpt lat="43.1332" lon="3.09377">
        <ele>66</ele>
        <time>2025-12-29T15:26:27.802Z</time>
      </trkpt>
      <trkpt lat="43.1332" lon="3.09379">
        <ele>66</ele>
        <time>2025-12-29T15:26:28.802Z</time>
      </trkpt>
      <trkpt lat="43.1332" lon="3.0938">
        <ele>66</ele>
        <time>2025-12-29T15:26:29.802Z</time>
      </trkpt>
      <trkpt lat="43.13321" lon="3.09382">
        <ele>66</ele>
        <time>2025-12-29T15:26:30.802Z</time>
      </trkpt>
      <trkpt lat="43.13322" lon="3.09384">
        <ele>66</ele>
        <time>2025-12-29T15:26:31.802Z</time>
      </trkpt>
      <trkpt lat="43.13322" lon="3.09386">
        <ele>66</ele>
        <time>2025-12-29T15:26:32.802Z</time>
      </trkpt>
      <trkpt lat="43.13322" lon="3.09389">
        <ele>65</ele>
        <time>2025-12-29T15:26:33.802Z</time>
      </trkpt>
      <trkpt lat="43.13322" lon="3.09391">
        <ele>65</ele>
        <time>2025-12-29T15:26:34.802Z</time>
      </trkpt>
      <trkpt lat="43.13322" lon="3.09392">
        <ele>65</ele>
        <time>2025-12-29T15:26:35.802Z</time>
      </trkpt>
      <trkpt lat="43.13323" lon="3.09393">
        <ele>65</ele>
        <time>2025-12-29T15:26:36.802Z</time>
      </trkpt>
      <trkpt lat="43.13323" lon="3.09395">
        <ele>65</ele>
        <time>2025-12-29T15:26:37.802Z</time>
      </trkpt>
      <trkpt lat="43.13324" lon="3.09397">
        <ele>65</ele>
        <time>2025-12-29T15:26:38.802Z</time>
      </trkpt>
      <trkpt lat="43.13325" lon="3.09398">
        <ele>65</ele>
        <time>2025-12-29T15:26:39.802Z</time>
      </trkpt>
      <trkpt lat="43.13326" lon="3.09398">
        <ele>66</ele>
        <time>2025-12-29T15:26:40.802Z</time>
      </trkpt>
      <trkpt lat="43.13326" lon="3.09398">
        <ele>66</ele>
        <time>2025-12-29T15:26:41.802Z</time>
      </trkpt>
      <trkpt lat="43.13325" lon="3.09398">
        <ele>66</ele>
        <time>2025-12-29T15:26:42.802Z</time>
      </trkpt>
      <trkpt lat="43.13326" lon="3.09398">
        <ele>66</ele>
        <time>2025-12-29T15:26:43.802Z</time>
      </trkpt>
      <trkpt lat="43.13326" lon="3.09399">
        <ele>66</ele>
        <time>2025-12-29T15:26:44.802Z</time>
      </trkpt>
      <trkpt lat="43.13327" lon="3.09399">
        <ele>66</ele>
        <time>2025-12-29T15:26:45.802Z</time>
      </trkpt>
      <trkpt lat="43.13327" lon="3.09399">
        <ele>66</ele>
        <time>2025-12-29T15:26:46.802Z</time>
      </trkpt>
      <trkpt lat="43.13327" lon="3.09399">
        <ele>66</ele>
        <time>2025-12-29T15:26:47.802Z</time>
      </trkpt>
      <trkpt lat="43.13327" lon="3.09399">
        <ele>66</ele>
        <time>2025-12-29T15:26:48.802Z</time>
      </trkpt>
      <trkpt lat="43.13328" lon="3.094">
        <ele>67</ele>
        <time>2025-12-29T15:26:49.802Z</time>
      </trkpt>
      <trkpt lat="43.13328" lon="3.094">
        <ele>67</ele>
        <time>2025-12-29T15:26:50.802Z</time>
      </trkpt>
      <trkpt lat="43.13328" lon="3.09402">
        <ele>67</ele>
        <time>2025-12-29T15:26:51.802Z</time>
      </trkpt>
      <trkpt lat="43.13329" lon="3.09403">
        <ele>67</ele>
        <time>2025-12-29T15:26:52.802Z</time>
      </trkpt>
      <trkpt lat="43.13329" lon="3.09404">
        <ele>67</ele>
        <time>2025-12-29T15:26:53.802Z</time>
      </trkpt>
      <trkpt lat="43.1333" lon="3.09405">
        <ele>67</ele>
        <time>2025-12-29T15:26:54.802Z</time>
      </trkpt>
      <trkpt lat="43.1333" lon="3.09406">
        <ele>67</ele>
        <time>2025-12-29T15:26:55.802Z</time>
      </trkpt>
      <trkpt lat="43.13331" lon="3.09407">
        <ele>67</ele>
        <time>2025-12-29T15:26:56.802Z</time>
      </trkpt>
      <trkpt lat="43.13332" lon="3.09408">
        <ele>67</ele>
        <time>2025-12-29T15:26:57.802Z</time>
      </trkpt>
      <trkpt lat="43.13332" lon="3.0941">
        <ele>67</ele>
        <time>2025-12-29T15:26:58.802Z</time>
      </trkpt>
      <trkpt lat="43.13333" lon="3.09412">
        <ele>67</ele>
        <time>2025-12-29T15:26:59.802Z</time>
      </trkpt>
      <trkpt lat="43.13334" lon="3.09414">
        <ele>66</ele>
        <time>2025-12-29T15:27:00.802Z</time>
      </trkpt>
      <trkpt lat="43.13335" lon="3.09416">
        <ele>66</ele>
        <time>2025-12-29T15:27:01.802Z</time>
      </trkpt>
      <trkpt lat="43.13336" lon="3.09417">
        <ele>66</ele>
        <time>2025-12-29T15:27:02.802Z</time>
      </trkpt>
      <trkpt lat="43.13337" lon="3.09417">
        <ele>66</ele>
        <time>2025-12-29T15:27:03.802Z</time>
      </trkpt>
      <trkpt lat="43.13338" lon="3.09419">
        <ele>65</ele>
        <time>2025-12-29T15:27:04.802Z</time>
      </trkpt>
      <trkpt lat="43.13339" lon="3.0942">
        <ele>65</ele>
        <time>2025-12-29T15:27:05.802Z</time>
      </trkpt>
      <trkpt lat="43.1334" lon="3.09422">
        <ele>65</ele>
        <time>2025-12-29T15:27:06.802Z</time>
      </trkpt>
      <trkpt lat="43.13341" lon="3.09424">
        <ele>64</ele>
        <time>2025-12-29T15:27:07.802Z</time>
      </trkpt>
      <trkpt lat="43.13341" lon="3.09425">
        <ele>64</ele>
        <time>2025-12-29T15:27:08.802Z</time>
      </trkpt>
      <trkpt lat="43.13341" lon="3.09426">
        <ele>64</ele>
        <time>2025-12-29T15:27:09.802Z</time>
      </trkpt>
      <trkpt lat="43.13342" lon="3.09427">
        <ele>63</ele>
        <time>2025-12-29T15:27:10.802Z</time>
      </trkpt>
      <trkpt lat="43.13342" lon="3.09429">
        <ele>63</ele>
        <time>2025-12-29T15:27:11.802Z</time>
      </trkpt>
      <trkpt lat="43.13343" lon="3.09431">
        <ele>63</ele>
        <time>2025-12-29T15:27:12.802Z</time>
      </trkpt>
      <trkpt lat="43.13344" lon="3.09433">
        <ele>62</ele>
        <time>2025-12-29T15:27:13.802Z</time>
      </trkpt>
      <trkpt lat="43.13345" lon="3.09435">
        <ele>62</ele>
        <time>2025-12-29T15:27:14.802Z</time>
      </trkpt>
      <trkpt lat="43.13346" lon="3.09436">
        <ele>62</ele>
        <time>2025-12-29T15:27:15.802Z</time>
      </trkpt>
      <trkpt lat="43.13347" lon="3.09438">
        <ele>62</ele>
        <time>2025-12-29T15:27:16.802Z</time>
      </trkpt>
      <trkpt lat="43.13347" lon="3.0944">
        <ele>61</ele>
        <time>2025-12-29T15:27:17.802Z</time>
      </trkpt>
      <trkpt lat="43.13348" lon="3.09441">
        <ele>61</ele>
        <time>2025-12-29T15:27:18.802Z</time>
      </trkpt>
      <trkpt lat="43.13349" lon="3.09444">
        <ele>61</ele>
        <time>2025-12-29T15:27:19.802Z</time>
      </trkpt>
      <trkpt lat="43.13349" lon="3.09445">
        <ele>61</ele>
        <time>2025-12-29T15:27:20.802Z</time>
      </trkpt>
      <trkpt lat="43.1335" lon="3.09447">
        <ele>60</ele>
        <time>2025-12-29T15:27:21.802Z</time>
      </trkpt>
      <trkpt lat="43.13351" lon="3.09448">
        <ele>60</ele>
        <time>2025-12-29T15:27:22.802Z</time>
      </trkpt>
      <trkpt lat="43.13352" lon="3.09449">
        <ele>60</ele>
        <time>2025-12-29T15:27:23.802Z</time>
      </trkpt>
      <trkpt lat="43.13352" lon="3.09451">
        <ele>60</ele>
        <time>2025-12-29T15:27:24.802Z</time>
      </trkpt>
      <trkpt lat="43.13353" lon="3.09453">
        <ele>60</ele>
        <time>2025-12-29T15:27:25.802Z</time>
      </trkpt>
      <trkpt lat="43.13354" lon="3.09455">
        <ele>60</ele>
        <time>2025-12-29T15:27:26.802Z</time>
      </trkpt>
      <trkpt lat="43.13355" lon="3.09457">
        <ele>60</ele>
        <time>2025-12-29T15:27:27.802Z</time>
      </trkpt>
      <trkpt lat="43.13355" lon="3.09458">
        <ele>60</ele>
        <time>2025-12-29T15:27:28.802Z</time>
      </trkpt>
      <trkpt lat="43.13356" lon="3.0946">
        <ele>60</ele>
        <time>2025-12-29T15:27:29.802Z</time>
      </trkpt>
      <trkpt lat="43.13357" lon="3.09461">
        <ele>60</ele>
        <time>2025-12-29T15:27:30.802Z</time>
      </trkpt>
      <trkpt lat="43.13358" lon="3.09463">
        <ele>60</ele>
        <time>2025-12-29T15:27:31.802Z</time>
      </trkpt>
      <trkpt lat="43.13359" lon="3.09465">
        <ele>61</ele>
        <time>2025-12-29T15:27:32.802Z</time>
      </trkpt>
      <trkpt lat="43.13359" lon="3.09467">
        <ele>61</ele>
        <time>2025-12-29T15:27:33.802Z</time>
      </trkpt>
      <trkpt lat="43.13359" lon="3.09469">
        <ele>61</ele>
        <time>2025-12-29T15:27:34.802Z</time>
      </trkpt>
      <trkpt lat="43.13359" lon="3.0947">
        <ele>61</ele>
        <time>2025-12-29T15:27:35.802Z</time>
      </trkpt>
      <trkpt lat="43.13359" lon="3.09472">
        <ele>61</ele>
        <time>2025-12-29T15:27:36.802Z</time>
      </trkpt>
      <trkpt lat="43.13359" lon="3.09474">
        <ele>61</ele>
        <time>2025-12-29T15:27:37.802Z</time>
      </trkpt>
      <trkpt lat="43.1336" lon="3.09475">
        <ele>61</ele>
        <time>2025-12-29T15:27:38.802Z</time>
      </trkpt>
      <trkpt lat="43.1336" lon="3.09477">
        <ele>61</ele>
        <time>2025-12-29T15:27:39.802Z</time>
      </trkpt>
      <trkpt lat="43.13361" lon="3.09479">
        <ele>61</ele>
        <time>2025-12-29T15:27:40.802Z</time>
      </trkpt>
      <trkpt lat="43.13361" lon="3.0948">
        <ele>61</ele>
        <time>2025-12-29T15:27:41.802Z</time>
      </trkpt>
      <trkpt lat="43.13362" lon="3.09482">
        <ele>61</ele>
        <time>2025-12-29T15:27:42.802Z</time>
      </trkpt>
      <trkpt lat="43.13363" lon="3.09484">
        <ele>61</ele>
        <time>2025-12-29T15:27:43.802Z</time>
      </trkpt>
      <trkpt lat="43.13363" lon="3.09485">
        <ele>61</ele>
        <time>2025-12-29T15:27:44.802Z</time>
      </trkpt>
      <trkpt lat="43.13363" lon="3.09487">
        <ele>61</ele>
        <time>2025-12-29T15:27:45.802Z</time>
      </trkpt>
      <trkpt lat="43.13364" lon="3.0949">
        <ele>61</ele>
        <time>2025-12-29T15:27:46.802Z</time>
      </trkpt>
      <trkpt lat="43.13365" lon="3.09492">
        <ele>61</ele>
        <time>2025-12-29T15:27:47.802Z</time>
      </trkpt>
      <trkpt lat="43.13366" lon="3.09494">
        <ele>61</ele>
        <time>2025-12-29T15:27:48.802Z</time>
      </trkpt>
      <trkpt lat="43.13367" lon="3.09495">
        <ele>62</ele>
        <time>2025-12-29T15:27:49.802Z</time>
      </trkpt>
      <trkpt lat="43.13368" lon="3.09496">
        <ele>62</ele>
        <time>2025-12-29T15:27:50.802Z</time>
      </trkpt>
      <trkpt lat="43.13369" lon="3.09498">
        <ele>62</ele>
        <time>2025-12-29T15:27:51.802Z</time>
      </trkpt>
      <trkpt lat="43.1337" lon="3.09499">
        <ele>62</ele>
        <time>2025-12-29T15:27:52.802Z</time>
      </trkpt>
      <trkpt lat="43.13371" lon="3.09501">
        <ele>63</ele>
        <time>2025-12-29T15:27:53.802Z</time>
      </trkpt>
      <trkpt lat="43.13371" lon="3.09502">
        <ele>63</ele>
        <time>2025-12-29T15:27:54.802Z</time>
      </trkpt>
      <trkpt lat="43.13372" lon="3.09505">
        <ele>63</ele>
        <time>2025-12-29T15:27:55.802Z</time>
      </trkpt>
      <trkpt lat="43.13372" lon="3.09507">
        <ele>63</ele>
        <time>2025-12-29T15:27:56.802Z</time>
      </trkpt>
      <trkpt lat="43.13373" lon="3.09509">
        <ele>63</ele>
        <time>2025-12-29T15:27:57.802Z</time>
      </trkpt>
      <trkpt lat="43.13374" lon="3.09512">
        <ele>63</ele>
        <time>2025-12-29T15:27:58.802Z</time>
      </trkpt>
      <trkpt lat="43.13375" lon="3.09514">
        <ele>63</ele>
        <time>2025-12-29T15:27:59.802Z</time>
      </trkpt>
      <trkpt lat="43.13376" lon="3.09517">
        <ele>63</ele>
        <time>2025-12-29T15:28:00.802Z</time>
      </trkpt>
      <trkpt lat="43.13376" lon="3.0952">
        <ele>63</ele>
        <time>2025-12-29T15:28:01.802Z</time>
      </trkpt>
      <trkpt lat="43.13376" lon="3.09524">
        <ele>63</ele>
        <time>2025-12-29T15:28:02.802Z</time>
      </trkpt>
      <trkpt lat="43.13377" lon="3.09527">
        <ele>63</ele>
        <time>2025-12-29T15:28:03.802Z</time>
      </trkpt>
      <trkpt lat="43.13374" lon="3.09533">
        <ele>63</ele>
        <time>2025-12-29T15:28:04.802Z</time>
      </trkpt>
      <trkpt lat="43.13376" lon="3.0954">
        <ele>63</ele>
        <time>2025-12-29T15:28:05.802Z</time>
      </trkpt>
      <trkpt lat="43.13378" lon="3.09543">
        <ele>63</ele>
        <time>2025-12-29T15:28:06.802Z</time>
      </trkpt>
      <trkpt lat="43.1338" lon="3.09546">
        <ele>63</ele>
        <time>2025-12-29T15:28:07.802Z</time>
      </trkpt>
      <trkpt lat="43.13381" lon="3.09549">
        <ele>63</ele>
        <time>2025-12-29T15:28:08.802Z</time>
      </trkpt>
      <trkpt lat="43.13381" lon="3.09553">
        <ele>63</ele>
        <time>2025-12-29T15:28:09.802Z</time>
      </trkpt>
      <trkpt lat="43.13382" lon="3.09555">
        <ele>63</ele>
        <time>2025-12-29T15:28:10.802Z</time>
      </trkpt>
      <trkpt lat="43.13384" lon="3.09556">
        <ele>63</ele>
        <time>2025-12-29T15:28:11.802Z</time>
      </trkpt>
      <trkpt lat="43.13384" lon="3.09558">
        <ele>63</ele>
        <time>2025-12-29T15:28:12.802Z</time>
      </trkpt>
      <trkpt lat="43.13384" lon="3.09558">
        <ele>63</ele>
        <time>2025-12-29T15:28:13.802Z</time>
      </trkpt>
      <trkpt lat="43.13385" lon="3.09559">
        <ele>63</ele>
        <time>2025-12-29T15:28:14.802Z</time>
      </trkpt>
      <trkpt lat="43.13387" lon="3.09561">
        <ele>63</ele>
        <time>2025-12-29T15:28:15.802Z</time>
      </trkpt>
      <trkpt lat="43.13389" lon="3.09564">
        <ele>62</ele>
        <time>2025-12-29T15:28:16.802Z</time>
      </trkpt>
      <trkpt lat="43.13389" lon="3.09565">
        <ele>62</ele>
        <time>2025-12-29T15:28:17.802Z</time>
      </trkpt>
      <trkpt lat="43.13389" lon="3.09567">
        <ele>62</ele>
        <time>2025-12-29T15:28:18.802Z</time>
      </trkpt>
      <trkpt lat="43.1339" lon="3.09569">
        <ele>62</ele>
        <time>2025-12-29T15:28:19.802Z</time>
      </trkpt>
      <trkpt lat="43.1339" lon="3.0957">
        <ele>61</ele>
        <time>2025-12-29T15:28:20.802Z</time>
      </trkpt>
      <trkpt lat="43.1339" lon="3.09572">
        <ele>61</ele>
        <time>2025-12-29T15:28:21.802Z</time>
      </trkpt>
      <trkpt lat="43.1339" lon="3.09576">
        <ele>61</ele>
        <time>2025-12-29T15:28:22.802Z</time>
      </trkpt>
      <trkpt lat="43.13391" lon="3.09578">
        <ele>60</ele>
        <time>2025-12-29T15:28:23.802Z</time>
      </trkpt>
      <trkpt lat="43.13391" lon="3.0958">
        <ele>60</ele>
        <time>2025-12-29T15:28:24.802Z</time>
      </trkpt>
      <trkpt lat="43.13391" lon="3.09582">
        <ele>60</ele>
        <time>2025-12-29T15:28:25.802Z</time>
      </trkpt>
      <trkpt lat="43.13393" lon="3.09585">
        <ele>59</ele>
        <time>2025-12-29T15:28:26.802Z</time>
      </trkpt>
      <trkpt lat="43.13395" lon="3.09587">
        <ele>59</ele>
        <time>2025-12-29T15:28:27.802Z</time>
      </trkpt>
      <trkpt lat="43.13398" lon="3.09587">
        <ele>59</ele>
        <time>2025-12-29T15:28:28.802Z</time>
      </trkpt>
      <trkpt lat="43.13396" lon="3.09588">
        <ele>59</ele>
        <time>2025-12-29T15:28:29.802Z</time>
      </trkpt>
      <trkpt lat="43.13395" lon="3.0959">
        <ele>59</ele>
        <time>2025-12-29T15:28:30.802Z</time>
      </trkpt>
      <trkpt lat="43.13395" lon="3.09591">
        <ele>59</ele>
        <time>2025-12-29T15:28:31.802Z</time>
      </trkpt>
      <trkpt lat="43.13395" lon="3.09591">
        <ele>58</ele>
        <time>2025-12-29T15:28:32.802Z</time>
      </trkpt>
      <trkpt lat="43.13395" lon="3.09591">
        <ele>58</ele>
        <time>2025-12-29T15:28:33.802Z</time>
      </trkpt>
      <trkpt lat="43.13395" lon="3.09593">
        <ele>58</ele>
        <time>2025-12-29T15:28:34.802Z</time>
      </trkpt>
      <trkpt lat="43.13396" lon="3.09595">
        <ele>58</ele>
        <time>2025-12-29T15:28:35.802Z</time>
      </trkpt>
      <trkpt lat="43.13397" lon="3.09596">
        <ele>58</ele>
        <time>2025-12-29T15:28:36.802Z</time>
      </trkpt>
      <trkpt lat="43.13398" lon="3.09597">
        <ele>58</ele>
        <time>2025-12-29T15:28:37.802Z</time>
      </trkpt>
      <trkpt lat="43.134" lon="3.09598">
        <ele>58</ele>
        <time>2025-12-29T15:28:38.802Z</time>
      </trkpt>
      <trkpt lat="43.13401" lon="3.09599">
        <ele>58</ele>
        <time>2025-12-29T15:28:39.802Z</time>
      </trkpt>
      <trkpt lat="43.13402" lon="3.096">
        <ele>58</ele>
        <time>2025-12-29T15:28:40.802Z</time>
      </trkpt>
      <trkpt lat="43.13403" lon="3.09601">
        <ele>58</ele>
        <time>2025-12-29T15:28:41.802Z</time>
      </trkpt>
      <trkpt lat="43.13403" lon="3.09602">
        <ele>58</ele>
        <time>2025-12-29T15:28:42.802Z</time>
      </trkpt>
      <trkpt lat="43.13405" lon="3.09603">
        <ele>58</ele>
        <time>2025-12-29T15:28:43.802Z</time>
      </trkpt>
      <trkpt lat="43.13406" lon="3.09604">
        <ele>58</ele>
        <time>2025-12-29T15:28:44.802Z</time>
      </trkpt>
      <trkpt lat="43.13407" lon="3.09605">
        <ele>58</ele>
        <time>2025-12-29T15:28:45.802Z</time>
      </trkpt>
      <trkpt lat="43.13407" lon="3.09607">
        <ele>58</ele>
        <time>2025-12-29T15:28:46.802Z</time>
      </trkpt>
      <trkpt lat="43.13408" lon="3.09608">
        <ele>58</ele>
        <time>2025-12-29T15:28:47.802Z</time>
      </trkpt>
      <trkpt lat="43.13409" lon="3.09609">
        <ele>58</ele>
        <time>2025-12-29T15:28:48.802Z</time>
      </trkpt>
      <trkpt lat="43.1341" lon="3.0961">
        <ele>58</ele>
        <time>2025-12-29T15:28:49.802Z</time>
      </trkpt>
      <trkpt lat="43.13412" lon="3.09611">
        <ele>58</ele>
        <time>2025-12-29T15:28:50.802Z</time>
      </trkpt>
      <trkpt lat="43.13413" lon="3.09613">
        <ele>58</ele>
        <time>2025-12-29T15:28:51.802Z</time>
      </trkpt>
      <trkpt lat="43.13413" lon="3.09614">
        <ele>58</ele>
        <time>2025-12-29T15:28:52.802Z</time>
      </trkpt>
      <trkpt lat="43.13415" lon="3.09616">
        <ele>58</ele>
        <time>2025-12-29T15:28:53.802Z</time>
      </trkpt>
      <trkpt lat="43.13416" lon="3.09618">
        <ele>57</ele>
        <time>2025-12-29T15:28:54.802Z</time>
      </trkpt>
      <trkpt lat="43.13419" lon="3.09621">
        <ele>57</ele>
        <time>2025-12-29T15:28:55.802Z</time>
      </trkpt>
      <trkpt lat="43.13421" lon="3.09623">
        <ele>57</ele>
        <time>2025-12-29T15:28:56.802Z</time>
      </trkpt>
      <trkpt lat="43.13422" lon="3.09625">
        <ele>58</ele>
        <time>2025-12-29T15:28:57.802Z</time>
      </trkpt>
      <trkpt lat="43.13423" lon="3.09627">
        <ele>57</ele>
        <time>2025-12-29T15:28:58.802Z</time>
      </trkpt>
      <trkpt lat="43.13424" lon="3.09627">
        <ele>57</ele>
        <time>2025-12-29T15:28:59.802Z</time>
      </trkpt>
      <trkpt lat="43.13423" lon="3.09628">
        <ele>57</ele>
        <time>2025-12-29T15:29:00.802Z</time>
      </trkpt>
      <trkpt lat="43.13424" lon="3.09629">
        <ele>57</ele>
        <time>2025-12-29T15:29:01.802Z</time>
      </trkpt>
      <trkpt lat="43.13426" lon="3.09632">
        <ele>57</ele>
        <time>2025-12-29T15:29:02.802Z</time>
      </trkpt>
      <trkpt lat="43.13428" lon="3.09636">
        <ele>57</ele>
        <time>2025-12-29T15:29:03.802Z</time>
      </trkpt>
      <trkpt lat="43.13429" lon="3.09638">
        <ele>57</ele>
        <time>2025-12-29T15:29:04.802Z</time>
      </trkpt>
      <trkpt lat="43.13431" lon="3.09636">
        <ele>57</ele>
        <time>2025-12-29T15:29:05.802Z</time>
      </trkpt>
      <trkpt lat="43.13433" lon="3.09632">
        <ele>57</ele>
        <time>2025-12-29T15:29:06.802Z</time>
      </trkpt>
      <trkpt lat="43.13433" lon="3.09632">
        <ele>57</ele>
        <time>2025-12-29T15:29:07.802Z</time>
      </trkpt>
      <trkpt lat="43.13434" lon="3.0963">
        <ele>57</ele>
        <time>2025-12-29T15:29:08.802Z</time>
      </trkpt>
      <trkpt lat="43.13433" lon="3.09628">
        <ele>56</ele>
        <time>2025-12-29T15:29:09.802Z</time>
      </trkpt>
      <trkpt lat="43.13434" lon="3.09628">
        <ele>56</ele>
        <time>2025-12-29T15:29:10.802Z</time>
      </trkpt>
      <trkpt lat="43.13434" lon="3.09628">
        <ele>56</ele>
        <time>2025-12-29T15:29:11.802Z</time>
      </trkpt>
      <trkpt lat="43.13436" lon="3.09627">
        <ele>55</ele>
        <time>2025-12-29T15:29:12.802Z</time>
      </trkpt>
      <trkpt lat="43.13437" lon="3.09627">
        <ele>55</ele>
        <time>2025-12-29T15:29:13.802Z</time>
      </trkpt>
      <trkpt lat="43.13439" lon="3.09626">
        <ele>54</ele>
        <time>2025-12-29T15:29:14.802Z</time>
      </trkpt>
      <trkpt lat="43.1344" lon="3.09625">
        <ele>54</ele>
        <time>2025-12-29T15:29:15.802Z</time>
      </trkpt>
      <trkpt lat="43.13441" lon="3.09624">
        <ele>53</ele>
        <time>2025-12-29T15:29:16.802Z</time>
      </trkpt>
      <trkpt lat="43.13442" lon="3.09622">
        <ele>53</ele>
        <time>2025-12-29T15:29:17.802Z</time>
      </trkpt>
      <trkpt lat="43.13443" lon="3.09621">
        <ele>52</ele>
        <time>2025-12-29T15:29:18.802Z</time>
      </trkpt>
      <trkpt lat="43.13444" lon="3.09621">
        <ele>52</ele>
        <time>2025-12-29T15:29:19.802Z</time>
      </trkpt>
      <trkpt lat="43.13446" lon="3.0962">
        <ele>52</ele>
        <time>2025-12-29T15:29:20.802Z</time>
      </trkpt>
      <trkpt lat="43.13447" lon="3.09619">
        <ele>52</ele>
        <time>2025-12-29T15:29:21.802Z</time>
      </trkpt>
      <trkpt lat="43.13449" lon="3.09618">
        <ele>51</ele>
        <time>2025-12-29T15:29:22.802Z</time>
      </trkpt>
      <trkpt lat="43.1345" lon="3.09617">
        <ele>51</ele>
        <time>2025-12-29T15:29:23.802Z</time>
      </trkpt>
      <trkpt lat="43.13452" lon="3.09615">
        <ele>50</ele>
        <time>2025-12-29T15:29:24.802Z</time>
      </trkpt>
      <trkpt lat="43.13452" lon="3.09614">
        <ele>50</ele>
        <time>2025-12-29T15:29:25.802Z</time>
      </trkpt>
      <trkpt lat="43.13454" lon="3.09613">
        <ele>50</ele>
        <time>2025-12-29T15:29:26.802Z</time>
      </trkpt>
      <trkpt lat="43.13454" lon="3.09613">
        <ele>49</ele>
        <time>2025-12-29T15:29:27.802Z</time>
      </trkpt>
      <trkpt lat="43.13455" lon="3.09612">
        <ele>49</ele>
        <time>2025-12-29T15:29:28.802Z</time>
      </trkpt>
      <trkpt lat="43.13456" lon="3.09611">
        <ele>49</ele>
        <time>2025-12-29T15:29:29.802Z</time>
      </trkpt>
      <trkpt lat="43.13458" lon="3.09612">
        <ele>49</ele>
        <time>2025-12-29T15:29:30.802Z</time>
      </trkpt>
      <trkpt lat="43.1346" lon="3.09612">
        <ele>49</ele>
        <time>2025-12-29T15:29:31.802Z</time>
      </trkpt>
      <trkpt lat="43.13462" lon="3.09612">
        <ele>49</ele>
        <time>2025-12-29T15:29:32.802Z</time>
      </trkpt>
      <trkpt lat="43.13463" lon="3.09612">
        <ele>49</ele>
        <time>2025-12-29T15:29:33.802Z</time>
      </trkpt>
      <trkpt lat="43.13464" lon="3.09613">
        <ele>49</ele>
        <time>2025-12-29T15:29:34.802Z</time>
      </trkpt>
      <trkpt lat="43.13465" lon="3.09613">
        <ele>49</ele>
        <time>2025-12-29T15:29:35.802Z</time>
      </trkpt>
      <trkpt lat="43.13466" lon="3.09613">
        <ele>49</ele>
        <time>2025-12-29T15:29:36.802Z</time>
      </trkpt>
      <trkpt lat="43.13467" lon="3.09615">
        <ele>50</ele>
        <time>2025-12-29T15:29:37.802Z</time>
      </trkpt>
      <trkpt lat="43.13468" lon="3.09616">
        <ele>50</ele>
        <time>2025-12-29T15:29:38.802Z</time>
      </trkpt>
      <trkpt lat="43.13469" lon="3.09617">
        <ele>50</ele>
        <time>2025-12-29T15:29:39.802Z</time>
      </trkpt>
      <trkpt lat="43.1347" lon="3.09618">
        <ele>50</ele>
        <time>2025-12-29T15:29:40.802Z</time>
      </trkpt>
      <trkpt lat="43.1347" lon="3.09619">
        <ele>50</ele>
        <time>2025-12-29T15:29:41.802Z</time>
      </trkpt>
      <trkpt lat="43.13471" lon="3.09621">
        <ele>50</ele>
        <time>2025-12-29T15:29:42.802Z</time>
      </trkpt>
      <trkpt lat="43.13472" lon="3.09621">
        <ele>50</ele>
        <time>2025-12-29T15:29:43.802Z</time>
      </trkpt>
      <trkpt lat="43.13473" lon="3.09622">
        <ele>49</ele>
        <time>2025-12-29T15:29:44.802Z</time>
      </trkpt>
      <trkpt lat="43.13474" lon="3.09623">
        <ele>49</ele>
        <time>2025-12-29T15:29:45.802Z</time>
      </trkpt>
      <trkpt lat="43.13474" lon="3.09624">
        <ele>49</ele>
        <time>2025-12-29T15:29:46.802Z</time>
      </trkpt>
      <trkpt lat="43.13475" lon="3.09625">
        <ele>49</ele>
        <time>2025-12-29T15:29:47.802Z</time>
      </trkpt>
      <trkpt lat="43.13476" lon="3.09626">
        <ele>49</ele>
        <time>2025-12-29T15:29:48.802Z</time>
      </trkpt>
      <trkpt lat="43.13476" lon="3.09627">
        <ele>49</ele>
        <time>2025-12-29T15:29:49.802Z</time>
      </trkpt>
      <trkpt lat="43.13476" lon="3.09629">
        <ele>49</ele>
        <time>2025-12-29T15:29:50.802Z</time>
      </trkpt>
      <trkpt lat="43.13476" lon="3.0963">
        <ele>49</ele>
        <time>2025-12-29T15:29:51.802Z</time>
      </trkpt>
      <trkpt lat="43.13476" lon="3.09631">
        <ele>49</ele>
        <time>2025-12-29T15:29:52.802Z</time>
      </trkpt>
    </trkseg>
  </trk>
</gpx>